<?xml version="1.0" encoding="UTF-8" standalone="no" ?>
<gpx xmlns="http://www.topografix.com/GPX/1/1" xmlns:xsi="http://www.w3.org/2001/XMLSchema-instance" xsi:schemaLocation="http://www.topografix.com/GPX/1/1 http://www.topografix.com/GPX/1/1/gpx.xsd" version="1.1" creator="VisuGPX - https://www.visugpx.com">
  <metadata>
    <name>Record battu</name>
    <desc><![CDATA[Record battu]]></desc>
  </metadata>
  <trk>
    <name><![CDATA[Rue Antoine Coysevox]]></name>
    <desc><![CDATA[Total: 43.9km]]></desc>
    <trkseg>
      <trkpt lat="47.51339" lon="6.7725">
        <ele>377</ele>
        <time>2015-08-02T07:21:48Z</time>
      </trkpt>
      <trkpt lat="47.51355" lon="6.77262">
        <ele>378</ele>
        <time>2015-08-02T07:21:48Z</time>
      </trkpt>
      <trkpt lat="47.51355" lon="6.77267">
        <ele>378</ele>
        <time>2015-08-02T07:21:49Z</time>
      </trkpt>
      <trkpt lat="47.51347" lon="6.77265">
        <ele>378</ele>
        <time>2015-08-02T07:21:50Z</time>
      </trkpt>
      <trkpt lat="47.51346" lon="6.77264">
        <ele>378</ele>
        <time>2015-08-02T07:21:50Z</time>
      </trkpt>
      <trkpt lat="47.51346" lon="6.77271">
        <ele>378</ele>
        <time>2015-08-02T07:21:51Z</time>
      </trkpt>
      <trkpt lat="47.51342" lon="6.77274">
        <ele>378</ele>
        <time>2015-08-02T07:21:53Z</time>
      </trkpt>
      <trkpt lat="47.51339" lon="6.77274">
        <ele>378</ele>
        <time>2015-08-02T07:21:53Z</time>
      </trkpt>
      <trkpt lat="47.51336" lon="6.77274">
        <ele>378</ele>
        <time>2015-08-02T07:21:53Z</time>
      </trkpt>
      <trkpt lat="47.51333" lon="6.77277">
        <ele>377</ele>
        <time>2015-08-02T07:21:55Z</time>
      </trkpt>
      <trkpt lat="47.5133" lon="6.77277">
        <ele>377</ele>
        <time>2015-08-02T07:21:55Z</time>
      </trkpt>
      <trkpt lat="47.51327" lon="6.77277">
        <ele>377</ele>
        <time>2015-08-02T07:21:56Z</time>
      </trkpt>
      <trkpt lat="47.51324" lon="6.77277">
        <ele>377</ele>
        <time>2015-08-02T07:21:57Z</time>
      </trkpt>
      <trkpt lat="47.51313" lon="6.77272">
        <ele>377</ele>
        <time>2015-08-02T07:21:59Z</time>
      </trkpt>
      <trkpt lat="47.51306" lon="6.7727">
        <ele>377</ele>
        <time>2015-08-02T07:22:00Z</time>
      </trkpt>
      <trkpt lat="47.51302" lon="6.77269">
        <ele>377</ele>
        <time>2015-08-02T07:22:01Z</time>
      </trkpt>
      <trkpt lat="47.51299" lon="6.77268">
        <ele>377</ele>
        <time>2015-08-02T07:22:01Z</time>
      </trkpt>
      <trkpt lat="47.51285" lon="6.77261">
        <ele>377</ele>
        <time>2015-08-02T07:22:03Z</time>
      </trkpt>
      <trkpt lat="47.51278" lon="6.77257">
        <ele>377</ele>
        <time>2015-08-02T07:22:04Z</time>
      </trkpt>
      <trkpt lat="47.51267" lon="6.77249">
        <ele>378</ele>
        <time>2015-08-02T07:22:06Z</time>
      </trkpt>
      <trkpt lat="47.51263" lon="6.77246">
        <ele>378</ele>
        <time>2015-08-02T07:22:08Z</time>
      </trkpt>
      <trkpt lat="47.51259" lon="6.77242">
        <ele>378</ele>
        <time>2015-08-02T07:22:09Z</time>
      </trkpt>
      <trkpt lat="47.51256" lon="6.77238">
        <ele>378</ele>
        <time>2015-08-02T07:22:09Z</time>
      </trkpt>
      <trkpt lat="47.51253" lon="6.77234">
        <ele>378</ele>
        <time>2015-08-02T07:22:10Z</time>
      </trkpt>
      <trkpt lat="47.51248" lon="6.77226">
        <ele>377</ele>
        <time>2015-08-02T07:22:13Z</time>
      </trkpt>
      <trkpt lat="47.51245" lon="6.77221">
        <ele>376</ele>
        <time>2015-08-02T07:22:14Z</time>
      </trkpt>
      <trkpt lat="47.5124" lon="6.77212">
        <ele>376</ele>
        <time>2015-08-02T07:22:15Z</time>
      </trkpt>
      <trkpt lat="47.51237" lon="6.77207">
        <ele>376</ele>
        <time>2015-08-02T07:22:16Z</time>
      </trkpt>
      <trkpt lat="47.51234" lon="6.772">
        <ele>376</ele>
        <time>2015-08-02T07:22:17Z</time>
      </trkpt>
      <trkpt lat="47.51226" lon="6.77184">
        <ele>376</ele>
        <time>2015-08-02T07:22:19Z</time>
      </trkpt>
      <trkpt lat="47.51221" lon="6.77174">
        <ele>376</ele>
        <time>2015-08-02T07:22:20Z</time>
      </trkpt>
      <trkpt lat="47.51218" lon="6.77169">
        <ele>376</ele>
        <time>2015-08-02T07:22:21Z</time>
      </trkpt>
      <trkpt lat="47.51212" lon="6.77158">
        <ele>378</ele>
        <time>2015-08-02T07:22:22Z</time>
      </trkpt>
      <trkpt lat="47.51209" lon="6.77153">
        <ele>378</ele>
        <time>2015-08-02T07:22:23Z</time>
      </trkpt>
      <trkpt lat="47.51206" lon="6.77148">
        <ele>378</ele>
        <time>2015-08-02T07:22:23Z</time>
      </trkpt>
      <trkpt lat="47.51203" lon="6.77142">
        <ele>378</ele>
        <time>2015-08-02T07:22:24Z</time>
      </trkpt>
      <trkpt lat="47.51199" lon="6.77136">
        <ele>378</ele>
        <time>2015-08-02T07:22:25Z</time>
      </trkpt>
      <trkpt lat="47.51195" lon="6.77129">
        <ele>378</ele>
        <time>2015-08-02T07:22:25Z</time>
      </trkpt>
      <trkpt lat="47.51192" lon="6.77121">
        <ele>378</ele>
        <time>2015-08-02T07:22:26Z</time>
      </trkpt>
      <trkpt lat="47.51185" lon="6.77107">
        <ele>378</ele>
        <time>2015-08-02T07:22:27Z</time>
      </trkpt>
      <trkpt lat="47.51177" lon="6.77092">
        <ele>378</ele>
        <time>2015-08-02T07:22:29Z</time>
      </trkpt>
      <trkpt lat="47.51173" lon="6.77083">
        <ele>377</ele>
        <time>2015-08-02T07:22:29Z</time>
      </trkpt>
      <trkpt lat="47.51169" lon="6.77075">
        <ele>377</ele>
        <time>2015-08-02T07:22:30Z</time>
      </trkpt>
      <trkpt lat="47.51165" lon="6.77068">
        <ele>377</ele>
        <time>2015-08-02T07:22:31Z</time>
      </trkpt>
      <trkpt lat="47.51159" lon="6.77062">
        <ele>376</ele>
        <time>2015-08-02T07:22:31Z</time>
      </trkpt>
      <trkpt lat="47.51153" lon="6.77056">
        <ele>376</ele>
        <time>2015-08-02T07:22:32Z</time>
      </trkpt>
      <trkpt lat="47.51148" lon="6.77051">
        <ele>376</ele>
        <time>2015-08-02T07:22:33Z</time>
      </trkpt>
      <trkpt lat="47.51141" lon="6.77046">
        <ele>376</ele>
        <time>2015-08-02T07:22:33Z</time>
      </trkpt>
      <trkpt lat="47.51131" lon="6.77035">
        <ele>375</ele>
        <time>2015-08-02T07:22:34Z</time>
      </trkpt>
      <trkpt lat="47.51119" lon="6.77024">
        <ele>375</ele>
        <time>2015-08-02T07:22:35Z</time>
      </trkpt>
      <trkpt lat="47.51113" lon="6.77018">
        <ele>375</ele>
        <time>2015-08-02T07:22:37Z</time>
      </trkpt>
      <trkpt lat="47.51107" lon="6.77013">
        <ele>375</ele>
        <time>2015-08-02T07:22:37Z</time>
      </trkpt>
      <trkpt lat="47.511" lon="6.77009">
        <ele>375</ele>
        <time>2015-08-02T07:22:38Z</time>
      </trkpt>
      <trkpt lat="47.51094" lon="6.77004">
        <ele>375</ele>
        <time>2015-08-02T07:22:39Z</time>
      </trkpt>
      <trkpt lat="47.51087" lon="6.77">
        <ele>375</ele>
        <time>2015-08-02T07:22:39Z</time>
      </trkpt>
      <trkpt lat="47.5108" lon="6.76996">
        <ele>375</ele>
        <time>2015-08-02T07:22:40Z</time>
      </trkpt>
      <trkpt lat="47.51074" lon="6.76991">
        <ele>375</ele>
        <time>2015-08-02T07:22:41Z</time>
      </trkpt>
      <trkpt lat="47.51054" lon="6.76978">
        <ele>375</ele>
        <time>2015-08-02T07:22:43Z</time>
      </trkpt>
      <trkpt lat="47.51048" lon="6.76974">
        <ele>375</ele>
        <time>2015-08-02T07:22:43Z</time>
      </trkpt>
      <trkpt lat="47.51037" lon="6.76966">
        <ele>375</ele>
        <time>2015-08-02T07:22:44Z</time>
      </trkpt>
      <trkpt lat="47.51032" lon="6.76959">
        <ele>375</ele>
        <time>2015-08-02T07:22:44Z</time>
      </trkpt>
      <trkpt lat="47.51027" lon="6.76953">
        <ele>375</ele>
        <time>2015-08-02T07:22:45Z</time>
      </trkpt>
      <trkpt lat="47.51022" lon="6.7695">
        <ele>375</ele>
        <time>2015-08-02T07:22:46Z</time>
      </trkpt>
      <trkpt lat="47.51016" lon="6.76946">
        <ele>375</ele>
        <time>2015-08-02T07:22:46Z</time>
      </trkpt>
      <trkpt lat="47.51013" lon="6.7694">
        <ele>375</ele>
        <time>2015-08-02T07:22:47Z</time>
      </trkpt>
      <trkpt lat="47.51007" lon="6.76934">
        <ele>375</ele>
        <time>2015-08-02T07:22:48Z</time>
      </trkpt>
      <trkpt lat="47.51002" lon="6.7693">
        <ele>375</ele>
        <time>2015-08-02T07:22:48Z</time>
      </trkpt>
      <trkpt lat="47.50997" lon="6.76925">
        <ele>375</ele>
        <time>2015-08-02T07:22:50Z</time>
      </trkpt>
      <trkpt lat="47.50993" lon="6.76919">
        <ele>375</ele>
        <time>2015-08-02T07:22:51Z</time>
      </trkpt>
      <trkpt lat="47.50992" lon="6.76912">
        <ele>376</ele>
        <time>2015-08-02T07:22:51Z</time>
      </trkpt>
      <trkpt lat="47.5099" lon="6.76906">
        <ele>377</ele>
        <time>2015-08-02T07:22:52Z</time>
      </trkpt>
      <trkpt lat="47.5098" lon="6.769">
        <ele>377</ele>
        <time>2015-08-02T07:22:53Z</time>
      </trkpt>
      <trkpt lat="47.50974" lon="6.769">
        <ele>377</ele>
        <time>2015-08-02T07:22:53Z</time>
      </trkpt>
      <trkpt lat="47.50969" lon="6.76899">
        <ele>377</ele>
        <time>2015-08-02T07:22:54Z</time>
      </trkpt>
      <trkpt lat="47.50965" lon="6.769">
        <ele>377</ele>
        <time>2015-08-02T07:22:54Z</time>
      </trkpt>
      <trkpt lat="47.5096" lon="6.76902">
        <ele>377</ele>
        <time>2015-08-02T07:22:55Z</time>
      </trkpt>
      <trkpt lat="47.50956" lon="6.76895">
        <ele>377</ele>
        <time>2015-08-02T07:22:57Z</time>
      </trkpt>
      <trkpt lat="47.50951" lon="6.76891">
        <ele>378</ele>
        <time>2015-08-02T07:22:57Z</time>
      </trkpt>
      <trkpt lat="47.50943" lon="6.76883">
        <ele>378</ele>
        <time>2015-08-02T07:23:01Z</time>
      </trkpt>
      <trkpt lat="47.50939" lon="6.76876">
        <ele>378</ele>
        <time>2015-08-02T07:23:01Z</time>
      </trkpt>
      <trkpt lat="47.50935" lon="6.76872">
        <ele>378</ele>
        <time>2015-08-02T07:23:02Z</time>
      </trkpt>
      <trkpt lat="47.50931" lon="6.76867">
        <ele>378</ele>
        <time>2015-08-02T07:23:03Z</time>
      </trkpt>
      <trkpt lat="47.50928" lon="6.76861">
        <ele>378</ele>
        <time>2015-08-02T07:23:03Z</time>
      </trkpt>
      <trkpt lat="47.50924" lon="6.76856">
        <ele>378</ele>
        <time>2015-08-02T07:23:03Z</time>
      </trkpt>
      <trkpt lat="47.50921" lon="6.7685">
        <ele>379</ele>
        <time>2015-08-02T07:23:04Z</time>
      </trkpt>
      <trkpt lat="47.50918" lon="6.76843">
        <ele>379</ele>
        <time>2015-08-02T07:23:04Z</time>
      </trkpt>
      <trkpt lat="47.50914" lon="6.76838">
        <ele>380</ele>
        <time>2015-08-02T07:23:06Z</time>
      </trkpt>
      <trkpt lat="47.50909" lon="6.76826">
        <ele>381</ele>
        <time>2015-08-02T07:23:07Z</time>
      </trkpt>
      <trkpt lat="47.50906" lon="6.76819">
        <ele>381</ele>
        <time>2015-08-02T07:23:08Z</time>
      </trkpt>
      <trkpt lat="47.50903" lon="6.76813">
        <ele>381</ele>
        <time>2015-08-02T07:23:09Z</time>
      </trkpt>
      <trkpt lat="47.509" lon="6.76808">
        <ele>381</ele>
        <time>2015-08-02T07:23:09Z</time>
      </trkpt>
      <trkpt lat="47.50893" lon="6.76789">
        <ele>381</ele>
        <time>2015-08-02T07:23:11Z</time>
      </trkpt>
      <trkpt lat="47.50885" lon="6.76766">
        <ele>381</ele>
        <time>2015-08-02T07:23:13Z</time>
      </trkpt>
      <trkpt lat="47.50883" lon="6.76759">
        <ele>381</ele>
        <time>2015-08-02T07:23:14Z</time>
      </trkpt>
      <trkpt lat="47.50881" lon="6.76754">
        <ele>381</ele>
        <time>2015-08-02T07:23:14Z</time>
      </trkpt>
      <trkpt lat="47.50879" lon="6.76747">
        <ele>382</ele>
        <time>2015-08-02T07:23:15Z</time>
      </trkpt>
      <trkpt lat="47.50877" lon="6.76741">
        <ele>383</ele>
        <time>2015-08-02T07:23:16Z</time>
      </trkpt>
      <trkpt lat="47.50875" lon="6.76737">
        <ele>383</ele>
        <time>2015-08-02T07:23:16Z</time>
      </trkpt>
      <trkpt lat="47.50874" lon="6.76731">
        <ele>383</ele>
        <time>2015-08-02T07:23:17Z</time>
      </trkpt>
      <trkpt lat="47.50872" lon="6.76725">
        <ele>383</ele>
        <time>2015-08-02T07:23:19Z</time>
      </trkpt>
      <trkpt lat="47.50869" lon="6.76714">
        <ele>383</ele>
        <time>2015-08-02T07:23:20Z</time>
      </trkpt>
      <trkpt lat="47.50867" lon="6.76708">
        <ele>384</ele>
        <time>2015-08-02T07:23:21Z</time>
      </trkpt>
      <trkpt lat="47.50861" lon="6.76699">
        <ele>384</ele>
        <time>2015-08-02T07:23:22Z</time>
      </trkpt>
      <trkpt lat="47.50859" lon="6.76695">
        <ele>384</ele>
        <time>2015-08-02T07:23:23Z</time>
      </trkpt>
      <trkpt lat="47.50856" lon="6.7669">
        <ele>385</ele>
        <time>2015-08-02T07:23:23Z</time>
      </trkpt>
      <trkpt lat="47.50853" lon="6.7668">
        <ele>385</ele>
        <time>2015-08-02T07:23:24Z</time>
      </trkpt>
      <trkpt lat="47.50849" lon="6.7667">
        <ele>386</ele>
        <time>2015-08-02T07:23:25Z</time>
      </trkpt>
      <trkpt lat="47.50846" lon="6.76665">
        <ele>388</ele>
        <time>2015-08-02T07:23:26Z</time>
      </trkpt>
      <trkpt lat="47.50844" lon="6.7666">
        <ele>388</ele>
        <time>2015-08-02T07:23:26Z</time>
      </trkpt>
      <trkpt lat="47.50838" lon="6.76646">
        <ele>387</ele>
        <time>2015-08-02T07:23:28Z</time>
      </trkpt>
      <trkpt lat="47.50835" lon="6.76637">
        <ele>387</ele>
        <time>2015-08-02T07:23:30Z</time>
      </trkpt>
      <trkpt lat="47.50829" lon="6.76625">
        <ele>390</ele>
        <time>2015-08-02T07:23:33Z</time>
      </trkpt>
      <trkpt lat="47.50824" lon="6.76613">
        <ele>390</ele>
        <time>2015-08-02T07:23:34Z</time>
      </trkpt>
      <trkpt lat="47.5082" lon="6.76601">
        <ele>390</ele>
        <time>2015-08-02T07:23:36Z</time>
      </trkpt>
      <trkpt lat="47.50819" lon="6.76597">
        <ele>390</ele>
        <time>2015-08-02T07:23:36Z</time>
      </trkpt>
      <trkpt lat="47.50818" lon="6.76593">
        <ele>390</ele>
        <time>2015-08-02T07:23:37Z</time>
      </trkpt>
      <trkpt lat="47.50815" lon="6.76593">
        <ele>390</ele>
        <time>2015-08-02T07:23:38Z</time>
      </trkpt>
      <trkpt lat="47.50812" lon="6.76595">
        <ele>390</ele>
        <time>2015-08-02T07:23:39Z</time>
      </trkpt>
      <trkpt lat="47.50808" lon="6.76595">
        <ele>390</ele>
        <time>2015-08-02T07:23:40Z</time>
      </trkpt>
      <trkpt lat="47.50806" lon="6.76592">
        <ele>390</ele>
        <time>2015-08-02T07:23:41Z</time>
      </trkpt>
      <trkpt lat="47.50803" lon="6.76589">
        <ele>391</ele>
        <time>2015-08-02T07:23:43Z</time>
      </trkpt>
      <trkpt lat="47.50801" lon="6.76589">
        <ele>391</ele>
        <time>2015-08-02T07:23:43Z</time>
      </trkpt>
      <trkpt lat="47.50791" lon="6.76592">
        <ele>391</ele>
        <time>2015-08-02T07:23:48Z</time>
      </trkpt>
      <trkpt lat="47.50789" lon="6.76592">
        <ele>391</ele>
        <time>2015-08-02T07:23:49Z</time>
      </trkpt>
      <trkpt lat="47.50785" lon="6.76594">
        <ele>391</ele>
        <time>2015-08-02T07:23:51Z</time>
      </trkpt>
      <trkpt lat="47.50783" lon="6.76595">
        <ele>391</ele>
        <time>2015-08-02T07:23:51Z</time>
      </trkpt>
      <trkpt lat="47.50779" lon="6.76597">
        <ele>391</ele>
        <time>2015-08-02T07:23:53Z</time>
      </trkpt>
      <trkpt lat="47.50775" lon="6.76597">
        <ele>392</ele>
        <time>2015-08-02T07:23:53Z</time>
      </trkpt>
      <trkpt lat="47.50772" lon="6.76597">
        <ele>392</ele>
        <time>2015-08-02T07:23:54Z</time>
      </trkpt>
      <trkpt lat="47.5077" lon="6.76598">
        <ele>392</ele>
        <time>2015-08-02T07:23:54Z</time>
      </trkpt>
      <trkpt lat="47.50766" lon="6.76599">
        <ele>392</ele>
        <time>2015-08-02T07:23:55Z</time>
      </trkpt>
      <trkpt lat="47.50763" lon="6.766">
        <ele>392</ele>
        <time>2015-08-02T07:23:56Z</time>
      </trkpt>
      <trkpt lat="47.50756" lon="6.766">
        <ele>392</ele>
        <time>2015-08-02T07:23:57Z</time>
      </trkpt>
      <trkpt lat="47.50753" lon="6.766">
        <ele>392</ele>
        <time>2015-08-02T07:23:58Z</time>
      </trkpt>
      <trkpt lat="47.50743" lon="6.766">
        <ele>394</ele>
        <time>2015-08-02T07:24:01Z</time>
      </trkpt>
      <trkpt lat="47.50735" lon="6.76599">
        <ele>394</ele>
        <time>2015-08-02T07:24:02Z</time>
      </trkpt>
      <trkpt lat="47.50727" lon="6.76598">
        <ele>394</ele>
        <time>2015-08-02T07:24:03Z</time>
      </trkpt>
      <trkpt lat="47.50715" lon="6.76596">
        <ele>394</ele>
        <time>2015-08-02T07:24:04Z</time>
      </trkpt>
      <trkpt lat="47.5071" lon="6.76596">
        <ele>395</ele>
        <time>2015-08-02T07:24:05Z</time>
      </trkpt>
      <trkpt lat="47.50706" lon="6.76595">
        <ele>395</ele>
        <time>2015-08-02T07:24:06Z</time>
      </trkpt>
      <trkpt lat="47.50698" lon="6.76593">
        <ele>395</ele>
        <time>2015-08-02T07:24:07Z</time>
      </trkpt>
      <trkpt lat="47.50694" lon="6.76593">
        <ele>395</ele>
        <time>2015-08-02T07:24:08Z</time>
      </trkpt>
      <trkpt lat="47.50686" lon="6.76594">
        <ele>395</ele>
        <time>2015-08-02T07:24:09Z</time>
      </trkpt>
      <trkpt lat="47.5068" lon="6.76595">
        <ele>396</ele>
        <time>2015-08-02T07:24:10Z</time>
      </trkpt>
      <trkpt lat="47.50677" lon="6.76595">
        <ele>396</ele>
        <time>2015-08-02T07:24:11Z</time>
      </trkpt>
      <trkpt lat="47.50673" lon="6.76597">
        <ele>396</ele>
        <time>2015-08-02T07:24:12Z</time>
      </trkpt>
      <trkpt lat="47.50667" lon="6.766">
        <ele>396</ele>
        <time>2015-08-02T07:24:14Z</time>
      </trkpt>
      <trkpt lat="47.50658" lon="6.76603">
        <ele>397</ele>
        <time>2015-08-02T07:24:16Z</time>
      </trkpt>
      <trkpt lat="47.5065" lon="6.76606">
        <ele>397</ele>
        <time>2015-08-02T07:24:18Z</time>
      </trkpt>
      <trkpt lat="47.50644" lon="6.7661">
        <ele>397</ele>
        <time>2015-08-02T07:24:19Z</time>
      </trkpt>
      <trkpt lat="47.50636" lon="6.76616">
        <ele>397</ele>
        <time>2015-08-02T07:24:21Z</time>
      </trkpt>
      <trkpt lat="47.50633" lon="6.76618">
        <ele>397</ele>
        <time>2015-08-02T07:24:22Z</time>
      </trkpt>
      <trkpt lat="47.5063" lon="6.7662">
        <ele>397</ele>
        <time>2015-08-02T07:24:22Z</time>
      </trkpt>
      <trkpt lat="47.50627" lon="6.76621">
        <ele>397</ele>
        <time>2015-08-02T07:24:23Z</time>
      </trkpt>
      <trkpt lat="47.50618" lon="6.76623">
        <ele>397</ele>
        <time>2015-08-02T07:24:24Z</time>
      </trkpt>
      <trkpt lat="47.50615" lon="6.76624">
        <ele>397</ele>
        <time>2015-08-02T07:24:26Z</time>
      </trkpt>
      <trkpt lat="47.50612" lon="6.76625">
        <ele>397</ele>
        <time>2015-08-02T07:24:26Z</time>
      </trkpt>
      <trkpt lat="47.50599" lon="6.76629">
        <ele>398</ele>
        <time>2015-08-02T07:24:30Z</time>
      </trkpt>
      <trkpt lat="47.50597" lon="6.7663">
        <ele>398</ele>
        <time>2015-08-02T07:24:32Z</time>
      </trkpt>
      <trkpt lat="47.5059" lon="6.76633">
        <ele>398</ele>
        <time>2015-08-02T07:24:33Z</time>
      </trkpt>
      <trkpt lat="47.50587" lon="6.76633">
        <ele>398</ele>
        <time>2015-08-02T07:24:33Z</time>
      </trkpt>
      <trkpt lat="47.50584" lon="6.76634">
        <ele>398</ele>
        <time>2015-08-02T07:24:35Z</time>
      </trkpt>
      <trkpt lat="47.50581" lon="6.76635">
        <ele>399</ele>
        <time>2015-08-02T07:24:36Z</time>
      </trkpt>
      <trkpt lat="47.50574" lon="6.76636">
        <ele>399</ele>
        <time>2015-08-02T07:24:37Z</time>
      </trkpt>
      <trkpt lat="47.5057" lon="6.76636">
        <ele>399</ele>
        <time>2015-08-02T07:24:38Z</time>
      </trkpt>
      <trkpt lat="47.50567" lon="6.76637">
        <ele>399</ele>
        <time>2015-08-02T07:24:38Z</time>
      </trkpt>
      <trkpt lat="47.50559" lon="6.76638">
        <ele>399</ele>
        <time>2015-08-02T07:24:40Z</time>
      </trkpt>
      <trkpt lat="47.50546" lon="6.76642">
        <ele>399</ele>
        <time>2015-08-02T07:24:43Z</time>
      </trkpt>
      <trkpt lat="47.50534" lon="6.76643">
        <ele>399</ele>
        <time>2015-08-02T07:24:44Z</time>
      </trkpt>
      <trkpt lat="47.50529" lon="6.76645">
        <ele>399</ele>
        <time>2015-08-02T07:24:44Z</time>
      </trkpt>
      <trkpt lat="47.50524" lon="6.76647">
        <ele>399</ele>
        <time>2015-08-02T07:24:45Z</time>
      </trkpt>
      <trkpt lat="47.5052" lon="6.76648">
        <ele>399</ele>
        <time>2015-08-02T07:24:46Z</time>
      </trkpt>
      <trkpt lat="47.50504" lon="6.76652">
        <ele>399</ele>
        <time>2015-08-02T07:24:48Z</time>
      </trkpt>
      <trkpt lat="47.50489" lon="6.76659">
        <ele>399</ele>
        <time>2015-08-02T07:24:50Z</time>
      </trkpt>
      <trkpt lat="47.50483" lon="6.76661">
        <ele>399</ele>
        <time>2015-08-02T07:24:50Z</time>
      </trkpt>
      <trkpt lat="47.50478" lon="6.76664">
        <ele>399</ele>
        <time>2015-08-02T07:24:51Z</time>
      </trkpt>
      <trkpt lat="47.50473" lon="6.76666">
        <ele>398</ele>
        <time>2015-08-02T07:24:52Z</time>
      </trkpt>
      <trkpt lat="47.50463" lon="6.7667">
        <ele>397</ele>
        <time>2015-08-02T07:24:53Z</time>
      </trkpt>
      <trkpt lat="47.50457" lon="6.76674">
        <ele>397</ele>
        <time>2015-08-02T07:24:53Z</time>
      </trkpt>
      <trkpt lat="47.50453" lon="6.76676">
        <ele>397</ele>
        <time>2015-08-02T07:24:53Z</time>
      </trkpt>
      <trkpt lat="47.50448" lon="6.76678">
        <ele>397</ele>
        <time>2015-08-02T07:24:55Z</time>
      </trkpt>
      <trkpt lat="47.50444" lon="6.7668">
        <ele>397</ele>
        <time>2015-08-02T07:24:56Z</time>
      </trkpt>
      <trkpt lat="47.50438" lon="6.76682">
        <ele>397</ele>
        <time>2015-08-02T07:24:56Z</time>
      </trkpt>
      <trkpt lat="47.50433" lon="6.76684">
        <ele>397</ele>
        <time>2015-08-02T07:24:57Z</time>
      </trkpt>
      <trkpt lat="47.50429" lon="6.76687">
        <ele>397</ele>
        <time>2015-08-02T07:24:58Z</time>
      </trkpt>
      <trkpt lat="47.50423" lon="6.76688">
        <ele>397</ele>
        <time>2015-08-02T07:24:58Z</time>
      </trkpt>
      <trkpt lat="47.50417" lon="6.7669">
        <ele>397</ele>
        <time>2015-08-02T07:24:59Z</time>
      </trkpt>
      <trkpt lat="47.50412" lon="6.76692">
        <ele>397</ele>
        <time>2015-08-02T07:25:00Z</time>
      </trkpt>
      <trkpt lat="47.50407" lon="6.76695">
        <ele>397</ele>
        <time>2015-08-02T07:25:00Z</time>
      </trkpt>
      <trkpt lat="47.50403" lon="6.76698">
        <ele>397</ele>
        <time>2015-08-02T07:25:01Z</time>
      </trkpt>
      <trkpt lat="47.50399" lon="6.767">
        <ele>397</ele>
        <time>2015-08-02T07:25:02Z</time>
      </trkpt>
      <trkpt lat="47.50394" lon="6.76702">
        <ele>397</ele>
        <time>2015-08-02T07:25:02Z</time>
      </trkpt>
      <trkpt lat="47.5039" lon="6.76704">
        <ele>397</ele>
        <time>2015-08-02T07:25:03Z</time>
      </trkpt>
      <trkpt lat="47.50385" lon="6.76705">
        <ele>397</ele>
        <time>2015-08-02T07:25:03Z</time>
      </trkpt>
      <trkpt lat="47.50376" lon="6.76709">
        <ele>398</ele>
        <time>2015-08-02T07:25:04Z</time>
      </trkpt>
      <trkpt lat="47.5037" lon="6.76713">
        <ele>398</ele>
        <time>2015-08-02T07:25:05Z</time>
      </trkpt>
      <trkpt lat="47.50361" lon="6.76715">
        <ele>398</ele>
        <time>2015-08-02T07:25:06Z</time>
      </trkpt>
      <trkpt lat="47.50352" lon="6.76719">
        <ele>398</ele>
        <time>2015-08-02T07:25:08Z</time>
      </trkpt>
      <trkpt lat="47.50343" lon="6.76723">
        <ele>398</ele>
        <time>2015-08-02T07:25:10Z</time>
      </trkpt>
      <trkpt lat="47.50334" lon="6.76726">
        <ele>398</ele>
        <time>2015-08-02T07:25:11Z</time>
      </trkpt>
      <trkpt lat="47.50327" lon="6.76729">
        <ele>398</ele>
        <time>2015-08-02T07:25:12Z</time>
      </trkpt>
      <trkpt lat="47.50318" lon="6.76733">
        <ele>398</ele>
        <time>2015-08-02T07:25:13Z</time>
      </trkpt>
      <trkpt lat="47.5031" lon="6.76735">
        <ele>398</ele>
        <time>2015-08-02T07:25:14Z</time>
      </trkpt>
      <trkpt lat="47.50305" lon="6.76737">
        <ele>398</ele>
        <time>2015-08-02T07:25:15Z</time>
      </trkpt>
      <trkpt lat="47.503" lon="6.76739">
        <ele>399</ele>
        <time>2015-08-02T07:25:16Z</time>
      </trkpt>
      <trkpt lat="47.50295" lon="6.7674">
        <ele>399</ele>
        <time>2015-08-02T07:25:16Z</time>
      </trkpt>
      <trkpt lat="47.50291" lon="6.76741">
        <ele>399</ele>
        <time>2015-08-02T07:25:18Z</time>
      </trkpt>
      <trkpt lat="47.50282" lon="6.76743">
        <ele>399</ele>
        <time>2015-08-02T07:25:19Z</time>
      </trkpt>
      <trkpt lat="47.50275" lon="6.76744">
        <ele>399</ele>
        <time>2015-08-02T07:25:21Z</time>
      </trkpt>
      <trkpt lat="47.50266" lon="6.76747">
        <ele>399</ele>
        <time>2015-08-02T07:25:23Z</time>
      </trkpt>
      <trkpt lat="47.50263" lon="6.76748">
        <ele>399</ele>
        <time>2015-08-02T07:25:24Z</time>
      </trkpt>
      <trkpt lat="47.50259" lon="6.76749">
        <ele>400</ele>
        <time>2015-08-02T07:25:24Z</time>
      </trkpt>
      <trkpt lat="47.50255" lon="6.76749">
        <ele>400</ele>
        <time>2015-08-02T07:25:25Z</time>
      </trkpt>
      <trkpt lat="47.50251" lon="6.76748">
        <ele>400</ele>
        <time>2015-08-02T07:25:26Z</time>
      </trkpt>
      <trkpt lat="47.50248" lon="6.76744">
        <ele>400</ele>
        <time>2015-08-02T07:25:26Z</time>
      </trkpt>
      <trkpt lat="47.50246" lon="6.7674">
        <ele>401</ele>
        <time>2015-08-02T07:25:27Z</time>
      </trkpt>
      <trkpt lat="47.50243" lon="6.76732">
        <ele>401</ele>
        <time>2015-08-02T07:25:28Z</time>
      </trkpt>
      <trkpt lat="47.5024" lon="6.76728">
        <ele>401</ele>
        <time>2015-08-02T07:25:29Z</time>
      </trkpt>
      <trkpt lat="47.50238" lon="6.76725">
        <ele>401</ele>
        <time>2015-08-02T07:25:30Z</time>
      </trkpt>
      <trkpt lat="47.50235" lon="6.76721">
        <ele>401</ele>
        <time>2015-08-02T07:25:30Z</time>
      </trkpt>
      <trkpt lat="47.50233" lon="6.76717">
        <ele>402</ele>
        <time>2015-08-02T07:25:31Z</time>
      </trkpt>
      <trkpt lat="47.50231" lon="6.76711">
        <ele>402</ele>
        <time>2015-08-02T07:25:32Z</time>
      </trkpt>
      <trkpt lat="47.50227" lon="6.76699">
        <ele>402</ele>
        <time>2015-08-02T07:25:33Z</time>
      </trkpt>
      <trkpt lat="47.50218" lon="6.76674">
        <ele>402</ele>
        <time>2015-08-02T07:25:35Z</time>
      </trkpt>
      <trkpt lat="47.50216" lon="6.76665">
        <ele>401</ele>
        <time>2015-08-02T07:25:35Z</time>
      </trkpt>
      <trkpt lat="47.5021" lon="6.76646">
        <ele>402</ele>
        <time>2015-08-02T07:25:38Z</time>
      </trkpt>
      <trkpt lat="47.50209" lon="6.76639">
        <ele>402</ele>
        <time>2015-08-02T07:25:39Z</time>
      </trkpt>
      <trkpt lat="47.50207" lon="6.76634">
        <ele>402</ele>
        <time>2015-08-02T07:25:40Z</time>
      </trkpt>
      <trkpt lat="47.50205" lon="6.76627">
        <ele>402</ele>
        <time>2015-08-02T07:25:40Z</time>
      </trkpt>
      <trkpt lat="47.50203" lon="6.76622">
        <ele>402</ele>
        <time>2015-08-02T07:25:41Z</time>
      </trkpt>
      <trkpt lat="47.50199" lon="6.7661">
        <ele>403</ele>
        <time>2015-08-02T07:25:42Z</time>
      </trkpt>
      <trkpt lat="47.50197" lon="6.76599">
        <ele>403</ele>
        <time>2015-08-02T07:25:43Z</time>
      </trkpt>
      <trkpt lat="47.50197" lon="6.76593">
        <ele>403</ele>
        <time>2015-08-02T07:25:43Z</time>
      </trkpt>
      <trkpt lat="47.50197" lon="6.76588">
        <ele>403</ele>
        <time>2015-08-02T07:25:44Z</time>
      </trkpt>
      <trkpt lat="47.50196" lon="6.76582">
        <ele>403</ele>
        <time>2015-08-02T07:25:45Z</time>
      </trkpt>
      <trkpt lat="47.50194" lon="6.76577">
        <ele>403</ele>
        <time>2015-08-02T07:25:47Z</time>
      </trkpt>
      <trkpt lat="47.50194" lon="6.76573">
        <ele>403</ele>
        <time>2015-08-02T07:25:48Z</time>
      </trkpt>
      <trkpt lat="47.50194" lon="6.7657">
        <ele>402</ele>
        <time>2015-08-02T07:25:50Z</time>
      </trkpt>
      <trkpt lat="47.50195" lon="6.76567">
        <ele>402</ele>
        <time>2015-08-02T07:25:50Z</time>
      </trkpt>
      <trkpt lat="47.50197" lon="6.76563">
        <ele>402</ele>
        <time>2015-08-02T07:25:51Z</time>
      </trkpt>
      <trkpt lat="47.50201" lon="6.7656">
        <ele>402</ele>
        <time>2015-08-02T07:25:52Z</time>
      </trkpt>
      <trkpt lat="47.50204" lon="6.76556">
        <ele>401</ele>
        <time>2015-08-02T07:25:52Z</time>
      </trkpt>
      <trkpt lat="47.50209" lon="6.76548">
        <ele>401</ele>
        <time>2015-08-02T07:25:53Z</time>
      </trkpt>
      <trkpt lat="47.50211" lon="6.76545">
        <ele>401</ele>
        <time>2015-08-02T07:25:53Z</time>
      </trkpt>
      <trkpt lat="47.50213" lon="6.76539">
        <ele>400</ele>
        <time>2015-08-02T07:25:55Z</time>
      </trkpt>
      <trkpt lat="47.50214" lon="6.76537">
        <ele>400</ele>
        <time>2015-08-02T07:25:55Z</time>
      </trkpt>
      <trkpt lat="47.50212" lon="6.76532">
        <ele>400</ele>
        <time>2015-08-02T07:25:57Z</time>
      </trkpt>
      <trkpt lat="47.5021" lon="6.76529">
        <ele>400</ele>
        <time>2015-08-02T07:25:57Z</time>
      </trkpt>
      <trkpt lat="47.50207" lon="6.76526">
        <ele>401</ele>
        <time>2015-08-02T07:25:59Z</time>
      </trkpt>
      <trkpt lat="47.50204" lon="6.76522">
        <ele>401</ele>
        <time>2015-08-02T07:26:00Z</time>
      </trkpt>
      <trkpt lat="47.50194" lon="6.76511">
        <ele>402</ele>
        <time>2015-08-02T07:26:02Z</time>
      </trkpt>
      <trkpt lat="47.50188" lon="6.76507">
        <ele>402</ele>
        <time>2015-08-02T07:26:02Z</time>
      </trkpt>
      <trkpt lat="47.50173" lon="6.7649">
        <ele>402</ele>
        <time>2015-08-02T07:26:04Z</time>
      </trkpt>
      <trkpt lat="47.50168" lon="6.76485">
        <ele>401</ele>
        <time>2015-08-02T07:26:05Z</time>
      </trkpt>
      <trkpt lat="47.50153" lon="6.76477">
        <ele>406</ele>
        <time>2015-08-02T07:26:05Z</time>
      </trkpt>
      <trkpt lat="47.50149" lon="6.76467">
        <ele>406</ele>
        <time>2015-08-02T07:26:06Z</time>
      </trkpt>
      <trkpt lat="47.50144" lon="6.76456">
        <ele>406</ele>
        <time>2015-08-02T07:26:07Z</time>
      </trkpt>
      <trkpt lat="47.50138" lon="6.76447">
        <ele>406</ele>
        <time>2015-08-02T07:26:07Z</time>
      </trkpt>
      <trkpt lat="47.50135" lon="6.76438">
        <ele>406</ele>
        <time>2015-08-02T07:26:08Z</time>
      </trkpt>
      <trkpt lat="47.50134" lon="6.76431">
        <ele>406</ele>
        <time>2015-08-02T07:26:10Z</time>
      </trkpt>
      <trkpt lat="47.50129" lon="6.76423">
        <ele>406</ele>
        <time>2015-08-02T07:26:10Z</time>
      </trkpt>
      <trkpt lat="47.50122" lon="6.76412">
        <ele>404</ele>
        <time>2015-08-02T07:26:11Z</time>
      </trkpt>
      <trkpt lat="47.50118" lon="6.76403">
        <ele>404</ele>
        <time>2015-08-02T07:26:12Z</time>
      </trkpt>
      <trkpt lat="47.50113" lon="6.76394">
        <ele>405</ele>
        <time>2015-08-02T07:26:12Z</time>
      </trkpt>
      <trkpt lat="47.50111" lon="6.76381">
        <ele>404</ele>
        <time>2015-08-02T07:26:13Z</time>
      </trkpt>
      <trkpt lat="47.50107" lon="6.76371">
        <ele>404</ele>
        <time>2015-08-02T07:26:13Z</time>
      </trkpt>
      <trkpt lat="47.50106" lon="6.76362">
        <ele>404</ele>
        <time>2015-08-02T07:26:13Z</time>
      </trkpt>
      <trkpt lat="47.50104" lon="6.76356">
        <ele>404</ele>
        <time>2015-08-02T07:26:14Z</time>
      </trkpt>
      <trkpt lat="47.501" lon="6.76345">
        <ele>405</ele>
        <time>2015-08-02T07:26:15Z</time>
      </trkpt>
      <trkpt lat="47.50095" lon="6.76336">
        <ele>406</ele>
        <time>2015-08-02T07:26:15Z</time>
      </trkpt>
      <trkpt lat="47.50089" lon="6.76328">
        <ele>406</ele>
        <time>2015-08-02T07:26:16Z</time>
      </trkpt>
      <trkpt lat="47.50084" lon="6.76315">
        <ele>403</ele>
        <time>2015-08-02T07:26:17Z</time>
      </trkpt>
      <trkpt lat="47.50082" lon="6.76309">
        <ele>408</ele>
        <time>2015-08-02T07:26:19Z</time>
      </trkpt>
      <trkpt lat="47.50077" lon="6.76277">
        <ele>407</ele>
        <time>2015-08-02T07:26:22Z</time>
      </trkpt>
      <trkpt lat="47.50076" lon="6.7627">
        <ele>406</ele>
        <time>2015-08-02T07:26:23Z</time>
      </trkpt>
      <trkpt lat="47.50079" lon="6.76241">
        <ele>403</ele>
        <time>2015-08-02T07:26:23Z</time>
      </trkpt>
      <trkpt lat="47.50078" lon="6.76237">
        <ele>403</ele>
        <time>2015-08-02T07:26:23Z</time>
      </trkpt>
      <trkpt lat="47.50076" lon="6.76229">
        <ele>403</ele>
        <time>2015-08-02T07:26:24Z</time>
      </trkpt>
      <trkpt lat="47.5007" lon="6.76196">
        <ele>401</ele>
        <time>2015-08-02T07:26:25Z</time>
      </trkpt>
      <trkpt lat="47.50066" lon="6.76183">
        <ele>401</ele>
        <time>2015-08-02T07:26:25Z</time>
      </trkpt>
      <trkpt lat="47.50063" lon="6.76175">
        <ele>400</ele>
        <time>2015-08-02T07:26:26Z</time>
      </trkpt>
      <trkpt lat="47.50062" lon="6.76169">
        <ele>400</ele>
        <time>2015-08-02T07:26:27Z</time>
      </trkpt>
      <trkpt lat="47.50061" lon="6.7616">
        <ele>397</ele>
        <time>2015-08-02T07:26:27Z</time>
      </trkpt>
      <trkpt lat="47.50067" lon="6.76127">
        <ele>396</ele>
        <time>2015-08-02T07:26:28Z</time>
      </trkpt>
      <trkpt lat="47.50066" lon="6.7612">
        <ele>395</ele>
        <time>2015-08-02T07:26:29Z</time>
      </trkpt>
      <trkpt lat="47.50065" lon="6.76113">
        <ele>395</ele>
        <time>2015-08-02T07:26:29Z</time>
      </trkpt>
      <trkpt lat="47.50064" lon="6.76107">
        <ele>394</ele>
        <time>2015-08-02T07:26:30Z</time>
      </trkpt>
      <trkpt lat="47.50062" lon="6.761">
        <ele>394</ele>
        <time>2015-08-02T07:26:32Z</time>
      </trkpt>
      <trkpt lat="47.50061" lon="6.7607">
        <ele>388</ele>
        <time>2015-08-02T07:26:32Z</time>
      </trkpt>
      <trkpt lat="47.50059" lon="6.76058">
        <ele>388</ele>
        <time>2015-08-02T07:26:33Z</time>
      </trkpt>
      <trkpt lat="47.50052" lon="6.76036">
        <ele>386</ele>
        <time>2015-08-02T07:26:33Z</time>
      </trkpt>
      <trkpt lat="47.50048" lon="6.76025">
        <ele>386</ele>
        <time>2015-08-02T07:26:33Z</time>
      </trkpt>
      <trkpt lat="47.50039" lon="6.7601">
        <ele>385</ele>
        <time>2015-08-02T07:26:34Z</time>
      </trkpt>
      <trkpt lat="47.50032" lon="6.75992">
        <ele>380</ele>
        <time>2015-08-02T07:26:35Z</time>
      </trkpt>
      <trkpt lat="47.50026" lon="6.75983">
        <ele>380</ele>
        <time>2015-08-02T07:26:35Z</time>
      </trkpt>
      <trkpt lat="47.50022" lon="6.75973">
        <ele>380</ele>
        <time>2015-08-02T07:26:36Z</time>
      </trkpt>
      <trkpt lat="47.50011" lon="6.75962">
        <ele>379</ele>
        <time>2015-08-02T07:26:37Z</time>
      </trkpt>
      <trkpt lat="47.5" lon="6.75947">
        <ele>381</ele>
        <time>2015-08-02T07:26:37Z</time>
      </trkpt>
      <trkpt lat="47.49988" lon="6.75927">
        <ele>380</ele>
        <time>2015-08-02T07:26:39Z</time>
      </trkpt>
      <trkpt lat="47.49985" lon="6.75919">
        <ele>380</ele>
        <time>2015-08-02T07:26:39Z</time>
      </trkpt>
      <trkpt lat="47.49983" lon="6.75912">
        <ele>377</ele>
        <time>2015-08-02T07:26:40Z</time>
      </trkpt>
      <trkpt lat="47.49976" lon="6.759">
        <ele>377</ele>
        <time>2015-08-02T07:26:41Z</time>
      </trkpt>
      <trkpt lat="47.4997" lon="6.75888">
        <ele>377</ele>
        <time>2015-08-02T07:26:41Z</time>
      </trkpt>
      <trkpt lat="47.49966" lon="6.75879">
        <ele>377</ele>
        <time>2015-08-02T07:26:42Z</time>
      </trkpt>
      <trkpt lat="47.4996" lon="6.7587">
        <ele>376</ele>
        <time>2015-08-02T07:26:43Z</time>
      </trkpt>
      <trkpt lat="47.49956" lon="6.75867">
        <ele>376</ele>
        <time>2015-08-02T07:26:43Z</time>
      </trkpt>
      <trkpt lat="47.49952" lon="6.75863">
        <ele>376</ele>
        <time>2015-08-02T07:26:45Z</time>
      </trkpt>
      <trkpt lat="47.49942" lon="6.75852">
        <ele>375</ele>
        <time>2015-08-02T07:26:46Z</time>
      </trkpt>
      <trkpt lat="47.49933" lon="6.75837">
        <ele>373</ele>
        <time>2015-08-02T07:26:46Z</time>
      </trkpt>
      <trkpt lat="47.49932" lon="6.75826">
        <ele>372</ele>
        <time>2015-08-02T07:26:47Z</time>
      </trkpt>
      <trkpt lat="47.49923" lon="6.75818">
        <ele>372</ele>
        <time>2015-08-02T07:26:48Z</time>
      </trkpt>
      <trkpt lat="47.49913" lon="6.75811">
        <ele>368</ele>
        <time>2015-08-02T07:26:48Z</time>
      </trkpt>
      <trkpt lat="47.49909" lon="6.75801">
        <ele>368</ele>
        <time>2015-08-02T07:26:49Z</time>
      </trkpt>
      <trkpt lat="47.49902" lon="6.75795">
        <ele>367</ele>
        <time>2015-08-02T07:26:51Z</time>
      </trkpt>
      <trkpt lat="47.49901" lon="6.75791">
        <ele>367</ele>
        <time>2015-08-02T07:26:51Z</time>
      </trkpt>
      <trkpt lat="47.499" lon="6.75786">
        <ele>367</ele>
        <time>2015-08-02T07:26:52Z</time>
      </trkpt>
      <trkpt lat="47.49901" lon="6.7578">
        <ele>367</ele>
        <time>2015-08-02T07:26:53Z</time>
      </trkpt>
      <trkpt lat="47.49899" lon="6.75779">
        <ele>367</ele>
        <time>2015-08-02T07:26:53Z</time>
      </trkpt>
      <trkpt lat="47.49888" lon="6.75779">
        <ele>367</ele>
        <time>2015-08-02T07:26:54Z</time>
      </trkpt>
      <trkpt lat="47.49879" lon="6.75778">
        <ele>366</ele>
        <time>2015-08-02T07:26:54Z</time>
      </trkpt>
      <trkpt lat="47.49872" lon="6.75778">
        <ele>366</ele>
        <time>2015-08-02T07:26:55Z</time>
      </trkpt>
      <trkpt lat="47.49864" lon="6.7578">
        <ele>366</ele>
        <time>2015-08-02T07:26:57Z</time>
      </trkpt>
      <trkpt lat="47.49856" lon="6.75781">
        <ele>365</ele>
        <time>2015-08-02T07:26:57Z</time>
      </trkpt>
      <trkpt lat="47.49847" lon="6.75784">
        <ele>365</ele>
        <time>2015-08-02T07:26:58Z</time>
      </trkpt>
      <trkpt lat="47.49838" lon="6.75786">
        <ele>365</ele>
        <time>2015-08-02T07:27:00Z</time>
      </trkpt>
      <trkpt lat="47.4983" lon="6.75789">
        <ele>362</ele>
        <time>2015-08-02T07:27:00Z</time>
      </trkpt>
      <trkpt lat="47.49817" lon="6.7579">
        <ele>362</ele>
        <time>2015-08-02T07:27:01Z</time>
      </trkpt>
      <trkpt lat="47.49804" lon="6.75791">
        <ele>361</ele>
        <time>2015-08-02T07:27:02Z</time>
      </trkpt>
      <trkpt lat="47.49788" lon="6.75788">
        <ele>361</ele>
        <time>2015-08-02T07:27:02Z</time>
      </trkpt>
      <trkpt lat="47.49776" lon="6.7579">
        <ele>360</ele>
        <time>2015-08-02T07:27:03Z</time>
      </trkpt>
      <trkpt lat="47.49767" lon="6.75795">
        <ele>361</ele>
        <time>2015-08-02T07:27:03Z</time>
      </trkpt>
      <trkpt lat="47.49758" lon="6.75793">
        <ele>360</ele>
        <time>2015-08-02T07:27:03Z</time>
      </trkpt>
      <trkpt lat="47.49748" lon="6.75797">
        <ele>357</ele>
        <time>2015-08-02T07:27:04Z</time>
      </trkpt>
      <trkpt lat="47.49737" lon="6.75798">
        <ele>357</ele>
        <time>2015-08-02T07:27:05Z</time>
      </trkpt>
      <trkpt lat="47.49725" lon="6.75792">
        <ele>356</ele>
        <time>2015-08-02T07:27:05Z</time>
      </trkpt>
      <trkpt lat="47.49718" lon="6.75791">
        <ele>355</ele>
        <time>2015-08-02T07:27:06Z</time>
      </trkpt>
      <trkpt lat="47.49709" lon="6.75794">
        <ele>355</ele>
        <time>2015-08-02T07:27:07Z</time>
      </trkpt>
      <trkpt lat="47.49702" lon="6.75796">
        <ele>355</ele>
        <time>2015-08-02T07:27:07Z</time>
      </trkpt>
      <trkpt lat="47.49696" lon="6.75798">
        <ele>355</ele>
        <time>2015-08-02T07:27:08Z</time>
      </trkpt>
      <trkpt lat="47.49689" lon="6.75799">
        <ele>355</ele>
        <time>2015-08-02T07:27:09Z</time>
      </trkpt>
      <trkpt lat="47.49683" lon="6.75801">
        <ele>355</ele>
        <time>2015-08-02T07:27:09Z</time>
      </trkpt>
      <trkpt lat="47.49677" lon="6.75799">
        <ele>354</ele>
        <time>2015-08-02T07:27:10Z</time>
      </trkpt>
      <trkpt lat="47.49659" lon="6.758">
        <ele>349</ele>
        <time>2015-08-02T07:27:11Z</time>
      </trkpt>
      <trkpt lat="47.4965" lon="6.75801">
        <ele>349</ele>
        <time>2015-08-02T07:27:12Z</time>
      </trkpt>
      <trkpt lat="47.49641" lon="6.758">
        <ele>348</ele>
        <time>2015-08-02T07:27:13Z</time>
      </trkpt>
      <trkpt lat="47.49633" lon="6.75801">
        <ele>348</ele>
        <time>2015-08-02T07:27:13Z</time>
      </trkpt>
      <trkpt lat="47.49628" lon="6.75802">
        <ele>347</ele>
        <time>2015-08-02T07:27:14Z</time>
      </trkpt>
      <trkpt lat="47.49621" lon="6.75802">
        <ele>347</ele>
        <time>2015-08-02T07:27:15Z</time>
      </trkpt>
      <trkpt lat="47.49615" lon="6.758">
        <ele>346</ele>
        <time>2015-08-02T07:27:15Z</time>
      </trkpt>
      <trkpt lat="47.4961" lon="6.758">
        <ele>346</ele>
        <time>2015-08-02T07:27:16Z</time>
      </trkpt>
      <trkpt lat="47.49604" lon="6.75799">
        <ele>346</ele>
        <time>2015-08-02T07:27:17Z</time>
      </trkpt>
      <trkpt lat="47.496" lon="6.75797">
        <ele>346</ele>
        <time>2015-08-02T07:27:17Z</time>
      </trkpt>
      <trkpt lat="47.49592" lon="6.75793">
        <ele>345</ele>
        <time>2015-08-02T07:27:18Z</time>
      </trkpt>
      <trkpt lat="47.49577" lon="6.75792">
        <ele>338</ele>
        <time>2015-08-02T07:27:19Z</time>
      </trkpt>
      <trkpt lat="47.49565" lon="6.75789">
        <ele>337</ele>
        <time>2015-08-02T07:27:19Z</time>
      </trkpt>
      <trkpt lat="47.49566" lon="6.75776">
        <ele>336</ele>
        <time>2015-08-02T07:27:20Z</time>
      </trkpt>
      <trkpt lat="47.49567" lon="6.75774">
        <ele>336</ele>
        <time>2015-08-02T07:27:21Z</time>
      </trkpt>
      <trkpt lat="47.49569" lon="6.7577">
        <ele>336</ele>
        <time>2015-08-02T07:27:21Z</time>
      </trkpt>
      <trkpt lat="47.49576" lon="6.75764">
        <ele>335</ele>
        <time>2015-08-02T07:27:23Z</time>
      </trkpt>
      <trkpt lat="47.49585" lon="6.7575">
        <ele>335</ele>
        <time>2015-08-02T07:27:23Z</time>
      </trkpt>
      <trkpt lat="47.49589" lon="6.75745">
        <ele>333</ele>
        <time>2015-08-02T07:27:24Z</time>
      </trkpt>
      <trkpt lat="47.49592" lon="6.75739">
        <ele>333</ele>
        <time>2015-08-02T07:27:24Z</time>
      </trkpt>
      <trkpt lat="47.496" lon="6.75724">
        <ele>332</ele>
        <time>2015-08-02T07:27:27Z</time>
      </trkpt>
      <trkpt lat="47.49602" lon="6.75715">
        <ele>331</ele>
        <time>2015-08-02T07:27:27Z</time>
      </trkpt>
      <trkpt lat="47.49601" lon="6.75704">
        <ele>330</ele>
        <time>2015-08-02T07:27:28Z</time>
      </trkpt>
      <trkpt lat="47.49598" lon="6.75693">
        <ele>328</ele>
        <time>2015-08-02T07:27:30Z</time>
      </trkpt>
      <trkpt lat="47.49592" lon="6.75687">
        <ele>327</ele>
        <time>2015-08-02T07:27:30Z</time>
      </trkpt>
      <trkpt lat="47.49587" lon="6.75679">
        <ele>325</ele>
        <time>2015-08-02T07:27:31Z</time>
      </trkpt>
      <trkpt lat="47.4958" lon="6.75676">
        <ele>322</ele>
        <time>2015-08-02T07:27:32Z</time>
      </trkpt>
      <trkpt lat="47.49573" lon="6.75674">
        <ele>323</ele>
        <time>2015-08-02T07:27:32Z</time>
      </trkpt>
      <trkpt lat="47.49569" lon="6.75676">
        <ele>323</ele>
        <time>2015-08-02T07:27:33Z</time>
      </trkpt>
      <trkpt lat="47.49563" lon="6.75679">
        <ele>324</ele>
        <time>2015-08-02T07:27:33Z</time>
      </trkpt>
      <trkpt lat="47.4956" lon="6.75684">
        <ele>324</ele>
        <time>2015-08-02T07:27:33Z</time>
      </trkpt>
      <trkpt lat="47.49555" lon="6.75694">
        <ele>324</ele>
        <time>2015-08-02T07:27:35Z</time>
      </trkpt>
      <trkpt lat="47.49552" lon="6.75699">
        <ele>325</ele>
        <time>2015-08-02T07:27:35Z</time>
      </trkpt>
      <trkpt lat="47.49548" lon="6.75704">
        <ele>325</ele>
        <time>2015-08-02T07:27:37Z</time>
      </trkpt>
      <trkpt lat="47.49545" lon="6.7571">
        <ele>325</ele>
        <time>2015-08-02T07:27:38Z</time>
      </trkpt>
      <trkpt lat="47.49534" lon="6.75714">
        <ele>325</ele>
        <time>2015-08-02T07:27:39Z</time>
      </trkpt>
      <trkpt lat="47.49529" lon="6.75716">
        <ele>325</ele>
        <time>2015-08-02T07:27:41Z</time>
      </trkpt>
      <trkpt lat="47.49525" lon="6.7572">
        <ele>325</ele>
        <time>2015-08-02T07:27:41Z</time>
      </trkpt>
      <trkpt lat="47.49514" lon="6.75729">
        <ele>325</ele>
        <time>2015-08-02T07:27:43Z</time>
      </trkpt>
      <trkpt lat="47.49507" lon="6.75732">
        <ele>325</ele>
        <time>2015-08-02T07:27:43Z</time>
      </trkpt>
      <trkpt lat="47.49502" lon="6.75734">
        <ele>324</ele>
        <time>2015-08-02T07:27:44Z</time>
      </trkpt>
      <trkpt lat="47.49497" lon="6.75736">
        <ele>323</ele>
        <time>2015-08-02T07:27:45Z</time>
      </trkpt>
      <trkpt lat="47.49491" lon="6.75736">
        <ele>323</ele>
        <time>2015-08-02T07:27:45Z</time>
      </trkpt>
      <trkpt lat="47.49486" lon="6.75731">
        <ele>322</ele>
        <time>2015-08-02T07:27:46Z</time>
      </trkpt>
      <trkpt lat="47.49483" lon="6.75727">
        <ele>322</ele>
        <time>2015-08-02T07:27:47Z</time>
      </trkpt>
      <trkpt lat="47.4948" lon="6.75719">
        <ele>322</ele>
        <time>2015-08-02T07:27:47Z</time>
      </trkpt>
      <trkpt lat="47.49476" lon="6.75712">
        <ele>321</ele>
        <time>2015-08-02T07:27:48Z</time>
      </trkpt>
      <trkpt lat="47.49473" lon="6.75705">
        <ele>321</ele>
        <time>2015-08-02T07:27:49Z</time>
      </trkpt>
      <trkpt lat="47.4947" lon="6.75698">
        <ele>321</ele>
        <time>2015-08-02T07:27:49Z</time>
      </trkpt>
      <trkpt lat="47.49467" lon="6.75691">
        <ele>321</ele>
        <time>2015-08-02T07:27:50Z</time>
      </trkpt>
      <trkpt lat="47.49463" lon="6.75689">
        <ele>321</ele>
        <time>2015-08-02T07:27:51Z</time>
      </trkpt>
      <trkpt lat="47.49457" lon="6.75693">
        <ele>321</ele>
        <time>2015-08-02T07:27:51Z</time>
      </trkpt>
      <trkpt lat="47.49453" lon="6.75695">
        <ele>321</ele>
        <time>2015-08-02T07:27:52Z</time>
      </trkpt>
      <trkpt lat="47.49447" lon="6.75695">
        <ele>321</ele>
        <time>2015-08-02T07:27:53Z</time>
      </trkpt>
      <trkpt lat="47.49442" lon="6.75686">
        <ele>320</ele>
        <time>2015-08-02T07:27:53Z</time>
      </trkpt>
      <trkpt lat="47.4944" lon="6.75682">
        <ele>320</ele>
        <time>2015-08-02T07:27:55Z</time>
      </trkpt>
      <trkpt lat="47.49438" lon="6.75674">
        <ele>320</ele>
        <time>2015-08-02T07:27:55Z</time>
      </trkpt>
      <trkpt lat="47.49435" lon="6.75671">
        <ele>320</ele>
        <time>2015-08-02T07:27:56Z</time>
      </trkpt>
      <trkpt lat="47.49432" lon="6.75671">
        <ele>320</ele>
        <time>2015-08-02T07:27:57Z</time>
      </trkpt>
      <trkpt lat="47.49429" lon="6.75671">
        <ele>320</ele>
        <time>2015-08-02T07:27:57Z</time>
      </trkpt>
      <trkpt lat="47.49421" lon="6.75677">
        <ele>320</ele>
        <time>2015-08-02T07:27:59Z</time>
      </trkpt>
      <trkpt lat="47.49418" lon="6.75681">
        <ele>320</ele>
        <time>2015-08-02T07:27:59Z</time>
      </trkpt>
      <trkpt lat="47.49412" lon="6.75685">
        <ele>319</ele>
        <time>2015-08-02T07:28:00Z</time>
      </trkpt>
      <trkpt lat="47.49407" lon="6.75688">
        <ele>319</ele>
        <time>2015-08-02T07:28:01Z</time>
      </trkpt>
      <trkpt lat="47.49401" lon="6.75691">
        <ele>319</ele>
        <time>2015-08-02T07:28:01Z</time>
      </trkpt>
      <trkpt lat="47.49397" lon="6.75694">
        <ele>319</ele>
        <time>2015-08-02T07:28:02Z</time>
      </trkpt>
      <trkpt lat="47.49394" lon="6.75698">
        <ele>319</ele>
        <time>2015-08-02T07:28:03Z</time>
      </trkpt>
      <trkpt lat="47.4939" lon="6.75702">
        <ele>319</ele>
        <time>2015-08-02T07:28:03Z</time>
      </trkpt>
      <trkpt lat="47.49387" lon="6.75705">
        <ele>319</ele>
        <time>2015-08-02T07:28:03Z</time>
      </trkpt>
      <trkpt lat="47.49383" lon="6.75711">
        <ele>319</ele>
        <time>2015-08-02T07:28:04Z</time>
      </trkpt>
      <trkpt lat="47.49379" lon="6.75713">
        <ele>319</ele>
        <time>2015-08-02T07:28:05Z</time>
      </trkpt>
      <trkpt lat="47.49373" lon="6.75719">
        <ele>319</ele>
        <time>2015-08-02T07:28:08Z</time>
      </trkpt>
      <trkpt lat="47.4937" lon="6.75721">
        <ele>319</ele>
        <time>2015-08-02T07:28:09Z</time>
      </trkpt>
      <trkpt lat="47.49367" lon="6.75722">
        <ele>319</ele>
        <time>2015-08-02T07:28:09Z</time>
      </trkpt>
      <trkpt lat="47.49357" lon="6.75728">
        <ele>319</ele>
        <time>2015-08-02T07:28:11Z</time>
      </trkpt>
      <trkpt lat="47.49352" lon="6.75732">
        <ele>319</ele>
        <time>2015-08-02T07:28:11Z</time>
      </trkpt>
      <trkpt lat="47.49347" lon="6.75735">
        <ele>318</ele>
        <time>2015-08-02T07:28:12Z</time>
      </trkpt>
      <trkpt lat="47.49329" lon="6.75752">
        <ele>318</ele>
        <time>2015-08-02T07:28:15Z</time>
      </trkpt>
      <trkpt lat="47.49325" lon="6.75758">
        <ele>318</ele>
        <time>2015-08-02T07:28:15Z</time>
      </trkpt>
      <trkpt lat="47.49321" lon="6.75764">
        <ele>318</ele>
        <time>2015-08-02T07:28:16Z</time>
      </trkpt>
      <trkpt lat="47.4932" lon="6.7577">
        <ele>318</ele>
        <time>2015-08-02T07:28:17Z</time>
      </trkpt>
      <trkpt lat="47.49319" lon="6.75777">
        <ele>318</ele>
        <time>2015-08-02T07:28:17Z</time>
      </trkpt>
      <trkpt lat="47.49316" lon="6.75782">
        <ele>318</ele>
        <time>2015-08-02T07:28:18Z</time>
      </trkpt>
      <trkpt lat="47.49306" lon="6.75793">
        <ele>318</ele>
        <time>2015-08-02T07:28:19Z</time>
      </trkpt>
      <trkpt lat="47.49302" lon="6.75801">
        <ele>318</ele>
        <time>2015-08-02T07:28:19Z</time>
      </trkpt>
      <trkpt lat="47.49291" lon="6.75816">
        <ele>318</ele>
        <time>2015-08-02T07:28:22Z</time>
      </trkpt>
      <trkpt lat="47.49288" lon="6.75824">
        <ele>318</ele>
        <time>2015-08-02T07:28:22Z</time>
      </trkpt>
      <trkpt lat="47.49283" lon="6.75831">
        <ele>317</ele>
        <time>2015-08-02T07:28:23Z</time>
      </trkpt>
      <trkpt lat="47.49274" lon="6.75845">
        <ele>318</ele>
        <time>2015-08-02T07:28:24Z</time>
      </trkpt>
      <trkpt lat="47.49267" lon="6.75858">
        <ele>318</ele>
        <time>2015-08-02T07:28:26Z</time>
      </trkpt>
      <trkpt lat="47.49263" lon="6.75867">
        <ele>318</ele>
        <time>2015-08-02T07:28:26Z</time>
      </trkpt>
      <trkpt lat="47.49262" lon="6.75873">
        <ele>319</ele>
        <time>2015-08-02T07:28:27Z</time>
      </trkpt>
      <trkpt lat="47.4926" lon="6.75881">
        <ele>319</ele>
        <time>2015-08-02T07:28:28Z</time>
      </trkpt>
      <trkpt lat="47.49256" lon="6.75888">
        <ele>319</ele>
        <time>2015-08-02T07:28:28Z</time>
      </trkpt>
      <trkpt lat="47.49254" lon="6.75894">
        <ele>318</ele>
        <time>2015-08-02T07:28:29Z</time>
      </trkpt>
      <trkpt lat="47.4925" lon="6.75901">
        <ele>318</ele>
        <time>2015-08-02T07:28:30Z</time>
      </trkpt>
      <trkpt lat="47.49248" lon="6.75906">
        <ele>317</ele>
        <time>2015-08-02T07:28:30Z</time>
      </trkpt>
      <trkpt lat="47.49243" lon="6.75919">
        <ele>317</ele>
        <time>2015-08-02T07:28:33Z</time>
      </trkpt>
      <trkpt lat="47.49246" lon="6.75925">
        <ele>317</ele>
        <time>2015-08-02T07:28:33Z</time>
      </trkpt>
      <trkpt lat="47.49245" lon="6.75933">
        <ele>318</ele>
        <time>2015-08-02T07:28:33Z</time>
      </trkpt>
      <trkpt lat="47.4923" lon="6.7594">
        <ele>319</ele>
        <time>2015-08-02T07:28:34Z</time>
      </trkpt>
      <trkpt lat="47.49223" lon="6.75948">
        <ele>320</ele>
        <time>2015-08-02T07:28:34Z</time>
      </trkpt>
      <trkpt lat="47.49216" lon="6.75959">
        <ele>320</ele>
        <time>2015-08-02T07:28:36Z</time>
      </trkpt>
      <trkpt lat="47.49209" lon="6.75967">
        <ele>320</ele>
        <time>2015-08-02T07:28:37Z</time>
      </trkpt>
      <trkpt lat="47.49206" lon="6.75974">
        <ele>320</ele>
        <time>2015-08-02T07:28:37Z</time>
      </trkpt>
      <trkpt lat="47.49204" lon="6.75982">
        <ele>320</ele>
        <time>2015-08-02T07:28:38Z</time>
      </trkpt>
      <trkpt lat="47.49202" lon="6.75991">
        <ele>320</ele>
        <time>2015-08-02T07:28:39Z</time>
      </trkpt>
      <trkpt lat="47.492" lon="6.75999">
        <ele>320</ele>
        <time>2015-08-02T07:28:39Z</time>
      </trkpt>
      <trkpt lat="47.4919" lon="6.76018">
        <ele>321</ele>
        <time>2015-08-02T07:28:41Z</time>
      </trkpt>
      <trkpt lat="47.49186" lon="6.76026">
        <ele>321</ele>
        <time>2015-08-02T07:28:41Z</time>
      </trkpt>
      <trkpt lat="47.49183" lon="6.76035">
        <ele>321</ele>
        <time>2015-08-02T07:28:42Z</time>
      </trkpt>
      <trkpt lat="47.49179" lon="6.76043">
        <ele>321</ele>
        <time>2015-08-02T07:28:43Z</time>
      </trkpt>
      <trkpt lat="47.49176" lon="6.76051">
        <ele>320</ele>
        <time>2015-08-02T07:28:43Z</time>
      </trkpt>
      <trkpt lat="47.49172" lon="6.76059">
        <ele>320</ele>
        <time>2015-08-02T07:28:43Z</time>
      </trkpt>
      <trkpt lat="47.49168" lon="6.76068">
        <ele>320</ele>
        <time>2015-08-02T07:28:44Z</time>
      </trkpt>
      <trkpt lat="47.49165" lon="6.76077">
        <ele>320</ele>
        <time>2015-08-02T07:28:44Z</time>
      </trkpt>
      <trkpt lat="47.49161" lon="6.76093">
        <ele>320</ele>
        <time>2015-08-02T07:28:46Z</time>
      </trkpt>
      <trkpt lat="47.49157" lon="6.76101">
        <ele>320</ele>
        <time>2015-08-02T07:28:46Z</time>
      </trkpt>
      <trkpt lat="47.49155" lon="6.76111">
        <ele>321</ele>
        <time>2015-08-02T07:28:47Z</time>
      </trkpt>
      <trkpt lat="47.4915" lon="6.76128">
        <ele>321</ele>
        <time>2015-08-02T07:28:48Z</time>
      </trkpt>
      <trkpt lat="47.49146" lon="6.76145">
        <ele>321</ele>
        <time>2015-08-02T07:28:51Z</time>
      </trkpt>
      <trkpt lat="47.49141" lon="6.76153">
        <ele>321</ele>
        <time>2015-08-02T07:28:51Z</time>
      </trkpt>
      <trkpt lat="47.49138" lon="6.76172">
        <ele>321</ele>
        <time>2015-08-02T07:28:53Z</time>
      </trkpt>
      <trkpt lat="47.49136" lon="6.76181">
        <ele>321</ele>
        <time>2015-08-02T07:28:53Z</time>
      </trkpt>
      <trkpt lat="47.49134" lon="6.7619">
        <ele>321</ele>
        <time>2015-08-02T07:28:53Z</time>
      </trkpt>
      <trkpt lat="47.49133" lon="6.762">
        <ele>321</ele>
        <time>2015-08-02T07:28:54Z</time>
      </trkpt>
      <trkpt lat="47.49136" lon="6.76209">
        <ele>321</ele>
        <time>2015-08-02T07:28:54Z</time>
      </trkpt>
      <trkpt lat="47.49134" lon="6.76219">
        <ele>321</ele>
        <time>2015-08-02T07:28:55Z</time>
      </trkpt>
      <trkpt lat="47.49133" lon="6.76228">
        <ele>320</ele>
        <time>2015-08-02T07:28:56Z</time>
      </trkpt>
      <trkpt lat="47.49134" lon="6.76236">
        <ele>320</ele>
        <time>2015-08-02T07:28:56Z</time>
      </trkpt>
      <trkpt lat="47.49135" lon="6.76239">
        <ele>320</ele>
        <time>2015-08-02T07:28:57Z</time>
      </trkpt>
      <trkpt lat="47.49135" lon="6.76248">
        <ele>320</ele>
        <time>2015-08-02T07:28:58Z</time>
      </trkpt>
      <trkpt lat="47.49137" lon="6.76257">
        <ele>319</ele>
        <time>2015-08-02T07:28:58Z</time>
      </trkpt>
      <trkpt lat="47.49138" lon="6.76265">
        <ele>319</ele>
        <time>2015-08-02T07:28:59Z</time>
      </trkpt>
      <trkpt lat="47.49138" lon="6.76271">
        <ele>319</ele>
        <time>2015-08-02T07:29:01Z</time>
      </trkpt>
      <trkpt lat="47.49141" lon="6.76276">
        <ele>319</ele>
        <time>2015-08-02T07:29:01Z</time>
      </trkpt>
      <trkpt lat="47.4914" lon="6.76289">
        <ele>319</ele>
        <time>2015-08-02T07:29:02Z</time>
      </trkpt>
      <trkpt lat="47.49141" lon="6.76299">
        <ele>319</ele>
        <time>2015-08-02T07:29:03Z</time>
      </trkpt>
      <trkpt lat="47.49142" lon="6.76312">
        <ele>318</ele>
        <time>2015-08-02T07:29:03Z</time>
      </trkpt>
      <trkpt lat="47.49143" lon="6.7632">
        <ele>318</ele>
        <time>2015-08-02T07:29:04Z</time>
      </trkpt>
      <trkpt lat="47.49144" lon="6.76338">
        <ele>317</ele>
        <time>2015-08-02T07:29:05Z</time>
      </trkpt>
      <trkpt lat="47.49145" lon="6.76344">
        <ele>317</ele>
        <time>2015-08-02T07:29:06Z</time>
      </trkpt>
      <trkpt lat="47.49145" lon="6.76352">
        <ele>317</ele>
        <time>2015-08-02T07:29:07Z</time>
      </trkpt>
      <trkpt lat="47.49142" lon="6.76361">
        <ele>317</ele>
        <time>2015-08-02T07:29:07Z</time>
      </trkpt>
      <trkpt lat="47.49144" lon="6.76381">
        <ele>317</ele>
        <time>2015-08-02T07:29:10Z</time>
      </trkpt>
      <trkpt lat="47.49144" lon="6.7639">
        <ele>317</ele>
        <time>2015-08-02T07:29:10Z</time>
      </trkpt>
      <trkpt lat="47.49146" lon="6.76402">
        <ele>316</ele>
        <time>2015-08-02T07:29:11Z</time>
      </trkpt>
      <trkpt lat="47.49145" lon="6.76424">
        <ele>316</ele>
        <time>2015-08-02T07:29:12Z</time>
      </trkpt>
      <trkpt lat="47.49143" lon="6.76432">
        <ele>316</ele>
        <time>2015-08-02T07:29:13Z</time>
      </trkpt>
      <trkpt lat="47.49143" lon="6.76441">
        <ele>316</ele>
        <time>2015-08-02T07:29:13Z</time>
      </trkpt>
      <trkpt lat="47.49142" lon="6.76451">
        <ele>316</ele>
        <time>2015-08-02T07:29:13Z</time>
      </trkpt>
      <trkpt lat="47.49141" lon="6.7646">
        <ele>316</ele>
        <time>2015-08-02T07:29:14Z</time>
      </trkpt>
      <trkpt lat="47.49142" lon="6.7647">
        <ele>316</ele>
        <time>2015-08-02T07:29:15Z</time>
      </trkpt>
      <trkpt lat="47.49143" lon="6.76479">
        <ele>316</ele>
        <time>2015-08-02T07:29:15Z</time>
      </trkpt>
      <trkpt lat="47.49142" lon="6.76487">
        <ele>316</ele>
        <time>2015-08-02T07:29:17Z</time>
      </trkpt>
      <trkpt lat="47.49141" lon="6.76496">
        <ele>316</ele>
        <time>2015-08-02T07:29:19Z</time>
      </trkpt>
      <trkpt lat="47.4914" lon="6.76505">
        <ele>315</ele>
        <time>2015-08-02T07:29:19Z</time>
      </trkpt>
      <trkpt lat="47.49141" lon="6.76512">
        <ele>315</ele>
        <time>2015-08-02T07:29:20Z</time>
      </trkpt>
      <trkpt lat="47.49146" lon="6.76516">
        <ele>315</ele>
        <time>2015-08-02T07:29:21Z</time>
      </trkpt>
      <trkpt lat="47.49151" lon="6.76514">
        <ele>315</ele>
        <time>2015-08-02T07:29:21Z</time>
      </trkpt>
      <trkpt lat="47.49151" lon="6.76515">
        <ele>315</ele>
        <time>2015-08-02T07:29:22Z</time>
      </trkpt>
      <trkpt lat="47.49157" lon="6.76514">
        <ele>314</ele>
        <time>2015-08-02T07:29:23Z</time>
      </trkpt>
      <trkpt lat="47.4916" lon="6.76512">
        <ele>314</ele>
        <time>2015-08-02T07:29:23Z</time>
      </trkpt>
      <trkpt lat="47.49163" lon="6.7651">
        <ele>314</ele>
        <time>2015-08-02T07:29:23Z</time>
      </trkpt>
      <trkpt lat="47.49167" lon="6.76507">
        <ele>314</ele>
        <time>2015-08-02T07:29:24Z</time>
      </trkpt>
      <trkpt lat="47.49172" lon="6.76503">
        <ele>314</ele>
        <time>2015-08-02T07:29:28Z</time>
      </trkpt>
      <trkpt lat="47.49175" lon="6.76499">
        <ele>314</ele>
        <time>2015-08-02T07:29:30Z</time>
      </trkpt>
      <trkpt lat="47.49177" lon="6.76498">
        <ele>315</ele>
        <time>2015-08-02T07:29:30Z</time>
      </trkpt>
      <trkpt lat="47.49179" lon="6.76493">
        <ele>315</ele>
        <time>2015-08-02T07:29:33Z</time>
      </trkpt>
      <trkpt lat="47.49179" lon="6.76492">
        <ele>315</ele>
        <time>2015-08-02T07:29:33Z</time>
      </trkpt>
      <trkpt lat="47.49175" lon="6.76488">
        <ele>315</ele>
        <time>2015-08-02T07:29:40Z</time>
      </trkpt>
      <trkpt lat="47.49175" lon="6.76487">
        <ele>315</ele>
        <time>2015-08-02T07:29:40Z</time>
      </trkpt>
      <trkpt lat="47.49175" lon="6.7648">
        <ele>316</ele>
        <time>2015-08-02T07:30:01Z</time>
      </trkpt>
      <trkpt lat="47.49179" lon="6.76476">
        <ele>316</ele>
        <time>2015-08-02T07:31:02Z</time>
      </trkpt>
      <trkpt lat="47.49183" lon="6.76476">
        <ele>316</ele>
        <time>2015-08-02T07:32:08Z</time>
      </trkpt>
      <trkpt lat="47.49186" lon="6.76481">
        <ele>316</ele>
        <time>2015-08-02T07:34:00Z</time>
      </trkpt>
      <trkpt lat="47.49186" lon="6.76482">
        <ele>316</ele>
        <time>2015-08-02T07:34:01Z</time>
      </trkpt>
      <trkpt lat="47.49189" lon="6.76487">
        <ele>316</ele>
        <time>2015-08-02T07:34:50Z</time>
      </trkpt>
      <trkpt lat="47.49189" lon="6.76489">
        <ele>316</ele>
        <time>2015-08-02T07:34:51Z</time>
      </trkpt>
      <trkpt lat="47.49189" lon="6.76493">
        <ele>316</ele>
        <time>2015-08-02T07:34:51Z</time>
      </trkpt>
      <trkpt lat="47.49187" lon="6.76497">
        <ele>316</ele>
        <time>2015-08-02T07:34:52Z</time>
      </trkpt>
      <trkpt lat="47.49185" lon="6.76501">
        <ele>315</ele>
        <time>2015-08-02T07:34:53Z</time>
      </trkpt>
      <trkpt lat="47.49181" lon="6.76504">
        <ele>315</ele>
        <time>2015-08-02T07:34:53Z</time>
      </trkpt>
      <trkpt lat="47.49178" lon="6.76507">
        <ele>315</ele>
        <time>2015-08-02T07:34:53Z</time>
      </trkpt>
      <trkpt lat="47.49169" lon="6.76512">
        <ele>314</ele>
        <time>2015-08-02T07:34:54Z</time>
      </trkpt>
      <trkpt lat="47.4916" lon="6.76518">
        <ele>314</ele>
        <time>2015-08-02T07:34:55Z</time>
      </trkpt>
      <trkpt lat="47.49155" lon="6.76522">
        <ele>315</ele>
        <time>2015-08-02T07:34:56Z</time>
      </trkpt>
      <trkpt lat="47.4915" lon="6.76525">
        <ele>315</ele>
        <time>2015-08-02T07:34:56Z</time>
      </trkpt>
      <trkpt lat="47.49144" lon="6.76526">
        <ele>315</ele>
        <time>2015-08-02T07:34:57Z</time>
      </trkpt>
      <trkpt lat="47.49139" lon="6.76526">
        <ele>315</ele>
        <time>2015-08-02T07:34:58Z</time>
      </trkpt>
      <trkpt lat="47.49134" lon="6.76527">
        <ele>316</ele>
        <time>2015-08-02T07:34:58Z</time>
      </trkpt>
      <trkpt lat="47.4913" lon="6.76531">
        <ele>316</ele>
        <time>2015-08-02T07:34:59Z</time>
      </trkpt>
      <trkpt lat="47.49127" lon="6.76537">
        <ele>316</ele>
        <time>2015-08-02T07:35:00Z</time>
      </trkpt>
      <trkpt lat="47.49125" lon="6.76542">
        <ele>316</ele>
        <time>2015-08-02T07:35:00Z</time>
      </trkpt>
      <trkpt lat="47.49126" lon="6.76549">
        <ele>316</ele>
        <time>2015-08-02T07:35:02Z</time>
      </trkpt>
      <trkpt lat="47.49127" lon="6.76562">
        <ele>315</ele>
        <time>2015-08-02T07:35:03Z</time>
      </trkpt>
      <trkpt lat="47.49128" lon="6.76569">
        <ele>315</ele>
        <time>2015-08-02T07:35:04Z</time>
      </trkpt>
      <trkpt lat="47.49128" lon="6.76577">
        <ele>315</ele>
        <time>2015-08-02T07:35:05Z</time>
      </trkpt>
      <trkpt lat="47.49129" lon="6.76584">
        <ele>314</ele>
        <time>2015-08-02T07:35:05Z</time>
      </trkpt>
      <trkpt lat="47.49131" lon="6.76591">
        <ele>314</ele>
        <time>2015-08-02T07:35:06Z</time>
      </trkpt>
      <trkpt lat="47.49132" lon="6.76598">
        <ele>314</ele>
        <time>2015-08-02T07:35:07Z</time>
      </trkpt>
      <trkpt lat="47.49134" lon="6.76605">
        <ele>314</ele>
        <time>2015-08-02T07:35:07Z</time>
      </trkpt>
      <trkpt lat="47.49136" lon="6.76613">
        <ele>314</ele>
        <time>2015-08-02T07:35:08Z</time>
      </trkpt>
      <trkpt lat="47.49137" lon="6.7662">
        <ele>314</ele>
        <time>2015-08-02T07:35:09Z</time>
      </trkpt>
      <trkpt lat="47.49137" lon="6.76628">
        <ele>314</ele>
        <time>2015-08-02T07:35:09Z</time>
      </trkpt>
      <trkpt lat="47.49138" lon="6.76636">
        <ele>314</ele>
        <time>2015-08-02T07:35:10Z</time>
      </trkpt>
      <trkpt lat="47.49138" lon="6.76653">
        <ele>314</ele>
        <time>2015-08-02T07:35:11Z</time>
      </trkpt>
      <trkpt lat="47.4914" lon="6.76661">
        <ele>314</ele>
        <time>2015-08-02T07:35:12Z</time>
      </trkpt>
      <trkpt lat="47.49141" lon="6.7667">
        <ele>314</ele>
        <time>2015-08-02T07:35:13Z</time>
      </trkpt>
      <trkpt lat="47.49143" lon="6.76687">
        <ele>313</ele>
        <time>2015-08-02T07:35:13Z</time>
      </trkpt>
      <trkpt lat="47.49145" lon="6.76702">
        <ele>313</ele>
        <time>2015-08-02T07:35:14Z</time>
      </trkpt>
      <trkpt lat="47.49146" lon="6.7671">
        <ele>313</ele>
        <time>2015-08-02T07:35:16Z</time>
      </trkpt>
      <trkpt lat="47.49148" lon="6.76718">
        <ele>313</ele>
        <time>2015-08-02T07:35:17Z</time>
      </trkpt>
      <trkpt lat="47.4915" lon="6.76727">
        <ele>313</ele>
        <time>2015-08-02T07:35:17Z</time>
      </trkpt>
      <trkpt lat="47.49151" lon="6.76734">
        <ele>313</ele>
        <time>2015-08-02T07:35:18Z</time>
      </trkpt>
      <trkpt lat="47.49152" lon="6.7674">
        <ele>313</ele>
        <time>2015-08-02T07:35:19Z</time>
      </trkpt>
      <trkpt lat="47.49152" lon="6.76751">
        <ele>313</ele>
        <time>2015-08-02T07:35:19Z</time>
      </trkpt>
      <trkpt lat="47.49153" lon="6.76759">
        <ele>313</ele>
        <time>2015-08-02T07:35:21Z</time>
      </trkpt>
      <trkpt lat="47.49153" lon="6.76767">
        <ele>313</ele>
        <time>2015-08-02T07:35:22Z</time>
      </trkpt>
      <trkpt lat="47.49154" lon="6.76776">
        <ele>313</ele>
        <time>2015-08-02T07:35:22Z</time>
      </trkpt>
      <trkpt lat="47.49159" lon="6.7679">
        <ele>313</ele>
        <time>2015-08-02T07:35:23Z</time>
      </trkpt>
      <trkpt lat="47.49158" lon="6.76814">
        <ele>313</ele>
        <time>2015-08-02T07:35:25Z</time>
      </trkpt>
      <trkpt lat="47.49159" lon="6.76831">
        <ele>313</ele>
        <time>2015-08-02T07:35:26Z</time>
      </trkpt>
      <trkpt lat="47.49159" lon="6.76839">
        <ele>313</ele>
        <time>2015-08-02T07:35:27Z</time>
      </trkpt>
      <trkpt lat="47.49159" lon="6.76857">
        <ele>312</ele>
        <time>2015-08-02T07:35:28Z</time>
      </trkpt>
      <trkpt lat="47.49158" lon="6.76864">
        <ele>312</ele>
        <time>2015-08-02T07:35:30Z</time>
      </trkpt>
      <trkpt lat="47.49158" lon="6.76872">
        <ele>312</ele>
        <time>2015-08-02T07:35:30Z</time>
      </trkpt>
      <trkpt lat="47.49158" lon="6.76888">
        <ele>312</ele>
        <time>2015-08-02T07:35:32Z</time>
      </trkpt>
      <trkpt lat="47.49157" lon="6.76912">
        <ele>313</ele>
        <time>2015-08-02T07:35:33Z</time>
      </trkpt>
      <trkpt lat="47.49157" lon="6.76919">
        <ele>313</ele>
        <time>2015-08-02T07:35:33Z</time>
      </trkpt>
      <trkpt lat="47.49157" lon="6.76927">
        <ele>312</ele>
        <time>2015-08-02T07:35:34Z</time>
      </trkpt>
      <trkpt lat="47.49157" lon="6.76935">
        <ele>312</ele>
        <time>2015-08-02T07:35:35Z</time>
      </trkpt>
      <trkpt lat="47.49156" lon="6.76941">
        <ele>312</ele>
        <time>2015-08-02T07:35:35Z</time>
      </trkpt>
      <trkpt lat="47.49156" lon="6.76947">
        <ele>312</ele>
        <time>2015-08-02T07:35:37Z</time>
      </trkpt>
      <trkpt lat="47.49156" lon="6.76952">
        <ele>312</ele>
        <time>2015-08-02T07:35:38Z</time>
      </trkpt>
      <trkpt lat="47.49156" lon="6.76955">
        <ele>312</ele>
        <time>2015-08-02T07:35:38Z</time>
      </trkpt>
      <trkpt lat="47.49154" lon="6.76963">
        <ele>312</ele>
        <time>2015-08-02T07:35:39Z</time>
      </trkpt>
      <trkpt lat="47.49153" lon="6.76969">
        <ele>312</ele>
        <time>2015-08-02T07:35:40Z</time>
      </trkpt>
      <trkpt lat="47.49153" lon="6.7698">
        <ele>312</ele>
        <time>2015-08-02T07:35:41Z</time>
      </trkpt>
      <trkpt lat="47.49154" lon="6.76984">
        <ele>312</ele>
        <time>2015-08-02T07:35:42Z</time>
      </trkpt>
      <trkpt lat="47.49161" lon="6.76992">
        <ele>312</ele>
        <time>2015-08-02T07:35:42Z</time>
      </trkpt>
      <trkpt lat="47.49165" lon="6.77">
        <ele>312</ele>
        <time>2015-08-02T07:35:43Z</time>
      </trkpt>
      <trkpt lat="47.49166" lon="6.77005">
        <ele>312</ele>
        <time>2015-08-02T07:35:44Z</time>
      </trkpt>
      <trkpt lat="47.49168" lon="6.7701">
        <ele>312</ele>
        <time>2015-08-02T07:35:44Z</time>
      </trkpt>
      <trkpt lat="47.49168" lon="6.7702">
        <ele>313</ele>
        <time>2015-08-02T07:35:45Z</time>
      </trkpt>
      <trkpt lat="47.49168" lon="6.77028">
        <ele>313</ele>
        <time>2015-08-02T07:35:46Z</time>
      </trkpt>
      <trkpt lat="47.4917" lon="6.77037">
        <ele>313</ele>
        <time>2015-08-02T07:35:46Z</time>
      </trkpt>
      <trkpt lat="47.49172" lon="6.77049">
        <ele>313</ele>
        <time>2015-08-02T07:35:48Z</time>
      </trkpt>
      <trkpt lat="47.49173" lon="6.77057">
        <ele>313</ele>
        <time>2015-08-02T07:35:48Z</time>
      </trkpt>
      <trkpt lat="47.49175" lon="6.77072">
        <ele>312</ele>
        <time>2015-08-02T07:35:51Z</time>
      </trkpt>
      <trkpt lat="47.49179" lon="6.77085">
        <ele>312</ele>
        <time>2015-08-02T07:35:52Z</time>
      </trkpt>
      <trkpt lat="47.49181" lon="6.7709">
        <ele>312</ele>
        <time>2015-08-02T07:35:53Z</time>
      </trkpt>
      <trkpt lat="47.49182" lon="6.771">
        <ele>312</ele>
        <time>2015-08-02T07:35:53Z</time>
      </trkpt>
      <trkpt lat="47.49185" lon="6.77107">
        <ele>313</ele>
        <time>2015-08-02T07:35:54Z</time>
      </trkpt>
      <trkpt lat="47.49189" lon="6.77108">
        <ele>313</ele>
        <time>2015-08-02T07:35:54Z</time>
      </trkpt>
      <trkpt lat="47.4919" lon="6.77114">
        <ele>313</ele>
        <time>2015-08-02T07:35:56Z</time>
      </trkpt>
      <trkpt lat="47.49188" lon="6.77117">
        <ele>313</ele>
        <time>2015-08-02T07:35:56Z</time>
      </trkpt>
      <trkpt lat="47.49188" lon="6.77121">
        <ele>313</ele>
        <time>2015-08-02T07:35:58Z</time>
      </trkpt>
      <trkpt lat="47.4919" lon="6.77128">
        <ele>313</ele>
        <time>2015-08-02T07:35:59Z</time>
      </trkpt>
      <trkpt lat="47.49192" lon="6.77139">
        <ele>313</ele>
        <time>2015-08-02T07:36:01Z</time>
      </trkpt>
      <trkpt lat="47.49193" lon="6.77145">
        <ele>313</ele>
        <time>2015-08-02T07:36:01Z</time>
      </trkpt>
      <trkpt lat="47.49194" lon="6.77159">
        <ele>313</ele>
        <time>2015-08-02T07:36:03Z</time>
      </trkpt>
      <trkpt lat="47.49194" lon="6.77165">
        <ele>313</ele>
        <time>2015-08-02T07:36:03Z</time>
      </trkpt>
      <trkpt lat="47.49194" lon="6.77172">
        <ele>313</ele>
        <time>2015-08-02T07:36:03Z</time>
      </trkpt>
      <trkpt lat="47.49193" lon="6.77179">
        <ele>313</ele>
        <time>2015-08-02T07:36:04Z</time>
      </trkpt>
      <trkpt lat="47.49194" lon="6.77197">
        <ele>312</ele>
        <time>2015-08-02T07:36:05Z</time>
      </trkpt>
      <trkpt lat="47.49193" lon="6.77206">
        <ele>312</ele>
        <time>2015-08-02T07:36:07Z</time>
      </trkpt>
      <trkpt lat="47.49193" lon="6.77219">
        <ele>312</ele>
        <time>2015-08-02T07:36:08Z</time>
      </trkpt>
      <trkpt lat="47.49193" lon="6.77232">
        <ele>312</ele>
        <time>2015-08-02T07:36:09Z</time>
      </trkpt>
      <trkpt lat="47.49194" lon="6.77238">
        <ele>312</ele>
        <time>2015-08-02T07:36:10Z</time>
      </trkpt>
      <trkpt lat="47.49194" lon="6.77244">
        <ele>312</ele>
        <time>2015-08-02T07:36:12Z</time>
      </trkpt>
      <trkpt lat="47.49193" lon="6.77252">
        <ele>311</ele>
        <time>2015-08-02T07:36:12Z</time>
      </trkpt>
      <trkpt lat="47.49191" lon="6.7727">
        <ele>311</ele>
        <time>2015-08-02T07:36:13Z</time>
      </trkpt>
      <trkpt lat="47.4919" lon="6.77279">
        <ele>311</ele>
        <time>2015-08-02T07:36:13Z</time>
      </trkpt>
      <trkpt lat="47.49189" lon="6.77288">
        <ele>311</ele>
        <time>2015-08-02T07:36:14Z</time>
      </trkpt>
      <trkpt lat="47.49188" lon="6.77297">
        <ele>311</ele>
        <time>2015-08-02T07:36:15Z</time>
      </trkpt>
      <trkpt lat="47.49188" lon="6.77306">
        <ele>311</ele>
        <time>2015-08-02T07:36:15Z</time>
      </trkpt>
      <trkpt lat="47.49187" lon="6.77315">
        <ele>311</ele>
        <time>2015-08-02T07:36:16Z</time>
      </trkpt>
      <trkpt lat="47.49185" lon="6.77323">
        <ele>310</ele>
        <time>2015-08-02T07:36:17Z</time>
      </trkpt>
      <trkpt lat="47.49183" lon="6.77329">
        <ele>310</ele>
        <time>2015-08-02T07:36:17Z</time>
      </trkpt>
      <trkpt lat="47.49181" lon="6.77333">
        <ele>310</ele>
        <time>2015-08-02T07:36:18Z</time>
      </trkpt>
      <trkpt lat="47.49179" lon="6.77334">
        <ele>310</ele>
        <time>2015-08-02T07:36:19Z</time>
      </trkpt>
      <trkpt lat="47.49176" lon="6.77336">
        <ele>310</ele>
        <time>2015-08-02T07:36:19Z</time>
      </trkpt>
      <trkpt lat="47.49173" lon="6.77335">
        <ele>310</ele>
        <time>2015-08-02T07:36:20Z</time>
      </trkpt>
      <trkpt lat="47.49169" lon="6.77336">
        <ele>310</ele>
        <time>2015-08-02T07:36:21Z</time>
      </trkpt>
      <trkpt lat="47.49165" lon="6.77336">
        <ele>310</ele>
        <time>2015-08-02T07:36:21Z</time>
      </trkpt>
      <trkpt lat="47.49161" lon="6.77334">
        <ele>310</ele>
        <time>2015-08-02T07:36:22Z</time>
      </trkpt>
      <trkpt lat="47.49157" lon="6.77333">
        <ele>310</ele>
        <time>2015-08-02T07:36:23Z</time>
      </trkpt>
      <trkpt lat="47.49152" lon="6.77333">
        <ele>311</ele>
        <time>2015-08-02T07:36:23Z</time>
      </trkpt>
      <trkpt lat="47.49148" lon="6.77333">
        <ele>311</ele>
        <time>2015-08-02T07:36:25Z</time>
      </trkpt>
      <trkpt lat="47.49137" lon="6.77332">
        <ele>311</ele>
        <time>2015-08-02T07:36:26Z</time>
      </trkpt>
      <trkpt lat="47.49132" lon="6.77331">
        <ele>311</ele>
        <time>2015-08-02T07:36:27Z</time>
      </trkpt>
      <trkpt lat="47.49127" lon="6.7733">
        <ele>311</ele>
        <time>2015-08-02T07:36:28Z</time>
      </trkpt>
      <trkpt lat="47.49122" lon="6.7733">
        <ele>311</ele>
        <time>2015-08-02T07:36:28Z</time>
      </trkpt>
      <trkpt lat="47.49116" lon="6.7733">
        <ele>311</ele>
        <time>2015-08-02T07:36:29Z</time>
      </trkpt>
      <trkpt lat="47.4911" lon="6.77331">
        <ele>311</ele>
        <time>2015-08-02T07:36:30Z</time>
      </trkpt>
      <trkpt lat="47.49105" lon="6.7733">
        <ele>311</ele>
        <time>2015-08-02T07:36:30Z</time>
      </trkpt>
      <trkpt lat="47.49099" lon="6.7733">
        <ele>311</ele>
        <time>2015-08-02T07:36:31Z</time>
      </trkpt>
      <trkpt lat="47.49093" lon="6.7733">
        <ele>311</ele>
        <time>2015-08-02T07:36:32Z</time>
      </trkpt>
      <trkpt lat="47.49087" lon="6.77329">
        <ele>311</ele>
        <time>2015-08-02T07:36:32Z</time>
      </trkpt>
      <trkpt lat="47.49077" lon="6.77329">
        <ele>311</ele>
        <time>2015-08-02T07:36:33Z</time>
      </trkpt>
      <trkpt lat="47.49071" lon="6.77329">
        <ele>311</ele>
        <time>2015-08-02T07:36:33Z</time>
      </trkpt>
      <trkpt lat="47.49066" lon="6.77328">
        <ele>311</ele>
        <time>2015-08-02T07:36:35Z</time>
      </trkpt>
      <trkpt lat="47.4906" lon="6.77328">
        <ele>311</ele>
        <time>2015-08-02T07:36:36Z</time>
      </trkpt>
      <trkpt lat="47.49049" lon="6.77328">
        <ele>311</ele>
        <time>2015-08-02T07:36:37Z</time>
      </trkpt>
      <trkpt lat="47.49043" lon="6.77328">
        <ele>311</ele>
        <time>2015-08-02T07:36:39Z</time>
      </trkpt>
      <trkpt lat="47.49037" lon="6.77328">
        <ele>311</ele>
        <time>2015-08-02T07:36:39Z</time>
      </trkpt>
      <trkpt lat="47.49032" lon="6.77328">
        <ele>311</ele>
        <time>2015-08-02T07:36:40Z</time>
      </trkpt>
      <trkpt lat="47.49027" lon="6.77327">
        <ele>311</ele>
        <time>2015-08-02T07:36:41Z</time>
      </trkpt>
      <trkpt lat="47.49021" lon="6.77326">
        <ele>311</ele>
        <time>2015-08-02T07:36:41Z</time>
      </trkpt>
      <trkpt lat="47.4901" lon="6.77326">
        <ele>311</ele>
        <time>2015-08-02T07:36:43Z</time>
      </trkpt>
      <trkpt lat="47.49004" lon="6.77325">
        <ele>311</ele>
        <time>2015-08-02T07:36:43Z</time>
      </trkpt>
      <trkpt lat="47.48999" lon="6.77326">
        <ele>311</ele>
        <time>2015-08-02T07:36:43Z</time>
      </trkpt>
      <trkpt lat="47.48993" lon="6.77325">
        <ele>311</ele>
        <time>2015-08-02T07:36:44Z</time>
      </trkpt>
      <trkpt lat="47.48987" lon="6.77323">
        <ele>311</ele>
        <time>2015-08-02T07:36:44Z</time>
      </trkpt>
      <trkpt lat="47.48969" lon="6.77323">
        <ele>311</ele>
        <time>2015-08-02T07:36:46Z</time>
      </trkpt>
      <trkpt lat="47.48964" lon="6.77322">
        <ele>311</ele>
        <time>2015-08-02T07:36:47Z</time>
      </trkpt>
      <trkpt lat="47.48958" lon="6.77321">
        <ele>311</ele>
        <time>2015-08-02T07:36:48Z</time>
      </trkpt>
      <trkpt lat="47.48941" lon="6.77316">
        <ele>311</ele>
        <time>2015-08-02T07:36:50Z</time>
      </trkpt>
      <trkpt lat="47.48925" lon="6.7731">
        <ele>310</ele>
        <time>2015-08-02T07:36:53Z</time>
      </trkpt>
      <trkpt lat="47.4892" lon="6.77308">
        <ele>311</ele>
        <time>2015-08-02T07:36:53Z</time>
      </trkpt>
      <trkpt lat="47.48914" lon="6.77306">
        <ele>310</ele>
        <time>2015-08-02T07:36:54Z</time>
      </trkpt>
      <trkpt lat="47.48909" lon="6.77303">
        <ele>310</ele>
        <time>2015-08-02T07:36:55Z</time>
      </trkpt>
      <trkpt lat="47.48897" lon="6.77302">
        <ele>310</ele>
        <time>2015-08-02T07:36:56Z</time>
      </trkpt>
      <trkpt lat="47.48891" lon="6.77298">
        <ele>310</ele>
        <time>2015-08-02T07:36:57Z</time>
      </trkpt>
      <trkpt lat="47.48881" lon="6.77294">
        <ele>310</ele>
        <time>2015-08-02T07:36:58Z</time>
      </trkpt>
      <trkpt lat="47.4887" lon="6.77291">
        <ele>310</ele>
        <time>2015-08-02T07:36:59Z</time>
      </trkpt>
      <trkpt lat="47.48865" lon="6.77289">
        <ele>310</ele>
        <time>2015-08-02T07:37:00Z</time>
      </trkpt>
      <trkpt lat="47.4886" lon="6.77289">
        <ele>310</ele>
        <time>2015-08-02T07:37:01Z</time>
      </trkpt>
      <trkpt lat="47.48855" lon="6.77288">
        <ele>310</ele>
        <time>2015-08-02T07:37:01Z</time>
      </trkpt>
      <trkpt lat="47.48849" lon="6.77287">
        <ele>310</ele>
        <time>2015-08-02T07:37:02Z</time>
      </trkpt>
      <trkpt lat="47.48843" lon="6.77281">
        <ele>310</ele>
        <time>2015-08-02T07:37:03Z</time>
      </trkpt>
      <trkpt lat="47.48833" lon="6.77275">
        <ele>310</ele>
        <time>2015-08-02T07:37:03Z</time>
      </trkpt>
      <trkpt lat="47.48827" lon="6.7727">
        <ele>310</ele>
        <time>2015-08-02T07:37:04Z</time>
      </trkpt>
      <trkpt lat="47.48817" lon="6.77263">
        <ele>310</ele>
        <time>2015-08-02T07:37:06Z</time>
      </trkpt>
      <trkpt lat="47.48807" lon="6.77256">
        <ele>310</ele>
        <time>2015-08-02T07:37:07Z</time>
      </trkpt>
      <trkpt lat="47.48803" lon="6.77252">
        <ele>310</ele>
        <time>2015-08-02T07:37:08Z</time>
      </trkpt>
      <trkpt lat="47.48797" lon="6.77248">
        <ele>310</ele>
        <time>2015-08-02T07:37:09Z</time>
      </trkpt>
      <trkpt lat="47.48793" lon="6.77244">
        <ele>310</ele>
        <time>2015-08-02T07:37:09Z</time>
      </trkpt>
      <trkpt lat="47.48787" lon="6.7724">
        <ele>310</ele>
        <time>2015-08-02T07:37:10Z</time>
      </trkpt>
      <trkpt lat="47.48783" lon="6.77236">
        <ele>310</ele>
        <time>2015-08-02T07:37:12Z</time>
      </trkpt>
      <trkpt lat="47.48778" lon="6.77232">
        <ele>310</ele>
        <time>2015-08-02T07:37:12Z</time>
      </trkpt>
      <trkpt lat="47.48773" lon="6.77228">
        <ele>310</ele>
        <time>2015-08-02T07:37:13Z</time>
      </trkpt>
      <trkpt lat="47.48764" lon="6.7722">
        <ele>310</ele>
        <time>2015-08-02T07:37:13Z</time>
      </trkpt>
      <trkpt lat="47.48754" lon="6.77213">
        <ele>310</ele>
        <time>2015-08-02T07:37:15Z</time>
      </trkpt>
      <trkpt lat="47.48749" lon="6.77209">
        <ele>310</ele>
        <time>2015-08-02T07:37:15Z</time>
      </trkpt>
      <trkpt lat="47.48744" lon="6.77205">
        <ele>310</ele>
        <time>2015-08-02T07:37:16Z</time>
      </trkpt>
      <trkpt lat="47.48734" lon="6.77198">
        <ele>310</ele>
        <time>2015-08-02T07:37:17Z</time>
      </trkpt>
      <trkpt lat="47.48724" lon="6.77189">
        <ele>310</ele>
        <time>2015-08-02T07:37:21Z</time>
      </trkpt>
      <trkpt lat="47.48718" lon="6.77186">
        <ele>310</ele>
        <time>2015-08-02T07:37:21Z</time>
      </trkpt>
      <trkpt lat="47.48713" lon="6.77182">
        <ele>310</ele>
        <time>2015-08-02T07:37:22Z</time>
      </trkpt>
      <trkpt lat="47.48708" lon="6.77179">
        <ele>310</ele>
        <time>2015-08-02T07:37:23Z</time>
      </trkpt>
      <trkpt lat="47.48703" lon="6.77175">
        <ele>311</ele>
        <time>2015-08-02T07:37:23Z</time>
      </trkpt>
      <trkpt lat="47.48693" lon="6.77167">
        <ele>311</ele>
        <time>2015-08-02T07:37:24Z</time>
      </trkpt>
      <trkpt lat="47.48688" lon="6.77161">
        <ele>311</ele>
        <time>2015-08-02T07:37:24Z</time>
      </trkpt>
      <trkpt lat="47.48683" lon="6.77156">
        <ele>311</ele>
        <time>2015-08-02T07:37:25Z</time>
      </trkpt>
      <trkpt lat="47.48678" lon="6.77152">
        <ele>311</ele>
        <time>2015-08-02T07:37:26Z</time>
      </trkpt>
      <trkpt lat="47.48674" lon="6.77146">
        <ele>311</ele>
        <time>2015-08-02T07:37:26Z</time>
      </trkpt>
      <trkpt lat="47.48669" lon="6.77141">
        <ele>311</ele>
        <time>2015-08-02T07:37:27Z</time>
      </trkpt>
      <trkpt lat="47.48664" lon="6.77136">
        <ele>312</ele>
        <time>2015-08-02T07:37:28Z</time>
      </trkpt>
      <trkpt lat="47.48659" lon="6.77131">
        <ele>312</ele>
        <time>2015-08-02T07:37:28Z</time>
      </trkpt>
      <trkpt lat="47.4865" lon="6.77121">
        <ele>312</ele>
        <time>2015-08-02T07:37:30Z</time>
      </trkpt>
      <trkpt lat="47.48646" lon="6.77115">
        <ele>312</ele>
        <time>2015-08-02T07:37:30Z</time>
      </trkpt>
      <trkpt lat="47.48641" lon="6.7711">
        <ele>312</ele>
        <time>2015-08-02T07:37:31Z</time>
      </trkpt>
      <trkpt lat="47.48636" lon="6.77105">
        <ele>312</ele>
        <time>2015-08-02T07:37:32Z</time>
      </trkpt>
      <trkpt lat="47.48627" lon="6.77094">
        <ele>312</ele>
        <time>2015-08-02T07:37:33Z</time>
      </trkpt>
      <trkpt lat="47.48622" lon="6.77091">
        <ele>312</ele>
        <time>2015-08-02T07:37:34Z</time>
      </trkpt>
      <trkpt lat="47.48617" lon="6.77088">
        <ele>312</ele>
        <time>2015-08-02T07:37:34Z</time>
      </trkpt>
      <trkpt lat="47.48611" lon="6.77084">
        <ele>312</ele>
        <time>2015-08-02T07:37:35Z</time>
      </trkpt>
      <trkpt lat="47.48606" lon="6.77079">
        <ele>313</ele>
        <time>2015-08-02T07:37:36Z</time>
      </trkpt>
      <trkpt lat="47.486" lon="6.77074">
        <ele>313</ele>
        <time>2015-08-02T07:37:36Z</time>
      </trkpt>
      <trkpt lat="47.48595" lon="6.7707">
        <ele>313</ele>
        <time>2015-08-02T07:37:37Z</time>
      </trkpt>
      <trkpt lat="47.48589" lon="6.77068">
        <ele>313</ele>
        <time>2015-08-02T07:37:38Z</time>
      </trkpt>
      <trkpt lat="47.4858" lon="6.77064">
        <ele>314</ele>
        <time>2015-08-02T07:37:40Z</time>
      </trkpt>
      <trkpt lat="47.48575" lon="6.7706">
        <ele>314</ele>
        <time>2015-08-02T07:37:41Z</time>
      </trkpt>
      <trkpt lat="47.4857" lon="6.77057">
        <ele>314</ele>
        <time>2015-08-02T07:37:41Z</time>
      </trkpt>
      <trkpt lat="47.48565" lon="6.77055">
        <ele>314</ele>
        <time>2015-08-02T07:37:42Z</time>
      </trkpt>
      <trkpt lat="47.4856" lon="6.77053">
        <ele>314</ele>
        <time>2015-08-02T07:37:43Z</time>
      </trkpt>
      <trkpt lat="47.48555" lon="6.77051">
        <ele>314</ele>
        <time>2015-08-02T07:37:43Z</time>
      </trkpt>
      <trkpt lat="47.48542" lon="6.77047">
        <ele>314</ele>
        <time>2015-08-02T07:37:44Z</time>
      </trkpt>
      <trkpt lat="47.48537" lon="6.77043">
        <ele>314</ele>
        <time>2015-08-02T07:37:44Z</time>
      </trkpt>
      <trkpt lat="47.48531" lon="6.77038">
        <ele>314</ele>
        <time>2015-08-02T07:37:45Z</time>
      </trkpt>
      <trkpt lat="47.4852" lon="6.7703">
        <ele>314</ele>
        <time>2015-08-02T07:37:46Z</time>
      </trkpt>
      <trkpt lat="47.48515" lon="6.77027">
        <ele>314</ele>
        <time>2015-08-02T07:37:48Z</time>
      </trkpt>
      <trkpt lat="47.4851" lon="6.77022">
        <ele>315</ele>
        <time>2015-08-02T07:37:49Z</time>
      </trkpt>
      <trkpt lat="47.48498" lon="6.77013">
        <ele>315</ele>
        <time>2015-08-02T07:37:50Z</time>
      </trkpt>
      <trkpt lat="47.48493" lon="6.77009">
        <ele>315</ele>
        <time>2015-08-02T07:37:51Z</time>
      </trkpt>
      <trkpt lat="47.48486" lon="6.77005">
        <ele>315</ele>
        <time>2015-08-02T07:37:51Z</time>
      </trkpt>
      <trkpt lat="47.48476" lon="6.76997">
        <ele>315</ele>
        <time>2015-08-02T07:37:53Z</time>
      </trkpt>
      <trkpt lat="47.4847" lon="6.76994">
        <ele>315</ele>
        <time>2015-08-02T07:37:53Z</time>
      </trkpt>
      <trkpt lat="47.48465" lon="6.7699">
        <ele>315</ele>
        <time>2015-08-02T07:37:53Z</time>
      </trkpt>
      <trkpt lat="47.48453" lon="6.76983">
        <ele>315</ele>
        <time>2015-08-02T07:37:54Z</time>
      </trkpt>
      <trkpt lat="47.48438" lon="6.76971">
        <ele>314</ele>
        <time>2015-08-02T07:37:56Z</time>
      </trkpt>
      <trkpt lat="47.48433" lon="6.76968">
        <ele>314</ele>
        <time>2015-08-02T07:37:57Z</time>
      </trkpt>
      <trkpt lat="47.48427" lon="6.76965">
        <ele>314</ele>
        <time>2015-08-02T07:37:59Z</time>
      </trkpt>
      <trkpt lat="47.48422" lon="6.76964">
        <ele>314</ele>
        <time>2015-08-02T07:37:59Z</time>
      </trkpt>
      <trkpt lat="47.48416" lon="6.76962">
        <ele>312</ele>
        <time>2015-08-02T07:38:00Z</time>
      </trkpt>
      <trkpt lat="47.48398" lon="6.76952">
        <ele>312</ele>
        <time>2015-08-02T07:38:03Z</time>
      </trkpt>
      <trkpt lat="47.48393" lon="6.7695">
        <ele>312</ele>
        <time>2015-08-02T07:38:03Z</time>
      </trkpt>
      <trkpt lat="47.48388" lon="6.76946">
        <ele>312</ele>
        <time>2015-08-02T07:38:03Z</time>
      </trkpt>
      <trkpt lat="47.48382" lon="6.76944">
        <ele>312</ele>
        <time>2015-08-02T07:38:04Z</time>
      </trkpt>
      <trkpt lat="47.48378" lon="6.76939">
        <ele>312</ele>
        <time>2015-08-02T07:38:06Z</time>
      </trkpt>
      <trkpt lat="47.48372" lon="6.76936">
        <ele>312</ele>
        <time>2015-08-02T07:38:06Z</time>
      </trkpt>
      <trkpt lat="47.48366" lon="6.76931">
        <ele>311</ele>
        <time>2015-08-02T07:38:07Z</time>
      </trkpt>
      <trkpt lat="47.48362" lon="6.76926">
        <ele>311</ele>
        <time>2015-08-02T07:38:08Z</time>
      </trkpt>
      <trkpt lat="47.48355" lon="6.76922">
        <ele>311</ele>
        <time>2015-08-02T07:38:08Z</time>
      </trkpt>
      <trkpt lat="47.4835" lon="6.76919">
        <ele>311</ele>
        <time>2015-08-02T07:38:09Z</time>
      </trkpt>
      <trkpt lat="47.48337" lon="6.76913">
        <ele>310</ele>
        <time>2015-08-02T07:38:10Z</time>
      </trkpt>
      <trkpt lat="47.48332" lon="6.76908">
        <ele>309</ele>
        <time>2015-08-02T07:38:11Z</time>
      </trkpt>
      <trkpt lat="47.48316" lon="6.76897">
        <ele>310</ele>
        <time>2015-08-02T07:38:13Z</time>
      </trkpt>
      <trkpt lat="47.48305" lon="6.76891">
        <ele>310</ele>
        <time>2015-08-02T07:38:13Z</time>
      </trkpt>
      <trkpt lat="47.483" lon="6.76887">
        <ele>310</ele>
        <time>2015-08-02T07:38:15Z</time>
      </trkpt>
      <trkpt lat="47.48296" lon="6.76882">
        <ele>310</ele>
        <time>2015-08-02T07:38:16Z</time>
      </trkpt>
      <trkpt lat="47.48291" lon="6.76877">
        <ele>310</ele>
        <time>2015-08-02T07:38:16Z</time>
      </trkpt>
      <trkpt lat="47.48287" lon="6.76871">
        <ele>310</ele>
        <time>2015-08-02T07:38:17Z</time>
      </trkpt>
      <trkpt lat="47.48283" lon="6.76865">
        <ele>310</ele>
        <time>2015-08-02T07:38:18Z</time>
      </trkpt>
      <trkpt lat="47.48279" lon="6.76858">
        <ele>310</ele>
        <time>2015-08-02T07:38:18Z</time>
      </trkpt>
      <trkpt lat="47.48274" lon="6.76852">
        <ele>310</ele>
        <time>2015-08-02T07:38:19Z</time>
      </trkpt>
      <trkpt lat="47.48271" lon="6.76846">
        <ele>311</ele>
        <time>2015-08-02T07:38:20Z</time>
      </trkpt>
      <trkpt lat="47.48266" lon="6.7684">
        <ele>311</ele>
        <time>2015-08-02T07:38:20Z</time>
      </trkpt>
      <trkpt lat="47.48262" lon="6.76834">
        <ele>311</ele>
        <time>2015-08-02T07:38:21Z</time>
      </trkpt>
      <trkpt lat="47.48258" lon="6.76829">
        <ele>312</ele>
        <time>2015-08-02T07:38:22Z</time>
      </trkpt>
      <trkpt lat="47.48254" lon="6.76822">
        <ele>312</ele>
        <time>2015-08-02T07:38:22Z</time>
      </trkpt>
      <trkpt lat="47.4825" lon="6.76816">
        <ele>312</ele>
        <time>2015-08-02T07:38:23Z</time>
      </trkpt>
      <trkpt lat="47.48246" lon="6.7681">
        <ele>312</ele>
        <time>2015-08-02T07:38:23Z</time>
      </trkpt>
      <trkpt lat="47.48241" lon="6.76806">
        <ele>312</ele>
        <time>2015-08-02T07:38:23Z</time>
      </trkpt>
      <trkpt lat="47.48235" lon="6.76803">
        <ele>312</ele>
        <time>2015-08-02T07:38:24Z</time>
      </trkpt>
      <trkpt lat="47.48229" lon="6.768">
        <ele>312</ele>
        <time>2015-08-02T07:38:26Z</time>
      </trkpt>
      <trkpt lat="47.48224" lon="6.76797">
        <ele>312</ele>
        <time>2015-08-02T07:38:26Z</time>
      </trkpt>
      <trkpt lat="47.48218" lon="6.76795">
        <ele>312</ele>
        <time>2015-08-02T07:38:27Z</time>
      </trkpt>
      <trkpt lat="47.48212" lon="6.76794">
        <ele>312</ele>
        <time>2015-08-02T07:38:28Z</time>
      </trkpt>
      <trkpt lat="47.48206" lon="6.76792">
        <ele>312</ele>
        <time>2015-08-02T07:38:28Z</time>
      </trkpt>
      <trkpt lat="47.48199" lon="6.76789">
        <ele>312</ele>
        <time>2015-08-02T07:38:30Z</time>
      </trkpt>
      <trkpt lat="47.48193" lon="6.76786">
        <ele>312</ele>
        <time>2015-08-02T07:38:31Z</time>
      </trkpt>
      <trkpt lat="47.48188" lon="6.76782">
        <ele>312</ele>
        <time>2015-08-02T07:38:31Z</time>
      </trkpt>
      <trkpt lat="47.48182" lon="6.76778">
        <ele>312</ele>
        <time>2015-08-02T07:38:32Z</time>
      </trkpt>
      <trkpt lat="47.48177" lon="6.76772">
        <ele>312</ele>
        <time>2015-08-02T07:38:33Z</time>
      </trkpt>
      <trkpt lat="47.48171" lon="6.76765">
        <ele>313</ele>
        <time>2015-08-02T07:38:33Z</time>
      </trkpt>
      <trkpt lat="47.48166" lon="6.76759">
        <ele>313</ele>
        <time>2015-08-02T07:38:33Z</time>
      </trkpt>
      <trkpt lat="47.48156" lon="6.76746">
        <ele>313</ele>
        <time>2015-08-02T07:38:34Z</time>
      </trkpt>
      <trkpt lat="47.48153" lon="6.76739">
        <ele>312</ele>
        <time>2015-08-02T07:38:35Z</time>
      </trkpt>
      <trkpt lat="47.48149" lon="6.76732">
        <ele>312</ele>
        <time>2015-08-02T07:38:36Z</time>
      </trkpt>
      <trkpt lat="47.48144" lon="6.76723">
        <ele>312</ele>
        <time>2015-08-02T07:38:36Z</time>
      </trkpt>
      <trkpt lat="47.48141" lon="6.76717">
        <ele>312</ele>
        <time>2015-08-02T07:38:37Z</time>
      </trkpt>
      <trkpt lat="47.48138" lon="6.76708">
        <ele>312</ele>
        <time>2015-08-02T07:38:38Z</time>
      </trkpt>
      <trkpt lat="47.48134" lon="6.767">
        <ele>312</ele>
        <time>2015-08-02T07:38:38Z</time>
      </trkpt>
      <trkpt lat="47.4813" lon="6.76692">
        <ele>312</ele>
        <time>2015-08-02T07:38:39Z</time>
      </trkpt>
      <trkpt lat="47.48123" lon="6.76678">
        <ele>312</ele>
        <time>2015-08-02T07:38:40Z</time>
      </trkpt>
      <trkpt lat="47.48119" lon="6.76671">
        <ele>312</ele>
        <time>2015-08-02T07:38:41Z</time>
      </trkpt>
      <trkpt lat="47.48116" lon="6.76667">
        <ele>312</ele>
        <time>2015-08-02T07:38:43Z</time>
      </trkpt>
      <trkpt lat="47.48112" lon="6.76659">
        <ele>312</ele>
        <time>2015-08-02T07:38:43Z</time>
      </trkpt>
      <trkpt lat="47.48108" lon="6.76653">
        <ele>312</ele>
        <time>2015-08-02T07:38:43Z</time>
      </trkpt>
      <trkpt lat="47.48106" lon="6.76647">
        <ele>312</ele>
        <time>2015-08-02T07:38:44Z</time>
      </trkpt>
      <trkpt lat="47.48103" lon="6.7664">
        <ele>313</ele>
        <time>2015-08-02T07:38:44Z</time>
      </trkpt>
      <trkpt lat="47.481" lon="6.76634">
        <ele>313</ele>
        <time>2015-08-02T07:38:46Z</time>
      </trkpt>
      <trkpt lat="47.48098" lon="6.76626">
        <ele>313</ele>
        <time>2015-08-02T07:38:47Z</time>
      </trkpt>
      <trkpt lat="47.48097" lon="6.76617">
        <ele>313</ele>
        <time>2015-08-02T07:38:47Z</time>
      </trkpt>
      <trkpt lat="47.48098" lon="6.76608">
        <ele>313</ele>
        <time>2015-08-02T07:38:48Z</time>
      </trkpt>
      <trkpt lat="47.48099" lon="6.76601">
        <ele>313</ele>
        <time>2015-08-02T07:38:49Z</time>
      </trkpt>
      <trkpt lat="47.48101" lon="6.76594">
        <ele>313</ele>
        <time>2015-08-02T07:38:49Z</time>
      </trkpt>
      <trkpt lat="47.48104" lon="6.76587">
        <ele>313</ele>
        <time>2015-08-02T07:38:50Z</time>
      </trkpt>
      <trkpt lat="47.48117" lon="6.76557">
        <ele>319</ele>
        <time>2015-08-02T07:38:53Z</time>
      </trkpt>
      <trkpt lat="47.48117" lon="6.7655">
        <ele>319</ele>
        <time>2015-08-02T07:38:53Z</time>
      </trkpt>
      <trkpt lat="47.4812" lon="6.76545">
        <ele>319</ele>
        <time>2015-08-02T07:38:54Z</time>
      </trkpt>
      <trkpt lat="47.48121" lon="6.76539">
        <ele>320</ele>
        <time>2015-08-02T07:38:55Z</time>
      </trkpt>
      <trkpt lat="47.48116" lon="6.76538">
        <ele>319</ele>
        <time>2015-08-02T07:38:55Z</time>
      </trkpt>
      <trkpt lat="47.48113" lon="6.76535">
        <ele>319</ele>
        <time>2015-08-02T07:38:57Z</time>
      </trkpt>
      <trkpt lat="47.4811" lon="6.76532">
        <ele>319</ele>
        <time>2015-08-02T07:38:58Z</time>
      </trkpt>
      <trkpt lat="47.48106" lon="6.76525">
        <ele>319</ele>
        <time>2015-08-02T07:38:58Z</time>
      </trkpt>
      <trkpt lat="47.48102" lon="6.76523">
        <ele>318</ele>
        <time>2015-08-02T07:38:59Z</time>
      </trkpt>
      <trkpt lat="47.48101" lon="6.76524">
        <ele>318</ele>
        <time>2015-08-02T07:39:00Z</time>
      </trkpt>
      <trkpt lat="47.48098" lon="6.76528">
        <ele>318</ele>
        <time>2015-08-02T07:39:01Z</time>
      </trkpt>
      <trkpt lat="47.48094" lon="6.76531">
        <ele>318</ele>
        <time>2015-08-02T07:39:02Z</time>
      </trkpt>
      <trkpt lat="47.48091" lon="6.76534">
        <ele>318</ele>
        <time>2015-08-02T07:39:02Z</time>
      </trkpt>
      <trkpt lat="47.48089" lon="6.76537">
        <ele>317</ele>
        <time>2015-08-02T07:39:03Z</time>
      </trkpt>
      <trkpt lat="47.48083" lon="6.76541">
        <ele>312</ele>
        <time>2015-08-02T07:39:03Z</time>
      </trkpt>
      <trkpt lat="47.48079" lon="6.76544">
        <ele>312</ele>
        <time>2015-08-02T07:39:03Z</time>
      </trkpt>
      <trkpt lat="47.48075" lon="6.76547">
        <ele>312</ele>
        <time>2015-08-02T07:39:04Z</time>
      </trkpt>
      <trkpt lat="47.48071" lon="6.7655">
        <ele>312</ele>
        <time>2015-08-02T07:39:05Z</time>
      </trkpt>
      <trkpt lat="47.48067" lon="6.76554">
        <ele>312</ele>
        <time>2015-08-02T07:39:05Z</time>
      </trkpt>
      <trkpt lat="47.48063" lon="6.76558">
        <ele>312</ele>
        <time>2015-08-02T07:39:06Z</time>
      </trkpt>
      <trkpt lat="47.48058" lon="6.76562">
        <ele>312</ele>
        <time>2015-08-02T07:39:07Z</time>
      </trkpt>
      <trkpt lat="47.48053" lon="6.76566">
        <ele>312</ele>
        <time>2015-08-02T07:39:07Z</time>
      </trkpt>
      <trkpt lat="47.48043" lon="6.76573">
        <ele>312</ele>
        <time>2015-08-02T07:39:09Z</time>
      </trkpt>
      <trkpt lat="47.48037" lon="6.76582">
        <ele>312</ele>
        <time>2015-08-02T07:39:11Z</time>
      </trkpt>
      <trkpt lat="47.48032" lon="6.76585">
        <ele>312</ele>
        <time>2015-08-02T07:39:13Z</time>
      </trkpt>
      <trkpt lat="47.4802" lon="6.76592">
        <ele>312</ele>
        <time>2015-08-02T07:39:13Z</time>
      </trkpt>
      <trkpt lat="47.48015" lon="6.76595">
        <ele>312</ele>
        <time>2015-08-02T07:39:14Z</time>
      </trkpt>
      <trkpt lat="47.48003" lon="6.766">
        <ele>312</ele>
        <time>2015-08-02T07:39:15Z</time>
      </trkpt>
      <trkpt lat="47.47999" lon="6.76603">
        <ele>312</ele>
        <time>2015-08-02T07:39:16Z</time>
      </trkpt>
      <trkpt lat="47.47994" lon="6.76605">
        <ele>312</ele>
        <time>2015-08-02T07:39:16Z</time>
      </trkpt>
      <trkpt lat="47.47988" lon="6.76609">
        <ele>312</ele>
        <time>2015-08-02T07:39:17Z</time>
      </trkpt>
      <trkpt lat="47.47984" lon="6.76609">
        <ele>311</ele>
        <time>2015-08-02T07:39:18Z</time>
      </trkpt>
      <trkpt lat="47.47979" lon="6.76609">
        <ele>311</ele>
        <time>2015-08-02T07:39:18Z</time>
      </trkpt>
      <trkpt lat="47.47974" lon="6.7661">
        <ele>311</ele>
        <time>2015-08-02T07:39:19Z</time>
      </trkpt>
      <trkpt lat="47.47969" lon="6.76612">
        <ele>311</ele>
        <time>2015-08-02T07:39:20Z</time>
      </trkpt>
      <trkpt lat="47.47964" lon="6.76615">
        <ele>311</ele>
        <time>2015-08-02T07:39:20Z</time>
      </trkpt>
      <trkpt lat="47.47959" lon="6.76618">
        <ele>311</ele>
        <time>2015-08-02T07:39:21Z</time>
      </trkpt>
      <trkpt lat="47.47954" lon="6.76619">
        <ele>311</ele>
        <time>2015-08-02T07:39:22Z</time>
      </trkpt>
      <trkpt lat="47.47949" lon="6.76622">
        <ele>311</ele>
        <time>2015-08-02T07:39:22Z</time>
      </trkpt>
      <trkpt lat="47.47943" lon="6.76626">
        <ele>311</ele>
        <time>2015-08-02T07:39:23Z</time>
      </trkpt>
      <trkpt lat="47.47932" lon="6.76633">
        <ele>311</ele>
        <time>2015-08-02T07:39:24Z</time>
      </trkpt>
      <trkpt lat="47.47926" lon="6.7664">
        <ele>311</ele>
        <time>2015-08-02T07:39:25Z</time>
      </trkpt>
      <trkpt lat="47.47919" lon="6.76644">
        <ele>311</ele>
        <time>2015-08-02T07:39:26Z</time>
      </trkpt>
      <trkpt lat="47.47914" lon="6.76649">
        <ele>310</ele>
        <time>2015-08-02T07:39:26Z</time>
      </trkpt>
      <trkpt lat="47.47907" lon="6.76654">
        <ele>310</ele>
        <time>2015-08-02T07:39:27Z</time>
      </trkpt>
      <trkpt lat="47.47901" lon="6.7666">
        <ele>310</ele>
        <time>2015-08-02T07:39:28Z</time>
      </trkpt>
      <trkpt lat="47.47895" lon="6.76668">
        <ele>310</ele>
        <time>2015-08-02T07:39:28Z</time>
      </trkpt>
      <trkpt lat="47.47891" lon="6.76677">
        <ele>310</ele>
        <time>2015-08-02T07:39:29Z</time>
      </trkpt>
      <trkpt lat="47.47886" lon="6.76686">
        <ele>310</ele>
        <time>2015-08-02T07:39:30Z</time>
      </trkpt>
      <trkpt lat="47.47882" lon="6.76695">
        <ele>310</ele>
        <time>2015-08-02T07:39:30Z</time>
      </trkpt>
      <trkpt lat="47.47878" lon="6.76703">
        <ele>310</ele>
        <time>2015-08-02T07:39:31Z</time>
      </trkpt>
      <trkpt lat="47.47876" lon="6.76712">
        <ele>310</ele>
        <time>2015-08-02T07:39:32Z</time>
      </trkpt>
      <trkpt lat="47.47869" lon="6.76728">
        <ele>310</ele>
        <time>2015-08-02T07:39:33Z</time>
      </trkpt>
      <trkpt lat="47.47866" lon="6.76735">
        <ele>310</ele>
        <time>2015-08-02T07:39:34Z</time>
      </trkpt>
      <trkpt lat="47.47863" lon="6.76742">
        <ele>310</ele>
        <time>2015-08-02T07:39:34Z</time>
      </trkpt>
      <trkpt lat="47.47859" lon="6.7675">
        <ele>310</ele>
        <time>2015-08-02T07:39:35Z</time>
      </trkpt>
      <trkpt lat="47.47857" lon="6.76756">
        <ele>311</ele>
        <time>2015-08-02T07:39:37Z</time>
      </trkpt>
      <trkpt lat="47.47854" lon="6.76763">
        <ele>311</ele>
        <time>2015-08-02T07:39:37Z</time>
      </trkpt>
      <trkpt lat="47.47851" lon="6.76771">
        <ele>311</ele>
        <time>2015-08-02T07:39:39Z</time>
      </trkpt>
      <trkpt lat="47.47846" lon="6.76786">
        <ele>311</ele>
        <time>2015-08-02T07:39:40Z</time>
      </trkpt>
      <trkpt lat="47.47843" lon="6.76792">
        <ele>311</ele>
        <time>2015-08-02T07:39:41Z</time>
      </trkpt>
      <trkpt lat="47.4784" lon="6.76799">
        <ele>311</ele>
        <time>2015-08-02T07:39:42Z</time>
      </trkpt>
      <trkpt lat="47.47836" lon="6.76804">
        <ele>311</ele>
        <time>2015-08-02T07:39:42Z</time>
      </trkpt>
      <trkpt lat="47.4783" lon="6.76807">
        <ele>310</ele>
        <time>2015-08-02T07:39:43Z</time>
      </trkpt>
      <trkpt lat="47.47824" lon="6.76809">
        <ele>310</ele>
        <time>2015-08-02T07:39:43Z</time>
      </trkpt>
      <trkpt lat="47.47818" lon="6.76809">
        <ele>310</ele>
        <time>2015-08-02T07:39:43Z</time>
      </trkpt>
      <trkpt lat="47.47813" lon="6.76808">
        <ele>310</ele>
        <time>2015-08-02T07:39:44Z</time>
      </trkpt>
      <trkpt lat="47.47802" lon="6.76806">
        <ele>310</ele>
        <time>2015-08-02T07:39:45Z</time>
      </trkpt>
      <trkpt lat="47.47796" lon="6.76806">
        <ele>310</ele>
        <time>2015-08-02T07:39:46Z</time>
      </trkpt>
      <trkpt lat="47.47791" lon="6.76802">
        <ele>311</ele>
        <time>2015-08-02T07:39:47Z</time>
      </trkpt>
      <trkpt lat="47.47786" lon="6.768">
        <ele>311</ele>
        <time>2015-08-02T07:39:47Z</time>
      </trkpt>
      <trkpt lat="47.47776" lon="6.76799">
        <ele>311</ele>
        <time>2015-08-02T07:39:49Z</time>
      </trkpt>
      <trkpt lat="47.4777" lon="6.76798">
        <ele>311</ele>
        <time>2015-08-02T07:39:49Z</time>
      </trkpt>
      <trkpt lat="47.47765" lon="6.76798">
        <ele>311</ele>
        <time>2015-08-02T07:39:50Z</time>
      </trkpt>
      <trkpt lat="47.47755" lon="6.76796">
        <ele>311</ele>
        <time>2015-08-02T07:39:52Z</time>
      </trkpt>
      <trkpt lat="47.47749" lon="6.76794">
        <ele>311</ele>
        <time>2015-08-02T07:39:53Z</time>
      </trkpt>
      <trkpt lat="47.47738" lon="6.76791">
        <ele>311</ele>
        <time>2015-08-02T07:39:53Z</time>
      </trkpt>
      <trkpt lat="47.47721" lon="6.76778">
        <ele>311</ele>
        <time>2015-08-02T07:39:55Z</time>
      </trkpt>
      <trkpt lat="47.47715" lon="6.76775">
        <ele>311</ele>
        <time>2015-08-02T07:39:56Z</time>
      </trkpt>
      <trkpt lat="47.47702" lon="6.76766">
        <ele>311</ele>
        <time>2015-08-02T07:39:57Z</time>
      </trkpt>
      <trkpt lat="47.4769" lon="6.76757">
        <ele>311</ele>
        <time>2015-08-02T07:40:00Z</time>
      </trkpt>
      <trkpt lat="47.47683" lon="6.76753">
        <ele>311</ele>
        <time>2015-08-02T07:40:00Z</time>
      </trkpt>
      <trkpt lat="47.47677" lon="6.76748">
        <ele>311</ele>
        <time>2015-08-02T07:40:01Z</time>
      </trkpt>
      <trkpt lat="47.47671" lon="6.76744">
        <ele>311</ele>
        <time>2015-08-02T07:40:02Z</time>
      </trkpt>
      <trkpt lat="47.47664" lon="6.76739">
        <ele>311</ele>
        <time>2015-08-02T07:40:02Z</time>
      </trkpt>
      <trkpt lat="47.47658" lon="6.76734">
        <ele>311</ele>
        <time>2015-08-02T07:40:03Z</time>
      </trkpt>
      <trkpt lat="47.47652" lon="6.7673">
        <ele>311</ele>
        <time>2015-08-02T07:40:03Z</time>
      </trkpt>
      <trkpt lat="47.4764" lon="6.76721">
        <ele>311</ele>
        <time>2015-08-02T07:40:04Z</time>
      </trkpt>
      <trkpt lat="47.47622" lon="6.76712">
        <ele>311</ele>
        <time>2015-08-02T07:40:07Z</time>
      </trkpt>
      <trkpt lat="47.47616" lon="6.76708">
        <ele>311</ele>
        <time>2015-08-02T07:40:08Z</time>
      </trkpt>
      <trkpt lat="47.47611" lon="6.76704">
        <ele>311</ele>
        <time>2015-08-02T07:40:08Z</time>
      </trkpt>
      <trkpt lat="47.47605" lon="6.76702">
        <ele>311</ele>
        <time>2015-08-02T07:40:09Z</time>
      </trkpt>
      <trkpt lat="47.47599" lon="6.76699">
        <ele>311</ele>
        <time>2015-08-02T07:40:10Z</time>
      </trkpt>
      <trkpt lat="47.47593" lon="6.76697">
        <ele>311</ele>
        <time>2015-08-02T07:40:10Z</time>
      </trkpt>
      <trkpt lat="47.47582" lon="6.7669">
        <ele>311</ele>
        <time>2015-08-02T07:40:12Z</time>
      </trkpt>
      <trkpt lat="47.47576" lon="6.76687">
        <ele>311</ele>
        <time>2015-08-02T07:40:12Z</time>
      </trkpt>
      <trkpt lat="47.47565" lon="6.7668">
        <ele>311</ele>
        <time>2015-08-02T07:40:13Z</time>
      </trkpt>
      <trkpt lat="47.47556" lon="6.76669">
        <ele>311</ele>
        <time>2015-08-02T07:40:14Z</time>
      </trkpt>
      <trkpt lat="47.47551" lon="6.76664">
        <ele>311</ele>
        <time>2015-08-02T07:40:15Z</time>
      </trkpt>
      <trkpt lat="47.47538" lon="6.76646">
        <ele>311</ele>
        <time>2015-08-02T07:40:17Z</time>
      </trkpt>
      <trkpt lat="47.47534" lon="6.76641">
        <ele>311</ele>
        <time>2015-08-02T07:40:17Z</time>
      </trkpt>
      <trkpt lat="47.47527" lon="6.76629">
        <ele>311</ele>
        <time>2015-08-02T07:40:21Z</time>
      </trkpt>
      <trkpt lat="47.47523" lon="6.76624">
        <ele>311</ele>
        <time>2015-08-02T07:40:21Z</time>
      </trkpt>
      <trkpt lat="47.47519" lon="6.76618">
        <ele>311</ele>
        <time>2015-08-02T07:40:23Z</time>
      </trkpt>
      <trkpt lat="47.47515" lon="6.76615">
        <ele>311</ele>
        <time>2015-08-02T07:40:23Z</time>
      </trkpt>
      <trkpt lat="47.47512" lon="6.76609">
        <ele>311</ele>
        <time>2015-08-02T07:40:23Z</time>
      </trkpt>
      <trkpt lat="47.47508" lon="6.76603">
        <ele>311</ele>
        <time>2015-08-02T07:40:24Z</time>
      </trkpt>
      <trkpt lat="47.47505" lon="6.76597">
        <ele>311</ele>
        <time>2015-08-02T07:40:25Z</time>
      </trkpt>
      <trkpt lat="47.47501" lon="6.76592">
        <ele>311</ele>
        <time>2015-08-02T07:40:25Z</time>
      </trkpt>
      <trkpt lat="47.47497" lon="6.76587">
        <ele>311</ele>
        <time>2015-08-02T07:40:26Z</time>
      </trkpt>
      <trkpt lat="47.47493" lon="6.76581">
        <ele>311</ele>
        <time>2015-08-02T07:40:27Z</time>
      </trkpt>
      <trkpt lat="47.47485" lon="6.7657">
        <ele>310</ele>
        <time>2015-08-02T07:40:28Z</time>
      </trkpt>
      <trkpt lat="47.47481" lon="6.76564">
        <ele>310</ele>
        <time>2015-08-02T07:40:29Z</time>
      </trkpt>
      <trkpt lat="47.47478" lon="6.76558">
        <ele>310</ele>
        <time>2015-08-02T07:40:29Z</time>
      </trkpt>
      <trkpt lat="47.47469" lon="6.76546">
        <ele>310</ele>
        <time>2015-08-02T07:40:31Z</time>
      </trkpt>
      <trkpt lat="47.47465" lon="6.7654">
        <ele>310</ele>
        <time>2015-08-02T07:40:31Z</time>
      </trkpt>
      <trkpt lat="47.47456" lon="6.76528">
        <ele>310</ele>
        <time>2015-08-02T07:40:33Z</time>
      </trkpt>
      <trkpt lat="47.47452" lon="6.76521">
        <ele>310</ele>
        <time>2015-08-02T07:40:33Z</time>
      </trkpt>
      <trkpt lat="47.47447" lon="6.76516">
        <ele>310</ele>
        <time>2015-08-02T07:40:34Z</time>
      </trkpt>
      <trkpt lat="47.47443" lon="6.7651">
        <ele>310</ele>
        <time>2015-08-02T07:40:35Z</time>
      </trkpt>
      <trkpt lat="47.47439" lon="6.76502">
        <ele>310</ele>
        <time>2015-08-02T07:40:35Z</time>
      </trkpt>
      <trkpt lat="47.47437" lon="6.76493">
        <ele>311</ele>
        <time>2015-08-02T07:40:36Z</time>
      </trkpt>
      <trkpt lat="47.47436" lon="6.76484">
        <ele>311</ele>
        <time>2015-08-02T07:40:37Z</time>
      </trkpt>
      <trkpt lat="47.47436" lon="6.76474">
        <ele>311</ele>
        <time>2015-08-02T07:40:37Z</time>
      </trkpt>
      <trkpt lat="47.47433" lon="6.76464">
        <ele>311</ele>
        <time>2015-08-02T07:40:38Z</time>
      </trkpt>
      <trkpt lat="47.4743" lon="6.76456">
        <ele>311</ele>
        <time>2015-08-02T07:40:39Z</time>
      </trkpt>
      <trkpt lat="47.47426" lon="6.76451">
        <ele>311</ele>
        <time>2015-08-02T07:40:39Z</time>
      </trkpt>
      <trkpt lat="47.47419" lon="6.76442">
        <ele>311</ele>
        <time>2015-08-02T07:40:41Z</time>
      </trkpt>
      <trkpt lat="47.47415" lon="6.76438">
        <ele>313</ele>
        <time>2015-08-02T07:40:41Z</time>
      </trkpt>
      <trkpt lat="47.47411" lon="6.76435">
        <ele>313</ele>
        <time>2015-08-02T07:40:42Z</time>
      </trkpt>
      <trkpt lat="47.47407" lon="6.76431">
        <ele>313</ele>
        <time>2015-08-02T07:40:43Z</time>
      </trkpt>
      <trkpt lat="47.47404" lon="6.76428">
        <ele>313</ele>
        <time>2015-08-02T07:40:43Z</time>
      </trkpt>
      <trkpt lat="47.47399" lon="6.76424">
        <ele>314</ele>
        <time>2015-08-02T07:40:45Z</time>
      </trkpt>
      <trkpt lat="47.47397" lon="6.76422">
        <ele>314</ele>
        <time>2015-08-02T07:40:45Z</time>
      </trkpt>
      <trkpt lat="47.47392" lon="6.76417">
        <ele>314</ele>
        <time>2015-08-02T07:40:48Z</time>
      </trkpt>
      <trkpt lat="47.47384" lon="6.76408">
        <ele>317</ele>
        <time>2015-08-02T07:40:50Z</time>
      </trkpt>
      <trkpt lat="47.47382" lon="6.76406">
        <ele>317</ele>
        <time>2015-08-02T07:40:51Z</time>
      </trkpt>
      <trkpt lat="47.47379" lon="6.764">
        <ele>317</ele>
        <time>2015-08-02T07:40:53Z</time>
      </trkpt>
      <trkpt lat="47.47379" lon="6.76398">
        <ele>317</ele>
        <time>2015-08-02T07:40:53Z</time>
      </trkpt>
      <trkpt lat="47.47382" lon="6.76393">
        <ele>317</ele>
        <time>2015-08-02T07:40:54Z</time>
      </trkpt>
      <trkpt lat="47.4739" lon="6.76378">
        <ele>318</ele>
        <time>2015-08-02T07:40:59Z</time>
      </trkpt>
      <trkpt lat="47.47392" lon="6.76373">
        <ele>318</ele>
        <time>2015-08-02T07:41:02Z</time>
      </trkpt>
      <trkpt lat="47.47393" lon="6.76371">
        <ele>318</ele>
        <time>2015-08-02T07:41:02Z</time>
      </trkpt>
      <trkpt lat="47.47397" lon="6.76366">
        <ele>318</ele>
        <time>2015-08-02T07:41:03Z</time>
      </trkpt>
      <trkpt lat="47.474" lon="6.76361">
        <ele>319</ele>
        <time>2015-08-02T07:41:05Z</time>
      </trkpt>
      <trkpt lat="47.47401" lon="6.76359">
        <ele>319</ele>
        <time>2015-08-02T07:41:05Z</time>
      </trkpt>
      <trkpt lat="47.47405" lon="6.76352">
        <ele>319</ele>
        <time>2015-08-02T07:41:10Z</time>
      </trkpt>
      <trkpt lat="47.47407" lon="6.76348">
        <ele>319</ele>
        <time>2015-08-02T07:41:11Z</time>
      </trkpt>
      <trkpt lat="47.47408" lon="6.76346">
        <ele>320</ele>
        <time>2015-08-02T07:41:12Z</time>
      </trkpt>
      <trkpt lat="47.4741" lon="6.76341">
        <ele>320</ele>
        <time>2015-08-02T07:41:13Z</time>
      </trkpt>
      <trkpt lat="47.47413" lon="6.76332">
        <ele>322</ele>
        <time>2015-08-02T07:41:15Z</time>
      </trkpt>
      <trkpt lat="47.47415" lon="6.76325">
        <ele>322</ele>
        <time>2015-08-02T07:41:17Z</time>
      </trkpt>
      <trkpt lat="47.47416" lon="6.76319">
        <ele>323</ele>
        <time>2015-08-02T07:41:18Z</time>
      </trkpt>
      <trkpt lat="47.47418" lon="6.7631">
        <ele>320</ele>
        <time>2015-08-02T07:41:20Z</time>
      </trkpt>
      <trkpt lat="47.47419" lon="6.76304">
        <ele>320</ele>
        <time>2015-08-02T07:41:21Z</time>
      </trkpt>
      <trkpt lat="47.4742" lon="6.76301">
        <ele>320</ele>
        <time>2015-08-02T07:41:22Z</time>
      </trkpt>
      <trkpt lat="47.47419" lon="6.76277">
        <ele>321</ele>
        <time>2015-08-02T07:41:26Z</time>
      </trkpt>
      <trkpt lat="47.4742" lon="6.76264">
        <ele>323</ele>
        <time>2015-08-02T07:41:30Z</time>
      </trkpt>
      <trkpt lat="47.47416" lon="6.76252">
        <ele>327</ele>
        <time>2015-08-02T07:41:33Z</time>
      </trkpt>
      <trkpt lat="47.47414" lon="6.76242">
        <ele>328</ele>
        <time>2015-08-02T07:41:35Z</time>
      </trkpt>
      <trkpt lat="47.47412" lon="6.76233">
        <ele>328</ele>
        <time>2015-08-02T07:41:37Z</time>
      </trkpt>
      <trkpt lat="47.4741" lon="6.76228">
        <ele>328</ele>
        <time>2015-08-02T07:41:38Z</time>
      </trkpt>
      <trkpt lat="47.47409" lon="6.76225">
        <ele>329</ele>
        <time>2015-08-02T07:41:39Z</time>
      </trkpt>
      <trkpt lat="47.47407" lon="6.76223">
        <ele>329</ele>
        <time>2015-08-02T07:41:39Z</time>
      </trkpt>
      <trkpt lat="47.47405" lon="6.76221">
        <ele>329</ele>
        <time>2015-08-02T07:41:40Z</time>
      </trkpt>
      <trkpt lat="47.47401" lon="6.76218">
        <ele>329</ele>
        <time>2015-08-02T07:41:41Z</time>
      </trkpt>
      <trkpt lat="47.47394" lon="6.76214">
        <ele>329</ele>
        <time>2015-08-02T07:41:43Z</time>
      </trkpt>
      <trkpt lat="47.47386" lon="6.76211">
        <ele>329</ele>
        <time>2015-08-02T07:41:45Z</time>
      </trkpt>
      <trkpt lat="47.47383" lon="6.76207">
        <ele>330</ele>
        <time>2015-08-02T07:41:47Z</time>
      </trkpt>
      <trkpt lat="47.47382" lon="6.76204">
        <ele>330</ele>
        <time>2015-08-02T07:41:47Z</time>
      </trkpt>
      <trkpt lat="47.47381" lon="6.76196">
        <ele>330</ele>
        <time>2015-08-02T07:41:49Z</time>
      </trkpt>
      <trkpt lat="47.4738" lon="6.76192">
        <ele>330</ele>
        <time>2015-08-02T07:41:49Z</time>
      </trkpt>
      <trkpt lat="47.47378" lon="6.76188">
        <ele>330</ele>
        <time>2015-08-02T07:41:50Z</time>
      </trkpt>
      <trkpt lat="47.47377" lon="6.76184">
        <ele>330</ele>
        <time>2015-08-02T07:41:51Z</time>
      </trkpt>
      <trkpt lat="47.47375" lon="6.76181">
        <ele>330</ele>
        <time>2015-08-02T07:41:51Z</time>
      </trkpt>
      <trkpt lat="47.47371" lon="6.76175">
        <ele>330</ele>
        <time>2015-08-02T07:41:53Z</time>
      </trkpt>
      <trkpt lat="47.47367" lon="6.7617">
        <ele>331</ele>
        <time>2015-08-02T07:41:54Z</time>
      </trkpt>
      <trkpt lat="47.47364" lon="6.76168">
        <ele>331</ele>
        <time>2015-08-02T07:41:57Z</time>
      </trkpt>
      <trkpt lat="47.47362" lon="6.76165">
        <ele>332</ele>
        <time>2015-08-02T07:41:57Z</time>
      </trkpt>
      <trkpt lat="47.47359" lon="6.76162">
        <ele>332</ele>
        <time>2015-08-02T07:41:58Z</time>
      </trkpt>
      <trkpt lat="47.47353" lon="6.76153">
        <ele>332</ele>
        <time>2015-08-02T07:42:00Z</time>
      </trkpt>
      <trkpt lat="47.47351" lon="6.76151">
        <ele>332</ele>
        <time>2015-08-02T07:42:01Z</time>
      </trkpt>
      <trkpt lat="47.4735" lon="6.76146">
        <ele>332</ele>
        <time>2015-08-02T07:42:01Z</time>
      </trkpt>
      <trkpt lat="47.47344" lon="6.76139">
        <ele>332</ele>
        <time>2015-08-02T07:42:03Z</time>
      </trkpt>
      <trkpt lat="47.47342" lon="6.76136">
        <ele>332</ele>
        <time>2015-08-02T07:42:03Z</time>
      </trkpt>
      <trkpt lat="47.47339" lon="6.76133">
        <ele>332</ele>
        <time>2015-08-02T07:42:03Z</time>
      </trkpt>
      <trkpt lat="47.47335" lon="6.76127">
        <ele>332</ele>
        <time>2015-08-02T07:42:04Z</time>
      </trkpt>
      <trkpt lat="47.47329" lon="6.76118">
        <ele>336</ele>
        <time>2015-08-02T07:42:06Z</time>
      </trkpt>
      <trkpt lat="47.47323" lon="6.76112">
        <ele>336</ele>
        <time>2015-08-02T07:42:08Z</time>
      </trkpt>
      <trkpt lat="47.47315" lon="6.76102">
        <ele>336</ele>
        <time>2015-08-02T07:42:11Z</time>
      </trkpt>
      <trkpt lat="47.47305" lon="6.76086">
        <ele>336</ele>
        <time>2015-08-02T07:42:13Z</time>
      </trkpt>
      <trkpt lat="47.47298" lon="6.76078">
        <ele>337</ele>
        <time>2015-08-02T07:42:14Z</time>
      </trkpt>
      <trkpt lat="47.47289" lon="6.76067">
        <ele>336</ele>
        <time>2015-08-02T07:42:16Z</time>
      </trkpt>
      <trkpt lat="47.47285" lon="6.76064">
        <ele>336</ele>
        <time>2015-08-02T07:42:16Z</time>
      </trkpt>
      <trkpt lat="47.47281" lon="6.76061">
        <ele>336</ele>
        <time>2015-08-02T07:42:18Z</time>
      </trkpt>
      <trkpt lat="47.47277" lon="6.76058">
        <ele>336</ele>
        <time>2015-08-02T07:42:19Z</time>
      </trkpt>
      <trkpt lat="47.47273" lon="6.76057">
        <ele>336</ele>
        <time>2015-08-02T07:42:19Z</time>
      </trkpt>
      <trkpt lat="47.47267" lon="6.76057">
        <ele>336</ele>
        <time>2015-08-02T07:42:20Z</time>
      </trkpt>
      <trkpt lat="47.47263" lon="6.76054">
        <ele>336</ele>
        <time>2015-08-02T07:42:21Z</time>
      </trkpt>
      <trkpt lat="47.47259" lon="6.76053">
        <ele>336</ele>
        <time>2015-08-02T07:42:21Z</time>
      </trkpt>
      <trkpt lat="47.47254" lon="6.76051">
        <ele>336</ele>
        <time>2015-08-02T07:42:22Z</time>
      </trkpt>
      <trkpt lat="47.4725" lon="6.76049">
        <ele>336</ele>
        <time>2015-08-02T07:42:23Z</time>
      </trkpt>
      <trkpt lat="47.47245" lon="6.76048">
        <ele>336</ele>
        <time>2015-08-02T07:42:23Z</time>
      </trkpt>
      <trkpt lat="47.47235" lon="6.76045">
        <ele>336</ele>
        <time>2015-08-02T07:42:25Z</time>
      </trkpt>
      <trkpt lat="47.47231" lon="6.76043">
        <ele>336</ele>
        <time>2015-08-02T07:42:25Z</time>
      </trkpt>
      <trkpt lat="47.47221" lon="6.76039">
        <ele>336</ele>
        <time>2015-08-02T07:42:27Z</time>
      </trkpt>
      <trkpt lat="47.47212" lon="6.76035">
        <ele>336</ele>
        <time>2015-08-02T07:42:28Z</time>
      </trkpt>
      <trkpt lat="47.47207" lon="6.76032">
        <ele>336</ele>
        <time>2015-08-02T07:42:29Z</time>
      </trkpt>
      <trkpt lat="47.47196" lon="6.76029">
        <ele>336</ele>
        <time>2015-08-02T07:42:30Z</time>
      </trkpt>
      <trkpt lat="47.4719" lon="6.76028">
        <ele>336</ele>
        <time>2015-08-02T07:42:31Z</time>
      </trkpt>
      <trkpt lat="47.47184" lon="6.76024">
        <ele>336</ele>
        <time>2015-08-02T07:42:31Z</time>
      </trkpt>
      <trkpt lat="47.47179" lon="6.76023">
        <ele>336</ele>
        <time>2015-08-02T07:42:32Z</time>
      </trkpt>
      <trkpt lat="47.47173" lon="6.7602">
        <ele>337</ele>
        <time>2015-08-02T07:42:33Z</time>
      </trkpt>
      <trkpt lat="47.47166" lon="6.7602">
        <ele>336</ele>
        <time>2015-08-02T07:42:33Z</time>
      </trkpt>
      <trkpt lat="47.47155" lon="6.76016">
        <ele>336</ele>
        <time>2015-08-02T07:42:34Z</time>
      </trkpt>
      <trkpt lat="47.47143" lon="6.76012">
        <ele>336</ele>
        <time>2015-08-02T07:42:35Z</time>
      </trkpt>
      <trkpt lat="47.47137" lon="6.76011">
        <ele>336</ele>
        <time>2015-08-02T07:42:37Z</time>
      </trkpt>
      <trkpt lat="47.47126" lon="6.76008">
        <ele>336</ele>
        <time>2015-08-02T07:42:39Z</time>
      </trkpt>
      <trkpt lat="47.47121" lon="6.76007">
        <ele>336</ele>
        <time>2015-08-02T07:42:40Z</time>
      </trkpt>
      <trkpt lat="47.47112" lon="6.76004">
        <ele>336</ele>
        <time>2015-08-02T07:42:41Z</time>
      </trkpt>
      <trkpt lat="47.47107" lon="6.76003">
        <ele>336</ele>
        <time>2015-08-02T07:42:42Z</time>
      </trkpt>
      <trkpt lat="47.47099" lon="6.75999">
        <ele>337</ele>
        <time>2015-08-02T07:42:43Z</time>
      </trkpt>
      <trkpt lat="47.47095" lon="6.75999">
        <ele>337</ele>
        <time>2015-08-02T07:42:44Z</time>
      </trkpt>
      <trkpt lat="47.47091" lon="6.76">
        <ele>337</ele>
        <time>2015-08-02T07:42:44Z</time>
      </trkpt>
      <trkpt lat="47.47089" lon="6.76002">
        <ele>337</ele>
        <time>2015-08-02T07:42:45Z</time>
      </trkpt>
      <trkpt lat="47.47088" lon="6.76006">
        <ele>337</ele>
        <time>2015-08-02T07:42:46Z</time>
      </trkpt>
      <trkpt lat="47.47087" lon="6.76011">
        <ele>337</ele>
        <time>2015-08-02T07:42:46Z</time>
      </trkpt>
      <trkpt lat="47.47088" lon="6.76018">
        <ele>336</ele>
        <time>2015-08-02T07:42:47Z</time>
      </trkpt>
      <trkpt lat="47.47086" lon="6.76057">
        <ele>335</ele>
        <time>2015-08-02T07:42:50Z</time>
      </trkpt>
      <trkpt lat="47.47086" lon="6.76065">
        <ele>335</ele>
        <time>2015-08-02T07:42:52Z</time>
      </trkpt>
      <trkpt lat="47.47087" lon="6.76073">
        <ele>335</ele>
        <time>2015-08-02T07:42:53Z</time>
      </trkpt>
      <trkpt lat="47.47087" lon="6.76082">
        <ele>334</ele>
        <time>2015-08-02T07:42:53Z</time>
      </trkpt>
      <trkpt lat="47.47087" lon="6.7609">
        <ele>334</ele>
        <time>2015-08-02T07:42:53Z</time>
      </trkpt>
      <trkpt lat="47.47087" lon="6.76098">
        <ele>333</ele>
        <time>2015-08-02T07:42:54Z</time>
      </trkpt>
      <trkpt lat="47.47086" lon="6.76105">
        <ele>333</ele>
        <time>2015-08-02T07:42:54Z</time>
      </trkpt>
      <trkpt lat="47.47085" lon="6.76111">
        <ele>333</ele>
        <time>2015-08-02T07:42:55Z</time>
      </trkpt>
      <trkpt lat="47.47082" lon="6.76117">
        <ele>331</ele>
        <time>2015-08-02T07:42:56Z</time>
      </trkpt>
      <trkpt lat="47.47076" lon="6.76117">
        <ele>331</ele>
        <time>2015-08-02T07:42:56Z</time>
      </trkpt>
      <trkpt lat="47.47071" lon="6.76116">
        <ele>331</ele>
        <time>2015-08-02T07:42:57Z</time>
      </trkpt>
      <trkpt lat="47.47062" lon="6.76111">
        <ele>331</ele>
        <time>2015-08-02T07:42:58Z</time>
      </trkpt>
      <trkpt lat="47.47057" lon="6.76109">
        <ele>331</ele>
        <time>2015-08-02T07:42:59Z</time>
      </trkpt>
      <trkpt lat="47.47052" lon="6.76107">
        <ele>331</ele>
        <time>2015-08-02T07:43:00Z</time>
      </trkpt>
      <trkpt lat="47.47048" lon="6.76104">
        <ele>331</ele>
        <time>2015-08-02T07:43:00Z</time>
      </trkpt>
      <trkpt lat="47.47029" lon="6.76093">
        <ele>332</ele>
        <time>2015-08-02T07:43:03Z</time>
      </trkpt>
      <trkpt lat="47.47025" lon="6.7609">
        <ele>332</ele>
        <time>2015-08-02T07:43:05Z</time>
      </trkpt>
      <trkpt lat="47.4702" lon="6.76088">
        <ele>332</ele>
        <time>2015-08-02T07:43:05Z</time>
      </trkpt>
      <trkpt lat="47.4701" lon="6.76084">
        <ele>333</ele>
        <time>2015-08-02T07:43:07Z</time>
      </trkpt>
      <trkpt lat="47.47005" lon="6.76081">
        <ele>334</ele>
        <time>2015-08-02T07:43:07Z</time>
      </trkpt>
      <trkpt lat="47.47" lon="6.76079">
        <ele>334</ele>
        <time>2015-08-02T07:43:08Z</time>
      </trkpt>
      <trkpt lat="47.46995" lon="6.76078">
        <ele>334</ele>
        <time>2015-08-02T07:43:09Z</time>
      </trkpt>
      <trkpt lat="47.46991" lon="6.76074">
        <ele>334</ele>
        <time>2015-08-02T07:43:09Z</time>
      </trkpt>
      <trkpt lat="47.46986" lon="6.76072">
        <ele>334</ele>
        <time>2015-08-02T07:43:10Z</time>
      </trkpt>
      <trkpt lat="47.46981" lon="6.7607">
        <ele>334</ele>
        <time>2015-08-02T07:43:11Z</time>
      </trkpt>
      <trkpt lat="47.46975" lon="6.76067">
        <ele>334</ele>
        <time>2015-08-02T07:43:11Z</time>
      </trkpt>
      <trkpt lat="47.46955" lon="6.76055">
        <ele>334</ele>
        <time>2015-08-02T07:43:13Z</time>
      </trkpt>
      <trkpt lat="47.4695" lon="6.76052">
        <ele>334</ele>
        <time>2015-08-02T07:43:14Z</time>
      </trkpt>
      <trkpt lat="47.46944" lon="6.76049">
        <ele>334</ele>
        <time>2015-08-02T07:43:14Z</time>
      </trkpt>
      <trkpt lat="47.4694" lon="6.76046">
        <ele>334</ele>
        <time>2015-08-02T07:43:15Z</time>
      </trkpt>
      <trkpt lat="47.46934" lon="6.76043">
        <ele>334</ele>
        <time>2015-08-02T07:43:16Z</time>
      </trkpt>
      <trkpt lat="47.46929" lon="6.76041">
        <ele>334</ele>
        <time>2015-08-02T07:43:16Z</time>
      </trkpt>
      <trkpt lat="47.46923" lon="6.76039">
        <ele>334</ele>
        <time>2015-08-02T07:43:17Z</time>
      </trkpt>
      <trkpt lat="47.46919" lon="6.76034">
        <ele>334</ele>
        <time>2015-08-02T07:43:19Z</time>
      </trkpt>
      <trkpt lat="47.4691" lon="6.76027">
        <ele>332</ele>
        <time>2015-08-02T07:43:20Z</time>
      </trkpt>
      <trkpt lat="47.46906" lon="6.76025">
        <ele>332</ele>
        <time>2015-08-02T07:43:21Z</time>
      </trkpt>
      <trkpt lat="47.46902" lon="6.76021">
        <ele>332</ele>
        <time>2015-08-02T07:43:21Z</time>
      </trkpt>
      <trkpt lat="47.46898" lon="6.76019">
        <ele>332</ele>
        <time>2015-08-02T07:43:22Z</time>
      </trkpt>
      <trkpt lat="47.46894" lon="6.76017">
        <ele>332</ele>
        <time>2015-08-02T07:43:23Z</time>
      </trkpt>
      <trkpt lat="47.46889" lon="6.76016">
        <ele>332</ele>
        <time>2015-08-02T07:43:23Z</time>
      </trkpt>
      <trkpt lat="47.46884" lon="6.76013">
        <ele>332</ele>
        <time>2015-08-02T07:43:24Z</time>
      </trkpt>
      <trkpt lat="47.46879" lon="6.7601">
        <ele>332</ele>
        <time>2015-08-02T07:43:25Z</time>
      </trkpt>
      <trkpt lat="47.46874" lon="6.76009">
        <ele>332</ele>
        <time>2015-08-02T07:43:25Z</time>
      </trkpt>
      <trkpt lat="47.4687" lon="6.76006">
        <ele>332</ele>
        <time>2015-08-02T07:43:26Z</time>
      </trkpt>
      <trkpt lat="47.46866" lon="6.76003">
        <ele>332</ele>
        <time>2015-08-02T07:43:27Z</time>
      </trkpt>
      <trkpt lat="47.46858" lon="6.76">
        <ele>335</ele>
        <time>2015-08-02T07:43:28Z</time>
      </trkpt>
      <trkpt lat="47.46853" lon="6.76">
        <ele>332</ele>
        <time>2015-08-02T07:43:29Z</time>
      </trkpt>
      <trkpt lat="47.46849" lon="6.76003">
        <ele>332</ele>
        <time>2015-08-02T07:43:29Z</time>
      </trkpt>
      <trkpt lat="47.46845" lon="6.76006">
        <ele>332</ele>
        <time>2015-08-02T07:43:31Z</time>
      </trkpt>
      <trkpt lat="47.46841" lon="6.76009">
        <ele>332</ele>
        <time>2015-08-02T07:43:32Z</time>
      </trkpt>
      <trkpt lat="47.46834" lon="6.76015">
        <ele>332</ele>
        <time>2015-08-02T07:43:33Z</time>
      </trkpt>
      <trkpt lat="47.46818" lon="6.76019">
        <ele>332</ele>
        <time>2015-08-02T07:43:34Z</time>
      </trkpt>
      <trkpt lat="47.46813" lon="6.76019">
        <ele>331</ele>
        <time>2015-08-02T07:43:35Z</time>
      </trkpt>
      <trkpt lat="47.46801" lon="6.76022">
        <ele>331</ele>
        <time>2015-08-02T07:43:36Z</time>
      </trkpt>
      <trkpt lat="47.46797" lon="6.76027">
        <ele>331</ele>
        <time>2015-08-02T07:43:37Z</time>
      </trkpt>
      <trkpt lat="47.46793" lon="6.76031">
        <ele>331</ele>
        <time>2015-08-02T07:43:38Z</time>
      </trkpt>
      <trkpt lat="47.46787" lon="6.76032">
        <ele>331</ele>
        <time>2015-08-02T07:43:38Z</time>
      </trkpt>
      <trkpt lat="47.46783" lon="6.76031">
        <ele>331</ele>
        <time>2015-08-02T07:43:39Z</time>
      </trkpt>
      <trkpt lat="47.46778" lon="6.7603">
        <ele>331</ele>
        <time>2015-08-02T07:43:40Z</time>
      </trkpt>
      <trkpt lat="47.46771" lon="6.76024">
        <ele>332</ele>
        <time>2015-08-02T07:43:41Z</time>
      </trkpt>
      <trkpt lat="47.46769" lon="6.7602">
        <ele>332</ele>
        <time>2015-08-02T07:43:42Z</time>
      </trkpt>
      <trkpt lat="47.46767" lon="6.76016">
        <ele>332</ele>
        <time>2015-08-02T07:43:42Z</time>
      </trkpt>
      <trkpt lat="47.46763" lon="6.76011">
        <ele>333</ele>
        <time>2015-08-02T07:43:43Z</time>
      </trkpt>
      <trkpt lat="47.4676" lon="6.7601">
        <ele>333</ele>
        <time>2015-08-02T07:43:43Z</time>
      </trkpt>
      <trkpt lat="47.46757" lon="6.7601">
        <ele>333</ele>
        <time>2015-08-02T07:43:44Z</time>
      </trkpt>
      <trkpt lat="47.46754" lon="6.76009">
        <ele>334</ele>
        <time>2015-08-02T07:43:46Z</time>
      </trkpt>
      <trkpt lat="47.46752" lon="6.7601">
        <ele>334</ele>
        <time>2015-08-02T07:43:46Z</time>
      </trkpt>
      <trkpt lat="47.46747" lon="6.76012">
        <ele>336</ele>
        <time>2015-08-02T07:43:48Z</time>
      </trkpt>
      <trkpt lat="47.46743" lon="6.76015">
        <ele>336</ele>
        <time>2015-08-02T07:43:49Z</time>
      </trkpt>
      <trkpt lat="47.46738" lon="6.76017">
        <ele>337</ele>
        <time>2015-08-02T07:43:51Z</time>
      </trkpt>
      <trkpt lat="47.46736" lon="6.76017">
        <ele>337</ele>
        <time>2015-08-02T07:43:52Z</time>
      </trkpt>
      <trkpt lat="47.46724" lon="6.76017">
        <ele>337</ele>
        <time>2015-08-02T07:43:54Z</time>
      </trkpt>
      <trkpt lat="47.46719" lon="6.76017">
        <ele>338</ele>
        <time>2015-08-02T07:43:55Z</time>
      </trkpt>
      <trkpt lat="47.46714" lon="6.76017">
        <ele>338</ele>
        <time>2015-08-02T07:43:56Z</time>
      </trkpt>
      <trkpt lat="47.46711" lon="6.76016">
        <ele>339</ele>
        <time>2015-08-02T07:43:57Z</time>
      </trkpt>
      <trkpt lat="47.46708" lon="6.76014">
        <ele>339</ele>
        <time>2015-08-02T07:43:58Z</time>
      </trkpt>
      <trkpt lat="47.46707" lon="6.76012">
        <ele>339</ele>
        <time>2015-08-02T07:43:59Z</time>
      </trkpt>
      <trkpt lat="47.46707" lon="6.76009">
        <ele>339</ele>
        <time>2015-08-02T07:44:01Z</time>
      </trkpt>
      <trkpt lat="47.46707" lon="6.76005">
        <ele>339</ele>
        <time>2015-08-02T07:44:01Z</time>
      </trkpt>
      <trkpt lat="47.46708" lon="6.75996">
        <ele>343</ele>
        <time>2015-08-02T07:44:03Z</time>
      </trkpt>
      <trkpt lat="47.46708" lon="6.75992">
        <ele>344</ele>
        <time>2015-08-02T07:44:03Z</time>
      </trkpt>
      <trkpt lat="47.46708" lon="6.75981">
        <ele>344</ele>
        <time>2015-08-02T07:44:04Z</time>
      </trkpt>
      <trkpt lat="47.46708" lon="6.75976">
        <ele>344</ele>
        <time>2015-08-02T07:44:05Z</time>
      </trkpt>
      <trkpt lat="47.46706" lon="6.75959">
        <ele>344</ele>
        <time>2015-08-02T07:44:07Z</time>
      </trkpt>
      <trkpt lat="47.46705" lon="6.75936">
        <ele>345</ele>
        <time>2015-08-02T07:44:11Z</time>
      </trkpt>
      <trkpt lat="47.46704" lon="6.75926">
        <ele>346</ele>
        <time>2015-08-02T07:44:13Z</time>
      </trkpt>
      <trkpt lat="47.46702" lon="6.7591">
        <ele>349</ele>
        <time>2015-08-02T07:44:15Z</time>
      </trkpt>
      <trkpt lat="47.46702" lon="6.75905">
        <ele>349</ele>
        <time>2015-08-02T07:44:15Z</time>
      </trkpt>
      <trkpt lat="47.46701" lon="6.75901">
        <ele>349</ele>
        <time>2015-08-02T07:44:16Z</time>
      </trkpt>
      <trkpt lat="47.46698" lon="6.75891">
        <ele>350</ele>
        <time>2015-08-02T07:44:20Z</time>
      </trkpt>
      <trkpt lat="47.46697" lon="6.75886">
        <ele>350</ele>
        <time>2015-08-02T07:44:21Z</time>
      </trkpt>
      <trkpt lat="47.46697" lon="6.75882">
        <ele>350</ele>
        <time>2015-08-02T07:44:22Z</time>
      </trkpt>
      <trkpt lat="47.46697" lon="6.75873">
        <ele>350</ele>
        <time>2015-08-02T07:44:23Z</time>
      </trkpt>
      <trkpt lat="47.46697" lon="6.75864">
        <ele>350</ele>
        <time>2015-08-02T07:44:23Z</time>
      </trkpt>
      <trkpt lat="47.46697" lon="6.75858">
        <ele>351</ele>
        <time>2015-08-02T07:44:24Z</time>
      </trkpt>
      <trkpt lat="47.46695" lon="6.75845">
        <ele>352</ele>
        <time>2015-08-02T07:44:25Z</time>
      </trkpt>
      <trkpt lat="47.46694" lon="6.75838">
        <ele>352</ele>
        <time>2015-08-02T07:44:26Z</time>
      </trkpt>
      <trkpt lat="47.46693" lon="6.75833">
        <ele>354</ele>
        <time>2015-08-02T07:44:28Z</time>
      </trkpt>
      <trkpt lat="47.46693" lon="6.75825">
        <ele>354</ele>
        <time>2015-08-02T07:44:29Z</time>
      </trkpt>
      <trkpt lat="47.46692" lon="6.75819">
        <ele>354</ele>
        <time>2015-08-02T07:44:30Z</time>
      </trkpt>
      <trkpt lat="47.46689" lon="6.75803">
        <ele>354</ele>
        <time>2015-08-02T07:44:33Z</time>
      </trkpt>
      <trkpt lat="47.46688" lon="6.75801">
        <ele>354</ele>
        <time>2015-08-02T07:44:33Z</time>
      </trkpt>
      <trkpt lat="47.46687" lon="6.75798">
        <ele>354</ele>
        <time>2015-08-02T07:44:34Z</time>
      </trkpt>
      <trkpt lat="47.46685" lon="6.75791">
        <ele>355</ele>
        <time>2015-08-02T07:44:35Z</time>
      </trkpt>
      <trkpt lat="47.46682" lon="6.75781">
        <ele>355</ele>
        <time>2015-08-02T07:44:38Z</time>
      </trkpt>
      <trkpt lat="47.46679" lon="6.75768">
        <ele>357</ele>
        <time>2015-08-02T07:44:40Z</time>
      </trkpt>
      <trkpt lat="47.46678" lon="6.75764">
        <ele>357</ele>
        <time>2015-08-02T07:44:40Z</time>
      </trkpt>
      <trkpt lat="47.46676" lon="6.75757">
        <ele>359</ele>
        <time>2015-08-02T07:44:43Z</time>
      </trkpt>
      <trkpt lat="47.46674" lon="6.75753">
        <ele>359</ele>
        <time>2015-08-02T07:44:43Z</time>
      </trkpt>
      <trkpt lat="47.46673" lon="6.7575">
        <ele>360</ele>
        <time>2015-08-02T07:44:43Z</time>
      </trkpt>
      <trkpt lat="47.46671" lon="6.75748">
        <ele>360</ele>
        <time>2015-08-02T07:44:44Z</time>
      </trkpt>
      <trkpt lat="47.46667" lon="6.75742">
        <ele>360</ele>
        <time>2015-08-02T07:44:45Z</time>
      </trkpt>
      <trkpt lat="47.46664" lon="6.75737">
        <ele>364</ele>
        <time>2015-08-02T07:44:46Z</time>
      </trkpt>
      <trkpt lat="47.46659" lon="6.7573">
        <ele>365</ele>
        <time>2015-08-02T07:44:48Z</time>
      </trkpt>
      <trkpt lat="47.46657" lon="6.75728">
        <ele>365</ele>
        <time>2015-08-02T07:44:49Z</time>
      </trkpt>
      <trkpt lat="47.46654" lon="6.75721">
        <ele>365</ele>
        <time>2015-08-02T07:44:50Z</time>
      </trkpt>
      <trkpt lat="47.46652" lon="6.75718">
        <ele>365</ele>
        <time>2015-08-02T07:44:51Z</time>
      </trkpt>
      <trkpt lat="47.46651" lon="6.75712">
        <ele>365</ele>
        <time>2015-08-02T07:44:52Z</time>
      </trkpt>
      <trkpt lat="47.46651" lon="6.75708">
        <ele>365</ele>
        <time>2015-08-02T07:44:53Z</time>
      </trkpt>
      <trkpt lat="47.4665" lon="6.75694">
        <ele>365</ele>
        <time>2015-08-02T07:44:56Z</time>
      </trkpt>
      <trkpt lat="47.4665" lon="6.7569">
        <ele>365</ele>
        <time>2015-08-02T07:44:57Z</time>
      </trkpt>
      <trkpt lat="47.46651" lon="6.75682">
        <ele>364</ele>
        <time>2015-08-02T07:44:58Z</time>
      </trkpt>
      <trkpt lat="47.46652" lon="6.75678">
        <ele>364</ele>
        <time>2015-08-02T07:44:59Z</time>
      </trkpt>
      <trkpt lat="47.46652" lon="6.75672">
        <ele>364</ele>
        <time>2015-08-02T07:44:59Z</time>
      </trkpt>
      <trkpt lat="47.46653" lon="6.75667">
        <ele>363</ele>
        <time>2015-08-02T07:45:00Z</time>
      </trkpt>
      <trkpt lat="47.46652" lon="6.75656">
        <ele>365</ele>
        <time>2015-08-02T07:45:01Z</time>
      </trkpt>
      <trkpt lat="47.46652" lon="6.75652">
        <ele>365</ele>
        <time>2015-08-02T07:45:02Z</time>
      </trkpt>
      <trkpt lat="47.46651" lon="6.7564">
        <ele>366</ele>
        <time>2015-08-02T07:45:03Z</time>
      </trkpt>
      <trkpt lat="47.46651" lon="6.75633">
        <ele>366</ele>
        <time>2015-08-02T07:45:03Z</time>
      </trkpt>
      <trkpt lat="47.46651" lon="6.75626">
        <ele>366</ele>
        <time>2015-08-02T07:45:05Z</time>
      </trkpt>
      <trkpt lat="47.46653" lon="6.75605">
        <ele>364</ele>
        <time>2015-08-02T07:45:07Z</time>
      </trkpt>
      <trkpt lat="47.46654" lon="6.75592">
        <ele>362</ele>
        <time>2015-08-02T07:45:10Z</time>
      </trkpt>
      <trkpt lat="47.46655" lon="6.75585">
        <ele>361</ele>
        <time>2015-08-02T07:45:10Z</time>
      </trkpt>
      <trkpt lat="47.46657" lon="6.75571">
        <ele>364</ele>
        <time>2015-08-02T07:45:12Z</time>
      </trkpt>
      <trkpt lat="47.46658" lon="6.75565">
        <ele>365</ele>
        <time>2015-08-02T07:45:12Z</time>
      </trkpt>
      <trkpt lat="47.46661" lon="6.75537">
        <ele>369</ele>
        <time>2015-08-02T07:45:14Z</time>
      </trkpt>
      <trkpt lat="47.46662" lon="6.75532">
        <ele>369</ele>
        <time>2015-08-02T07:45:15Z</time>
      </trkpt>
      <trkpt lat="47.46662" lon="6.75527">
        <ele>369</ele>
        <time>2015-08-02T07:45:15Z</time>
      </trkpt>
      <trkpt lat="47.46666" lon="6.75508">
        <ele>366</ele>
        <time>2015-08-02T07:45:18Z</time>
      </trkpt>
      <trkpt lat="47.46667" lon="6.75502">
        <ele>363</ele>
        <time>2015-08-02T07:45:19Z</time>
      </trkpt>
      <trkpt lat="47.46668" lon="6.75496">
        <ele>363</ele>
        <time>2015-08-02T07:45:19Z</time>
      </trkpt>
      <trkpt lat="47.4667" lon="6.75484">
        <ele>361</ele>
        <time>2015-08-02T07:45:21Z</time>
      </trkpt>
      <trkpt lat="47.46671" lon="6.75478">
        <ele>361</ele>
        <time>2015-08-02T07:45:21Z</time>
      </trkpt>
      <trkpt lat="47.46673" lon="6.75466">
        <ele>361</ele>
        <time>2015-08-02T07:45:24Z</time>
      </trkpt>
      <trkpt lat="47.46674" lon="6.75459">
        <ele>362</ele>
        <time>2015-08-02T07:45:24Z</time>
      </trkpt>
      <trkpt lat="47.46675" lon="6.75452">
        <ele>362</ele>
        <time>2015-08-02T07:45:25Z</time>
      </trkpt>
      <trkpt lat="47.46679" lon="6.75438">
        <ele>364</ele>
        <time>2015-08-02T07:45:26Z</time>
      </trkpt>
      <trkpt lat="47.46682" lon="6.75431">
        <ele>365</ele>
        <time>2015-08-02T07:45:27Z</time>
      </trkpt>
      <trkpt lat="47.46688" lon="6.75418">
        <ele>365</ele>
        <time>2015-08-02T07:45:28Z</time>
      </trkpt>
      <trkpt lat="47.46689" lon="6.7541">
        <ele>368</ele>
        <time>2015-08-02T07:45:28Z</time>
      </trkpt>
      <trkpt lat="47.4669" lon="6.75404">
        <ele>368</ele>
        <time>2015-08-02T07:45:29Z</time>
      </trkpt>
      <trkpt lat="47.46692" lon="6.75398">
        <ele>367</ele>
        <time>2015-08-02T07:45:30Z</time>
      </trkpt>
      <trkpt lat="47.46694" lon="6.75395">
        <ele>366</ele>
        <time>2015-08-02T07:45:30Z</time>
      </trkpt>
      <trkpt lat="47.46694" lon="6.7539">
        <ele>366</ele>
        <time>2015-08-02T07:45:32Z</time>
      </trkpt>
      <trkpt lat="47.46695" lon="6.75388">
        <ele>366</ele>
        <time>2015-08-02T07:45:32Z</time>
      </trkpt>
      <trkpt lat="47.46696" lon="6.75382">
        <ele>366</ele>
        <time>2015-08-02T07:45:33Z</time>
      </trkpt>
      <trkpt lat="47.46696" lon="6.75379">
        <ele>366</ele>
        <time>2015-08-02T07:45:33Z</time>
      </trkpt>
      <trkpt lat="47.46696" lon="6.75374">
        <ele>366</ele>
        <time>2015-08-02T07:45:35Z</time>
      </trkpt>
      <trkpt lat="47.46696" lon="6.75371">
        <ele>366</ele>
        <time>2015-08-02T07:45:35Z</time>
      </trkpt>
      <trkpt lat="47.46697" lon="6.75368">
        <ele>366</ele>
        <time>2015-08-02T07:45:37Z</time>
      </trkpt>
      <trkpt lat="47.46699" lon="6.75364">
        <ele>366</ele>
        <time>2015-08-02T07:45:38Z</time>
      </trkpt>
      <trkpt lat="47.46705" lon="6.7535">
        <ele>365</ele>
        <time>2015-08-02T07:45:41Z</time>
      </trkpt>
      <trkpt lat="47.46705" lon="6.75349">
        <ele>365</ele>
        <time>2015-08-02T07:45:42Z</time>
      </trkpt>
      <trkpt lat="47.46704" lon="6.75344">
        <ele>366</ele>
        <time>2015-08-02T07:45:43Z</time>
      </trkpt>
      <trkpt lat="47.46703" lon="6.75342">
        <ele>366</ele>
        <time>2015-08-02T07:45:44Z</time>
      </trkpt>
      <trkpt lat="47.467" lon="6.75336">
        <ele>367</ele>
        <time>2015-08-02T07:45:46Z</time>
      </trkpt>
      <trkpt lat="47.46699" lon="6.75332">
        <ele>369</ele>
        <time>2015-08-02T07:45:47Z</time>
      </trkpt>
      <trkpt lat="47.46699" lon="6.75329">
        <ele>369</ele>
        <time>2015-08-02T07:45:48Z</time>
      </trkpt>
      <trkpt lat="47.46699" lon="6.75323">
        <ele>369</ele>
        <time>2015-08-02T07:45:49Z</time>
      </trkpt>
      <trkpt lat="47.46698" lon="6.75321">
        <ele>369</ele>
        <time>2015-08-02T07:45:51Z</time>
      </trkpt>
      <trkpt lat="47.46699" lon="6.75316">
        <ele>368</ele>
        <time>2015-08-02T07:45:53Z</time>
      </trkpt>
      <trkpt lat="47.46699" lon="6.75313">
        <ele>368</ele>
        <time>2015-08-02T07:45:53Z</time>
      </trkpt>
      <trkpt lat="47.46701" lon="6.75309">
        <ele>368</ele>
        <time>2015-08-02T07:45:54Z</time>
      </trkpt>
      <trkpt lat="47.46701" lon="6.75306">
        <ele>367</ele>
        <time>2015-08-02T07:45:55Z</time>
      </trkpt>
      <trkpt lat="47.46701" lon="6.75303">
        <ele>367</ele>
        <time>2015-08-02T07:45:55Z</time>
      </trkpt>
      <trkpt lat="47.467" lon="6.75296">
        <ele>367</ele>
        <time>2015-08-02T07:45:57Z</time>
      </trkpt>
      <trkpt lat="47.467" lon="6.75287">
        <ele>367</ele>
        <time>2015-08-02T07:45:58Z</time>
      </trkpt>
      <trkpt lat="47.467" lon="6.75283">
        <ele>367</ele>
        <time>2015-08-02T07:45:59Z</time>
      </trkpt>
      <trkpt lat="47.46701" lon="6.75276">
        <ele>367</ele>
        <time>2015-08-02T07:46:00Z</time>
      </trkpt>
      <trkpt lat="47.46702" lon="6.75269">
        <ele>367</ele>
        <time>2015-08-02T07:46:03Z</time>
      </trkpt>
      <trkpt lat="47.46702" lon="6.75257">
        <ele>367</ele>
        <time>2015-08-02T07:46:05Z</time>
      </trkpt>
      <trkpt lat="47.46703" lon="6.7525">
        <ele>367</ele>
        <time>2015-08-02T07:46:07Z</time>
      </trkpt>
      <trkpt lat="47.46703" lon="6.75248">
        <ele>367</ele>
        <time>2015-08-02T07:46:07Z</time>
      </trkpt>
      <trkpt lat="47.46701" lon="6.75241">
        <ele>367</ele>
        <time>2015-08-02T07:46:10Z</time>
      </trkpt>
      <trkpt lat="47.46701" lon="6.75235">
        <ele>367</ele>
        <time>2015-08-02T07:46:13Z</time>
      </trkpt>
      <trkpt lat="47.46701" lon="6.75233">
        <ele>367</ele>
        <time>2015-08-02T07:46:13Z</time>
      </trkpt>
      <trkpt lat="47.46701" lon="6.7522">
        <ele>367</ele>
        <time>2015-08-02T07:46:15Z</time>
      </trkpt>
      <trkpt lat="47.46701" lon="6.75216">
        <ele>367</ele>
        <time>2015-08-02T07:46:16Z</time>
      </trkpt>
      <trkpt lat="47.467" lon="6.75203">
        <ele>367</ele>
        <time>2015-08-02T07:46:19Z</time>
      </trkpt>
      <trkpt lat="47.46699" lon="6.75177">
        <ele>368</ele>
        <time>2015-08-02T07:46:23Z</time>
      </trkpt>
      <trkpt lat="47.46698" lon="6.75163">
        <ele>369</ele>
        <time>2015-08-02T07:46:26Z</time>
      </trkpt>
      <trkpt lat="47.46698" lon="6.75158">
        <ele>369</ele>
        <time>2015-08-02T07:46:26Z</time>
      </trkpt>
      <trkpt lat="47.467" lon="6.75147">
        <ele>368</ele>
        <time>2015-08-02T07:46:28Z</time>
      </trkpt>
      <trkpt lat="47.46703" lon="6.75135">
        <ele>367</ele>
        <time>2015-08-02T07:46:29Z</time>
      </trkpt>
      <trkpt lat="47.46704" lon="6.7513">
        <ele>367</ele>
        <time>2015-08-02T07:46:30Z</time>
      </trkpt>
      <trkpt lat="47.46706" lon="6.75121">
        <ele>367</ele>
        <time>2015-08-02T07:46:31Z</time>
      </trkpt>
      <trkpt lat="47.46707" lon="6.75112">
        <ele>367</ele>
        <time>2015-08-02T07:46:33Z</time>
      </trkpt>
      <trkpt lat="47.46707" lon="6.75107">
        <ele>367</ele>
        <time>2015-08-02T07:46:33Z</time>
      </trkpt>
      <trkpt lat="47.46707" lon="6.75101">
        <ele>367</ele>
        <time>2015-08-02T07:46:34Z</time>
      </trkpt>
      <trkpt lat="47.46706" lon="6.75094">
        <ele>367</ele>
        <time>2015-08-02T07:46:37Z</time>
      </trkpt>
      <trkpt lat="47.46703" lon="6.75085">
        <ele>368</ele>
        <time>2015-08-02T07:46:41Z</time>
      </trkpt>
      <trkpt lat="47.467" lon="6.75082">
        <ele>366</ele>
        <time>2015-08-02T07:46:46Z</time>
      </trkpt>
      <trkpt lat="47.46699" lon="6.7508">
        <ele>367</ele>
        <time>2015-08-02T07:46:47Z</time>
      </trkpt>
      <trkpt lat="47.46698" lon="6.75074">
        <ele>367</ele>
        <time>2015-08-02T07:46:49Z</time>
      </trkpt>
      <trkpt lat="47.46698" lon="6.75068">
        <ele>366</ele>
        <time>2015-08-02T07:46:51Z</time>
      </trkpt>
      <trkpt lat="47.46698" lon="6.75066">
        <ele>366</ele>
        <time>2015-08-02T07:46:52Z</time>
      </trkpt>
      <trkpt lat="47.46697" lon="6.7506">
        <ele>366</ele>
        <time>2015-08-02T07:46:53Z</time>
      </trkpt>
      <trkpt lat="47.46696" lon="6.75058">
        <ele>366</ele>
        <time>2015-08-02T07:46:54Z</time>
      </trkpt>
      <trkpt lat="47.46697" lon="6.75053">
        <ele>366</ele>
        <time>2015-08-02T07:46:56Z</time>
      </trkpt>
      <trkpt lat="47.46697" lon="6.75049">
        <ele>365</ele>
        <time>2015-08-02T07:46:57Z</time>
      </trkpt>
      <trkpt lat="47.46697" lon="6.75044">
        <ele>365</ele>
        <time>2015-08-02T07:46:57Z</time>
      </trkpt>
      <trkpt lat="47.46697" lon="6.7504">
        <ele>365</ele>
        <time>2015-08-02T07:46:58Z</time>
      </trkpt>
      <trkpt lat="47.46696" lon="6.75036">
        <ele>365</ele>
        <time>2015-08-02T07:47:00Z</time>
      </trkpt>
      <trkpt lat="47.46695" lon="6.75032">
        <ele>365</ele>
        <time>2015-08-02T07:47:00Z</time>
      </trkpt>
      <trkpt lat="47.46691" lon="6.75021">
        <ele>366</ele>
        <time>2015-08-02T07:47:02Z</time>
      </trkpt>
      <trkpt lat="47.46689" lon="6.75014">
        <ele>366</ele>
        <time>2015-08-02T07:47:03Z</time>
      </trkpt>
      <trkpt lat="47.46689" lon="6.7501">
        <ele>366</ele>
        <time>2015-08-02T07:47:03Z</time>
      </trkpt>
      <trkpt lat="47.46685" lon="6.74996">
        <ele>365</ele>
        <time>2015-08-02T07:47:05Z</time>
      </trkpt>
      <trkpt lat="47.46683" lon="6.74992">
        <ele>365</ele>
        <time>2015-08-02T07:47:06Z</time>
      </trkpt>
      <trkpt lat="47.46682" lon="6.74987">
        <ele>365</ele>
        <time>2015-08-02T07:47:07Z</time>
      </trkpt>
      <trkpt lat="47.4668" lon="6.74983">
        <ele>365</ele>
        <time>2015-08-02T07:47:07Z</time>
      </trkpt>
      <trkpt lat="47.4668" lon="6.74978">
        <ele>364</ele>
        <time>2015-08-02T07:47:08Z</time>
      </trkpt>
      <trkpt lat="47.46679" lon="6.74972">
        <ele>364</ele>
        <time>2015-08-02T07:47:09Z</time>
      </trkpt>
      <trkpt lat="47.46676" lon="6.74963">
        <ele>363</ele>
        <time>2015-08-02T07:47:10Z</time>
      </trkpt>
      <trkpt lat="47.46669" lon="6.74952">
        <ele>363</ele>
        <time>2015-08-02T07:47:14Z</time>
      </trkpt>
      <trkpt lat="47.46668" lon="6.74949">
        <ele>363</ele>
        <time>2015-08-02T07:47:14Z</time>
      </trkpt>
      <trkpt lat="47.46665" lon="6.7494">
        <ele>370</ele>
        <time>2015-08-02T07:47:16Z</time>
      </trkpt>
      <trkpt lat="47.46661" lon="6.74926">
        <ele>368</ele>
        <time>2015-08-02T07:47:18Z</time>
      </trkpt>
      <trkpt lat="47.46656" lon="6.74908">
        <ele>367</ele>
        <time>2015-08-02T07:47:20Z</time>
      </trkpt>
      <trkpt lat="47.46649" lon="6.74885">
        <ele>369</ele>
        <time>2015-08-02T07:47:23Z</time>
      </trkpt>
      <trkpt lat="47.46644" lon="6.74874">
        <ele>369</ele>
        <time>2015-08-02T07:47:25Z</time>
      </trkpt>
      <trkpt lat="47.46641" lon="6.74863">
        <ele>369</ele>
        <time>2015-08-02T07:47:29Z</time>
      </trkpt>
      <trkpt lat="47.4664" lon="6.7486">
        <ele>369</ele>
        <time>2015-08-02T07:47:30Z</time>
      </trkpt>
      <trkpt lat="47.46636" lon="6.74854">
        <ele>369</ele>
        <time>2015-08-02T07:47:32Z</time>
      </trkpt>
      <trkpt lat="47.46632" lon="6.74842">
        <ele>369</ele>
        <time>2015-08-02T07:47:34Z</time>
      </trkpt>
      <trkpt lat="47.46631" lon="6.7484">
        <ele>369</ele>
        <time>2015-08-02T07:47:35Z</time>
      </trkpt>
      <trkpt lat="47.46628" lon="6.74838">
        <ele>369</ele>
        <time>2015-08-02T07:47:36Z</time>
      </trkpt>
      <trkpt lat="47.46626" lon="6.74838">
        <ele>370</ele>
        <time>2015-08-02T07:47:37Z</time>
      </trkpt>
      <trkpt lat="47.46621" lon="6.7484">
        <ele>370</ele>
        <time>2015-08-02T07:47:39Z</time>
      </trkpt>
      <trkpt lat="47.46613" lon="6.74841">
        <ele>371</ele>
        <time>2015-08-02T07:47:44Z</time>
      </trkpt>
      <trkpt lat="47.46607" lon="6.74841">
        <ele>371</ele>
        <time>2015-08-02T07:47:46Z</time>
      </trkpt>
      <trkpt lat="47.46606" lon="6.74841">
        <ele>371</ele>
        <time>2015-08-02T07:47:47Z</time>
      </trkpt>
      <trkpt lat="47.46601" lon="6.74842">
        <ele>372</ele>
        <time>2015-08-02T07:47:49Z</time>
      </trkpt>
      <trkpt lat="47.46595" lon="6.74842">
        <ele>372</ele>
        <time>2015-08-02T07:47:51Z</time>
      </trkpt>
      <trkpt lat="47.4659" lon="6.74842">
        <ele>373</ele>
        <time>2015-08-02T07:47:53Z</time>
      </trkpt>
      <trkpt lat="47.46586" lon="6.74842">
        <ele>373</ele>
        <time>2015-08-02T07:47:55Z</time>
      </trkpt>
      <trkpt lat="47.46585" lon="6.74842">
        <ele>373</ele>
        <time>2015-08-02T07:47:55Z</time>
      </trkpt>
      <trkpt lat="47.46581" lon="6.74841">
        <ele>376</ele>
        <time>2015-08-02T07:47:58Z</time>
      </trkpt>
      <trkpt lat="47.46575" lon="6.7484">
        <ele>376</ele>
        <time>2015-08-02T07:48:01Z</time>
      </trkpt>
      <trkpt lat="47.46573" lon="6.7484">
        <ele>376</ele>
        <time>2015-08-02T07:48:02Z</time>
      </trkpt>
      <trkpt lat="47.46563" lon="6.74837">
        <ele>378</ele>
        <time>2015-08-02T07:48:06Z</time>
      </trkpt>
      <trkpt lat="47.4656" lon="6.74837">
        <ele>378</ele>
        <time>2015-08-02T07:48:07Z</time>
      </trkpt>
      <trkpt lat="47.46554" lon="6.74839">
        <ele>379</ele>
        <time>2015-08-02T07:48:10Z</time>
      </trkpt>
      <trkpt lat="47.46548" lon="6.7484">
        <ele>379</ele>
        <time>2015-08-02T07:48:12Z</time>
      </trkpt>
      <trkpt lat="47.46547" lon="6.7484">
        <ele>379</ele>
        <time>2015-08-02T07:48:13Z</time>
      </trkpt>
      <trkpt lat="47.46542" lon="6.7484">
        <ele>380</ele>
        <time>2015-08-02T07:48:16Z</time>
      </trkpt>
      <trkpt lat="47.46536" lon="6.74841">
        <ele>380</ele>
        <time>2015-08-02T07:48:19Z</time>
      </trkpt>
      <trkpt lat="47.46528" lon="6.7484">
        <ele>381</ele>
        <time>2015-08-02T07:48:23Z</time>
      </trkpt>
      <trkpt lat="47.46525" lon="6.7484">
        <ele>381</ele>
        <time>2015-08-02T07:48:23Z</time>
      </trkpt>
      <trkpt lat="47.4652" lon="6.7484">
        <ele>381</ele>
        <time>2015-08-02T07:48:24Z</time>
      </trkpt>
      <trkpt lat="47.46517" lon="6.7484">
        <ele>382</ele>
        <time>2015-08-02T07:48:25Z</time>
      </trkpt>
      <trkpt lat="47.46512" lon="6.74839">
        <ele>382</ele>
        <time>2015-08-02T07:48:26Z</time>
      </trkpt>
      <trkpt lat="47.46503" lon="6.74837">
        <ele>383</ele>
        <time>2015-08-02T07:48:30Z</time>
      </trkpt>
      <trkpt lat="47.465" lon="6.74836">
        <ele>383</ele>
        <time>2015-08-02T07:48:31Z</time>
      </trkpt>
      <trkpt lat="47.46498" lon="6.74836">
        <ele>384</ele>
        <time>2015-08-02T07:48:32Z</time>
      </trkpt>
      <trkpt lat="47.46494" lon="6.74838">
        <ele>385</ele>
        <time>2015-08-02T07:48:33Z</time>
      </trkpt>
      <trkpt lat="47.46492" lon="6.74838">
        <ele>385</ele>
        <time>2015-08-02T07:48:33Z</time>
      </trkpt>
      <trkpt lat="47.46488" lon="6.74836">
        <ele>386</ele>
        <time>2015-08-02T07:48:36Z</time>
      </trkpt>
      <trkpt lat="47.4648" lon="6.74833">
        <ele>382</ele>
        <time>2015-08-02T07:48:39Z</time>
      </trkpt>
      <trkpt lat="47.46476" lon="6.74831">
        <ele>382</ele>
        <time>2015-08-02T07:48:40Z</time>
      </trkpt>
      <trkpt lat="47.46475" lon="6.74831">
        <ele>382</ele>
        <time>2015-08-02T07:48:41Z</time>
      </trkpt>
      <trkpt lat="47.4647" lon="6.74829">
        <ele>382</ele>
        <time>2015-08-02T07:48:43Z</time>
      </trkpt>
      <trkpt lat="47.46469" lon="6.74828">
        <ele>382</ele>
        <time>2015-08-02T07:48:43Z</time>
      </trkpt>
      <trkpt lat="47.46464" lon="6.74827">
        <ele>383</ele>
        <time>2015-08-02T07:48:45Z</time>
      </trkpt>
      <trkpt lat="47.4646" lon="6.74828">
        <ele>383</ele>
        <time>2015-08-02T07:48:47Z</time>
      </trkpt>
      <trkpt lat="47.46454" lon="6.74829">
        <ele>384</ele>
        <time>2015-08-02T07:48:49Z</time>
      </trkpt>
      <trkpt lat="47.46452" lon="6.74829">
        <ele>384</ele>
        <time>2015-08-02T07:48:49Z</time>
      </trkpt>
      <trkpt lat="47.46447" lon="6.74829">
        <ele>384</ele>
        <time>2015-08-02T07:48:52Z</time>
      </trkpt>
      <trkpt lat="47.46445" lon="6.74829">
        <ele>385</ele>
        <time>2015-08-02T07:48:52Z</time>
      </trkpt>
      <trkpt lat="47.4644" lon="6.7483">
        <ele>385</ele>
        <time>2015-08-02T07:48:53Z</time>
      </trkpt>
      <trkpt lat="47.46433" lon="6.74833">
        <ele>387</ele>
        <time>2015-08-02T07:48:55Z</time>
      </trkpt>
      <trkpt lat="47.46431" lon="6.74834">
        <ele>391</ele>
        <time>2015-08-02T07:48:56Z</time>
      </trkpt>
      <trkpt lat="47.46426" lon="6.74835">
        <ele>391</ele>
        <time>2015-08-02T07:48:57Z</time>
      </trkpt>
      <trkpt lat="47.46423" lon="6.74835">
        <ele>391</ele>
        <time>2015-08-02T07:48:58Z</time>
      </trkpt>
      <trkpt lat="47.46418" lon="6.74835">
        <ele>392</ele>
        <time>2015-08-02T07:48:59Z</time>
      </trkpt>
      <trkpt lat="47.46415" lon="6.74835">
        <ele>392</ele>
        <time>2015-08-02T07:49:00Z</time>
      </trkpt>
      <trkpt lat="47.46409" lon="6.74836">
        <ele>393</ele>
        <time>2015-08-02T07:49:03Z</time>
      </trkpt>
      <trkpt lat="47.46404" lon="6.74837">
        <ele>393</ele>
        <time>2015-08-02T07:49:04Z</time>
      </trkpt>
      <trkpt lat="47.46398" lon="6.74838">
        <ele>394</ele>
        <time>2015-08-02T07:49:06Z</time>
      </trkpt>
      <trkpt lat="47.46394" lon="6.74839">
        <ele>394</ele>
        <time>2015-08-02T07:49:07Z</time>
      </trkpt>
      <trkpt lat="47.46384" lon="6.74842">
        <ele>394</ele>
        <time>2015-08-02T07:49:10Z</time>
      </trkpt>
      <trkpt lat="47.4638" lon="6.74843">
        <ele>394</ele>
        <time>2015-08-02T07:49:11Z</time>
      </trkpt>
      <trkpt lat="47.46375" lon="6.74845">
        <ele>395</ele>
        <time>2015-08-02T07:49:12Z</time>
      </trkpt>
      <trkpt lat="47.46373" lon="6.74845">
        <ele>395</ele>
        <time>2015-08-02T07:49:13Z</time>
      </trkpt>
      <trkpt lat="47.46367" lon="6.74846">
        <ele>395</ele>
        <time>2015-08-02T07:49:15Z</time>
      </trkpt>
      <trkpt lat="47.46361" lon="6.74846">
        <ele>395</ele>
        <time>2015-08-02T07:49:18Z</time>
      </trkpt>
      <trkpt lat="47.46356" lon="6.74845">
        <ele>395</ele>
        <time>2015-08-02T07:49:19Z</time>
      </trkpt>
      <trkpt lat="47.4635" lon="6.74844">
        <ele>395</ele>
        <time>2015-08-02T07:49:21Z</time>
      </trkpt>
      <trkpt lat="47.46348" lon="6.74844">
        <ele>395</ele>
        <time>2015-08-02T07:49:21Z</time>
      </trkpt>
      <trkpt lat="47.46342" lon="6.74842">
        <ele>394</ele>
        <time>2015-08-02T07:49:23Z</time>
      </trkpt>
      <trkpt lat="47.46337" lon="6.7484">
        <ele>394</ele>
        <time>2015-08-02T07:49:23Z</time>
      </trkpt>
      <trkpt lat="47.46329" lon="6.74838">
        <ele>395</ele>
        <time>2015-08-02T07:49:25Z</time>
      </trkpt>
      <trkpt lat="47.46324" lon="6.74837">
        <ele>395</ele>
        <time>2015-08-02T07:49:26Z</time>
      </trkpt>
      <trkpt lat="47.46322" lon="6.74837">
        <ele>395</ele>
        <time>2015-08-02T07:49:28Z</time>
      </trkpt>
      <trkpt lat="47.46319" lon="6.74836">
        <ele>396</ele>
        <time>2015-08-02T07:49:29Z</time>
      </trkpt>
      <trkpt lat="47.46316" lon="6.74837">
        <ele>396</ele>
        <time>2015-08-02T07:49:29Z</time>
      </trkpt>
      <trkpt lat="47.46311" lon="6.74838">
        <ele>396</ele>
        <time>2015-08-02T07:49:32Z</time>
      </trkpt>
      <trkpt lat="47.46307" lon="6.74837">
        <ele>397</ele>
        <time>2015-08-02T07:49:33Z</time>
      </trkpt>
      <trkpt lat="47.46296" lon="6.74834">
        <ele>397</ele>
        <time>2015-08-02T07:49:35Z</time>
      </trkpt>
      <trkpt lat="47.46291" lon="6.74833">
        <ele>394</ele>
        <time>2015-08-02T07:49:36Z</time>
      </trkpt>
      <trkpt lat="47.46284" lon="6.74831">
        <ele>394</ele>
        <time>2015-08-02T07:49:38Z</time>
      </trkpt>
      <trkpt lat="47.46273" lon="6.74831">
        <ele>395</ele>
        <time>2015-08-02T07:49:41Z</time>
      </trkpt>
      <trkpt lat="47.46263" lon="6.74829">
        <ele>396</ele>
        <time>2015-08-02T07:49:43Z</time>
      </trkpt>
      <trkpt lat="47.46257" lon="6.74826">
        <ele>397</ele>
        <time>2015-08-02T07:49:45Z</time>
      </trkpt>
      <trkpt lat="47.46248" lon="6.74825">
        <ele>398</ele>
        <time>2015-08-02T07:49:49Z</time>
      </trkpt>
      <trkpt lat="47.46237" lon="6.74825">
        <ele>397</ele>
        <time>2015-08-02T07:49:52Z</time>
      </trkpt>
      <trkpt lat="47.46221" lon="6.74825">
        <ele>397</ele>
        <time>2015-08-02T07:49:55Z</time>
      </trkpt>
      <trkpt lat="47.46218" lon="6.74825">
        <ele>397</ele>
        <time>2015-08-02T07:49:56Z</time>
      </trkpt>
      <trkpt lat="47.46213" lon="6.74823">
        <ele>396</ele>
        <time>2015-08-02T07:49:57Z</time>
      </trkpt>
      <trkpt lat="47.46209" lon="6.74825">
        <ele>397</ele>
        <time>2015-08-02T07:50:00Z</time>
      </trkpt>
      <trkpt lat="47.46207" lon="6.74827">
        <ele>397</ele>
        <time>2015-08-02T07:50:02Z</time>
      </trkpt>
      <trkpt lat="47.46205" lon="6.74829">
        <ele>397</ele>
        <time>2015-08-02T07:50:03Z</time>
      </trkpt>
      <trkpt lat="47.46202" lon="6.7483">
        <ele>397</ele>
        <time>2015-08-02T07:50:03Z</time>
      </trkpt>
      <trkpt lat="47.46197" lon="6.74832">
        <ele>397</ele>
        <time>2015-08-02T07:50:04Z</time>
      </trkpt>
      <trkpt lat="47.46194" lon="6.74832">
        <ele>397</ele>
        <time>2015-08-02T07:50:04Z</time>
      </trkpt>
      <trkpt lat="47.4619" lon="6.74832">
        <ele>397</ele>
        <time>2015-08-02T07:50:05Z</time>
      </trkpt>
      <trkpt lat="47.46187" lon="6.74832">
        <ele>397</ele>
        <time>2015-08-02T07:50:06Z</time>
      </trkpt>
      <trkpt lat="47.4618" lon="6.7483">
        <ele>398</ele>
        <time>2015-08-02T07:50:07Z</time>
      </trkpt>
      <trkpt lat="47.46166" lon="6.74829">
        <ele>399</ele>
        <time>2015-08-02T07:50:10Z</time>
      </trkpt>
      <trkpt lat="47.46163" lon="6.74828">
        <ele>399</ele>
        <time>2015-08-02T07:50:10Z</time>
      </trkpt>
      <trkpt lat="47.46153" lon="6.74824">
        <ele>399</ele>
        <time>2015-08-02T07:50:13Z</time>
      </trkpt>
      <trkpt lat="47.46149" lon="6.74823">
        <ele>399</ele>
        <time>2015-08-02T07:50:14Z</time>
      </trkpt>
      <trkpt lat="47.46142" lon="6.74821">
        <ele>399</ele>
        <time>2015-08-02T07:50:15Z</time>
      </trkpt>
      <trkpt lat="47.46135" lon="6.7482">
        <ele>399</ele>
        <time>2015-08-02T07:50:17Z</time>
      </trkpt>
      <trkpt lat="47.46132" lon="6.74819">
        <ele>399</ele>
        <time>2015-08-02T07:50:17Z</time>
      </trkpt>
      <trkpt lat="47.46128" lon="6.74818">
        <ele>399</ele>
        <time>2015-08-02T07:50:18Z</time>
      </trkpt>
      <trkpt lat="47.46125" lon="6.74816">
        <ele>399</ele>
        <time>2015-08-02T07:50:19Z</time>
      </trkpt>
      <trkpt lat="47.46113" lon="6.74809">
        <ele>399</ele>
        <time>2015-08-02T07:50:21Z</time>
      </trkpt>
      <trkpt lat="47.46108" lon="6.74805">
        <ele>399</ele>
        <time>2015-08-02T07:50:23Z</time>
      </trkpt>
      <trkpt lat="47.46091" lon="6.74791">
        <ele>400</ele>
        <time>2015-08-02T07:50:27Z</time>
      </trkpt>
      <trkpt lat="47.46087" lon="6.74788">
        <ele>400</ele>
        <time>2015-08-02T07:50:29Z</time>
      </trkpt>
      <trkpt lat="47.46084" lon="6.74787">
        <ele>400</ele>
        <time>2015-08-02T07:50:29Z</time>
      </trkpt>
      <trkpt lat="47.46081" lon="6.74786">
        <ele>402</ele>
        <time>2015-08-02T07:50:30Z</time>
      </trkpt>
      <trkpt lat="47.46079" lon="6.74786">
        <ele>402</ele>
        <time>2015-08-02T07:50:31Z</time>
      </trkpt>
      <trkpt lat="47.46073" lon="6.74785">
        <ele>402</ele>
        <time>2015-08-02T07:50:32Z</time>
      </trkpt>
      <trkpt lat="47.46071" lon="6.74785">
        <ele>402</ele>
        <time>2015-08-02T07:50:33Z</time>
      </trkpt>
      <trkpt lat="47.46068" lon="6.74785">
        <ele>402</ele>
        <time>2015-08-02T07:50:33Z</time>
      </trkpt>
      <trkpt lat="47.46066" lon="6.74786">
        <ele>402</ele>
        <time>2015-08-02T07:50:33Z</time>
      </trkpt>
      <trkpt lat="47.46058" lon="6.74788">
        <ele>403</ele>
        <time>2015-08-02T07:50:36Z</time>
      </trkpt>
      <trkpt lat="47.46053" lon="6.74789">
        <ele>403</ele>
        <time>2015-08-02T07:50:37Z</time>
      </trkpt>
      <trkpt lat="47.46051" lon="6.7479">
        <ele>403</ele>
        <time>2015-08-02T07:50:38Z</time>
      </trkpt>
      <trkpt lat="47.46041" lon="6.74789">
        <ele>403</ele>
        <time>2015-08-02T07:50:42Z</time>
      </trkpt>
      <trkpt lat="47.46036" lon="6.74789">
        <ele>403</ele>
        <time>2015-08-02T07:50:43Z</time>
      </trkpt>
      <trkpt lat="47.46027" lon="6.7479">
        <ele>403</ele>
        <time>2015-08-02T07:50:45Z</time>
      </trkpt>
      <trkpt lat="47.46015" lon="6.74789">
        <ele>404</ele>
        <time>2015-08-02T07:50:49Z</time>
      </trkpt>
      <trkpt lat="47.4601" lon="6.74789">
        <ele>404</ele>
        <time>2015-08-02T07:50:50Z</time>
      </trkpt>
      <trkpt lat="47.46007" lon="6.74789">
        <ele>404</ele>
        <time>2015-08-02T07:50:51Z</time>
      </trkpt>
      <trkpt lat="47.46005" lon="6.74788">
        <ele>404</ele>
        <time>2015-08-02T07:50:52Z</time>
      </trkpt>
      <trkpt lat="47.46001" lon="6.74786">
        <ele>404</ele>
        <time>2015-08-02T07:50:53Z</time>
      </trkpt>
      <trkpt lat="47.45998" lon="6.74785">
        <ele>405</ele>
        <time>2015-08-02T07:50:54Z</time>
      </trkpt>
      <trkpt lat="47.45993" lon="6.74782">
        <ele>405</ele>
        <time>2015-08-02T07:50:55Z</time>
      </trkpt>
      <trkpt lat="47.45986" lon="6.74775">
        <ele>405</ele>
        <time>2015-08-02T07:50:57Z</time>
      </trkpt>
      <trkpt lat="47.45982" lon="6.7477">
        <ele>405</ele>
        <time>2015-08-02T07:50:59Z</time>
      </trkpt>
      <trkpt lat="47.45979" lon="6.74767">
        <ele>405</ele>
        <time>2015-08-02T07:51:00Z</time>
      </trkpt>
      <trkpt lat="47.45977" lon="6.74764">
        <ele>405</ele>
        <time>2015-08-02T07:51:01Z</time>
      </trkpt>
      <trkpt lat="47.45975" lon="6.7476">
        <ele>405</ele>
        <time>2015-08-02T07:51:01Z</time>
      </trkpt>
      <trkpt lat="47.45971" lon="6.74753">
        <ele>405</ele>
        <time>2015-08-02T07:51:03Z</time>
      </trkpt>
      <trkpt lat="47.45958" lon="6.74725">
        <ele>406</ele>
        <time>2015-08-02T07:51:06Z</time>
      </trkpt>
      <trkpt lat="47.45956" lon="6.74721">
        <ele>406</ele>
        <time>2015-08-02T07:51:08Z</time>
      </trkpt>
      <trkpt lat="47.45953" lon="6.74717">
        <ele>406</ele>
        <time>2015-08-02T07:51:09Z</time>
      </trkpt>
      <trkpt lat="47.4595" lon="6.74715">
        <ele>406</ele>
        <time>2015-08-02T07:51:09Z</time>
      </trkpt>
      <trkpt lat="47.45947" lon="6.74713">
        <ele>406</ele>
        <time>2015-08-02T07:51:10Z</time>
      </trkpt>
      <trkpt lat="47.45944" lon="6.74711">
        <ele>406</ele>
        <time>2015-08-02T07:51:11Z</time>
      </trkpt>
      <trkpt lat="47.45926" lon="6.74706">
        <ele>406</ele>
        <time>2015-08-02T07:51:13Z</time>
      </trkpt>
      <trkpt lat="47.45919" lon="6.74704">
        <ele>406</ele>
        <time>2015-08-02T07:51:14Z</time>
      </trkpt>
      <trkpt lat="47.45915" lon="6.74703">
        <ele>408</ele>
        <time>2015-08-02T07:51:15Z</time>
      </trkpt>
      <trkpt lat="47.45912" lon="6.74702">
        <ele>408</ele>
        <time>2015-08-02T07:51:16Z</time>
      </trkpt>
      <trkpt lat="47.45902" lon="6.74697">
        <ele>408</ele>
        <time>2015-08-02T07:51:18Z</time>
      </trkpt>
      <trkpt lat="47.45899" lon="6.74696">
        <ele>408</ele>
        <time>2015-08-02T07:51:18Z</time>
      </trkpt>
      <trkpt lat="47.45889" lon="6.74693">
        <ele>409</ele>
        <time>2015-08-02T07:51:20Z</time>
      </trkpt>
      <trkpt lat="47.45886" lon="6.74692">
        <ele>409</ele>
        <time>2015-08-02T07:51:22Z</time>
      </trkpt>
      <trkpt lat="47.4588" lon="6.74689">
        <ele>409</ele>
        <time>2015-08-02T07:51:23Z</time>
      </trkpt>
      <trkpt lat="47.45868" lon="6.7468">
        <ele>410</ele>
        <time>2015-08-02T07:51:26Z</time>
      </trkpt>
      <trkpt lat="47.45865" lon="6.74679">
        <ele>410</ele>
        <time>2015-08-02T07:51:27Z</time>
      </trkpt>
      <trkpt lat="47.45862" lon="6.74678">
        <ele>410</ele>
        <time>2015-08-02T07:51:27Z</time>
      </trkpt>
      <trkpt lat="47.45859" lon="6.74678">
        <ele>410</ele>
        <time>2015-08-02T07:51:28Z</time>
      </trkpt>
      <trkpt lat="47.45853" lon="6.74677">
        <ele>411</ele>
        <time>2015-08-02T07:51:29Z</time>
      </trkpt>
      <trkpt lat="47.45849" lon="6.74677">
        <ele>411</ele>
        <time>2015-08-02T07:51:30Z</time>
      </trkpt>
      <trkpt lat="47.45846" lon="6.74678">
        <ele>411</ele>
        <time>2015-08-02T07:51:31Z</time>
      </trkpt>
      <trkpt lat="47.45843" lon="6.7468">
        <ele>411</ele>
        <time>2015-08-02T07:51:31Z</time>
      </trkpt>
      <trkpt lat="47.4584" lon="6.74683">
        <ele>411</ele>
        <time>2015-08-02T07:51:32Z</time>
      </trkpt>
      <trkpt lat="47.45838" lon="6.74686">
        <ele>411</ele>
        <time>2015-08-02T07:51:33Z</time>
      </trkpt>
      <trkpt lat="47.45836" lon="6.7469">
        <ele>411</ele>
        <time>2015-08-02T07:51:33Z</time>
      </trkpt>
      <trkpt lat="47.45834" lon="6.74694">
        <ele>410</ele>
        <time>2015-08-02T07:51:34Z</time>
      </trkpt>
      <trkpt lat="47.45832" lon="6.74703">
        <ele>414</ele>
        <time>2015-08-02T07:51:36Z</time>
      </trkpt>
      <trkpt lat="47.4583" lon="6.74708">
        <ele>413</ele>
        <time>2015-08-02T07:51:37Z</time>
      </trkpt>
      <trkpt lat="47.45828" lon="6.74712">
        <ele>413</ele>
        <time>2015-08-02T07:51:38Z</time>
      </trkpt>
      <trkpt lat="47.45825" lon="6.74716">
        <ele>413</ele>
        <time>2015-08-02T07:51:38Z</time>
      </trkpt>
      <trkpt lat="47.45822" lon="6.74717">
        <ele>413</ele>
        <time>2015-08-02T07:51:39Z</time>
      </trkpt>
      <trkpt lat="47.4582" lon="6.74717">
        <ele>413</ele>
        <time>2015-08-02T07:51:40Z</time>
      </trkpt>
      <trkpt lat="47.45817" lon="6.74716">
        <ele>413</ele>
        <time>2015-08-02T07:51:40Z</time>
      </trkpt>
      <trkpt lat="47.45813" lon="6.74714">
        <ele>414</ele>
        <time>2015-08-02T07:51:43Z</time>
      </trkpt>
      <trkpt lat="47.45812" lon="6.74714">
        <ele>414</ele>
        <time>2015-08-02T07:51:44Z</time>
      </trkpt>
      <trkpt lat="47.45808" lon="6.74714">
        <ele>414</ele>
        <time>2015-08-02T07:51:45Z</time>
      </trkpt>
      <trkpt lat="47.45806" lon="6.74715">
        <ele>414</ele>
        <time>2015-08-02T07:51:46Z</time>
      </trkpt>
      <trkpt lat="47.45798" lon="6.74716">
        <ele>415</ele>
        <time>2015-08-02T07:51:48Z</time>
      </trkpt>
      <trkpt lat="47.4579" lon="6.74717">
        <ele>415</ele>
        <time>2015-08-02T07:51:51Z</time>
      </trkpt>
      <trkpt lat="47.45786" lon="6.74716">
        <ele>415</ele>
        <time>2015-08-02T07:51:52Z</time>
      </trkpt>
      <trkpt lat="47.4578" lon="6.74715">
        <ele>416</ele>
        <time>2015-08-02T07:51:53Z</time>
      </trkpt>
      <trkpt lat="47.45775" lon="6.74714">
        <ele>416</ele>
        <time>2015-08-02T07:51:53Z</time>
      </trkpt>
      <trkpt lat="47.45764" lon="6.74713">
        <ele>417</ele>
        <time>2015-08-02T07:51:55Z</time>
      </trkpt>
      <trkpt lat="47.45757" lon="6.74711">
        <ele>417</ele>
        <time>2015-08-02T07:51:56Z</time>
      </trkpt>
      <trkpt lat="47.45754" lon="6.7471">
        <ele>417</ele>
        <time>2015-08-02T07:51:57Z</time>
      </trkpt>
      <trkpt lat="47.45752" lon="6.74709">
        <ele>417</ele>
        <time>2015-08-02T07:51:58Z</time>
      </trkpt>
      <trkpt lat="47.45745" lon="6.74705">
        <ele>423</ele>
        <time>2015-08-02T07:51:59Z</time>
      </trkpt>
      <trkpt lat="47.45742" lon="6.74703">
        <ele>423</ele>
        <time>2015-08-02T07:52:00Z</time>
      </trkpt>
      <trkpt lat="47.45738" lon="6.74699">
        <ele>423</ele>
        <time>2015-08-02T07:52:00Z</time>
      </trkpt>
      <trkpt lat="47.45731" lon="6.74692">
        <ele>423</ele>
        <time>2015-08-02T07:52:02Z</time>
      </trkpt>
      <trkpt lat="47.45724" lon="6.7469">
        <ele>424</ele>
        <time>2015-08-02T07:52:04Z</time>
      </trkpt>
      <trkpt lat="47.4572" lon="6.74689">
        <ele>424</ele>
        <time>2015-08-02T07:52:06Z</time>
      </trkpt>
      <trkpt lat="47.45718" lon="6.74687">
        <ele>424</ele>
        <time>2015-08-02T07:52:06Z</time>
      </trkpt>
      <trkpt lat="47.45715" lon="6.74684">
        <ele>424</ele>
        <time>2015-08-02T07:52:08Z</time>
      </trkpt>
      <trkpt lat="47.4571" lon="6.74682">
        <ele>424</ele>
        <time>2015-08-02T07:52:11Z</time>
      </trkpt>
      <trkpt lat="47.45708" lon="6.74682">
        <ele>424</ele>
        <time>2015-08-02T07:52:11Z</time>
      </trkpt>
      <trkpt lat="47.45706" lon="6.7468">
        <ele>425</ele>
        <time>2015-08-02T07:52:12Z</time>
      </trkpt>
      <trkpt lat="47.45702" lon="6.74675">
        <ele>425</ele>
        <time>2015-08-02T07:52:13Z</time>
      </trkpt>
      <trkpt lat="47.45694" lon="6.74663">
        <ele>427</ele>
        <time>2015-08-02T07:52:17Z</time>
      </trkpt>
      <trkpt lat="47.45691" lon="6.74661">
        <ele>427</ele>
        <time>2015-08-02T07:52:17Z</time>
      </trkpt>
      <trkpt lat="47.45689" lon="6.7466">
        <ele>427</ele>
        <time>2015-08-02T07:52:18Z</time>
      </trkpt>
      <trkpt lat="47.45683" lon="6.74656">
        <ele>428</ele>
        <time>2015-08-02T07:52:21Z</time>
      </trkpt>
      <trkpt lat="47.45681" lon="6.74655">
        <ele>428</ele>
        <time>2015-08-02T07:52:22Z</time>
      </trkpt>
      <trkpt lat="47.45676" lon="6.74651">
        <ele>428</ele>
        <time>2015-08-02T07:52:23Z</time>
      </trkpt>
      <trkpt lat="47.45674" lon="6.74647">
        <ele>428</ele>
        <time>2015-08-02T07:52:24Z</time>
      </trkpt>
      <trkpt lat="47.45673" lon="6.74644">
        <ele>428</ele>
        <time>2015-08-02T07:52:25Z</time>
      </trkpt>
      <trkpt lat="47.4567" lon="6.74637">
        <ele>428</ele>
        <time>2015-08-02T07:52:26Z</time>
      </trkpt>
      <trkpt lat="47.45669" lon="6.74635">
        <ele>428</ele>
        <time>2015-08-02T07:52:27Z</time>
      </trkpt>
      <trkpt lat="47.45667" lon="6.74632">
        <ele>428</ele>
        <time>2015-08-02T07:52:27Z</time>
      </trkpt>
      <trkpt lat="47.45666" lon="6.7463">
        <ele>431</ele>
        <time>2015-08-02T07:52:28Z</time>
      </trkpt>
      <trkpt lat="47.45662" lon="6.74626">
        <ele>431</ele>
        <time>2015-08-02T07:52:30Z</time>
      </trkpt>
      <trkpt lat="47.45659" lon="6.74625">
        <ele>431</ele>
        <time>2015-08-02T07:52:32Z</time>
      </trkpt>
      <trkpt lat="47.45657" lon="6.74623">
        <ele>431</ele>
        <time>2015-08-02T07:52:33Z</time>
      </trkpt>
      <trkpt lat="47.45651" lon="6.74618">
        <ele>431</ele>
        <time>2015-08-02T07:52:34Z</time>
      </trkpt>
      <trkpt lat="47.45646" lon="6.74616">
        <ele>431</ele>
        <time>2015-08-02T07:52:35Z</time>
      </trkpt>
      <trkpt lat="47.45644" lon="6.74615">
        <ele>431</ele>
        <time>2015-08-02T07:52:36Z</time>
      </trkpt>
      <trkpt lat="47.45642" lon="6.74614">
        <ele>431</ele>
        <time>2015-08-02T07:52:36Z</time>
      </trkpt>
      <trkpt lat="47.45637" lon="6.7461">
        <ele>431</ele>
        <time>2015-08-02T07:52:38Z</time>
      </trkpt>
      <trkpt lat="47.45634" lon="6.74605">
        <ele>432</ele>
        <time>2015-08-02T07:52:39Z</time>
      </trkpt>
      <trkpt lat="47.4563" lon="6.74595">
        <ele>432</ele>
        <time>2015-08-02T07:52:42Z</time>
      </trkpt>
      <trkpt lat="47.45629" lon="6.74592">
        <ele>432</ele>
        <time>2015-08-02T07:52:42Z</time>
      </trkpt>
      <trkpt lat="47.45627" lon="6.74589">
        <ele>432</ele>
        <time>2015-08-02T07:52:43Z</time>
      </trkpt>
      <trkpt lat="47.45625" lon="6.74587">
        <ele>432</ele>
        <time>2015-08-02T07:52:44Z</time>
      </trkpt>
      <trkpt lat="47.45623" lon="6.74584">
        <ele>432</ele>
        <time>2015-08-02T07:52:44Z</time>
      </trkpt>
      <trkpt lat="47.4562" lon="6.74579">
        <ele>435</ele>
        <time>2015-08-02T07:52:46Z</time>
      </trkpt>
      <trkpt lat="47.45618" lon="6.74575">
        <ele>435</ele>
        <time>2015-08-02T07:52:46Z</time>
      </trkpt>
      <trkpt lat="47.45617" lon="6.74572">
        <ele>435</ele>
        <time>2015-08-02T07:52:47Z</time>
      </trkpt>
      <trkpt lat="47.45616" lon="6.74568">
        <ele>435</ele>
        <time>2015-08-02T07:52:48Z</time>
      </trkpt>
      <trkpt lat="47.45616" lon="6.74564">
        <ele>435</ele>
        <time>2015-08-02T07:52:48Z</time>
      </trkpt>
      <trkpt lat="47.45615" lon="6.74552">
        <ele>436</ele>
        <time>2015-08-02T07:52:51Z</time>
      </trkpt>
      <trkpt lat="47.45615" lon="6.74543">
        <ele>436</ele>
        <time>2015-08-02T07:52:52Z</time>
      </trkpt>
      <trkpt lat="47.45616" lon="6.74538">
        <ele>436</ele>
        <time>2015-08-02T07:52:53Z</time>
      </trkpt>
      <trkpt lat="47.45619" lon="6.74531">
        <ele>436</ele>
        <time>2015-08-02T07:52:53Z</time>
      </trkpt>
      <trkpt lat="47.45621" lon="6.74528">
        <ele>436</ele>
        <time>2015-08-02T07:52:54Z</time>
      </trkpt>
      <trkpt lat="47.45622" lon="6.74524">
        <ele>436</ele>
        <time>2015-08-02T07:52:55Z</time>
      </trkpt>
      <trkpt lat="47.45624" lon="6.74521">
        <ele>436</ele>
        <time>2015-08-02T07:52:55Z</time>
      </trkpt>
      <trkpt lat="47.45625" lon="6.74518">
        <ele>436</ele>
        <time>2015-08-02T07:52:56Z</time>
      </trkpt>
      <trkpt lat="47.45626" lon="6.74515">
        <ele>436</ele>
        <time>2015-08-02T07:52:59Z</time>
      </trkpt>
      <trkpt lat="47.45627" lon="6.74512">
        <ele>436</ele>
        <time>2015-08-02T07:52:59Z</time>
      </trkpt>
      <trkpt lat="47.45625" lon="6.74506">
        <ele>436</ele>
        <time>2015-08-02T07:53:02Z</time>
      </trkpt>
      <trkpt lat="47.45625" lon="6.74503">
        <ele>436</ele>
        <time>2015-08-02T07:53:03Z</time>
      </trkpt>
      <trkpt lat="47.45627" lon="6.74491">
        <ele>439</ele>
        <time>2015-08-02T07:53:04Z</time>
      </trkpt>
      <trkpt lat="47.45628" lon="6.74487">
        <ele>439</ele>
        <time>2015-08-02T07:53:04Z</time>
      </trkpt>
      <trkpt lat="47.45628" lon="6.74482">
        <ele>439</ele>
        <time>2015-08-02T07:53:05Z</time>
      </trkpt>
      <trkpt lat="47.45629" lon="6.74464">
        <ele>439</ele>
        <time>2015-08-02T07:53:09Z</time>
      </trkpt>
      <trkpt lat="47.4563" lon="6.74459">
        <ele>439</ele>
        <time>2015-08-02T07:53:09Z</time>
      </trkpt>
      <trkpt lat="47.45632" lon="6.74449">
        <ele>440</ele>
        <time>2015-08-02T07:53:11Z</time>
      </trkpt>
      <trkpt lat="47.45634" lon="6.74444">
        <ele>440</ele>
        <time>2015-08-02T07:53:11Z</time>
      </trkpt>
      <trkpt lat="47.45635" lon="6.7444">
        <ele>440</ele>
        <time>2015-08-02T07:53:13Z</time>
      </trkpt>
      <trkpt lat="47.45636" lon="6.74428">
        <ele>440</ele>
        <time>2015-08-02T07:53:15Z</time>
      </trkpt>
      <trkpt lat="47.45637" lon="6.74419">
        <ele>440</ele>
        <time>2015-08-02T07:53:16Z</time>
      </trkpt>
      <trkpt lat="47.45638" lon="6.74416">
        <ele>442</ele>
        <time>2015-08-02T07:53:17Z</time>
      </trkpt>
      <trkpt lat="47.45639" lon="6.74403">
        <ele>442</ele>
        <time>2015-08-02T07:53:19Z</time>
      </trkpt>
      <trkpt lat="47.45639" lon="6.74398">
        <ele>442</ele>
        <time>2015-08-02T07:53:20Z</time>
      </trkpt>
      <trkpt lat="47.45636" lon="6.74381">
        <ele>442</ele>
        <time>2015-08-02T07:53:22Z</time>
      </trkpt>
      <trkpt lat="47.45636" lon="6.74375">
        <ele>442</ele>
        <time>2015-08-02T07:53:22Z</time>
      </trkpt>
      <trkpt lat="47.45636" lon="6.74361">
        <ele>442</ele>
        <time>2015-08-02T07:53:23Z</time>
      </trkpt>
      <trkpt lat="47.45637" lon="6.74353">
        <ele>442</ele>
        <time>2015-08-02T07:53:26Z</time>
      </trkpt>
      <trkpt lat="47.45638" lon="6.74341">
        <ele>442</ele>
        <time>2015-08-02T07:53:28Z</time>
      </trkpt>
      <trkpt lat="47.45638" lon="6.74333">
        <ele>444</ele>
        <time>2015-08-02T07:53:29Z</time>
      </trkpt>
      <trkpt lat="47.45639" lon="6.74324">
        <ele>444</ele>
        <time>2015-08-02T07:53:30Z</time>
      </trkpt>
      <trkpt lat="47.45642" lon="6.74297">
        <ele>445</ele>
        <time>2015-08-02T07:53:33Z</time>
      </trkpt>
      <trkpt lat="47.45643" lon="6.74293">
        <ele>445</ele>
        <time>2015-08-02T07:53:33Z</time>
      </trkpt>
      <trkpt lat="47.45646" lon="6.74283">
        <ele>445</ele>
        <time>2015-08-02T07:53:35Z</time>
      </trkpt>
      <trkpt lat="47.45649" lon="6.74269">
        <ele>446</ele>
        <time>2015-08-02T07:53:36Z</time>
      </trkpt>
      <trkpt lat="47.45649" lon="6.74263">
        <ele>446</ele>
        <time>2015-08-02T07:53:37Z</time>
      </trkpt>
      <trkpt lat="47.45649" lon="6.74258">
        <ele>446</ele>
        <time>2015-08-02T07:53:37Z</time>
      </trkpt>
      <trkpt lat="47.45648" lon="6.74253">
        <ele>446</ele>
        <time>2015-08-02T07:53:38Z</time>
      </trkpt>
      <trkpt lat="47.45647" lon="6.74248">
        <ele>447</ele>
        <time>2015-08-02T07:53:40Z</time>
      </trkpt>
      <trkpt lat="47.45647" lon="6.74243">
        <ele>448</ele>
        <time>2015-08-02T07:53:40Z</time>
      </trkpt>
      <trkpt lat="47.45647" lon="6.74238">
        <ele>448</ele>
        <time>2015-08-02T07:53:41Z</time>
      </trkpt>
      <trkpt lat="47.45647" lon="6.74234">
        <ele>448</ele>
        <time>2015-08-02T07:53:42Z</time>
      </trkpt>
      <trkpt lat="47.4565" lon="6.74223">
        <ele>448</ele>
        <time>2015-08-02T07:53:43Z</time>
      </trkpt>
      <trkpt lat="47.4565" lon="6.74218">
        <ele>449</ele>
        <time>2015-08-02T07:53:43Z</time>
      </trkpt>
      <trkpt lat="47.45651" lon="6.74205">
        <ele>449</ele>
        <time>2015-08-02T07:53:46Z</time>
      </trkpt>
      <trkpt lat="47.45652" lon="6.74199">
        <ele>449</ele>
        <time>2015-08-02T07:53:46Z</time>
      </trkpt>
      <trkpt lat="47.45653" lon="6.74193">
        <ele>449</ele>
        <time>2015-08-02T07:53:47Z</time>
      </trkpt>
      <trkpt lat="47.45654" lon="6.74187">
        <ele>449</ele>
        <time>2015-08-02T07:53:48Z</time>
      </trkpt>
      <trkpt lat="47.45655" lon="6.74183">
        <ele>449</ele>
        <time>2015-08-02T07:53:48Z</time>
      </trkpt>
      <trkpt lat="47.45657" lon="6.74179">
        <ele>449</ele>
        <time>2015-08-02T07:53:49Z</time>
      </trkpt>
      <trkpt lat="47.45659" lon="6.74175">
        <ele>449</ele>
        <time>2015-08-02T07:53:50Z</time>
      </trkpt>
      <trkpt lat="47.45662" lon="6.74165">
        <ele>450</ele>
        <time>2015-08-02T07:53:51Z</time>
      </trkpt>
      <trkpt lat="47.45663" lon="6.74161">
        <ele>450</ele>
        <time>2015-08-02T07:53:52Z</time>
      </trkpt>
      <trkpt lat="47.45666" lon="6.74148">
        <ele>450</ele>
        <time>2015-08-02T07:53:56Z</time>
      </trkpt>
      <trkpt lat="47.45668" lon="6.74138">
        <ele>445</ele>
        <time>2015-08-02T07:53:58Z</time>
      </trkpt>
      <trkpt lat="47.45668" lon="6.74133">
        <ele>445</ele>
        <time>2015-08-02T07:53:59Z</time>
      </trkpt>
      <trkpt lat="47.45667" lon="6.74124">
        <ele>445</ele>
        <time>2015-08-02T07:54:01Z</time>
      </trkpt>
      <trkpt lat="47.45667" lon="6.7412">
        <ele>445</ele>
        <time>2015-08-02T07:54:02Z</time>
      </trkpt>
      <trkpt lat="47.45668" lon="6.74112">
        <ele>445</ele>
        <time>2015-08-02T07:54:03Z</time>
      </trkpt>
      <trkpt lat="47.4567" lon="6.74107">
        <ele>446</ele>
        <time>2015-08-02T07:54:03Z</time>
      </trkpt>
      <trkpt lat="47.45672" lon="6.74096">
        <ele>447</ele>
        <time>2015-08-02T07:54:04Z</time>
      </trkpt>
      <trkpt lat="47.45673" lon="6.74082">
        <ele>449</ele>
        <time>2015-08-02T07:54:05Z</time>
      </trkpt>
      <trkpt lat="47.45673" lon="6.74069">
        <ele>448</ele>
        <time>2015-08-02T07:54:08Z</time>
      </trkpt>
      <trkpt lat="47.45673" lon="6.74064">
        <ele>448</ele>
        <time>2015-08-02T07:54:08Z</time>
      </trkpt>
      <trkpt lat="47.45675" lon="6.74051">
        <ele>447</ele>
        <time>2015-08-02T07:54:10Z</time>
      </trkpt>
      <trkpt lat="47.45677" lon="6.74039">
        <ele>448</ele>
        <time>2015-08-02T07:54:12Z</time>
      </trkpt>
      <trkpt lat="47.45677" lon="6.74036">
        <ele>448</ele>
        <time>2015-08-02T07:54:13Z</time>
      </trkpt>
      <trkpt lat="47.4568" lon="6.74031">
        <ele>448</ele>
        <time>2015-08-02T07:54:14Z</time>
      </trkpt>
      <trkpt lat="47.4568" lon="6.74029">
        <ele>448</ele>
        <time>2015-08-02T07:54:15Z</time>
      </trkpt>
      <trkpt lat="47.45679" lon="6.74026">
        <ele>448</ele>
        <time>2015-08-02T07:54:16Z</time>
      </trkpt>
      <trkpt lat="47.45678" lon="6.74023">
        <ele>448</ele>
        <time>2015-08-02T07:54:17Z</time>
      </trkpt>
      <trkpt lat="47.45676" lon="6.74019">
        <ele>449</ele>
        <time>2015-08-02T07:54:19Z</time>
      </trkpt>
      <trkpt lat="47.45675" lon="6.74017">
        <ele>449</ele>
        <time>2015-08-02T07:54:19Z</time>
      </trkpt>
      <trkpt lat="47.45673" lon="6.74015">
        <ele>450</ele>
        <time>2015-08-02T07:54:22Z</time>
      </trkpt>
      <trkpt lat="47.4567" lon="6.7401">
        <ele>450</ele>
        <time>2015-08-02T07:54:23Z</time>
      </trkpt>
      <trkpt lat="47.45667" lon="6.74005">
        <ele>452</ele>
        <time>2015-08-02T07:54:23Z</time>
      </trkpt>
      <trkpt lat="47.45665" lon="6.74004">
        <ele>453</ele>
        <time>2015-08-02T07:54:24Z</time>
      </trkpt>
      <trkpt lat="47.4566" lon="6.74001">
        <ele>453</ele>
        <time>2015-08-02T07:54:26Z</time>
      </trkpt>
      <trkpt lat="47.45657" lon="6.73997">
        <ele>454</ele>
        <time>2015-08-02T07:54:28Z</time>
      </trkpt>
      <trkpt lat="47.45654" lon="6.73989">
        <ele>455</ele>
        <time>2015-08-02T07:54:31Z</time>
      </trkpt>
      <trkpt lat="47.45652" lon="6.73983">
        <ele>455</ele>
        <time>2015-08-02T07:54:33Z</time>
      </trkpt>
      <trkpt lat="47.45652" lon="6.7398">
        <ele>455</ele>
        <time>2015-08-02T07:54:33Z</time>
      </trkpt>
      <trkpt lat="47.45647" lon="6.73962">
        <ele>455</ele>
        <time>2015-08-02T07:54:38Z</time>
      </trkpt>
      <trkpt lat="47.45643" lon="6.73952">
        <ele>455</ele>
        <time>2015-08-02T07:54:41Z</time>
      </trkpt>
      <trkpt lat="47.45641" lon="6.73944">
        <ele>455</ele>
        <time>2015-08-02T07:54:43Z</time>
      </trkpt>
      <trkpt lat="47.45639" lon="6.73939">
        <ele>455</ele>
        <time>2015-08-02T07:54:43Z</time>
      </trkpt>
      <trkpt lat="47.45636" lon="6.73931">
        <ele>455</ele>
        <time>2015-08-02T07:54:46Z</time>
      </trkpt>
      <trkpt lat="47.45633" lon="6.73925">
        <ele>455</ele>
        <time>2015-08-02T07:54:47Z</time>
      </trkpt>
      <trkpt lat="47.4563" lon="6.7392">
        <ele>456</ele>
        <time>2015-08-02T07:54:50Z</time>
      </trkpt>
      <trkpt lat="47.45628" lon="6.73914">
        <ele>455</ele>
        <time>2015-08-02T07:54:52Z</time>
      </trkpt>
      <trkpt lat="47.45626" lon="6.73906">
        <ele>456</ele>
        <time>2015-08-02T07:54:53Z</time>
      </trkpt>
      <trkpt lat="47.45618" lon="6.73891">
        <ele>456</ele>
        <time>2015-08-02T07:54:57Z</time>
      </trkpt>
      <trkpt lat="47.45617" lon="6.73888">
        <ele>456</ele>
        <time>2015-08-02T07:54:58Z</time>
      </trkpt>
      <trkpt lat="47.45616" lon="6.73883">
        <ele>456</ele>
        <time>2015-08-02T07:54:59Z</time>
      </trkpt>
      <trkpt lat="47.45616" lon="6.73878">
        <ele>456</ele>
        <time>2015-08-02T07:54:59Z</time>
      </trkpt>
      <trkpt lat="47.45616" lon="6.73873">
        <ele>456</ele>
        <time>2015-08-02T07:55:00Z</time>
      </trkpt>
      <trkpt lat="47.45618" lon="6.73858">
        <ele>456</ele>
        <time>2015-08-02T07:55:03Z</time>
      </trkpt>
      <trkpt lat="47.45619" lon="6.73854">
        <ele>456</ele>
        <time>2015-08-02T07:55:03Z</time>
      </trkpt>
      <trkpt lat="47.45619" lon="6.73849">
        <ele>456</ele>
        <time>2015-08-02T07:55:03Z</time>
      </trkpt>
      <trkpt lat="47.45619" lon="6.7384">
        <ele>456</ele>
        <time>2015-08-02T07:55:05Z</time>
      </trkpt>
      <trkpt lat="47.45619" lon="6.73835">
        <ele>456</ele>
        <time>2015-08-02T07:55:05Z</time>
      </trkpt>
      <trkpt lat="47.4562" lon="6.73831">
        <ele>456</ele>
        <time>2015-08-02T07:55:06Z</time>
      </trkpt>
      <trkpt lat="47.45621" lon="6.73825">
        <ele>456</ele>
        <time>2015-08-02T07:55:07Z</time>
      </trkpt>
      <trkpt lat="47.45621" lon="6.73818">
        <ele>456</ele>
        <time>2015-08-02T07:55:09Z</time>
      </trkpt>
      <trkpt lat="47.45621" lon="6.73812">
        <ele>456</ele>
        <time>2015-08-02T07:55:11Z</time>
      </trkpt>
      <trkpt lat="47.45621" lon="6.73808">
        <ele>456</ele>
        <time>2015-08-02T07:55:11Z</time>
      </trkpt>
      <trkpt lat="47.4562" lon="6.73804">
        <ele>456</ele>
        <time>2015-08-02T07:55:12Z</time>
      </trkpt>
      <trkpt lat="47.4562" lon="6.738">
        <ele>456</ele>
        <time>2015-08-02T07:55:13Z</time>
      </trkpt>
      <trkpt lat="47.45618" lon="6.73793">
        <ele>457</ele>
        <time>2015-08-02T07:55:13Z</time>
      </trkpt>
      <trkpt lat="47.45618" lon="6.73788">
        <ele>457</ele>
        <time>2015-08-02T07:55:14Z</time>
      </trkpt>
      <trkpt lat="47.45618" lon="6.73785">
        <ele>457</ele>
        <time>2015-08-02T07:55:16Z</time>
      </trkpt>
      <trkpt lat="47.45619" lon="6.73781">
        <ele>457</ele>
        <time>2015-08-02T07:55:17Z</time>
      </trkpt>
      <trkpt lat="47.4562" lon="6.73778">
        <ele>457</ele>
        <time>2015-08-02T07:55:18Z</time>
      </trkpt>
      <trkpt lat="47.45621" lon="6.73774">
        <ele>457</ele>
        <time>2015-08-02T07:55:20Z</time>
      </trkpt>
      <trkpt lat="47.45622" lon="6.73768">
        <ele>457</ele>
        <time>2015-08-02T07:55:20Z</time>
      </trkpt>
      <trkpt lat="47.45623" lon="6.73766">
        <ele>457</ele>
        <time>2015-08-02T07:55:21Z</time>
      </trkpt>
      <trkpt lat="47.45624" lon="6.73757">
        <ele>457</ele>
        <time>2015-08-02T07:55:22Z</time>
      </trkpt>
      <trkpt lat="47.45626" lon="6.73752">
        <ele>457</ele>
        <time>2015-08-02T07:55:22Z</time>
      </trkpt>
      <trkpt lat="47.45627" lon="6.73747">
        <ele>457</ele>
        <time>2015-08-02T07:55:23Z</time>
      </trkpt>
      <trkpt lat="47.45633" lon="6.73731">
        <ele>457</ele>
        <time>2015-08-02T07:55:24Z</time>
      </trkpt>
      <trkpt lat="47.45637" lon="6.73721">
        <ele>456</ele>
        <time>2015-08-02T07:55:26Z</time>
      </trkpt>
      <trkpt lat="47.45638" lon="6.73716">
        <ele>456</ele>
        <time>2015-08-02T07:55:27Z</time>
      </trkpt>
      <trkpt lat="47.4564" lon="6.73706">
        <ele>456</ele>
        <time>2015-08-02T07:55:28Z</time>
      </trkpt>
      <trkpt lat="47.4564" lon="6.73701">
        <ele>456</ele>
        <time>2015-08-02T07:55:29Z</time>
      </trkpt>
      <trkpt lat="47.4564" lon="6.73697">
        <ele>456</ele>
        <time>2015-08-02T07:55:32Z</time>
      </trkpt>
      <trkpt lat="47.45638" lon="6.73691">
        <ele>456</ele>
        <time>2015-08-02T07:55:33Z</time>
      </trkpt>
      <trkpt lat="47.45638" lon="6.73689">
        <ele>456</ele>
        <time>2015-08-02T07:55:33Z</time>
      </trkpt>
      <trkpt lat="47.45634" lon="6.73685">
        <ele>456</ele>
        <time>2015-08-02T07:57:22Z</time>
      </trkpt>
      <trkpt lat="47.4563" lon="6.73683">
        <ele>457</ele>
        <time>2015-08-02T07:57:23Z</time>
      </trkpt>
      <trkpt lat="47.45619" lon="6.73679">
        <ele>457</ele>
        <time>2015-08-02T07:57:24Z</time>
      </trkpt>
      <trkpt lat="47.45616" lon="6.73678">
        <ele>457</ele>
        <time>2015-08-02T07:57:25Z</time>
      </trkpt>
      <trkpt lat="47.45606" lon="6.73674">
        <ele>458</ele>
        <time>2015-08-02T07:57:27Z</time>
      </trkpt>
      <trkpt lat="47.45603" lon="6.73673">
        <ele>458</ele>
        <time>2015-08-02T07:57:28Z</time>
      </trkpt>
      <trkpt lat="47.456" lon="6.73673">
        <ele>458</ele>
        <time>2015-08-02T07:57:28Z</time>
      </trkpt>
      <trkpt lat="47.45596" lon="6.73674">
        <ele>459</ele>
        <time>2015-08-02T07:57:30Z</time>
      </trkpt>
      <trkpt lat="47.45594" lon="6.73674">
        <ele>459</ele>
        <time>2015-08-02T07:57:30Z</time>
      </trkpt>
      <trkpt lat="47.45588" lon="6.73673">
        <ele>459</ele>
        <time>2015-08-02T07:57:32Z</time>
      </trkpt>
      <trkpt lat="47.45585" lon="6.73673">
        <ele>459</ele>
        <time>2015-08-02T07:57:32Z</time>
      </trkpt>
      <trkpt lat="47.45582" lon="6.73673">
        <ele>460</ele>
        <time>2015-08-02T07:57:33Z</time>
      </trkpt>
      <trkpt lat="47.45578" lon="6.73675">
        <ele>460</ele>
        <time>2015-08-02T07:57:34Z</time>
      </trkpt>
      <trkpt lat="47.45576" lon="6.73675">
        <ele>461</ele>
        <time>2015-08-02T07:57:35Z</time>
      </trkpt>
      <trkpt lat="47.45573" lon="6.73676">
        <ele>461</ele>
        <time>2015-08-02T07:57:36Z</time>
      </trkpt>
      <trkpt lat="47.45571" lon="6.73675">
        <ele>461</ele>
        <time>2015-08-02T07:57:36Z</time>
      </trkpt>
      <trkpt lat="47.45568" lon="6.73674">
        <ele>461</ele>
        <time>2015-08-02T07:57:37Z</time>
      </trkpt>
      <trkpt lat="47.45553" lon="6.73667">
        <ele>461</ele>
        <time>2015-08-02T07:57:40Z</time>
      </trkpt>
      <trkpt lat="47.4555" lon="6.73666">
        <ele>461</ele>
        <time>2015-08-02T07:57:42Z</time>
      </trkpt>
      <trkpt lat="47.45548" lon="6.73666">
        <ele>461</ele>
        <time>2015-08-02T07:57:43Z</time>
      </trkpt>
      <trkpt lat="47.45543" lon="6.73666">
        <ele>461</ele>
        <time>2015-08-02T07:57:43Z</time>
      </trkpt>
      <trkpt lat="47.45539" lon="6.73665">
        <ele>461</ele>
        <time>2015-08-02T07:57:45Z</time>
      </trkpt>
      <trkpt lat="47.45535" lon="6.73663">
        <ele>461</ele>
        <time>2015-08-02T07:57:45Z</time>
      </trkpt>
      <trkpt lat="47.4553" lon="6.73661">
        <ele>461</ele>
        <time>2015-08-02T07:57:46Z</time>
      </trkpt>
      <trkpt lat="47.45526" lon="6.73659">
        <ele>462</ele>
        <time>2015-08-02T07:57:48Z</time>
      </trkpt>
      <trkpt lat="47.45521" lon="6.73656">
        <ele>462</ele>
        <time>2015-08-02T07:57:48Z</time>
      </trkpt>
      <trkpt lat="47.45516" lon="6.73653">
        <ele>462</ele>
        <time>2015-08-02T07:57:50Z</time>
      </trkpt>
      <trkpt lat="47.45512" lon="6.7365">
        <ele>462</ele>
        <time>2015-08-02T07:57:51Z</time>
      </trkpt>
      <trkpt lat="47.45509" lon="6.73646">
        <ele>462</ele>
        <time>2015-08-02T07:57:51Z</time>
      </trkpt>
      <trkpt lat="47.45505" lon="6.73641">
        <ele>462</ele>
        <time>2015-08-02T07:57:52Z</time>
      </trkpt>
      <trkpt lat="47.45492" lon="6.73618">
        <ele>463</ele>
        <time>2015-08-02T07:57:54Z</time>
      </trkpt>
      <trkpt lat="47.45485" lon="6.73605">
        <ele>463</ele>
        <time>2015-08-02T07:57:55Z</time>
      </trkpt>
      <trkpt lat="47.45471" lon="6.73577">
        <ele>464</ele>
        <time>2015-08-02T07:57:58Z</time>
      </trkpt>
      <trkpt lat="47.45468" lon="6.73565">
        <ele>464</ele>
        <time>2015-08-02T07:58:00Z</time>
      </trkpt>
      <trkpt lat="47.45466" lon="6.73559">
        <ele>464</ele>
        <time>2015-08-02T07:58:00Z</time>
      </trkpt>
      <trkpt lat="47.45466" lon="6.73554">
        <ele>464</ele>
        <time>2015-08-02T07:58:01Z</time>
      </trkpt>
      <trkpt lat="47.45465" lon="6.73542">
        <ele>464</ele>
        <time>2015-08-02T07:58:03Z</time>
      </trkpt>
      <trkpt lat="47.45463" lon="6.73521">
        <ele>464</ele>
        <time>2015-08-02T07:58:04Z</time>
      </trkpt>
      <trkpt lat="47.45461" lon="6.73505">
        <ele>464</ele>
        <time>2015-08-02T07:58:06Z</time>
      </trkpt>
      <trkpt lat="47.4546" lon="6.73497">
        <ele>465</ele>
        <time>2015-08-02T07:58:06Z</time>
      </trkpt>
      <trkpt lat="47.45454" lon="6.73475">
        <ele>465</ele>
        <time>2015-08-02T07:58:08Z</time>
      </trkpt>
      <trkpt lat="47.45453" lon="6.73468">
        <ele>465</ele>
        <time>2015-08-02T07:58:09Z</time>
      </trkpt>
      <trkpt lat="47.45452" lon="6.73459">
        <ele>465</ele>
        <time>2015-08-02T07:58:10Z</time>
      </trkpt>
      <trkpt lat="47.45452" lon="6.73451">
        <ele>465</ele>
        <time>2015-08-02T07:58:10Z</time>
      </trkpt>
      <trkpt lat="47.45452" lon="6.73443">
        <ele>465</ele>
        <time>2015-08-02T07:58:11Z</time>
      </trkpt>
      <trkpt lat="47.45452" lon="6.73435">
        <ele>465</ele>
        <time>2015-08-02T07:58:12Z</time>
      </trkpt>
      <trkpt lat="47.45453" lon="6.73419">
        <ele>465</ele>
        <time>2015-08-02T07:58:13Z</time>
      </trkpt>
      <trkpt lat="47.45453" lon="6.73402">
        <ele>464</ele>
        <time>2015-08-02T07:58:13Z</time>
      </trkpt>
      <trkpt lat="47.45453" lon="6.73394">
        <ele>464</ele>
        <time>2015-08-02T07:58:15Z</time>
      </trkpt>
      <trkpt lat="47.45454" lon="6.73385">
        <ele>464</ele>
        <time>2015-08-02T07:58:16Z</time>
      </trkpt>
      <trkpt lat="47.45456" lon="6.73377">
        <ele>464</ele>
        <time>2015-08-02T07:58:16Z</time>
      </trkpt>
      <trkpt lat="47.4546" lon="6.73364">
        <ele>464</ele>
        <time>2015-08-02T07:58:18Z</time>
      </trkpt>
      <trkpt lat="47.45465" lon="6.73352">
        <ele>464</ele>
        <time>2015-08-02T07:58:19Z</time>
      </trkpt>
      <trkpt lat="47.45468" lon="6.73346">
        <ele>464</ele>
        <time>2015-08-02T07:58:20Z</time>
      </trkpt>
      <trkpt lat="47.45475" lon="6.73334">
        <ele>464</ele>
        <time>2015-08-02T07:58:21Z</time>
      </trkpt>
      <trkpt lat="47.45479" lon="6.73327">
        <ele>463</ele>
        <time>2015-08-02T07:58:22Z</time>
      </trkpt>
      <trkpt lat="47.45483" lon="6.7332">
        <ele>463</ele>
        <time>2015-08-02T07:58:22Z</time>
      </trkpt>
      <trkpt lat="47.45487" lon="6.73313">
        <ele>462</ele>
        <time>2015-08-02T07:58:23Z</time>
      </trkpt>
      <trkpt lat="47.45492" lon="6.73308">
        <ele>462</ele>
        <time>2015-08-02T07:58:23Z</time>
      </trkpt>
      <trkpt lat="47.45496" lon="6.73303">
        <ele>462</ele>
        <time>2015-08-02T07:58:23Z</time>
      </trkpt>
      <trkpt lat="47.45505" lon="6.73296">
        <ele>463</ele>
        <time>2015-08-02T07:58:25Z</time>
      </trkpt>
      <trkpt lat="47.45514" lon="6.73289">
        <ele>463</ele>
        <time>2015-08-02T07:58:26Z</time>
      </trkpt>
      <trkpt lat="47.45517" lon="6.73285">
        <ele>463</ele>
        <time>2015-08-02T07:58:27Z</time>
      </trkpt>
      <trkpt lat="47.45521" lon="6.73282">
        <ele>463</ele>
        <time>2015-08-02T07:58:27Z</time>
      </trkpt>
      <trkpt lat="47.45523" lon="6.73278">
        <ele>463</ele>
        <time>2015-08-02T07:58:30Z</time>
      </trkpt>
      <trkpt lat="47.45526" lon="6.73274">
        <ele>463</ele>
        <time>2015-08-02T07:58:32Z</time>
      </trkpt>
      <trkpt lat="47.45531" lon="6.73267">
        <ele>463</ele>
        <time>2015-08-02T07:58:33Z</time>
      </trkpt>
      <trkpt lat="47.45537" lon="6.73259">
        <ele>463</ele>
        <time>2015-08-02T07:58:34Z</time>
      </trkpt>
      <trkpt lat="47.45541" lon="6.73255">
        <ele>463</ele>
        <time>2015-08-02T07:58:35Z</time>
      </trkpt>
      <trkpt lat="47.45548" lon="6.73245">
        <ele>465</ele>
        <time>2015-08-02T07:58:36Z</time>
      </trkpt>
      <trkpt lat="47.45551" lon="6.7324">
        <ele>465</ele>
        <time>2015-08-02T07:58:37Z</time>
      </trkpt>
      <trkpt lat="47.45553" lon="6.73235">
        <ele>465</ele>
        <time>2015-08-02T07:58:38Z</time>
      </trkpt>
      <trkpt lat="47.45554" lon="6.7323">
        <ele>466</ele>
        <time>2015-08-02T07:58:38Z</time>
      </trkpt>
      <trkpt lat="47.45555" lon="6.73225">
        <ele>466</ele>
        <time>2015-08-02T07:58:39Z</time>
      </trkpt>
      <trkpt lat="47.45556" lon="6.73216">
        <ele>466</ele>
        <time>2015-08-02T07:58:40Z</time>
      </trkpt>
      <trkpt lat="47.45557" lon="6.73211">
        <ele>466</ele>
        <time>2015-08-02T07:58:41Z</time>
      </trkpt>
      <trkpt lat="47.45556" lon="6.73201">
        <ele>466</ele>
        <time>2015-08-02T07:58:42Z</time>
      </trkpt>
      <trkpt lat="47.45555" lon="6.73188">
        <ele>466</ele>
        <time>2015-08-02T07:58:44Z</time>
      </trkpt>
      <trkpt lat="47.45555" lon="6.73181">
        <ele>467</ele>
        <time>2015-08-02T07:58:44Z</time>
      </trkpt>
      <trkpt lat="47.45556" lon="6.73167">
        <ele>467</ele>
        <time>2015-08-02T07:58:46Z</time>
      </trkpt>
      <trkpt lat="47.45555" lon="6.7315">
        <ele>468</ele>
        <time>2015-08-02T07:58:48Z</time>
      </trkpt>
      <trkpt lat="47.45555" lon="6.73145">
        <ele>468</ele>
        <time>2015-08-02T07:58:48Z</time>
      </trkpt>
      <trkpt lat="47.45555" lon="6.73139">
        <ele>468</ele>
        <time>2015-08-02T07:58:49Z</time>
      </trkpt>
      <trkpt lat="47.45556" lon="6.73134">
        <ele>468</ele>
        <time>2015-08-02T07:58:50Z</time>
      </trkpt>
      <trkpt lat="47.45557" lon="6.73129">
        <ele>468</ele>
        <time>2015-08-02T07:58:50Z</time>
      </trkpt>
      <trkpt lat="47.45561" lon="6.73118">
        <ele>468</ele>
        <time>2015-08-02T07:58:52Z</time>
      </trkpt>
      <trkpt lat="47.45561" lon="6.73112">
        <ele>468</ele>
        <time>2015-08-02T07:58:52Z</time>
      </trkpt>
      <trkpt lat="47.45561" lon="6.73105">
        <ele>468</ele>
        <time>2015-08-02T07:58:53Z</time>
      </trkpt>
      <trkpt lat="47.4556" lon="6.73089">
        <ele>468</ele>
        <time>2015-08-02T07:58:53Z</time>
      </trkpt>
      <trkpt lat="47.45554" lon="6.7308">
        <ele>469</ele>
        <time>2015-08-02T07:58:53Z</time>
      </trkpt>
      <trkpt lat="47.45552" lon="6.73076">
        <ele>469</ele>
        <time>2015-08-02T07:58:54Z</time>
      </trkpt>
      <trkpt lat="47.45552" lon="6.73069">
        <ele>469</ele>
        <time>2015-08-02T07:58:55Z</time>
      </trkpt>
      <trkpt lat="47.45553" lon="6.73057">
        <ele>469</ele>
        <time>2015-08-02T07:58:57Z</time>
      </trkpt>
      <trkpt lat="47.45553" lon="6.73053">
        <ele>469</ele>
        <time>2015-08-02T07:58:58Z</time>
      </trkpt>
      <trkpt lat="47.45553" lon="6.7305">
        <ele>469</ele>
        <time>2015-08-02T07:58:58Z</time>
      </trkpt>
      <trkpt lat="47.45551" lon="6.73044">
        <ele>469</ele>
        <time>2015-08-02T07:58:59Z</time>
      </trkpt>
      <trkpt lat="47.45549" lon="6.73039">
        <ele>469</ele>
        <time>2015-08-02T07:59:00Z</time>
      </trkpt>
      <trkpt lat="47.45548" lon="6.73035">
        <ele>469</ele>
        <time>2015-08-02T07:59:00Z</time>
      </trkpt>
      <trkpt lat="47.45545" lon="6.73025">
        <ele>469</ele>
        <time>2015-08-02T07:59:02Z</time>
      </trkpt>
      <trkpt lat="47.4554" lon="6.73016">
        <ele>469</ele>
        <time>2015-08-02T07:59:03Z</time>
      </trkpt>
      <trkpt lat="47.45535" lon="6.73007">
        <ele>469</ele>
        <time>2015-08-02T07:59:03Z</time>
      </trkpt>
      <trkpt lat="47.4553" lon="6.72998">
        <ele>469</ele>
        <time>2015-08-02T07:59:05Z</time>
      </trkpt>
      <trkpt lat="47.45528" lon="6.72994">
        <ele>469</ele>
        <time>2015-08-02T07:59:05Z</time>
      </trkpt>
      <trkpt lat="47.45526" lon="6.72989">
        <ele>469</ele>
        <time>2015-08-02T07:59:06Z</time>
      </trkpt>
      <trkpt lat="47.45524" lon="6.72983">
        <ele>469</ele>
        <time>2015-08-02T07:59:07Z</time>
      </trkpt>
      <trkpt lat="47.45522" lon="6.72976">
        <ele>469</ele>
        <time>2015-08-02T07:59:07Z</time>
      </trkpt>
      <trkpt lat="47.45521" lon="6.7297">
        <ele>469</ele>
        <time>2015-08-02T07:59:08Z</time>
      </trkpt>
      <trkpt lat="47.4552" lon="6.72964">
        <ele>469</ele>
        <time>2015-08-02T07:59:10Z</time>
      </trkpt>
      <trkpt lat="47.45518" lon="6.7296">
        <ele>469</ele>
        <time>2015-08-02T07:59:10Z</time>
      </trkpt>
      <trkpt lat="47.45516" lon="6.72955">
        <ele>469</ele>
        <time>2015-08-02T07:59:11Z</time>
      </trkpt>
      <trkpt lat="47.45514" lon="6.72951">
        <ele>469</ele>
        <time>2015-08-02T07:59:12Z</time>
      </trkpt>
      <trkpt lat="47.45512" lon="6.72947">
        <ele>469</ele>
        <time>2015-08-02T07:59:12Z</time>
      </trkpt>
      <trkpt lat="47.45511" lon="6.72941">
        <ele>469</ele>
        <time>2015-08-02T07:59:13Z</time>
      </trkpt>
      <trkpt lat="47.45509" lon="6.72934">
        <ele>470</ele>
        <time>2015-08-02T07:59:13Z</time>
      </trkpt>
      <trkpt lat="47.45507" lon="6.72911">
        <ele>469</ele>
        <time>2015-08-02T07:59:16Z</time>
      </trkpt>
      <trkpt lat="47.45506" lon="6.72903">
        <ele>469</ele>
        <time>2015-08-02T07:59:16Z</time>
      </trkpt>
      <trkpt lat="47.45504" lon="6.72895">
        <ele>468</ele>
        <time>2015-08-02T07:59:19Z</time>
      </trkpt>
      <trkpt lat="47.45503" lon="6.72888">
        <ele>467</ele>
        <time>2015-08-02T07:59:20Z</time>
      </trkpt>
      <trkpt lat="47.455" lon="6.7288">
        <ele>467</ele>
        <time>2015-08-02T07:59:20Z</time>
      </trkpt>
      <trkpt lat="47.45498" lon="6.72874">
        <ele>469</ele>
        <time>2015-08-02T07:59:21Z</time>
      </trkpt>
      <trkpt lat="47.45494" lon="6.72868">
        <ele>469</ele>
        <time>2015-08-02T07:59:22Z</time>
      </trkpt>
      <trkpt lat="47.45491" lon="6.72862">
        <ele>469</ele>
        <time>2015-08-02T07:59:22Z</time>
      </trkpt>
      <trkpt lat="47.45487" lon="6.72856">
        <ele>469</ele>
        <time>2015-08-02T07:59:23Z</time>
      </trkpt>
      <trkpt lat="47.45477" lon="6.72837">
        <ele>469</ele>
        <time>2015-08-02T07:59:24Z</time>
      </trkpt>
      <trkpt lat="47.45474" lon="6.72832">
        <ele>466</ele>
        <time>2015-08-02T07:59:26Z</time>
      </trkpt>
      <trkpt lat="47.45471" lon="6.72828">
        <ele>465</ele>
        <time>2015-08-02T07:59:26Z</time>
      </trkpt>
      <trkpt lat="47.45467" lon="6.72824">
        <ele>465</ele>
        <time>2015-08-02T07:59:27Z</time>
      </trkpt>
      <trkpt lat="47.45464" lon="6.7282">
        <ele>465</ele>
        <time>2015-08-02T07:59:28Z</time>
      </trkpt>
      <trkpt lat="47.45456" lon="6.72812">
        <ele>464</ele>
        <time>2015-08-02T07:59:29Z</time>
      </trkpt>
      <trkpt lat="47.45451" lon="6.72807">
        <ele>464</ele>
        <time>2015-08-02T07:59:30Z</time>
      </trkpt>
      <trkpt lat="47.45446" lon="6.72801">
        <ele>464</ele>
        <time>2015-08-02T07:59:30Z</time>
      </trkpt>
      <trkpt lat="47.4544" lon="6.72769">
        <ele>462</ele>
        <time>2015-08-02T07:59:31Z</time>
      </trkpt>
      <trkpt lat="47.4544" lon="6.72757">
        <ele>461</ele>
        <time>2015-08-02T07:59:32Z</time>
      </trkpt>
      <trkpt lat="47.45441" lon="6.7275">
        <ele>457</ele>
        <time>2015-08-02T07:59:32Z</time>
      </trkpt>
      <trkpt lat="47.45439" lon="6.72743">
        <ele>457</ele>
        <time>2015-08-02T07:59:33Z</time>
      </trkpt>
      <trkpt lat="47.45437" lon="6.72738">
        <ele>457</ele>
        <time>2015-08-02T07:59:33Z</time>
      </trkpt>
      <trkpt lat="47.45434" lon="6.72735">
        <ele>457</ele>
        <time>2015-08-02T07:59:33Z</time>
      </trkpt>
      <trkpt lat="47.45431" lon="6.72732">
        <ele>457</ele>
        <time>2015-08-02T07:59:34Z</time>
      </trkpt>
      <trkpt lat="47.45428" lon="6.72731">
        <ele>457</ele>
        <time>2015-08-02T07:59:35Z</time>
      </trkpt>
      <trkpt lat="47.45425" lon="6.7273">
        <ele>457</ele>
        <time>2015-08-02T07:59:35Z</time>
      </trkpt>
      <trkpt lat="47.45422" lon="6.72728">
        <ele>457</ele>
        <time>2015-08-02T07:59:36Z</time>
      </trkpt>
      <trkpt lat="47.45419" lon="6.72727">
        <ele>457</ele>
        <time>2015-08-02T07:59:37Z</time>
      </trkpt>
      <trkpt lat="47.45412" lon="6.72726">
        <ele>457</ele>
        <time>2015-08-02T07:59:39Z</time>
      </trkpt>
      <trkpt lat="47.45409" lon="6.72725">
        <ele>457</ele>
        <time>2015-08-02T07:59:40Z</time>
      </trkpt>
      <trkpt lat="47.45406" lon="6.72723">
        <ele>457</ele>
        <time>2015-08-02T07:59:40Z</time>
      </trkpt>
      <trkpt lat="47.45402" lon="6.72722">
        <ele>457</ele>
        <time>2015-08-02T07:59:41Z</time>
      </trkpt>
      <trkpt lat="47.45399" lon="6.72719">
        <ele>457</ele>
        <time>2015-08-02T07:59:42Z</time>
      </trkpt>
      <trkpt lat="47.45396" lon="6.72717">
        <ele>457</ele>
        <time>2015-08-02T07:59:42Z</time>
      </trkpt>
      <trkpt lat="47.45388" lon="6.72708">
        <ele>456</ele>
        <time>2015-08-02T07:59:43Z</time>
      </trkpt>
      <trkpt lat="47.45383" lon="6.72704">
        <ele>456</ele>
        <time>2015-08-02T07:59:45Z</time>
      </trkpt>
      <trkpt lat="47.45381" lon="6.72702">
        <ele>456</ele>
        <time>2015-08-02T07:59:45Z</time>
      </trkpt>
      <trkpt lat="47.45376" lon="6.72697">
        <ele>456</ele>
        <time>2015-08-02T07:59:47Z</time>
      </trkpt>
      <trkpt lat="47.45355" lon="6.72669">
        <ele>456</ele>
        <time>2015-08-02T07:59:53Z</time>
      </trkpt>
      <trkpt lat="47.45344" lon="6.72656">
        <ele>454</ele>
        <time>2015-08-02T07:59:54Z</time>
      </trkpt>
      <trkpt lat="47.4534" lon="6.7265">
        <ele>454</ele>
        <time>2015-08-02T07:59:55Z</time>
      </trkpt>
      <trkpt lat="47.45336" lon="6.72645">
        <ele>454</ele>
        <time>2015-08-02T07:59:55Z</time>
      </trkpt>
      <trkpt lat="47.45333" lon="6.7264">
        <ele>454</ele>
        <time>2015-08-02T07:59:56Z</time>
      </trkpt>
      <trkpt lat="47.45329" lon="6.72636">
        <ele>454</ele>
        <time>2015-08-02T07:59:57Z</time>
      </trkpt>
      <trkpt lat="47.45318" lon="6.72623">
        <ele>453</ele>
        <time>2015-08-02T07:59:59Z</time>
      </trkpt>
      <trkpt lat="47.45314" lon="6.7262">
        <ele>453</ele>
        <time>2015-08-02T07:59:59Z</time>
      </trkpt>
      <trkpt lat="47.45306" lon="6.72611">
        <ele>453</ele>
        <time>2015-08-02T08:00:01Z</time>
      </trkpt>
      <trkpt lat="47.453" lon="6.72608">
        <ele>453</ele>
        <time>2015-08-02T08:00:01Z</time>
      </trkpt>
      <trkpt lat="47.45296" lon="6.72604">
        <ele>453</ele>
        <time>2015-08-02T08:00:02Z</time>
      </trkpt>
      <trkpt lat="47.45287" lon="6.72597">
        <ele>453</ele>
        <time>2015-08-02T08:00:05Z</time>
      </trkpt>
      <trkpt lat="47.45283" lon="6.72594">
        <ele>453</ele>
        <time>2015-08-02T08:00:06Z</time>
      </trkpt>
      <trkpt lat="47.45274" lon="6.72587">
        <ele>453</ele>
        <time>2015-08-02T08:00:08Z</time>
      </trkpt>
      <trkpt lat="47.4527" lon="6.72584">
        <ele>453</ele>
        <time>2015-08-02T08:00:09Z</time>
      </trkpt>
      <trkpt lat="47.45266" lon="6.72581">
        <ele>452</ele>
        <time>2015-08-02T08:00:10Z</time>
      </trkpt>
      <trkpt lat="47.45261" lon="6.72579">
        <ele>452</ele>
        <time>2015-08-02T08:00:10Z</time>
      </trkpt>
      <trkpt lat="47.45256" lon="6.72576">
        <ele>452</ele>
        <time>2015-08-02T08:00:11Z</time>
      </trkpt>
      <trkpt lat="47.4524" lon="6.72566">
        <ele>452</ele>
        <time>2015-08-02T08:00:13Z</time>
      </trkpt>
      <trkpt lat="47.45229" lon="6.72558">
        <ele>452</ele>
        <time>2015-08-02T08:00:13Z</time>
      </trkpt>
      <trkpt lat="47.45223" lon="6.72554">
        <ele>451</ele>
        <time>2015-08-02T08:00:14Z</time>
      </trkpt>
      <trkpt lat="47.45216" lon="6.72551">
        <ele>451</ele>
        <time>2015-08-02T08:00:15Z</time>
      </trkpt>
      <trkpt lat="47.45204" lon="6.72541">
        <ele>451</ele>
        <time>2015-08-02T08:00:16Z</time>
      </trkpt>
      <trkpt lat="47.45197" lon="6.72536">
        <ele>451</ele>
        <time>2015-08-02T08:00:17Z</time>
      </trkpt>
      <trkpt lat="47.4519" lon="6.72532">
        <ele>451</ele>
        <time>2015-08-02T08:00:17Z</time>
      </trkpt>
      <trkpt lat="47.45184" lon="6.72527">
        <ele>450</ele>
        <time>2015-08-02T08:00:18Z</time>
      </trkpt>
      <trkpt lat="47.45178" lon="6.72523">
        <ele>450</ele>
        <time>2015-08-02T08:00:19Z</time>
      </trkpt>
      <trkpt lat="47.45152" lon="6.72504">
        <ele>450</ele>
        <time>2015-08-02T08:00:22Z</time>
      </trkpt>
      <trkpt lat="47.45139" lon="6.72495">
        <ele>450</ele>
        <time>2015-08-02T08:00:23Z</time>
      </trkpt>
      <trkpt lat="47.45134" lon="6.72491">
        <ele>450</ele>
        <time>2015-08-02T08:00:23Z</time>
      </trkpt>
      <trkpt lat="47.45123" lon="6.72482">
        <ele>450</ele>
        <time>2015-08-02T08:00:25Z</time>
      </trkpt>
      <trkpt lat="47.45105" lon="6.7247">
        <ele>450</ele>
        <time>2015-08-02T08:00:27Z</time>
      </trkpt>
      <trkpt lat="47.451" lon="6.72467">
        <ele>450</ele>
        <time>2015-08-02T08:00:27Z</time>
      </trkpt>
      <trkpt lat="47.4508" lon="6.72452">
        <ele>454</ele>
        <time>2015-08-02T08:00:30Z</time>
      </trkpt>
      <trkpt lat="47.45075" lon="6.72448">
        <ele>454</ele>
        <time>2015-08-02T08:00:31Z</time>
      </trkpt>
      <trkpt lat="47.4506" lon="6.72437">
        <ele>454</ele>
        <time>2015-08-02T08:00:33Z</time>
      </trkpt>
      <trkpt lat="47.45051" lon="6.72431">
        <ele>455</ele>
        <time>2015-08-02T08:00:34Z</time>
      </trkpt>
      <trkpt lat="47.45046" lon="6.72427">
        <ele>455</ele>
        <time>2015-08-02T08:00:35Z</time>
      </trkpt>
      <trkpt lat="47.4504" lon="6.72424">
        <ele>456</ele>
        <time>2015-08-02T08:00:35Z</time>
      </trkpt>
      <trkpt lat="47.45022" lon="6.72412">
        <ele>455</ele>
        <time>2015-08-02T08:00:38Z</time>
      </trkpt>
      <trkpt lat="47.45018" lon="6.72409">
        <ele>455</ele>
        <time>2015-08-02T08:00:39Z</time>
      </trkpt>
      <trkpt lat="47.45013" lon="6.72406">
        <ele>455</ele>
        <time>2015-08-02T08:00:39Z</time>
      </trkpt>
      <trkpt lat="47.45009" lon="6.72402">
        <ele>456</ele>
        <time>2015-08-02T08:00:40Z</time>
      </trkpt>
      <trkpt lat="47.45005" lon="6.724">
        <ele>456</ele>
        <time>2015-08-02T08:00:41Z</time>
      </trkpt>
      <trkpt lat="47.45001" lon="6.72396">
        <ele>455</ele>
        <time>2015-08-02T08:00:41Z</time>
      </trkpt>
      <trkpt lat="47.44997" lon="6.72393">
        <ele>461</ele>
        <time>2015-08-02T08:00:42Z</time>
      </trkpt>
      <trkpt lat="47.4499" lon="6.72386">
        <ele>461</ele>
        <time>2015-08-02T08:00:43Z</time>
      </trkpt>
      <trkpt lat="47.44986" lon="6.72384">
        <ele>461</ele>
        <time>2015-08-02T08:00:43Z</time>
      </trkpt>
      <trkpt lat="47.44982" lon="6.72379">
        <ele>461</ele>
        <time>2015-08-02T08:00:44Z</time>
      </trkpt>
      <trkpt lat="47.44977" lon="6.72375">
        <ele>461</ele>
        <time>2015-08-02T08:00:44Z</time>
      </trkpt>
      <trkpt lat="47.44973" lon="6.72372">
        <ele>461</ele>
        <time>2015-08-02T08:00:46Z</time>
      </trkpt>
      <trkpt lat="47.44969" lon="6.72369">
        <ele>461</ele>
        <time>2015-08-02T08:00:47Z</time>
      </trkpt>
      <trkpt lat="47.44964" lon="6.72366">
        <ele>462</ele>
        <time>2015-08-02T08:00:47Z</time>
      </trkpt>
      <trkpt lat="47.44956" lon="6.7236">
        <ele>462</ele>
        <time>2015-08-02T08:00:50Z</time>
      </trkpt>
      <trkpt lat="47.44949" lon="6.72353">
        <ele>462</ele>
        <time>2015-08-02T08:00:53Z</time>
      </trkpt>
      <trkpt lat="47.44941" lon="6.72345">
        <ele>463</ele>
        <time>2015-08-02T08:00:53Z</time>
      </trkpt>
      <trkpt lat="47.4493" lon="6.72336">
        <ele>464</ele>
        <time>2015-08-02T08:00:55Z</time>
      </trkpt>
      <trkpt lat="47.44927" lon="6.72333">
        <ele>462</ele>
        <time>2015-08-02T08:00:56Z</time>
      </trkpt>
      <trkpt lat="47.44924" lon="6.7233">
        <ele>463</ele>
        <time>2015-08-02T08:00:57Z</time>
      </trkpt>
      <trkpt lat="47.44917" lon="6.72324">
        <ele>465</ele>
        <time>2015-08-02T08:00:58Z</time>
      </trkpt>
      <trkpt lat="47.44913" lon="6.72322">
        <ele>466</ele>
        <time>2015-08-02T08:00:59Z</time>
      </trkpt>
      <trkpt lat="47.44907" lon="6.72317">
        <ele>466</ele>
        <time>2015-08-02T08:01:00Z</time>
      </trkpt>
      <trkpt lat="47.44904" lon="6.72315">
        <ele>466</ele>
        <time>2015-08-02T08:01:01Z</time>
      </trkpt>
      <trkpt lat="47.449" lon="6.7231">
        <ele>466</ele>
        <time>2015-08-02T08:01:03Z</time>
      </trkpt>
      <trkpt lat="47.44897" lon="6.72307">
        <ele>466</ele>
        <time>2015-08-02T08:01:03Z</time>
      </trkpt>
      <trkpt lat="47.44894" lon="6.72305">
        <ele>466</ele>
        <time>2015-08-02T08:01:03Z</time>
      </trkpt>
      <trkpt lat="47.44889" lon="6.72302">
        <ele>466</ele>
        <time>2015-08-02T08:01:05Z</time>
      </trkpt>
      <trkpt lat="47.44875" lon="6.7229">
        <ele>467</ele>
        <time>2015-08-02T08:01:08Z</time>
      </trkpt>
      <trkpt lat="47.44872" lon="6.72287">
        <ele>467</ele>
        <time>2015-08-02T08:01:09Z</time>
      </trkpt>
      <trkpt lat="47.44864" lon="6.72282">
        <ele>467</ele>
        <time>2015-08-02T08:01:10Z</time>
      </trkpt>
      <trkpt lat="47.44854" lon="6.72275">
        <ele>467</ele>
        <time>2015-08-02T08:01:12Z</time>
      </trkpt>
      <trkpt lat="47.44842" lon="6.72267">
        <ele>467</ele>
        <time>2015-08-02T08:01:15Z</time>
      </trkpt>
      <trkpt lat="47.44839" lon="6.72265">
        <ele>467</ele>
        <time>2015-08-02T08:01:15Z</time>
      </trkpt>
      <trkpt lat="47.44836" lon="6.72264">
        <ele>467</ele>
        <time>2015-08-02T08:01:16Z</time>
      </trkpt>
      <trkpt lat="47.44833" lon="6.72263">
        <ele>470</ele>
        <time>2015-08-02T08:01:17Z</time>
      </trkpt>
      <trkpt lat="47.44831" lon="6.72262">
        <ele>470</ele>
        <time>2015-08-02T08:01:17Z</time>
      </trkpt>
      <trkpt lat="47.44825" lon="6.72261">
        <ele>470</ele>
        <time>2015-08-02T08:01:19Z</time>
      </trkpt>
      <trkpt lat="47.4482" lon="6.72262">
        <ele>471</ele>
        <time>2015-08-02T08:01:20Z</time>
      </trkpt>
      <trkpt lat="47.44815" lon="6.72264">
        <ele>472</ele>
        <time>2015-08-02T08:01:21Z</time>
      </trkpt>
      <trkpt lat="47.44809" lon="6.72265">
        <ele>473</ele>
        <time>2015-08-02T08:01:23Z</time>
      </trkpt>
      <trkpt lat="47.44803" lon="6.72267">
        <ele>474</ele>
        <time>2015-08-02T08:01:23Z</time>
      </trkpt>
      <trkpt lat="47.44797" lon="6.72269">
        <ele>474</ele>
        <time>2015-08-02T08:01:24Z</time>
      </trkpt>
      <trkpt lat="47.44792" lon="6.72272">
        <ele>475</ele>
        <time>2015-08-02T08:01:26Z</time>
      </trkpt>
      <trkpt lat="47.44789" lon="6.72274">
        <ele>475</ele>
        <time>2015-08-02T08:01:26Z</time>
      </trkpt>
      <trkpt lat="47.44785" lon="6.72275">
        <ele>475</ele>
        <time>2015-08-02T08:01:28Z</time>
      </trkpt>
      <trkpt lat="47.44782" lon="6.72275">
        <ele>475</ele>
        <time>2015-08-02T08:01:29Z</time>
      </trkpt>
      <trkpt lat="47.44778" lon="6.72275">
        <ele>475</ele>
        <time>2015-08-02T08:01:29Z</time>
      </trkpt>
      <trkpt lat="47.44775" lon="6.72275">
        <ele>475</ele>
        <time>2015-08-02T08:01:30Z</time>
      </trkpt>
      <trkpt lat="47.4477" lon="6.72273">
        <ele>475</ele>
        <time>2015-08-02T08:01:31Z</time>
      </trkpt>
      <trkpt lat="47.44767" lon="6.72273">
        <ele>475</ele>
        <time>2015-08-02T08:01:32Z</time>
      </trkpt>
      <trkpt lat="47.44764" lon="6.72273">
        <ele>475</ele>
        <time>2015-08-02T08:01:33Z</time>
      </trkpt>
      <trkpt lat="47.44762" lon="6.72273">
        <ele>475</ele>
        <time>2015-08-02T08:01:33Z</time>
      </trkpt>
      <trkpt lat="47.44759" lon="6.72274">
        <ele>476</ele>
        <time>2015-08-02T08:01:33Z</time>
      </trkpt>
      <trkpt lat="47.44753" lon="6.72277">
        <ele>476</ele>
        <time>2015-08-02T08:01:35Z</time>
      </trkpt>
      <trkpt lat="47.4475" lon="6.72278">
        <ele>476</ele>
        <time>2015-08-02T08:01:36Z</time>
      </trkpt>
      <trkpt lat="47.44744" lon="6.72279">
        <ele>477</ele>
        <time>2015-08-02T08:01:38Z</time>
      </trkpt>
      <trkpt lat="47.44728" lon="6.72284">
        <ele>477</ele>
        <time>2015-08-02T08:01:43Z</time>
      </trkpt>
      <trkpt lat="47.44722" lon="6.72287">
        <ele>477</ele>
        <time>2015-08-02T08:01:44Z</time>
      </trkpt>
      <trkpt lat="47.44711" lon="6.72291">
        <ele>478</ele>
        <time>2015-08-02T08:01:46Z</time>
      </trkpt>
      <trkpt lat="47.44703" lon="6.72295">
        <ele>478</ele>
        <time>2015-08-02T08:01:47Z</time>
      </trkpt>
      <trkpt lat="47.44699" lon="6.72297">
        <ele>478</ele>
        <time>2015-08-02T08:01:48Z</time>
      </trkpt>
      <trkpt lat="47.44691" lon="6.72301">
        <ele>478</ele>
        <time>2015-08-02T08:01:49Z</time>
      </trkpt>
      <trkpt lat="47.44683" lon="6.72304">
        <ele>478</ele>
        <time>2015-08-02T08:01:51Z</time>
      </trkpt>
      <trkpt lat="47.44674" lon="6.72307">
        <ele>478</ele>
        <time>2015-08-02T08:01:52Z</time>
      </trkpt>
      <trkpt lat="47.44661" lon="6.72312">
        <ele>476</ele>
        <time>2015-08-02T08:01:53Z</time>
      </trkpt>
      <trkpt lat="47.4465" lon="6.72315">
        <ele>476</ele>
        <time>2015-08-02T08:01:54Z</time>
      </trkpt>
      <trkpt lat="47.44645" lon="6.72315">
        <ele>476</ele>
        <time>2015-08-02T08:01:55Z</time>
      </trkpt>
      <trkpt lat="47.44635" lon="6.72315">
        <ele>476</ele>
        <time>2015-08-02T08:01:57Z</time>
      </trkpt>
      <trkpt lat="47.44629" lon="6.72316">
        <ele>476</ele>
        <time>2015-08-02T08:01:58Z</time>
      </trkpt>
      <trkpt lat="47.44624" lon="6.72316">
        <ele>475</ele>
        <time>2015-08-02T08:01:59Z</time>
      </trkpt>
      <trkpt lat="47.44618" lon="6.72315">
        <ele>475</ele>
        <time>2015-08-02T08:01:59Z</time>
      </trkpt>
      <trkpt lat="47.44612" lon="6.72315">
        <ele>475</ele>
        <time>2015-08-02T08:02:00Z</time>
      </trkpt>
      <trkpt lat="47.44606" lon="6.72316">
        <ele>476</ele>
        <time>2015-08-02T08:02:01Z</time>
      </trkpt>
      <trkpt lat="47.446" lon="6.72316">
        <ele>476</ele>
        <time>2015-08-02T08:02:01Z</time>
      </trkpt>
      <trkpt lat="47.44596" lon="6.72318">
        <ele>476</ele>
        <time>2015-08-02T08:02:02Z</time>
      </trkpt>
      <trkpt lat="47.4459" lon="6.72321">
        <ele>476</ele>
        <time>2015-08-02T08:02:03Z</time>
      </trkpt>
      <trkpt lat="47.44585" lon="6.72324">
        <ele>477</ele>
        <time>2015-08-02T08:02:03Z</time>
      </trkpt>
      <trkpt lat="47.44579" lon="6.72328">
        <ele>477</ele>
        <time>2015-08-02T08:02:03Z</time>
      </trkpt>
      <trkpt lat="47.44574" lon="6.72331">
        <ele>476</ele>
        <time>2015-08-02T08:02:04Z</time>
      </trkpt>
      <trkpt lat="47.4457" lon="6.72333">
        <ele>476</ele>
        <time>2015-08-02T08:02:04Z</time>
      </trkpt>
      <trkpt lat="47.44565" lon="6.72336">
        <ele>479</ele>
        <time>2015-08-02T08:02:05Z</time>
      </trkpt>
      <trkpt lat="47.4456" lon="6.72338">
        <ele>479</ele>
        <time>2015-08-02T08:02:06Z</time>
      </trkpt>
      <trkpt lat="47.44552" lon="6.7234">
        <ele>480</ele>
        <time>2015-08-02T08:02:06Z</time>
      </trkpt>
      <trkpt lat="47.44547" lon="6.72342">
        <ele>480</ele>
        <time>2015-08-02T08:02:07Z</time>
      </trkpt>
      <trkpt lat="47.44542" lon="6.72346">
        <ele>480</ele>
        <time>2015-08-02T08:02:08Z</time>
      </trkpt>
      <trkpt lat="47.44536" lon="6.72346">
        <ele>479</ele>
        <time>2015-08-02T08:02:08Z</time>
      </trkpt>
      <trkpt lat="47.4453" lon="6.72348">
        <ele>479</ele>
        <time>2015-08-02T08:02:10Z</time>
      </trkpt>
      <trkpt lat="47.44522" lon="6.72352">
        <ele>479</ele>
        <time>2015-08-02T08:02:11Z</time>
      </trkpt>
      <trkpt lat="47.44515" lon="6.72354">
        <ele>479</ele>
        <time>2015-08-02T08:02:11Z</time>
      </trkpt>
      <trkpt lat="47.44508" lon="6.72357">
        <ele>479</ele>
        <time>2015-08-02T08:02:12Z</time>
      </trkpt>
      <trkpt lat="47.445" lon="6.72356">
        <ele>479</ele>
        <time>2015-08-02T08:02:13Z</time>
      </trkpt>
      <trkpt lat="47.44495" lon="6.72357">
        <ele>478</ele>
        <time>2015-08-02T08:02:13Z</time>
      </trkpt>
      <trkpt lat="47.4449" lon="6.72358">
        <ele>478</ele>
        <time>2015-08-02T08:02:13Z</time>
      </trkpt>
      <trkpt lat="47.44485" lon="6.72359">
        <ele>478</ele>
        <time>2015-08-02T08:02:14Z</time>
      </trkpt>
      <trkpt lat="47.44479" lon="6.72358">
        <ele>478</ele>
        <time>2015-08-02T08:02:14Z</time>
      </trkpt>
      <trkpt lat="47.44473" lon="6.7236">
        <ele>478</ele>
        <time>2015-08-02T08:02:15Z</time>
      </trkpt>
      <trkpt lat="47.44468" lon="6.72361">
        <ele>478</ele>
        <time>2015-08-02T08:02:16Z</time>
      </trkpt>
      <trkpt lat="47.44462" lon="6.72363">
        <ele>478</ele>
        <time>2015-08-02T08:02:16Z</time>
      </trkpt>
      <trkpt lat="47.44456" lon="6.72363">
        <ele>478</ele>
        <time>2015-08-02T08:02:17Z</time>
      </trkpt>
      <trkpt lat="47.44449" lon="6.72361">
        <ele>478</ele>
        <time>2015-08-02T08:02:18Z</time>
      </trkpt>
      <trkpt lat="47.44442" lon="6.72362">
        <ele>477</ele>
        <time>2015-08-02T08:02:18Z</time>
      </trkpt>
      <trkpt lat="47.44436" lon="6.72362">
        <ele>477</ele>
        <time>2015-08-02T08:02:19Z</time>
      </trkpt>
      <trkpt lat="47.4443" lon="6.72361">
        <ele>477</ele>
        <time>2015-08-02T08:02:21Z</time>
      </trkpt>
      <trkpt lat="47.44417" lon="6.72362">
        <ele>477</ele>
        <time>2015-08-02T08:02:22Z</time>
      </trkpt>
      <trkpt lat="47.44403" lon="6.72361">
        <ele>477</ele>
        <time>2015-08-02T08:02:24Z</time>
      </trkpt>
      <trkpt lat="47.44397" lon="6.72361">
        <ele>477</ele>
        <time>2015-08-02T08:02:25Z</time>
      </trkpt>
      <trkpt lat="47.44391" lon="6.72365">
        <ele>477</ele>
        <time>2015-08-02T08:02:27Z</time>
      </trkpt>
      <trkpt lat="47.44372" lon="6.72368">
        <ele>477</ele>
        <time>2015-08-02T08:02:29Z</time>
      </trkpt>
      <trkpt lat="47.44366" lon="6.72369">
        <ele>477</ele>
        <time>2015-08-02T08:02:29Z</time>
      </trkpt>
      <trkpt lat="47.4436" lon="6.72372">
        <ele>478</ele>
        <time>2015-08-02T08:02:30Z</time>
      </trkpt>
      <trkpt lat="47.44342" lon="6.72376">
        <ele>478</ele>
        <time>2015-08-02T08:02:32Z</time>
      </trkpt>
      <trkpt lat="47.44335" lon="6.72378">
        <ele>478</ele>
        <time>2015-08-02T08:02:33Z</time>
      </trkpt>
      <trkpt lat="47.4433" lon="6.72379">
        <ele>480</ele>
        <time>2015-08-02T08:02:33Z</time>
      </trkpt>
      <trkpt lat="47.4432" lon="6.72382">
        <ele>480</ele>
        <time>2015-08-02T08:02:34Z</time>
      </trkpt>
      <trkpt lat="47.44314" lon="6.72384">
        <ele>480</ele>
        <time>2015-08-02T08:02:34Z</time>
      </trkpt>
      <trkpt lat="47.44309" lon="6.72386">
        <ele>480</ele>
        <time>2015-08-02T08:02:35Z</time>
      </trkpt>
      <trkpt lat="47.44305" lon="6.72388">
        <ele>480</ele>
        <time>2015-08-02T08:02:36Z</time>
      </trkpt>
      <trkpt lat="47.44302" lon="6.7239">
        <ele>481</ele>
        <time>2015-08-02T08:02:36Z</time>
      </trkpt>
      <trkpt lat="47.44297" lon="6.72393">
        <ele>481</ele>
        <time>2015-08-02T08:02:37Z</time>
      </trkpt>
      <trkpt lat="47.44293" lon="6.72396">
        <ele>481</ele>
        <time>2015-08-02T08:02:39Z</time>
      </trkpt>
      <trkpt lat="47.4429" lon="6.72396">
        <ele>481</ele>
        <time>2015-08-02T08:02:39Z</time>
      </trkpt>
      <trkpt lat="47.44276" lon="6.72402">
        <ele>481</ele>
        <time>2015-08-02T08:02:41Z</time>
      </trkpt>
      <trkpt lat="47.44272" lon="6.72406">
        <ele>482</ele>
        <time>2015-08-02T08:02:42Z</time>
      </trkpt>
      <trkpt lat="47.44268" lon="6.72408">
        <ele>482</ele>
        <time>2015-08-02T08:02:43Z</time>
      </trkpt>
      <trkpt lat="47.44261" lon="6.72412">
        <ele>482</ele>
        <time>2015-08-02T08:02:43Z</time>
      </trkpt>
      <trkpt lat="47.44254" lon="6.72415">
        <ele>483</ele>
        <time>2015-08-02T08:02:44Z</time>
      </trkpt>
      <trkpt lat="47.4425" lon="6.72416">
        <ele>483</ele>
        <time>2015-08-02T08:02:45Z</time>
      </trkpt>
      <trkpt lat="47.4424" lon="6.72417">
        <ele>482</ele>
        <time>2015-08-02T08:02:46Z</time>
      </trkpt>
      <trkpt lat="47.44235" lon="6.72419">
        <ele>482</ele>
        <time>2015-08-02T08:02:46Z</time>
      </trkpt>
      <trkpt lat="47.44229" lon="6.72419">
        <ele>482</ele>
        <time>2015-08-02T08:02:47Z</time>
      </trkpt>
      <trkpt lat="47.44225" lon="6.72421">
        <ele>482</ele>
        <time>2015-08-02T08:02:48Z</time>
      </trkpt>
      <trkpt lat="47.44219" lon="6.72423">
        <ele>482</ele>
        <time>2015-08-02T08:02:48Z</time>
      </trkpt>
      <trkpt lat="47.44216" lon="6.72426">
        <ele>482</ele>
        <time>2015-08-02T08:02:49Z</time>
      </trkpt>
      <trkpt lat="47.44213" lon="6.72429">
        <ele>482</ele>
        <time>2015-08-02T08:02:50Z</time>
      </trkpt>
      <trkpt lat="47.44208" lon="6.72429">
        <ele>481</ele>
        <time>2015-08-02T08:02:50Z</time>
      </trkpt>
      <trkpt lat="47.442" lon="6.72429">
        <ele>481</ele>
        <time>2015-08-02T08:02:52Z</time>
      </trkpt>
      <trkpt lat="47.44188" lon="6.72432">
        <ele>481</ele>
        <time>2015-08-02T08:02:53Z</time>
      </trkpt>
      <trkpt lat="47.44182" lon="6.72433">
        <ele>481</ele>
        <time>2015-08-02T08:02:53Z</time>
      </trkpt>
      <trkpt lat="47.44176" lon="6.72435">
        <ele>481</ele>
        <time>2015-08-02T08:02:54Z</time>
      </trkpt>
      <trkpt lat="47.44172" lon="6.72434">
        <ele>481</ele>
        <time>2015-08-02T08:02:54Z</time>
      </trkpt>
      <trkpt lat="47.44166" lon="6.72434">
        <ele>478</ele>
        <time>2015-08-02T08:02:55Z</time>
      </trkpt>
      <trkpt lat="47.44159" lon="6.72433">
        <ele>478</ele>
        <time>2015-08-02T08:02:56Z</time>
      </trkpt>
      <trkpt lat="47.44154" lon="6.72438">
        <ele>477</ele>
        <time>2015-08-02T08:02:56Z</time>
      </trkpt>
      <trkpt lat="47.44142" lon="6.7244">
        <ele>476</ele>
        <time>2015-08-02T08:02:58Z</time>
      </trkpt>
      <trkpt lat="47.44136" lon="6.7244">
        <ele>476</ele>
        <time>2015-08-02T08:02:58Z</time>
      </trkpt>
      <trkpt lat="47.44118" lon="6.72442">
        <ele>475</ele>
        <time>2015-08-02T08:03:00Z</time>
      </trkpt>
      <trkpt lat="47.4411" lon="6.72443">
        <ele>474</ele>
        <time>2015-08-02T08:03:01Z</time>
      </trkpt>
      <trkpt lat="47.441" lon="6.72443">
        <ele>474</ele>
        <time>2015-08-02T08:03:02Z</time>
      </trkpt>
      <trkpt lat="47.44093" lon="6.7245">
        <ele>473</ele>
        <time>2015-08-02T08:03:02Z</time>
      </trkpt>
      <trkpt lat="47.44086" lon="6.72456">
        <ele>473</ele>
        <time>2015-08-02T08:03:03Z</time>
      </trkpt>
      <trkpt lat="47.44073" lon="6.72462">
        <ele>468</ele>
        <time>2015-08-02T08:03:04Z</time>
      </trkpt>
      <trkpt lat="47.44062" lon="6.72465">
        <ele>468</ele>
        <time>2015-08-02T08:03:04Z</time>
      </trkpt>
      <trkpt lat="47.4405" lon="6.72468">
        <ele>467</ele>
        <time>2015-08-02T08:03:06Z</time>
      </trkpt>
      <trkpt lat="47.4404" lon="6.7247">
        <ele>467</ele>
        <time>2015-08-02T08:03:07Z</time>
      </trkpt>
      <trkpt lat="47.4403" lon="6.72473">
        <ele>467</ele>
        <time>2015-08-02T08:03:07Z</time>
      </trkpt>
      <trkpt lat="47.4402" lon="6.72476">
        <ele>466</ele>
        <time>2015-08-02T08:03:08Z</time>
      </trkpt>
      <trkpt lat="47.44013" lon="6.72478">
        <ele>466</ele>
        <time>2015-08-02T08:03:09Z</time>
      </trkpt>
      <trkpt lat="47.44006" lon="6.72481">
        <ele>466</ele>
        <time>2015-08-02T08:03:09Z</time>
      </trkpt>
      <trkpt lat="47.43998" lon="6.72483">
        <ele>464</ele>
        <time>2015-08-02T08:03:11Z</time>
      </trkpt>
      <trkpt lat="47.43991" lon="6.72486">
        <ele>464</ele>
        <time>2015-08-02T08:03:12Z</time>
      </trkpt>
      <trkpt lat="47.43984" lon="6.72488">
        <ele>464</ele>
        <time>2015-08-02T08:03:12Z</time>
      </trkpt>
      <trkpt lat="47.43971" lon="6.72491">
        <ele>464</ele>
        <time>2015-08-02T08:03:14Z</time>
      </trkpt>
      <trkpt lat="47.43957" lon="6.72496">
        <ele>464</ele>
        <time>2015-08-02T08:03:15Z</time>
      </trkpt>
      <trkpt lat="47.43951" lon="6.72497">
        <ele>464</ele>
        <time>2015-08-02T08:03:16Z</time>
      </trkpt>
      <trkpt lat="47.43945" lon="6.72501">
        <ele>463</ele>
        <time>2015-08-02T08:03:16Z</time>
      </trkpt>
      <trkpt lat="47.43939" lon="6.72501">
        <ele>463</ele>
        <time>2015-08-02T08:03:17Z</time>
      </trkpt>
      <trkpt lat="47.43932" lon="6.72501">
        <ele>463</ele>
        <time>2015-08-02T08:03:18Z</time>
      </trkpt>
      <trkpt lat="47.43925" lon="6.72499">
        <ele>463</ele>
        <time>2015-08-02T08:03:18Z</time>
      </trkpt>
      <trkpt lat="47.43919" lon="6.72496">
        <ele>463</ele>
        <time>2015-08-02T08:03:19Z</time>
      </trkpt>
      <trkpt lat="47.43908" lon="6.72488">
        <ele>463</ele>
        <time>2015-08-02T08:03:21Z</time>
      </trkpt>
      <trkpt lat="47.43896" lon="6.72477">
        <ele>463</ele>
        <time>2015-08-02T08:03:23Z</time>
      </trkpt>
      <trkpt lat="47.4389" lon="6.72472">
        <ele>463</ele>
        <time>2015-08-02T08:03:23Z</time>
      </trkpt>
      <trkpt lat="47.43883" lon="6.72468">
        <ele>463</ele>
        <time>2015-08-02T08:03:23Z</time>
      </trkpt>
      <trkpt lat="47.43864" lon="6.72451">
        <ele>463</ele>
        <time>2015-08-02T08:03:25Z</time>
      </trkpt>
      <trkpt lat="47.43858" lon="6.72446">
        <ele>463</ele>
        <time>2015-08-02T08:03:26Z</time>
      </trkpt>
      <trkpt lat="47.43852" lon="6.72439">
        <ele>463</ele>
        <time>2015-08-02T08:03:26Z</time>
      </trkpt>
      <trkpt lat="47.43847" lon="6.72433">
        <ele>462</ele>
        <time>2015-08-02T08:03:27Z</time>
      </trkpt>
      <trkpt lat="47.43842" lon="6.72427">
        <ele>462</ele>
        <time>2015-08-02T08:03:28Z</time>
      </trkpt>
      <trkpt lat="47.43836" lon="6.7242">
        <ele>462</ele>
        <time>2015-08-02T08:03:28Z</time>
      </trkpt>
      <trkpt lat="47.43831" lon="6.72415">
        <ele>462</ele>
        <time>2015-08-02T08:03:29Z</time>
      </trkpt>
      <trkpt lat="47.43826" lon="6.7241">
        <ele>462</ele>
        <time>2015-08-02T08:03:30Z</time>
      </trkpt>
      <trkpt lat="47.4382" lon="6.72406">
        <ele>462</ele>
        <time>2015-08-02T08:03:30Z</time>
      </trkpt>
      <trkpt lat="47.43815" lon="6.72401">
        <ele>462</ele>
        <time>2015-08-02T08:03:31Z</time>
      </trkpt>
      <trkpt lat="47.43811" lon="6.72395">
        <ele>462</ele>
        <time>2015-08-02T08:03:32Z</time>
      </trkpt>
      <trkpt lat="47.43807" lon="6.7239">
        <ele>462</ele>
        <time>2015-08-02T08:03:32Z</time>
      </trkpt>
      <trkpt lat="47.43797" lon="6.72378">
        <ele>462</ele>
        <time>2015-08-02T08:03:34Z</time>
      </trkpt>
      <trkpt lat="47.43774" lon="6.7235">
        <ele>461</ele>
        <time>2015-08-02T08:03:37Z</time>
      </trkpt>
      <trkpt lat="47.43765" lon="6.72338">
        <ele>461</ele>
        <time>2015-08-02T08:03:38Z</time>
      </trkpt>
      <trkpt lat="47.4376" lon="6.72332">
        <ele>460</ele>
        <time>2015-08-02T08:03:39Z</time>
      </trkpt>
      <trkpt lat="47.43756" lon="6.72325">
        <ele>460</ele>
        <time>2015-08-02T08:03:40Z</time>
      </trkpt>
      <trkpt lat="47.43753" lon="6.72318">
        <ele>460</ele>
        <time>2015-08-02T08:03:40Z</time>
      </trkpt>
      <trkpt lat="47.43748" lon="6.72311">
        <ele>460</ele>
        <time>2015-08-02T08:03:41Z</time>
      </trkpt>
      <trkpt lat="47.43744" lon="6.72306">
        <ele>460</ele>
        <time>2015-08-02T08:03:42Z</time>
      </trkpt>
      <trkpt lat="47.43738" lon="6.72302">
        <ele>460</ele>
        <time>2015-08-02T08:03:42Z</time>
      </trkpt>
      <trkpt lat="47.43732" lon="6.72301">
        <ele>460</ele>
        <time>2015-08-02T08:03:43Z</time>
      </trkpt>
      <trkpt lat="47.43726" lon="6.72302">
        <ele>460</ele>
        <time>2015-08-02T08:03:43Z</time>
      </trkpt>
      <trkpt lat="47.4372" lon="6.72305">
        <ele>460</ele>
        <time>2015-08-02T08:03:43Z</time>
      </trkpt>
      <trkpt lat="47.43715" lon="6.72309">
        <ele>460</ele>
        <time>2015-08-02T08:03:44Z</time>
      </trkpt>
      <trkpt lat="47.4371" lon="6.72313">
        <ele>460</ele>
        <time>2015-08-02T08:03:46Z</time>
      </trkpt>
      <trkpt lat="47.43705" lon="6.72317">
        <ele>460</ele>
        <time>2015-08-02T08:03:46Z</time>
      </trkpt>
      <trkpt lat="47.437" lon="6.72321">
        <ele>460</ele>
        <time>2015-08-02T08:03:47Z</time>
      </trkpt>
      <trkpt lat="47.43695" lon="6.72324">
        <ele>460</ele>
        <time>2015-08-02T08:03:48Z</time>
      </trkpt>
      <trkpt lat="47.4369" lon="6.72328">
        <ele>460</ele>
        <time>2015-08-02T08:03:48Z</time>
      </trkpt>
      <trkpt lat="47.43671" lon="6.72342">
        <ele>461</ele>
        <time>2015-08-02T08:03:52Z</time>
      </trkpt>
      <trkpt lat="47.43661" lon="6.72349">
        <ele>462</ele>
        <time>2015-08-02T08:03:53Z</time>
      </trkpt>
      <trkpt lat="47.43656" lon="6.72352">
        <ele>463</ele>
        <time>2015-08-02T08:03:53Z</time>
      </trkpt>
      <trkpt lat="47.43652" lon="6.72355">
        <ele>463</ele>
        <time>2015-08-02T08:03:54Z</time>
      </trkpt>
      <trkpt lat="47.43647" lon="6.72358">
        <ele>463</ele>
        <time>2015-08-02T08:03:54Z</time>
      </trkpt>
      <trkpt lat="47.43642" lon="6.72361">
        <ele>463</ele>
        <time>2015-08-02T08:03:55Z</time>
      </trkpt>
      <trkpt lat="47.43632" lon="6.72366">
        <ele>464</ele>
        <time>2015-08-02T08:03:57Z</time>
      </trkpt>
      <trkpt lat="47.43618" lon="6.72374">
        <ele>464</ele>
        <time>2015-08-02T08:03:59Z</time>
      </trkpt>
      <trkpt lat="47.43614" lon="6.72375">
        <ele>464</ele>
        <time>2015-08-02T08:04:02Z</time>
      </trkpt>
      <trkpt lat="47.436" lon="6.72382">
        <ele>464</ele>
        <time>2015-08-02T08:04:03Z</time>
      </trkpt>
      <trkpt lat="47.43588" lon="6.7239">
        <ele>465</ele>
        <time>2015-08-02T08:04:05Z</time>
      </trkpt>
      <trkpt lat="47.43583" lon="6.72393">
        <ele>467</ele>
        <time>2015-08-02T08:04:06Z</time>
      </trkpt>
      <trkpt lat="47.43576" lon="6.72396">
        <ele>467</ele>
        <time>2015-08-02T08:04:07Z</time>
      </trkpt>
      <trkpt lat="47.43572" lon="6.72397">
        <ele>467</ele>
        <time>2015-08-02T08:04:08Z</time>
      </trkpt>
      <trkpt lat="47.43569" lon="6.72399">
        <ele>467</ele>
        <time>2015-08-02T08:04:08Z</time>
      </trkpt>
      <trkpt lat="47.43561" lon="6.72403">
        <ele>467</ele>
        <time>2015-08-02T08:04:10Z</time>
      </trkpt>
      <trkpt lat="47.43558" lon="6.72404">
        <ele>467</ele>
        <time>2015-08-02T08:04:10Z</time>
      </trkpt>
      <trkpt lat="47.43551" lon="6.72407">
        <ele>467</ele>
        <time>2015-08-02T08:04:12Z</time>
      </trkpt>
      <trkpt lat="47.43544" lon="6.7241">
        <ele>468</ele>
        <time>2015-08-02T08:04:13Z</time>
      </trkpt>
      <trkpt lat="47.43536" lon="6.72414">
        <ele>468</ele>
        <time>2015-08-02T08:04:13Z</time>
      </trkpt>
      <trkpt lat="47.43525" lon="6.72419">
        <ele>470</ele>
        <time>2015-08-02T08:04:16Z</time>
      </trkpt>
      <trkpt lat="47.43515" lon="6.72424">
        <ele>470</ele>
        <time>2015-08-02T08:04:18Z</time>
      </trkpt>
      <trkpt lat="47.43512" lon="6.72425">
        <ele>470</ele>
        <time>2015-08-02T08:04:19Z</time>
      </trkpt>
      <trkpt lat="47.43509" lon="6.72424">
        <ele>470</ele>
        <time>2015-08-02T08:04:20Z</time>
      </trkpt>
      <trkpt lat="47.43506" lon="6.72422">
        <ele>471</ele>
        <time>2015-08-02T08:04:20Z</time>
      </trkpt>
      <trkpt lat="47.43503" lon="6.72418">
        <ele>471</ele>
        <time>2015-08-02T08:04:21Z</time>
      </trkpt>
      <trkpt lat="47.43493" lon="6.72397">
        <ele>471</ele>
        <time>2015-08-02T08:04:23Z</time>
      </trkpt>
      <trkpt lat="47.4349" lon="6.72389">
        <ele>471</ele>
        <time>2015-08-02T08:04:23Z</time>
      </trkpt>
      <trkpt lat="47.43486" lon="6.72384">
        <ele>471</ele>
        <time>2015-08-02T08:04:24Z</time>
      </trkpt>
      <trkpt lat="47.43484" lon="6.72379">
        <ele>471</ele>
        <time>2015-08-02T08:04:25Z</time>
      </trkpt>
      <trkpt lat="47.43478" lon="6.72371">
        <ele>471</ele>
        <time>2015-08-02T08:04:26Z</time>
      </trkpt>
      <trkpt lat="47.43472" lon="6.72361">
        <ele>471</ele>
        <time>2015-08-02T08:04:28Z</time>
      </trkpt>
      <trkpt lat="47.43469" lon="6.72356">
        <ele>471</ele>
        <time>2015-08-02T08:04:29Z</time>
      </trkpt>
      <trkpt lat="47.43466" lon="6.72352">
        <ele>471</ele>
        <time>2015-08-02T08:04:30Z</time>
      </trkpt>
      <trkpt lat="47.43459" lon="6.72342">
        <ele>471</ele>
        <time>2015-08-02T08:04:31Z</time>
      </trkpt>
      <trkpt lat="47.43456" lon="6.72336">
        <ele>471</ele>
        <time>2015-08-02T08:04:32Z</time>
      </trkpt>
      <trkpt lat="47.43449" lon="6.72326">
        <ele>469</ele>
        <time>2015-08-02T08:04:33Z</time>
      </trkpt>
      <trkpt lat="47.43445" lon="6.72321">
        <ele>469</ele>
        <time>2015-08-02T08:04:33Z</time>
      </trkpt>
      <trkpt lat="47.43442" lon="6.72315">
        <ele>469</ele>
        <time>2015-08-02T08:04:33Z</time>
      </trkpt>
      <trkpt lat="47.43434" lon="6.72302">
        <ele>468</ele>
        <time>2015-08-02T08:04:35Z</time>
      </trkpt>
      <trkpt lat="47.4343" lon="6.72295">
        <ele>468</ele>
        <time>2015-08-02T08:04:35Z</time>
      </trkpt>
      <trkpt lat="47.43422" lon="6.72284">
        <ele>468</ele>
        <time>2015-08-02T08:04:38Z</time>
      </trkpt>
      <trkpt lat="47.43418" lon="6.72278">
        <ele>468</ele>
        <time>2015-08-02T08:04:38Z</time>
      </trkpt>
      <trkpt lat="47.43414" lon="6.72272">
        <ele>471</ele>
        <time>2015-08-02T08:04:39Z</time>
      </trkpt>
      <trkpt lat="47.4341" lon="6.72266">
        <ele>470</ele>
        <time>2015-08-02T08:04:40Z</time>
      </trkpt>
      <trkpt lat="47.43407" lon="6.72259">
        <ele>470</ele>
        <time>2015-08-02T08:04:40Z</time>
      </trkpt>
      <trkpt lat="47.43403" lon="6.72254">
        <ele>470</ele>
        <time>2015-08-02T08:04:42Z</time>
      </trkpt>
      <trkpt lat="47.43395" lon="6.72241">
        <ele>468</ele>
        <time>2015-08-02T08:04:43Z</time>
      </trkpt>
      <trkpt lat="47.43387" lon="6.72229">
        <ele>468</ele>
        <time>2015-08-02T08:04:45Z</time>
      </trkpt>
      <trkpt lat="47.43383" lon="6.72223">
        <ele>469</ele>
        <time>2015-08-02T08:04:45Z</time>
      </trkpt>
      <trkpt lat="47.43379" lon="6.72217">
        <ele>469</ele>
        <time>2015-08-02T08:04:46Z</time>
      </trkpt>
      <trkpt lat="47.4337" lon="6.72203">
        <ele>469</ele>
        <time>2015-08-02T08:04:47Z</time>
      </trkpt>
      <trkpt lat="47.43366" lon="6.72197">
        <ele>469</ele>
        <time>2015-08-02T08:04:49Z</time>
      </trkpt>
      <trkpt lat="47.43362" lon="6.72191">
        <ele>469</ele>
        <time>2015-08-02T08:04:50Z</time>
      </trkpt>
      <trkpt lat="47.4335" lon="6.72171">
        <ele>469</ele>
        <time>2015-08-02T08:04:52Z</time>
      </trkpt>
      <trkpt lat="47.43342" lon="6.7216">
        <ele>467</ele>
        <time>2015-08-02T08:04:53Z</time>
      </trkpt>
      <trkpt lat="47.43339" lon="6.72154">
        <ele>467</ele>
        <time>2015-08-02T08:04:53Z</time>
      </trkpt>
      <trkpt lat="47.43335" lon="6.72149">
        <ele>467</ele>
        <time>2015-08-02T08:04:53Z</time>
      </trkpt>
      <trkpt lat="47.43327" lon="6.72138">
        <ele>470</ele>
        <time>2015-08-02T08:04:55Z</time>
      </trkpt>
      <trkpt lat="47.43324" lon="6.72133">
        <ele>470</ele>
        <time>2015-08-02T08:04:55Z</time>
      </trkpt>
      <trkpt lat="47.4332" lon="6.72127">
        <ele>470</ele>
        <time>2015-08-02T08:04:57Z</time>
      </trkpt>
      <trkpt lat="47.43316" lon="6.72121">
        <ele>470</ele>
        <time>2015-08-02T08:04:58Z</time>
      </trkpt>
      <trkpt lat="47.43313" lon="6.72114">
        <ele>470</ele>
        <time>2015-08-02T08:04:58Z</time>
      </trkpt>
      <trkpt lat="47.43308" lon="6.72108">
        <ele>470</ele>
        <time>2015-08-02T08:04:59Z</time>
      </trkpt>
      <trkpt lat="47.43305" lon="6.72103">
        <ele>470</ele>
        <time>2015-08-02T08:05:00Z</time>
      </trkpt>
      <trkpt lat="47.43301" lon="6.72096">
        <ele>470</ele>
        <time>2015-08-02T08:05:00Z</time>
      </trkpt>
      <trkpt lat="47.43298" lon="6.72091">
        <ele>470</ele>
        <time>2015-08-02T08:05:01Z</time>
      </trkpt>
      <trkpt lat="47.43295" lon="6.72085">
        <ele>471</ele>
        <time>2015-08-02T08:05:02Z</time>
      </trkpt>
      <trkpt lat="47.43291" lon="6.72079">
        <ele>468</ele>
        <time>2015-08-02T08:05:02Z</time>
      </trkpt>
      <trkpt lat="47.43287" lon="6.72074">
        <ele>469</ele>
        <time>2015-08-02T08:05:03Z</time>
      </trkpt>
      <trkpt lat="47.4328" lon="6.72062">
        <ele>469</ele>
        <time>2015-08-02T08:05:03Z</time>
      </trkpt>
      <trkpt lat="47.43273" lon="6.72052">
        <ele>469</ele>
        <time>2015-08-02T08:05:05Z</time>
      </trkpt>
      <trkpt lat="47.43264" lon="6.72035">
        <ele>469</ele>
        <time>2015-08-02T08:05:07Z</time>
      </trkpt>
      <trkpt lat="47.4326" lon="6.7203">
        <ele>469</ele>
        <time>2015-08-02T08:05:07Z</time>
      </trkpt>
      <trkpt lat="47.43257" lon="6.72024">
        <ele>469</ele>
        <time>2015-08-02T08:05:08Z</time>
      </trkpt>
      <trkpt lat="47.43252" lon="6.72012">
        <ele>469</ele>
        <time>2015-08-02T08:05:10Z</time>
      </trkpt>
      <trkpt lat="47.43239" lon="6.71991">
        <ele>471</ele>
        <time>2015-08-02T08:05:13Z</time>
      </trkpt>
      <trkpt lat="47.43236" lon="6.71986">
        <ele>471</ele>
        <time>2015-08-02T08:05:13Z</time>
      </trkpt>
      <trkpt lat="47.43226" lon="6.7197">
        <ele>472</ele>
        <time>2015-08-02T08:05:15Z</time>
      </trkpt>
      <trkpt lat="47.43217" lon="6.71955">
        <ele>472</ele>
        <time>2015-08-02T08:05:17Z</time>
      </trkpt>
      <trkpt lat="47.43215" lon="6.7195">
        <ele>472</ele>
        <time>2015-08-02T08:05:17Z</time>
      </trkpt>
      <trkpt lat="47.4321" lon="6.71941">
        <ele>472</ele>
        <time>2015-08-02T08:05:19Z</time>
      </trkpt>
      <trkpt lat="47.43207" lon="6.71936">
        <ele>472</ele>
        <time>2015-08-02T08:05:19Z</time>
      </trkpt>
      <trkpt lat="47.43205" lon="6.71931">
        <ele>472</ele>
        <time>2015-08-02T08:05:20Z</time>
      </trkpt>
      <trkpt lat="47.43201" lon="6.71926">
        <ele>472</ele>
        <time>2015-08-02T08:05:21Z</time>
      </trkpt>
      <trkpt lat="47.43197" lon="6.71918">
        <ele>472</ele>
        <time>2015-08-02T08:05:23Z</time>
      </trkpt>
      <trkpt lat="47.43191" lon="6.71909">
        <ele>471</ele>
        <time>2015-08-02T08:05:24Z</time>
      </trkpt>
      <trkpt lat="47.43187" lon="6.71903">
        <ele>471</ele>
        <time>2015-08-02T08:05:26Z</time>
      </trkpt>
      <trkpt lat="47.43184" lon="6.719">
        <ele>471</ele>
        <time>2015-08-02T08:05:26Z</time>
      </trkpt>
      <trkpt lat="47.43181" lon="6.71899">
        <ele>471</ele>
        <time>2015-08-02T08:05:27Z</time>
      </trkpt>
      <trkpt lat="47.43179" lon="6.71898">
        <ele>471</ele>
        <time>2015-08-02T08:05:28Z</time>
      </trkpt>
      <trkpt lat="47.43176" lon="6.71898">
        <ele>472</ele>
        <time>2015-08-02T08:05:28Z</time>
      </trkpt>
      <trkpt lat="47.43173" lon="6.719">
        <ele>472</ele>
        <time>2015-08-02T08:05:30Z</time>
      </trkpt>
      <trkpt lat="47.43171" lon="6.71902">
        <ele>472</ele>
        <time>2015-08-02T08:05:31Z</time>
      </trkpt>
      <trkpt lat="47.43169" lon="6.71904">
        <ele>473</ele>
        <time>2015-08-02T08:05:31Z</time>
      </trkpt>
      <trkpt lat="47.43161" lon="6.71915">
        <ele>476</ele>
        <time>2015-08-02T08:05:34Z</time>
      </trkpt>
      <trkpt lat="47.43158" lon="6.71919">
        <ele>477</ele>
        <time>2015-08-02T08:05:36Z</time>
      </trkpt>
      <trkpt lat="47.43152" lon="6.71925">
        <ele>478</ele>
        <time>2015-08-02T08:05:39Z</time>
      </trkpt>
      <trkpt lat="47.43139" lon="6.71936">
        <ele>480</ele>
        <time>2015-08-02T08:05:43Z</time>
      </trkpt>
      <trkpt lat="47.43129" lon="6.71945">
        <ele>481</ele>
        <time>2015-08-02T08:05:47Z</time>
      </trkpt>
      <trkpt lat="47.43128" lon="6.71946">
        <ele>481</ele>
        <time>2015-08-02T08:05:47Z</time>
      </trkpt>
      <trkpt lat="47.43124" lon="6.71952">
        <ele>481</ele>
        <time>2015-08-02T08:05:49Z</time>
      </trkpt>
      <trkpt lat="47.4312" lon="6.71956">
        <ele>481</ele>
        <time>2015-08-02T08:05:52Z</time>
      </trkpt>
      <trkpt lat="47.43116" lon="6.71959">
        <ele>481</ele>
        <time>2015-08-02T08:05:53Z</time>
      </trkpt>
      <trkpt lat="47.4311" lon="6.71964">
        <ele>482</ele>
        <time>2015-08-02T08:05:55Z</time>
      </trkpt>
      <trkpt lat="47.43107" lon="6.71967">
        <ele>482</ele>
        <time>2015-08-02T08:05:57Z</time>
      </trkpt>
      <trkpt lat="47.43101" lon="6.71972">
        <ele>482</ele>
        <time>2015-08-02T08:05:59Z</time>
      </trkpt>
      <trkpt lat="47.43093" lon="6.71977">
        <ele>483</ele>
        <time>2015-08-02T08:06:03Z</time>
      </trkpt>
      <trkpt lat="47.43091" lon="6.71978">
        <ele>483</ele>
        <time>2015-08-02T08:06:03Z</time>
      </trkpt>
      <trkpt lat="47.43086" lon="6.71982">
        <ele>484</ele>
        <time>2015-08-02T08:06:05Z</time>
      </trkpt>
      <trkpt lat="47.43081" lon="6.71986">
        <ele>487</ele>
        <time>2015-08-02T08:06:08Z</time>
      </trkpt>
      <trkpt lat="47.43076" lon="6.71991">
        <ele>487</ele>
        <time>2015-08-02T08:06:10Z</time>
      </trkpt>
      <trkpt lat="47.4307" lon="6.71995">
        <ele>488</ele>
        <time>2015-08-02T08:06:12Z</time>
      </trkpt>
      <trkpt lat="47.43061" lon="6.72002">
        <ele>490</ele>
        <time>2015-08-02T08:06:16Z</time>
      </trkpt>
      <trkpt lat="47.43056" lon="6.72005">
        <ele>490</ele>
        <time>2015-08-02T08:06:19Z</time>
      </trkpt>
      <trkpt lat="47.43045" lon="6.72014">
        <ele>492</ele>
        <time>2015-08-02T08:06:23Z</time>
      </trkpt>
      <trkpt lat="47.43038" lon="6.72021">
        <ele>492</ele>
        <time>2015-08-02T08:06:25Z</time>
      </trkpt>
      <trkpt lat="47.43034" lon="6.72024">
        <ele>492</ele>
        <time>2015-08-02T08:06:27Z</time>
      </trkpt>
      <trkpt lat="47.43027" lon="6.72029">
        <ele>493</ele>
        <time>2015-08-02T08:06:29Z</time>
      </trkpt>
      <trkpt lat="47.43023" lon="6.72033">
        <ele>493</ele>
        <time>2015-08-02T08:06:31Z</time>
      </trkpt>
      <trkpt lat="47.43017" lon="6.72037">
        <ele>493</ele>
        <time>2015-08-02T08:06:33Z</time>
      </trkpt>
      <trkpt lat="47.43009" lon="6.72044">
        <ele>494</ele>
        <time>2015-08-02T08:06:37Z</time>
      </trkpt>
      <trkpt lat="47.43004" lon="6.72049">
        <ele>494</ele>
        <time>2015-08-02T08:06:39Z</time>
      </trkpt>
      <trkpt lat="47.43002" lon="6.7205">
        <ele>494</ele>
        <time>2015-08-02T08:06:39Z</time>
      </trkpt>
      <trkpt lat="47.42999" lon="6.72051">
        <ele>498</ele>
        <time>2015-08-02T08:06:41Z</time>
      </trkpt>
      <trkpt lat="47.42998" lon="6.72051">
        <ele>498</ele>
        <time>2015-08-02T08:06:41Z</time>
      </trkpt>
      <trkpt lat="47.42994" lon="6.72047">
        <ele>498</ele>
        <time>2015-08-02T08:06:43Z</time>
      </trkpt>
      <trkpt lat="47.42993" lon="6.72043">
        <ele>498</ele>
        <time>2015-08-02T08:06:43Z</time>
      </trkpt>
      <trkpt lat="47.42991" lon="6.72038">
        <ele>498</ele>
        <time>2015-08-02T08:06:43Z</time>
      </trkpt>
      <trkpt lat="47.42988" lon="6.72029">
        <ele>498</ele>
        <time>2015-08-02T08:06:44Z</time>
      </trkpt>
      <trkpt lat="47.42975" lon="6.71999">
        <ele>496</ele>
        <time>2015-08-02T08:06:49Z</time>
      </trkpt>
      <trkpt lat="47.42973" lon="6.71994">
        <ele>496</ele>
        <time>2015-08-02T08:06:50Z</time>
      </trkpt>
      <trkpt lat="47.42965" lon="6.71979">
        <ele>496</ele>
        <time>2015-08-02T08:06:52Z</time>
      </trkpt>
      <trkpt lat="47.42963" lon="6.71974">
        <ele>497</ele>
        <time>2015-08-02T08:06:53Z</time>
      </trkpt>
      <trkpt lat="47.42961" lon="6.71967">
        <ele>497</ele>
        <time>2015-08-02T08:06:53Z</time>
      </trkpt>
      <trkpt lat="47.42957" lon="6.71961">
        <ele>497</ele>
        <time>2015-08-02T08:06:54Z</time>
      </trkpt>
      <trkpt lat="47.42955" lon="6.71955">
        <ele>497</ele>
        <time>2015-08-02T08:06:55Z</time>
      </trkpt>
      <trkpt lat="47.42952" lon="6.71949">
        <ele>497</ele>
        <time>2015-08-02T08:06:55Z</time>
      </trkpt>
      <trkpt lat="47.42947" lon="6.71938">
        <ele>497</ele>
        <time>2015-08-02T08:06:57Z</time>
      </trkpt>
      <trkpt lat="47.42944" lon="6.71932">
        <ele>497</ele>
        <time>2015-08-02T08:06:57Z</time>
      </trkpt>
      <trkpt lat="47.42935" lon="6.71913">
        <ele>496</ele>
        <time>2015-08-02T08:07:00Z</time>
      </trkpt>
      <trkpt lat="47.42933" lon="6.71906">
        <ele>496</ele>
        <time>2015-08-02T08:07:01Z</time>
      </trkpt>
      <trkpt lat="47.4293" lon="6.719">
        <ele>496</ele>
        <time>2015-08-02T08:07:03Z</time>
      </trkpt>
      <trkpt lat="47.42924" lon="6.71888">
        <ele>495</ele>
        <time>2015-08-02T08:07:03Z</time>
      </trkpt>
      <trkpt lat="47.42919" lon="6.71875">
        <ele>495</ele>
        <time>2015-08-02T08:07:04Z</time>
      </trkpt>
      <trkpt lat="47.42915" lon="6.7186">
        <ele>497</ele>
        <time>2015-08-02T08:07:06Z</time>
      </trkpt>
      <trkpt lat="47.42911" lon="6.71843">
        <ele>496</ele>
        <time>2015-08-02T08:07:07Z</time>
      </trkpt>
      <trkpt lat="47.42909" lon="6.71835">
        <ele>495</ele>
        <time>2015-08-02T08:07:08Z</time>
      </trkpt>
      <trkpt lat="47.42907" lon="6.71826">
        <ele>494</ele>
        <time>2015-08-02T08:07:08Z</time>
      </trkpt>
      <trkpt lat="47.42904" lon="6.71817">
        <ele>494</ele>
        <time>2015-08-02T08:07:09Z</time>
      </trkpt>
      <trkpt lat="47.42903" lon="6.71808">
        <ele>494</ele>
        <time>2015-08-02T08:07:11Z</time>
      </trkpt>
      <trkpt lat="47.429" lon="6.71799">
        <ele>494</ele>
        <time>2015-08-02T08:07:11Z</time>
      </trkpt>
      <trkpt lat="47.42893" lon="6.71781">
        <ele>493</ele>
        <time>2015-08-02T08:07:13Z</time>
      </trkpt>
      <trkpt lat="47.4289" lon="6.71772">
        <ele>493</ele>
        <time>2015-08-02T08:07:13Z</time>
      </trkpt>
      <trkpt lat="47.42883" lon="6.71755">
        <ele>492</ele>
        <time>2015-08-02T08:07:15Z</time>
      </trkpt>
      <trkpt lat="47.42877" lon="6.71739">
        <ele>489</ele>
        <time>2015-08-02T08:07:16Z</time>
      </trkpt>
      <trkpt lat="47.42871" lon="6.71722">
        <ele>489</ele>
        <time>2015-08-02T08:07:17Z</time>
      </trkpt>
      <trkpt lat="47.42867" lon="6.71714">
        <ele>489</ele>
        <time>2015-08-02T08:07:18Z</time>
      </trkpt>
      <trkpt lat="47.42864" lon="6.71706">
        <ele>489</ele>
        <time>2015-08-02T08:07:19Z</time>
      </trkpt>
      <trkpt lat="47.42861" lon="6.71698">
        <ele>489</ele>
        <time>2015-08-02T08:07:19Z</time>
      </trkpt>
      <trkpt lat="47.42857" lon="6.7169">
        <ele>489</ele>
        <time>2015-08-02T08:07:20Z</time>
      </trkpt>
      <trkpt lat="47.42854" lon="6.71682">
        <ele>489</ele>
        <time>2015-08-02T08:07:21Z</time>
      </trkpt>
      <trkpt lat="47.4285" lon="6.71674">
        <ele>489</ele>
        <time>2015-08-02T08:07:21Z</time>
      </trkpt>
      <trkpt lat="47.42845" lon="6.71666">
        <ele>487</ele>
        <time>2015-08-02T08:07:22Z</time>
      </trkpt>
      <trkpt lat="47.4284" lon="6.71658">
        <ele>487</ele>
        <time>2015-08-02T08:07:23Z</time>
      </trkpt>
      <trkpt lat="47.42831" lon="6.71644">
        <ele>488</ele>
        <time>2015-08-02T08:07:23Z</time>
      </trkpt>
      <trkpt lat="47.42826" lon="6.71637">
        <ele>488</ele>
        <time>2015-08-02T08:07:24Z</time>
      </trkpt>
      <trkpt lat="47.42812" lon="6.71616">
        <ele>488</ele>
        <time>2015-08-02T08:07:26Z</time>
      </trkpt>
      <trkpt lat="47.42806" lon="6.71609">
        <ele>487</ele>
        <time>2015-08-02T08:07:26Z</time>
      </trkpt>
      <trkpt lat="47.42801" lon="6.71604">
        <ele>488</ele>
        <time>2015-08-02T08:07:28Z</time>
      </trkpt>
      <trkpt lat="47.42796" lon="6.71598">
        <ele>488</ele>
        <time>2015-08-02T08:07:29Z</time>
      </trkpt>
      <trkpt lat="47.4279" lon="6.71593">
        <ele>488</ele>
        <time>2015-08-02T08:07:29Z</time>
      </trkpt>
      <trkpt lat="47.42785" lon="6.71586">
        <ele>488</ele>
        <time>2015-08-02T08:07:30Z</time>
      </trkpt>
      <trkpt lat="47.4278" lon="6.71581">
        <ele>485</ele>
        <time>2015-08-02T08:07:31Z</time>
      </trkpt>
      <trkpt lat="47.42775" lon="6.71575">
        <ele>486</ele>
        <time>2015-08-02T08:07:31Z</time>
      </trkpt>
      <trkpt lat="47.42769" lon="6.71569">
        <ele>486</ele>
        <time>2015-08-02T08:07:32Z</time>
      </trkpt>
      <trkpt lat="47.42764" lon="6.71564">
        <ele>486</ele>
        <time>2015-08-02T08:07:33Z</time>
      </trkpt>
      <trkpt lat="47.4276" lon="6.71556">
        <ele>485</ele>
        <time>2015-08-02T08:07:33Z</time>
      </trkpt>
      <trkpt lat="47.42756" lon="6.71547">
        <ele>485</ele>
        <time>2015-08-02T08:07:33Z</time>
      </trkpt>
      <trkpt lat="47.42749" lon="6.7153">
        <ele>487</ele>
        <time>2015-08-02T08:07:34Z</time>
      </trkpt>
      <trkpt lat="47.42745" lon="6.71521">
        <ele>486</ele>
        <time>2015-08-02T08:07:35Z</time>
      </trkpt>
      <trkpt lat="47.42741" lon="6.71511">
        <ele>485</ele>
        <time>2015-08-02T08:07:36Z</time>
      </trkpt>
      <trkpt lat="47.42736" lon="6.71502">
        <ele>485</ele>
        <time>2015-08-02T08:07:36Z</time>
      </trkpt>
      <trkpt lat="47.42732" lon="6.71493">
        <ele>483</ele>
        <time>2015-08-02T08:07:37Z</time>
      </trkpt>
      <trkpt lat="47.42718" lon="6.71456">
        <ele>483</ele>
        <time>2015-08-02T08:07:42Z</time>
      </trkpt>
      <trkpt lat="47.42708" lon="6.7143">
        <ele>482</ele>
        <time>2015-08-02T08:07:43Z</time>
      </trkpt>
      <trkpt lat="47.42703" lon="6.71411">
        <ele>479</ele>
        <time>2015-08-02T08:07:44Z</time>
      </trkpt>
      <trkpt lat="47.427" lon="6.71402">
        <ele>479</ele>
        <time>2015-08-02T08:07:45Z</time>
      </trkpt>
      <trkpt lat="47.42694" lon="6.71383">
        <ele>479</ele>
        <time>2015-08-02T08:07:46Z</time>
      </trkpt>
      <trkpt lat="47.42691" lon="6.71375">
        <ele>479</ele>
        <time>2015-08-02T08:07:47Z</time>
      </trkpt>
      <trkpt lat="47.42687" lon="6.71366">
        <ele>479</ele>
        <time>2015-08-02T08:07:47Z</time>
      </trkpt>
      <trkpt lat="47.42681" lon="6.71349">
        <ele>479</ele>
        <time>2015-08-02T08:07:50Z</time>
      </trkpt>
      <trkpt lat="47.42679" lon="6.7134">
        <ele>479</ele>
        <time>2015-08-02T08:07:50Z</time>
      </trkpt>
      <trkpt lat="47.4267" lon="6.71314">
        <ele>476</ele>
        <time>2015-08-02T08:07:52Z</time>
      </trkpt>
      <trkpt lat="47.42665" lon="6.71297">
        <ele>478</ele>
        <time>2015-08-02T08:07:53Z</time>
      </trkpt>
      <trkpt lat="47.42659" lon="6.71284">
        <ele>477</ele>
        <time>2015-08-02T08:07:55Z</time>
      </trkpt>
      <trkpt lat="47.42657" lon="6.71278">
        <ele>477</ele>
        <time>2015-08-02T08:07:56Z</time>
      </trkpt>
      <trkpt lat="47.42654" lon="6.71274">
        <ele>477</ele>
        <time>2015-08-02T08:07:56Z</time>
      </trkpt>
      <trkpt lat="47.42652" lon="6.7127">
        <ele>477</ele>
        <time>2015-08-02T08:07:58Z</time>
      </trkpt>
      <trkpt lat="47.42648" lon="6.71269">
        <ele>477</ele>
        <time>2015-08-02T08:07:59Z</time>
      </trkpt>
      <trkpt lat="47.42645" lon="6.71269">
        <ele>477</ele>
        <time>2015-08-02T08:07:59Z</time>
      </trkpt>
      <trkpt lat="47.42642" lon="6.71269">
        <ele>477</ele>
        <time>2015-08-02T08:08:00Z</time>
      </trkpt>
      <trkpt lat="47.4264" lon="6.71272">
        <ele>477</ele>
        <time>2015-08-02T08:08:01Z</time>
      </trkpt>
      <trkpt lat="47.42638" lon="6.71273">
        <ele>477</ele>
        <time>2015-08-02T08:08:01Z</time>
      </trkpt>
      <trkpt lat="47.42636" lon="6.71276">
        <ele>477</ele>
        <time>2015-08-02T08:08:02Z</time>
      </trkpt>
      <trkpt lat="47.42632" lon="6.71282">
        <ele>478</ele>
        <time>2015-08-02T08:08:03Z</time>
      </trkpt>
      <trkpt lat="47.42622" lon="6.71296">
        <ele>478</ele>
        <time>2015-08-02T08:08:05Z</time>
      </trkpt>
      <trkpt lat="47.42619" lon="6.71299">
        <ele>478</ele>
        <time>2015-08-02T08:08:06Z</time>
      </trkpt>
      <trkpt lat="47.42616" lon="6.71302">
        <ele>478</ele>
        <time>2015-08-02T08:08:06Z</time>
      </trkpt>
      <trkpt lat="47.42607" lon="6.71309">
        <ele>479</ele>
        <time>2015-08-02T08:08:08Z</time>
      </trkpt>
      <trkpt lat="47.42604" lon="6.71311">
        <ele>479</ele>
        <time>2015-08-02T08:08:10Z</time>
      </trkpt>
      <trkpt lat="47.42597" lon="6.71314">
        <ele>479</ele>
        <time>2015-08-02T08:08:11Z</time>
      </trkpt>
      <trkpt lat="47.42591" lon="6.71318">
        <ele>480</ele>
        <time>2015-08-02T08:08:13Z</time>
      </trkpt>
      <trkpt lat="47.42583" lon="6.71322">
        <ele>480</ele>
        <time>2015-08-02T08:08:13Z</time>
      </trkpt>
      <trkpt lat="47.42579" lon="6.71324">
        <ele>480</ele>
        <time>2015-08-02T08:08:14Z</time>
      </trkpt>
      <trkpt lat="47.42563" lon="6.71331">
        <ele>480</ele>
        <time>2015-08-02T08:08:16Z</time>
      </trkpt>
      <trkpt lat="47.42559" lon="6.71333">
        <ele>480</ele>
        <time>2015-08-02T08:08:17Z</time>
      </trkpt>
      <trkpt lat="47.42547" lon="6.71339">
        <ele>483</ele>
        <time>2015-08-02T08:08:19Z</time>
      </trkpt>
      <trkpt lat="47.42531" lon="6.71348">
        <ele>483</ele>
        <time>2015-08-02T08:08:23Z</time>
      </trkpt>
      <trkpt lat="47.42528" lon="6.7135">
        <ele>483</ele>
        <time>2015-08-02T08:08:23Z</time>
      </trkpt>
      <trkpt lat="47.42516" lon="6.71355">
        <ele>483</ele>
        <time>2015-08-02T08:08:25Z</time>
      </trkpt>
      <trkpt lat="47.42501" lon="6.71362">
        <ele>484</ele>
        <time>2015-08-02T08:08:28Z</time>
      </trkpt>
      <trkpt lat="47.42498" lon="6.71363">
        <ele>483</ele>
        <time>2015-08-02T08:08:29Z</time>
      </trkpt>
      <trkpt lat="47.42494" lon="6.71364">
        <ele>482</ele>
        <time>2015-08-02T08:08:30Z</time>
      </trkpt>
      <trkpt lat="47.42492" lon="6.71364">
        <ele>482</ele>
        <time>2015-08-02T08:08:31Z</time>
      </trkpt>
      <trkpt lat="47.4249" lon="6.71362">
        <ele>482</ele>
        <time>2015-08-02T08:08:32Z</time>
      </trkpt>
      <trkpt lat="47.42488" lon="6.71359">
        <ele>482</ele>
        <time>2015-08-02T08:08:33Z</time>
      </trkpt>
      <trkpt lat="47.42488" lon="6.71355">
        <ele>482</ele>
        <time>2015-08-02T08:08:33Z</time>
      </trkpt>
      <trkpt lat="47.42487" lon="6.7135">
        <ele>482</ele>
        <time>2015-08-02T08:08:33Z</time>
      </trkpt>
      <trkpt lat="47.4249" lon="6.71335">
        <ele>482</ele>
        <time>2015-08-02T08:08:35Z</time>
      </trkpt>
      <trkpt lat="47.4249" lon="6.71327">
        <ele>480</ele>
        <time>2015-08-02T08:08:35Z</time>
      </trkpt>
      <trkpt lat="47.42489" lon="6.71319">
        <ele>479</ele>
        <time>2015-08-02T08:08:37Z</time>
      </trkpt>
      <trkpt lat="47.42489" lon="6.71309">
        <ele>479</ele>
        <time>2015-08-02T08:08:38Z</time>
      </trkpt>
      <trkpt lat="47.42488" lon="6.71298">
        <ele>478</ele>
        <time>2015-08-02T08:08:38Z</time>
      </trkpt>
      <trkpt lat="47.42488" lon="6.71286">
        <ele>477</ele>
        <time>2015-08-02T08:08:39Z</time>
      </trkpt>
      <trkpt lat="47.42489" lon="6.71274">
        <ele>477</ele>
        <time>2015-08-02T08:08:40Z</time>
      </trkpt>
      <trkpt lat="47.42488" lon="6.71262">
        <ele>477</ele>
        <time>2015-08-02T08:08:40Z</time>
      </trkpt>
      <trkpt lat="47.42487" lon="6.71239">
        <ele>473</ele>
        <time>2015-08-02T08:08:42Z</time>
      </trkpt>
      <trkpt lat="47.42485" lon="6.71222">
        <ele>471</ele>
        <time>2015-08-02T08:08:43Z</time>
      </trkpt>
      <trkpt lat="47.42484" lon="6.71196">
        <ele>469</ele>
        <time>2015-08-02T08:08:45Z</time>
      </trkpt>
      <trkpt lat="47.42485" lon="6.71186">
        <ele>469</ele>
        <time>2015-08-02T08:08:46Z</time>
      </trkpt>
      <trkpt lat="47.42483" lon="6.71179">
        <ele>469</ele>
        <time>2015-08-02T08:08:46Z</time>
      </trkpt>
      <trkpt lat="47.42483" lon="6.71171">
        <ele>469</ele>
        <time>2015-08-02T08:08:47Z</time>
      </trkpt>
      <trkpt lat="47.42481" lon="6.71169">
        <ele>469</ele>
        <time>2015-08-02T08:08:48Z</time>
      </trkpt>
      <trkpt lat="47.42477" lon="6.7116">
        <ele>464</ele>
        <time>2015-08-02T08:08:48Z</time>
      </trkpt>
      <trkpt lat="47.42475" lon="6.71152">
        <ele>463</ele>
        <time>2015-08-02T08:08:49Z</time>
      </trkpt>
      <trkpt lat="47.42475" lon="6.71146">
        <ele>462</ele>
        <time>2015-08-02T08:08:51Z</time>
      </trkpt>
      <trkpt lat="47.42473" lon="6.71138">
        <ele>461</ele>
        <time>2015-08-02T08:08:51Z</time>
      </trkpt>
      <trkpt lat="47.42472" lon="6.7113">
        <ele>461</ele>
        <time>2015-08-02T08:08:52Z</time>
      </trkpt>
      <trkpt lat="47.42471" lon="6.71124">
        <ele>461</ele>
        <time>2015-08-02T08:08:53Z</time>
      </trkpt>
      <trkpt lat="47.4247" lon="6.71118">
        <ele>460</ele>
        <time>2015-08-02T08:08:53Z</time>
      </trkpt>
      <trkpt lat="47.42468" lon="6.71114">
        <ele>460</ele>
        <time>2015-08-02T08:08:53Z</time>
      </trkpt>
      <trkpt lat="47.42464" lon="6.71111">
        <ele>459</ele>
        <time>2015-08-02T08:08:54Z</time>
      </trkpt>
      <trkpt lat="47.42463" lon="6.71105">
        <ele>459</ele>
        <time>2015-08-02T08:08:54Z</time>
      </trkpt>
      <trkpt lat="47.42459" lon="6.71097">
        <ele>458</ele>
        <time>2015-08-02T08:08:55Z</time>
      </trkpt>
      <trkpt lat="47.42457" lon="6.71091">
        <ele>458</ele>
        <time>2015-08-02T08:08:56Z</time>
      </trkpt>
      <trkpt lat="47.42453" lon="6.71086">
        <ele>457</ele>
        <time>2015-08-02T08:08:56Z</time>
      </trkpt>
      <trkpt lat="47.42449" lon="6.7108">
        <ele>453</ele>
        <time>2015-08-02T08:08:57Z</time>
      </trkpt>
      <trkpt lat="47.42445" lon="6.71071">
        <ele>453</ele>
        <time>2015-08-02T08:08:58Z</time>
      </trkpt>
      <trkpt lat="47.42443" lon="6.71068">
        <ele>453</ele>
        <time>2015-08-02T08:08:58Z</time>
      </trkpt>
      <trkpt lat="47.42443" lon="6.71062">
        <ele>453</ele>
        <time>2015-08-02T08:08:59Z</time>
      </trkpt>
      <trkpt lat="47.42441" lon="6.71056">
        <ele>453</ele>
        <time>2015-08-02T08:09:00Z</time>
      </trkpt>
      <trkpt lat="47.42438" lon="6.71051">
        <ele>452</ele>
        <time>2015-08-02T08:09:00Z</time>
      </trkpt>
      <trkpt lat="47.42431" lon="6.71043">
        <ele>452</ele>
        <time>2015-08-02T08:09:02Z</time>
      </trkpt>
      <trkpt lat="47.42427" lon="6.71039">
        <ele>452</ele>
        <time>2015-08-02T08:09:02Z</time>
      </trkpt>
      <trkpt lat="47.42427" lon="6.71033">
        <ele>451</ele>
        <time>2015-08-02T08:09:03Z</time>
      </trkpt>
      <trkpt lat="47.42423" lon="6.71026">
        <ele>450</ele>
        <time>2015-08-02T08:09:04Z</time>
      </trkpt>
      <trkpt lat="47.42419" lon="6.71013">
        <ele>449</ele>
        <time>2015-08-02T08:09:04Z</time>
      </trkpt>
      <trkpt lat="47.42416" lon="6.71008">
        <ele>443</ele>
        <time>2015-08-02T08:09:05Z</time>
      </trkpt>
      <trkpt lat="47.42412" lon="6.71005">
        <ele>443</ele>
        <time>2015-08-02T08:09:06Z</time>
      </trkpt>
      <trkpt lat="47.42408" lon="6.71002">
        <ele>443</ele>
        <time>2015-08-02T08:09:06Z</time>
      </trkpt>
      <trkpt lat="47.42406" lon="6.70996">
        <ele>441</ele>
        <time>2015-08-02T08:09:07Z</time>
      </trkpt>
      <trkpt lat="47.42402" lon="6.7099">
        <ele>440</ele>
        <time>2015-08-02T08:09:08Z</time>
      </trkpt>
      <trkpt lat="47.42397" lon="6.70985">
        <ele>438</ele>
        <time>2015-08-02T08:09:08Z</time>
      </trkpt>
      <trkpt lat="47.42394" lon="6.70974">
        <ele>437</ele>
        <time>2015-08-02T08:09:10Z</time>
      </trkpt>
      <trkpt lat="47.42388" lon="6.7096">
        <ele>436</ele>
        <time>2015-08-02T08:09:11Z</time>
      </trkpt>
      <trkpt lat="47.42379" lon="6.70933">
        <ele>435</ele>
        <time>2015-08-02T08:09:13Z</time>
      </trkpt>
      <trkpt lat="47.42375" lon="6.70921">
        <ele>435</ele>
        <time>2015-08-02T08:09:13Z</time>
      </trkpt>
      <trkpt lat="47.42372" lon="6.7091">
        <ele>434</ele>
        <time>2015-08-02T08:09:13Z</time>
      </trkpt>
      <trkpt lat="47.42366" lon="6.70898">
        <ele>433</ele>
        <time>2015-08-02T08:09:14Z</time>
      </trkpt>
      <trkpt lat="47.42363" lon="6.70885">
        <ele>433</ele>
        <time>2015-08-02T08:09:14Z</time>
      </trkpt>
      <trkpt lat="47.42358" lon="6.70871">
        <ele>433</ele>
        <time>2015-08-02T08:09:15Z</time>
      </trkpt>
      <trkpt lat="47.42353" lon="6.70857">
        <ele>432</ele>
        <time>2015-08-02T08:09:16Z</time>
      </trkpt>
      <trkpt lat="47.42349" lon="6.70846">
        <ele>430</ele>
        <time>2015-08-02T08:09:16Z</time>
      </trkpt>
      <trkpt lat="47.42345" lon="6.70835">
        <ele>428</ele>
        <time>2015-08-02T08:09:18Z</time>
      </trkpt>
      <trkpt lat="47.42341" lon="6.70826">
        <ele>429</ele>
        <time>2015-08-02T08:09:19Z</time>
      </trkpt>
      <trkpt lat="47.42337" lon="6.70818">
        <ele>430</ele>
        <time>2015-08-02T08:09:19Z</time>
      </trkpt>
      <trkpt lat="47.42332" lon="6.7081">
        <ele>420</ele>
        <time>2015-08-02T08:09:20Z</time>
      </trkpt>
      <trkpt lat="47.42323" lon="6.7079">
        <ele>420</ele>
        <time>2015-08-02T08:09:22Z</time>
      </trkpt>
      <trkpt lat="47.42318" lon="6.7078">
        <ele>421</ele>
        <time>2015-08-02T08:09:23Z</time>
      </trkpt>
      <trkpt lat="47.42306" lon="6.70764">
        <ele>420</ele>
        <time>2015-08-02T08:09:23Z</time>
      </trkpt>
      <trkpt lat="47.42299" lon="6.70753">
        <ele>419</ele>
        <time>2015-08-02T08:09:24Z</time>
      </trkpt>
      <trkpt lat="47.42295" lon="6.70744">
        <ele>421</ele>
        <time>2015-08-02T08:09:25Z</time>
      </trkpt>
      <trkpt lat="47.42285" lon="6.70718">
        <ele>420</ele>
        <time>2015-08-02T08:09:26Z</time>
      </trkpt>
      <trkpt lat="47.42272" lon="6.70696">
        <ele>419</ele>
        <time>2015-08-02T08:09:27Z</time>
      </trkpt>
      <trkpt lat="47.42265" lon="6.70681">
        <ele>417</ele>
        <time>2015-08-02T08:09:28Z</time>
      </trkpt>
      <trkpt lat="47.42259" lon="6.70667">
        <ele>415</ele>
        <time>2015-08-02T08:09:29Z</time>
      </trkpt>
      <trkpt lat="47.42253" lon="6.70654">
        <ele>416</ele>
        <time>2015-08-02T08:09:29Z</time>
      </trkpt>
      <trkpt lat="47.42247" lon="6.70639">
        <ele>407</ele>
        <time>2015-08-02T08:09:30Z</time>
      </trkpt>
      <trkpt lat="47.42238" lon="6.70612">
        <ele>407</ele>
        <time>2015-08-02T08:09:33Z</time>
      </trkpt>
      <trkpt lat="47.42234" lon="6.70596">
        <ele>409</ele>
        <time>2015-08-02T08:09:33Z</time>
      </trkpt>
      <trkpt lat="47.42231" lon="6.7058">
        <ele>409</ele>
        <time>2015-08-02T08:09:34Z</time>
      </trkpt>
      <trkpt lat="47.42229" lon="6.70563">
        <ele>408</ele>
        <time>2015-08-02T08:09:34Z</time>
      </trkpt>
      <trkpt lat="47.42227" lon="6.70547">
        <ele>407</ele>
        <time>2015-08-02T08:09:35Z</time>
      </trkpt>
      <trkpt lat="47.42225" lon="6.7053">
        <ele>407</ele>
        <time>2015-08-02T08:09:36Z</time>
      </trkpt>
      <trkpt lat="47.42224" lon="6.70514">
        <ele>407</ele>
        <time>2015-08-02T08:09:36Z</time>
      </trkpt>
      <trkpt lat="47.42223" lon="6.70499">
        <ele>407</ele>
        <time>2015-08-02T08:09:37Z</time>
      </trkpt>
      <trkpt lat="47.42222" lon="6.70484">
        <ele>406</ele>
        <time>2015-08-02T08:09:38Z</time>
      </trkpt>
      <trkpt lat="47.42221" lon="6.70455">
        <ele>405</ele>
        <time>2015-08-02T08:09:39Z</time>
      </trkpt>
      <trkpt lat="47.4222" lon="6.7044">
        <ele>405</ele>
        <time>2015-08-02T08:09:40Z</time>
      </trkpt>
      <trkpt lat="47.42219" lon="6.70396">
        <ele>402</ele>
        <time>2015-08-02T08:09:42Z</time>
      </trkpt>
      <trkpt lat="47.42218" lon="6.7038">
        <ele>401</ele>
        <time>2015-08-02T08:09:42Z</time>
      </trkpt>
      <trkpt lat="47.42217" lon="6.70365">
        <ele>401</ele>
        <time>2015-08-02T08:09:43Z</time>
      </trkpt>
      <trkpt lat="47.42217" lon="6.70348">
        <ele>401</ele>
        <time>2015-08-02T08:09:43Z</time>
      </trkpt>
      <trkpt lat="47.42218" lon="6.70331">
        <ele>399</ele>
        <time>2015-08-02T08:09:43Z</time>
      </trkpt>
      <trkpt lat="47.42219" lon="6.70315">
        <ele>399</ele>
        <time>2015-08-02T08:09:44Z</time>
      </trkpt>
      <trkpt lat="47.42221" lon="6.703">
        <ele>398</ele>
        <time>2015-08-02T08:09:46Z</time>
      </trkpt>
      <trkpt lat="47.42222" lon="6.70268">
        <ele>398</ele>
        <time>2015-08-02T08:09:47Z</time>
      </trkpt>
      <trkpt lat="47.42222" lon="6.70251">
        <ele>398</ele>
        <time>2015-08-02T08:09:48Z</time>
      </trkpt>
      <trkpt lat="47.42223" lon="6.70234">
        <ele>395</ele>
        <time>2015-08-02T08:09:48Z</time>
      </trkpt>
      <trkpt lat="47.42224" lon="6.70217">
        <ele>393</ele>
        <time>2015-08-02T08:09:49Z</time>
      </trkpt>
      <trkpt lat="47.42225" lon="6.702">
        <ele>393</ele>
        <time>2015-08-02T08:09:50Z</time>
      </trkpt>
      <trkpt lat="47.42228" lon="6.70183">
        <ele>393</ele>
        <time>2015-08-02T08:09:50Z</time>
      </trkpt>
      <trkpt lat="47.42231" lon="6.70166">
        <ele>389</ele>
        <time>2015-08-02T08:09:51Z</time>
      </trkpt>
      <trkpt lat="47.42236" lon="6.70132">
        <ele>385</ele>
        <time>2015-08-02T08:09:52Z</time>
      </trkpt>
      <trkpt lat="47.42246" lon="6.70084">
        <ele>382</ele>
        <time>2015-08-02T08:09:53Z</time>
      </trkpt>
      <trkpt lat="47.42249" lon="6.7007">
        <ele>379</ele>
        <time>2015-08-02T08:09:55Z</time>
      </trkpt>
      <trkpt lat="47.42253" lon="6.70058">
        <ele>380</ele>
        <time>2015-08-02T08:09:56Z</time>
      </trkpt>
      <trkpt lat="47.42256" lon="6.70049">
        <ele>379</ele>
        <time>2015-08-02T08:09:56Z</time>
      </trkpt>
      <trkpt lat="47.42259" lon="6.7004">
        <ele>379</ele>
        <time>2015-08-02T08:09:57Z</time>
      </trkpt>
      <trkpt lat="47.4226" lon="6.70029">
        <ele>377</ele>
        <time>2015-08-02T08:09:58Z</time>
      </trkpt>
      <trkpt lat="47.4226" lon="6.70018">
        <ele>376</ele>
        <time>2015-08-02T08:09:58Z</time>
      </trkpt>
      <trkpt lat="47.4226" lon="6.69993">
        <ele>372</ele>
        <time>2015-08-02T08:10:01Z</time>
      </trkpt>
      <trkpt lat="47.4226" lon="6.69969">
        <ele>372</ele>
        <time>2015-08-02T08:10:02Z</time>
      </trkpt>
      <trkpt lat="47.42258" lon="6.69957">
        <ele>371</ele>
        <time>2015-08-02T08:10:03Z</time>
      </trkpt>
      <trkpt lat="47.42258" lon="6.69944">
        <ele>371</ele>
        <time>2015-08-02T08:10:03Z</time>
      </trkpt>
      <trkpt lat="47.42255" lon="6.69917">
        <ele>369</ele>
        <time>2015-08-02T08:10:04Z</time>
      </trkpt>
      <trkpt lat="47.42254" lon="6.69905">
        <ele>369</ele>
        <time>2015-08-02T08:10:04Z</time>
      </trkpt>
      <trkpt lat="47.42252" lon="6.69893">
        <ele>369</ele>
        <time>2015-08-02T08:10:05Z</time>
      </trkpt>
      <trkpt lat="47.4225" lon="6.69881">
        <ele>366</ele>
        <time>2015-08-02T08:10:06Z</time>
      </trkpt>
      <trkpt lat="47.42248" lon="6.69872">
        <ele>366</ele>
        <time>2015-08-02T08:10:06Z</time>
      </trkpt>
      <trkpt lat="47.42246" lon="6.69866">
        <ele>365</ele>
        <time>2015-08-02T08:10:08Z</time>
      </trkpt>
      <trkpt lat="47.42245" lon="6.69861">
        <ele>365</ele>
        <time>2015-08-02T08:10:09Z</time>
      </trkpt>
      <trkpt lat="47.42244" lon="6.69856">
        <ele>365</ele>
        <time>2015-08-02T08:10:09Z</time>
      </trkpt>
      <trkpt lat="47.42243" lon="6.69852">
        <ele>365</ele>
        <time>2015-08-02T08:10:10Z</time>
      </trkpt>
      <trkpt lat="47.42243" lon="6.69847">
        <ele>365</ele>
        <time>2015-08-02T08:10:11Z</time>
      </trkpt>
      <trkpt lat="47.42241" lon="6.69844">
        <ele>365</ele>
        <time>2015-08-02T08:10:11Z</time>
      </trkpt>
      <trkpt lat="47.42237" lon="6.69838">
        <ele>365</ele>
        <time>2015-08-02T08:10:14Z</time>
      </trkpt>
      <trkpt lat="47.42236" lon="6.69837">
        <ele>365</ele>
        <time>2015-08-02T08:10:15Z</time>
      </trkpt>
      <trkpt lat="47.42236" lon="6.69832">
        <ele>364</ele>
        <time>2015-08-02T08:10:43Z</time>
      </trkpt>
      <trkpt lat="47.42232" lon="6.6983">
        <ele>364</ele>
        <time>2015-08-02T08:10:43Z</time>
      </trkpt>
      <trkpt lat="47.42229" lon="6.69828">
        <ele>363</ele>
        <time>2015-08-02T08:10:44Z</time>
      </trkpt>
      <trkpt lat="47.42222" lon="6.69826">
        <ele>363</ele>
        <time>2015-08-02T08:10:45Z</time>
      </trkpt>
      <trkpt lat="47.42217" lon="6.69826">
        <ele>362</ele>
        <time>2015-08-02T08:10:46Z</time>
      </trkpt>
      <trkpt lat="47.4221" lon="6.69831">
        <ele>362</ele>
        <time>2015-08-02T08:10:46Z</time>
      </trkpt>
      <trkpt lat="47.42205" lon="6.69832">
        <ele>362</ele>
        <time>2015-08-02T08:10:47Z</time>
      </trkpt>
      <trkpt lat="47.42196" lon="6.69837">
        <ele>364</ele>
        <time>2015-08-02T08:10:48Z</time>
      </trkpt>
      <trkpt lat="47.42189" lon="6.69838">
        <ele>363</ele>
        <time>2015-08-02T08:10:49Z</time>
      </trkpt>
      <trkpt lat="47.42183" lon="6.69842">
        <ele>363</ele>
        <time>2015-08-02T08:10:50Z</time>
      </trkpt>
      <trkpt lat="47.42178" lon="6.69847">
        <ele>363</ele>
        <time>2015-08-02T08:10:50Z</time>
      </trkpt>
      <trkpt lat="47.42174" lon="6.69851">
        <ele>363</ele>
        <time>2015-08-02T08:10:51Z</time>
      </trkpt>
      <trkpt lat="47.4217" lon="6.69856">
        <ele>363</ele>
        <time>2015-08-02T08:10:52Z</time>
      </trkpt>
      <trkpt lat="47.42165" lon="6.69862">
        <ele>363</ele>
        <time>2015-08-02T08:10:52Z</time>
      </trkpt>
      <trkpt lat="47.42161" lon="6.69866">
        <ele>363</ele>
        <time>2015-08-02T08:10:53Z</time>
      </trkpt>
      <trkpt lat="47.42154" lon="6.69875">
        <ele>364</ele>
        <time>2015-08-02T08:10:55Z</time>
      </trkpt>
      <trkpt lat="47.4215" lon="6.69878">
        <ele>364</ele>
        <time>2015-08-02T08:10:56Z</time>
      </trkpt>
      <trkpt lat="47.42143" lon="6.69884">
        <ele>364</ele>
        <time>2015-08-02T08:10:57Z</time>
      </trkpt>
      <trkpt lat="47.42141" lon="6.69886">
        <ele>364</ele>
        <time>2015-08-02T08:10:58Z</time>
      </trkpt>
      <trkpt lat="47.42138" lon="6.69889">
        <ele>364</ele>
        <time>2015-08-02T08:10:59Z</time>
      </trkpt>
      <trkpt lat="47.42136" lon="6.69891">
        <ele>364</ele>
        <time>2015-08-02T08:10:59Z</time>
      </trkpt>
      <trkpt lat="47.42132" lon="6.69892">
        <ele>364</ele>
        <time>2015-08-02T08:11:00Z</time>
      </trkpt>
      <trkpt lat="47.42122" lon="6.69898">
        <ele>365</ele>
        <time>2015-08-02T08:11:02Z</time>
      </trkpt>
      <trkpt lat="47.42119" lon="6.69901">
        <ele>365</ele>
        <time>2015-08-02T08:11:03Z</time>
      </trkpt>
      <trkpt lat="47.42115" lon="6.69908">
        <ele>366</ele>
        <time>2015-08-02T08:11:03Z</time>
      </trkpt>
      <trkpt lat="47.42112" lon="6.69911">
        <ele>366</ele>
        <time>2015-08-02T08:11:04Z</time>
      </trkpt>
      <trkpt lat="47.42109" lon="6.69914">
        <ele>366</ele>
        <time>2015-08-02T08:11:04Z</time>
      </trkpt>
      <trkpt lat="47.42106" lon="6.69915">
        <ele>366</ele>
        <time>2015-08-02T08:11:05Z</time>
      </trkpt>
      <trkpt lat="47.42104" lon="6.69916">
        <ele>367</ele>
        <time>2015-08-02T08:11:07Z</time>
      </trkpt>
      <trkpt lat="47.42096" lon="6.69919">
        <ele>370</ele>
        <time>2015-08-02T08:11:10Z</time>
      </trkpt>
      <trkpt lat="47.42081" lon="6.69922">
        <ele>372</ele>
        <time>2015-08-02T08:11:12Z</time>
      </trkpt>
      <trkpt lat="47.42077" lon="6.69922">
        <ele>372</ele>
        <time>2015-08-02T08:11:13Z</time>
      </trkpt>
      <trkpt lat="47.42074" lon="6.69924">
        <ele>373</ele>
        <time>2015-08-02T08:11:13Z</time>
      </trkpt>
      <trkpt lat="47.42071" lon="6.69925">
        <ele>374</ele>
        <time>2015-08-02T08:11:13Z</time>
      </trkpt>
      <trkpt lat="47.42068" lon="6.69926">
        <ele>374</ele>
        <time>2015-08-02T08:11:14Z</time>
      </trkpt>
      <trkpt lat="47.42065" lon="6.69927">
        <ele>375</ele>
        <time>2015-08-02T08:11:15Z</time>
      </trkpt>
      <trkpt lat="47.42062" lon="6.69927">
        <ele>375</ele>
        <time>2015-08-02T08:11:15Z</time>
      </trkpt>
      <trkpt lat="47.42055" lon="6.69927">
        <ele>376</ele>
        <time>2015-08-02T08:11:17Z</time>
      </trkpt>
      <trkpt lat="47.42044" lon="6.69928">
        <ele>376</ele>
        <time>2015-08-02T08:11:19Z</time>
      </trkpt>
      <trkpt lat="47.42033" lon="6.69929">
        <ele>376</ele>
        <time>2015-08-02T08:11:21Z</time>
      </trkpt>
      <trkpt lat="47.4201" lon="6.69932">
        <ele>375</ele>
        <time>2015-08-02T08:11:26Z</time>
      </trkpt>
      <trkpt lat="47.42005" lon="6.69933">
        <ele>375</ele>
        <time>2015-08-02T08:11:26Z</time>
      </trkpt>
      <trkpt lat="47.42001" lon="6.69933">
        <ele>375</ele>
        <time>2015-08-02T08:11:27Z</time>
      </trkpt>
      <trkpt lat="47.41994" lon="6.69932">
        <ele>374</ele>
        <time>2015-08-02T08:11:28Z</time>
      </trkpt>
      <trkpt lat="47.41989" lon="6.69933">
        <ele>375</ele>
        <time>2015-08-02T08:11:28Z</time>
      </trkpt>
      <trkpt lat="47.41984" lon="6.69933">
        <ele>375</ele>
        <time>2015-08-02T08:11:29Z</time>
      </trkpt>
      <trkpt lat="47.41979" lon="6.69934">
        <ele>375</ele>
        <time>2015-08-02T08:11:30Z</time>
      </trkpt>
      <trkpt lat="47.41973" lon="6.69934">
        <ele>375</ele>
        <time>2015-08-02T08:11:30Z</time>
      </trkpt>
      <trkpt lat="47.41968" lon="6.69935">
        <ele>375</ele>
        <time>2015-08-02T08:11:31Z</time>
      </trkpt>
      <trkpt lat="47.41952" lon="6.69938">
        <ele>375</ele>
        <time>2015-08-02T08:11:33Z</time>
      </trkpt>
      <trkpt lat="47.41947" lon="6.6994">
        <ele>374</ele>
        <time>2015-08-02T08:11:33Z</time>
      </trkpt>
      <trkpt lat="47.41942" lon="6.69943">
        <ele>374</ele>
        <time>2015-08-02T08:11:33Z</time>
      </trkpt>
      <trkpt lat="47.41932" lon="6.69945">
        <ele>374</ele>
        <time>2015-08-02T08:11:36Z</time>
      </trkpt>
      <trkpt lat="47.41922" lon="6.69949">
        <ele>374</ele>
        <time>2015-08-02T08:11:37Z</time>
      </trkpt>
      <trkpt lat="47.41917" lon="6.6995">
        <ele>370</ele>
        <time>2015-08-02T08:11:38Z</time>
      </trkpt>
      <trkpt lat="47.41911" lon="6.69951">
        <ele>370</ele>
        <time>2015-08-02T08:11:38Z</time>
      </trkpt>
      <trkpt lat="47.419" lon="6.69955">
        <ele>370</ele>
        <time>2015-08-02T08:11:41Z</time>
      </trkpt>
      <trkpt lat="47.41895" lon="6.69957">
        <ele>370</ele>
        <time>2015-08-02T08:11:41Z</time>
      </trkpt>
      <trkpt lat="47.4189" lon="6.69959">
        <ele>370</ele>
        <time>2015-08-02T08:11:42Z</time>
      </trkpt>
      <trkpt lat="47.41881" lon="6.69965">
        <ele>370</ele>
        <time>2015-08-02T08:11:43Z</time>
      </trkpt>
      <trkpt lat="47.41874" lon="6.69967">
        <ele>370</ele>
        <time>2015-08-02T08:11:43Z</time>
      </trkpt>
      <trkpt lat="47.41868" lon="6.69969">
        <ele>370</ele>
        <time>2015-08-02T08:11:44Z</time>
      </trkpt>
      <trkpt lat="47.41863" lon="6.69972">
        <ele>370</ele>
        <time>2015-08-02T08:11:44Z</time>
      </trkpt>
      <trkpt lat="47.41858" lon="6.69976">
        <ele>370</ele>
        <time>2015-08-02T08:11:45Z</time>
      </trkpt>
      <trkpt lat="47.41853" lon="6.69979">
        <ele>370</ele>
        <time>2015-08-02T08:11:46Z</time>
      </trkpt>
      <trkpt lat="47.41847" lon="6.69982">
        <ele>370</ele>
        <time>2015-08-02T08:11:46Z</time>
      </trkpt>
      <trkpt lat="47.41842" lon="6.69984">
        <ele>370</ele>
        <time>2015-08-02T08:11:47Z</time>
      </trkpt>
      <trkpt lat="47.41826" lon="6.69986">
        <ele>369</ele>
        <time>2015-08-02T08:11:50Z</time>
      </trkpt>
      <trkpt lat="47.4182" lon="6.69986">
        <ele>368</ele>
        <time>2015-08-02T08:11:51Z</time>
      </trkpt>
      <trkpt lat="47.41815" lon="6.69986">
        <ele>368</ele>
        <time>2015-08-02T08:11:51Z</time>
      </trkpt>
      <trkpt lat="47.4181" lon="6.69986">
        <ele>368</ele>
        <time>2015-08-02T08:11:52Z</time>
      </trkpt>
      <trkpt lat="47.41806" lon="6.69986">
        <ele>368</ele>
        <time>2015-08-02T08:11:53Z</time>
      </trkpt>
      <trkpt lat="47.418" lon="6.69986">
        <ele>368</ele>
        <time>2015-08-02T08:11:53Z</time>
      </trkpt>
      <trkpt lat="47.41796" lon="6.69987">
        <ele>368</ele>
        <time>2015-08-02T08:11:54Z</time>
      </trkpt>
      <trkpt lat="47.4179" lon="6.69988">
        <ele>368</ele>
        <time>2015-08-02T08:11:55Z</time>
      </trkpt>
      <trkpt lat="47.41785" lon="6.69989">
        <ele>369</ele>
        <time>2015-08-02T08:11:55Z</time>
      </trkpt>
      <trkpt lat="47.4178" lon="6.69989">
        <ele>369</ele>
        <time>2015-08-02T08:11:56Z</time>
      </trkpt>
      <trkpt lat="47.41775" lon="6.69989">
        <ele>369</ele>
        <time>2015-08-02T08:11:57Z</time>
      </trkpt>
      <trkpt lat="47.4177" lon="6.69989">
        <ele>369</ele>
        <time>2015-08-02T08:11:57Z</time>
      </trkpt>
      <trkpt lat="47.41765" lon="6.69989">
        <ele>370</ele>
        <time>2015-08-02T08:11:58Z</time>
      </trkpt>
      <trkpt lat="47.41755" lon="6.69989">
        <ele>370</ele>
        <time>2015-08-02T08:11:59Z</time>
      </trkpt>
      <trkpt lat="47.41751" lon="6.6999">
        <ele>370</ele>
        <time>2015-08-02T08:12:00Z</time>
      </trkpt>
      <trkpt lat="47.41745" lon="6.69991">
        <ele>370</ele>
        <time>2015-08-02T08:12:01Z</time>
      </trkpt>
      <trkpt lat="47.4174" lon="6.69992">
        <ele>370</ele>
        <time>2015-08-02T08:12:01Z</time>
      </trkpt>
      <trkpt lat="47.41735" lon="6.69992">
        <ele>370</ele>
        <time>2015-08-02T08:12:02Z</time>
      </trkpt>
      <trkpt lat="47.41731" lon="6.69992">
        <ele>370</ele>
        <time>2015-08-02T08:12:03Z</time>
      </trkpt>
      <trkpt lat="47.41726" lon="6.69994">
        <ele>369</ele>
        <time>2015-08-02T08:12:03Z</time>
      </trkpt>
      <trkpt lat="47.41716" lon="6.69995">
        <ele>369</ele>
        <time>2015-08-02T08:12:05Z</time>
      </trkpt>
      <trkpt lat="47.41711" lon="6.69996">
        <ele>369</ele>
        <time>2015-08-02T08:12:05Z</time>
      </trkpt>
      <trkpt lat="47.41706" lon="6.69999">
        <ele>369</ele>
        <time>2015-08-02T08:12:06Z</time>
      </trkpt>
      <trkpt lat="47.41702" lon="6.70001">
        <ele>378</ele>
        <time>2015-08-02T08:12:07Z</time>
      </trkpt>
      <trkpt lat="47.4169" lon="6.70011">
        <ele>378</ele>
        <time>2015-08-02T08:12:09Z</time>
      </trkpt>
      <trkpt lat="47.41682" lon="6.70017">
        <ele>378</ele>
        <time>2015-08-02T08:12:10Z</time>
      </trkpt>
      <trkpt lat="47.41675" lon="6.70023">
        <ele>379</ele>
        <time>2015-08-02T08:12:12Z</time>
      </trkpt>
      <trkpt lat="47.41671" lon="6.70026">
        <ele>379</ele>
        <time>2015-08-02T08:12:13Z</time>
      </trkpt>
      <trkpt lat="47.41667" lon="6.70025">
        <ele>379</ele>
        <time>2015-08-02T08:12:13Z</time>
      </trkpt>
      <trkpt lat="47.41663" lon="6.70027">
        <ele>377</ele>
        <time>2015-08-02T08:12:13Z</time>
      </trkpt>
      <trkpt lat="47.41659" lon="6.7003">
        <ele>377</ele>
        <time>2015-08-02T08:12:14Z</time>
      </trkpt>
      <trkpt lat="47.41655" lon="6.70031">
        <ele>378</ele>
        <time>2015-08-02T08:12:15Z</time>
      </trkpt>
      <trkpt lat="47.41651" lon="6.70034">
        <ele>378</ele>
        <time>2015-08-02T08:12:15Z</time>
      </trkpt>
      <trkpt lat="47.41648" lon="6.70035">
        <ele>378</ele>
        <time>2015-08-02T08:12:16Z</time>
      </trkpt>
      <trkpt lat="47.41641" lon="6.70038">
        <ele>378</ele>
        <time>2015-08-02T08:12:18Z</time>
      </trkpt>
      <trkpt lat="47.41638" lon="6.7004">
        <ele>378</ele>
        <time>2015-08-02T08:12:19Z</time>
      </trkpt>
      <trkpt lat="47.41635" lon="6.70042">
        <ele>379</ele>
        <time>2015-08-02T08:12:20Z</time>
      </trkpt>
      <trkpt lat="47.41624" lon="6.70052">
        <ele>379</ele>
        <time>2015-08-02T08:12:22Z</time>
      </trkpt>
      <trkpt lat="47.41619" lon="6.70056">
        <ele>379</ele>
        <time>2015-08-02T08:12:23Z</time>
      </trkpt>
      <trkpt lat="47.41613" lon="6.70061">
        <ele>379</ele>
        <time>2015-08-02T08:12:24Z</time>
      </trkpt>
      <trkpt lat="47.41604" lon="6.70067">
        <ele>380</ele>
        <time>2015-08-02T08:12:27Z</time>
      </trkpt>
      <trkpt lat="47.41595" lon="6.70076">
        <ele>381</ele>
        <time>2015-08-02T08:12:29Z</time>
      </trkpt>
      <trkpt lat="47.41588" lon="6.70081">
        <ele>381</ele>
        <time>2015-08-02T08:12:30Z</time>
      </trkpt>
      <trkpt lat="47.41585" lon="6.70083">
        <ele>382</ele>
        <time>2015-08-02T08:12:32Z</time>
      </trkpt>
      <trkpt lat="47.41582" lon="6.70086">
        <ele>382</ele>
        <time>2015-08-02T08:12:33Z</time>
      </trkpt>
      <trkpt lat="47.41579" lon="6.7009">
        <ele>382</ele>
        <time>2015-08-02T08:12:33Z</time>
      </trkpt>
      <trkpt lat="47.41576" lon="6.70094">
        <ele>382</ele>
        <time>2015-08-02T08:12:33Z</time>
      </trkpt>
      <trkpt lat="47.41573" lon="6.70098">
        <ele>382</ele>
        <time>2015-08-02T08:12:34Z</time>
      </trkpt>
      <trkpt lat="47.41568" lon="6.70106">
        <ele>383</ele>
        <time>2015-08-02T08:12:35Z</time>
      </trkpt>
      <trkpt lat="47.41565" lon="6.70111">
        <ele>383</ele>
        <time>2015-08-02T08:12:36Z</time>
      </trkpt>
      <trkpt lat="47.41562" lon="6.70119">
        <ele>383</ele>
        <time>2015-08-02T08:12:37Z</time>
      </trkpt>
      <trkpt lat="47.4156" lon="6.70123">
        <ele>384</ele>
        <time>2015-08-02T08:12:38Z</time>
      </trkpt>
      <trkpt lat="47.41557" lon="6.70127">
        <ele>384</ele>
        <time>2015-08-02T08:12:38Z</time>
      </trkpt>
      <trkpt lat="47.41554" lon="6.7013">
        <ele>384</ele>
        <time>2015-08-02T08:12:39Z</time>
      </trkpt>
      <trkpt lat="47.41547" lon="6.70136">
        <ele>384</ele>
        <time>2015-08-02T08:12:40Z</time>
      </trkpt>
      <trkpt lat="47.41542" lon="6.70142">
        <ele>383</ele>
        <time>2015-08-02T08:12:40Z</time>
      </trkpt>
      <trkpt lat="47.41537" lon="6.70145">
        <ele>383</ele>
        <time>2015-08-02T08:12:42Z</time>
      </trkpt>
      <trkpt lat="47.41528" lon="6.7015">
        <ele>382</ele>
        <time>2015-08-02T08:12:43Z</time>
      </trkpt>
      <trkpt lat="47.41522" lon="6.70153">
        <ele>382</ele>
        <time>2015-08-02T08:12:43Z</time>
      </trkpt>
      <trkpt lat="47.41513" lon="6.70158">
        <ele>381</ele>
        <time>2015-08-02T08:12:45Z</time>
      </trkpt>
      <trkpt lat="47.41509" lon="6.7016">
        <ele>381</ele>
        <time>2015-08-02T08:12:46Z</time>
      </trkpt>
      <trkpt lat="47.41504" lon="6.70161">
        <ele>381</ele>
        <time>2015-08-02T08:12:47Z</time>
      </trkpt>
      <trkpt lat="47.41496" lon="6.70166">
        <ele>379</ele>
        <time>2015-08-02T08:12:48Z</time>
      </trkpt>
      <trkpt lat="47.41491" lon="6.70165">
        <ele>377</ele>
        <time>2015-08-02T08:12:49Z</time>
      </trkpt>
      <trkpt lat="47.41486" lon="6.70167">
        <ele>380</ele>
        <time>2015-08-02T08:12:49Z</time>
      </trkpt>
      <trkpt lat="47.41481" lon="6.70169">
        <ele>380</ele>
        <time>2015-08-02T08:12:50Z</time>
      </trkpt>
      <trkpt lat="47.41476" lon="6.70172">
        <ele>379</ele>
        <time>2015-08-02T08:12:51Z</time>
      </trkpt>
      <trkpt lat="47.4147" lon="6.70173">
        <ele>379</ele>
        <time>2015-08-02T08:12:51Z</time>
      </trkpt>
      <trkpt lat="47.41464" lon="6.70176">
        <ele>379</ele>
        <time>2015-08-02T08:12:52Z</time>
      </trkpt>
      <trkpt lat="47.41459" lon="6.7018">
        <ele>378</ele>
        <time>2015-08-02T08:12:53Z</time>
      </trkpt>
      <trkpt lat="47.41453" lon="6.70183">
        <ele>378</ele>
        <time>2015-08-02T08:12:53Z</time>
      </trkpt>
      <trkpt lat="47.41447" lon="6.70187">
        <ele>378</ele>
        <time>2015-08-02T08:12:53Z</time>
      </trkpt>
      <trkpt lat="47.41441" lon="6.70193">
        <ele>377</ele>
        <time>2015-08-02T08:12:54Z</time>
      </trkpt>
      <trkpt lat="47.41436" lon="6.70199">
        <ele>377</ele>
        <time>2015-08-02T08:12:54Z</time>
      </trkpt>
      <trkpt lat="47.41432" lon="6.70204">
        <ele>378</ele>
        <time>2015-08-02T08:12:55Z</time>
      </trkpt>
      <trkpt lat="47.41429" lon="6.70211">
        <ele>378</ele>
        <time>2015-08-02T08:12:57Z</time>
      </trkpt>
      <trkpt lat="47.41426" lon="6.70221">
        <ele>378</ele>
        <time>2015-08-02T08:12:57Z</time>
      </trkpt>
      <trkpt lat="47.41416" lon="6.70239">
        <ele>374</ele>
        <time>2015-08-02T08:13:00Z</time>
      </trkpt>
      <trkpt lat="47.4141" lon="6.70252">
        <ele>376</ele>
        <time>2015-08-02T08:13:00Z</time>
      </trkpt>
      <trkpt lat="47.41405" lon="6.70261">
        <ele>377</ele>
        <time>2015-08-02T08:13:01Z</time>
      </trkpt>
      <trkpt lat="47.41402" lon="6.70269">
        <ele>377</ele>
        <time>2015-08-02T08:13:02Z</time>
      </trkpt>
      <trkpt lat="47.41397" lon="6.7028">
        <ele>377</ele>
        <time>2015-08-02T08:13:02Z</time>
      </trkpt>
      <trkpt lat="47.41393" lon="6.70287">
        <ele>378</ele>
        <time>2015-08-02T08:13:03Z</time>
      </trkpt>
      <trkpt lat="47.41384" lon="6.70298">
        <ele>378</ele>
        <time>2015-08-02T08:13:03Z</time>
      </trkpt>
      <trkpt lat="47.41379" lon="6.70303">
        <ele>378</ele>
        <time>2015-08-02T08:13:04Z</time>
      </trkpt>
      <trkpt lat="47.41374" lon="6.70307">
        <ele>378</ele>
        <time>2015-08-02T08:13:05Z</time>
      </trkpt>
      <trkpt lat="47.41369" lon="6.70313">
        <ele>378</ele>
        <time>2015-08-02T08:13:05Z</time>
      </trkpt>
      <trkpt lat="47.41364" lon="6.70318">
        <ele>378</ele>
        <time>2015-08-02T08:13:06Z</time>
      </trkpt>
      <trkpt lat="47.4136" lon="6.70321">
        <ele>378</ele>
        <time>2015-08-02T08:13:07Z</time>
      </trkpt>
      <trkpt lat="47.41356" lon="6.70326">
        <ele>378</ele>
        <time>2015-08-02T08:13:07Z</time>
      </trkpt>
      <trkpt lat="47.41353" lon="6.70329">
        <ele>378</ele>
        <time>2015-08-02T08:13:08Z</time>
      </trkpt>
      <trkpt lat="47.4135" lon="6.70333">
        <ele>377</ele>
        <time>2015-08-02T08:13:09Z</time>
      </trkpt>
      <trkpt lat="47.41348" lon="6.70338">
        <ele>384</ele>
        <time>2015-08-02T08:13:09Z</time>
      </trkpt>
      <trkpt lat="47.41346" lon="6.70343">
        <ele>384</ele>
        <time>2015-08-02T08:13:10Z</time>
      </trkpt>
      <trkpt lat="47.41344" lon="6.70348">
        <ele>385</ele>
        <time>2015-08-02T08:13:11Z</time>
      </trkpt>
      <trkpt lat="47.41342" lon="6.70352">
        <ele>385</ele>
        <time>2015-08-02T08:13:11Z</time>
      </trkpt>
      <trkpt lat="47.41338" lon="6.70355">
        <ele>386</ele>
        <time>2015-08-02T08:13:13Z</time>
      </trkpt>
      <trkpt lat="47.41335" lon="6.70358">
        <ele>386</ele>
        <time>2015-08-02T08:13:14Z</time>
      </trkpt>
      <trkpt lat="47.41333" lon="6.70364">
        <ele>382</ele>
        <time>2015-08-02T08:13:14Z</time>
      </trkpt>
      <trkpt lat="47.41329" lon="6.70369">
        <ele>382</ele>
        <time>2015-08-02T08:13:15Z</time>
      </trkpt>
      <trkpt lat="47.41323" lon="6.70376">
        <ele>383</ele>
        <time>2015-08-02T08:13:16Z</time>
      </trkpt>
      <trkpt lat="47.41318" lon="6.70383">
        <ele>384</ele>
        <time>2015-08-02T08:13:17Z</time>
      </trkpt>
      <trkpt lat="47.41313" lon="6.70385">
        <ele>384</ele>
        <time>2015-08-02T08:13:18Z</time>
      </trkpt>
      <trkpt lat="47.41307" lon="6.7039">
        <ele>384</ele>
        <time>2015-08-02T08:13:18Z</time>
      </trkpt>
      <trkpt lat="47.41304" lon="6.70395">
        <ele>384</ele>
        <time>2015-08-02T08:13:19Z</time>
      </trkpt>
      <trkpt lat="47.413" lon="6.70397">
        <ele>384</ele>
        <time>2015-08-02T08:13:20Z</time>
      </trkpt>
      <trkpt lat="47.41296" lon="6.70401">
        <ele>383</ele>
        <time>2015-08-02T08:13:20Z</time>
      </trkpt>
      <trkpt lat="47.41293" lon="6.70403">
        <ele>383</ele>
        <time>2015-08-02T08:13:21Z</time>
      </trkpt>
      <trkpt lat="47.4129" lon="6.70406">
        <ele>383</ele>
        <time>2015-08-02T08:13:22Z</time>
      </trkpt>
      <trkpt lat="47.41284" lon="6.70411">
        <ele>382</ele>
        <time>2015-08-02T08:13:23Z</time>
      </trkpt>
      <trkpt lat="47.4128" lon="6.70414">
        <ele>382</ele>
        <time>2015-08-02T08:13:23Z</time>
      </trkpt>
      <trkpt lat="47.41277" lon="6.70417">
        <ele>388</ele>
        <time>2015-08-02T08:13:23Z</time>
      </trkpt>
      <trkpt lat="47.41273" lon="6.70421">
        <ele>387</ele>
        <time>2015-08-02T08:13:24Z</time>
      </trkpt>
      <trkpt lat="47.4127" lon="6.70426">
        <ele>387</ele>
        <time>2015-08-02T08:13:26Z</time>
      </trkpt>
      <trkpt lat="47.41267" lon="6.70431">
        <ele>387</ele>
        <time>2015-08-02T08:13:26Z</time>
      </trkpt>
      <trkpt lat="47.4126" lon="6.70442">
        <ele>388</ele>
        <time>2015-08-02T08:13:29Z</time>
      </trkpt>
      <trkpt lat="47.41257" lon="6.70445">
        <ele>388</ele>
        <time>2015-08-02T08:13:30Z</time>
      </trkpt>
      <trkpt lat="47.41252" lon="6.7045">
        <ele>389</ele>
        <time>2015-08-02T08:13:31Z</time>
      </trkpt>
      <trkpt lat="47.41247" lon="6.70456">
        <ele>387</ele>
        <time>2015-08-02T08:13:33Z</time>
      </trkpt>
      <trkpt lat="47.41242" lon="6.70463">
        <ele>388</ele>
        <time>2015-08-02T08:13:33Z</time>
      </trkpt>
      <trkpt lat="47.4124" lon="6.70466">
        <ele>388</ele>
        <time>2015-08-02T08:13:34Z</time>
      </trkpt>
      <trkpt lat="47.41237" lon="6.70475">
        <ele>388</ele>
        <time>2015-08-02T08:13:35Z</time>
      </trkpt>
      <trkpt lat="47.41234" lon="6.70484">
        <ele>389</ele>
        <time>2015-08-02T08:13:36Z</time>
      </trkpt>
      <trkpt lat="47.4123" lon="6.70496">
        <ele>389</ele>
        <time>2015-08-02T08:13:38Z</time>
      </trkpt>
      <trkpt lat="47.41229" lon="6.70501">
        <ele>393</ele>
        <time>2015-08-02T08:13:40Z</time>
      </trkpt>
      <trkpt lat="47.41224" lon="6.70509">
        <ele>394</ele>
        <time>2015-08-02T08:13:41Z</time>
      </trkpt>
      <trkpt lat="47.41222" lon="6.70513">
        <ele>394</ele>
        <time>2015-08-02T08:13:43Z</time>
      </trkpt>
      <trkpt lat="47.4122" lon="6.70518">
        <ele>394</ele>
        <time>2015-08-02T08:13:43Z</time>
      </trkpt>
      <trkpt lat="47.41214" lon="6.70536">
        <ele>395</ele>
        <time>2015-08-02T08:13:45Z</time>
      </trkpt>
      <trkpt lat="47.41208" lon="6.70554">
        <ele>396</ele>
        <time>2015-08-02T08:13:47Z</time>
      </trkpt>
      <trkpt lat="47.41207" lon="6.70561">
        <ele>396</ele>
        <time>2015-08-02T08:13:47Z</time>
      </trkpt>
      <trkpt lat="47.41198" lon="6.70585">
        <ele>400</ele>
        <time>2015-08-02T08:13:49Z</time>
      </trkpt>
      <trkpt lat="47.41198" lon="6.70592">
        <ele>400</ele>
        <time>2015-08-02T08:13:49Z</time>
      </trkpt>
      <trkpt lat="47.41196" lon="6.70598">
        <ele>400</ele>
        <time>2015-08-02T08:13:50Z</time>
      </trkpt>
      <trkpt lat="47.41196" lon="6.70606">
        <ele>401</ele>
        <time>2015-08-02T08:13:51Z</time>
      </trkpt>
      <trkpt lat="47.41195" lon="6.70611">
        <ele>401</ele>
        <time>2015-08-02T08:13:51Z</time>
      </trkpt>
      <trkpt lat="47.41194" lon="6.70617">
        <ele>401</ele>
        <time>2015-08-02T08:13:52Z</time>
      </trkpt>
      <trkpt lat="47.41191" lon="6.70626">
        <ele>402</ele>
        <time>2015-08-02T08:13:53Z</time>
      </trkpt>
      <trkpt lat="47.41189" lon="6.70633">
        <ele>402</ele>
        <time>2015-08-02T08:13:53Z</time>
      </trkpt>
      <trkpt lat="47.41187" lon="6.7064">
        <ele>401</ele>
        <time>2015-08-02T08:13:54Z</time>
      </trkpt>
      <trkpt lat="47.41185" lon="6.70645">
        <ele>401</ele>
        <time>2015-08-02T08:13:55Z</time>
      </trkpt>
      <trkpt lat="47.41182" lon="6.70649">
        <ele>401</ele>
        <time>2015-08-02T08:13:55Z</time>
      </trkpt>
      <trkpt lat="47.4118" lon="6.70655">
        <ele>400</ele>
        <time>2015-08-02T08:13:56Z</time>
      </trkpt>
      <trkpt lat="47.41176" lon="6.70667">
        <ele>402</ele>
        <time>2015-08-02T08:13:57Z</time>
      </trkpt>
      <trkpt lat="47.41174" lon="6.70673">
        <ele>402</ele>
        <time>2015-08-02T08:13:58Z</time>
      </trkpt>
      <trkpt lat="47.4117" lon="6.70688">
        <ele>405</ele>
        <time>2015-08-02T08:14:01Z</time>
      </trkpt>
      <trkpt lat="47.41167" lon="6.70696">
        <ele>406</ele>
        <time>2015-08-02T08:14:02Z</time>
      </trkpt>
      <trkpt lat="47.41166" lon="6.707">
        <ele>401</ele>
        <time>2015-08-02T08:14:03Z</time>
      </trkpt>
      <trkpt lat="47.41164" lon="6.70713">
        <ele>401</ele>
        <time>2015-08-02T08:14:04Z</time>
      </trkpt>
      <trkpt lat="47.41161" lon="6.70729">
        <ele>402</ele>
        <time>2015-08-02T08:14:06Z</time>
      </trkpt>
      <trkpt lat="47.4116" lon="6.70739">
        <ele>402</ele>
        <time>2015-08-02T08:14:08Z</time>
      </trkpt>
      <trkpt lat="47.41158" lon="6.70744">
        <ele>402</ele>
        <time>2015-08-02T08:14:09Z</time>
      </trkpt>
      <trkpt lat="47.41156" lon="6.70748">
        <ele>402</ele>
        <time>2015-08-02T08:14:10Z</time>
      </trkpt>
      <trkpt lat="47.41154" lon="6.70752">
        <ele>401</ele>
        <time>2015-08-02T08:14:10Z</time>
      </trkpt>
      <trkpt lat="47.4115" lon="6.70767">
        <ele>401</ele>
        <time>2015-08-02T08:14:11Z</time>
      </trkpt>
      <trkpt lat="47.41147" lon="6.70773">
        <ele>401</ele>
        <time>2015-08-02T08:14:12Z</time>
      </trkpt>
      <trkpt lat="47.41143" lon="6.70777">
        <ele>401</ele>
        <time>2015-08-02T08:14:12Z</time>
      </trkpt>
      <trkpt lat="47.41136" lon="6.7078">
        <ele>400</ele>
        <time>2015-08-02T08:14:13Z</time>
      </trkpt>
      <trkpt lat="47.41127" lon="6.70782">
        <ele>400</ele>
        <time>2015-08-02T08:14:13Z</time>
      </trkpt>
      <trkpt lat="47.41121" lon="6.70787">
        <ele>399</ele>
        <time>2015-08-02T08:14:13Z</time>
      </trkpt>
      <trkpt lat="47.41118" lon="6.70794">
        <ele>399</ele>
        <time>2015-08-02T08:14:14Z</time>
      </trkpt>
      <trkpt lat="47.41114" lon="6.70802">
        <ele>398</ele>
        <time>2015-08-02T08:14:16Z</time>
      </trkpt>
      <trkpt lat="47.41111" lon="6.70809">
        <ele>398</ele>
        <time>2015-08-02T08:14:16Z</time>
      </trkpt>
      <trkpt lat="47.41106" lon="6.70815">
        <ele>397</ele>
        <time>2015-08-02T08:14:17Z</time>
      </trkpt>
      <trkpt lat="47.41104" lon="6.7082">
        <ele>396</ele>
        <time>2015-08-02T08:14:18Z</time>
      </trkpt>
      <trkpt lat="47.41101" lon="6.70825">
        <ele>395</ele>
        <time>2015-08-02T08:14:18Z</time>
      </trkpt>
      <trkpt lat="47.41098" lon="6.70832">
        <ele>394</ele>
        <time>2015-08-02T08:14:19Z</time>
      </trkpt>
      <trkpt lat="47.41097" lon="6.70839">
        <ele>394</ele>
        <time>2015-08-02T08:14:20Z</time>
      </trkpt>
      <trkpt lat="47.41096" lon="6.70858">
        <ele>397</ele>
        <time>2015-08-02T08:14:22Z</time>
      </trkpt>
      <trkpt lat="47.41092" lon="6.7087">
        <ele>398</ele>
        <time>2015-08-02T08:14:23Z</time>
      </trkpt>
      <trkpt lat="47.4109" lon="6.70878">
        <ele>398</ele>
        <time>2015-08-02T08:14:23Z</time>
      </trkpt>
      <trkpt lat="47.4109" lon="6.70884">
        <ele>398</ele>
        <time>2015-08-02T08:14:24Z</time>
      </trkpt>
      <trkpt lat="47.41093" lon="6.70893">
        <ele>398</ele>
        <time>2015-08-02T08:14:24Z</time>
      </trkpt>
      <trkpt lat="47.41093" lon="6.709">
        <ele>397</ele>
        <time>2015-08-02T08:14:25Z</time>
      </trkpt>
      <trkpt lat="47.41093" lon="6.70908">
        <ele>396</ele>
        <time>2015-08-02T08:14:26Z</time>
      </trkpt>
      <trkpt lat="47.41094" lon="6.70915">
        <ele>396</ele>
        <time>2015-08-02T08:14:26Z</time>
      </trkpt>
      <trkpt lat="47.4109" lon="6.70918">
        <ele>396</ele>
        <time>2015-08-02T08:14:28Z</time>
      </trkpt>
      <trkpt lat="47.4109" lon="6.70924">
        <ele>398</ele>
        <time>2015-08-02T08:14:29Z</time>
      </trkpt>
      <trkpt lat="47.4109" lon="6.7093">
        <ele>400</ele>
        <time>2015-08-02T08:14:29Z</time>
      </trkpt>
      <trkpt lat="47.4109" lon="6.70935">
        <ele>401</ele>
        <time>2015-08-02T08:14:30Z</time>
      </trkpt>
      <trkpt lat="47.41089" lon="6.7094">
        <ele>402</ele>
        <time>2015-08-02T08:14:31Z</time>
      </trkpt>
      <trkpt lat="47.41089" lon="6.70944">
        <ele>403</ele>
        <time>2015-08-02T08:14:31Z</time>
      </trkpt>
      <trkpt lat="47.41085" lon="6.70947">
        <ele>403</ele>
        <time>2015-08-02T08:14:32Z</time>
      </trkpt>
      <trkpt lat="47.41085" lon="6.70952">
        <ele>404</ele>
        <time>2015-08-02T08:14:33Z</time>
      </trkpt>
      <trkpt lat="47.41084" lon="6.70956">
        <ele>404</ele>
        <time>2015-08-02T08:14:33Z</time>
      </trkpt>
      <trkpt lat="47.41082" lon="6.70965">
        <ele>397</ele>
        <time>2015-08-02T08:14:34Z</time>
      </trkpt>
      <trkpt lat="47.4108" lon="6.70969">
        <ele>397</ele>
        <time>2015-08-02T08:14:34Z</time>
      </trkpt>
      <trkpt lat="47.41077" lon="6.70978">
        <ele>398</ele>
        <time>2015-08-02T08:14:37Z</time>
      </trkpt>
      <trkpt lat="47.41071" lon="6.70995">
        <ele>398</ele>
        <time>2015-08-02T08:14:39Z</time>
      </trkpt>
      <trkpt lat="47.4107" lon="6.70998">
        <ele>398</ele>
        <time>2015-08-02T08:14:40Z</time>
      </trkpt>
      <trkpt lat="47.41067" lon="6.71002">
        <ele>400</ele>
        <time>2015-08-02T08:14:41Z</time>
      </trkpt>
      <trkpt lat="47.41063" lon="6.71006">
        <ele>400</ele>
        <time>2015-08-02T08:14:43Z</time>
      </trkpt>
      <trkpt lat="47.41062" lon="6.71009">
        <ele>400</ele>
        <time>2015-08-02T08:14:43Z</time>
      </trkpt>
      <trkpt lat="47.4106" lon="6.71013">
        <ele>400</ele>
        <time>2015-08-02T08:14:43Z</time>
      </trkpt>
      <trkpt lat="47.41056" lon="6.71021">
        <ele>400</ele>
        <time>2015-08-02T08:14:44Z</time>
      </trkpt>
      <trkpt lat="47.41048" lon="6.71046">
        <ele>401</ele>
        <time>2015-08-02T08:14:50Z</time>
      </trkpt>
      <trkpt lat="47.41043" lon="6.71056">
        <ele>401</ele>
        <time>2015-08-02T08:14:51Z</time>
      </trkpt>
      <trkpt lat="47.41039" lon="6.71065">
        <ele>401</ele>
        <time>2015-08-02T08:14:52Z</time>
      </trkpt>
      <trkpt lat="47.41037" lon="6.71069">
        <ele>401</ele>
        <time>2015-08-02T08:14:53Z</time>
      </trkpt>
      <trkpt lat="47.41036" lon="6.71074">
        <ele>401</ele>
        <time>2015-08-02T08:14:53Z</time>
      </trkpt>
      <trkpt lat="47.41028" lon="6.711">
        <ele>404</ele>
        <time>2015-08-02T08:14:56Z</time>
      </trkpt>
      <trkpt lat="47.41027" lon="6.71106">
        <ele>404</ele>
        <time>2015-08-02T08:14:57Z</time>
      </trkpt>
      <trkpt lat="47.41024" lon="6.71119">
        <ele>404</ele>
        <time>2015-08-02T08:14:58Z</time>
      </trkpt>
      <trkpt lat="47.41022" lon="6.71132">
        <ele>404</ele>
        <time>2015-08-02T08:14:59Z</time>
      </trkpt>
      <trkpt lat="47.41023" lon="6.71141">
        <ele>404</ele>
        <time>2015-08-02T08:15:00Z</time>
      </trkpt>
      <trkpt lat="47.41022" lon="6.71155">
        <ele>403</ele>
        <time>2015-08-02T08:15:01Z</time>
      </trkpt>
      <trkpt lat="47.41022" lon="6.71168">
        <ele>406</ele>
        <time>2015-08-02T08:15:04Z</time>
      </trkpt>
      <trkpt lat="47.41023" lon="6.71173">
        <ele>406</ele>
        <time>2015-08-02T08:15:04Z</time>
      </trkpt>
      <trkpt lat="47.41024" lon="6.7118">
        <ele>407</ele>
        <time>2015-08-02T08:15:05Z</time>
      </trkpt>
      <trkpt lat="47.4102" lon="6.71186">
        <ele>407</ele>
        <time>2015-08-02T08:15:06Z</time>
      </trkpt>
      <trkpt lat="47.41019" lon="6.71192">
        <ele>407</ele>
        <time>2015-08-02T08:15:06Z</time>
      </trkpt>
      <trkpt lat="47.41017" lon="6.71203">
        <ele>408</ele>
        <time>2015-08-02T08:15:08Z</time>
      </trkpt>
      <trkpt lat="47.41025" lon="6.71215">
        <ele>410</ele>
        <time>2015-08-02T08:15:08Z</time>
      </trkpt>
      <trkpt lat="47.41024" lon="6.71222">
        <ele>410</ele>
        <time>2015-08-02T08:15:09Z</time>
      </trkpt>
      <trkpt lat="47.41023" lon="6.71227">
        <ele>409</ele>
        <time>2015-08-02T08:15:10Z</time>
      </trkpt>
      <trkpt lat="47.4102" lon="6.71232">
        <ele>408</ele>
        <time>2015-08-02T08:15:10Z</time>
      </trkpt>
      <trkpt lat="47.41018" lon="6.71237">
        <ele>407</ele>
        <time>2015-08-02T08:15:11Z</time>
      </trkpt>
      <trkpt lat="47.41016" lon="6.71242">
        <ele>407</ele>
        <time>2015-08-02T08:15:12Z</time>
      </trkpt>
      <trkpt lat="47.41014" lon="6.71246">
        <ele>406</ele>
        <time>2015-08-02T08:15:12Z</time>
      </trkpt>
      <trkpt lat="47.4101" lon="6.71256">
        <ele>407</ele>
        <time>2015-08-02T08:15:14Z</time>
      </trkpt>
      <trkpt lat="47.4101" lon="6.71262">
        <ele>408</ele>
        <time>2015-08-02T08:15:14Z</time>
      </trkpt>
      <trkpt lat="47.41007" lon="6.71272">
        <ele>410</ele>
        <time>2015-08-02T08:15:17Z</time>
      </trkpt>
      <trkpt lat="47.41006" lon="6.71276">
        <ele>411</ele>
        <time>2015-08-02T08:15:17Z</time>
      </trkpt>
      <trkpt lat="47.41004" lon="6.7128">
        <ele>412</ele>
        <time>2015-08-02T08:15:18Z</time>
      </trkpt>
      <trkpt lat="47.40997" lon="6.71293">
        <ele>406</ele>
        <time>2015-08-02T08:15:20Z</time>
      </trkpt>
      <trkpt lat="47.40995" lon="6.71298">
        <ele>406</ele>
        <time>2015-08-02T08:15:21Z</time>
      </trkpt>
      <trkpt lat="47.40992" lon="6.71306">
        <ele>406</ele>
        <time>2015-08-02T08:15:22Z</time>
      </trkpt>
      <trkpt lat="47.40991" lon="6.7131">
        <ele>406</ele>
        <time>2015-08-02T08:15:23Z</time>
      </trkpt>
      <trkpt lat="47.4099" lon="6.71314">
        <ele>407</ele>
        <time>2015-08-02T08:15:23Z</time>
      </trkpt>
      <trkpt lat="47.40986" lon="6.7133">
        <ele>407</ele>
        <time>2015-08-02T08:15:25Z</time>
      </trkpt>
      <trkpt lat="47.40986" lon="6.71334">
        <ele>408</ele>
        <time>2015-08-02T08:15:26Z</time>
      </trkpt>
      <trkpt lat="47.40985" lon="6.71338">
        <ele>408</ele>
        <time>2015-08-02T08:15:26Z</time>
      </trkpt>
      <trkpt lat="47.40985" lon="6.71347">
        <ele>408</ele>
        <time>2015-08-02T08:15:28Z</time>
      </trkpt>
      <trkpt lat="47.40985" lon="6.71352">
        <ele>408</ele>
        <time>2015-08-02T08:15:28Z</time>
      </trkpt>
      <trkpt lat="47.40985" lon="6.71356">
        <ele>409</ele>
        <time>2015-08-02T08:15:29Z</time>
      </trkpt>
      <trkpt lat="47.40987" lon="6.71374">
        <ele>409</ele>
        <time>2015-08-02T08:15:33Z</time>
      </trkpt>
      <trkpt lat="47.40987" lon="6.7138">
        <ele>409</ele>
        <time>2015-08-02T08:15:34Z</time>
      </trkpt>
      <trkpt lat="47.40986" lon="6.71382">
        <ele>409</ele>
        <time>2015-08-02T08:15:35Z</time>
      </trkpt>
      <trkpt lat="47.40985" lon="6.71385">
        <ele>409</ele>
        <time>2015-08-02T08:15:35Z</time>
      </trkpt>
      <trkpt lat="47.40985" lon="6.71389">
        <ele>409</ele>
        <time>2015-08-02T08:15:36Z</time>
      </trkpt>
      <trkpt lat="47.40986" lon="6.71393">
        <ele>409</ele>
        <time>2015-08-02T08:15:37Z</time>
      </trkpt>
      <trkpt lat="47.4099" lon="6.71401">
        <ele>410</ele>
        <time>2015-08-02T08:15:38Z</time>
      </trkpt>
      <trkpt lat="47.40991" lon="6.71405">
        <ele>410</ele>
        <time>2015-08-02T08:15:39Z</time>
      </trkpt>
      <trkpt lat="47.40991" lon="6.71409">
        <ele>410</ele>
        <time>2015-08-02T08:15:39Z</time>
      </trkpt>
      <trkpt lat="47.40991" lon="6.71413">
        <ele>410</ele>
        <time>2015-08-02T08:15:40Z</time>
      </trkpt>
      <trkpt lat="47.4099" lon="6.71417">
        <ele>410</ele>
        <time>2015-08-02T08:15:41Z</time>
      </trkpt>
      <trkpt lat="47.40987" lon="6.71434">
        <ele>410</ele>
        <time>2015-08-02T08:15:43Z</time>
      </trkpt>
      <trkpt lat="47.40987" lon="6.71447">
        <ele>410</ele>
        <time>2015-08-02T08:15:44Z</time>
      </trkpt>
      <trkpt lat="47.40985" lon="6.71462">
        <ele>410</ele>
        <time>2015-08-02T08:15:46Z</time>
      </trkpt>
      <trkpt lat="47.40985" lon="6.71466">
        <ele>410</ele>
        <time>2015-08-02T08:15:47Z</time>
      </trkpt>
      <trkpt lat="47.40985" lon="6.7147">
        <ele>410</ele>
        <time>2015-08-02T08:15:47Z</time>
      </trkpt>
      <trkpt lat="47.40986" lon="6.71474">
        <ele>410</ele>
        <time>2015-08-02T08:15:48Z</time>
      </trkpt>
      <trkpt lat="47.40989" lon="6.71483">
        <ele>410</ele>
        <time>2015-08-02T08:15:49Z</time>
      </trkpt>
      <trkpt lat="47.40991" lon="6.71492">
        <ele>411</ele>
        <time>2015-08-02T08:15:52Z</time>
      </trkpt>
      <trkpt lat="47.40991" lon="6.71498">
        <ele>411</ele>
        <time>2015-08-02T08:15:52Z</time>
      </trkpt>
      <trkpt lat="47.40992" lon="6.71504">
        <ele>411</ele>
        <time>2015-08-02T08:15:53Z</time>
      </trkpt>
      <trkpt lat="47.40991" lon="6.71511">
        <ele>411</ele>
        <time>2015-08-02T08:15:53Z</time>
      </trkpt>
      <trkpt lat="47.40991" lon="6.71517">
        <ele>411</ele>
        <time>2015-08-02T08:15:53Z</time>
      </trkpt>
      <trkpt lat="47.4099" lon="6.71524">
        <ele>411</ele>
        <time>2015-08-02T08:15:54Z</time>
      </trkpt>
      <trkpt lat="47.40988" lon="6.7153">
        <ele>411</ele>
        <time>2015-08-02T08:15:55Z</time>
      </trkpt>
      <trkpt lat="47.40986" lon="6.71535">
        <ele>411</ele>
        <time>2015-08-02T08:15:55Z</time>
      </trkpt>
      <trkpt lat="47.40984" lon="6.71539">
        <ele>411</ele>
        <time>2015-08-02T08:15:56Z</time>
      </trkpt>
      <trkpt lat="47.40975" lon="6.71551">
        <ele>411</ele>
        <time>2015-08-02T08:16:00Z</time>
      </trkpt>
      <trkpt lat="47.40973" lon="6.71555">
        <ele>411</ele>
        <time>2015-08-02T08:16:01Z</time>
      </trkpt>
      <trkpt lat="47.40969" lon="6.71563">
        <ele>411</ele>
        <time>2015-08-02T08:16:02Z</time>
      </trkpt>
      <trkpt lat="47.40966" lon="6.7157">
        <ele>411</ele>
        <time>2015-08-02T08:16:03Z</time>
      </trkpt>
      <trkpt lat="47.40965" lon="6.71574">
        <ele>411</ele>
        <time>2015-08-02T08:16:03Z</time>
      </trkpt>
      <trkpt lat="47.40964" lon="6.71578">
        <ele>411</ele>
        <time>2015-08-02T08:16:04Z</time>
      </trkpt>
      <trkpt lat="47.4096" lon="6.71589">
        <ele>413</ele>
        <time>2015-08-02T08:16:05Z</time>
      </trkpt>
      <trkpt lat="47.40953" lon="6.71618">
        <ele>413</ele>
        <time>2015-08-02T08:16:09Z</time>
      </trkpt>
      <trkpt lat="47.40949" lon="6.7163">
        <ele>413</ele>
        <time>2015-08-02T08:16:11Z</time>
      </trkpt>
      <trkpt lat="47.40948" lon="6.71634">
        <ele>414</ele>
        <time>2015-08-02T08:16:13Z</time>
      </trkpt>
      <trkpt lat="47.40947" lon="6.71638">
        <ele>414</ele>
        <time>2015-08-02T08:16:13Z</time>
      </trkpt>
      <trkpt lat="47.40946" lon="6.71642">
        <ele>414</ele>
        <time>2015-08-02T08:16:13Z</time>
      </trkpt>
      <trkpt lat="47.40944" lon="6.71647">
        <ele>414</ele>
        <time>2015-08-02T08:16:14Z</time>
      </trkpt>
      <trkpt lat="47.40942" lon="6.71651">
        <ele>413</ele>
        <time>2015-08-02T08:16:14Z</time>
      </trkpt>
      <trkpt lat="47.4094" lon="6.71655">
        <ele>413</ele>
        <time>2015-08-02T08:16:15Z</time>
      </trkpt>
      <trkpt lat="47.40934" lon="6.71666">
        <ele>413</ele>
        <time>2015-08-02T08:16:17Z</time>
      </trkpt>
      <trkpt lat="47.40932" lon="6.7167">
        <ele>417</ele>
        <time>2015-08-02T08:16:19Z</time>
      </trkpt>
      <trkpt lat="47.4093" lon="6.71678">
        <ele>417</ele>
        <time>2015-08-02T08:16:20Z</time>
      </trkpt>
      <trkpt lat="47.40928" lon="6.71683">
        <ele>418</ele>
        <time>2015-08-02T08:16:21Z</time>
      </trkpt>
      <trkpt lat="47.40922" lon="6.71692">
        <ele>419</ele>
        <time>2015-08-02T08:16:22Z</time>
      </trkpt>
      <trkpt lat="47.40919" lon="6.71698">
        <ele>420</ele>
        <time>2015-08-02T08:16:23Z</time>
      </trkpt>
      <trkpt lat="47.40917" lon="6.71704">
        <ele>420</ele>
        <time>2015-08-02T08:16:23Z</time>
      </trkpt>
      <trkpt lat="47.40915" lon="6.71716">
        <ele>418</ele>
        <time>2015-08-02T08:16:24Z</time>
      </trkpt>
      <trkpt lat="47.40912" lon="6.71726">
        <ele>418</ele>
        <time>2015-08-02T08:16:26Z</time>
      </trkpt>
      <trkpt lat="47.4091" lon="6.71731">
        <ele>419</ele>
        <time>2015-08-02T08:16:27Z</time>
      </trkpt>
      <trkpt lat="47.40908" lon="6.71735">
        <ele>419</ele>
        <time>2015-08-02T08:16:27Z</time>
      </trkpt>
      <trkpt lat="47.40903" lon="6.71751">
        <ele>420</ele>
        <time>2015-08-02T08:16:29Z</time>
      </trkpt>
      <trkpt lat="47.409" lon="6.71761">
        <ele>419</ele>
        <time>2015-08-02T08:16:31Z</time>
      </trkpt>
      <trkpt lat="47.40897" lon="6.71768">
        <ele>419</ele>
        <time>2015-08-02T08:16:32Z</time>
      </trkpt>
      <trkpt lat="47.40895" lon="6.71771">
        <ele>419</ele>
        <time>2015-08-02T08:16:33Z</time>
      </trkpt>
      <trkpt lat="47.40891" lon="6.71774">
        <ele>419</ele>
        <time>2015-08-02T08:16:33Z</time>
      </trkpt>
      <trkpt lat="47.40883" lon="6.71779">
        <ele>418</ele>
        <time>2015-08-02T08:16:34Z</time>
      </trkpt>
      <trkpt lat="47.40878" lon="6.71783">
        <ele>418</ele>
        <time>2015-08-02T08:16:34Z</time>
      </trkpt>
      <trkpt lat="47.40875" lon="6.71786">
        <ele>418</ele>
        <time>2015-08-02T08:16:35Z</time>
      </trkpt>
      <trkpt lat="47.40872" lon="6.71791">
        <ele>417</ele>
        <time>2015-08-02T08:16:36Z</time>
      </trkpt>
      <trkpt lat="47.40869" lon="6.71796">
        <ele>417</ele>
        <time>2015-08-02T08:16:36Z</time>
      </trkpt>
      <trkpt lat="47.40865" lon="6.71805">
        <ele>417</ele>
        <time>2015-08-02T08:16:40Z</time>
      </trkpt>
      <trkpt lat="47.40861" lon="6.71812">
        <ele>417</ele>
        <time>2015-08-02T08:16:41Z</time>
      </trkpt>
      <trkpt lat="47.40855" lon="6.71821">
        <ele>416</ele>
        <time>2015-08-02T08:16:43Z</time>
      </trkpt>
      <trkpt lat="47.40849" lon="6.7183">
        <ele>414</ele>
        <time>2015-08-02T08:16:45Z</time>
      </trkpt>
      <trkpt lat="47.40847" lon="6.71833">
        <ele>414</ele>
        <time>2015-08-02T08:16:46Z</time>
      </trkpt>
      <trkpt lat="47.40844" lon="6.71839">
        <ele>415</ele>
        <time>2015-08-02T08:16:47Z</time>
      </trkpt>
      <trkpt lat="47.40842" lon="6.71842">
        <ele>415</ele>
        <time>2015-08-02T08:16:48Z</time>
      </trkpt>
      <trkpt lat="47.40839" lon="6.71846">
        <ele>416</ele>
        <time>2015-08-02T08:16:48Z</time>
      </trkpt>
      <trkpt lat="47.40833" lon="6.71852">
        <ele>416</ele>
        <time>2015-08-02T08:16:50Z</time>
      </trkpt>
      <trkpt lat="47.4083" lon="6.71857">
        <ele>417</ele>
        <time>2015-08-02T08:16:50Z</time>
      </trkpt>
      <trkpt lat="47.40826" lon="6.71862">
        <ele>418</ele>
        <time>2015-08-02T08:16:51Z</time>
      </trkpt>
      <trkpt lat="47.40823" lon="6.71867">
        <ele>418</ele>
        <time>2015-08-02T08:16:52Z</time>
      </trkpt>
      <trkpt lat="47.40817" lon="6.71875">
        <ele>419</ele>
        <time>2015-08-02T08:16:53Z</time>
      </trkpt>
      <trkpt lat="47.40815" lon="6.71879">
        <ele>419</ele>
        <time>2015-08-02T08:16:54Z</time>
      </trkpt>
      <trkpt lat="47.40812" lon="6.71881">
        <ele>420</ele>
        <time>2015-08-02T08:16:54Z</time>
      </trkpt>
      <trkpt lat="47.40808" lon="6.71887">
        <ele>420</ele>
        <time>2015-08-02T08:16:56Z</time>
      </trkpt>
      <trkpt lat="47.40806" lon="6.7189">
        <ele>420</ele>
        <time>2015-08-02T08:16:56Z</time>
      </trkpt>
      <trkpt lat="47.40803" lon="6.71894">
        <ele>420</ele>
        <time>2015-08-02T08:16:57Z</time>
      </trkpt>
      <trkpt lat="47.40789" lon="6.71907">
        <ele>420</ele>
        <time>2015-08-02T08:17:00Z</time>
      </trkpt>
      <trkpt lat="47.40784" lon="6.71913">
        <ele>420</ele>
        <time>2015-08-02T08:17:01Z</time>
      </trkpt>
      <trkpt lat="47.4078" lon="6.71918">
        <ele>422</ele>
        <time>2015-08-02T08:17:02Z</time>
      </trkpt>
      <trkpt lat="47.40778" lon="6.71921">
        <ele>422</ele>
        <time>2015-08-02T08:17:03Z</time>
      </trkpt>
      <trkpt lat="47.40776" lon="6.71924">
        <ele>422</ele>
        <time>2015-08-02T08:17:03Z</time>
      </trkpt>
      <trkpt lat="47.40767" lon="6.71933">
        <ele>422</ele>
        <time>2015-08-02T08:17:06Z</time>
      </trkpt>
      <trkpt lat="47.40765" lon="6.71936">
        <ele>422</ele>
        <time>2015-08-02T08:17:06Z</time>
      </trkpt>
      <trkpt lat="47.40762" lon="6.71942">
        <ele>423</ele>
        <time>2015-08-02T08:17:09Z</time>
      </trkpt>
      <trkpt lat="47.40759" lon="6.71945">
        <ele>423</ele>
        <time>2015-08-02T08:17:10Z</time>
      </trkpt>
      <trkpt lat="47.40755" lon="6.71951">
        <ele>423</ele>
        <time>2015-08-02T08:17:12Z</time>
      </trkpt>
      <trkpt lat="47.4075" lon="6.71956">
        <ele>424</ele>
        <time>2015-08-02T08:17:13Z</time>
      </trkpt>
      <trkpt lat="47.40746" lon="6.71961">
        <ele>423</ele>
        <time>2015-08-02T08:17:14Z</time>
      </trkpt>
      <trkpt lat="47.40742" lon="6.71967">
        <ele>423</ele>
        <time>2015-08-02T08:17:16Z</time>
      </trkpt>
      <trkpt lat="47.40738" lon="6.71971">
        <ele>423</ele>
        <time>2015-08-02T08:17:17Z</time>
      </trkpt>
      <trkpt lat="47.40732" lon="6.71977">
        <ele>423</ele>
        <time>2015-08-02T08:17:19Z</time>
      </trkpt>
      <trkpt lat="47.40716" lon="6.71989">
        <ele>423</ele>
        <time>2015-08-02T08:17:23Z</time>
      </trkpt>
      <trkpt lat="47.40711" lon="6.71994">
        <ele>423</ele>
        <time>2015-08-02T08:17:26Z</time>
      </trkpt>
      <trkpt lat="47.40709" lon="6.71998">
        <ele>423</ele>
        <time>2015-08-02T08:17:27Z</time>
      </trkpt>
      <trkpt lat="47.40709" lon="6.72">
        <ele>423</ele>
        <time>2015-08-02T08:17:28Z</time>
      </trkpt>
      <trkpt lat="47.40708" lon="6.72005">
        <ele>426</ele>
        <time>2015-08-02T08:17:32Z</time>
      </trkpt>
      <trkpt lat="47.40704" lon="6.72015">
        <ele>426</ele>
        <time>2015-08-02T08:17:35Z</time>
      </trkpt>
      <trkpt lat="47.40701" lon="6.72022">
        <ele>426</ele>
        <time>2015-08-02T08:17:37Z</time>
      </trkpt>
      <trkpt lat="47.40698" lon="6.72025">
        <ele>426</ele>
        <time>2015-08-02T08:17:38Z</time>
      </trkpt>
      <trkpt lat="47.40696" lon="6.72033">
        <ele>426</ele>
        <time>2015-08-02T08:17:40Z</time>
      </trkpt>
      <trkpt lat="47.40695" lon="6.72036">
        <ele>426</ele>
        <time>2015-08-02T08:17:41Z</time>
      </trkpt>
      <trkpt lat="47.40692" lon="6.7204">
        <ele>426</ele>
        <time>2015-08-02T08:17:42Z</time>
      </trkpt>
      <trkpt lat="47.4069" lon="6.72042">
        <ele>426</ele>
        <time>2015-08-02T08:17:43Z</time>
      </trkpt>
      <trkpt lat="47.40688" lon="6.72046">
        <ele>426</ele>
        <time>2015-08-02T08:17:43Z</time>
      </trkpt>
      <trkpt lat="47.40685" lon="6.72056">
        <ele>426</ele>
        <time>2015-08-02T08:17:45Z</time>
      </trkpt>
      <trkpt lat="47.40682" lon="6.72065">
        <ele>426</ele>
        <time>2015-08-02T08:17:47Z</time>
      </trkpt>
      <trkpt lat="47.4068" lon="6.7208">
        <ele>426</ele>
        <time>2015-08-02T08:17:50Z</time>
      </trkpt>
      <trkpt lat="47.40679" lon="6.72088">
        <ele>430</ele>
        <time>2015-08-02T08:17:53Z</time>
      </trkpt>
      <trkpt lat="47.40678" lon="6.72101">
        <ele>432</ele>
        <time>2015-08-02T08:17:55Z</time>
      </trkpt>
      <trkpt lat="47.40678" lon="6.7212">
        <ele>435</ele>
        <time>2015-08-02T08:17:58Z</time>
      </trkpt>
      <trkpt lat="47.40676" lon="6.72128">
        <ele>435</ele>
        <time>2015-08-02T08:18:00Z</time>
      </trkpt>
      <trkpt lat="47.40674" lon="6.72139">
        <ele>436</ele>
        <time>2015-08-02T08:18:01Z</time>
      </trkpt>
      <trkpt lat="47.40671" lon="6.72152">
        <ele>436</ele>
        <time>2015-08-02T08:18:03Z</time>
      </trkpt>
      <trkpt lat="47.4067" lon="6.72171">
        <ele>437</ele>
        <time>2015-08-02T08:18:06Z</time>
      </trkpt>
      <trkpt lat="47.4067" lon="6.72174">
        <ele>438</ele>
        <time>2015-08-02T08:18:07Z</time>
      </trkpt>
      <trkpt lat="47.40669" lon="6.7218">
        <ele>440</ele>
        <time>2015-08-02T08:18:08Z</time>
      </trkpt>
      <trkpt lat="47.40666" lon="6.72188">
        <ele>437</ele>
        <time>2015-08-02T08:18:10Z</time>
      </trkpt>
      <trkpt lat="47.40664" lon="6.72196">
        <ele>438</ele>
        <time>2015-08-02T08:18:13Z</time>
      </trkpt>
      <trkpt lat="47.40663" lon="6.72203">
        <ele>438</ele>
        <time>2015-08-02T08:18:15Z</time>
      </trkpt>
      <trkpt lat="47.40663" lon="6.72207">
        <ele>439</ele>
        <time>2015-08-02T08:18:15Z</time>
      </trkpt>
      <trkpt lat="47.40664" lon="6.72217">
        <ele>439</ele>
        <time>2015-08-02T08:18:18Z</time>
      </trkpt>
      <trkpt lat="47.40664" lon="6.72228">
        <ele>439</ele>
        <time>2015-08-02T08:18:19Z</time>
      </trkpt>
      <trkpt lat="47.40664" lon="6.72235">
        <ele>440</ele>
        <time>2015-08-02T08:18:20Z</time>
      </trkpt>
      <trkpt lat="47.40663" lon="6.72239">
        <ele>440</ele>
        <time>2015-08-02T08:18:21Z</time>
      </trkpt>
      <trkpt lat="47.40662" lon="6.72242">
        <ele>440</ele>
        <time>2015-08-02T08:18:22Z</time>
      </trkpt>
      <trkpt lat="47.40658" lon="6.72254">
        <ele>441</ele>
        <time>2015-08-02T08:18:23Z</time>
      </trkpt>
      <trkpt lat="47.40654" lon="6.72264">
        <ele>441</ele>
        <time>2015-08-02T08:18:25Z</time>
      </trkpt>
      <trkpt lat="47.4065" lon="6.72275">
        <ele>441</ele>
        <time>2015-08-02T08:18:27Z</time>
      </trkpt>
      <trkpt lat="47.40645" lon="6.72287">
        <ele>442</ele>
        <time>2015-08-02T08:18:30Z</time>
      </trkpt>
      <trkpt lat="47.40643" lon="6.72291">
        <ele>442</ele>
        <time>2015-08-02T08:18:30Z</time>
      </trkpt>
      <trkpt lat="47.40638" lon="6.72301">
        <ele>442</ele>
        <time>2015-08-02T08:18:32Z</time>
      </trkpt>
      <trkpt lat="47.4063" lon="6.72315">
        <ele>442</ele>
        <time>2015-08-02T08:18:33Z</time>
      </trkpt>
      <trkpt lat="47.40626" lon="6.72319">
        <ele>442</ele>
        <time>2015-08-02T08:18:33Z</time>
      </trkpt>
      <trkpt lat="47.4062" lon="6.72326">
        <ele>441</ele>
        <time>2015-08-02T08:18:35Z</time>
      </trkpt>
      <trkpt lat="47.40617" lon="6.72329">
        <ele>441</ele>
        <time>2015-08-02T08:18:35Z</time>
      </trkpt>
      <trkpt lat="47.40612" lon="6.72335">
        <ele>442</ele>
        <time>2015-08-02T08:18:38Z</time>
      </trkpt>
      <trkpt lat="47.40608" lon="6.72343">
        <ele>442</ele>
        <time>2015-08-02T08:18:39Z</time>
      </trkpt>
      <trkpt lat="47.40607" lon="6.72348">
        <ele>442</ele>
        <time>2015-08-02T08:18:40Z</time>
      </trkpt>
      <trkpt lat="47.40604" lon="6.7236">
        <ele>442</ele>
        <time>2015-08-02T08:18:42Z</time>
      </trkpt>
      <trkpt lat="47.406" lon="6.72369">
        <ele>442</ele>
        <time>2015-08-02T08:18:43Z</time>
      </trkpt>
      <trkpt lat="47.40598" lon="6.72373">
        <ele>442</ele>
        <time>2015-08-02T08:18:44Z</time>
      </trkpt>
      <trkpt lat="47.40596" lon="6.72378">
        <ele>442</ele>
        <time>2015-08-02T08:18:44Z</time>
      </trkpt>
      <trkpt lat="47.40592" lon="6.72386">
        <ele>441</ele>
        <time>2015-08-02T08:18:46Z</time>
      </trkpt>
      <trkpt lat="47.4059" lon="6.7239">
        <ele>441</ele>
        <time>2015-08-02T08:18:46Z</time>
      </trkpt>
      <trkpt lat="47.40589" lon="6.72394">
        <ele>440</ele>
        <time>2015-08-02T08:18:47Z</time>
      </trkpt>
      <trkpt lat="47.40589" lon="6.72399">
        <ele>440</ele>
        <time>2015-08-02T08:18:48Z</time>
      </trkpt>
      <trkpt lat="47.40589" lon="6.72403">
        <ele>439</ele>
        <time>2015-08-02T08:18:48Z</time>
      </trkpt>
      <trkpt lat="47.40588" lon="6.72412">
        <ele>437</ele>
        <time>2015-08-02T08:18:50Z</time>
      </trkpt>
      <trkpt lat="47.40587" lon="6.72417">
        <ele>436</ele>
        <time>2015-08-02T08:18:50Z</time>
      </trkpt>
      <trkpt lat="47.40586" lon="6.72426">
        <ele>439</ele>
        <time>2015-08-02T08:18:52Z</time>
      </trkpt>
      <trkpt lat="47.40587" lon="6.72445">
        <ele>444</ele>
        <time>2015-08-02T08:18:53Z</time>
      </trkpt>
      <trkpt lat="47.40587" lon="6.72451">
        <ele>445</ele>
        <time>2015-08-02T08:18:54Z</time>
      </trkpt>
      <trkpt lat="47.4059" lon="6.7248">
        <ele>444</ele>
        <time>2015-08-02T08:18:58Z</time>
      </trkpt>
      <trkpt lat="47.4059" lon="6.7249">
        <ele>442</ele>
        <time>2015-08-02T08:19:02Z</time>
      </trkpt>
      <trkpt lat="47.4059" lon="6.72495">
        <ele>441</ele>
        <time>2015-08-02T08:19:02Z</time>
      </trkpt>
      <trkpt lat="47.40589" lon="6.72499">
        <ele>440</ele>
        <time>2015-08-02T08:19:03Z</time>
      </trkpt>
      <trkpt lat="47.40588" lon="6.72507">
        <ele>442</ele>
        <time>2015-08-02T08:19:03Z</time>
      </trkpt>
      <trkpt lat="47.40588" lon="6.7251">
        <ele>443</ele>
        <time>2015-08-02T08:19:04Z</time>
      </trkpt>
      <trkpt lat="47.40588" lon="6.72518">
        <ele>446</ele>
        <time>2015-08-02T08:19:05Z</time>
      </trkpt>
      <trkpt lat="47.40588" lon="6.72528">
        <ele>448</ele>
        <time>2015-08-02T08:19:07Z</time>
      </trkpt>
      <trkpt lat="47.40587" lon="6.72537">
        <ele>449</ele>
        <time>2015-08-02T08:19:08Z</time>
      </trkpt>
      <trkpt lat="47.40582" lon="6.72548">
        <ele>442</ele>
        <time>2015-08-02T08:19:12Z</time>
      </trkpt>
      <trkpt lat="47.40581" lon="6.72554">
        <ele>442</ele>
        <time>2015-08-02T08:19:13Z</time>
      </trkpt>
      <trkpt lat="47.40582" lon="6.72565">
        <ele>442</ele>
        <time>2015-08-02T08:19:14Z</time>
      </trkpt>
      <trkpt lat="47.40582" lon="6.72572">
        <ele>442</ele>
        <time>2015-08-02T08:19:15Z</time>
      </trkpt>
      <trkpt lat="47.40581" lon="6.7258">
        <ele>441</ele>
        <time>2015-08-02T08:19:17Z</time>
      </trkpt>
      <trkpt lat="47.4058" lon="6.72587">
        <ele>442</ele>
        <time>2015-08-02T08:19:18Z</time>
      </trkpt>
      <trkpt lat="47.40581" lon="6.72591">
        <ele>443</ele>
        <time>2015-08-02T08:19:19Z</time>
      </trkpt>
      <trkpt lat="47.40584" lon="6.72603">
        <ele>450</ele>
        <time>2015-08-02T08:19:21Z</time>
      </trkpt>
      <trkpt lat="47.40585" lon="6.72607">
        <ele>451</ele>
        <time>2015-08-02T08:19:21Z</time>
      </trkpt>
      <trkpt lat="47.40586" lon="6.72615">
        <ele>452</ele>
        <time>2015-08-02T08:19:23Z</time>
      </trkpt>
      <trkpt lat="47.40586" lon="6.72619">
        <ele>453</ele>
        <time>2015-08-02T08:19:23Z</time>
      </trkpt>
      <trkpt lat="47.40586" lon="6.72629">
        <ele>453</ele>
        <time>2015-08-02T08:19:26Z</time>
      </trkpt>
      <trkpt lat="47.40585" lon="6.7264">
        <ele>453</ele>
        <time>2015-08-02T08:19:28Z</time>
      </trkpt>
      <trkpt lat="47.40585" lon="6.72644">
        <ele>452</ele>
        <time>2015-08-02T08:19:29Z</time>
      </trkpt>
      <trkpt lat="47.40586" lon="6.72652">
        <ele>451</ele>
        <time>2015-08-02T08:19:30Z</time>
      </trkpt>
      <trkpt lat="47.40587" lon="6.7266">
        <ele>449</ele>
        <time>2015-08-02T08:19:32Z</time>
      </trkpt>
      <trkpt lat="47.40586" lon="6.72674">
        <ele>450</ele>
        <time>2015-08-02T08:19:33Z</time>
      </trkpt>
      <trkpt lat="47.40585" lon="6.72687">
        <ele>453</ele>
        <time>2015-08-02T08:19:35Z</time>
      </trkpt>
      <trkpt lat="47.40584" lon="6.7269">
        <ele>454</ele>
        <time>2015-08-02T08:19:35Z</time>
      </trkpt>
      <trkpt lat="47.40583" lon="6.72693">
        <ele>448</ele>
        <time>2015-08-02T08:19:36Z</time>
      </trkpt>
      <trkpt lat="47.40581" lon="6.72698">
        <ele>448</ele>
        <time>2015-08-02T08:19:37Z</time>
      </trkpt>
      <trkpt lat="47.40579" lon="6.72698">
        <ele>448</ele>
        <time>2015-08-02T08:19:39Z</time>
      </trkpt>
      <trkpt lat="47.40577" lon="6.72699">
        <ele>448</ele>
        <time>2015-08-02T08:19:40Z</time>
      </trkpt>
      <trkpt lat="47.40574" lon="6.72699">
        <ele>448</ele>
        <time>2015-08-02T08:19:40Z</time>
      </trkpt>
      <trkpt lat="47.40572" lon="6.72698">
        <ele>448</ele>
        <time>2015-08-02T08:19:41Z</time>
      </trkpt>
      <trkpt lat="47.40569" lon="6.72697">
        <ele>448</ele>
        <time>2015-08-02T08:19:42Z</time>
      </trkpt>
      <trkpt lat="47.40567" lon="6.72695">
        <ele>448</ele>
        <time>2015-08-02T08:19:42Z</time>
      </trkpt>
      <trkpt lat="47.40564" lon="6.72694">
        <ele>448</ele>
        <time>2015-08-02T08:19:43Z</time>
      </trkpt>
      <trkpt lat="47.40558" lon="6.72694">
        <ele>448</ele>
        <time>2015-08-02T08:19:44Z</time>
      </trkpt>
      <trkpt lat="47.40555" lon="6.72691">
        <ele>448</ele>
        <time>2015-08-02T08:19:46Z</time>
      </trkpt>
      <trkpt lat="47.40553" lon="6.72689">
        <ele>449</ele>
        <time>2015-08-02T08:19:48Z</time>
      </trkpt>
      <trkpt lat="47.40551" lon="6.72686">
        <ele>449</ele>
        <time>2015-08-02T08:19:49Z</time>
      </trkpt>
      <trkpt lat="47.4055" lon="6.72682">
        <ele>449</ele>
        <time>2015-08-02T08:19:49Z</time>
      </trkpt>
      <trkpt lat="47.40549" lon="6.72675">
        <ele>449</ele>
        <time>2015-08-02T08:19:51Z</time>
      </trkpt>
      <trkpt lat="47.40546" lon="6.7266">
        <ele>447</ele>
        <time>2015-08-02T08:19:53Z</time>
      </trkpt>
      <trkpt lat="47.40542" lon="6.72643">
        <ele>447</ele>
        <time>2015-08-02T08:19:56Z</time>
      </trkpt>
      <trkpt lat="47.40541" lon="6.72638">
        <ele>447</ele>
        <time>2015-08-02T08:19:57Z</time>
      </trkpt>
      <trkpt lat="47.40541" lon="6.72633">
        <ele>447</ele>
        <time>2015-08-02T08:19:57Z</time>
      </trkpt>
      <trkpt lat="47.40541" lon="6.72621">
        <ele>447</ele>
        <time>2015-08-02T08:19:59Z</time>
      </trkpt>
      <trkpt lat="47.4054" lon="6.72613">
        <ele>447</ele>
        <time>2015-08-02T08:20:01Z</time>
      </trkpt>
      <trkpt lat="47.40537" lon="6.72596">
        <ele>447</ele>
        <time>2015-08-02T08:20:03Z</time>
      </trkpt>
      <trkpt lat="47.40537" lon="6.72588">
        <ele>447</ele>
        <time>2015-08-02T08:20:04Z</time>
      </trkpt>
      <trkpt lat="47.40535" lon="6.72571">
        <ele>444</ele>
        <time>2015-08-02T08:20:07Z</time>
      </trkpt>
      <trkpt lat="47.40534" lon="6.72555">
        <ele>444</ele>
        <time>2015-08-02T08:20:09Z</time>
      </trkpt>
      <trkpt lat="47.40533" lon="6.72531">
        <ele>443</ele>
        <time>2015-08-02T08:20:13Z</time>
      </trkpt>
      <trkpt lat="47.40533" lon="6.72525">
        <ele>443</ele>
        <time>2015-08-02T08:20:13Z</time>
      </trkpt>
      <trkpt lat="47.40533" lon="6.72512">
        <ele>443</ele>
        <time>2015-08-02T08:20:14Z</time>
      </trkpt>
      <trkpt lat="47.40532" lon="6.72505">
        <ele>443</ele>
        <time>2015-08-02T08:20:15Z</time>
      </trkpt>
      <trkpt lat="47.40531" lon="6.72498">
        <ele>440</ele>
        <time>2015-08-02T08:20:15Z</time>
      </trkpt>
      <trkpt lat="47.4053" lon="6.72491">
        <ele>440</ele>
        <time>2015-08-02T08:20:16Z</time>
      </trkpt>
      <trkpt lat="47.40528" lon="6.72484">
        <ele>440</ele>
        <time>2015-08-02T08:20:17Z</time>
      </trkpt>
      <trkpt lat="47.40526" lon="6.72478">
        <ele>439</ele>
        <time>2015-08-02T08:20:17Z</time>
      </trkpt>
      <trkpt lat="47.40523" lon="6.72473">
        <ele>439</ele>
        <time>2015-08-02T08:20:18Z</time>
      </trkpt>
      <trkpt lat="47.40521" lon="6.72469">
        <ele>439</ele>
        <time>2015-08-02T08:20:19Z</time>
      </trkpt>
      <trkpt lat="47.40519" lon="6.72465">
        <ele>439</ele>
        <time>2015-08-02T08:20:19Z</time>
      </trkpt>
      <trkpt lat="47.40516" lon="6.72462">
        <ele>439</ele>
        <time>2015-08-02T08:20:21Z</time>
      </trkpt>
      <trkpt lat="47.40511" lon="6.72456">
        <ele>438</ele>
        <time>2015-08-02T08:20:22Z</time>
      </trkpt>
      <trkpt lat="47.40505" lon="6.7245">
        <ele>438</ele>
        <time>2015-08-02T08:20:23Z</time>
      </trkpt>
      <trkpt lat="47.40489" lon="6.7244">
        <ele>443</ele>
        <time>2015-08-02T08:20:25Z</time>
      </trkpt>
      <trkpt lat="47.40485" lon="6.72437">
        <ele>443</ele>
        <time>2015-08-02T08:20:26Z</time>
      </trkpt>
      <trkpt lat="47.40474" lon="6.72427">
        <ele>444</ele>
        <time>2015-08-02T08:20:28Z</time>
      </trkpt>
      <trkpt lat="47.40468" lon="6.72422">
        <ele>444</ele>
        <time>2015-08-02T08:20:29Z</time>
      </trkpt>
      <trkpt lat="47.40457" lon="6.72412">
        <ele>444</ele>
        <time>2015-08-02T08:20:32Z</time>
      </trkpt>
      <trkpt lat="47.40454" lon="6.72408">
        <ele>444</ele>
        <time>2015-08-02T08:20:33Z</time>
      </trkpt>
      <trkpt lat="47.4045" lon="6.72405">
        <ele>445</ele>
        <time>2015-08-02T08:20:35Z</time>
      </trkpt>
      <trkpt lat="47.40445" lon="6.72403">
        <ele>445</ele>
        <time>2015-08-02T08:20:35Z</time>
      </trkpt>
      <trkpt lat="47.40441" lon="6.72402">
        <ele>446</ele>
        <time>2015-08-02T08:20:36Z</time>
      </trkpt>
      <trkpt lat="47.40434" lon="6.72399">
        <ele>446</ele>
        <time>2015-08-02T08:20:37Z</time>
      </trkpt>
      <trkpt lat="47.40424" lon="6.72398">
        <ele>447</ele>
        <time>2015-08-02T08:20:39Z</time>
      </trkpt>
      <trkpt lat="47.40421" lon="6.72397">
        <ele>447</ele>
        <time>2015-08-02T08:20:40Z</time>
      </trkpt>
      <trkpt lat="47.40415" lon="6.72395">
        <ele>452</ele>
        <time>2015-08-02T08:20:41Z</time>
      </trkpt>
      <trkpt lat="47.40404" lon="6.72391">
        <ele>452</ele>
        <time>2015-08-02T08:20:43Z</time>
      </trkpt>
      <trkpt lat="47.40393" lon="6.72386">
        <ele>453</ele>
        <time>2015-08-02T08:20:44Z</time>
      </trkpt>
      <trkpt lat="47.40389" lon="6.72383">
        <ele>453</ele>
        <time>2015-08-02T08:20:45Z</time>
      </trkpt>
      <trkpt lat="47.40385" lon="6.72381">
        <ele>454</ele>
        <time>2015-08-02T08:20:46Z</time>
      </trkpt>
      <trkpt lat="47.40381" lon="6.72379">
        <ele>454</ele>
        <time>2015-08-02T08:20:46Z</time>
      </trkpt>
      <trkpt lat="47.40378" lon="6.72377">
        <ele>454</ele>
        <time>2015-08-02T08:20:48Z</time>
      </trkpt>
      <trkpt lat="47.40375" lon="6.72376">
        <ele>454</ele>
        <time>2015-08-02T08:20:49Z</time>
      </trkpt>
      <trkpt lat="47.40364" lon="6.72374">
        <ele>455</ele>
        <time>2015-08-02T08:20:51Z</time>
      </trkpt>
      <trkpt lat="47.4036" lon="6.72373">
        <ele>455</ele>
        <time>2015-08-02T08:20:51Z</time>
      </trkpt>
      <trkpt lat="47.40356" lon="6.72371">
        <ele>455</ele>
        <time>2015-08-02T08:20:52Z</time>
      </trkpt>
      <trkpt lat="47.40353" lon="6.7237">
        <ele>455</ele>
        <time>2015-08-02T08:20:53Z</time>
      </trkpt>
      <trkpt lat="47.40347" lon="6.72367">
        <ele>455</ele>
        <time>2015-08-02T08:20:53Z</time>
      </trkpt>
      <trkpt lat="47.40339" lon="6.72365">
        <ele>455</ele>
        <time>2015-08-02T08:20:54Z</time>
      </trkpt>
      <trkpt lat="47.40335" lon="6.72363">
        <ele>455</ele>
        <time>2015-08-02T08:20:55Z</time>
      </trkpt>
      <trkpt lat="47.40328" lon="6.7236">
        <ele>461</ele>
        <time>2015-08-02T08:20:57Z</time>
      </trkpt>
      <trkpt lat="47.40322" lon="6.72356">
        <ele>460</ele>
        <time>2015-08-02T08:20:59Z</time>
      </trkpt>
      <trkpt lat="47.40318" lon="6.72352">
        <ele>460</ele>
        <time>2015-08-02T08:20:59Z</time>
      </trkpt>
      <trkpt lat="47.40315" lon="6.72349">
        <ele>460</ele>
        <time>2015-08-02T08:21:00Z</time>
      </trkpt>
      <trkpt lat="47.40311" lon="6.72344">
        <ele>460</ele>
        <time>2015-08-02T08:21:01Z</time>
      </trkpt>
      <trkpt lat="47.40308" lon="6.7234">
        <ele>461</ele>
        <time>2015-08-02T08:21:01Z</time>
      </trkpt>
      <trkpt lat="47.40304" lon="6.72336">
        <ele>461</ele>
        <time>2015-08-02T08:21:03Z</time>
      </trkpt>
      <trkpt lat="47.40301" lon="6.72333">
        <ele>460</ele>
        <time>2015-08-02T08:21:03Z</time>
      </trkpt>
      <trkpt lat="47.40298" lon="6.7233">
        <ele>461</ele>
        <time>2015-08-02T08:21:03Z</time>
      </trkpt>
      <trkpt lat="47.40289" lon="6.72326">
        <ele>461</ele>
        <time>2015-08-02T08:21:05Z</time>
      </trkpt>
      <trkpt lat="47.40286" lon="6.72324">
        <ele>462</ele>
        <time>2015-08-02T08:21:06Z</time>
      </trkpt>
      <trkpt lat="47.40284" lon="6.72322">
        <ele>462</ele>
        <time>2015-08-02T08:21:07Z</time>
      </trkpt>
      <trkpt lat="47.4028" lon="6.72317">
        <ele>462</ele>
        <time>2015-08-02T08:21:09Z</time>
      </trkpt>
      <trkpt lat="47.40277" lon="6.72315">
        <ele>462</ele>
        <time>2015-08-02T08:21:10Z</time>
      </trkpt>
      <trkpt lat="47.40272" lon="6.72312">
        <ele>462</ele>
        <time>2015-08-02T08:21:13Z</time>
      </trkpt>
      <trkpt lat="47.40266" lon="6.7231">
        <ele>462</ele>
        <time>2015-08-02T08:21:15Z</time>
      </trkpt>
      <trkpt lat="47.40262" lon="6.72307">
        <ele>462</ele>
        <time>2015-08-02T08:21:18Z</time>
      </trkpt>
      <trkpt lat="47.40258" lon="6.72305">
        <ele>462</ele>
        <time>2015-08-02T08:21:18Z</time>
      </trkpt>
      <trkpt lat="47.40252" lon="6.72303">
        <ele>463</ele>
        <time>2015-08-02T08:21:20Z</time>
      </trkpt>
      <trkpt lat="47.40246" lon="6.72301">
        <ele>464</ele>
        <time>2015-08-02T08:21:21Z</time>
      </trkpt>
      <trkpt lat="47.40241" lon="6.72298">
        <ele>464</ele>
        <time>2015-08-02T08:21:23Z</time>
      </trkpt>
      <trkpt lat="47.40238" lon="6.72296">
        <ele>464</ele>
        <time>2015-08-02T08:21:24Z</time>
      </trkpt>
      <trkpt lat="47.40236" lon="6.72296">
        <ele>464</ele>
        <time>2015-08-02T08:21:25Z</time>
      </trkpt>
      <trkpt lat="47.40231" lon="6.72295">
        <ele>464</ele>
        <time>2015-08-02T08:21:27Z</time>
      </trkpt>
      <trkpt lat="47.40227" lon="6.72293">
        <ele>464</ele>
        <time>2015-08-02T08:21:28Z</time>
      </trkpt>
      <trkpt lat="47.40225" lon="6.72292">
        <ele>465</ele>
        <time>2015-08-02T08:21:30Z</time>
      </trkpt>
      <trkpt lat="47.40221" lon="6.7229">
        <ele>465</ele>
        <time>2015-08-02T08:21:31Z</time>
      </trkpt>
      <trkpt lat="47.40219" lon="6.72289">
        <ele>465</ele>
        <time>2015-08-02T08:21:32Z</time>
      </trkpt>
      <trkpt lat="47.40211" lon="6.72287">
        <ele>465</ele>
        <time>2015-08-02T08:21:34Z</time>
      </trkpt>
      <trkpt lat="47.40209" lon="6.72286">
        <ele>465</ele>
        <time>2015-08-02T08:21:34Z</time>
      </trkpt>
      <trkpt lat="47.40206" lon="6.72285">
        <ele>465</ele>
        <time>2015-08-02T08:21:36Z</time>
      </trkpt>
      <trkpt lat="47.402" lon="6.7228">
        <ele>465</ele>
        <time>2015-08-02T08:21:39Z</time>
      </trkpt>
      <trkpt lat="47.40194" lon="6.72278">
        <ele>465</ele>
        <time>2015-08-02T08:21:41Z</time>
      </trkpt>
      <trkpt lat="47.40185" lon="6.72276">
        <ele>464</ele>
        <time>2015-08-02T08:21:45Z</time>
      </trkpt>
      <trkpt lat="47.40183" lon="6.72276">
        <ele>464</ele>
        <time>2015-08-02T08:21:45Z</time>
      </trkpt>
      <trkpt lat="47.40179" lon="6.72275">
        <ele>464</ele>
        <time>2015-08-02T08:21:47Z</time>
      </trkpt>
      <trkpt lat="47.40177" lon="6.72275">
        <ele>464</ele>
        <time>2015-08-02T08:21:47Z</time>
      </trkpt>
      <trkpt lat="47.40172" lon="6.72274">
        <ele>464</ele>
        <time>2015-08-02T08:21:49Z</time>
      </trkpt>
      <trkpt lat="47.40165" lon="6.72271">
        <ele>467</ele>
        <time>2015-08-02T08:21:51Z</time>
      </trkpt>
      <trkpt lat="47.40157" lon="6.7227">
        <ele>467</ele>
        <time>2015-08-02T08:21:53Z</time>
      </trkpt>
      <trkpt lat="47.40149" lon="6.72268">
        <ele>468</ele>
        <time>2015-08-02T08:21:54Z</time>
      </trkpt>
      <trkpt lat="47.40143" lon="6.72266">
        <ele>468</ele>
        <time>2015-08-02T08:21:55Z</time>
      </trkpt>
      <trkpt lat="47.40131" lon="6.72262">
        <ele>469</ele>
        <time>2015-08-02T08:22:00Z</time>
      </trkpt>
      <trkpt lat="47.40127" lon="6.72262">
        <ele>469</ele>
        <time>2015-08-02T08:22:01Z</time>
      </trkpt>
      <trkpt lat="47.40121" lon="6.72261">
        <ele>470</ele>
        <time>2015-08-02T08:22:03Z</time>
      </trkpt>
      <trkpt lat="47.40117" lon="6.7226">
        <ele>470</ele>
        <time>2015-08-02T08:22:03Z</time>
      </trkpt>
      <trkpt lat="47.40113" lon="6.7226">
        <ele>470</ele>
        <time>2015-08-02T08:22:04Z</time>
      </trkpt>
      <trkpt lat="47.4011" lon="6.7226">
        <ele>470</ele>
        <time>2015-08-02T08:22:05Z</time>
      </trkpt>
      <trkpt lat="47.40106" lon="6.7226">
        <ele>470</ele>
        <time>2015-08-02T08:22:05Z</time>
      </trkpt>
      <trkpt lat="47.40102" lon="6.72259">
        <ele>470</ele>
        <time>2015-08-02T08:22:06Z</time>
      </trkpt>
      <trkpt lat="47.40099" lon="6.72258">
        <ele>470</ele>
        <time>2015-08-02T08:22:07Z</time>
      </trkpt>
      <trkpt lat="47.40097" lon="6.72257">
        <ele>470</ele>
        <time>2015-08-02T08:22:07Z</time>
      </trkpt>
      <trkpt lat="47.40094" lon="6.72255">
        <ele>470</ele>
        <time>2015-08-02T08:22:08Z</time>
      </trkpt>
      <trkpt lat="47.40089" lon="6.72252">
        <ele>470</ele>
        <time>2015-08-02T08:22:10Z</time>
      </trkpt>
      <trkpt lat="47.40087" lon="6.72252">
        <ele>469</ele>
        <time>2015-08-02T08:22:12Z</time>
      </trkpt>
      <trkpt lat="47.40083" lon="6.72254">
        <ele>471</ele>
        <time>2015-08-02T08:22:14Z</time>
      </trkpt>
      <trkpt lat="47.40081" lon="6.72248">
        <ele>470</ele>
        <time>2015-08-02T08:22:24Z</time>
      </trkpt>
      <trkpt lat="47.40081" lon="6.72247">
        <ele>470</ele>
        <time>2015-08-02T08:22:24Z</time>
      </trkpt>
      <trkpt lat="47.40077" lon="6.72244">
        <ele>472</ele>
        <time>2015-08-02T08:22:26Z</time>
      </trkpt>
      <trkpt lat="47.40073" lon="6.72239">
        <ele>473</ele>
        <time>2015-08-02T08:22:27Z</time>
      </trkpt>
      <trkpt lat="47.40066" lon="6.72234">
        <ele>475</ele>
        <time>2015-08-02T08:22:30Z</time>
      </trkpt>
      <trkpt lat="47.40063" lon="6.7223">
        <ele>475</ele>
        <time>2015-08-02T08:22:31Z</time>
      </trkpt>
      <trkpt lat="47.40061" lon="6.72227">
        <ele>476</ele>
        <time>2015-08-02T08:22:32Z</time>
      </trkpt>
      <trkpt lat="47.40059" lon="6.72224">
        <ele>476</ele>
        <time>2015-08-02T08:22:33Z</time>
      </trkpt>
      <trkpt lat="47.40058" lon="6.72221">
        <ele>476</ele>
        <time>2015-08-02T08:22:33Z</time>
      </trkpt>
      <trkpt lat="47.40055" lon="6.72216">
        <ele>476</ele>
        <time>2015-08-02T08:22:34Z</time>
      </trkpt>
      <trkpt lat="47.40051" lon="6.72209">
        <ele>477</ele>
        <time>2015-08-02T08:22:36Z</time>
      </trkpt>
      <trkpt lat="47.40046" lon="6.72202">
        <ele>477</ele>
        <time>2015-08-02T08:22:39Z</time>
      </trkpt>
      <trkpt lat="47.40045" lon="6.722">
        <ele>477</ele>
        <time>2015-08-02T08:22:39Z</time>
      </trkpt>
      <trkpt lat="47.4004" lon="6.72191">
        <ele>477</ele>
        <time>2015-08-02T08:22:41Z</time>
      </trkpt>
      <trkpt lat="47.40034" lon="6.72181">
        <ele>477</ele>
        <time>2015-08-02T08:22:43Z</time>
      </trkpt>
      <trkpt lat="47.40031" lon="6.72175">
        <ele>477</ele>
        <time>2015-08-02T08:22:44Z</time>
      </trkpt>
      <trkpt lat="47.40028" lon="6.72171">
        <ele>477</ele>
        <time>2015-08-02T08:22:46Z</time>
      </trkpt>
      <trkpt lat="47.40027" lon="6.7217">
        <ele>477</ele>
        <time>2015-08-02T08:22:48Z</time>
      </trkpt>
      <trkpt lat="47.40023" lon="6.72167">
        <ele>477</ele>
        <time>2015-08-02T08:22:50Z</time>
      </trkpt>
      <trkpt lat="47.40019" lon="6.72162">
        <ele>479</ele>
        <time>2015-08-02T08:22:53Z</time>
      </trkpt>
      <trkpt lat="47.40017" lon="6.7216">
        <ele>479</ele>
        <time>2015-08-02T08:22:53Z</time>
      </trkpt>
      <trkpt lat="47.40011" lon="6.72156">
        <ele>479</ele>
        <time>2015-08-02T08:22:55Z</time>
      </trkpt>
      <trkpt lat="47.40006" lon="6.72153">
        <ele>479</ele>
        <time>2015-08-02T08:22:57Z</time>
      </trkpt>
      <trkpt lat="47.40001" lon="6.72149">
        <ele>479</ele>
        <time>2015-08-02T08:22:59Z</time>
      </trkpt>
      <trkpt lat="47.39999" lon="6.72147">
        <ele>481</ele>
        <time>2015-08-02T08:23:00Z</time>
      </trkpt>
      <trkpt lat="47.39996" lon="6.72144">
        <ele>481</ele>
        <time>2015-08-02T08:23:01Z</time>
      </trkpt>
      <trkpt lat="47.39992" lon="6.7214">
        <ele>482</ele>
        <time>2015-08-02T08:23:02Z</time>
      </trkpt>
      <trkpt lat="47.39987" lon="6.72132">
        <ele>482</ele>
        <time>2015-08-02T08:23:03Z</time>
      </trkpt>
      <trkpt lat="47.39984" lon="6.72127">
        <ele>483</ele>
        <time>2015-08-02T08:23:06Z</time>
      </trkpt>
      <trkpt lat="47.39975" lon="6.72119">
        <ele>483</ele>
        <time>2015-08-02T08:23:08Z</time>
      </trkpt>
      <trkpt lat="47.39972" lon="6.72117">
        <ele>483</ele>
        <time>2015-08-02T08:23:09Z</time>
      </trkpt>
      <trkpt lat="47.3997" lon="6.72115">
        <ele>483</ele>
        <time>2015-08-02T08:23:10Z</time>
      </trkpt>
      <trkpt lat="47.39967" lon="6.7211">
        <ele>483</ele>
        <time>2015-08-02T08:23:11Z</time>
      </trkpt>
      <trkpt lat="47.39967" lon="6.72107">
        <ele>483</ele>
        <time>2015-08-02T08:23:12Z</time>
      </trkpt>
      <trkpt lat="47.39967" lon="6.72103">
        <ele>483</ele>
        <time>2015-08-02T08:23:12Z</time>
      </trkpt>
      <trkpt lat="47.39967" lon="6.72098">
        <ele>483</ele>
        <time>2015-08-02T08:23:13Z</time>
      </trkpt>
      <trkpt lat="47.39967" lon="6.72095">
        <ele>483</ele>
        <time>2015-08-02T08:23:13Z</time>
      </trkpt>
      <trkpt lat="47.39968" lon="6.72091">
        <ele>483</ele>
        <time>2015-08-02T08:23:13Z</time>
      </trkpt>
      <trkpt lat="47.39971" lon="6.72087">
        <ele>483</ele>
        <time>2015-08-02T08:23:16Z</time>
      </trkpt>
      <trkpt lat="47.39973" lon="6.72086">
        <ele>483</ele>
        <time>2015-08-02T08:23:16Z</time>
      </trkpt>
      <trkpt lat="47.39976" lon="6.72086">
        <ele>483</ele>
        <time>2015-08-02T08:23:18Z</time>
      </trkpt>
      <trkpt lat="47.39977" lon="6.72085">
        <ele>483</ele>
        <time>2015-08-02T08:23:18Z</time>
      </trkpt>
      <trkpt lat="47.3998" lon="6.72083">
        <ele>487</ele>
        <time>2015-08-02T08:23:21Z</time>
      </trkpt>
      <trkpt lat="47.39982" lon="6.72081">
        <ele>487</ele>
        <time>2015-08-02T08:23:21Z</time>
      </trkpt>
      <trkpt lat="47.39984" lon="6.72078">
        <ele>486</ele>
        <time>2015-08-02T08:23:23Z</time>
      </trkpt>
      <trkpt lat="47.39985" lon="6.72076">
        <ele>486</ele>
        <time>2015-08-02T08:23:23Z</time>
      </trkpt>
      <trkpt lat="47.39988" lon="6.72075">
        <ele>486</ele>
        <time>2015-08-02T08:23:24Z</time>
      </trkpt>
      <trkpt lat="47.39989" lon="6.72074">
        <ele>486</ele>
        <time>2015-08-02T08:23:25Z</time>
      </trkpt>
      <trkpt lat="47.39995" lon="6.72072">
        <ele>486</ele>
        <time>2015-08-02T08:23:28Z</time>
      </trkpt>
      <trkpt lat="47.39998" lon="6.72074">
        <ele>485</ele>
        <time>2015-08-02T08:23:31Z</time>
      </trkpt>
      <trkpt lat="47.39999" lon="6.72074">
        <ele>485</ele>
        <time>2015-08-02T08:23:32Z</time>
      </trkpt>
      <trkpt lat="47.40003" lon="6.72074">
        <ele>486</ele>
        <time>2015-08-02T08:23:34Z</time>
      </trkpt>
      <trkpt lat="47.40004" lon="6.72075">
        <ele>486</ele>
        <time>2015-08-02T08:23:35Z</time>
      </trkpt>
      <trkpt lat="47.40007" lon="6.72079">
        <ele>485</ele>
        <time>2015-08-02T08:23:37Z</time>
      </trkpt>
      <trkpt lat="47.40008" lon="6.72079">
        <ele>486</ele>
        <time>2015-08-02T08:23:37Z</time>
      </trkpt>
      <trkpt lat="47.40014" lon="6.7208">
        <ele>486</ele>
        <time>2015-08-02T08:23:41Z</time>
      </trkpt>
      <trkpt lat="47.40018" lon="6.72084">
        <ele>483</ele>
        <time>2015-08-02T08:23:43Z</time>
      </trkpt>
      <trkpt lat="47.40023" lon="6.72086">
        <ele>483</ele>
        <time>2015-08-02T08:23:45Z</time>
      </trkpt>
      <trkpt lat="47.40027" lon="6.72088">
        <ele>483</ele>
        <time>2015-08-02T08:23:48Z</time>
      </trkpt>
      <trkpt lat="47.40031" lon="6.72091">
        <ele>483</ele>
        <time>2015-08-02T08:23:50Z</time>
      </trkpt>
      <trkpt lat="47.40034" lon="6.72097">
        <ele>483</ele>
        <time>2015-08-02T08:23:53Z</time>
      </trkpt>
      <trkpt lat="47.40034" lon="6.72097">
        <ele>483</ele>
        <time>2015-08-02T08:23:53Z</time>
      </trkpt>
      <trkpt lat="47.40038" lon="6.72099">
        <ele>483</ele>
        <time>2015-08-02T08:23:55Z</time>
      </trkpt>
      <trkpt lat="47.40039" lon="6.721">
        <ele>483</ele>
        <time>2015-08-02T08:23:56Z</time>
      </trkpt>
      <trkpt lat="47.40043" lon="6.72102">
        <ele>483</ele>
        <time>2015-08-02T08:23:58Z</time>
      </trkpt>
      <trkpt lat="47.40045" lon="6.72103">
        <ele>483</ele>
        <time>2015-08-02T08:23:59Z</time>
      </trkpt>
      <trkpt lat="47.40048" lon="6.72107">
        <ele>483</ele>
        <time>2015-08-02T08:24:03Z</time>
      </trkpt>
      <trkpt lat="47.40049" lon="6.72107">
        <ele>483</ele>
        <time>2015-08-02T08:24:03Z</time>
      </trkpt>
      <trkpt lat="47.40057" lon="6.72111">
        <ele>483</ele>
        <time>2015-08-02T08:24:06Z</time>
      </trkpt>
      <trkpt lat="47.40067" lon="6.72115">
        <ele>483</ele>
        <time>2015-08-02T08:24:10Z</time>
      </trkpt>
      <trkpt lat="47.40069" lon="6.72115">
        <ele>483</ele>
        <time>2015-08-02T08:24:11Z</time>
      </trkpt>
      <trkpt lat="47.40073" lon="6.72118">
        <ele>483</ele>
        <time>2015-08-02T08:24:13Z</time>
      </trkpt>
      <trkpt lat="47.40076" lon="6.72121">
        <ele>483</ele>
        <time>2015-08-02T08:24:13Z</time>
      </trkpt>
      <trkpt lat="47.40077" lon="6.72122">
        <ele>483</ele>
        <time>2015-08-02T08:24:15Z</time>
      </trkpt>
      <trkpt lat="47.40081" lon="6.72125">
        <ele>482</ele>
        <time>2015-08-02T08:24:17Z</time>
      </trkpt>
      <trkpt lat="47.40083" lon="6.72126">
        <ele>482</ele>
        <time>2015-08-02T08:24:19Z</time>
      </trkpt>
      <trkpt lat="47.40086" lon="6.72127">
        <ele>482</ele>
        <time>2015-08-02T08:24:20Z</time>
      </trkpt>
      <trkpt lat="47.40087" lon="6.72127">
        <ele>482</ele>
        <time>2015-08-02T08:24:21Z</time>
      </trkpt>
      <trkpt lat="47.40091" lon="6.72127">
        <ele>482</ele>
        <time>2015-08-02T08:24:23Z</time>
      </trkpt>
      <trkpt lat="47.40099" lon="6.72125">
        <ele>482</ele>
        <time>2015-08-02T08:24:24Z</time>
      </trkpt>
      <trkpt lat="47.40102" lon="6.72123">
        <ele>482</ele>
        <time>2015-08-02T08:24:26Z</time>
      </trkpt>
      <trkpt lat="47.40108" lon="6.7212">
        <ele>483</ele>
        <time>2015-08-02T08:24:29Z</time>
      </trkpt>
      <trkpt lat="47.40109" lon="6.72118">
        <ele>483</ele>
        <time>2015-08-02T08:24:29Z</time>
      </trkpt>
      <trkpt lat="47.4011" lon="6.72113">
        <ele>483</ele>
        <time>2015-08-02T08:24:32Z</time>
      </trkpt>
      <trkpt lat="47.4011" lon="6.72111">
        <ele>483</ele>
        <time>2015-08-02T08:24:33Z</time>
      </trkpt>
      <trkpt lat="47.40108" lon="6.72106">
        <ele>484</ele>
        <time>2015-08-02T08:24:33Z</time>
      </trkpt>
      <trkpt lat="47.40107" lon="6.72104">
        <ele>484</ele>
        <time>2015-08-02T08:24:34Z</time>
      </trkpt>
      <trkpt lat="47.40106" lon="6.72086">
        <ele>485</ele>
        <time>2015-08-02T08:24:37Z</time>
      </trkpt>
      <trkpt lat="47.40106" lon="6.72083">
        <ele>489</ele>
        <time>2015-08-02T08:24:38Z</time>
      </trkpt>
      <trkpt lat="47.40106" lon="6.72076">
        <ele>489</ele>
        <time>2015-08-02T08:24:39Z</time>
      </trkpt>
      <trkpt lat="47.40108" lon="6.72063">
        <ele>489</ele>
        <time>2015-08-02T08:24:41Z</time>
      </trkpt>
      <trkpt lat="47.4011" lon="6.72043">
        <ele>490</ele>
        <time>2015-08-02T08:24:44Z</time>
      </trkpt>
      <trkpt lat="47.40112" lon="6.7203">
        <ele>491</ele>
        <time>2015-08-02T08:24:46Z</time>
      </trkpt>
      <trkpt lat="47.40112" lon="6.72027">
        <ele>491</ele>
        <time>2015-08-02T08:24:47Z</time>
      </trkpt>
      <trkpt lat="47.40115" lon="6.72018">
        <ele>491</ele>
        <time>2015-08-02T08:24:50Z</time>
      </trkpt>
      <trkpt lat="47.40115" lon="6.72014">
        <ele>491</ele>
        <time>2015-08-02T08:24:50Z</time>
      </trkpt>
      <trkpt lat="47.40116" lon="6.72011">
        <ele>491</ele>
        <time>2015-08-02T08:24:51Z</time>
      </trkpt>
      <trkpt lat="47.40116" lon="6.72006">
        <ele>491</ele>
        <time>2015-08-02T08:24:52Z</time>
      </trkpt>
      <trkpt lat="47.40116" lon="6.71998">
        <ele>493</ele>
        <time>2015-08-02T08:24:53Z</time>
      </trkpt>
      <trkpt lat="47.40117" lon="6.71982">
        <ele>493</ele>
        <time>2015-08-02T08:24:56Z</time>
      </trkpt>
      <trkpt lat="47.40117" lon="6.71975">
        <ele>493</ele>
        <time>2015-08-02T08:24:57Z</time>
      </trkpt>
      <trkpt lat="47.40118" lon="6.7196">
        <ele>493</ele>
        <time>2015-08-02T08:25:00Z</time>
      </trkpt>
      <trkpt lat="47.40119" lon="6.71956">
        <ele>493</ele>
        <time>2015-08-02T08:25:00Z</time>
      </trkpt>
      <trkpt lat="47.4012" lon="6.71947">
        <ele>493</ele>
        <time>2015-08-02T08:25:02Z</time>
      </trkpt>
      <trkpt lat="47.4012" lon="6.71943">
        <ele>493</ele>
        <time>2015-08-02T08:25:02Z</time>
      </trkpt>
      <trkpt lat="47.4012" lon="6.71939">
        <ele>493</ele>
        <time>2015-08-02T08:25:03Z</time>
      </trkpt>
      <trkpt lat="47.4012" lon="6.71936">
        <ele>493</ele>
        <time>2015-08-02T08:25:04Z</time>
      </trkpt>
      <trkpt lat="47.40118" lon="6.71931">
        <ele>493</ele>
        <time>2015-08-02T08:25:05Z</time>
      </trkpt>
      <trkpt lat="47.40117" lon="6.71929">
        <ele>493</ele>
        <time>2015-08-02T08:25:06Z</time>
      </trkpt>
      <trkpt lat="47.40113" lon="6.71931">
        <ele>493</ele>
        <time>2015-08-02T08:25:07Z</time>
      </trkpt>
      <trkpt lat="47.40105" lon="6.71938">
        <ele>494</ele>
        <time>2015-08-02T08:25:09Z</time>
      </trkpt>
      <trkpt lat="47.40094" lon="6.71948">
        <ele>494</ele>
        <time>2015-08-02T08:25:13Z</time>
      </trkpt>
      <trkpt lat="47.40087" lon="6.71955">
        <ele>494</ele>
        <time>2015-08-02T08:25:14Z</time>
      </trkpt>
      <trkpt lat="47.40082" lon="6.71961">
        <ele>496</ele>
        <time>2015-08-02T08:25:16Z</time>
      </trkpt>
      <trkpt lat="47.4008" lon="6.71963">
        <ele>496</ele>
        <time>2015-08-02T08:25:16Z</time>
      </trkpt>
      <trkpt lat="47.40077" lon="6.71965">
        <ele>496</ele>
        <time>2015-08-02T08:25:19Z</time>
      </trkpt>
      <trkpt lat="47.40072" lon="6.7197">
        <ele>496</ele>
        <time>2015-08-02T08:25:24Z</time>
      </trkpt>
      <trkpt lat="47.40068" lon="6.71972">
        <ele>496</ele>
        <time>2015-08-02T08:25:27Z</time>
      </trkpt>
      <trkpt lat="47.40063" lon="6.71972">
        <ele>496</ele>
        <time>2015-08-02T08:26:27Z</time>
      </trkpt>
      <trkpt lat="47.40063" lon="6.71973">
        <ele>496</ele>
        <time>2015-08-02T08:26:28Z</time>
      </trkpt>
      <trkpt lat="47.40059" lon="6.71975">
        <ele>496</ele>
        <time>2015-08-02T08:28:19Z</time>
      </trkpt>
      <trkpt lat="47.40054" lon="6.71978">
        <ele>497</ele>
        <time>2015-08-02T08:28:30Z</time>
      </trkpt>
      <trkpt lat="47.40054" lon="6.71978">
        <ele>497</ele>
        <time>2015-08-02T08:28:31Z</time>
      </trkpt>
      <trkpt lat="47.40052" lon="6.71977">
        <ele>497</ele>
        <time>2015-08-02T08:28:32Z</time>
      </trkpt>
      <trkpt lat="47.40046" lon="6.71974">
        <ele>497</ele>
        <time>2015-08-02T08:28:34Z</time>
      </trkpt>
      <trkpt lat="47.40039" lon="6.7197">
        <ele>497</ele>
        <time>2015-08-02T08:28:38Z</time>
      </trkpt>
      <trkpt lat="47.40036" lon="6.71966">
        <ele>497</ele>
        <time>2015-08-02T08:28:38Z</time>
      </trkpt>
      <trkpt lat="47.40029" lon="6.71961">
        <ele>497</ele>
        <time>2015-08-02T08:28:41Z</time>
      </trkpt>
      <trkpt lat="47.40027" lon="6.7196">
        <ele>497</ele>
        <time>2015-08-02T08:28:42Z</time>
      </trkpt>
      <trkpt lat="47.40025" lon="6.71959">
        <ele>497</ele>
        <time>2015-08-02T08:28:43Z</time>
      </trkpt>
      <trkpt lat="47.40021" lon="6.71955">
        <ele>497</ele>
        <time>2015-08-02T08:28:44Z</time>
      </trkpt>
      <trkpt lat="47.40019" lon="6.71953">
        <ele>497</ele>
        <time>2015-08-02T08:28:44Z</time>
      </trkpt>
      <trkpt lat="47.40017" lon="6.71951">
        <ele>498</ele>
        <time>2015-08-02T08:28:45Z</time>
      </trkpt>
      <trkpt lat="47.40012" lon="6.71948">
        <ele>498</ele>
        <time>2015-08-02T08:28:46Z</time>
      </trkpt>
      <trkpt lat="47.4001" lon="6.71947">
        <ele>498</ele>
        <time>2015-08-02T08:28:47Z</time>
      </trkpt>
      <trkpt lat="47.40007" lon="6.71947">
        <ele>498</ele>
        <time>2015-08-02T08:28:49Z</time>
      </trkpt>
      <trkpt lat="47.40002" lon="6.71945">
        <ele>498</ele>
        <time>2015-08-02T08:28:52Z</time>
      </trkpt>
      <trkpt lat="47.4" lon="6.71944">
        <ele>500</ele>
        <time>2015-08-02T08:28:53Z</time>
      </trkpt>
      <trkpt lat="47.39996" lon="6.71941">
        <ele>500</ele>
        <time>2015-08-02T08:28:53Z</time>
      </trkpt>
      <trkpt lat="47.39993" lon="6.71941">
        <ele>500</ele>
        <time>2015-08-02T08:28:54Z</time>
      </trkpt>
      <trkpt lat="47.39991" lon="6.7194">
        <ele>500</ele>
        <time>2015-08-02T08:28:55Z</time>
      </trkpt>
      <trkpt lat="47.39984" lon="6.7194">
        <ele>501</ele>
        <time>2015-08-02T08:28:57Z</time>
      </trkpt>
      <trkpt lat="47.39982" lon="6.71939">
        <ele>501</ele>
        <time>2015-08-02T08:28:57Z</time>
      </trkpt>
      <trkpt lat="47.39972" lon="6.71933">
        <ele>501</ele>
        <time>2015-08-02T08:29:02Z</time>
      </trkpt>
      <trkpt lat="47.39962" lon="6.7193">
        <ele>502</ele>
        <time>2015-08-02T08:29:05Z</time>
      </trkpt>
      <trkpt lat="47.3996" lon="6.71929">
        <ele>502</ele>
        <time>2015-08-02T08:29:05Z</time>
      </trkpt>
      <trkpt lat="47.39958" lon="6.71927">
        <ele>502</ele>
        <time>2015-08-02T08:29:06Z</time>
      </trkpt>
      <trkpt lat="47.39953" lon="6.71922">
        <ele>503</ele>
        <time>2015-08-02T08:29:08Z</time>
      </trkpt>
      <trkpt lat="47.39947" lon="6.71921">
        <ele>503</ele>
        <time>2015-08-02T08:29:09Z</time>
      </trkpt>
      <trkpt lat="47.39943" lon="6.7192">
        <ele>503</ele>
        <time>2015-08-02T08:29:10Z</time>
      </trkpt>
      <trkpt lat="47.39941" lon="6.7192">
        <ele>504</ele>
        <time>2015-08-02T08:29:11Z</time>
      </trkpt>
      <trkpt lat="47.39934" lon="6.71918">
        <ele>505</ele>
        <time>2015-08-02T08:29:13Z</time>
      </trkpt>
      <trkpt lat="47.39929" lon="6.71918">
        <ele>506</ele>
        <time>2015-08-02T08:29:13Z</time>
      </trkpt>
      <trkpt lat="47.39924" lon="6.71917">
        <ele>508</ele>
        <time>2015-08-02T08:29:15Z</time>
      </trkpt>
      <trkpt lat="47.39922" lon="6.71916">
        <ele>508</ele>
        <time>2015-08-02T08:29:16Z</time>
      </trkpt>
      <trkpt lat="47.39911" lon="6.71913">
        <ele>510</ele>
        <time>2015-08-02T08:29:20Z</time>
      </trkpt>
      <trkpt lat="47.39906" lon="6.71911">
        <ele>511</ele>
        <time>2015-08-02T08:29:21Z</time>
      </trkpt>
      <trkpt lat="47.39889" lon="6.71908">
        <ele>513</ele>
        <time>2015-08-02T08:29:25Z</time>
      </trkpt>
      <trkpt lat="47.39886" lon="6.71907">
        <ele>513</ele>
        <time>2015-08-02T08:29:25Z</time>
      </trkpt>
      <trkpt lat="47.39883" lon="6.71906">
        <ele>513</ele>
        <time>2015-08-02T08:29:27Z</time>
      </trkpt>
      <trkpt lat="47.39874" lon="6.71903">
        <ele>514</ele>
        <time>2015-08-02T08:29:29Z</time>
      </trkpt>
      <trkpt lat="47.3987" lon="6.71902">
        <ele>514</ele>
        <time>2015-08-02T08:29:30Z</time>
      </trkpt>
      <trkpt lat="47.39863" lon="6.719">
        <ele>515</ele>
        <time>2015-08-02T08:29:31Z</time>
      </trkpt>
      <trkpt lat="47.39858" lon="6.71898">
        <ele>515</ele>
        <time>2015-08-02T08:29:33Z</time>
      </trkpt>
      <trkpt lat="47.39856" lon="6.71898">
        <ele>515</ele>
        <time>2015-08-02T08:29:33Z</time>
      </trkpt>
      <trkpt lat="47.39851" lon="6.71896">
        <ele>516</ele>
        <time>2015-08-02T08:29:34Z</time>
      </trkpt>
      <trkpt lat="47.39848" lon="6.71894">
        <ele>516</ele>
        <time>2015-08-02T08:29:35Z</time>
      </trkpt>
      <trkpt lat="47.39846" lon="6.71892">
        <ele>516</ele>
        <time>2015-08-02T08:29:37Z</time>
      </trkpt>
      <trkpt lat="47.39841" lon="6.71885">
        <ele>516</ele>
        <time>2015-08-02T08:29:39Z</time>
      </trkpt>
      <trkpt lat="47.39837" lon="6.71881">
        <ele>516</ele>
        <time>2015-08-02T08:29:40Z</time>
      </trkpt>
      <trkpt lat="47.39835" lon="6.71877">
        <ele>516</ele>
        <time>2015-08-02T08:29:42Z</time>
      </trkpt>
      <trkpt lat="47.39835" lon="6.71875">
        <ele>516</ele>
        <time>2015-08-02T08:29:43Z</time>
      </trkpt>
      <trkpt lat="47.39833" lon="6.71869">
        <ele>519</ele>
        <time>2015-08-02T08:29:44Z</time>
      </trkpt>
      <trkpt lat="47.39828" lon="6.71863">
        <ele>519</ele>
        <time>2015-08-02T08:29:47Z</time>
      </trkpt>
      <trkpt lat="47.39825" lon="6.7186">
        <ele>519</ele>
        <time>2015-08-02T08:29:47Z</time>
      </trkpt>
      <trkpt lat="47.39822" lon="6.71855">
        <ele>519</ele>
        <time>2015-08-02T08:29:49Z</time>
      </trkpt>
      <trkpt lat="47.39818" lon="6.71851">
        <ele>519</ele>
        <time>2015-08-02T08:29:50Z</time>
      </trkpt>
      <trkpt lat="47.39812" lon="6.71848">
        <ele>519</ele>
        <time>2015-08-02T08:29:51Z</time>
      </trkpt>
      <trkpt lat="47.39805" lon="6.71846">
        <ele>519</ele>
        <time>2015-08-02T08:29:53Z</time>
      </trkpt>
      <trkpt lat="47.39796" lon="6.71842">
        <ele>519</ele>
        <time>2015-08-02T08:29:54Z</time>
      </trkpt>
      <trkpt lat="47.39793" lon="6.7184">
        <ele>519</ele>
        <time>2015-08-02T08:29:55Z</time>
      </trkpt>
      <trkpt lat="47.39788" lon="6.71837">
        <ele>520</ele>
        <time>2015-08-02T08:29:56Z</time>
      </trkpt>
      <trkpt lat="47.3978" lon="6.71833">
        <ele>521</ele>
        <time>2015-08-02T08:29:58Z</time>
      </trkpt>
      <trkpt lat="47.39775" lon="6.71831">
        <ele>521</ele>
        <time>2015-08-02T08:30:01Z</time>
      </trkpt>
      <trkpt lat="47.39773" lon="6.71829">
        <ele>521</ele>
        <time>2015-08-02T08:30:01Z</time>
      </trkpt>
      <trkpt lat="47.39768" lon="6.71827">
        <ele>521</ele>
        <time>2015-08-02T08:30:03Z</time>
      </trkpt>
      <trkpt lat="47.39765" lon="6.71822">
        <ele>521</ele>
        <time>2015-08-02T08:30:05Z</time>
      </trkpt>
      <trkpt lat="47.39764" lon="6.71821">
        <ele>521</ele>
        <time>2015-08-02T08:30:05Z</time>
      </trkpt>
      <trkpt lat="47.39761" lon="6.7182">
        <ele>521</ele>
        <time>2015-08-02T08:30:07Z</time>
      </trkpt>
      <trkpt lat="47.39754" lon="6.71818">
        <ele>522</ele>
        <time>2015-08-02T08:30:08Z</time>
      </trkpt>
      <trkpt lat="47.39752" lon="6.71816">
        <ele>522</ele>
        <time>2015-08-02T08:30:09Z</time>
      </trkpt>
      <trkpt lat="47.39748" lon="6.71814">
        <ele>525</ele>
        <time>2015-08-02T08:30:10Z</time>
      </trkpt>
      <trkpt lat="47.39745" lon="6.71813">
        <ele>525</ele>
        <time>2015-08-02T08:30:11Z</time>
      </trkpt>
      <trkpt lat="47.3974" lon="6.71811">
        <ele>525</ele>
        <time>2015-08-02T08:30:12Z</time>
      </trkpt>
      <trkpt lat="47.39734" lon="6.71809">
        <ele>525</ele>
        <time>2015-08-02T08:30:14Z</time>
      </trkpt>
      <trkpt lat="47.39731" lon="6.71806">
        <ele>526</ele>
        <time>2015-08-02T08:30:15Z</time>
      </trkpt>
      <trkpt lat="47.39728" lon="6.71805">
        <ele>526</ele>
        <time>2015-08-02T08:30:16Z</time>
      </trkpt>
      <trkpt lat="47.39725" lon="6.71804">
        <ele>526</ele>
        <time>2015-08-02T08:30:16Z</time>
      </trkpt>
      <trkpt lat="47.39723" lon="6.71804">
        <ele>526</ele>
        <time>2015-08-02T08:30:17Z</time>
      </trkpt>
      <trkpt lat="47.39711" lon="6.71804">
        <ele>527</ele>
        <time>2015-08-02T08:30:20Z</time>
      </trkpt>
      <trkpt lat="47.39704" lon="6.71806">
        <ele>527</ele>
        <time>2015-08-02T08:30:23Z</time>
      </trkpt>
      <trkpt lat="47.39701" lon="6.71808">
        <ele>527</ele>
        <time>2015-08-02T08:30:23Z</time>
      </trkpt>
      <trkpt lat="47.39698" lon="6.7181">
        <ele>527</ele>
        <time>2015-08-02T08:30:24Z</time>
      </trkpt>
      <trkpt lat="47.39695" lon="6.71812">
        <ele>528</ele>
        <time>2015-08-02T08:30:24Z</time>
      </trkpt>
      <trkpt lat="47.39692" lon="6.71813">
        <ele>528</ele>
        <time>2015-08-02T08:30:25Z</time>
      </trkpt>
      <trkpt lat="47.3969" lon="6.71816">
        <ele>528</ele>
        <time>2015-08-02T08:30:26Z</time>
      </trkpt>
      <trkpt lat="47.39688" lon="6.71818">
        <ele>528</ele>
        <time>2015-08-02T08:30:26Z</time>
      </trkpt>
      <trkpt lat="47.39686" lon="6.71819">
        <ele>528</ele>
        <time>2015-08-02T08:30:28Z</time>
      </trkpt>
      <trkpt lat="47.39681" lon="6.71822">
        <ele>528</ele>
        <time>2015-08-02T08:30:29Z</time>
      </trkpt>
      <trkpt lat="47.39674" lon="6.71826">
        <ele>528</ele>
        <time>2015-08-02T08:30:31Z</time>
      </trkpt>
      <trkpt lat="47.3967" lon="6.71827">
        <ele>529</ele>
        <time>2015-08-02T08:30:33Z</time>
      </trkpt>
      <trkpt lat="47.39667" lon="6.71829">
        <ele>530</ele>
        <time>2015-08-02T08:30:33Z</time>
      </trkpt>
      <trkpt lat="47.39661" lon="6.71833">
        <ele>530</ele>
        <time>2015-08-02T08:30:34Z</time>
      </trkpt>
      <trkpt lat="47.39659" lon="6.71835">
        <ele>529</ele>
        <time>2015-08-02T08:30:34Z</time>
      </trkpt>
      <trkpt lat="47.39657" lon="6.71837">
        <ele>529</ele>
        <time>2015-08-02T08:30:35Z</time>
      </trkpt>
      <trkpt lat="47.39657" lon="6.71839">
        <ele>529</ele>
        <time>2015-08-02T08:30:36Z</time>
      </trkpt>
      <trkpt lat="47.39651" lon="6.71848">
        <ele>529</ele>
        <time>2015-08-02T08:30:36Z</time>
      </trkpt>
      <trkpt lat="47.39647" lon="6.71853">
        <ele>529</ele>
        <time>2015-08-02T08:30:37Z</time>
      </trkpt>
      <trkpt lat="47.39642" lon="6.71856">
        <ele>529</ele>
        <time>2015-08-02T08:30:38Z</time>
      </trkpt>
      <trkpt lat="47.3964" lon="6.71858">
        <ele>529</ele>
        <time>2015-08-02T08:30:39Z</time>
      </trkpt>
      <trkpt lat="47.39635" lon="6.71859">
        <ele>529</ele>
        <time>2015-08-02T08:30:40Z</time>
      </trkpt>
      <trkpt lat="47.39631" lon="6.71856">
        <ele>530</ele>
        <time>2015-08-02T08:30:40Z</time>
      </trkpt>
      <trkpt lat="47.39628" lon="6.71857">
        <ele>530</ele>
        <time>2015-08-02T08:30:42Z</time>
      </trkpt>
      <trkpt lat="47.39625" lon="6.71858">
        <ele>530</ele>
        <time>2015-08-02T08:30:43Z</time>
      </trkpt>
      <trkpt lat="47.39623" lon="6.71845">
        <ele>530</ele>
        <time>2015-08-02T08:30:43Z</time>
      </trkpt>
      <trkpt lat="47.39622" lon="6.71841">
        <ele>531</ele>
        <time>2015-08-02T08:30:44Z</time>
      </trkpt>
      <trkpt lat="47.39623" lon="6.71838">
        <ele>531</ele>
        <time>2015-08-02T08:30:44Z</time>
      </trkpt>
      <trkpt lat="47.39623" lon="6.7183">
        <ele>535</ele>
        <time>2015-08-02T08:30:46Z</time>
      </trkpt>
      <trkpt lat="47.39624" lon="6.71826">
        <ele>535</ele>
        <time>2015-08-02T08:30:46Z</time>
      </trkpt>
      <trkpt lat="47.39625" lon="6.71822">
        <ele>535</ele>
        <time>2015-08-02T08:30:47Z</time>
      </trkpt>
      <trkpt lat="47.39626" lon="6.71817">
        <ele>535</ele>
        <time>2015-08-02T08:30:48Z</time>
      </trkpt>
      <trkpt lat="47.39627" lon="6.71813">
        <ele>535</ele>
        <time>2015-08-02T08:30:48Z</time>
      </trkpt>
      <trkpt lat="47.39627" lon="6.71809">
        <ele>535</ele>
        <time>2015-08-02T08:30:50Z</time>
      </trkpt>
      <trkpt lat="47.39626" lon="6.71803">
        <ele>535</ele>
        <time>2015-08-02T08:30:51Z</time>
      </trkpt>
      <trkpt lat="47.39625" lon="6.71796">
        <ele>535</ele>
        <time>2015-08-02T08:30:53Z</time>
      </trkpt>
      <trkpt lat="47.39625" lon="6.71792">
        <ele>535</ele>
        <time>2015-08-02T08:30:53Z</time>
      </trkpt>
      <trkpt lat="47.39624" lon="6.71776">
        <ele>536</ele>
        <time>2015-08-02T08:30:56Z</time>
      </trkpt>
      <trkpt lat="47.39624" lon="6.71772">
        <ele>536</ele>
        <time>2015-08-02T08:30:57Z</time>
      </trkpt>
      <trkpt lat="47.39624" lon="6.71768">
        <ele>536</ele>
        <time>2015-08-02T08:30:57Z</time>
      </trkpt>
      <trkpt lat="47.39624" lon="6.7176">
        <ele>536</ele>
        <time>2015-08-02T08:31:00Z</time>
      </trkpt>
      <trkpt lat="47.39624" lon="6.71756">
        <ele>536</ele>
        <time>2015-08-02T08:31:00Z</time>
      </trkpt>
      <trkpt lat="47.39624" lon="6.71753">
        <ele>536</ele>
        <time>2015-08-02T08:31:01Z</time>
      </trkpt>
      <trkpt lat="47.39622" lon="6.71748">
        <ele>537</ele>
        <time>2015-08-02T08:31:02Z</time>
      </trkpt>
      <trkpt lat="47.39621" lon="6.71744">
        <ele>537</ele>
        <time>2015-08-02T08:31:03Z</time>
      </trkpt>
      <trkpt lat="47.3962" lon="6.71741">
        <ele>537</ele>
        <time>2015-08-02T08:31:03Z</time>
      </trkpt>
      <trkpt lat="47.3962" lon="6.71737">
        <ele>537</ele>
        <time>2015-08-02T08:31:03Z</time>
      </trkpt>
      <trkpt lat="47.3962" lon="6.71734">
        <ele>537</ele>
        <time>2015-08-02T08:31:04Z</time>
      </trkpt>
      <trkpt lat="47.39621" lon="6.7173">
        <ele>537</ele>
        <time>2015-08-02T08:31:05Z</time>
      </trkpt>
      <trkpt lat="47.39622" lon="6.71725">
        <ele>537</ele>
        <time>2015-08-02T08:31:05Z</time>
      </trkpt>
      <trkpt lat="47.39622" lon="6.7172">
        <ele>537</ele>
        <time>2015-08-02T08:31:06Z</time>
      </trkpt>
      <trkpt lat="47.39622" lon="6.71706">
        <ele>537</ele>
        <time>2015-08-02T08:31:10Z</time>
      </trkpt>
      <trkpt lat="47.39619" lon="6.71689">
        <ele>537</ele>
        <time>2015-08-02T08:31:13Z</time>
      </trkpt>
      <trkpt lat="47.39619" lon="6.71681">
        <ele>537</ele>
        <time>2015-08-02T08:31:13Z</time>
      </trkpt>
      <trkpt lat="47.39619" lon="6.71676">
        <ele>537</ele>
        <time>2015-08-02T08:31:14Z</time>
      </trkpt>
      <trkpt lat="47.3962" lon="6.71667">
        <ele>537</ele>
        <time>2015-08-02T08:31:15Z</time>
      </trkpt>
      <trkpt lat="47.39622" lon="6.71659">
        <ele>538</ele>
        <time>2015-08-02T08:31:16Z</time>
      </trkpt>
      <trkpt lat="47.39623" lon="6.71649">
        <ele>538</ele>
        <time>2015-08-02T08:31:18Z</time>
      </trkpt>
      <trkpt lat="47.39625" lon="6.71628">
        <ele>538</ele>
        <time>2015-08-02T08:31:21Z</time>
      </trkpt>
      <trkpt lat="47.39626" lon="6.71616">
        <ele>538</ele>
        <time>2015-08-02T08:31:23Z</time>
      </trkpt>
      <trkpt lat="47.3963" lon="6.71591">
        <ele>538</ele>
        <time>2015-08-02T08:31:27Z</time>
      </trkpt>
      <trkpt lat="47.39633" lon="6.71576">
        <ele>540</ele>
        <time>2015-08-02T08:31:30Z</time>
      </trkpt>
      <trkpt lat="47.39633" lon="6.71572">
        <ele>540</ele>
        <time>2015-08-02T08:31:30Z</time>
      </trkpt>
      <trkpt lat="47.39634" lon="6.71557">
        <ele>540</ele>
        <time>2015-08-02T08:31:33Z</time>
      </trkpt>
      <trkpt lat="47.39635" lon="6.71553">
        <ele>540</ele>
        <time>2015-08-02T08:31:33Z</time>
      </trkpt>
      <trkpt lat="47.39636" lon="6.71549">
        <ele>540</ele>
        <time>2015-08-02T08:31:33Z</time>
      </trkpt>
      <trkpt lat="47.39636" lon="6.71545">
        <ele>540</ele>
        <time>2015-08-02T08:31:34Z</time>
      </trkpt>
      <trkpt lat="47.39635" lon="6.71541">
        <ele>540</ele>
        <time>2015-08-02T08:31:37Z</time>
      </trkpt>
      <trkpt lat="47.39634" lon="6.71533">
        <ele>540</ele>
        <time>2015-08-02T08:31:38Z</time>
      </trkpt>
      <trkpt lat="47.39632" lon="6.71529">
        <ele>540</ele>
        <time>2015-08-02T08:31:39Z</time>
      </trkpt>
      <trkpt lat="47.39631" lon="6.7152">
        <ele>541</ele>
        <time>2015-08-02T08:31:40Z</time>
      </trkpt>
      <trkpt lat="47.39632" lon="6.71499">
        <ele>541</ele>
        <time>2015-08-02T08:31:43Z</time>
      </trkpt>
      <trkpt lat="47.39632" lon="6.71496">
        <ele>541</ele>
        <time>2015-08-02T08:31:44Z</time>
      </trkpt>
      <trkpt lat="47.39634" lon="6.71485">
        <ele>541</ele>
        <time>2015-08-02T08:31:47Z</time>
      </trkpt>
      <trkpt lat="47.39635" lon="6.71482">
        <ele>541</ele>
        <time>2015-08-02T08:31:47Z</time>
      </trkpt>
      <trkpt lat="47.39636" lon="6.71479">
        <ele>541</ele>
        <time>2015-08-02T08:31:48Z</time>
      </trkpt>
      <trkpt lat="47.3964" lon="6.71472">
        <ele>541</ele>
        <time>2015-08-02T08:31:49Z</time>
      </trkpt>
      <trkpt lat="47.39643" lon="6.71469">
        <ele>541</ele>
        <time>2015-08-02T08:31:51Z</time>
      </trkpt>
      <trkpt lat="47.39649" lon="6.71463">
        <ele>540</ele>
        <time>2015-08-02T08:31:52Z</time>
      </trkpt>
      <trkpt lat="47.39652" lon="6.7146">
        <ele>540</ele>
        <time>2015-08-02T08:31:53Z</time>
      </trkpt>
      <trkpt lat="47.3966" lon="6.71455">
        <ele>540</ele>
        <time>2015-08-02T08:31:54Z</time>
      </trkpt>
      <trkpt lat="47.39665" lon="6.71453">
        <ele>539</ele>
        <time>2015-08-02T08:31:55Z</time>
      </trkpt>
      <trkpt lat="47.39673" lon="6.71449">
        <ele>532</ele>
        <time>2015-08-02T08:31:56Z</time>
      </trkpt>
      <trkpt lat="47.39679" lon="6.71445">
        <ele>532</ele>
        <time>2015-08-02T08:31:56Z</time>
      </trkpt>
      <trkpt lat="47.39682" lon="6.71443">
        <ele>532</ele>
        <time>2015-08-02T08:31:57Z</time>
      </trkpt>
      <trkpt lat="47.39691" lon="6.71436">
        <ele>532</ele>
        <time>2015-08-02T08:31:58Z</time>
      </trkpt>
      <trkpt lat="47.39695" lon="6.71434">
        <ele>532</ele>
        <time>2015-08-02T08:31:59Z</time>
      </trkpt>
      <trkpt lat="47.397" lon="6.7143">
        <ele>531</ele>
        <time>2015-08-02T08:32:00Z</time>
      </trkpt>
      <trkpt lat="47.39704" lon="6.71427">
        <ele>531</ele>
        <time>2015-08-02T08:32:00Z</time>
      </trkpt>
      <trkpt lat="47.39715" lon="6.71422">
        <ele>530</ele>
        <time>2015-08-02T08:32:02Z</time>
      </trkpt>
      <trkpt lat="47.39723" lon="6.71417">
        <ele>530</ele>
        <time>2015-08-02T08:32:02Z</time>
      </trkpt>
      <trkpt lat="47.39728" lon="6.71414">
        <ele>530</ele>
        <time>2015-08-02T08:32:03Z</time>
      </trkpt>
      <trkpt lat="47.39734" lon="6.7141">
        <ele>529</ele>
        <time>2015-08-02T08:32:04Z</time>
      </trkpt>
      <trkpt lat="47.39739" lon="6.71406">
        <ele>529</ele>
        <time>2015-08-02T08:32:04Z</time>
      </trkpt>
      <trkpt lat="47.39745" lon="6.71402">
        <ele>529</ele>
        <time>2015-08-02T08:32:05Z</time>
      </trkpt>
      <trkpt lat="47.39758" lon="6.71397">
        <ele>525</ele>
        <time>2015-08-02T08:32:06Z</time>
      </trkpt>
      <trkpt lat="47.39765" lon="6.71393">
        <ele>525</ele>
        <time>2015-08-02T08:32:07Z</time>
      </trkpt>
      <trkpt lat="47.39773" lon="6.71385">
        <ele>524</ele>
        <time>2015-08-02T08:32:08Z</time>
      </trkpt>
      <trkpt lat="47.3978" lon="6.71379">
        <ele>524</ele>
        <time>2015-08-02T08:32:08Z</time>
      </trkpt>
      <trkpt lat="47.39788" lon="6.71373">
        <ele>524</ele>
        <time>2015-08-02T08:32:09Z</time>
      </trkpt>
      <trkpt lat="47.39803" lon="6.71361">
        <ele>523</ele>
        <time>2015-08-02T08:32:10Z</time>
      </trkpt>
      <trkpt lat="47.39811" lon="6.71355">
        <ele>522</ele>
        <time>2015-08-02T08:32:11Z</time>
      </trkpt>
      <trkpt lat="47.39817" lon="6.71346">
        <ele>522</ele>
        <time>2015-08-02T08:32:12Z</time>
      </trkpt>
      <trkpt lat="47.39824" lon="6.71338">
        <ele>521</ele>
        <time>2015-08-02T08:32:12Z</time>
      </trkpt>
      <trkpt lat="47.39832" lon="6.71331">
        <ele>519</ele>
        <time>2015-08-02T08:32:13Z</time>
      </trkpt>
      <trkpt lat="47.3984" lon="6.71325">
        <ele>518</ele>
        <time>2015-08-02T08:32:13Z</time>
      </trkpt>
      <trkpt lat="47.39848" lon="6.71323">
        <ele>518</ele>
        <time>2015-08-02T08:32:13Z</time>
      </trkpt>
      <trkpt lat="47.39857" lon="6.71319">
        <ele>518</ele>
        <time>2015-08-02T08:32:14Z</time>
      </trkpt>
      <trkpt lat="47.39865" lon="6.71319">
        <ele>517</ele>
        <time>2015-08-02T08:32:15Z</time>
      </trkpt>
      <trkpt lat="47.39874" lon="6.71317">
        <ele>517</ele>
        <time>2015-08-02T08:32:15Z</time>
      </trkpt>
      <trkpt lat="47.39882" lon="6.71319">
        <ele>517</ele>
        <time>2015-08-02T08:32:16Z</time>
      </trkpt>
      <trkpt lat="47.39897" lon="6.71322">
        <ele>516</ele>
        <time>2015-08-02T08:32:18Z</time>
      </trkpt>
      <trkpt lat="47.39904" lon="6.71323">
        <ele>515</ele>
        <time>2015-08-02T08:32:19Z</time>
      </trkpt>
      <trkpt lat="47.39911" lon="6.71323">
        <ele>515</ele>
        <time>2015-08-02T08:32:20Z</time>
      </trkpt>
      <trkpt lat="47.39918" lon="6.7132">
        <ele>515</ele>
        <time>2015-08-02T08:32:20Z</time>
      </trkpt>
      <trkpt lat="47.39925" lon="6.71316">
        <ele>516</ele>
        <time>2015-08-02T08:32:21Z</time>
      </trkpt>
      <trkpt lat="47.39931" lon="6.71312">
        <ele>516</ele>
        <time>2015-08-02T08:32:22Z</time>
      </trkpt>
      <trkpt lat="47.39936" lon="6.71307">
        <ele>516</ele>
        <time>2015-08-02T08:32:22Z</time>
      </trkpt>
      <trkpt lat="47.39948" lon="6.71294">
        <ele>517</ele>
        <time>2015-08-02T08:32:24Z</time>
      </trkpt>
      <trkpt lat="47.39953" lon="6.71287">
        <ele>517</ele>
        <time>2015-08-02T08:32:24Z</time>
      </trkpt>
      <trkpt lat="47.39958" lon="6.71279">
        <ele>517</ele>
        <time>2015-08-02T08:32:25Z</time>
      </trkpt>
      <trkpt lat="47.39963" lon="6.71272">
        <ele>517</ele>
        <time>2015-08-02T08:32:26Z</time>
      </trkpt>
      <trkpt lat="47.39968" lon="6.71264">
        <ele>517</ele>
        <time>2015-08-02T08:32:26Z</time>
      </trkpt>
      <trkpt lat="47.39972" lon="6.71257">
        <ele>517</ele>
        <time>2015-08-02T08:32:27Z</time>
      </trkpt>
      <trkpt lat="47.39976" lon="6.71249">
        <ele>517</ele>
        <time>2015-08-02T08:32:28Z</time>
      </trkpt>
      <trkpt lat="47.39984" lon="6.71232">
        <ele>517</ele>
        <time>2015-08-02T08:32:29Z</time>
      </trkpt>
      <trkpt lat="47.39989" lon="6.71224">
        <ele>517</ele>
        <time>2015-08-02T08:32:30Z</time>
      </trkpt>
      <trkpt lat="47.39993" lon="6.71217">
        <ele>517</ele>
        <time>2015-08-02T08:32:30Z</time>
      </trkpt>
      <trkpt lat="47.40003" lon="6.71205">
        <ele>516</ele>
        <time>2015-08-02T08:32:33Z</time>
      </trkpt>
      <trkpt lat="47.40003" lon="6.71202">
        <ele>516</ele>
        <time>2015-08-02T08:32:34Z</time>
      </trkpt>
      <trkpt lat="47.40003" lon="6.71198">
        <ele>516</ele>
        <time>2015-08-02T08:32:35Z</time>
      </trkpt>
      <trkpt lat="47.40003" lon="6.71194">
        <ele>516</ele>
        <time>2015-08-02T08:32:35Z</time>
      </trkpt>
      <trkpt lat="47.40001" lon="6.71191">
        <ele>516</ele>
        <time>2015-08-02T08:32:36Z</time>
      </trkpt>
      <trkpt lat="47.39998" lon="6.71188">
        <ele>517</ele>
        <time>2015-08-02T08:32:37Z</time>
      </trkpt>
      <trkpt lat="47.39997" lon="6.71188">
        <ele>517</ele>
        <time>2015-08-02T08:32:39Z</time>
      </trkpt>
      <trkpt lat="47.39999" lon="6.71183">
        <ele>517</ele>
        <time>2015-08-02T08:32:40Z</time>
      </trkpt>
      <trkpt lat="47.39998" lon="6.71179">
        <ele>518</ele>
        <time>2015-08-02T08:32:40Z</time>
      </trkpt>
      <trkpt lat="47.39998" lon="6.71164">
        <ele>518</ele>
        <time>2015-08-02T08:32:43Z</time>
      </trkpt>
      <trkpt lat="47.39997" lon="6.71153">
        <ele>518</ele>
        <time>2015-08-02T08:32:43Z</time>
      </trkpt>
      <trkpt lat="47.39996" lon="6.71139">
        <ele>518</ele>
        <time>2015-08-02T08:32:46Z</time>
      </trkpt>
      <trkpt lat="47.39995" lon="6.71133">
        <ele>518</ele>
        <time>2015-08-02T08:32:47Z</time>
      </trkpt>
      <trkpt lat="47.39993" lon="6.71126">
        <ele>518</ele>
        <time>2015-08-02T08:32:48Z</time>
      </trkpt>
      <trkpt lat="47.39989" lon="6.71116">
        <ele>518</ele>
        <time>2015-08-02T08:32:50Z</time>
      </trkpt>
      <trkpt lat="47.39987" lon="6.71113">
        <ele>518</ele>
        <time>2015-08-02T08:32:50Z</time>
      </trkpt>
      <trkpt lat="47.39977" lon="6.711">
        <ele>517</ele>
        <time>2015-08-02T08:32:53Z</time>
      </trkpt>
      <trkpt lat="47.39974" lon="6.71095">
        <ele>517</ele>
        <time>2015-08-02T08:32:53Z</time>
      </trkpt>
      <trkpt lat="47.39973" lon="6.7109">
        <ele>517</ele>
        <time>2015-08-02T08:32:53Z</time>
      </trkpt>
      <trkpt lat="47.39972" lon="6.71085">
        <ele>517</ele>
        <time>2015-08-02T08:32:54Z</time>
      </trkpt>
      <trkpt lat="47.39971" lon="6.7108">
        <ele>518</ele>
        <time>2015-08-02T08:32:55Z</time>
      </trkpt>
      <trkpt lat="47.39968" lon="6.71069">
        <ele>518</ele>
        <time>2015-08-02T08:32:56Z</time>
      </trkpt>
      <trkpt lat="47.39963" lon="6.71049">
        <ele>518</ele>
        <time>2015-08-02T08:32:59Z</time>
      </trkpt>
      <trkpt lat="47.39959" lon="6.71034">
        <ele>518</ele>
        <time>2015-08-02T08:33:00Z</time>
      </trkpt>
      <trkpt lat="47.39957" lon="6.7103">
        <ele>518</ele>
        <time>2015-08-02T08:33:01Z</time>
      </trkpt>
      <trkpt lat="47.39954" lon="6.71017">
        <ele>518</ele>
        <time>2015-08-02T08:33:02Z</time>
      </trkpt>
      <trkpt lat="47.3995" lon="6.70992">
        <ele>517</ele>
        <time>2015-08-02T08:33:02Z</time>
      </trkpt>
      <trkpt lat="47.39949" lon="6.70975">
        <ele>517</ele>
        <time>2015-08-02T08:33:03Z</time>
      </trkpt>
      <trkpt lat="47.39945" lon="6.70965">
        <ele>517</ele>
        <time>2015-08-02T08:33:04Z</time>
      </trkpt>
      <trkpt lat="47.39942" lon="6.70952">
        <ele>516</ele>
        <time>2015-08-02T08:33:05Z</time>
      </trkpt>
      <trkpt lat="47.39945" lon="6.70942">
        <ele>516</ele>
        <time>2015-08-02T08:33:06Z</time>
      </trkpt>
      <trkpt lat="47.39948" lon="6.70936">
        <ele>516</ele>
        <time>2015-08-02T08:33:07Z</time>
      </trkpt>
      <trkpt lat="47.3995" lon="6.70929">
        <ele>516</ele>
        <time>2015-08-02T08:33:07Z</time>
      </trkpt>
      <trkpt lat="47.39953" lon="6.70921">
        <ele>515</ele>
        <time>2015-08-02T08:33:08Z</time>
      </trkpt>
      <trkpt lat="47.39954" lon="6.70916">
        <ele>511</ele>
        <time>2015-08-02T08:33:09Z</time>
      </trkpt>
      <trkpt lat="47.39957" lon="6.70908">
        <ele>511</ele>
        <time>2015-08-02T08:33:10Z</time>
      </trkpt>
      <trkpt lat="47.39962" lon="6.70896">
        <ele>510</ele>
        <time>2015-08-02T08:33:13Z</time>
      </trkpt>
      <trkpt lat="47.39967" lon="6.70882">
        <ele>510</ele>
        <time>2015-08-02T08:33:15Z</time>
      </trkpt>
      <trkpt lat="47.39968" lon="6.70877">
        <ele>510</ele>
        <time>2015-08-02T08:33:16Z</time>
      </trkpt>
      <trkpt lat="47.39969" lon="6.70872">
        <ele>510</ele>
        <time>2015-08-02T08:33:16Z</time>
      </trkpt>
      <trkpt lat="47.39971" lon="6.70863">
        <ele>509</ele>
        <time>2015-08-02T08:33:19Z</time>
      </trkpt>
      <trkpt lat="47.39973" lon="6.70854">
        <ele>509</ele>
        <time>2015-08-02T08:33:20Z</time>
      </trkpt>
      <trkpt lat="47.39977" lon="6.70837">
        <ele>509</ele>
        <time>2015-08-02T08:33:22Z</time>
      </trkpt>
      <trkpt lat="47.3998" lon="6.70823">
        <ele>505</ele>
        <time>2015-08-02T08:33:23Z</time>
      </trkpt>
      <trkpt lat="47.39982" lon="6.70816">
        <ele>504</ele>
        <time>2015-08-02T08:33:24Z</time>
      </trkpt>
      <trkpt lat="47.39985" lon="6.70802">
        <ele>503</ele>
        <time>2015-08-02T08:33:25Z</time>
      </trkpt>
      <trkpt lat="47.3999" lon="6.70782">
        <ele>503</ele>
        <time>2015-08-02T08:33:28Z</time>
      </trkpt>
      <trkpt lat="47.39994" lon="6.70769">
        <ele>504</ele>
        <time>2015-08-02T08:33:30Z</time>
      </trkpt>
      <trkpt lat="47.39997" lon="6.70754">
        <ele>506</ele>
        <time>2015-08-02T08:33:31Z</time>
      </trkpt>
      <trkpt lat="47.39999" lon="6.70747">
        <ele>506</ele>
        <time>2015-08-02T08:33:32Z</time>
      </trkpt>
      <trkpt lat="47.39999" lon="6.70726">
        <ele>501</ele>
        <time>2015-08-02T08:33:32Z</time>
      </trkpt>
      <trkpt lat="47.4" lon="6.70718">
        <ele>501</ele>
        <time>2015-08-02T08:33:33Z</time>
      </trkpt>
      <trkpt lat="47.4" lon="6.70698">
        <ele>508</ele>
        <time>2015-08-02T08:33:33Z</time>
      </trkpt>
      <trkpt lat="47.39999" lon="6.70688">
        <ele>502</ele>
        <time>2015-08-02T08:33:34Z</time>
      </trkpt>
      <trkpt lat="47.39999" lon="6.70679">
        <ele>504</ele>
        <time>2015-08-02T08:33:35Z</time>
      </trkpt>
      <trkpt lat="47.4" lon="6.7067">
        <ele>508</ele>
        <time>2015-08-02T08:33:35Z</time>
      </trkpt>
      <trkpt lat="47.39999" lon="6.70657">
        <ele>504</ele>
        <time>2015-08-02T08:33:36Z</time>
      </trkpt>
      <trkpt lat="47.39998" lon="6.70647">
        <ele>501</ele>
        <time>2015-08-02T08:33:37Z</time>
      </trkpt>
      <trkpt lat="47.39998" lon="6.70633">
        <ele>499</ele>
        <time>2015-08-02T08:33:37Z</time>
      </trkpt>
      <trkpt lat="47.39999" lon="6.70619">
        <ele>499</ele>
        <time>2015-08-02T08:33:38Z</time>
      </trkpt>
      <trkpt lat="47.39998" lon="6.70609">
        <ele>500</ele>
        <time>2015-08-02T08:33:39Z</time>
      </trkpt>
      <trkpt lat="47.39998" lon="6.70597">
        <ele>501</ele>
        <time>2015-08-02T08:33:39Z</time>
      </trkpt>
      <trkpt lat="47.39998" lon="6.70585">
        <ele>505</ele>
        <time>2015-08-02T08:33:41Z</time>
      </trkpt>
      <trkpt lat="47.39995" lon="6.70574">
        <ele>501</ele>
        <time>2015-08-02T08:33:42Z</time>
      </trkpt>
      <trkpt lat="47.39992" lon="6.70563">
        <ele>498</ele>
        <time>2015-08-02T08:33:42Z</time>
      </trkpt>
      <trkpt lat="47.3999" lon="6.70552">
        <ele>496</ele>
        <time>2015-08-02T08:33:43Z</time>
      </trkpt>
      <trkpt lat="47.39989" lon="6.70541">
        <ele>495</ele>
        <time>2015-08-02T08:33:43Z</time>
      </trkpt>
      <trkpt lat="47.39988" lon="6.70527">
        <ele>495</ele>
        <time>2015-08-02T08:33:43Z</time>
      </trkpt>
      <trkpt lat="47.39986" lon="6.70517">
        <ele>495</ele>
        <time>2015-08-02T08:33:44Z</time>
      </trkpt>
      <trkpt lat="47.39983" lon="6.70505">
        <ele>496</ele>
        <time>2015-08-02T08:33:45Z</time>
      </trkpt>
      <trkpt lat="47.39976" lon="6.70481">
        <ele>491</ele>
        <time>2015-08-02T08:33:46Z</time>
      </trkpt>
      <trkpt lat="47.39976" lon="6.70467">
        <ele>490</ele>
        <time>2015-08-02T08:33:47Z</time>
      </trkpt>
      <trkpt lat="47.39973" lon="6.70454">
        <ele>489</ele>
        <time>2015-08-02T08:33:47Z</time>
      </trkpt>
      <trkpt lat="47.39972" lon="6.7044">
        <ele>489</ele>
        <time>2015-08-02T08:33:48Z</time>
      </trkpt>
      <trkpt lat="47.3997" lon="6.70427">
        <ele>489</ele>
        <time>2015-08-02T08:33:49Z</time>
      </trkpt>
      <trkpt lat="47.39971" lon="6.70398">
        <ele>486</ele>
        <time>2015-08-02T08:33:50Z</time>
      </trkpt>
      <trkpt lat="47.39971" lon="6.70389">
        <ele>486</ele>
        <time>2015-08-02T08:33:51Z</time>
      </trkpt>
      <trkpt lat="47.39969" lon="6.70381">
        <ele>485</ele>
        <time>2015-08-02T08:33:51Z</time>
      </trkpt>
      <trkpt lat="47.39969" lon="6.70375">
        <ele>485</ele>
        <time>2015-08-02T08:33:52Z</time>
      </trkpt>
      <trkpt lat="47.39972" lon="6.70359">
        <ele>485</ele>
        <time>2015-08-02T08:33:53Z</time>
      </trkpt>
      <trkpt lat="47.39975" lon="6.70353">
        <ele>485</ele>
        <time>2015-08-02T08:33:53Z</time>
      </trkpt>
      <trkpt lat="47.39979" lon="6.70348">
        <ele>486</ele>
        <time>2015-08-02T08:33:54Z</time>
      </trkpt>
      <trkpt lat="47.39991" lon="6.70346">
        <ele>487</ele>
        <time>2015-08-02T08:33:55Z</time>
      </trkpt>
      <trkpt lat="47.39995" lon="6.70347">
        <ele>487</ele>
        <time>2015-08-02T08:33:57Z</time>
      </trkpt>
      <trkpt lat="47.39999" lon="6.70345">
        <ele>487</ele>
        <time>2015-08-02T08:33:57Z</time>
      </trkpt>
      <trkpt lat="47.40003" lon="6.70343">
        <ele>489</ele>
        <time>2015-08-02T08:33:59Z</time>
      </trkpt>
      <trkpt lat="47.40007" lon="6.70342">
        <ele>489</ele>
        <time>2015-08-02T08:34:00Z</time>
      </trkpt>
      <trkpt lat="47.40015" lon="6.7034">
        <ele>488</ele>
        <time>2015-08-02T08:34:01Z</time>
      </trkpt>
      <trkpt lat="47.4002" lon="6.70338">
        <ele>488</ele>
        <time>2015-08-02T08:34:02Z</time>
      </trkpt>
      <trkpt lat="47.4003" lon="6.70332">
        <ele>480</ele>
        <time>2015-08-02T08:34:02Z</time>
      </trkpt>
      <trkpt lat="47.40039" lon="6.7033">
        <ele>479</ele>
        <time>2015-08-02T08:34:03Z</time>
      </trkpt>
      <trkpt lat="47.40044" lon="6.70329">
        <ele>478</ele>
        <time>2015-08-02T08:34:03Z</time>
      </trkpt>
      <trkpt lat="47.40051" lon="6.70328">
        <ele>478</ele>
        <time>2015-08-02T08:34:03Z</time>
      </trkpt>
      <trkpt lat="47.40056" lon="6.70332">
        <ele>478</ele>
        <time>2015-08-02T08:34:05Z</time>
      </trkpt>
      <trkpt lat="47.40064" lon="6.70333">
        <ele>478</ele>
        <time>2015-08-02T08:34:06Z</time>
      </trkpt>
      <trkpt lat="47.40071" lon="6.70335">
        <ele>483</ele>
        <time>2015-08-02T08:34:06Z</time>
      </trkpt>
      <trkpt lat="47.40084" lon="6.70347">
        <ele>480</ele>
        <time>2015-08-02T08:34:10Z</time>
      </trkpt>
      <trkpt lat="47.40088" lon="6.70353">
        <ele>481</ele>
        <time>2015-08-02T08:34:10Z</time>
      </trkpt>
      <trkpt lat="47.40092" lon="6.70359">
        <ele>481</ele>
        <time>2015-08-02T08:34:11Z</time>
      </trkpt>
      <trkpt lat="47.40096" lon="6.70366">
        <ele>482</ele>
        <time>2015-08-02T08:34:12Z</time>
      </trkpt>
      <trkpt lat="47.40101" lon="6.70371">
        <ele>482</ele>
        <time>2015-08-02T08:34:12Z</time>
      </trkpt>
      <trkpt lat="47.40106" lon="6.70372">
        <ele>482</ele>
        <time>2015-08-02T08:34:13Z</time>
      </trkpt>
      <trkpt lat="47.40113" lon="6.7037">
        <ele>482</ele>
        <time>2015-08-02T08:34:13Z</time>
      </trkpt>
      <trkpt lat="47.40115" lon="6.70367">
        <ele>482</ele>
        <time>2015-08-02T08:34:15Z</time>
      </trkpt>
      <trkpt lat="47.40119" lon="6.70368">
        <ele>481</ele>
        <time>2015-08-02T08:34:15Z</time>
      </trkpt>
      <trkpt lat="47.40122" lon="6.70368">
        <ele>481</ele>
        <time>2015-08-02T08:34:16Z</time>
      </trkpt>
      <trkpt lat="47.40133" lon="6.70369">
        <ele>481</ele>
        <time>2015-08-02T08:34:18Z</time>
      </trkpt>
      <trkpt lat="47.40137" lon="6.70367">
        <ele>481</ele>
        <time>2015-08-02T08:34:19Z</time>
      </trkpt>
      <trkpt lat="47.40141" lon="6.70366">
        <ele>481</ele>
        <time>2015-08-02T08:34:19Z</time>
      </trkpt>
      <trkpt lat="47.40144" lon="6.70366">
        <ele>481</ele>
        <time>2015-08-02T08:34:20Z</time>
      </trkpt>
      <trkpt lat="47.40146" lon="6.70365">
        <ele>480</ele>
        <time>2015-08-02T08:34:21Z</time>
      </trkpt>
      <trkpt lat="47.4015" lon="6.70363">
        <ele>480</ele>
        <time>2015-08-02T08:34:23Z</time>
      </trkpt>
      <trkpt lat="47.40159" lon="6.70359">
        <ele>480</ele>
        <time>2015-08-02T08:34:25Z</time>
      </trkpt>
      <trkpt lat="47.40163" lon="6.70358">
        <ele>479</ele>
        <time>2015-08-02T08:34:25Z</time>
      </trkpt>
      <trkpt lat="47.40167" lon="6.70357">
        <ele>475</ele>
        <time>2015-08-02T08:34:26Z</time>
      </trkpt>
      <trkpt lat="47.40172" lon="6.70357">
        <ele>475</ele>
        <time>2015-08-02T08:34:27Z</time>
      </trkpt>
      <trkpt lat="47.40176" lon="6.70357">
        <ele>475</ele>
        <time>2015-08-02T08:34:27Z</time>
      </trkpt>
      <trkpt lat="47.40181" lon="6.70358">
        <ele>475</ele>
        <time>2015-08-02T08:34:28Z</time>
      </trkpt>
      <trkpt lat="47.40186" lon="6.70359">
        <ele>475</ele>
        <time>2015-08-02T08:34:29Z</time>
      </trkpt>
      <trkpt lat="47.40191" lon="6.7036">
        <ele>474</ele>
        <time>2015-08-02T08:34:29Z</time>
      </trkpt>
      <trkpt lat="47.40197" lon="6.70362">
        <ele>474</ele>
        <time>2015-08-02T08:34:30Z</time>
      </trkpt>
      <trkpt lat="47.40202" lon="6.70364">
        <ele>474</ele>
        <time>2015-08-02T08:34:31Z</time>
      </trkpt>
      <trkpt lat="47.40208" lon="6.70367">
        <ele>474</ele>
        <time>2015-08-02T08:34:31Z</time>
      </trkpt>
      <trkpt lat="47.40218" lon="6.70373">
        <ele>473</ele>
        <time>2015-08-02T08:34:33Z</time>
      </trkpt>
      <trkpt lat="47.40229" lon="6.70381">
        <ele>474</ele>
        <time>2015-08-02T08:34:33Z</time>
      </trkpt>
      <trkpt lat="47.4024" lon="6.70389">
        <ele>474</ele>
        <time>2015-08-02T08:34:35Z</time>
      </trkpt>
      <trkpt lat="47.40246" lon="6.70394">
        <ele>474</ele>
        <time>2015-08-02T08:34:36Z</time>
      </trkpt>
      <trkpt lat="47.40262" lon="6.7041">
        <ele>469</ele>
        <time>2015-08-02T08:34:37Z</time>
      </trkpt>
      <trkpt lat="47.40277" lon="6.70431">
        <ele>473</ele>
        <time>2015-08-02T08:34:39Z</time>
      </trkpt>
      <trkpt lat="47.40282" lon="6.70437">
        <ele>473</ele>
        <time>2015-08-02T08:34:39Z</time>
      </trkpt>
      <trkpt lat="47.4029" lon="6.70449">
        <ele>472</ele>
        <time>2015-08-02T08:34:41Z</time>
      </trkpt>
      <trkpt lat="47.40296" lon="6.70455">
        <ele>472</ele>
        <time>2015-08-02T08:34:41Z</time>
      </trkpt>
      <trkpt lat="47.40304" lon="6.70459">
        <ele>472</ele>
        <time>2015-08-02T08:34:42Z</time>
      </trkpt>
      <trkpt lat="47.40311" lon="6.70466">
        <ele>472</ele>
        <time>2015-08-02T08:34:43Z</time>
      </trkpt>
      <trkpt lat="47.4032" lon="6.70469">
        <ele>472</ele>
        <time>2015-08-02T08:34:43Z</time>
      </trkpt>
      <trkpt lat="47.40326" lon="6.70471">
        <ele>472</ele>
        <time>2015-08-02T08:34:43Z</time>
      </trkpt>
      <trkpt lat="47.40336" lon="6.70472">
        <ele>463</ele>
        <time>2015-08-02T08:34:44Z</time>
      </trkpt>
      <trkpt lat="47.40343" lon="6.70475">
        <ele>463</ele>
        <time>2015-08-02T08:34:44Z</time>
      </trkpt>
      <trkpt lat="47.40349" lon="6.7048">
        <ele>463</ele>
        <time>2015-08-02T08:34:46Z</time>
      </trkpt>
      <trkpt lat="47.40358" lon="6.70486">
        <ele>462</ele>
        <time>2015-08-02T08:34:47Z</time>
      </trkpt>
      <trkpt lat="47.40364" lon="6.70496">
        <ele>462</ele>
        <time>2015-08-02T08:34:47Z</time>
      </trkpt>
      <trkpt lat="47.40369" lon="6.7051">
        <ele>468</ele>
        <time>2015-08-02T08:34:48Z</time>
      </trkpt>
      <trkpt lat="47.40377" lon="6.70521">
        <ele>467</ele>
        <time>2015-08-02T08:34:50Z</time>
      </trkpt>
      <trkpt lat="47.40381" lon="6.70528">
        <ele>467</ele>
        <time>2015-08-02T08:34:50Z</time>
      </trkpt>
      <trkpt lat="47.40386" lon="6.70534">
        <ele>467</ele>
        <time>2015-08-02T08:34:52Z</time>
      </trkpt>
      <trkpt lat="47.40392" lon="6.70541">
        <ele>467</ele>
        <time>2015-08-02T08:34:53Z</time>
      </trkpt>
      <trkpt lat="47.40396" lon="6.70549">
        <ele>467</ele>
        <time>2015-08-02T08:34:53Z</time>
      </trkpt>
      <trkpt lat="47.40403" lon="6.70552">
        <ele>467</ele>
        <time>2015-08-02T08:34:53Z</time>
      </trkpt>
      <trkpt lat="47.40407" lon="6.70555">
        <ele>467</ele>
        <time>2015-08-02T08:34:55Z</time>
      </trkpt>
      <trkpt lat="47.40412" lon="6.70561">
        <ele>467</ele>
        <time>2015-08-02T08:34:55Z</time>
      </trkpt>
      <trkpt lat="47.4042" lon="6.70562">
        <ele>460</ele>
        <time>2015-08-02T08:34:56Z</time>
      </trkpt>
      <trkpt lat="47.40426" lon="6.70564">
        <ele>460</ele>
        <time>2015-08-02T08:34:57Z</time>
      </trkpt>
      <trkpt lat="47.4043" lon="6.70567">
        <ele>460</ele>
        <time>2015-08-02T08:34:57Z</time>
      </trkpt>
      <trkpt lat="47.40435" lon="6.70567">
        <ele>459</ele>
        <time>2015-08-02T08:34:58Z</time>
      </trkpt>
      <trkpt lat="47.40441" lon="6.70572">
        <ele>459</ele>
        <time>2015-08-02T08:34:59Z</time>
      </trkpt>
      <trkpt lat="47.40451" lon="6.70574">
        <ele>458</ele>
        <time>2015-08-02T08:34:59Z</time>
      </trkpt>
      <trkpt lat="47.4046" lon="6.70579">
        <ele>457</ele>
        <time>2015-08-02T08:35:00Z</time>
      </trkpt>
      <trkpt lat="47.40466" lon="6.70579">
        <ele>456</ele>
        <time>2015-08-02T08:35:01Z</time>
      </trkpt>
      <trkpt lat="47.40474" lon="6.70581">
        <ele>456</ele>
        <time>2015-08-02T08:35:01Z</time>
      </trkpt>
      <trkpt lat="47.40481" lon="6.70582">
        <ele>455</ele>
        <time>2015-08-02T08:35:02Z</time>
      </trkpt>
      <trkpt lat="47.40488" lon="6.70584">
        <ele>459</ele>
        <time>2015-08-02T08:35:03Z</time>
      </trkpt>
      <trkpt lat="47.40494" lon="6.70583">
        <ele>457</ele>
        <time>2015-08-02T08:35:03Z</time>
      </trkpt>
      <trkpt lat="47.405" lon="6.70584">
        <ele>455</ele>
        <time>2015-08-02T08:35:04Z</time>
      </trkpt>
      <trkpt lat="47.40507" lon="6.70583">
        <ele>453</ele>
        <time>2015-08-02T08:35:05Z</time>
      </trkpt>
      <trkpt lat="47.40515" lon="6.70584">
        <ele>457</ele>
        <time>2015-08-02T08:35:05Z</time>
      </trkpt>
      <trkpt lat="47.40522" lon="6.70586">
        <ele>457</ele>
        <time>2015-08-02T08:35:06Z</time>
      </trkpt>
      <trkpt lat="47.40528" lon="6.70586">
        <ele>457</ele>
        <time>2015-08-02T08:35:07Z</time>
      </trkpt>
      <trkpt lat="47.40533" lon="6.70587">
        <ele>457</ele>
        <time>2015-08-02T08:35:07Z</time>
      </trkpt>
      <trkpt lat="47.40542" lon="6.70586">
        <ele>457</ele>
        <time>2015-08-02T08:35:08Z</time>
      </trkpt>
      <trkpt lat="47.40547" lon="6.70584">
        <ele>457</ele>
        <time>2015-08-02T08:35:09Z</time>
      </trkpt>
      <trkpt lat="47.40553" lon="6.70582">
        <ele>450</ele>
        <time>2015-08-02T08:35:09Z</time>
      </trkpt>
      <trkpt lat="47.40558" lon="6.70585">
        <ele>457</ele>
        <time>2015-08-02T08:35:10Z</time>
      </trkpt>
      <trkpt lat="47.40564" lon="6.70584">
        <ele>456</ele>
        <time>2015-08-02T08:35:11Z</time>
      </trkpt>
      <trkpt lat="47.40569" lon="6.7058">
        <ele>451</ele>
        <time>2015-08-02T08:35:11Z</time>
      </trkpt>
      <trkpt lat="47.40574" lon="6.70578">
        <ele>452</ele>
        <time>2015-08-02T08:35:12Z</time>
      </trkpt>
      <trkpt lat="47.40579" lon="6.70575">
        <ele>452</ele>
        <time>2015-08-02T08:35:13Z</time>
      </trkpt>
      <trkpt lat="47.40584" lon="6.70574">
        <ele>452</ele>
        <time>2015-08-02T08:35:13Z</time>
      </trkpt>
      <trkpt lat="47.40589" lon="6.70572">
        <ele>452</ele>
        <time>2015-08-02T08:35:13Z</time>
      </trkpt>
      <trkpt lat="47.40594" lon="6.70568">
        <ele>451</ele>
        <time>2015-08-02T08:35:14Z</time>
      </trkpt>
      <trkpt lat="47.40597" lon="6.70565">
        <ele>450</ele>
        <time>2015-08-02T08:35:14Z</time>
      </trkpt>
      <trkpt lat="47.40605" lon="6.70558">
        <ele>449</ele>
        <time>2015-08-02T08:35:15Z</time>
      </trkpt>
      <trkpt lat="47.40611" lon="6.70553">
        <ele>449</ele>
        <time>2015-08-02T08:35:17Z</time>
      </trkpt>
      <trkpt lat="47.40615" lon="6.70547">
        <ele>449</ele>
        <time>2015-08-02T08:35:17Z</time>
      </trkpt>
      <trkpt lat="47.40623" lon="6.7054">
        <ele>448</ele>
        <time>2015-08-02T08:35:18Z</time>
      </trkpt>
      <trkpt lat="47.40633" lon="6.70529">
        <ele>448</ele>
        <time>2015-08-02T08:35:19Z</time>
      </trkpt>
      <trkpt lat="47.40639" lon="6.70522">
        <ele>447</ele>
        <time>2015-08-02T08:35:19Z</time>
      </trkpt>
      <trkpt lat="47.40644" lon="6.70519">
        <ele>447</ele>
        <time>2015-08-02T08:35:20Z</time>
      </trkpt>
      <trkpt lat="47.40651" lon="6.70513">
        <ele>447</ele>
        <time>2015-08-02T08:35:21Z</time>
      </trkpt>
      <trkpt lat="47.40657" lon="6.70506">
        <ele>447</ele>
        <time>2015-08-02T08:35:22Z</time>
      </trkpt>
      <trkpt lat="47.40661" lon="6.70505">
        <ele>447</ele>
        <time>2015-08-02T08:35:23Z</time>
      </trkpt>
      <trkpt lat="47.40662" lon="6.70507">
        <ele>447</ele>
        <time>2015-08-02T08:35:23Z</time>
      </trkpt>
      <trkpt lat="47.40663" lon="6.70499">
        <ele>445</ele>
        <time>2015-08-02T08:35:23Z</time>
      </trkpt>
      <trkpt lat="47.40666" lon="6.70481">
        <ele>441</ele>
        <time>2015-08-02T08:35:25Z</time>
      </trkpt>
      <trkpt lat="47.40665" lon="6.70475">
        <ele>440</ele>
        <time>2015-08-02T08:35:26Z</time>
      </trkpt>
      <trkpt lat="47.40664" lon="6.70471">
        <ele>440</ele>
        <time>2015-08-02T08:35:27Z</time>
      </trkpt>
      <trkpt lat="47.40663" lon="6.70465">
        <ele>439</ele>
        <time>2015-08-02T08:35:28Z</time>
      </trkpt>
      <trkpt lat="47.40663" lon="6.70461">
        <ele>439</ele>
        <time>2015-08-02T08:35:28Z</time>
      </trkpt>
      <trkpt lat="47.40661" lon="6.70454">
        <ele>438</ele>
        <time>2015-08-02T08:35:29Z</time>
      </trkpt>
      <trkpt lat="47.40661" lon="6.70447">
        <ele>438</ele>
        <time>2015-08-02T08:35:31Z</time>
      </trkpt>
      <trkpt lat="47.40661" lon="6.7044">
        <ele>437</ele>
        <time>2015-08-02T08:35:31Z</time>
      </trkpt>
      <trkpt lat="47.40663" lon="6.70434">
        <ele>437</ele>
        <time>2015-08-02T08:35:32Z</time>
      </trkpt>
      <trkpt lat="47.40664" lon="6.70427">
        <ele>436</ele>
        <time>2015-08-02T08:35:33Z</time>
      </trkpt>
      <trkpt lat="47.40668" lon="6.70423">
        <ele>437</ele>
        <time>2015-08-02T08:35:33Z</time>
      </trkpt>
      <trkpt lat="47.40673" lon="6.7042">
        <ele>437</ele>
        <time>2015-08-02T08:35:34Z</time>
      </trkpt>
      <trkpt lat="47.40678" lon="6.70417">
        <ele>437</ele>
        <time>2015-08-02T08:35:35Z</time>
      </trkpt>
      <trkpt lat="47.40685" lon="6.70415">
        <ele>431</ele>
        <time>2015-08-02T08:35:35Z</time>
      </trkpt>
      <trkpt lat="47.4069" lon="6.70414">
        <ele>430</ele>
        <time>2015-08-02T08:35:36Z</time>
      </trkpt>
      <trkpt lat="47.40695" lon="6.70412">
        <ele>430</ele>
        <time>2015-08-02T08:35:38Z</time>
      </trkpt>
      <trkpt lat="47.40699" lon="6.7041">
        <ele>429</ele>
        <time>2015-08-02T08:35:38Z</time>
      </trkpt>
      <trkpt lat="47.40703" lon="6.70408">
        <ele>429</ele>
        <time>2015-08-02T08:35:39Z</time>
      </trkpt>
      <trkpt lat="47.40706" lon="6.70405">
        <ele>429</ele>
        <time>2015-08-02T08:35:41Z</time>
      </trkpt>
      <trkpt lat="47.4071" lon="6.70403">
        <ele>429</ele>
        <time>2015-08-02T08:35:41Z</time>
      </trkpt>
      <trkpt lat="47.40715" lon="6.704">
        <ele>428</ele>
        <time>2015-08-02T08:35:42Z</time>
      </trkpt>
      <trkpt lat="47.40725" lon="6.70396">
        <ele>428</ele>
        <time>2015-08-02T08:35:43Z</time>
      </trkpt>
      <trkpt lat="47.4073" lon="6.70394">
        <ele>428</ele>
        <time>2015-08-02T08:35:43Z</time>
      </trkpt>
      <trkpt lat="47.40735" lon="6.70394">
        <ele>428</ele>
        <time>2015-08-02T08:35:44Z</time>
      </trkpt>
      <trkpt lat="47.4074" lon="6.70394">
        <ele>429</ele>
        <time>2015-08-02T08:35:44Z</time>
      </trkpt>
      <trkpt lat="47.40745" lon="6.70394">
        <ele>429</ele>
        <time>2015-08-02T08:35:46Z</time>
      </trkpt>
      <trkpt lat="47.40749" lon="6.70395">
        <ele>429</ele>
        <time>2015-08-02T08:35:47Z</time>
      </trkpt>
      <trkpt lat="47.40758" lon="6.70395">
        <ele>428</ele>
        <time>2015-08-02T08:35:48Z</time>
      </trkpt>
      <trkpt lat="47.40773" lon="6.70394">
        <ele>427</ele>
        <time>2015-08-02T08:35:50Z</time>
      </trkpt>
      <trkpt lat="47.40779" lon="6.70393">
        <ele>426</ele>
        <time>2015-08-02T08:35:51Z</time>
      </trkpt>
      <trkpt lat="47.40793" lon="6.70394">
        <ele>426</ele>
        <time>2015-08-02T08:35:51Z</time>
      </trkpt>
      <trkpt lat="47.40799" lon="6.70394">
        <ele>426</ele>
        <time>2015-08-02T08:35:52Z</time>
      </trkpt>
      <trkpt lat="47.40806" lon="6.70395">
        <ele>426</ele>
        <time>2015-08-02T08:35:53Z</time>
      </trkpt>
      <trkpt lat="47.40822" lon="6.70395">
        <ele>427</ele>
        <time>2015-08-02T08:35:53Z</time>
      </trkpt>
      <trkpt lat="47.40829" lon="6.70396">
        <ele>427</ele>
        <time>2015-08-02T08:35:54Z</time>
      </trkpt>
      <trkpt lat="47.40836" lon="6.70395">
        <ele>425</ele>
        <time>2015-08-02T08:35:54Z</time>
      </trkpt>
      <trkpt lat="47.40843" lon="6.70398">
        <ele>425</ele>
        <time>2015-08-02T08:35:55Z</time>
      </trkpt>
      <trkpt lat="47.40857" lon="6.70401">
        <ele>424</ele>
        <time>2015-08-02T08:35:56Z</time>
      </trkpt>
      <trkpt lat="47.40862" lon="6.70402">
        <ele>424</ele>
        <time>2015-08-02T08:35:57Z</time>
      </trkpt>
      <trkpt lat="47.40869" lon="6.70401">
        <ele>423</ele>
        <time>2015-08-02T08:35:59Z</time>
      </trkpt>
      <trkpt lat="47.40875" lon="6.70402">
        <ele>423</ele>
        <time>2015-08-02T08:35:59Z</time>
      </trkpt>
      <trkpt lat="47.40881" lon="6.70397">
        <ele>422</ele>
        <time>2015-08-02T08:36:00Z</time>
      </trkpt>
      <trkpt lat="47.40894" lon="6.7039">
        <ele>421</ele>
        <time>2015-08-02T08:36:01Z</time>
      </trkpt>
      <trkpt lat="47.40902" lon="6.70389">
        <ele>421</ele>
        <time>2015-08-02T08:36:02Z</time>
      </trkpt>
      <trkpt lat="47.40909" lon="6.70388">
        <ele>421</ele>
        <time>2015-08-02T08:36:03Z</time>
      </trkpt>
      <trkpt lat="47.40914" lon="6.70387">
        <ele>421</ele>
        <time>2015-08-02T08:36:03Z</time>
      </trkpt>
      <trkpt lat="47.4092" lon="6.7039">
        <ele>418</ele>
        <time>2015-08-02T08:36:03Z</time>
      </trkpt>
      <trkpt lat="47.40923" lon="6.70395">
        <ele>419</ele>
        <time>2015-08-02T08:36:04Z</time>
      </trkpt>
      <trkpt lat="47.40925" lon="6.70401">
        <ele>420</ele>
        <time>2015-08-02T08:36:26Z</time>
      </trkpt>
      <trkpt lat="47.40925" lon="6.70401">
        <ele>420</ele>
        <time>2015-08-02T08:36:28Z</time>
      </trkpt>
      <trkpt lat="47.40927" lon="6.70397">
        <ele>419</ele>
        <time>2015-08-02T08:37:50Z</time>
      </trkpt>
      <trkpt lat="47.40931" lon="6.7039">
        <ele>418</ele>
        <time>2015-08-02T08:37:51Z</time>
      </trkpt>
      <trkpt lat="47.40937" lon="6.70388">
        <ele>417</ele>
        <time>2015-08-02T08:37:52Z</time>
      </trkpt>
      <trkpt lat="47.40941" lon="6.70387">
        <ele>417</ele>
        <time>2015-08-02T08:37:52Z</time>
      </trkpt>
      <trkpt lat="47.40946" lon="6.70388">
        <ele>417</ele>
        <time>2015-08-02T08:37:53Z</time>
      </trkpt>
      <trkpt lat="47.40955" lon="6.70391">
        <ele>416</ele>
        <time>2015-08-02T08:37:53Z</time>
      </trkpt>
      <trkpt lat="47.4096" lon="6.70392">
        <ele>416</ele>
        <time>2015-08-02T08:37:53Z</time>
      </trkpt>
      <trkpt lat="47.40963" lon="6.70389">
        <ele>416</ele>
        <time>2015-08-02T08:37:55Z</time>
      </trkpt>
      <trkpt lat="47.40967" lon="6.70387">
        <ele>416</ele>
        <time>2015-08-02T08:37:58Z</time>
      </trkpt>
      <trkpt lat="47.40975" lon="6.70389">
        <ele>415</ele>
        <time>2015-08-02T08:37:58Z</time>
      </trkpt>
      <trkpt lat="47.40979" lon="6.70388">
        <ele>415</ele>
        <time>2015-08-02T08:37:59Z</time>
      </trkpt>
      <trkpt lat="47.40983" lon="6.70388">
        <ele>415</ele>
        <time>2015-08-02T08:38:00Z</time>
      </trkpt>
      <trkpt lat="47.40987" lon="6.70387">
        <ele>415</ele>
        <time>2015-08-02T08:38:00Z</time>
      </trkpt>
      <trkpt lat="47.40991" lon="6.70387">
        <ele>415</ele>
        <time>2015-08-02T08:38:01Z</time>
      </trkpt>
      <trkpt lat="47.40995" lon="6.70385">
        <ele>415</ele>
        <time>2015-08-02T08:38:02Z</time>
      </trkpt>
      <trkpt lat="47.40999" lon="6.70385">
        <ele>415</ele>
        <time>2015-08-02T08:38:02Z</time>
      </trkpt>
      <trkpt lat="47.41001" lon="6.70393">
        <ele>411</ele>
        <time>2015-08-02T08:38:03Z</time>
      </trkpt>
      <trkpt lat="47.41005" lon="6.70394">
        <ele>411</ele>
        <time>2015-08-02T08:38:04Z</time>
      </trkpt>
      <trkpt lat="47.41009" lon="6.70397">
        <ele>411</ele>
        <time>2015-08-02T08:38:04Z</time>
      </trkpt>
      <trkpt lat="47.41013" lon="6.70399">
        <ele>411</ele>
        <time>2015-08-02T08:38:05Z</time>
      </trkpt>
      <trkpt lat="47.4102" lon="6.70401">
        <ele>411</ele>
        <time>2015-08-02T08:38:06Z</time>
      </trkpt>
      <trkpt lat="47.41024" lon="6.70403">
        <ele>410</ele>
        <time>2015-08-02T08:38:07Z</time>
      </trkpt>
      <trkpt lat="47.4104" lon="6.70409">
        <ele>409</ele>
        <time>2015-08-02T08:38:09Z</time>
      </trkpt>
      <trkpt lat="47.41045" lon="6.70409">
        <ele>409</ele>
        <time>2015-08-02T08:38:10Z</time>
      </trkpt>
      <trkpt lat="47.41051" lon="6.70409">
        <ele>408</ele>
        <time>2015-08-02T08:38:10Z</time>
      </trkpt>
      <trkpt lat="47.41067" lon="6.70404">
        <ele>407</ele>
        <time>2015-08-02T08:38:11Z</time>
      </trkpt>
      <trkpt lat="47.41074" lon="6.70401">
        <ele>407</ele>
        <time>2015-08-02T08:38:12Z</time>
      </trkpt>
      <trkpt lat="47.41078" lon="6.70401">
        <ele>407</ele>
        <time>2015-08-02T08:38:12Z</time>
      </trkpt>
      <trkpt lat="47.4108" lon="6.70401">
        <ele>406</ele>
        <time>2015-08-02T08:38:13Z</time>
      </trkpt>
      <trkpt lat="47.41082" lon="6.70402">
        <ele>406</ele>
        <time>2015-08-02T08:38:13Z</time>
      </trkpt>
      <trkpt lat="47.41081" lon="6.70391">
        <ele>407</ele>
        <time>2015-08-02T08:38:14Z</time>
      </trkpt>
      <trkpt lat="47.41082" lon="6.70388">
        <ele>407</ele>
        <time>2015-08-02T08:38:15Z</time>
      </trkpt>
      <trkpt lat="47.41085" lon="6.70384">
        <ele>401</ele>
        <time>2015-08-02T08:38:15Z</time>
      </trkpt>
      <trkpt lat="47.41086" lon="6.70379">
        <ele>401</ele>
        <time>2015-08-02T08:38:17Z</time>
      </trkpt>
      <trkpt lat="47.41087" lon="6.70375">
        <ele>401</ele>
        <time>2015-08-02T08:38:18Z</time>
      </trkpt>
      <trkpt lat="47.41089" lon="6.70369">
        <ele>401</ele>
        <time>2015-08-02T08:38:18Z</time>
      </trkpt>
      <trkpt lat="47.41091" lon="6.70363">
        <ele>401</ele>
        <time>2015-08-02T08:38:19Z</time>
      </trkpt>
      <trkpt lat="47.41096" lon="6.70355">
        <ele>401</ele>
        <time>2015-08-02T08:38:20Z</time>
      </trkpt>
      <trkpt lat="47.41101" lon="6.70348">
        <ele>401</ele>
        <time>2015-08-02T08:38:20Z</time>
      </trkpt>
      <trkpt lat="47.41112" lon="6.70328">
        <ele>397</ele>
        <time>2015-08-02T08:38:22Z</time>
      </trkpt>
      <trkpt lat="47.41114" lon="6.70322">
        <ele>397</ele>
        <time>2015-08-02T08:38:23Z</time>
      </trkpt>
      <trkpt lat="47.41115" lon="6.70313">
        <ele>396</ele>
        <time>2015-08-02T08:38:23Z</time>
      </trkpt>
      <trkpt lat="47.41117" lon="6.70303">
        <ele>396</ele>
        <time>2015-08-02T08:38:23Z</time>
      </trkpt>
      <trkpt lat="47.41116" lon="6.70292">
        <ele>395</ele>
        <time>2015-08-02T08:38:24Z</time>
      </trkpt>
      <trkpt lat="47.41117" lon="6.70281">
        <ele>395</ele>
        <time>2015-08-02T08:38:25Z</time>
      </trkpt>
      <trkpt lat="47.41118" lon="6.70275">
        <ele>395</ele>
        <time>2015-08-02T08:38:25Z</time>
      </trkpt>
      <trkpt lat="47.4112" lon="6.70264">
        <ele>394</ele>
        <time>2015-08-02T08:38:26Z</time>
      </trkpt>
      <trkpt lat="47.41128" lon="6.70247">
        <ele>391</ele>
        <time>2015-08-02T08:38:27Z</time>
      </trkpt>
      <trkpt lat="47.41131" lon="6.70242">
        <ele>391</ele>
        <time>2015-08-02T08:38:28Z</time>
      </trkpt>
      <trkpt lat="47.41133" lon="6.70238">
        <ele>390</ele>
        <time>2015-08-02T08:38:30Z</time>
      </trkpt>
      <trkpt lat="47.41136" lon="6.70237">
        <ele>390</ele>
        <time>2015-08-02T08:38:30Z</time>
      </trkpt>
      <trkpt lat="47.41138" lon="6.70234">
        <ele>390</ele>
        <time>2015-08-02T08:38:31Z</time>
      </trkpt>
      <trkpt lat="47.41134" lon="6.70226">
        <ele>390</ele>
        <time>2015-08-02T08:38:33Z</time>
      </trkpt>
      <trkpt lat="47.41133" lon="6.70223">
        <ele>390</ele>
        <time>2015-08-02T08:38:33Z</time>
      </trkpt>
      <trkpt lat="47.41137" lon="6.70201">
        <ele>390</ele>
        <time>2015-08-02T08:38:36Z</time>
      </trkpt>
      <trkpt lat="47.41138" lon="6.70197">
        <ele>390</ele>
        <time>2015-08-02T08:38:37Z</time>
      </trkpt>
      <trkpt lat="47.41138" lon="6.70192">
        <ele>390</ele>
        <time>2015-08-02T08:38:37Z</time>
      </trkpt>
      <trkpt lat="47.41137" lon="6.70189">
        <ele>390</ele>
        <time>2015-08-02T08:38:38Z</time>
      </trkpt>
      <trkpt lat="47.41145" lon="6.70185">
        <ele>390</ele>
        <time>2015-08-02T08:38:48Z</time>
      </trkpt>
      <trkpt lat="47.41149" lon="6.70181">
        <ele>390</ele>
        <time>2015-08-02T08:38:50Z</time>
      </trkpt>
      <trkpt lat="47.41156" lon="6.70175">
        <ele>390</ele>
        <time>2015-08-02T08:38:52Z</time>
      </trkpt>
      <trkpt lat="47.41168" lon="6.70165">
        <ele>389</ele>
        <time>2015-08-02T08:38:54Z</time>
      </trkpt>
      <trkpt lat="47.41171" lon="6.70163">
        <ele>390</ele>
        <time>2015-08-02T08:38:55Z</time>
      </trkpt>
      <trkpt lat="47.41175" lon="6.70162">
        <ele>391</ele>
        <time>2015-08-02T08:38:55Z</time>
      </trkpt>
      <trkpt lat="47.41179" lon="6.70161">
        <ele>391</ele>
        <time>2015-08-02T08:38:56Z</time>
      </trkpt>
      <trkpt lat="47.41183" lon="6.70161">
        <ele>391</ele>
        <time>2015-08-02T08:38:57Z</time>
      </trkpt>
      <trkpt lat="47.41187" lon="6.7016">
        <ele>392</ele>
        <time>2015-08-02T08:38:57Z</time>
      </trkpt>
      <trkpt lat="47.41196" lon="6.70158">
        <ele>392</ele>
        <time>2015-08-02T08:39:00Z</time>
      </trkpt>
      <trkpt lat="47.41205" lon="6.70156">
        <ele>392</ele>
        <time>2015-08-02T08:39:01Z</time>
      </trkpt>
      <trkpt lat="47.41209" lon="6.70156">
        <ele>391</ele>
        <time>2015-08-02T08:39:02Z</time>
      </trkpt>
      <trkpt lat="47.41217" lon="6.70156">
        <ele>390</ele>
        <time>2015-08-02T08:39:03Z</time>
      </trkpt>
      <trkpt lat="47.41221" lon="6.70157">
        <ele>390</ele>
        <time>2015-08-02T08:39:03Z</time>
      </trkpt>
      <trkpt lat="47.41231" lon="6.70159">
        <ele>388</ele>
        <time>2015-08-02T08:39:04Z</time>
      </trkpt>
      <trkpt lat="47.41236" lon="6.7016">
        <ele>386</ele>
        <time>2015-08-02T08:39:05Z</time>
      </trkpt>
      <trkpt lat="47.41241" lon="6.7016">
        <ele>385</ele>
        <time>2015-08-02T08:39:05Z</time>
      </trkpt>
      <trkpt lat="47.41246" lon="6.70159">
        <ele>384</ele>
        <time>2015-08-02T08:39:06Z</time>
      </trkpt>
      <trkpt lat="47.4126" lon="6.70157">
        <ele>380</ele>
        <time>2015-08-02T08:39:08Z</time>
      </trkpt>
      <trkpt lat="47.41264" lon="6.70156">
        <ele>381</ele>
        <time>2015-08-02T08:39:09Z</time>
      </trkpt>
      <trkpt lat="47.41269" lon="6.70154">
        <ele>381</ele>
        <time>2015-08-02T08:39:09Z</time>
      </trkpt>
      <trkpt lat="47.41272" lon="6.70151">
        <ele>381</ele>
        <time>2015-08-02T08:39:10Z</time>
      </trkpt>
      <trkpt lat="47.41281" lon="6.70141">
        <ele>381</ele>
        <time>2015-08-02T08:39:13Z</time>
      </trkpt>
      <trkpt lat="47.41284" lon="6.70138">
        <ele>381</ele>
        <time>2015-08-02T08:39:13Z</time>
      </trkpt>
      <trkpt lat="47.41288" lon="6.70135">
        <ele>381</ele>
        <time>2015-08-02T08:39:13Z</time>
      </trkpt>
      <trkpt lat="47.41299" lon="6.70129">
        <ele>381</ele>
        <time>2015-08-02T08:39:15Z</time>
      </trkpt>
      <trkpt lat="47.41303" lon="6.70126">
        <ele>381</ele>
        <time>2015-08-02T08:39:16Z</time>
      </trkpt>
      <trkpt lat="47.41317" lon="6.70117">
        <ele>380</ele>
        <time>2015-08-02T08:39:19Z</time>
      </trkpt>
      <trkpt lat="47.41332" lon="6.70103">
        <ele>380</ele>
        <time>2015-08-02T08:39:21Z</time>
      </trkpt>
      <trkpt lat="47.41337" lon="6.70099">
        <ele>375</ele>
        <time>2015-08-02T08:39:22Z</time>
      </trkpt>
      <trkpt lat="47.41341" lon="6.70095">
        <ele>375</ele>
        <time>2015-08-02T08:39:23Z</time>
      </trkpt>
      <trkpt lat="47.41345" lon="6.7009">
        <ele>375</ele>
        <time>2015-08-02T08:39:23Z</time>
      </trkpt>
      <trkpt lat="47.41353" lon="6.70072">
        <ele>378</ele>
        <time>2015-08-02T08:39:24Z</time>
      </trkpt>
      <trkpt lat="47.41358" lon="6.70066">
        <ele>378</ele>
        <time>2015-08-02T08:39:25Z</time>
      </trkpt>
      <trkpt lat="47.41361" lon="6.70058">
        <ele>378</ele>
        <time>2015-08-02T08:39:25Z</time>
      </trkpt>
      <trkpt lat="47.41362" lon="6.70053">
        <ele>378</ele>
        <time>2015-08-02T08:39:26Z</time>
      </trkpt>
      <trkpt lat="47.41367" lon="6.70045">
        <ele>379</ele>
        <time>2015-08-02T08:39:28Z</time>
      </trkpt>
      <trkpt lat="47.41375" lon="6.70045">
        <ele>378</ele>
        <time>2015-08-02T08:39:28Z</time>
      </trkpt>
      <trkpt lat="47.41389" lon="6.7004">
        <ele>378</ele>
        <time>2015-08-02T08:39:32Z</time>
      </trkpt>
      <trkpt lat="47.41396" lon="6.70038">
        <ele>378</ele>
        <time>2015-08-02T08:39:32Z</time>
      </trkpt>
      <trkpt lat="47.41402" lon="6.70035">
        <ele>378</ele>
        <time>2015-08-02T08:39:33Z</time>
      </trkpt>
      <trkpt lat="47.41408" lon="6.70033">
        <ele>378</ele>
        <time>2015-08-02T08:39:33Z</time>
      </trkpt>
      <trkpt lat="47.41414" lon="6.70031">
        <ele>378</ele>
        <time>2015-08-02T08:39:33Z</time>
      </trkpt>
      <trkpt lat="47.4142" lon="6.70031">
        <ele>373</ele>
        <time>2015-08-02T08:39:34Z</time>
      </trkpt>
      <trkpt lat="47.41426" lon="6.70031">
        <ele>373</ele>
        <time>2015-08-02T08:39:35Z</time>
      </trkpt>
      <trkpt lat="47.41432" lon="6.70031">
        <ele>372</ele>
        <time>2015-08-02T08:39:35Z</time>
      </trkpt>
      <trkpt lat="47.41438" lon="6.7003">
        <ele>372</ele>
        <time>2015-08-02T08:39:36Z</time>
      </trkpt>
      <trkpt lat="47.41445" lon="6.70029">
        <ele>372</ele>
        <time>2015-08-02T08:39:37Z</time>
      </trkpt>
      <trkpt lat="47.41452" lon="6.70029">
        <ele>371</ele>
        <time>2015-08-02T08:39:37Z</time>
      </trkpt>
      <trkpt lat="47.41457" lon="6.70032">
        <ele>371</ele>
        <time>2015-08-02T08:39:38Z</time>
      </trkpt>
      <trkpt lat="47.41463" lon="6.70034">
        <ele>371</ele>
        <time>2015-08-02T08:39:39Z</time>
      </trkpt>
      <trkpt lat="47.41469" lon="6.70036">
        <ele>370</ele>
        <time>2015-08-02T08:39:39Z</time>
      </trkpt>
      <trkpt lat="47.41474" lon="6.70037">
        <ele>370</ele>
        <time>2015-08-02T08:39:41Z</time>
      </trkpt>
      <trkpt lat="47.4148" lon="6.70037">
        <ele>370</ele>
        <time>2015-08-02T08:39:42Z</time>
      </trkpt>
      <trkpt lat="47.4149" lon="6.70035">
        <ele>370</ele>
        <time>2015-08-02T08:39:43Z</time>
      </trkpt>
      <trkpt lat="47.41495" lon="6.70032">
        <ele>370</ele>
        <time>2015-08-02T08:39:43Z</time>
      </trkpt>
      <trkpt lat="47.415" lon="6.70031">
        <ele>369</ele>
        <time>2015-08-02T08:39:43Z</time>
      </trkpt>
      <trkpt lat="47.41504" lon="6.70028">
        <ele>369</ele>
        <time>2015-08-02T08:39:44Z</time>
      </trkpt>
      <trkpt lat="47.4151" lon="6.70024">
        <ele>369</ele>
        <time>2015-08-02T08:39:45Z</time>
      </trkpt>
      <trkpt lat="47.41515" lon="6.70022">
        <ele>369</ele>
        <time>2015-08-02T08:39:45Z</time>
      </trkpt>
      <trkpt lat="47.4152" lon="6.70018">
        <ele>369</ele>
        <time>2015-08-02T08:39:46Z</time>
      </trkpt>
      <trkpt lat="47.41526" lon="6.70017">
        <ele>369</ele>
        <time>2015-08-02T08:39:47Z</time>
      </trkpt>
      <trkpt lat="47.41531" lon="6.70014">
        <ele>369</ele>
        <time>2015-08-02T08:39:47Z</time>
      </trkpt>
      <trkpt lat="47.41537" lon="6.70012">
        <ele>369</ele>
        <time>2015-08-02T08:39:48Z</time>
      </trkpt>
      <trkpt lat="47.41546" lon="6.70009">
        <ele>369</ele>
        <time>2015-08-02T08:39:49Z</time>
      </trkpt>
      <trkpt lat="47.4155" lon="6.70007">
        <ele>369</ele>
        <time>2015-08-02T08:39:50Z</time>
      </trkpt>
      <trkpt lat="47.41554" lon="6.70006">
        <ele>369</ele>
        <time>2015-08-02T08:39:51Z</time>
      </trkpt>
      <trkpt lat="47.41557" lon="6.70003">
        <ele>369</ele>
        <time>2015-08-02T08:39:51Z</time>
      </trkpt>
      <trkpt lat="47.41562" lon="6.7">
        <ele>368</ele>
        <time>2015-08-02T08:39:52Z</time>
      </trkpt>
      <trkpt lat="47.41573" lon="6.69998">
        <ele>367</ele>
        <time>2015-08-02T08:39:53Z</time>
      </trkpt>
      <trkpt lat="47.41583" lon="6.69994">
        <ele>366</ele>
        <time>2015-08-02T08:39:55Z</time>
      </trkpt>
      <trkpt lat="47.41595" lon="6.6999">
        <ele>365</ele>
        <time>2015-08-02T08:39:56Z</time>
      </trkpt>
      <trkpt lat="47.41606" lon="6.69989">
        <ele>365</ele>
        <time>2015-08-02T08:39:57Z</time>
      </trkpt>
      <trkpt lat="47.41612" lon="6.69989">
        <ele>365</ele>
        <time>2015-08-02T08:39:58Z</time>
      </trkpt>
      <trkpt lat="47.41616" lon="6.69988">
        <ele>366</ele>
        <time>2015-08-02T08:39:59Z</time>
      </trkpt>
      <trkpt lat="47.4162" lon="6.69987">
        <ele>366</ele>
        <time>2015-08-02T08:39:59Z</time>
      </trkpt>
      <trkpt lat="47.41624" lon="6.69986">
        <ele>366</ele>
        <time>2015-08-02T08:40:00Z</time>
      </trkpt>
      <trkpt lat="47.41629" lon="6.69985">
        <ele>366</ele>
        <time>2015-08-02T08:40:01Z</time>
      </trkpt>
      <trkpt lat="47.41643" lon="6.69983">
        <ele>367</ele>
        <time>2015-08-02T08:40:03Z</time>
      </trkpt>
      <trkpt lat="47.41647" lon="6.69982">
        <ele>367</ele>
        <time>2015-08-02T08:40:03Z</time>
      </trkpt>
      <trkpt lat="47.41652" lon="6.69981">
        <ele>367</ele>
        <time>2015-08-02T08:40:03Z</time>
      </trkpt>
      <trkpt lat="47.41656" lon="6.69981">
        <ele>367</ele>
        <time>2015-08-02T08:40:04Z</time>
      </trkpt>
      <trkpt lat="47.41664" lon="6.6998">
        <ele>368</ele>
        <time>2015-08-02T08:40:06Z</time>
      </trkpt>
      <trkpt lat="47.41668" lon="6.69979">
        <ele>369</ele>
        <time>2015-08-02T08:40:07Z</time>
      </trkpt>
      <trkpt lat="47.41672" lon="6.69979">
        <ele>369</ele>
        <time>2015-08-02T08:40:07Z</time>
      </trkpt>
      <trkpt lat="47.41676" lon="6.69978">
        <ele>369</ele>
        <time>2015-08-02T08:40:08Z</time>
      </trkpt>
      <trkpt lat="47.4168" lon="6.69978">
        <ele>369</ele>
        <time>2015-08-02T08:40:09Z</time>
      </trkpt>
      <trkpt lat="47.41683" lon="6.69979">
        <ele>369</ele>
        <time>2015-08-02T08:40:09Z</time>
      </trkpt>
      <trkpt lat="47.41686" lon="6.69979">
        <ele>368</ele>
        <time>2015-08-02T08:40:10Z</time>
      </trkpt>
      <trkpt lat="47.41689" lon="6.69979">
        <ele>368</ele>
        <time>2015-08-02T08:40:11Z</time>
      </trkpt>
      <trkpt lat="47.41699" lon="6.69982">
        <ele>369</ele>
        <time>2015-08-02T08:40:13Z</time>
      </trkpt>
      <trkpt lat="47.41707" lon="6.69986">
        <ele>369</ele>
        <time>2015-08-02T08:40:15Z</time>
      </trkpt>
      <trkpt lat="47.41711" lon="6.69987">
        <ele>369</ele>
        <time>2015-08-02T08:40:17Z</time>
      </trkpt>
      <trkpt lat="47.41714" lon="6.69988">
        <ele>369</ele>
        <time>2015-08-02T08:40:19Z</time>
      </trkpt>
      <trkpt lat="47.41719" lon="6.69988">
        <ele>369</ele>
        <time>2015-08-02T08:40:19Z</time>
      </trkpt>
      <trkpt lat="47.41732" lon="6.69986">
        <ele>369</ele>
        <time>2015-08-02T08:40:21Z</time>
      </trkpt>
      <trkpt lat="47.41738" lon="6.69985">
        <ele>370</ele>
        <time>2015-08-02T08:40:23Z</time>
      </trkpt>
      <trkpt lat="47.41743" lon="6.69985">
        <ele>370</ele>
        <time>2015-08-02T08:40:23Z</time>
      </trkpt>
      <trkpt lat="47.41748" lon="6.69985">
        <ele>370</ele>
        <time>2015-08-02T08:40:23Z</time>
      </trkpt>
      <trkpt lat="47.41752" lon="6.69984">
        <ele>370</ele>
        <time>2015-08-02T08:40:24Z</time>
      </trkpt>
      <trkpt lat="47.41762" lon="6.69984">
        <ele>369</ele>
        <time>2015-08-02T08:40:25Z</time>
      </trkpt>
      <trkpt lat="47.41768" lon="6.69983">
        <ele>369</ele>
        <time>2015-08-02T08:40:26Z</time>
      </trkpt>
      <trkpt lat="47.41779" lon="6.69983">
        <ele>369</ele>
        <time>2015-08-02T08:40:27Z</time>
      </trkpt>
      <trkpt lat="47.41785" lon="6.69983">
        <ele>368</ele>
        <time>2015-08-02T08:40:28Z</time>
      </trkpt>
      <trkpt lat="47.4179" lon="6.69983">
        <ele>368</ele>
        <time>2015-08-02T08:40:29Z</time>
      </trkpt>
      <trkpt lat="47.41795" lon="6.69983">
        <ele>368</ele>
        <time>2015-08-02T08:40:29Z</time>
      </trkpt>
      <trkpt lat="47.418" lon="6.69983">
        <ele>368</ele>
        <time>2015-08-02T08:40:30Z</time>
      </trkpt>
      <trkpt lat="47.41804" lon="6.69982">
        <ele>368</ele>
        <time>2015-08-02T08:40:31Z</time>
      </trkpt>
      <trkpt lat="47.41809" lon="6.69982">
        <ele>368</ele>
        <time>2015-08-02T08:40:31Z</time>
      </trkpt>
      <trkpt lat="47.41814" lon="6.6998">
        <ele>368</ele>
        <time>2015-08-02T08:40:32Z</time>
      </trkpt>
      <trkpt lat="47.41824" lon="6.69977">
        <ele>368</ele>
        <time>2015-08-02T08:40:33Z</time>
      </trkpt>
      <trkpt lat="47.4183" lon="6.69978">
        <ele>368</ele>
        <time>2015-08-02T08:40:33Z</time>
      </trkpt>
      <trkpt lat="47.41837" lon="6.69977">
        <ele>369</ele>
        <time>2015-08-02T08:40:35Z</time>
      </trkpt>
      <trkpt lat="47.41842" lon="6.69976">
        <ele>369</ele>
        <time>2015-08-02T08:40:35Z</time>
      </trkpt>
      <trkpt lat="47.41847" lon="6.69974">
        <ele>369</ele>
        <time>2015-08-02T08:40:36Z</time>
      </trkpt>
      <trkpt lat="47.41851" lon="6.69973">
        <ele>369</ele>
        <time>2015-08-02T08:40:37Z</time>
      </trkpt>
      <trkpt lat="47.41856" lon="6.69972">
        <ele>370</ele>
        <time>2015-08-02T08:40:37Z</time>
      </trkpt>
      <trkpt lat="47.4186" lon="6.69969">
        <ele>370</ele>
        <time>2015-08-02T08:40:38Z</time>
      </trkpt>
      <trkpt lat="47.41865" lon="6.69969">
        <ele>370</ele>
        <time>2015-08-02T08:40:39Z</time>
      </trkpt>
      <trkpt lat="47.41867" lon="6.69963">
        <ele>369</ele>
        <time>2015-08-02T08:40:39Z</time>
      </trkpt>
      <trkpt lat="47.41872" lon="6.69958">
        <ele>369</ele>
        <time>2015-08-02T08:40:40Z</time>
      </trkpt>
      <trkpt lat="47.41882" lon="6.69956">
        <ele>370</ele>
        <time>2015-08-02T08:40:41Z</time>
      </trkpt>
      <trkpt lat="47.41885" lon="6.69952">
        <ele>369</ele>
        <time>2015-08-02T08:40:42Z</time>
      </trkpt>
      <trkpt lat="47.4189" lon="6.6995">
        <ele>369</ele>
        <time>2015-08-02T08:40:43Z</time>
      </trkpt>
      <trkpt lat="47.41894" lon="6.69949">
        <ele>369</ele>
        <time>2015-08-02T08:40:43Z</time>
      </trkpt>
      <trkpt lat="47.41899" lon="6.69949">
        <ele>369</ele>
        <time>2015-08-02T08:40:43Z</time>
      </trkpt>
      <trkpt lat="47.41902" lon="6.69947">
        <ele>369</ele>
        <time>2015-08-02T08:40:44Z</time>
      </trkpt>
      <trkpt lat="47.41906" lon="6.69946">
        <ele>369</ele>
        <time>2015-08-02T08:40:44Z</time>
      </trkpt>
      <trkpt lat="47.4191" lon="6.69944">
        <ele>369</ele>
        <time>2015-08-02T08:40:45Z</time>
      </trkpt>
      <trkpt lat="47.41914" lon="6.69943">
        <ele>369</ele>
        <time>2015-08-02T08:40:46Z</time>
      </trkpt>
      <trkpt lat="47.41917" lon="6.6994">
        <ele>372</ele>
        <time>2015-08-02T08:40:46Z</time>
      </trkpt>
      <trkpt lat="47.41922" lon="6.69939">
        <ele>372</ele>
        <time>2015-08-02T08:40:48Z</time>
      </trkpt>
      <trkpt lat="47.41926" lon="6.69939">
        <ele>372</ele>
        <time>2015-08-02T08:40:49Z</time>
      </trkpt>
      <trkpt lat="47.41931" lon="6.69939">
        <ele>373</ele>
        <time>2015-08-02T08:40:49Z</time>
      </trkpt>
      <trkpt lat="47.41936" lon="6.6994">
        <ele>373</ele>
        <time>2015-08-02T08:40:50Z</time>
      </trkpt>
      <trkpt lat="47.4194" lon="6.69939">
        <ele>374</ele>
        <time>2015-08-02T08:40:51Z</time>
      </trkpt>
      <trkpt lat="47.41944" lon="6.69938">
        <ele>374</ele>
        <time>2015-08-02T08:40:51Z</time>
      </trkpt>
      <trkpt lat="47.41952" lon="6.69937">
        <ele>374</ele>
        <time>2015-08-02T08:40:53Z</time>
      </trkpt>
      <trkpt lat="47.41956" lon="6.69936">
        <ele>375</ele>
        <time>2015-08-02T08:40:53Z</time>
      </trkpt>
      <trkpt lat="47.41965" lon="6.69934">
        <ele>375</ele>
        <time>2015-08-02T08:40:54Z</time>
      </trkpt>
      <trkpt lat="47.41974" lon="6.69931">
        <ele>375</ele>
        <time>2015-08-02T08:40:55Z</time>
      </trkpt>
      <trkpt lat="47.41978" lon="6.69928">
        <ele>374</ele>
        <time>2015-08-02T08:40:56Z</time>
      </trkpt>
      <trkpt lat="47.41983" lon="6.69926">
        <ele>374</ele>
        <time>2015-08-02T08:40:56Z</time>
      </trkpt>
      <trkpt lat="47.41987" lon="6.69925">
        <ele>374</ele>
        <time>2015-08-02T08:40:57Z</time>
      </trkpt>
      <trkpt lat="47.41991" lon="6.69925">
        <ele>373</ele>
        <time>2015-08-02T08:40:59Z</time>
      </trkpt>
      <trkpt lat="47.41996" lon="6.69926">
        <ele>373</ele>
        <time>2015-08-02T08:40:59Z</time>
      </trkpt>
      <trkpt lat="47.42004" lon="6.69924">
        <ele>373</ele>
        <time>2015-08-02T08:41:02Z</time>
      </trkpt>
      <trkpt lat="47.4201" lon="6.69923">
        <ele>374</ele>
        <time>2015-08-02T08:41:02Z</time>
      </trkpt>
      <trkpt lat="47.42014" lon="6.69922">
        <ele>374</ele>
        <time>2015-08-02T08:41:03Z</time>
      </trkpt>
      <trkpt lat="47.42017" lon="6.69921">
        <ele>375</ele>
        <time>2015-08-02T08:41:04Z</time>
      </trkpt>
      <trkpt lat="47.42026" lon="6.69922">
        <ele>375</ele>
        <time>2015-08-02T08:41:06Z</time>
      </trkpt>
      <trkpt lat="47.42034" lon="6.6992">
        <ele>376</ele>
        <time>2015-08-02T08:41:07Z</time>
      </trkpt>
      <trkpt lat="47.42038" lon="6.6992">
        <ele>376</ele>
        <time>2015-08-02T08:41:08Z</time>
      </trkpt>
      <trkpt lat="47.42042" lon="6.69919">
        <ele>376</ele>
        <time>2015-08-02T08:41:09Z</time>
      </trkpt>
      <trkpt lat="47.42046" lon="6.69919">
        <ele>376</ele>
        <time>2015-08-02T08:41:09Z</time>
      </trkpt>
      <trkpt lat="47.42051" lon="6.69919">
        <ele>375</ele>
        <time>2015-08-02T08:41:10Z</time>
      </trkpt>
      <trkpt lat="47.42056" lon="6.69919">
        <ele>375</ele>
        <time>2015-08-02T08:41:11Z</time>
      </trkpt>
      <trkpt lat="47.42063" lon="6.69921">
        <ele>374</ele>
        <time>2015-08-02T08:41:11Z</time>
      </trkpt>
      <trkpt lat="47.42068" lon="6.69919">
        <ele>374</ele>
        <time>2015-08-02T08:41:12Z</time>
      </trkpt>
      <trkpt lat="47.42073" lon="6.69919">
        <ele>373</ele>
        <time>2015-08-02T08:41:13Z</time>
      </trkpt>
      <trkpt lat="47.42079" lon="6.69918">
        <ele>371</ele>
        <time>2015-08-02T08:41:13Z</time>
      </trkpt>
      <trkpt lat="47.42085" lon="6.69917">
        <ele>370</ele>
        <time>2015-08-02T08:41:13Z</time>
      </trkpt>
      <trkpt lat="47.42091" lon="6.69914">
        <ele>368</ele>
        <time>2015-08-02T08:41:14Z</time>
      </trkpt>
      <trkpt lat="47.42097" lon="6.69913">
        <ele>367</ele>
        <time>2015-08-02T08:41:14Z</time>
      </trkpt>
      <trkpt lat="47.42102" lon="6.69912">
        <ele>367</ele>
        <time>2015-08-02T08:41:15Z</time>
      </trkpt>
      <trkpt lat="47.42108" lon="6.6991">
        <ele>366</ele>
        <time>2015-08-02T08:41:17Z</time>
      </trkpt>
      <trkpt lat="47.42115" lon="6.69904">
        <ele>365</ele>
        <time>2015-08-02T08:41:17Z</time>
      </trkpt>
      <trkpt lat="47.42121" lon="6.699">
        <ele>365</ele>
        <time>2015-08-02T08:41:18Z</time>
      </trkpt>
      <trkpt lat="47.42126" lon="6.69888">
        <ele>364</ele>
        <time>2015-08-02T08:41:19Z</time>
      </trkpt>
      <trkpt lat="47.42134" lon="6.69884">
        <ele>364</ele>
        <time>2015-08-02T08:41:19Z</time>
      </trkpt>
      <trkpt lat="47.42149" lon="6.69871">
        <ele>363</ele>
        <time>2015-08-02T08:41:21Z</time>
      </trkpt>
      <trkpt lat="47.42156" lon="6.69865">
        <ele>363</ele>
        <time>2015-08-02T08:41:21Z</time>
      </trkpt>
      <trkpt lat="47.42166" lon="6.69861">
        <ele>363</ele>
        <time>2015-08-02T08:41:22Z</time>
      </trkpt>
      <trkpt lat="47.42173" lon="6.69857">
        <ele>363</ele>
        <time>2015-08-02T08:41:23Z</time>
      </trkpt>
      <trkpt lat="47.4218" lon="6.69851">
        <ele>363</ele>
        <time>2015-08-02T08:41:23Z</time>
      </trkpt>
      <trkpt lat="47.42192" lon="6.69844">
        <ele>364</ele>
        <time>2015-08-02T08:41:24Z</time>
      </trkpt>
      <trkpt lat="47.42196" lon="6.6984">
        <ele>364</ele>
        <time>2015-08-02T08:41:24Z</time>
      </trkpt>
      <trkpt lat="47.42201" lon="6.69837">
        <ele>364</ele>
        <time>2015-08-02T08:41:25Z</time>
      </trkpt>
      <trkpt lat="47.42203" lon="6.69834">
        <ele>364</ele>
        <time>2015-08-02T08:41:26Z</time>
      </trkpt>
      <trkpt lat="47.42207" lon="6.6983">
        <ele>362</ele>
        <time>2015-08-02T08:41:26Z</time>
      </trkpt>
      <trkpt lat="47.42211" lon="6.69827">
        <ele>362</ele>
        <time>2015-08-02T08:41:27Z</time>
      </trkpt>
      <trkpt lat="47.42214" lon="6.69824">
        <ele>362</ele>
        <time>2015-08-02T08:41:28Z</time>
      </trkpt>
      <trkpt lat="47.42224" lon="6.69819">
        <ele>363</ele>
        <time>2015-08-02T08:41:31Z</time>
      </trkpt>
      <trkpt lat="47.42228" lon="6.69818">
        <ele>363</ele>
        <time>2015-08-02T08:41:31Z</time>
      </trkpt>
      <trkpt lat="47.42232" lon="6.69816">
        <ele>363</ele>
        <time>2015-08-02T08:41:32Z</time>
      </trkpt>
      <trkpt lat="47.42236" lon="6.69812">
        <ele>363</ele>
        <time>2015-08-02T08:41:33Z</time>
      </trkpt>
      <trkpt lat="47.4224" lon="6.69811">
        <ele>363</ele>
        <time>2015-08-02T08:41:33Z</time>
      </trkpt>
      <trkpt lat="47.42249" lon="6.69804">
        <ele>363</ele>
        <time>2015-08-02T08:41:34Z</time>
      </trkpt>
      <trkpt lat="47.42257" lon="6.69802">
        <ele>367</ele>
        <time>2015-08-02T08:41:34Z</time>
      </trkpt>
      <trkpt lat="47.42262" lon="6.69799">
        <ele>367</ele>
        <time>2015-08-02T08:41:35Z</time>
      </trkpt>
      <trkpt lat="47.4227" lon="6.698">
        <ele>367</ele>
        <time>2015-08-02T08:41:36Z</time>
      </trkpt>
      <trkpt lat="47.42275" lon="6.69796">
        <ele>367</ele>
        <time>2015-08-02T08:41:36Z</time>
      </trkpt>
      <trkpt lat="47.42285" lon="6.69788">
        <ele>368</ele>
        <time>2015-08-02T08:41:37Z</time>
      </trkpt>
      <trkpt lat="47.42291" lon="6.69781">
        <ele>368</ele>
        <time>2015-08-02T08:41:38Z</time>
      </trkpt>
      <trkpt lat="47.42293" lon="6.69762">
        <ele>368</ele>
        <time>2015-08-02T08:41:39Z</time>
      </trkpt>
      <trkpt lat="47.42292" lon="6.69752">
        <ele>368</ele>
        <time>2015-08-02T08:41:40Z</time>
      </trkpt>
      <trkpt lat="47.42292" lon="6.69743">
        <ele>365</ele>
        <time>2015-08-02T08:41:40Z</time>
      </trkpt>
      <trkpt lat="47.4229" lon="6.69723">
        <ele>364</ele>
        <time>2015-08-02T08:41:43Z</time>
      </trkpt>
      <trkpt lat="47.4229" lon="6.69711">
        <ele>364</ele>
        <time>2015-08-02T08:41:43Z</time>
      </trkpt>
      <trkpt lat="47.4229" lon="6.69701">
        <ele>363</ele>
        <time>2015-08-02T08:41:44Z</time>
      </trkpt>
      <trkpt lat="47.42291" lon="6.6969">
        <ele>363</ele>
        <time>2015-08-02T08:41:45Z</time>
      </trkpt>
      <trkpt lat="47.42293" lon="6.69679">
        <ele>363</ele>
        <time>2015-08-02T08:41:45Z</time>
      </trkpt>
      <trkpt lat="47.42293" lon="6.69671">
        <ele>363</ele>
        <time>2015-08-02T08:41:46Z</time>
      </trkpt>
      <trkpt lat="47.42301" lon="6.69648">
        <ele>359</ele>
        <time>2015-08-02T08:41:47Z</time>
      </trkpt>
      <trkpt lat="47.42305" lon="6.69637">
        <ele>359</ele>
        <time>2015-08-02T08:41:48Z</time>
      </trkpt>
      <trkpt lat="47.42311" lon="6.69628">
        <ele>359</ele>
        <time>2015-08-02T08:41:50Z</time>
      </trkpt>
      <trkpt lat="47.4232" lon="6.6961">
        <ele>358</ele>
        <time>2015-08-02T08:41:51Z</time>
      </trkpt>
      <trkpt lat="47.42324" lon="6.69601">
        <ele>358</ele>
        <time>2015-08-02T08:41:52Z</time>
      </trkpt>
      <trkpt lat="47.4233" lon="6.69592">
        <ele>357</ele>
        <time>2015-08-02T08:41:52Z</time>
      </trkpt>
      <trkpt lat="47.42337" lon="6.69583">
        <ele>358</ele>
        <time>2015-08-02T08:41:53Z</time>
      </trkpt>
      <trkpt lat="47.42341" lon="6.69573">
        <ele>360</ele>
        <time>2015-08-02T08:41:54Z</time>
      </trkpt>
      <trkpt lat="47.42346" lon="6.69563">
        <ele>361</ele>
        <time>2015-08-02T08:41:54Z</time>
      </trkpt>
      <trkpt lat="47.42351" lon="6.69554">
        <ele>362</ele>
        <time>2015-08-02T08:41:55Z</time>
      </trkpt>
      <trkpt lat="47.42355" lon="6.69543">
        <ele>362</ele>
        <time>2015-08-02T08:41:56Z</time>
      </trkpt>
      <trkpt lat="47.42359" lon="6.69534">
        <ele>362</ele>
        <time>2015-08-02T08:41:56Z</time>
      </trkpt>
      <trkpt lat="47.42364" lon="6.69521">
        <ele>362</ele>
        <time>2015-08-02T08:41:57Z</time>
      </trkpt>
      <trkpt lat="47.42368" lon="6.69511">
        <ele>362</ele>
        <time>2015-08-02T08:41:59Z</time>
      </trkpt>
      <trkpt lat="47.42374" lon="6.69491">
        <ele>359</ele>
        <time>2015-08-02T08:42:00Z</time>
      </trkpt>
      <trkpt lat="47.42385" lon="6.69443">
        <ele>359</ele>
        <time>2015-08-02T08:42:03Z</time>
      </trkpt>
      <trkpt lat="47.42387" lon="6.69433">
        <ele>359</ele>
        <time>2015-08-02T08:42:03Z</time>
      </trkpt>
      <trkpt lat="47.42391" lon="6.69415">
        <ele>357</ele>
        <time>2015-08-02T08:42:04Z</time>
      </trkpt>
      <trkpt lat="47.42393" lon="6.69405">
        <ele>357</ele>
        <time>2015-08-02T08:42:05Z</time>
      </trkpt>
      <trkpt lat="47.42395" lon="6.69395">
        <ele>357</ele>
        <time>2015-08-02T08:42:06Z</time>
      </trkpt>
      <trkpt lat="47.424" lon="6.69377">
        <ele>356</ele>
        <time>2015-08-02T08:42:07Z</time>
      </trkpt>
      <trkpt lat="47.42402" lon="6.69367">
        <ele>356</ele>
        <time>2015-08-02T08:42:08Z</time>
      </trkpt>
      <trkpt lat="47.4241" lon="6.69332">
        <ele>354</ele>
        <time>2015-08-02T08:42:10Z</time>
      </trkpt>
      <trkpt lat="47.42412" lon="6.69323">
        <ele>354</ele>
        <time>2015-08-02T08:42:12Z</time>
      </trkpt>
      <trkpt lat="47.42414" lon="6.69315">
        <ele>355</ele>
        <time>2015-08-02T08:42:13Z</time>
      </trkpt>
      <trkpt lat="47.42417" lon="6.69306">
        <ele>360</ele>
        <time>2015-08-02T08:42:13Z</time>
      </trkpt>
      <trkpt lat="47.42418" lon="6.69297">
        <ele>360</ele>
        <time>2015-08-02T08:42:13Z</time>
      </trkpt>
      <trkpt lat="47.42422" lon="6.69279">
        <ele>360</ele>
        <time>2015-08-02T08:42:14Z</time>
      </trkpt>
      <trkpt lat="47.42425" lon="6.69271">
        <ele>359</ele>
        <time>2015-08-02T08:42:15Z</time>
      </trkpt>
      <trkpt lat="47.42429" lon="6.69251">
        <ele>356</ele>
        <time>2015-08-02T08:42:16Z</time>
      </trkpt>
      <trkpt lat="47.42429" lon="6.69241">
        <ele>356</ele>
        <time>2015-08-02T08:42:17Z</time>
      </trkpt>
      <trkpt lat="47.42432" lon="6.69221">
        <ele>358</ele>
        <time>2015-08-02T08:42:18Z</time>
      </trkpt>
      <trkpt lat="47.42433" lon="6.69211">
        <ele>358</ele>
        <time>2015-08-02T08:42:19Z</time>
      </trkpt>
      <trkpt lat="47.42437" lon="6.69182">
        <ele>358</ele>
        <time>2015-08-02T08:42:21Z</time>
      </trkpt>
      <trkpt lat="47.42438" lon="6.69172">
        <ele>357</ele>
        <time>2015-08-02T08:42:22Z</time>
      </trkpt>
      <trkpt lat="47.4244" lon="6.69162">
        <ele>356</ele>
        <time>2015-08-02T08:42:22Z</time>
      </trkpt>
      <trkpt lat="47.42444" lon="6.69142">
        <ele>357</ele>
        <time>2015-08-02T08:42:24Z</time>
      </trkpt>
      <trkpt lat="47.42446" lon="6.69132">
        <ele>357</ele>
        <time>2015-08-02T08:42:24Z</time>
      </trkpt>
      <trkpt lat="47.42452" lon="6.69103">
        <ele>357</ele>
        <time>2015-08-02T08:42:26Z</time>
      </trkpt>
      <trkpt lat="47.42454" lon="6.69094">
        <ele>357</ele>
        <time>2015-08-02T08:42:27Z</time>
      </trkpt>
      <trkpt lat="47.42458" lon="6.69075">
        <ele>354</ele>
        <time>2015-08-02T08:42:28Z</time>
      </trkpt>
      <trkpt lat="47.4246" lon="6.69066">
        <ele>354</ele>
        <time>2015-08-02T08:42:30Z</time>
      </trkpt>
      <trkpt lat="47.42464" lon="6.69057">
        <ele>354</ele>
        <time>2015-08-02T08:42:31Z</time>
      </trkpt>
      <trkpt lat="47.42469" lon="6.69052">
        <ele>354</ele>
        <time>2015-08-02T08:42:31Z</time>
      </trkpt>
      <trkpt lat="47.42474" lon="6.69048">
        <ele>354</ele>
        <time>2015-08-02T08:42:32Z</time>
      </trkpt>
      <trkpt lat="47.42478" lon="6.69046">
        <ele>354</ele>
        <time>2015-08-02T08:42:33Z</time>
      </trkpt>
      <trkpt lat="47.42482" lon="6.69043">
        <ele>354</ele>
        <time>2015-08-02T08:42:33Z</time>
      </trkpt>
      <trkpt lat="47.42487" lon="6.69042">
        <ele>354</ele>
        <time>2015-08-02T08:42:33Z</time>
      </trkpt>
      <trkpt lat="47.42491" lon="6.69041">
        <ele>354</ele>
        <time>2015-08-02T08:42:34Z</time>
      </trkpt>
      <trkpt lat="47.42495" lon="6.6904">
        <ele>354</ele>
        <time>2015-08-02T08:42:34Z</time>
      </trkpt>
      <trkpt lat="47.42498" lon="6.69037">
        <ele>354</ele>
        <time>2015-08-02T08:42:36Z</time>
      </trkpt>
      <trkpt lat="47.42503" lon="6.69036">
        <ele>359</ele>
        <time>2015-08-02T08:42:37Z</time>
      </trkpt>
      <trkpt lat="47.42511" lon="6.69034">
        <ele>358</ele>
        <time>2015-08-02T08:42:39Z</time>
      </trkpt>
      <trkpt lat="47.42516" lon="6.69034">
        <ele>359</ele>
        <time>2015-08-02T08:42:41Z</time>
      </trkpt>
      <trkpt lat="47.4252" lon="6.69032">
        <ele>359</ele>
        <time>2015-08-02T08:42:41Z</time>
      </trkpt>
      <trkpt lat="47.42529" lon="6.6903">
        <ele>359</ele>
        <time>2015-08-02T08:42:43Z</time>
      </trkpt>
      <trkpt lat="47.4254" lon="6.69029">
        <ele>359</ele>
        <time>2015-08-02T08:42:43Z</time>
      </trkpt>
      <trkpt lat="47.42545" lon="6.69027">
        <ele>359</ele>
        <time>2015-08-02T08:42:44Z</time>
      </trkpt>
      <trkpt lat="47.42551" lon="6.69026">
        <ele>359</ele>
        <time>2015-08-02T08:42:44Z</time>
      </trkpt>
      <trkpt lat="47.42566" lon="6.69025">
        <ele>359</ele>
        <time>2015-08-02T08:42:46Z</time>
      </trkpt>
      <trkpt lat="47.42571" lon="6.69025">
        <ele>359</ele>
        <time>2015-08-02T08:42:47Z</time>
      </trkpt>
      <trkpt lat="47.42577" lon="6.69024">
        <ele>359</ele>
        <time>2015-08-02T08:42:48Z</time>
      </trkpt>
      <trkpt lat="47.42582" lon="6.69024">
        <ele>359</ele>
        <time>2015-08-02T08:42:48Z</time>
      </trkpt>
      <trkpt lat="47.42587" lon="6.69025">
        <ele>361</ele>
        <time>2015-08-02T08:42:49Z</time>
      </trkpt>
      <trkpt lat="47.42591" lon="6.69025">
        <ele>361</ele>
        <time>2015-08-02T08:42:50Z</time>
      </trkpt>
      <trkpt lat="47.42596" lon="6.69025">
        <ele>361</ele>
        <time>2015-08-02T08:42:50Z</time>
      </trkpt>
      <trkpt lat="47.42601" lon="6.69024">
        <ele>361</ele>
        <time>2015-08-02T08:42:51Z</time>
      </trkpt>
      <trkpt lat="47.42606" lon="6.69024">
        <ele>361</ele>
        <time>2015-08-02T08:42:52Z</time>
      </trkpt>
      <trkpt lat="47.42611" lon="6.69022">
        <ele>361</ele>
        <time>2015-08-02T08:42:52Z</time>
      </trkpt>
      <trkpt lat="47.42615" lon="6.69022">
        <ele>361</ele>
        <time>2015-08-02T08:42:53Z</time>
      </trkpt>
      <trkpt lat="47.4262" lon="6.69023">
        <ele>362</ele>
        <time>2015-08-02T08:42:54Z</time>
      </trkpt>
      <trkpt lat="47.42628" lon="6.69023">
        <ele>362</ele>
        <time>2015-08-02T08:42:55Z</time>
      </trkpt>
      <trkpt lat="47.42632" lon="6.69022">
        <ele>362</ele>
        <time>2015-08-02T08:42:56Z</time>
      </trkpt>
      <trkpt lat="47.4264" lon="6.69023">
        <ele>362</ele>
        <time>2015-08-02T08:42:57Z</time>
      </trkpt>
      <trkpt lat="47.42646" lon="6.69025">
        <ele>362</ele>
        <time>2015-08-02T08:42:58Z</time>
      </trkpt>
      <trkpt lat="47.4265" lon="6.69025">
        <ele>362</ele>
        <time>2015-08-02T08:42:59Z</time>
      </trkpt>
      <trkpt lat="47.42653" lon="6.69025">
        <ele>361</ele>
        <time>2015-08-02T08:43:00Z</time>
      </trkpt>
      <trkpt lat="47.4266" lon="6.69024">
        <ele>361</ele>
        <time>2015-08-02T08:43:01Z</time>
      </trkpt>
      <trkpt lat="47.42664" lon="6.69025">
        <ele>361</ele>
        <time>2015-08-02T08:43:02Z</time>
      </trkpt>
      <trkpt lat="47.42667" lon="6.69025">
        <ele>361</ele>
        <time>2015-08-02T08:43:02Z</time>
      </trkpt>
      <trkpt lat="47.4267" lon="6.69026">
        <ele>361</ele>
        <time>2015-08-02T08:43:03Z</time>
      </trkpt>
      <trkpt lat="47.42677" lon="6.6903">
        <ele>362</ele>
        <time>2015-08-02T08:43:03Z</time>
      </trkpt>
      <trkpt lat="47.42681" lon="6.69031">
        <ele>362</ele>
        <time>2015-08-02T08:43:04Z</time>
      </trkpt>
      <trkpt lat="47.42691" lon="6.69033">
        <ele>362</ele>
        <time>2015-08-02T08:43:07Z</time>
      </trkpt>
      <trkpt lat="47.42699" lon="6.69036">
        <ele>362</ele>
        <time>2015-08-02T08:43:08Z</time>
      </trkpt>
      <trkpt lat="47.42707" lon="6.6904">
        <ele>362</ele>
        <time>2015-08-02T08:43:10Z</time>
      </trkpt>
      <trkpt lat="47.42711" lon="6.69042">
        <ele>362</ele>
        <time>2015-08-02T08:43:10Z</time>
      </trkpt>
      <trkpt lat="47.42714" lon="6.69043">
        <ele>362</ele>
        <time>2015-08-02T08:43:11Z</time>
      </trkpt>
      <trkpt lat="47.42717" lon="6.69044">
        <ele>362</ele>
        <time>2015-08-02T08:43:12Z</time>
      </trkpt>
      <trkpt lat="47.42721" lon="6.69046">
        <ele>362</ele>
        <time>2015-08-02T08:43:12Z</time>
      </trkpt>
      <trkpt lat="47.42724" lon="6.69047">
        <ele>362</ele>
        <time>2015-08-02T08:43:13Z</time>
      </trkpt>
      <trkpt lat="47.42728" lon="6.6905">
        <ele>362</ele>
        <time>2015-08-02T08:43:13Z</time>
      </trkpt>
      <trkpt lat="47.42739" lon="6.69058">
        <ele>362</ele>
        <time>2015-08-02T08:43:16Z</time>
      </trkpt>
      <trkpt lat="47.4275" lon="6.69066">
        <ele>363</ele>
        <time>2015-08-02T08:43:18Z</time>
      </trkpt>
      <trkpt lat="47.42757" lon="6.69072">
        <ele>363</ele>
        <time>2015-08-02T08:43:20Z</time>
      </trkpt>
      <trkpt lat="47.42767" lon="6.69081">
        <ele>363</ele>
        <time>2015-08-02T08:43:23Z</time>
      </trkpt>
      <trkpt lat="47.42774" lon="6.69088">
        <ele>364</ele>
        <time>2015-08-02T08:43:23Z</time>
      </trkpt>
      <trkpt lat="47.42777" lon="6.69092">
        <ele>364</ele>
        <time>2015-08-02T08:43:24Z</time>
      </trkpt>
      <trkpt lat="47.42793" lon="6.69107">
        <ele>365</ele>
        <time>2015-08-02T08:43:28Z</time>
      </trkpt>
      <trkpt lat="47.42796" lon="6.6911">
        <ele>365</ele>
        <time>2015-08-02T08:43:29Z</time>
      </trkpt>
      <trkpt lat="47.42809" lon="6.69123">
        <ele>365</ele>
        <time>2015-08-02T08:43:32Z</time>
      </trkpt>
      <trkpt lat="47.42812" lon="6.69126">
        <ele>365</ele>
        <time>2015-08-02T08:43:32Z</time>
      </trkpt>
      <trkpt lat="47.4283" lon="6.69141">
        <ele>365</ele>
        <time>2015-08-02T08:43:36Z</time>
      </trkpt>
      <trkpt lat="47.42844" lon="6.69153">
        <ele>366</ele>
        <time>2015-08-02T08:43:38Z</time>
      </trkpt>
      <trkpt lat="47.42852" lon="6.69159">
        <ele>367</ele>
        <time>2015-08-02T08:43:40Z</time>
      </trkpt>
      <trkpt lat="47.42862" lon="6.69165">
        <ele>368</ele>
        <time>2015-08-02T08:43:42Z</time>
      </trkpt>
      <trkpt lat="47.42865" lon="6.69167">
        <ele>369</ele>
        <time>2015-08-02T08:43:42Z</time>
      </trkpt>
      <trkpt lat="47.42868" lon="6.69169">
        <ele>369</ele>
        <time>2015-08-02T08:43:43Z</time>
      </trkpt>
      <trkpt lat="47.42873" lon="6.69174">
        <ele>369</ele>
        <time>2015-08-02T08:43:43Z</time>
      </trkpt>
      <trkpt lat="47.42876" lon="6.69176">
        <ele>370</ele>
        <time>2015-08-02T08:43:44Z</time>
      </trkpt>
      <trkpt lat="47.42882" lon="6.69179">
        <ele>370</ele>
        <time>2015-08-02T08:43:45Z</time>
      </trkpt>
      <trkpt lat="47.42885" lon="6.69182">
        <ele>370</ele>
        <time>2015-08-02T08:43:46Z</time>
      </trkpt>
      <trkpt lat="47.42889" lon="6.69184">
        <ele>370</ele>
        <time>2015-08-02T08:43:48Z</time>
      </trkpt>
      <trkpt lat="47.42895" lon="6.6919">
        <ele>370</ele>
        <time>2015-08-02T08:43:49Z</time>
      </trkpt>
      <trkpt lat="47.42902" lon="6.69195">
        <ele>371</ele>
        <time>2015-08-02T08:43:50Z</time>
      </trkpt>
      <trkpt lat="47.42905" lon="6.69198">
        <ele>371</ele>
        <time>2015-08-02T08:43:51Z</time>
      </trkpt>
      <trkpt lat="47.42912" lon="6.69202">
        <ele>371</ele>
        <time>2015-08-02T08:43:52Z</time>
      </trkpt>
      <trkpt lat="47.42919" lon="6.69206">
        <ele>373</ele>
        <time>2015-08-02T08:43:53Z</time>
      </trkpt>
      <trkpt lat="47.42921" lon="6.69208">
        <ele>373</ele>
        <time>2015-08-02T08:43:53Z</time>
      </trkpt>
      <trkpt lat="47.42927" lon="6.69215">
        <ele>373</ele>
        <time>2015-08-02T08:43:55Z</time>
      </trkpt>
      <trkpt lat="47.4293" lon="6.69216">
        <ele>373</ele>
        <time>2015-08-02T08:43:55Z</time>
      </trkpt>
      <trkpt lat="47.42933" lon="6.69217">
        <ele>373</ele>
        <time>2015-08-02T08:43:56Z</time>
      </trkpt>
      <trkpt lat="47.42936" lon="6.69216">
        <ele>373</ele>
        <time>2015-08-02T08:43:57Z</time>
      </trkpt>
      <trkpt lat="47.42943" lon="6.69214">
        <ele>373</ele>
        <time>2015-08-02T08:43:59Z</time>
      </trkpt>
      <trkpt lat="47.42965" lon="6.69211">
        <ele>374</ele>
        <time>2015-08-02T08:44:06Z</time>
      </trkpt>
      <trkpt lat="47.4297" lon="6.69211">
        <ele>374</ele>
        <time>2015-08-02T08:44:07Z</time>
      </trkpt>
      <trkpt lat="47.42976" lon="6.6921">
        <ele>374</ele>
        <time>2015-08-02T08:44:09Z</time>
      </trkpt>
      <trkpt lat="47.42982" lon="6.69209">
        <ele>374</ele>
        <time>2015-08-02T08:44:09Z</time>
      </trkpt>
      <trkpt lat="47.42988" lon="6.69209">
        <ele>375</ele>
        <time>2015-08-02T08:44:10Z</time>
      </trkpt>
      <trkpt lat="47.42994" lon="6.69209">
        <ele>375</ele>
        <time>2015-08-02T08:44:11Z</time>
      </trkpt>
      <trkpt lat="47.42998" lon="6.69208">
        <ele>375</ele>
        <time>2015-08-02T08:44:11Z</time>
      </trkpt>
      <trkpt lat="47.43002" lon="6.69208">
        <ele>380</ele>
        <time>2015-08-02T08:44:12Z</time>
      </trkpt>
      <trkpt lat="47.43006" lon="6.69209">
        <ele>380</ele>
        <time>2015-08-02T08:44:13Z</time>
      </trkpt>
      <trkpt lat="47.43016" lon="6.69209">
        <ele>380</ele>
        <time>2015-08-02T08:44:13Z</time>
      </trkpt>
      <trkpt lat="47.4302" lon="6.6921">
        <ele>381</ele>
        <time>2015-08-02T08:44:13Z</time>
      </trkpt>
      <trkpt lat="47.43024" lon="6.69209">
        <ele>381</ele>
        <time>2015-08-02T08:44:16Z</time>
      </trkpt>
      <trkpt lat="47.43025" lon="6.69216">
        <ele>380</ele>
        <time>2015-08-02T08:44:16Z</time>
      </trkpt>
      <trkpt lat="47.43029" lon="6.69219">
        <ele>380</ele>
        <time>2015-08-02T08:44:17Z</time>
      </trkpt>
      <trkpt lat="47.43033" lon="6.69222">
        <ele>380</ele>
        <time>2015-08-02T08:44:18Z</time>
      </trkpt>
      <trkpt lat="47.43035" lon="6.69226">
        <ele>379</ele>
        <time>2015-08-02T08:44:18Z</time>
      </trkpt>
      <trkpt lat="47.43037" lon="6.6923">
        <ele>379</ele>
        <time>2015-08-02T08:44:19Z</time>
      </trkpt>
      <trkpt lat="47.4304" lon="6.69234">
        <ele>379</ele>
        <time>2015-08-02T08:44:20Z</time>
      </trkpt>
      <trkpt lat="47.43038" lon="6.69241">
        <ele>378</ele>
        <time>2015-08-02T08:44:20Z</time>
      </trkpt>
      <trkpt lat="47.43049" lon="6.69262">
        <ele>372</ele>
        <time>2015-08-02T08:44:23Z</time>
      </trkpt>
      <trkpt lat="47.43054" lon="6.69272">
        <ele>372</ele>
        <time>2015-08-02T08:44:25Z</time>
      </trkpt>
      <trkpt lat="47.43057" lon="6.69277">
        <ele>372</ele>
        <time>2015-08-02T08:44:25Z</time>
      </trkpt>
      <trkpt lat="47.43068" lon="6.69298">
        <ele>372</ele>
        <time>2015-08-02T08:44:28Z</time>
      </trkpt>
      <trkpt lat="47.43071" lon="6.69301">
        <ele>371</ele>
        <time>2015-08-02T08:44:30Z</time>
      </trkpt>
      <trkpt lat="47.43074" lon="6.69305">
        <ele>371</ele>
        <time>2015-08-02T08:44:30Z</time>
      </trkpt>
      <trkpt lat="47.4308" lon="6.69312">
        <ele>370</ele>
        <time>2015-08-02T08:44:32Z</time>
      </trkpt>
      <trkpt lat="47.43083" lon="6.69314">
        <ele>370</ele>
        <time>2015-08-02T08:44:32Z</time>
      </trkpt>
      <trkpt lat="47.43089" lon="6.69318">
        <ele>371</ele>
        <time>2015-08-02T08:44:33Z</time>
      </trkpt>
      <trkpt lat="47.43092" lon="6.6932">
        <ele>371</ele>
        <time>2015-08-02T08:44:33Z</time>
      </trkpt>
      <trkpt lat="47.43095" lon="6.69322">
        <ele>371</ele>
        <time>2015-08-02T08:44:34Z</time>
      </trkpt>
      <trkpt lat="47.431" lon="6.69327">
        <ele>371</ele>
        <time>2015-08-02T08:44:35Z</time>
      </trkpt>
      <trkpt lat="47.43104" lon="6.69332">
        <ele>372</ele>
        <time>2015-08-02T08:44:37Z</time>
      </trkpt>
      <trkpt lat="47.43111" lon="6.69339">
        <ele>372</ele>
        <time>2015-08-02T08:44:39Z</time>
      </trkpt>
      <trkpt lat="47.43119" lon="6.69347">
        <ele>373</ele>
        <time>2015-08-02T08:44:41Z</time>
      </trkpt>
      <trkpt lat="47.43121" lon="6.69349">
        <ele>373</ele>
        <time>2015-08-02T08:44:43Z</time>
      </trkpt>
      <trkpt lat="47.43126" lon="6.69352">
        <ele>374</ele>
        <time>2015-08-02T08:44:43Z</time>
      </trkpt>
      <trkpt lat="47.43135" lon="6.69357">
        <ele>374</ele>
        <time>2015-08-02T08:44:46Z</time>
      </trkpt>
      <trkpt lat="47.4315" lon="6.69362">
        <ele>375</ele>
        <time>2015-08-02T08:44:49Z</time>
      </trkpt>
      <trkpt lat="47.43156" lon="6.69365">
        <ele>375</ele>
        <time>2015-08-02T08:44:50Z</time>
      </trkpt>
      <trkpt lat="47.43168" lon="6.69371">
        <ele>381</ele>
        <time>2015-08-02T08:44:53Z</time>
      </trkpt>
      <trkpt lat="47.4317" lon="6.69372">
        <ele>381</ele>
        <time>2015-08-02T08:44:53Z</time>
      </trkpt>
      <trkpt lat="47.43173" lon="6.69372">
        <ele>381</ele>
        <time>2015-08-02T08:44:57Z</time>
      </trkpt>
      <trkpt lat="47.43175" lon="6.69372">
        <ele>381</ele>
        <time>2015-08-02T08:44:57Z</time>
      </trkpt>
      <trkpt lat="47.43178" lon="6.69373">
        <ele>381</ele>
        <time>2015-08-02T08:44:59Z</time>
      </trkpt>
      <trkpt lat="47.4318" lon="6.69373">
        <ele>381</ele>
        <time>2015-08-02T08:44:59Z</time>
      </trkpt>
      <trkpt lat="47.43184" lon="6.69373">
        <ele>382</ele>
        <time>2015-08-02T08:45:01Z</time>
      </trkpt>
      <trkpt lat="47.43191" lon="6.69371">
        <ele>382</ele>
        <time>2015-08-02T08:45:05Z</time>
      </trkpt>
      <trkpt lat="47.43196" lon="6.69372">
        <ele>383</ele>
        <time>2015-08-02T08:45:07Z</time>
      </trkpt>
      <trkpt lat="47.43199" lon="6.69372">
        <ele>383</ele>
        <time>2015-08-02T08:45:08Z</time>
      </trkpt>
      <trkpt lat="47.432" lon="6.69371">
        <ele>383</ele>
        <time>2015-08-02T08:45:09Z</time>
      </trkpt>
      <trkpt lat="47.43204" lon="6.6937">
        <ele>383</ele>
        <time>2015-08-02T08:45:12Z</time>
      </trkpt>
      <trkpt lat="47.4321" lon="6.69371">
        <ele>384</ele>
        <time>2015-08-02T08:45:13Z</time>
      </trkpt>
      <trkpt lat="47.43216" lon="6.69369">
        <ele>384</ele>
        <time>2015-08-02T08:45:16Z</time>
      </trkpt>
      <trkpt lat="47.43219" lon="6.6937">
        <ele>385</ele>
        <time>2015-08-02T08:45:18Z</time>
      </trkpt>
      <trkpt lat="47.4322" lon="6.69371">
        <ele>385</ele>
        <time>2015-08-02T08:45:19Z</time>
      </trkpt>
      <trkpt lat="47.43223" lon="6.69374">
        <ele>385</ele>
        <time>2015-08-02T08:45:20Z</time>
      </trkpt>
      <trkpt lat="47.43225" lon="6.69375">
        <ele>385</ele>
        <time>2015-08-02T08:45:21Z</time>
      </trkpt>
      <trkpt lat="47.43222" lon="6.6938">
        <ele>385</ele>
        <time>2015-08-02T08:45:26Z</time>
      </trkpt>
      <trkpt lat="47.43221" lon="6.69381">
        <ele>385</ele>
        <time>2015-08-02T08:45:27Z</time>
      </trkpt>
      <trkpt lat="47.43217" lon="6.69383">
        <ele>385</ele>
        <time>2015-08-02T08:45:29Z</time>
      </trkpt>
      <trkpt lat="47.43217" lon="6.69385">
        <ele>385</ele>
        <time>2015-08-02T08:45:29Z</time>
      </trkpt>
      <trkpt lat="47.43214" lon="6.69391">
        <ele>385</ele>
        <time>2015-08-02T08:45:33Z</time>
      </trkpt>
      <trkpt lat="47.43212" lon="6.69395">
        <ele>385</ele>
        <time>2015-08-02T08:45:33Z</time>
      </trkpt>
      <trkpt lat="47.43207" lon="6.69402">
        <ele>384</ele>
        <time>2015-08-02T08:45:36Z</time>
      </trkpt>
      <trkpt lat="47.43204" lon="6.69406">
        <ele>384</ele>
        <time>2015-08-02T08:45:39Z</time>
      </trkpt>
      <trkpt lat="47.432" lon="6.69412">
        <ele>383</ele>
        <time>2015-08-02T08:45:42Z</time>
      </trkpt>
      <trkpt lat="47.43199" lon="6.69416">
        <ele>383</ele>
        <time>2015-08-02T08:45:43Z</time>
      </trkpt>
      <trkpt lat="47.43196" lon="6.69424">
        <ele>388</ele>
        <time>2015-08-02T08:45:46Z</time>
      </trkpt>
      <trkpt lat="47.43196" lon="6.69431">
        <ele>388</ele>
        <time>2015-08-02T08:45:48Z</time>
      </trkpt>
      <trkpt lat="47.43196" lon="6.69433">
        <ele>388</ele>
        <time>2015-08-02T08:45:50Z</time>
      </trkpt>
      <trkpt lat="47.43195" lon="6.69438">
        <ele>388</ele>
        <time>2015-08-02T08:45:53Z</time>
      </trkpt>
      <trkpt lat="47.43195" lon="6.69447">
        <ele>389</ele>
        <time>2015-08-02T08:45:55Z</time>
      </trkpt>
      <trkpt lat="47.43194" lon="6.69452">
        <ele>390</ele>
        <time>2015-08-02T08:45:57Z</time>
      </trkpt>
      <trkpt lat="47.43191" lon="6.69475">
        <ele>391</ele>
        <time>2015-08-02T08:46:03Z</time>
      </trkpt>
      <trkpt lat="47.43188" lon="6.69482">
        <ele>391</ele>
        <time>2015-08-02T08:46:07Z</time>
      </trkpt>
      <trkpt lat="47.43187" lon="6.69484">
        <ele>391</ele>
        <time>2015-08-02T08:46:07Z</time>
      </trkpt>
      <trkpt lat="47.43186" lon="6.69488">
        <ele>391</ele>
        <time>2015-08-02T08:46:09Z</time>
      </trkpt>
      <trkpt lat="47.43185" lon="6.69489">
        <ele>391</ele>
        <time>2015-08-02T08:46:10Z</time>
      </trkpt>
      <trkpt lat="47.43183" lon="6.69495">
        <ele>391</ele>
        <time>2015-08-02T08:46:12Z</time>
      </trkpt>
      <trkpt lat="47.43182" lon="6.69496">
        <ele>391</ele>
        <time>2015-08-02T08:46:13Z</time>
      </trkpt>
      <trkpt lat="47.43179" lon="6.69504">
        <ele>394</ele>
        <time>2015-08-02T08:46:14Z</time>
      </trkpt>
      <trkpt lat="47.43177" lon="6.69508">
        <ele>394</ele>
        <time>2015-08-02T08:46:17Z</time>
      </trkpt>
      <trkpt lat="47.43173" lon="6.69512">
        <ele>395</ele>
        <time>2015-08-02T08:46:20Z</time>
      </trkpt>
      <trkpt lat="47.4317" lon="6.69518">
        <ele>395</ele>
        <time>2015-08-02T08:46:22Z</time>
      </trkpt>
      <trkpt lat="47.43166" lon="6.69524">
        <ele>390</ele>
        <time>2015-08-02T08:46:23Z</time>
      </trkpt>
      <trkpt lat="47.43165" lon="6.69527">
        <ele>391</ele>
        <time>2015-08-02T08:46:23Z</time>
      </trkpt>
      <trkpt lat="47.43162" lon="6.69533">
        <ele>391</ele>
        <time>2015-08-02T08:46:25Z</time>
      </trkpt>
      <trkpt lat="47.4316" lon="6.6954">
        <ele>391</ele>
        <time>2015-08-02T08:46:28Z</time>
      </trkpt>
      <trkpt lat="47.43159" lon="6.69543">
        <ele>391</ele>
        <time>2015-08-02T08:46:28Z</time>
      </trkpt>
      <trkpt lat="47.43156" lon="6.69545">
        <ele>392</ele>
        <time>2015-08-02T08:46:30Z</time>
      </trkpt>
      <trkpt lat="47.43154" lon="6.69547">
        <ele>392</ele>
        <time>2015-08-02T08:46:30Z</time>
      </trkpt>
      <trkpt lat="47.43153" lon="6.69551">
        <ele>392</ele>
        <time>2015-08-02T08:46:32Z</time>
      </trkpt>
      <trkpt lat="47.43153" lon="6.6956">
        <ele>393</ele>
        <time>2015-08-02T08:46:35Z</time>
      </trkpt>
      <trkpt lat="47.43152" lon="6.69566">
        <ele>394</ele>
        <time>2015-08-02T08:46:37Z</time>
      </trkpt>
      <trkpt lat="47.4315" lon="6.69576">
        <ele>394</ele>
        <time>2015-08-02T08:46:39Z</time>
      </trkpt>
      <trkpt lat="47.43149" lon="6.69587">
        <ele>396</ele>
        <time>2015-08-02T08:46:42Z</time>
      </trkpt>
      <trkpt lat="47.43149" lon="6.69593">
        <ele>396</ele>
        <time>2015-08-02T08:46:43Z</time>
      </trkpt>
      <trkpt lat="47.43149" lon="6.69601">
        <ele>396</ele>
        <time>2015-08-02T08:46:45Z</time>
      </trkpt>
      <trkpt lat="47.4315" lon="6.69607">
        <ele>396</ele>
        <time>2015-08-02T08:46:48Z</time>
      </trkpt>
      <trkpt lat="47.4315" lon="6.69615">
        <ele>396</ele>
        <time>2015-08-02T08:46:50Z</time>
      </trkpt>
      <trkpt lat="47.4315" lon="6.69617">
        <ele>396</ele>
        <time>2015-08-02T08:46:51Z</time>
      </trkpt>
      <trkpt lat="47.4315" lon="6.69623">
        <ele>396</ele>
        <time>2015-08-02T08:46:53Z</time>
      </trkpt>
      <trkpt lat="47.43149" lon="6.69625">
        <ele>396</ele>
        <time>2015-08-02T08:46:53Z</time>
      </trkpt>
      <trkpt lat="47.43149" lon="6.6963">
        <ele>396</ele>
        <time>2015-08-02T08:46:54Z</time>
      </trkpt>
      <trkpt lat="47.43149" lon="6.69632">
        <ele>396</ele>
        <time>2015-08-02T08:46:54Z</time>
      </trkpt>
      <trkpt lat="47.43152" lon="6.69645">
        <ele>397</ele>
        <time>2015-08-02T08:46:58Z</time>
      </trkpt>
      <trkpt lat="47.43154" lon="6.69654">
        <ele>398</ele>
        <time>2015-08-02T08:47:01Z</time>
      </trkpt>
      <trkpt lat="47.43156" lon="6.69671">
        <ele>401</ele>
        <time>2015-08-02T08:47:05Z</time>
      </trkpt>
      <trkpt lat="47.43157" lon="6.69678">
        <ele>400</ele>
        <time>2015-08-02T08:47:07Z</time>
      </trkpt>
      <trkpt lat="47.43159" lon="6.69688">
        <ele>399</ele>
        <time>2015-08-02T08:47:09Z</time>
      </trkpt>
      <trkpt lat="47.43159" lon="6.69694">
        <ele>399</ele>
        <time>2015-08-02T08:47:10Z</time>
      </trkpt>
      <trkpt lat="47.43159" lon="6.69706">
        <ele>398</ele>
        <time>2015-08-02T08:47:13Z</time>
      </trkpt>
      <trkpt lat="47.4316" lon="6.69714">
        <ele>398</ele>
        <time>2015-08-02T08:47:15Z</time>
      </trkpt>
      <trkpt lat="47.4316" lon="6.69718">
        <ele>398</ele>
        <time>2015-08-02T08:47:16Z</time>
      </trkpt>
      <trkpt lat="47.43162" lon="6.69732">
        <ele>400</ele>
        <time>2015-08-02T08:47:18Z</time>
      </trkpt>
      <trkpt lat="47.43163" lon="6.69742">
        <ele>401</ele>
        <time>2015-08-02T08:47:20Z</time>
      </trkpt>
      <trkpt lat="47.43163" lon="6.69745">
        <ele>401</ele>
        <time>2015-08-02T08:47:21Z</time>
      </trkpt>
      <trkpt lat="47.43167" lon="6.69756">
        <ele>405</ele>
        <time>2015-08-02T08:47:24Z</time>
      </trkpt>
      <trkpt lat="47.43169" lon="6.69767">
        <ele>406</ele>
        <time>2015-08-02T08:47:26Z</time>
      </trkpt>
      <trkpt lat="47.43171" lon="6.69776">
        <ele>407</ele>
        <time>2015-08-02T08:47:29Z</time>
      </trkpt>
      <trkpt lat="47.43172" lon="6.69785">
        <ele>408</ele>
        <time>2015-08-02T08:47:31Z</time>
      </trkpt>
      <trkpt lat="47.43173" lon="6.69794">
        <ele>408</ele>
        <time>2015-08-02T08:47:33Z</time>
      </trkpt>
      <trkpt lat="47.43173" lon="6.69796">
        <ele>408</ele>
        <time>2015-08-02T08:47:33Z</time>
      </trkpt>
      <trkpt lat="47.43174" lon="6.69804">
        <ele>407</ele>
        <time>2015-08-02T08:47:35Z</time>
      </trkpt>
      <trkpt lat="47.43174" lon="6.69809">
        <ele>407</ele>
        <time>2015-08-02T08:47:36Z</time>
      </trkpt>
      <trkpt lat="47.43174" lon="6.69812">
        <ele>407</ele>
        <time>2015-08-02T08:47:37Z</time>
      </trkpt>
      <trkpt lat="47.43176" lon="6.69818">
        <ele>406</ele>
        <time>2015-08-02T08:47:38Z</time>
      </trkpt>
      <trkpt lat="47.43182" lon="6.69832">
        <ele>406</ele>
        <time>2015-08-02T08:47:43Z</time>
      </trkpt>
      <trkpt lat="47.43185" lon="6.69838">
        <ele>406</ele>
        <time>2015-08-02T08:47:43Z</time>
      </trkpt>
      <trkpt lat="47.43187" lon="6.6984">
        <ele>406</ele>
        <time>2015-08-02T08:47:44Z</time>
      </trkpt>
      <trkpt lat="47.43192" lon="6.69847">
        <ele>407</ele>
        <time>2015-08-02T08:47:46Z</time>
      </trkpt>
      <trkpt lat="47.43198" lon="6.69855">
        <ele>408</ele>
        <time>2015-08-02T08:47:49Z</time>
      </trkpt>
      <trkpt lat="47.43201" lon="6.6986">
        <ele>408</ele>
        <time>2015-08-02T08:47:51Z</time>
      </trkpt>
      <trkpt lat="47.43204" lon="6.69868">
        <ele>408</ele>
        <time>2015-08-02T08:47:53Z</time>
      </trkpt>
      <trkpt lat="47.43206" lon="6.69874">
        <ele>408</ele>
        <time>2015-08-02T08:47:53Z</time>
      </trkpt>
      <trkpt lat="47.43209" lon="6.69879">
        <ele>408</ele>
        <time>2015-08-02T08:47:54Z</time>
      </trkpt>
      <trkpt lat="47.43212" lon="6.69884">
        <ele>408</ele>
        <time>2015-08-02T08:47:57Z</time>
      </trkpt>
      <trkpt lat="47.43215" lon="6.69892">
        <ele>408</ele>
        <time>2015-08-02T08:48:01Z</time>
      </trkpt>
      <trkpt lat="47.43216" lon="6.69894">
        <ele>408</ele>
        <time>2015-08-02T08:48:02Z</time>
      </trkpt>
      <trkpt lat="47.43218" lon="6.69901">
        <ele>409</ele>
        <time>2015-08-02T08:48:03Z</time>
      </trkpt>
      <trkpt lat="47.43224" lon="6.69911">
        <ele>409</ele>
        <time>2015-08-02T08:48:05Z</time>
      </trkpt>
      <trkpt lat="47.43227" lon="6.69917">
        <ele>406</ele>
        <time>2015-08-02T08:48:07Z</time>
      </trkpt>
      <trkpt lat="47.43229" lon="6.69921">
        <ele>406</ele>
        <time>2015-08-02T08:48:07Z</time>
      </trkpt>
      <trkpt lat="47.43234" lon="6.6993">
        <ele>407</ele>
        <time>2015-08-02T08:48:10Z</time>
      </trkpt>
      <trkpt lat="47.43242" lon="6.69942">
        <ele>406</ele>
        <time>2015-08-02T08:48:13Z</time>
      </trkpt>
      <trkpt lat="47.43249" lon="6.69953">
        <ele>405</ele>
        <time>2015-08-02T08:48:15Z</time>
      </trkpt>
      <trkpt lat="47.43251" lon="6.69956">
        <ele>414</ele>
        <time>2015-08-02T08:48:16Z</time>
      </trkpt>
      <trkpt lat="47.43256" lon="6.69961">
        <ele>414</ele>
        <time>2015-08-02T08:48:17Z</time>
      </trkpt>
      <trkpt lat="47.43265" lon="6.69964">
        <ele>415</ele>
        <time>2015-08-02T08:48:20Z</time>
      </trkpt>
      <trkpt lat="47.43268" lon="6.69961">
        <ele>415</ele>
        <time>2015-08-02T08:48:21Z</time>
      </trkpt>
      <trkpt lat="47.4327" lon="6.6996">
        <ele>415</ele>
        <time>2015-08-02T08:48:22Z</time>
      </trkpt>
      <trkpt lat="47.43273" lon="6.6996">
        <ele>416</ele>
        <time>2015-08-02T08:48:23Z</time>
      </trkpt>
      <trkpt lat="47.4328" lon="6.69959">
        <ele>416</ele>
        <time>2015-08-02T08:48:25Z</time>
      </trkpt>
      <trkpt lat="47.43284" lon="6.69959">
        <ele>417</ele>
        <time>2015-08-02T08:48:26Z</time>
      </trkpt>
      <trkpt lat="47.43286" lon="6.6996">
        <ele>417</ele>
        <time>2015-08-02T08:48:27Z</time>
      </trkpt>
      <trkpt lat="47.43291" lon="6.69965">
        <ele>417</ele>
        <time>2015-08-02T08:48:29Z</time>
      </trkpt>
      <trkpt lat="47.43295" lon="6.69971">
        <ele>417</ele>
        <time>2015-08-02T08:48:31Z</time>
      </trkpt>
      <trkpt lat="47.43298" lon="6.69974">
        <ele>418</ele>
        <time>2015-08-02T08:48:32Z</time>
      </trkpt>
      <trkpt lat="47.43305" lon="6.69978">
        <ele>418</ele>
        <time>2015-08-02T08:48:35Z</time>
      </trkpt>
      <trkpt lat="47.43308" lon="6.6998">
        <ele>419</ele>
        <time>2015-08-02T08:48:36Z</time>
      </trkpt>
      <trkpt lat="47.43312" lon="6.69984">
        <ele>419</ele>
        <time>2015-08-02T08:48:39Z</time>
      </trkpt>
      <trkpt lat="47.43313" lon="6.69985">
        <ele>419</ele>
        <time>2015-08-02T08:48:40Z</time>
      </trkpt>
      <trkpt lat="47.43316" lon="6.69986">
        <ele>420</ele>
        <time>2015-08-02T08:48:41Z</time>
      </trkpt>
      <trkpt lat="47.43322" lon="6.69988">
        <ele>421</ele>
        <time>2015-08-02T08:48:43Z</time>
      </trkpt>
      <trkpt lat="47.43323" lon="6.69989">
        <ele>421</ele>
        <time>2015-08-02T08:48:44Z</time>
      </trkpt>
      <trkpt lat="47.43327" lon="6.69992">
        <ele>422</ele>
        <time>2015-08-02T08:48:47Z</time>
      </trkpt>
      <trkpt lat="47.43328" lon="6.69993">
        <ele>422</ele>
        <time>2015-08-02T08:48:47Z</time>
      </trkpt>
      <trkpt lat="47.43332" lon="6.69994">
        <ele>423</ele>
        <time>2015-08-02T08:48:49Z</time>
      </trkpt>
      <trkpt lat="47.43333" lon="6.69995">
        <ele>425</ele>
        <time>2015-08-02T08:48:50Z</time>
      </trkpt>
      <trkpt lat="47.43341" lon="6.70001">
        <ele>425</ele>
        <time>2015-08-02T08:48:55Z</time>
      </trkpt>
      <trkpt lat="47.43347" lon="6.70003">
        <ele>426</ele>
        <time>2015-08-02T08:48:57Z</time>
      </trkpt>
      <trkpt lat="47.43348" lon="6.70004">
        <ele>426</ele>
        <time>2015-08-02T08:48:59Z</time>
      </trkpt>
      <trkpt lat="47.43352" lon="6.70007">
        <ele>427</ele>
        <time>2015-08-02T08:49:01Z</time>
      </trkpt>
      <trkpt lat="47.43356" lon="6.70011">
        <ele>427</ele>
        <time>2015-08-02T08:49:03Z</time>
      </trkpt>
      <trkpt lat="47.43361" lon="6.70015">
        <ele>428</ele>
        <time>2015-08-02T08:49:07Z</time>
      </trkpt>
      <trkpt lat="47.43366" lon="6.70018">
        <ele>428</ele>
        <time>2015-08-02T08:49:10Z</time>
      </trkpt>
      <trkpt lat="47.43371" lon="6.70023">
        <ele>428</ele>
        <time>2015-08-02T08:49:13Z</time>
      </trkpt>
      <trkpt lat="47.43375" lon="6.70025">
        <ele>429</ele>
        <time>2015-08-02T08:49:15Z</time>
      </trkpt>
      <trkpt lat="47.43379" lon="6.70029">
        <ele>429</ele>
        <time>2015-08-02T08:49:20Z</time>
      </trkpt>
      <trkpt lat="47.43381" lon="6.7003">
        <ele>429</ele>
        <time>2015-08-02T08:49:21Z</time>
      </trkpt>
      <trkpt lat="47.43383" lon="6.70035">
        <ele>429</ele>
        <time>2015-08-02T08:49:30Z</time>
      </trkpt>
      <trkpt lat="47.43383" lon="6.70035">
        <ele>429</ele>
        <time>2015-08-02T08:49:31Z</time>
      </trkpt>
      <trkpt lat="47.43386" lon="6.70038">
        <ele>430</ele>
        <time>2015-08-02T08:49:35Z</time>
      </trkpt>
      <trkpt lat="47.43387" lon="6.70039">
        <ele>430</ele>
        <time>2015-08-02T08:49:36Z</time>
      </trkpt>
      <trkpt lat="47.43392" lon="6.70038">
        <ele>430</ele>
        <time>2015-08-02T08:49:50Z</time>
      </trkpt>
      <trkpt lat="47.43396" lon="6.70042">
        <ele>430</ele>
        <time>2015-08-02T08:49:56Z</time>
      </trkpt>
      <trkpt lat="47.43399" lon="6.70044">
        <ele>430</ele>
        <time>2015-08-02T08:49:57Z</time>
      </trkpt>
      <trkpt lat="47.43404" lon="6.70048">
        <ele>431</ele>
        <time>2015-08-02T08:49:59Z</time>
      </trkpt>
      <trkpt lat="47.4341" lon="6.70054">
        <ele>431</ele>
        <time>2015-08-02T08:50:03Z</time>
      </trkpt>
      <trkpt lat="47.43413" lon="6.70058">
        <ele>432</ele>
        <time>2015-08-02T08:50:04Z</time>
      </trkpt>
      <trkpt lat="47.43414" lon="6.70059">
        <ele>432</ele>
        <time>2015-08-02T08:50:05Z</time>
      </trkpt>
      <trkpt lat="47.43421" lon="6.70067">
        <ele>438</ele>
        <time>2015-08-02T08:50:08Z</time>
      </trkpt>
      <trkpt lat="47.43422" lon="6.70069">
        <ele>438</ele>
        <time>2015-08-02T08:50:09Z</time>
      </trkpt>
      <trkpt lat="47.43424" lon="6.70072">
        <ele>438</ele>
        <time>2015-08-02T08:50:10Z</time>
      </trkpt>
      <trkpt lat="47.43427" lon="6.70078">
        <ele>438</ele>
        <time>2015-08-02T08:50:12Z</time>
      </trkpt>
      <trkpt lat="47.43429" lon="6.70079">
        <ele>438</ele>
        <time>2015-08-02T08:50:13Z</time>
      </trkpt>
      <trkpt lat="47.43432" lon="6.70082">
        <ele>438</ele>
        <time>2015-08-02T08:50:14Z</time>
      </trkpt>
      <trkpt lat="47.43437" lon="6.7009">
        <ele>438</ele>
        <time>2015-08-02T08:50:16Z</time>
      </trkpt>
      <trkpt lat="47.43439" lon="6.70092">
        <ele>438</ele>
        <time>2015-08-02T08:50:17Z</time>
      </trkpt>
      <trkpt lat="47.43443" lon="6.70098">
        <ele>438</ele>
        <time>2015-08-02T08:50:20Z</time>
      </trkpt>
      <trkpt lat="47.43444" lon="6.701">
        <ele>438</ele>
        <time>2015-08-02T08:50:21Z</time>
      </trkpt>
      <trkpt lat="47.43447" lon="6.70105">
        <ele>438</ele>
        <time>2015-08-02T08:50:22Z</time>
      </trkpt>
      <trkpt lat="47.43452" lon="6.70112">
        <ele>439</ele>
        <time>2015-08-02T08:50:24Z</time>
      </trkpt>
      <trkpt lat="47.43456" lon="6.70118">
        <ele>439</ele>
        <time>2015-08-02T08:50:26Z</time>
      </trkpt>
      <trkpt lat="47.43459" lon="6.70124">
        <ele>439</ele>
        <time>2015-08-02T08:50:29Z</time>
      </trkpt>
      <trkpt lat="47.43462" lon="6.70128">
        <ele>439</ele>
        <time>2015-08-02T08:50:30Z</time>
      </trkpt>
      <trkpt lat="47.43464" lon="6.7013">
        <ele>439</ele>
        <time>2015-08-02T08:50:31Z</time>
      </trkpt>
      <trkpt lat="47.43466" lon="6.70135">
        <ele>439</ele>
        <time>2015-08-02T08:50:32Z</time>
      </trkpt>
      <trkpt lat="47.43466" lon="6.70138">
        <ele>439</ele>
        <time>2015-08-02T08:50:33Z</time>
      </trkpt>
      <trkpt lat="47.43468" lon="6.70142">
        <ele>439</ele>
        <time>2015-08-02T08:50:34Z</time>
      </trkpt>
      <trkpt lat="47.4347" lon="6.70144">
        <ele>440</ele>
        <time>2015-08-02T08:50:35Z</time>
      </trkpt>
      <trkpt lat="47.43471" lon="6.70146">
        <ele>440</ele>
        <time>2015-08-02T08:50:35Z</time>
      </trkpt>
      <trkpt lat="47.43473" lon="6.70149">
        <ele>440</ele>
        <time>2015-08-02T08:50:36Z</time>
      </trkpt>
      <trkpt lat="47.43477" lon="6.70153">
        <ele>441</ele>
        <time>2015-08-02T08:50:37Z</time>
      </trkpt>
      <trkpt lat="47.43481" lon="6.70159">
        <ele>442</ele>
        <time>2015-08-02T08:50:39Z</time>
      </trkpt>
      <trkpt lat="47.43485" lon="6.70163">
        <ele>442</ele>
        <time>2015-08-02T08:50:42Z</time>
      </trkpt>
      <trkpt lat="47.43486" lon="6.70164">
        <ele>443</ele>
        <time>2015-08-02T08:50:42Z</time>
      </trkpt>
      <trkpt lat="47.43489" lon="6.70168">
        <ele>442</ele>
        <time>2015-08-02T08:50:43Z</time>
      </trkpt>
      <trkpt lat="47.43491" lon="6.7017">
        <ele>442</ele>
        <time>2015-08-02T08:50:43Z</time>
      </trkpt>
      <trkpt lat="47.43495" lon="6.70171">
        <ele>443</ele>
        <time>2015-08-02T08:51:40Z</time>
      </trkpt>
      <trkpt lat="47.43498" lon="6.70177">
        <ele>442</ele>
        <time>2015-08-02T08:51:42Z</time>
      </trkpt>
      <trkpt lat="47.435" lon="6.7018">
        <ele>446</ele>
        <time>2015-08-02T08:51:43Z</time>
      </trkpt>
      <trkpt lat="47.43503" lon="6.70185">
        <ele>446</ele>
        <time>2015-08-02T08:51:43Z</time>
      </trkpt>
      <trkpt lat="47.43508" lon="6.70191">
        <ele>447</ele>
        <time>2015-08-02T08:51:45Z</time>
      </trkpt>
      <trkpt lat="47.43511" lon="6.70196">
        <ele>447</ele>
        <time>2015-08-02T08:51:47Z</time>
      </trkpt>
      <trkpt lat="47.43521" lon="6.70217">
        <ele>446</ele>
        <time>2015-08-02T08:51:53Z</time>
      </trkpt>
      <trkpt lat="47.43524" lon="6.70221">
        <ele>446</ele>
        <time>2015-08-02T08:51:54Z</time>
      </trkpt>
      <trkpt lat="47.43529" lon="6.70224">
        <ele>447</ele>
        <time>2015-08-02T08:51:56Z</time>
      </trkpt>
      <trkpt lat="47.43531" lon="6.70226">
        <ele>447</ele>
        <time>2015-08-02T08:51:56Z</time>
      </trkpt>
      <trkpt lat="47.43537" lon="6.70231">
        <ele>447</ele>
        <time>2015-08-02T08:51:58Z</time>
      </trkpt>
      <trkpt lat="47.4354" lon="6.70234">
        <ele>447</ele>
        <time>2015-08-02T08:52:00Z</time>
      </trkpt>
      <trkpt lat="47.43542" lon="6.70234">
        <ele>447</ele>
        <time>2015-08-02T08:52:00Z</time>
      </trkpt>
      <trkpt lat="47.43546" lon="6.70236">
        <ele>447</ele>
        <time>2015-08-02T08:52:02Z</time>
      </trkpt>
      <trkpt lat="47.4355" lon="6.7024">
        <ele>448</ele>
        <time>2015-08-02T08:52:03Z</time>
      </trkpt>
      <trkpt lat="47.43555" lon="6.70247">
        <ele>448</ele>
        <time>2015-08-02T08:52:04Z</time>
      </trkpt>
      <trkpt lat="47.4356" lon="6.70254">
        <ele>447</ele>
        <time>2015-08-02T08:52:06Z</time>
      </trkpt>
      <trkpt lat="47.43563" lon="6.70259">
        <ele>447</ele>
        <time>2015-08-02T08:52:06Z</time>
      </trkpt>
      <trkpt lat="47.43572" lon="6.70273">
        <ele>447</ele>
        <time>2015-08-02T08:52:10Z</time>
      </trkpt>
      <trkpt lat="47.43572" lon="6.70279">
        <ele>447</ele>
        <time>2015-08-02T08:52:13Z</time>
      </trkpt>
      <trkpt lat="47.43573" lon="6.70281">
        <ele>447</ele>
        <time>2015-08-02T08:52:13Z</time>
      </trkpt>
      <trkpt lat="47.43578" lon="6.70286">
        <ele>447</ele>
        <time>2015-08-02T08:52:14Z</time>
      </trkpt>
      <trkpt lat="47.43586" lon="6.70293">
        <ele>451</ele>
        <time>2015-08-02T08:52:15Z</time>
      </trkpt>
      <trkpt lat="47.43597" lon="6.70315">
        <ele>450</ele>
        <time>2015-08-02T08:52:16Z</time>
      </trkpt>
      <trkpt lat="47.43601" lon="6.70322">
        <ele>450</ele>
        <time>2015-08-02T08:52:16Z</time>
      </trkpt>
      <trkpt lat="47.43603" lon="6.70333">
        <ele>450</ele>
        <time>2015-08-02T08:52:18Z</time>
      </trkpt>
      <trkpt lat="47.43605" lon="6.70341">
        <ele>450</ele>
        <time>2015-08-02T08:52:19Z</time>
      </trkpt>
      <trkpt lat="47.43608" lon="6.70349">
        <ele>450</ele>
        <time>2015-08-02T08:52:19Z</time>
      </trkpt>
      <trkpt lat="47.4361" lon="6.70361">
        <ele>451</ele>
        <time>2015-08-02T08:52:21Z</time>
      </trkpt>
      <trkpt lat="47.43612" lon="6.7037">
        <ele>451</ele>
        <time>2015-08-02T08:52:22Z</time>
      </trkpt>
      <trkpt lat="47.43614" lon="6.70378">
        <ele>451</ele>
        <time>2015-08-02T08:52:22Z</time>
      </trkpt>
      <trkpt lat="47.43617" lon="6.70386">
        <ele>451</ele>
        <time>2015-08-02T08:52:23Z</time>
      </trkpt>
      <trkpt lat="47.43619" lon="6.70392">
        <ele>451</ele>
        <time>2015-08-02T08:52:23Z</time>
      </trkpt>
      <trkpt lat="47.43621" lon="6.70396">
        <ele>451</ele>
        <time>2015-08-02T08:52:23Z</time>
      </trkpt>
      <trkpt lat="47.43626" lon="6.70409">
        <ele>452</ele>
        <time>2015-08-02T08:52:25Z</time>
      </trkpt>
      <trkpt lat="47.43627" lon="6.70414">
        <ele>452</ele>
        <time>2015-08-02T08:52:26Z</time>
      </trkpt>
      <trkpt lat="47.43629" lon="6.70418">
        <ele>452</ele>
        <time>2015-08-02T08:52:27Z</time>
      </trkpt>
      <trkpt lat="47.4363" lon="6.70423">
        <ele>452</ele>
        <time>2015-08-02T08:52:27Z</time>
      </trkpt>
      <trkpt lat="47.43637" lon="6.70431">
        <ele>452</ele>
        <time>2015-08-02T08:52:28Z</time>
      </trkpt>
      <trkpt lat="47.43639" lon="6.70438">
        <ele>452</ele>
        <time>2015-08-02T08:52:29Z</time>
      </trkpt>
      <trkpt lat="47.43637" lon="6.70442">
        <ele>452</ele>
        <time>2015-08-02T08:52:29Z</time>
      </trkpt>
      <trkpt lat="47.43636" lon="6.70448">
        <ele>452</ele>
        <time>2015-08-02T08:52:30Z</time>
      </trkpt>
      <trkpt lat="47.43638" lon="6.70454">
        <ele>452</ele>
        <time>2015-08-02T08:52:31Z</time>
      </trkpt>
      <trkpt lat="47.4364" lon="6.70454">
        <ele>452</ele>
        <time>2015-08-02T08:52:33Z</time>
      </trkpt>
      <trkpt lat="47.43641" lon="6.70457">
        <ele>452</ele>
        <time>2015-08-02T08:52:33Z</time>
      </trkpt>
      <trkpt lat="47.43642" lon="6.7046">
        <ele>452</ele>
        <time>2015-08-02T08:52:33Z</time>
      </trkpt>
      <trkpt lat="47.43644" lon="6.70462">
        <ele>452</ele>
        <time>2015-08-02T08:52:34Z</time>
      </trkpt>
      <trkpt lat="47.43645" lon="6.70465">
        <ele>452</ele>
        <time>2015-08-02T08:52:35Z</time>
      </trkpt>
      <trkpt lat="47.43647" lon="6.70474">
        <ele>453</ele>
        <time>2015-08-02T08:52:36Z</time>
      </trkpt>
      <trkpt lat="47.43649" lon="6.70485">
        <ele>453</ele>
        <time>2015-08-02T08:52:37Z</time>
      </trkpt>
      <trkpt lat="47.4365" lon="6.70504">
        <ele>453</ele>
        <time>2015-08-02T08:52:40Z</time>
      </trkpt>
      <trkpt lat="47.43651" lon="6.70517">
        <ele>453</ele>
        <time>2015-08-02T08:52:42Z</time>
      </trkpt>
      <trkpt lat="47.43652" lon="6.70525">
        <ele>452</ele>
        <time>2015-08-02T08:52:42Z</time>
      </trkpt>
      <trkpt lat="47.43651" lon="6.70534">
        <ele>452</ele>
        <time>2015-08-02T08:52:43Z</time>
      </trkpt>
      <trkpt lat="47.4365" lon="6.70543">
        <ele>452</ele>
        <time>2015-08-02T08:52:43Z</time>
      </trkpt>
      <trkpt lat="47.43649" lon="6.70552">
        <ele>452</ele>
        <time>2015-08-02T08:52:43Z</time>
      </trkpt>
      <trkpt lat="47.43645" lon="6.70579">
        <ele>453</ele>
        <time>2015-08-02T08:52:44Z</time>
      </trkpt>
      <trkpt lat="47.43644" lon="6.70589">
        <ele>452</ele>
        <time>2015-08-02T08:52:46Z</time>
      </trkpt>
      <trkpt lat="47.43643" lon="6.70596">
        <ele>451</ele>
        <time>2015-08-02T08:52:46Z</time>
      </trkpt>
      <trkpt lat="47.43642" lon="6.70603">
        <ele>451</ele>
        <time>2015-08-02T08:52:47Z</time>
      </trkpt>
      <trkpt lat="47.43641" lon="6.70611">
        <ele>450</ele>
        <time>2015-08-02T08:52:48Z</time>
      </trkpt>
      <trkpt lat="47.4364" lon="6.70619">
        <ele>450</ele>
        <time>2015-08-02T08:52:48Z</time>
      </trkpt>
      <trkpt lat="47.43639" lon="6.70627">
        <ele>449</ele>
        <time>2015-08-02T08:52:49Z</time>
      </trkpt>
      <trkpt lat="47.43635" lon="6.70645">
        <ele>449</ele>
        <time>2015-08-02T08:52:50Z</time>
      </trkpt>
      <trkpt lat="47.43632" lon="6.70653">
        <ele>449</ele>
        <time>2015-08-02T08:52:51Z</time>
      </trkpt>
      <trkpt lat="47.43631" lon="6.7066">
        <ele>448</ele>
        <time>2015-08-02T08:52:52Z</time>
      </trkpt>
      <trkpt lat="47.43628" lon="6.70667">
        <ele>447</ele>
        <time>2015-08-02T08:52:52Z</time>
      </trkpt>
      <trkpt lat="47.43626" lon="6.70673">
        <ele>447</ele>
        <time>2015-08-02T08:52:53Z</time>
      </trkpt>
      <trkpt lat="47.43625" lon="6.70681">
        <ele>447</ele>
        <time>2015-08-02T08:52:53Z</time>
      </trkpt>
      <trkpt lat="47.43623" lon="6.70689">
        <ele>446</ele>
        <time>2015-08-02T08:52:53Z</time>
      </trkpt>
      <trkpt lat="47.43622" lon="6.70696">
        <ele>446</ele>
        <time>2015-08-02T08:52:55Z</time>
      </trkpt>
      <trkpt lat="47.4362" lon="6.70701">
        <ele>446</ele>
        <time>2015-08-02T08:52:56Z</time>
      </trkpt>
      <trkpt lat="47.43619" lon="6.70708">
        <ele>446</ele>
        <time>2015-08-02T08:52:56Z</time>
      </trkpt>
      <trkpt lat="47.43617" lon="6.70713">
        <ele>446</ele>
        <time>2015-08-02T08:52:57Z</time>
      </trkpt>
      <trkpt lat="47.43615" lon="6.70723">
        <ele>446</ele>
        <time>2015-08-02T08:52:58Z</time>
      </trkpt>
      <trkpt lat="47.43612" lon="6.70731">
        <ele>446</ele>
        <time>2015-08-02T08:52:58Z</time>
      </trkpt>
      <trkpt lat="47.43609" lon="6.7074">
        <ele>445</ele>
        <time>2015-08-02T08:53:00Z</time>
      </trkpt>
      <trkpt lat="47.43605" lon="6.70746">
        <ele>445</ele>
        <time>2015-08-02T08:53:01Z</time>
      </trkpt>
      <trkpt lat="47.43602" lon="6.70757">
        <ele>445</ele>
        <time>2015-08-02T08:53:01Z</time>
      </trkpt>
      <trkpt lat="47.436" lon="6.70767">
        <ele>445</ele>
        <time>2015-08-02T08:53:02Z</time>
      </trkpt>
      <trkpt lat="47.43597" lon="6.70775">
        <ele>446</ele>
        <time>2015-08-02T08:53:03Z</time>
      </trkpt>
      <trkpt lat="47.43593" lon="6.70783">
        <ele>446</ele>
        <time>2015-08-02T08:53:03Z</time>
      </trkpt>
      <trkpt lat="47.43589" lon="6.7079">
        <ele>446</ele>
        <time>2015-08-02T08:53:03Z</time>
      </trkpt>
      <trkpt lat="47.43583" lon="6.70805">
        <ele>439</ele>
        <time>2015-08-02T08:53:04Z</time>
      </trkpt>
      <trkpt lat="47.4358" lon="6.70812">
        <ele>439</ele>
        <time>2015-08-02T08:53:06Z</time>
      </trkpt>
      <trkpt lat="47.43578" lon="6.70819">
        <ele>440</ele>
        <time>2015-08-02T08:53:07Z</time>
      </trkpt>
      <trkpt lat="47.43576" lon="6.70826">
        <ele>441</ele>
        <time>2015-08-02T08:53:07Z</time>
      </trkpt>
      <trkpt lat="47.43575" lon="6.70834">
        <ele>443</ele>
        <time>2015-08-02T08:53:08Z</time>
      </trkpt>
      <trkpt lat="47.43573" lon="6.70841">
        <ele>442</ele>
        <time>2015-08-02T08:53:09Z</time>
      </trkpt>
      <trkpt lat="47.43571" lon="6.70848">
        <ele>441</ele>
        <time>2015-08-02T08:53:09Z</time>
      </trkpt>
      <trkpt lat="47.4357" lon="6.70855">
        <ele>440</ele>
        <time>2015-08-02T08:53:10Z</time>
      </trkpt>
      <trkpt lat="47.4357" lon="6.70862">
        <ele>440</ele>
        <time>2015-08-02T08:53:11Z</time>
      </trkpt>
      <trkpt lat="47.43568" lon="6.70878">
        <ele>440</ele>
        <time>2015-08-02T08:53:12Z</time>
      </trkpt>
      <trkpt lat="47.43567" lon="6.70884">
        <ele>440</ele>
        <time>2015-08-02T08:53:13Z</time>
      </trkpt>
      <trkpt lat="47.43564" lon="6.70897">
        <ele>440</ele>
        <time>2015-08-02T08:53:14Z</time>
      </trkpt>
      <trkpt lat="47.43561" lon="6.70904">
        <ele>441</ele>
        <time>2015-08-02T08:53:15Z</time>
      </trkpt>
      <trkpt lat="47.43559" lon="6.70912">
        <ele>441</ele>
        <time>2015-08-02T08:53:15Z</time>
      </trkpt>
      <trkpt lat="47.43557" lon="6.70919">
        <ele>442</ele>
        <time>2015-08-02T08:53:16Z</time>
      </trkpt>
      <trkpt lat="47.43555" lon="6.70925">
        <ele>442</ele>
        <time>2015-08-02T08:53:17Z</time>
      </trkpt>
      <trkpt lat="47.43553" lon="6.70931">
        <ele>442</ele>
        <time>2015-08-02T08:53:17Z</time>
      </trkpt>
      <trkpt lat="47.43551" lon="6.70937">
        <ele>441</ele>
        <time>2015-08-02T08:53:18Z</time>
      </trkpt>
      <trkpt lat="47.43549" lon="6.70941">
        <ele>441</ele>
        <time>2015-08-02T08:53:19Z</time>
      </trkpt>
      <trkpt lat="47.43545" lon="6.70947">
        <ele>441</ele>
        <time>2015-08-02T08:53:19Z</time>
      </trkpt>
      <trkpt lat="47.43543" lon="6.70953">
        <ele>440</ele>
        <time>2015-08-02T08:53:20Z</time>
      </trkpt>
      <trkpt lat="47.4354" lon="6.70965">
        <ele>440</ele>
        <time>2015-08-02T08:53:21Z</time>
      </trkpt>
      <trkpt lat="47.43536" lon="6.70977">
        <ele>440</ele>
        <time>2015-08-02T08:53:23Z</time>
      </trkpt>
      <trkpt lat="47.43534" lon="6.70984">
        <ele>440</ele>
        <time>2015-08-02T08:53:23Z</time>
      </trkpt>
      <trkpt lat="47.43531" lon="6.70987">
        <ele>440</ele>
        <time>2015-08-02T08:53:23Z</time>
      </trkpt>
      <trkpt lat="47.43529" lon="6.71">
        <ele>439</ele>
        <time>2015-08-02T08:53:25Z</time>
      </trkpt>
      <trkpt lat="47.43528" lon="6.71006">
        <ele>441</ele>
        <time>2015-08-02T08:53:26Z</time>
      </trkpt>
      <trkpt lat="47.43527" lon="6.71016">
        <ele>442</ele>
        <time>2015-08-02T08:53:28Z</time>
      </trkpt>
      <trkpt lat="47.43525" lon="6.71029">
        <ele>442</ele>
        <time>2015-08-02T08:53:29Z</time>
      </trkpt>
      <trkpt lat="47.43522" lon="6.71037">
        <ele>442</ele>
        <time>2015-08-02T08:53:30Z</time>
      </trkpt>
      <trkpt lat="47.4352" lon="6.71041">
        <ele>442</ele>
        <time>2015-08-02T08:53:30Z</time>
      </trkpt>
      <trkpt lat="47.43519" lon="6.71049">
        <ele>442</ele>
        <time>2015-08-02T08:53:31Z</time>
      </trkpt>
      <trkpt lat="47.43514" lon="6.71068">
        <ele>441</ele>
        <time>2015-08-02T08:53:33Z</time>
      </trkpt>
      <trkpt lat="47.43513" lon="6.71076">
        <ele>440</ele>
        <time>2015-08-02T08:53:33Z</time>
      </trkpt>
      <trkpt lat="47.43513" lon="6.71083">
        <ele>440</ele>
        <time>2015-08-02T08:53:33Z</time>
      </trkpt>
      <trkpt lat="47.43511" lon="6.71091">
        <ele>441</ele>
        <time>2015-08-02T08:53:34Z</time>
      </trkpt>
      <trkpt lat="47.43511" lon="6.71099">
        <ele>442</ele>
        <time>2015-08-02T08:53:35Z</time>
      </trkpt>
      <trkpt lat="47.4351" lon="6.71106">
        <ele>442</ele>
        <time>2015-08-02T08:53:35Z</time>
      </trkpt>
      <trkpt lat="47.43507" lon="6.7112">
        <ele>443</ele>
        <time>2015-08-02T08:53:36Z</time>
      </trkpt>
      <trkpt lat="47.43504" lon="6.71132">
        <ele>443</ele>
        <time>2015-08-02T08:53:37Z</time>
      </trkpt>
      <trkpt lat="47.43501" lon="6.71153">
        <ele>441</ele>
        <time>2015-08-02T08:53:38Z</time>
      </trkpt>
      <trkpt lat="47.43495" lon="6.71205">
        <ele>439</ele>
        <time>2015-08-02T08:53:43Z</time>
      </trkpt>
      <trkpt lat="47.43492" lon="6.71214">
        <ele>439</ele>
        <time>2015-08-02T08:53:43Z</time>
      </trkpt>
      <trkpt lat="47.4349" lon="6.71222">
        <ele>439</ele>
        <time>2015-08-02T08:53:44Z</time>
      </trkpt>
      <trkpt lat="47.43489" lon="6.71229">
        <ele>439</ele>
        <time>2015-08-02T08:53:44Z</time>
      </trkpt>
      <trkpt lat="47.43489" lon="6.71245">
        <ele>438</ele>
        <time>2015-08-02T08:53:46Z</time>
      </trkpt>
      <trkpt lat="47.43488" lon="6.71252">
        <ele>439</ele>
        <time>2015-08-02T08:53:46Z</time>
      </trkpt>
      <trkpt lat="47.43488" lon="6.71262">
        <ele>439</ele>
        <time>2015-08-02T08:53:47Z</time>
      </trkpt>
      <trkpt lat="47.43488" lon="6.71265">
        <ele>439</ele>
        <time>2015-08-02T08:53:48Z</time>
      </trkpt>
      <trkpt lat="47.43489" lon="6.7127">
        <ele>440</ele>
        <time>2015-08-02T08:53:48Z</time>
      </trkpt>
      <trkpt lat="47.43487" lon="6.71279">
        <ele>440</ele>
        <time>2015-08-02T08:53:49Z</time>
      </trkpt>
      <trkpt lat="47.43488" lon="6.71287">
        <ele>440</ele>
        <time>2015-08-02T08:53:50Z</time>
      </trkpt>
      <trkpt lat="47.43488" lon="6.71296">
        <ele>440</ele>
        <time>2015-08-02T08:53:50Z</time>
      </trkpt>
      <trkpt lat="47.43487" lon="6.71303">
        <ele>440</ele>
        <time>2015-08-02T08:53:52Z</time>
      </trkpt>
      <trkpt lat="47.43486" lon="6.7131">
        <ele>440</ele>
        <time>2015-08-02T08:53:53Z</time>
      </trkpt>
      <trkpt lat="47.43485" lon="6.71319">
        <ele>440</ele>
        <time>2015-08-02T08:53:53Z</time>
      </trkpt>
      <trkpt lat="47.43487" lon="6.71326">
        <ele>440</ele>
        <time>2015-08-02T08:53:53Z</time>
      </trkpt>
      <trkpt lat="47.43486" lon="6.71332">
        <ele>440</ele>
        <time>2015-08-02T08:53:55Z</time>
      </trkpt>
      <trkpt lat="47.43487" lon="6.71338">
        <ele>442</ele>
        <time>2015-08-02T08:53:55Z</time>
      </trkpt>
      <trkpt lat="47.43484" lon="6.71351">
        <ele>442</ele>
        <time>2015-08-02T08:53:57Z</time>
      </trkpt>
      <trkpt lat="47.43483" lon="6.71363">
        <ele>443</ele>
        <time>2015-08-02T08:53:58Z</time>
      </trkpt>
      <trkpt lat="47.43483" lon="6.71371">
        <ele>443</ele>
        <time>2015-08-02T08:53:59Z</time>
      </trkpt>
      <trkpt lat="47.43482" lon="6.71378">
        <ele>443</ele>
        <time>2015-08-02T08:53:59Z</time>
      </trkpt>
      <trkpt lat="47.43482" lon="6.71395">
        <ele>443</ele>
        <time>2015-08-02T08:54:01Z</time>
      </trkpt>
      <trkpt lat="47.43482" lon="6.71407">
        <ele>443</ele>
        <time>2015-08-02T08:54:03Z</time>
      </trkpt>
      <trkpt lat="47.43482" lon="6.71421">
        <ele>445</ele>
        <time>2015-08-02T08:54:03Z</time>
      </trkpt>
      <trkpt lat="47.43482" lon="6.71427">
        <ele>445</ele>
        <time>2015-08-02T08:54:04Z</time>
      </trkpt>
      <trkpt lat="47.43482" lon="6.71446">
        <ele>445</ele>
        <time>2015-08-02T08:54:06Z</time>
      </trkpt>
      <trkpt lat="47.43479" lon="6.7148">
        <ele>445</ele>
        <time>2015-08-02T08:54:12Z</time>
      </trkpt>
      <trkpt lat="47.43479" lon="6.71497">
        <ele>445</ele>
        <time>2015-08-02T08:54:13Z</time>
      </trkpt>
      <trkpt lat="47.4348" lon="6.71513">
        <ele>445</ele>
        <time>2015-08-02T08:54:15Z</time>
      </trkpt>
      <trkpt lat="47.4348" lon="6.7153">
        <ele>445</ele>
        <time>2015-08-02T08:54:17Z</time>
      </trkpt>
      <trkpt lat="47.4348" lon="6.71546">
        <ele>445</ele>
        <time>2015-08-02T08:54:19Z</time>
      </trkpt>
      <trkpt lat="47.4348" lon="6.71557">
        <ele>445</ele>
        <time>2015-08-02T08:54:20Z</time>
      </trkpt>
      <trkpt lat="47.4348" lon="6.71577">
        <ele>445</ele>
        <time>2015-08-02T08:54:23Z</time>
      </trkpt>
      <trkpt lat="47.43482" lon="6.71593">
        <ele>443</ele>
        <time>2015-08-02T08:54:25Z</time>
      </trkpt>
      <trkpt lat="47.43482" lon="6.71609">
        <ele>443</ele>
        <time>2015-08-02T08:54:28Z</time>
      </trkpt>
      <trkpt lat="47.43483" lon="6.71618">
        <ele>443</ele>
        <time>2015-08-02T08:54:30Z</time>
      </trkpt>
      <trkpt lat="47.43483" lon="6.71623">
        <ele>443</ele>
        <time>2015-08-02T08:54:31Z</time>
      </trkpt>
      <trkpt lat="47.43491" lon="6.71666">
        <ele>442</ele>
        <time>2015-08-02T08:54:37Z</time>
      </trkpt>
      <trkpt lat="47.43496" lon="6.71694">
        <ele>442</ele>
        <time>2015-08-02T08:54:41Z</time>
      </trkpt>
      <trkpt lat="47.43499" lon="6.7171">
        <ele>442</ele>
        <time>2015-08-02T08:54:43Z</time>
      </trkpt>
      <trkpt lat="47.43502" lon="6.7173">
        <ele>443</ele>
        <time>2015-08-02T08:54:44Z</time>
      </trkpt>
      <trkpt lat="47.43504" lon="6.71745">
        <ele>442</ele>
        <time>2015-08-02T08:54:46Z</time>
      </trkpt>
      <trkpt lat="47.43505" lon="6.71754">
        <ele>442</ele>
        <time>2015-08-02T08:54:48Z</time>
      </trkpt>
      <trkpt lat="47.43506" lon="6.71758">
        <ele>442</ele>
        <time>2015-08-02T08:54:48Z</time>
      </trkpt>
      <trkpt lat="47.43511" lon="6.7178">
        <ele>443</ele>
        <time>2015-08-02T08:54:52Z</time>
      </trkpt>
      <trkpt lat="47.43514" lon="6.71791">
        <ele>443</ele>
        <time>2015-08-02T08:54:53Z</time>
      </trkpt>
      <trkpt lat="47.43517" lon="6.71812">
        <ele>443</ele>
        <time>2015-08-02T08:54:55Z</time>
      </trkpt>
      <trkpt lat="47.43519" lon="6.71823">
        <ele>443</ele>
        <time>2015-08-02T08:54:56Z</time>
      </trkpt>
      <trkpt lat="47.43523" lon="6.71841">
        <ele>444</ele>
        <time>2015-08-02T08:55:00Z</time>
      </trkpt>
      <trkpt lat="47.43526" lon="6.71854">
        <ele>445</ele>
        <time>2015-08-02T08:55:02Z</time>
      </trkpt>
      <trkpt lat="47.43528" lon="6.71862">
        <ele>445</ele>
        <time>2015-08-02T08:55:03Z</time>
      </trkpt>
      <trkpt lat="47.43532" lon="6.71881">
        <ele>445</ele>
        <time>2015-08-02T08:55:06Z</time>
      </trkpt>
      <trkpt lat="47.43533" lon="6.71889">
        <ele>445</ele>
        <time>2015-08-02T08:55:07Z</time>
      </trkpt>
      <trkpt lat="47.43534" lon="6.71897">
        <ele>445</ele>
        <time>2015-08-02T08:55:09Z</time>
      </trkpt>
      <trkpt lat="47.43536" lon="6.71911">
        <ele>446</ele>
        <time>2015-08-02T08:55:12Z</time>
      </trkpt>
      <trkpt lat="47.43537" lon="6.71915">
        <ele>446</ele>
        <time>2015-08-02T08:55:13Z</time>
      </trkpt>
      <trkpt lat="47.43538" lon="6.71918">
        <ele>447</ele>
        <time>2015-08-02T08:55:13Z</time>
      </trkpt>
      <trkpt lat="47.43542" lon="6.71926">
        <ele>448</ele>
        <time>2015-08-02T08:55:14Z</time>
      </trkpt>
      <trkpt lat="47.43543" lon="6.7193">
        <ele>448</ele>
        <time>2015-08-02T08:55:15Z</time>
      </trkpt>
      <trkpt lat="47.43549" lon="6.71953">
        <ele>448</ele>
        <time>2015-08-02T08:55:20Z</time>
      </trkpt>
      <trkpt lat="47.4355" lon="6.71957">
        <ele>448</ele>
        <time>2015-08-02T08:55:21Z</time>
      </trkpt>
      <trkpt lat="47.43551" lon="6.71962">
        <ele>448</ele>
        <time>2015-08-02T08:55:23Z</time>
      </trkpt>
      <trkpt lat="47.43554" lon="6.7197">
        <ele>448</ele>
        <time>2015-08-02T08:55:23Z</time>
      </trkpt>
      <trkpt lat="47.43558" lon="6.71978">
        <ele>448</ele>
        <time>2015-08-02T08:55:24Z</time>
      </trkpt>
      <trkpt lat="47.4356" lon="6.71982">
        <ele>448</ele>
        <time>2015-08-02T08:55:25Z</time>
      </trkpt>
      <trkpt lat="47.43564" lon="6.71988">
        <ele>448</ele>
        <time>2015-08-02T08:55:26Z</time>
      </trkpt>
      <trkpt lat="47.43573" lon="6.71996">
        <ele>448</ele>
        <time>2015-08-02T08:55:28Z</time>
      </trkpt>
      <trkpt lat="47.4358" lon="6.72002">
        <ele>448</ele>
        <time>2015-08-02T08:55:30Z</time>
      </trkpt>
      <trkpt lat="47.43584" lon="6.72004">
        <ele>448</ele>
        <time>2015-08-02T08:55:30Z</time>
      </trkpt>
      <trkpt lat="47.43592" lon="6.72008">
        <ele>449</ele>
        <time>2015-08-02T08:55:33Z</time>
      </trkpt>
      <trkpt lat="47.43602" lon="6.72013">
        <ele>450</ele>
        <time>2015-08-02T08:55:34Z</time>
      </trkpt>
      <trkpt lat="47.43605" lon="6.72015">
        <ele>450</ele>
        <time>2015-08-02T08:55:34Z</time>
      </trkpt>
      <trkpt lat="47.43613" lon="6.72021">
        <ele>450</ele>
        <time>2015-08-02T08:55:36Z</time>
      </trkpt>
      <trkpt lat="47.43618" lon="6.72024">
        <ele>451</ele>
        <time>2015-08-02T08:55:38Z</time>
      </trkpt>
      <trkpt lat="47.4362" lon="6.72027">
        <ele>451</ele>
        <time>2015-08-02T08:55:38Z</time>
      </trkpt>
      <trkpt lat="47.43624" lon="6.72032">
        <ele>451</ele>
        <time>2015-08-02T08:55:40Z</time>
      </trkpt>
      <trkpt lat="47.43632" lon="6.72045">
        <ele>451</ele>
        <time>2015-08-02T08:55:43Z</time>
      </trkpt>
      <trkpt lat="47.43636" lon="6.72049">
        <ele>451</ele>
        <time>2015-08-02T08:55:46Z</time>
      </trkpt>
      <trkpt lat="47.43637" lon="6.7205">
        <ele>451</ele>
        <time>2015-08-02T08:55:47Z</time>
      </trkpt>
      <trkpt lat="47.43643" lon="6.7206">
        <ele>452</ele>
        <time>2015-08-02T08:55:49Z</time>
      </trkpt>
      <trkpt lat="47.43647" lon="6.72067">
        <ele>452</ele>
        <time>2015-08-02T08:55:51Z</time>
      </trkpt>
      <trkpt lat="47.4365" lon="6.72073">
        <ele>452</ele>
        <time>2015-08-02T08:55:52Z</time>
      </trkpt>
      <trkpt lat="47.43657" lon="6.72086">
        <ele>454</ele>
        <time>2015-08-02T08:55:54Z</time>
      </trkpt>
      <trkpt lat="47.43662" lon="6.72096">
        <ele>454</ele>
        <time>2015-08-02T08:55:56Z</time>
      </trkpt>
      <trkpt lat="47.43666" lon="6.72103">
        <ele>454</ele>
        <time>2015-08-02T08:55:57Z</time>
      </trkpt>
      <trkpt lat="47.43674" lon="6.72117">
        <ele>456</ele>
        <time>2015-08-02T08:56:01Z</time>
      </trkpt>
      <trkpt lat="47.43676" lon="6.7212">
        <ele>456</ele>
        <time>2015-08-02T08:56:01Z</time>
      </trkpt>
      <trkpt lat="47.43677" lon="6.72124">
        <ele>456</ele>
        <time>2015-08-02T08:56:02Z</time>
      </trkpt>
      <trkpt lat="47.43682" lon="6.72134">
        <ele>456</ele>
        <time>2015-08-02T08:56:04Z</time>
      </trkpt>
      <trkpt lat="47.43685" lon="6.7214">
        <ele>456</ele>
        <time>2015-08-02T08:56:05Z</time>
      </trkpt>
      <trkpt lat="47.43688" lon="6.72146">
        <ele>457</ele>
        <time>2015-08-02T08:56:08Z</time>
      </trkpt>
      <trkpt lat="47.43693" lon="6.72158">
        <ele>457</ele>
        <time>2015-08-02T08:56:10Z</time>
      </trkpt>
      <trkpt lat="47.43706" lon="6.72187">
        <ele>458</ele>
        <time>2015-08-02T08:56:15Z</time>
      </trkpt>
      <trkpt lat="47.43707" lon="6.7219">
        <ele>458</ele>
        <time>2015-08-02T08:56:16Z</time>
      </trkpt>
      <trkpt lat="47.43709" lon="6.72197">
        <ele>458</ele>
        <time>2015-08-02T08:56:17Z</time>
      </trkpt>
      <trkpt lat="47.43713" lon="6.72212">
        <ele>458</ele>
        <time>2015-08-02T08:56:20Z</time>
      </trkpt>
      <trkpt lat="47.43719" lon="6.72227">
        <ele>458</ele>
        <time>2015-08-02T08:56:22Z</time>
      </trkpt>
      <trkpt lat="47.43725" lon="6.72245">
        <ele>458</ele>
        <time>2015-08-02T08:56:25Z</time>
      </trkpt>
      <trkpt lat="47.43726" lon="6.72249">
        <ele>458</ele>
        <time>2015-08-02T08:56:25Z</time>
      </trkpt>
      <trkpt lat="47.4373" lon="6.72256">
        <ele>459</ele>
        <time>2015-08-02T08:56:28Z</time>
      </trkpt>
      <trkpt lat="47.43736" lon="6.72271">
        <ele>459</ele>
        <time>2015-08-02T08:56:31Z</time>
      </trkpt>
      <trkpt lat="47.4374" lon="6.72281">
        <ele>459</ele>
        <time>2015-08-02T08:56:33Z</time>
      </trkpt>
      <trkpt lat="47.43743" lon="6.72286">
        <ele>459</ele>
        <time>2015-08-02T08:56:34Z</time>
      </trkpt>
      <trkpt lat="47.43745" lon="6.72293">
        <ele>460</ele>
        <time>2015-08-02T08:56:35Z</time>
      </trkpt>
      <trkpt lat="47.43748" lon="6.72301">
        <ele>460</ele>
        <time>2015-08-02T08:56:36Z</time>
      </trkpt>
      <trkpt lat="47.43751" lon="6.72309">
        <ele>460</ele>
        <time>2015-08-02T08:56:38Z</time>
      </trkpt>
      <trkpt lat="47.43753" lon="6.72313">
        <ele>460</ele>
        <time>2015-08-02T08:56:38Z</time>
      </trkpt>
      <trkpt lat="47.43755" lon="6.72317">
        <ele>460</ele>
        <time>2015-08-02T08:56:39Z</time>
      </trkpt>
      <trkpt lat="47.43765" lon="6.7233">
        <ele>460</ele>
        <time>2015-08-02T08:56:43Z</time>
      </trkpt>
      <trkpt lat="47.43769" lon="6.72337">
        <ele>461</ele>
        <time>2015-08-02T08:56:43Z</time>
      </trkpt>
      <trkpt lat="47.43773" lon="6.72343">
        <ele>461</ele>
        <time>2015-08-02T08:56:44Z</time>
      </trkpt>
      <trkpt lat="47.43775" lon="6.72345">
        <ele>461</ele>
        <time>2015-08-02T08:56:45Z</time>
      </trkpt>
      <trkpt lat="47.43778" lon="6.72347">
        <ele>461</ele>
        <time>2015-08-02T08:56:46Z</time>
      </trkpt>
      <trkpt lat="47.43782" lon="6.72351">
        <ele>461</ele>
        <time>2015-08-02T08:56:47Z</time>
      </trkpt>
      <trkpt lat="47.43786" lon="6.72355">
        <ele>461</ele>
        <time>2015-08-02T08:56:48Z</time>
      </trkpt>
      <trkpt lat="47.43788" lon="6.72357">
        <ele>461</ele>
        <time>2015-08-02T08:56:49Z</time>
      </trkpt>
      <trkpt lat="47.43792" lon="6.72361">
        <ele>461</ele>
        <time>2015-08-02T08:56:50Z</time>
      </trkpt>
      <trkpt lat="47.43793" lon="6.72363">
        <ele>462</ele>
        <time>2015-08-02T08:56:52Z</time>
      </trkpt>
      <trkpt lat="47.43788" lon="6.72365">
        <ele>461</ele>
        <time>2015-08-02T08:59:21Z</time>
      </trkpt>
      <trkpt lat="47.43788" lon="6.72365">
        <ele>461</ele>
        <time>2015-08-02T08:59:21Z</time>
      </trkpt>
      <trkpt lat="47.43792" lon="6.7237">
        <ele>462</ele>
        <time>2015-08-02T08:59:39Z</time>
      </trkpt>
      <trkpt lat="47.43798" lon="6.72379">
        <ele>462</ele>
        <time>2015-08-02T08:59:42Z</time>
      </trkpt>
      <trkpt lat="47.43807" lon="6.72389">
        <ele>462</ele>
        <time>2015-08-02T08:59:43Z</time>
      </trkpt>
      <trkpt lat="47.43816" lon="6.724">
        <ele>462</ele>
        <time>2015-08-02T08:59:46Z</time>
      </trkpt>
      <trkpt lat="47.43821" lon="6.72404">
        <ele>462</ele>
        <time>2015-08-02T08:59:47Z</time>
      </trkpt>
      <trkpt lat="47.43825" lon="6.72408">
        <ele>462</ele>
        <time>2015-08-02T08:59:47Z</time>
      </trkpt>
      <trkpt lat="47.43829" lon="6.72411">
        <ele>462</ele>
        <time>2015-08-02T08:59:48Z</time>
      </trkpt>
      <trkpt lat="47.43832" lon="6.72416">
        <ele>462</ele>
        <time>2015-08-02T08:59:49Z</time>
      </trkpt>
      <trkpt lat="47.43836" lon="6.72418">
        <ele>462</ele>
        <time>2015-08-02T08:59:49Z</time>
      </trkpt>
      <trkpt lat="47.43839" lon="6.72421">
        <ele>462</ele>
        <time>2015-08-02T08:59:50Z</time>
      </trkpt>
      <trkpt lat="47.43843" lon="6.72425">
        <ele>462</ele>
        <time>2015-08-02T08:59:51Z</time>
      </trkpt>
      <trkpt lat="47.43846" lon="6.72428">
        <ele>462</ele>
        <time>2015-08-02T08:59:51Z</time>
      </trkpt>
      <trkpt lat="47.4385" lon="6.72431">
        <ele>462</ele>
        <time>2015-08-02T08:59:52Z</time>
      </trkpt>
      <trkpt lat="47.43854" lon="6.72435">
        <ele>463</ele>
        <time>2015-08-02T08:59:53Z</time>
      </trkpt>
      <trkpt lat="47.43861" lon="6.72442">
        <ele>463</ele>
        <time>2015-08-02T08:59:55Z</time>
      </trkpt>
      <trkpt lat="47.43864" lon="6.72446">
        <ele>463</ele>
        <time>2015-08-02T08:59:56Z</time>
      </trkpt>
      <trkpt lat="47.43869" lon="6.72446">
        <ele>463</ele>
        <time>2015-08-02T08:59:56Z</time>
      </trkpt>
      <trkpt lat="47.43873" lon="6.72448">
        <ele>463</ele>
        <time>2015-08-02T08:59:57Z</time>
      </trkpt>
      <trkpt lat="47.43877" lon="6.72452">
        <ele>463</ele>
        <time>2015-08-02T08:59:58Z</time>
      </trkpt>
      <trkpt lat="47.43881" lon="6.72457">
        <ele>463</ele>
        <time>2015-08-02T08:59:58Z</time>
      </trkpt>
      <trkpt lat="47.43885" lon="6.72461">
        <ele>463</ele>
        <time>2015-08-02T08:59:59Z</time>
      </trkpt>
      <trkpt lat="47.43888" lon="6.72465">
        <ele>463</ele>
        <time>2015-08-02T09:00:00Z</time>
      </trkpt>
      <trkpt lat="47.43892" lon="6.72468">
        <ele>463</ele>
        <time>2015-08-02T09:00:00Z</time>
      </trkpt>
      <trkpt lat="47.43895" lon="6.72473">
        <ele>463</ele>
        <time>2015-08-02T09:00:02Z</time>
      </trkpt>
      <trkpt lat="47.43898" lon="6.72475">
        <ele>463</ele>
        <time>2015-08-02T09:00:03Z</time>
      </trkpt>
      <trkpt lat="47.43902" lon="6.72478">
        <ele>463</ele>
        <time>2015-08-02T09:00:03Z</time>
      </trkpt>
      <trkpt lat="47.43905" lon="6.72482">
        <ele>463</ele>
        <time>2015-08-02T09:00:03Z</time>
      </trkpt>
      <trkpt lat="47.43908" lon="6.72485">
        <ele>463</ele>
        <time>2015-08-02T09:00:04Z</time>
      </trkpt>
      <trkpt lat="47.43911" lon="6.72488">
        <ele>463</ele>
        <time>2015-08-02T09:00:04Z</time>
      </trkpt>
      <trkpt lat="47.43921" lon="6.72498">
        <ele>463</ele>
        <time>2015-08-02T09:00:06Z</time>
      </trkpt>
      <trkpt lat="47.43925" lon="6.725">
        <ele>463</ele>
        <time>2015-08-02T09:00:08Z</time>
      </trkpt>
      <trkpt lat="47.43928" lon="6.72502">
        <ele>463</ele>
        <time>2015-08-02T09:00:09Z</time>
      </trkpt>
      <trkpt lat="47.43932" lon="6.72503">
        <ele>463</ele>
        <time>2015-08-02T09:00:09Z</time>
      </trkpt>
      <trkpt lat="47.43938" lon="6.725">
        <ele>463</ele>
        <time>2015-08-02T09:00:10Z</time>
      </trkpt>
      <trkpt lat="47.43942" lon="6.725">
        <ele>463</ele>
        <time>2015-08-02T09:00:11Z</time>
      </trkpt>
      <trkpt lat="47.43946" lon="6.72499">
        <ele>464</ele>
        <time>2015-08-02T09:00:11Z</time>
      </trkpt>
      <trkpt lat="47.43951" lon="6.72497">
        <ele>464</ele>
        <time>2015-08-02T09:00:12Z</time>
      </trkpt>
      <trkpt lat="47.43956" lon="6.72494">
        <ele>464</ele>
        <time>2015-08-02T09:00:13Z</time>
      </trkpt>
      <trkpt lat="47.43964" lon="6.72492">
        <ele>464</ele>
        <time>2015-08-02T09:00:13Z</time>
      </trkpt>
      <trkpt lat="47.43969" lon="6.72492">
        <ele>464</ele>
        <time>2015-08-02T09:00:14Z</time>
      </trkpt>
      <trkpt lat="47.43974" lon="6.72493">
        <ele>464</ele>
        <time>2015-08-02T09:00:14Z</time>
      </trkpt>
      <trkpt lat="47.43984" lon="6.72488">
        <ele>464</ele>
        <time>2015-08-02T09:00:16Z</time>
      </trkpt>
      <trkpt lat="47.43993" lon="6.72484">
        <ele>464</ele>
        <time>2015-08-02T09:00:17Z</time>
      </trkpt>
      <trkpt lat="47.43999" lon="6.72481">
        <ele>464</ele>
        <time>2015-08-02T09:00:18Z</time>
      </trkpt>
      <trkpt lat="47.44005" lon="6.7248">
        <ele>466</ele>
        <time>2015-08-02T09:00:18Z</time>
      </trkpt>
      <trkpt lat="47.44011" lon="6.72477">
        <ele>466</ele>
        <time>2015-08-02T09:00:19Z</time>
      </trkpt>
      <trkpt lat="47.44017" lon="6.72477">
        <ele>466</ele>
        <time>2015-08-02T09:00:21Z</time>
      </trkpt>
      <trkpt lat="47.44021" lon="6.72475">
        <ele>466</ele>
        <time>2015-08-02T09:00:21Z</time>
      </trkpt>
      <trkpt lat="47.44024" lon="6.72473">
        <ele>466</ele>
        <time>2015-08-02T09:00:23Z</time>
      </trkpt>
      <trkpt lat="47.44035" lon="6.72468">
        <ele>467</ele>
        <time>2015-08-02T09:00:23Z</time>
      </trkpt>
      <trkpt lat="47.4404" lon="6.72465">
        <ele>467</ele>
        <time>2015-08-02T09:00:24Z</time>
      </trkpt>
      <trkpt lat="47.44045" lon="6.72465">
        <ele>467</ele>
        <time>2015-08-02T09:00:25Z</time>
      </trkpt>
      <trkpt lat="47.4405" lon="6.72463">
        <ele>467</ele>
        <time>2015-08-02T09:00:25Z</time>
      </trkpt>
      <trkpt lat="47.44054" lon="6.72462">
        <ele>467</ele>
        <time>2015-08-02T09:00:26Z</time>
      </trkpt>
      <trkpt lat="47.44059" lon="6.7246">
        <ele>468</ele>
        <time>2015-08-02T09:00:27Z</time>
      </trkpt>
      <trkpt lat="47.44061" lon="6.72458">
        <ele>468</ele>
        <time>2015-08-02T09:00:27Z</time>
      </trkpt>
      <trkpt lat="47.44072" lon="6.72455">
        <ele>468</ele>
        <time>2015-08-02T09:00:29Z</time>
      </trkpt>
      <trkpt lat="47.44077" lon="6.72451">
        <ele>468</ele>
        <time>2015-08-02T09:00:29Z</time>
      </trkpt>
      <trkpt lat="47.44079" lon="6.72448">
        <ele>469</ele>
        <time>2015-08-02T09:00:30Z</time>
      </trkpt>
      <trkpt lat="47.44083" lon="6.72445">
        <ele>469</ele>
        <time>2015-08-02T09:00:31Z</time>
      </trkpt>
      <trkpt lat="47.44086" lon="6.72445">
        <ele>473</ele>
        <time>2015-08-02T09:00:31Z</time>
      </trkpt>
      <trkpt lat="47.4409" lon="6.72442">
        <ele>473</ele>
        <time>2015-08-02T09:00:32Z</time>
      </trkpt>
      <trkpt lat="47.44091" lon="6.72442">
        <ele>473</ele>
        <time>2015-08-02T09:00:33Z</time>
      </trkpt>
      <trkpt lat="47.44094" lon="6.72445">
        <ele>473</ele>
        <time>2015-08-02T09:00:33Z</time>
      </trkpt>
      <trkpt lat="47.44104" lon="6.72439">
        <ele>474</ele>
        <time>2015-08-02T09:00:37Z</time>
      </trkpt>
      <trkpt lat="47.44111" lon="6.72437">
        <ele>474</ele>
        <time>2015-08-02T09:00:39Z</time>
      </trkpt>
      <trkpt lat="47.44113" lon="6.72436">
        <ele>474</ele>
        <time>2015-08-02T09:00:39Z</time>
      </trkpt>
      <trkpt lat="47.44122" lon="6.72432">
        <ele>475</ele>
        <time>2015-08-02T09:00:42Z</time>
      </trkpt>
      <trkpt lat="47.44136" lon="6.72424">
        <ele>476</ele>
        <time>2015-08-02T09:00:43Z</time>
      </trkpt>
      <trkpt lat="47.4414" lon="6.72422">
        <ele>477</ele>
        <time>2015-08-02T09:00:43Z</time>
      </trkpt>
      <trkpt lat="47.44144" lon="6.72421">
        <ele>477</ele>
        <time>2015-08-02T09:00:44Z</time>
      </trkpt>
      <trkpt lat="47.44152" lon="6.72419">
        <ele>478</ele>
        <time>2015-08-02T09:00:45Z</time>
      </trkpt>
      <trkpt lat="47.44156" lon="6.72417">
        <ele>479</ele>
        <time>2015-08-02T09:00:46Z</time>
      </trkpt>
      <trkpt lat="47.44178" lon="6.72405">
        <ele>482</ele>
        <time>2015-08-02T09:00:52Z</time>
      </trkpt>
      <trkpt lat="47.44188" lon="6.724">
        <ele>482</ele>
        <time>2015-08-02T09:00:53Z</time>
      </trkpt>
      <trkpt lat="47.44199" lon="6.72395">
        <ele>482</ele>
        <time>2015-08-02T09:00:55Z</time>
      </trkpt>
      <trkpt lat="47.44209" lon="6.72392">
        <ele>482</ele>
        <time>2015-08-02T09:00:56Z</time>
      </trkpt>
      <trkpt lat="47.44219" lon="6.7239">
        <ele>482</ele>
        <time>2015-08-02T09:00:58Z</time>
      </trkpt>
      <trkpt lat="47.44225" lon="6.72388">
        <ele>482</ele>
        <time>2015-08-02T09:00:58Z</time>
      </trkpt>
      <trkpt lat="47.44234" lon="6.72383">
        <ele>482</ele>
        <time>2015-08-02T09:01:00Z</time>
      </trkpt>
      <trkpt lat="47.44238" lon="6.72382">
        <ele>482</ele>
        <time>2015-08-02T09:01:00Z</time>
      </trkpt>
      <trkpt lat="47.44246" lon="6.72381">
        <ele>482</ele>
        <time>2015-08-02T09:01:03Z</time>
      </trkpt>
      <trkpt lat="47.4425" lon="6.7238">
        <ele>482</ele>
        <time>2015-08-02T09:01:03Z</time>
      </trkpt>
      <trkpt lat="47.44254" lon="6.72379">
        <ele>481</ele>
        <time>2015-08-02T09:01:03Z</time>
      </trkpt>
      <trkpt lat="47.44258" lon="6.72377">
        <ele>481</ele>
        <time>2015-08-02T09:01:04Z</time>
      </trkpt>
      <trkpt lat="47.44268" lon="6.72372">
        <ele>481</ele>
        <time>2015-08-02T09:01:05Z</time>
      </trkpt>
      <trkpt lat="47.44274" lon="6.7237">
        <ele>481</ele>
        <time>2015-08-02T09:01:06Z</time>
      </trkpt>
      <trkpt lat="47.4428" lon="6.72368">
        <ele>481</ele>
        <time>2015-08-02T09:01:06Z</time>
      </trkpt>
      <trkpt lat="47.44295" lon="6.72369">
        <ele>480</ele>
        <time>2015-08-02T09:01:07Z</time>
      </trkpt>
      <trkpt lat="47.44304" lon="6.72368">
        <ele>480</ele>
        <time>2015-08-02T09:01:09Z</time>
      </trkpt>
      <trkpt lat="47.44313" lon="6.72367">
        <ele>480</ele>
        <time>2015-08-02T09:01:09Z</time>
      </trkpt>
      <trkpt lat="47.44322" lon="6.72364">
        <ele>479</ele>
        <time>2015-08-02T09:01:10Z</time>
      </trkpt>
      <trkpt lat="47.44332" lon="6.72359">
        <ele>479</ele>
        <time>2015-08-02T09:01:11Z</time>
      </trkpt>
      <trkpt lat="47.44338" lon="6.72355">
        <ele>477</ele>
        <time>2015-08-02T09:01:11Z</time>
      </trkpt>
      <trkpt lat="47.44345" lon="6.72352">
        <ele>477</ele>
        <time>2015-08-02T09:01:12Z</time>
      </trkpt>
      <trkpt lat="47.44353" lon="6.72353">
        <ele>477</ele>
        <time>2015-08-02T09:01:13Z</time>
      </trkpt>
      <trkpt lat="47.44361" lon="6.72353">
        <ele>477</ele>
        <time>2015-08-02T09:01:13Z</time>
      </trkpt>
      <trkpt lat="47.44369" lon="6.72351">
        <ele>477</ele>
        <time>2015-08-02T09:01:13Z</time>
      </trkpt>
      <trkpt lat="47.44377" lon="6.72348">
        <ele>477</ele>
        <time>2015-08-02T09:01:14Z</time>
      </trkpt>
      <trkpt lat="47.44383" lon="6.72348">
        <ele>477</ele>
        <time>2015-08-02T09:01:14Z</time>
      </trkpt>
      <trkpt lat="47.44389" lon="6.72348">
        <ele>476</ele>
        <time>2015-08-02T09:01:15Z</time>
      </trkpt>
      <trkpt lat="47.44396" lon="6.72347">
        <ele>476</ele>
        <time>2015-08-02T09:01:17Z</time>
      </trkpt>
      <trkpt lat="47.44402" lon="6.72347">
        <ele>476</ele>
        <time>2015-08-02T09:01:17Z</time>
      </trkpt>
      <trkpt lat="47.44408" lon="6.72348">
        <ele>476</ele>
        <time>2015-08-02T09:01:18Z</time>
      </trkpt>
      <trkpt lat="47.44415" lon="6.72347">
        <ele>475</ele>
        <time>2015-08-02T09:01:19Z</time>
      </trkpt>
      <trkpt lat="47.4442" lon="6.72346">
        <ele>476</ele>
        <time>2015-08-02T09:01:19Z</time>
      </trkpt>
      <trkpt lat="47.44426" lon="6.72345">
        <ele>476</ele>
        <time>2015-08-02T09:01:20Z</time>
      </trkpt>
      <trkpt lat="47.44432" lon="6.72344">
        <ele>476</ele>
        <time>2015-08-02T09:01:21Z</time>
      </trkpt>
      <trkpt lat="47.44437" lon="6.72343">
        <ele>476</ele>
        <time>2015-08-02T09:01:21Z</time>
      </trkpt>
      <trkpt lat="47.44443" lon="6.72343">
        <ele>477</ele>
        <time>2015-08-02T09:01:22Z</time>
      </trkpt>
      <trkpt lat="47.44448" lon="6.72342">
        <ele>477</ele>
        <time>2015-08-02T09:01:23Z</time>
      </trkpt>
      <trkpt lat="47.44459" lon="6.72339">
        <ele>477</ele>
        <time>2015-08-02T09:01:23Z</time>
      </trkpt>
      <trkpt lat="47.44468" lon="6.7234">
        <ele>477</ele>
        <time>2015-08-02T09:01:24Z</time>
      </trkpt>
      <trkpt lat="47.44474" lon="6.72339">
        <ele>477</ele>
        <time>2015-08-02T09:01:24Z</time>
      </trkpt>
      <trkpt lat="47.44481" lon="6.72338">
        <ele>477</ele>
        <time>2015-08-02T09:01:26Z</time>
      </trkpt>
      <trkpt lat="47.44488" lon="6.7234">
        <ele>477</ele>
        <time>2015-08-02T09:01:27Z</time>
      </trkpt>
      <trkpt lat="47.44495" lon="6.7234">
        <ele>477</ele>
        <time>2015-08-02T09:01:27Z</time>
      </trkpt>
      <trkpt lat="47.44501" lon="6.72338">
        <ele>477</ele>
        <time>2015-08-02T09:01:28Z</time>
      </trkpt>
      <trkpt lat="47.44517" lon="6.72332">
        <ele>474</ele>
        <time>2015-08-02T09:01:31Z</time>
      </trkpt>
      <trkpt lat="47.44523" lon="6.72331">
        <ele>474</ele>
        <time>2015-08-02T09:01:32Z</time>
      </trkpt>
      <trkpt lat="47.44531" lon="6.72331">
        <ele>474</ele>
        <time>2015-08-02T09:01:32Z</time>
      </trkpt>
      <trkpt lat="47.44538" lon="6.72329">
        <ele>474</ele>
        <time>2015-08-02T09:01:33Z</time>
      </trkpt>
      <trkpt lat="47.44545" lon="6.72325">
        <ele>474</ele>
        <time>2015-08-02T09:01:33Z</time>
      </trkpt>
      <trkpt lat="47.44549" lon="6.72322">
        <ele>474</ele>
        <time>2015-08-02T09:01:33Z</time>
      </trkpt>
      <trkpt lat="47.44555" lon="6.72319">
        <ele>474</ele>
        <time>2015-08-02T09:01:34Z</time>
      </trkpt>
      <trkpt lat="47.44562" lon="6.72319">
        <ele>474</ele>
        <time>2015-08-02T09:01:36Z</time>
      </trkpt>
      <trkpt lat="47.4457" lon="6.72318">
        <ele>475</ele>
        <time>2015-08-02T09:01:36Z</time>
      </trkpt>
      <trkpt lat="47.44578" lon="6.72316">
        <ele>475</ele>
        <time>2015-08-02T09:01:37Z</time>
      </trkpt>
      <trkpt lat="47.44583" lon="6.72316">
        <ele>475</ele>
        <time>2015-08-02T09:01:38Z</time>
      </trkpt>
      <trkpt lat="47.44589" lon="6.72314">
        <ele>476</ele>
        <time>2015-08-02T09:01:38Z</time>
      </trkpt>
      <trkpt lat="47.44596" lon="6.72312">
        <ele>475</ele>
        <time>2015-08-02T09:01:39Z</time>
      </trkpt>
      <trkpt lat="47.44603" lon="6.7231">
        <ele>475</ele>
        <time>2015-08-02T09:01:40Z</time>
      </trkpt>
      <trkpt lat="47.44609" lon="6.7231">
        <ele>475</ele>
        <time>2015-08-02T09:01:40Z</time>
      </trkpt>
      <trkpt lat="47.44615" lon="6.72315">
        <ele>475</ele>
        <time>2015-08-02T09:01:41Z</time>
      </trkpt>
      <trkpt lat="47.44621" lon="6.72313">
        <ele>475</ele>
        <time>2015-08-02T09:01:42Z</time>
      </trkpt>
      <trkpt lat="47.44627" lon="6.72313">
        <ele>475</ele>
        <time>2015-08-02T09:01:42Z</time>
      </trkpt>
      <trkpt lat="47.44633" lon="6.72315">
        <ele>476</ele>
        <time>2015-08-02T09:01:43Z</time>
      </trkpt>
      <trkpt lat="47.44638" lon="6.72317">
        <ele>476</ele>
        <time>2015-08-02T09:01:44Z</time>
      </trkpt>
      <trkpt lat="47.44644" lon="6.72318">
        <ele>476</ele>
        <time>2015-08-02T09:01:44Z</time>
      </trkpt>
      <trkpt lat="47.44649" lon="6.72318">
        <ele>477</ele>
        <time>2015-08-02T09:01:45Z</time>
      </trkpt>
      <trkpt lat="47.44659" lon="6.72315">
        <ele>477</ele>
        <time>2015-08-02T09:01:46Z</time>
      </trkpt>
      <trkpt lat="47.44664" lon="6.72314">
        <ele>477</ele>
        <time>2015-08-02T09:01:47Z</time>
      </trkpt>
      <trkpt lat="47.44669" lon="6.72313">
        <ele>478</ele>
        <time>2015-08-02T09:01:48Z</time>
      </trkpt>
      <trkpt lat="47.44674" lon="6.72311">
        <ele>478</ele>
        <time>2015-08-02T09:01:48Z</time>
      </trkpt>
      <trkpt lat="47.44679" lon="6.72309">
        <ele>478</ele>
        <time>2015-08-02T09:01:49Z</time>
      </trkpt>
      <trkpt lat="47.44684" lon="6.72307">
        <ele>478</ele>
        <time>2015-08-02T09:01:50Z</time>
      </trkpt>
      <trkpt lat="47.44694" lon="6.72304">
        <ele>478</ele>
        <time>2015-08-02T09:01:51Z</time>
      </trkpt>
      <trkpt lat="47.44704" lon="6.723">
        <ele>478</ele>
        <time>2015-08-02T09:01:52Z</time>
      </trkpt>
      <trkpt lat="47.44709" lon="6.72297">
        <ele>478</ele>
        <time>2015-08-02T09:01:53Z</time>
      </trkpt>
      <trkpt lat="47.44715" lon="6.72295">
        <ele>478</ele>
        <time>2015-08-02T09:01:53Z</time>
      </trkpt>
      <trkpt lat="47.44721" lon="6.72294">
        <ele>478</ele>
        <time>2015-08-02T09:01:53Z</time>
      </trkpt>
      <trkpt lat="47.44726" lon="6.7229">
        <ele>478</ele>
        <time>2015-08-02T09:01:55Z</time>
      </trkpt>
      <trkpt lat="47.44739" lon="6.72283">
        <ele>477</ele>
        <time>2015-08-02T09:01:56Z</time>
      </trkpt>
      <trkpt lat="47.44746" lon="6.7228">
        <ele>477</ele>
        <time>2015-08-02T09:01:58Z</time>
      </trkpt>
      <trkpt lat="47.44759" lon="6.72276">
        <ele>476</ele>
        <time>2015-08-02T09:01:59Z</time>
      </trkpt>
      <trkpt lat="47.44766" lon="6.72274">
        <ele>476</ele>
        <time>2015-08-02T09:02:00Z</time>
      </trkpt>
      <trkpt lat="47.44773" lon="6.72271">
        <ele>475</ele>
        <time>2015-08-02T09:02:01Z</time>
      </trkpt>
      <trkpt lat="47.44779" lon="6.72267">
        <ele>475</ele>
        <time>2015-08-02T09:02:01Z</time>
      </trkpt>
      <trkpt lat="47.44786" lon="6.72264">
        <ele>475</ele>
        <time>2015-08-02T09:02:02Z</time>
      </trkpt>
      <trkpt lat="47.44795" lon="6.72262">
        <ele>474</ele>
        <time>2015-08-02T09:02:03Z</time>
      </trkpt>
      <trkpt lat="47.44803" lon="6.7226">
        <ele>473</ele>
        <time>2015-08-02T09:02:03Z</time>
      </trkpt>
      <trkpt lat="47.44811" lon="6.72257">
        <ele>472</ele>
        <time>2015-08-02T09:02:03Z</time>
      </trkpt>
      <trkpt lat="47.4482" lon="6.72257">
        <ele>470</ele>
        <time>2015-08-02T09:02:04Z</time>
      </trkpt>
      <trkpt lat="47.4483" lon="6.72258">
        <ele>469</ele>
        <time>2015-08-02T09:02:04Z</time>
      </trkpt>
      <trkpt lat="47.4484" lon="6.72261">
        <ele>466</ele>
        <time>2015-08-02T09:02:05Z</time>
      </trkpt>
      <trkpt lat="47.44858" lon="6.72273">
        <ele>467</ele>
        <time>2015-08-02T09:02:06Z</time>
      </trkpt>
      <trkpt lat="47.44868" lon="6.72278">
        <ele>466</ele>
        <time>2015-08-02T09:02:07Z</time>
      </trkpt>
      <trkpt lat="47.44878" lon="6.72287">
        <ele>466</ele>
        <time>2015-08-02T09:02:08Z</time>
      </trkpt>
      <trkpt lat="47.44886" lon="6.72296">
        <ele>466</ele>
        <time>2015-08-02T09:02:08Z</time>
      </trkpt>
      <trkpt lat="47.44896" lon="6.72304">
        <ele>466</ele>
        <time>2015-08-02T09:02:09Z</time>
      </trkpt>
      <trkpt lat="47.44906" lon="6.72311">
        <ele>466</ele>
        <time>2015-08-02T09:02:10Z</time>
      </trkpt>
      <trkpt lat="47.44917" lon="6.72317">
        <ele>461</ele>
        <time>2015-08-02T09:02:10Z</time>
      </trkpt>
      <trkpt lat="47.44928" lon="6.72325">
        <ele>461</ele>
        <time>2015-08-02T09:02:13Z</time>
      </trkpt>
      <trkpt lat="47.44937" lon="6.72332">
        <ele>460</ele>
        <time>2015-08-02T09:02:13Z</time>
      </trkpt>
      <trkpt lat="47.44956" lon="6.72351">
        <ele>462</ele>
        <time>2015-08-02T09:02:14Z</time>
      </trkpt>
      <trkpt lat="47.44974" lon="6.72367">
        <ele>461</ele>
        <time>2015-08-02T09:02:15Z</time>
      </trkpt>
      <trkpt lat="47.44983" lon="6.72376">
        <ele>461</ele>
        <time>2015-08-02T09:02:16Z</time>
      </trkpt>
      <trkpt lat="47.44992" lon="6.72382">
        <ele>461</ele>
        <time>2015-08-02T09:02:17Z</time>
      </trkpt>
      <trkpt lat="47.45001" lon="6.72388">
        <ele>454</ele>
        <time>2015-08-02T09:02:17Z</time>
      </trkpt>
      <trkpt lat="47.4501" lon="6.72395">
        <ele>455</ele>
        <time>2015-08-02T09:02:18Z</time>
      </trkpt>
      <trkpt lat="47.45019" lon="6.72402">
        <ele>455</ele>
        <time>2015-08-02T09:02:19Z</time>
      </trkpt>
      <trkpt lat="47.45039" lon="6.72416">
        <ele>453</ele>
        <time>2015-08-02T09:02:20Z</time>
      </trkpt>
      <trkpt lat="47.45057" lon="6.72427">
        <ele>454</ele>
        <time>2015-08-02T09:02:21Z</time>
      </trkpt>
      <trkpt lat="47.45075" lon="6.72438">
        <ele>454</ele>
        <time>2015-08-02T09:02:23Z</time>
      </trkpt>
      <trkpt lat="47.45083" lon="6.72444">
        <ele>454</ele>
        <time>2015-08-02T09:02:23Z</time>
      </trkpt>
      <trkpt lat="47.45092" lon="6.72451">
        <ele>450</ele>
        <time>2015-08-02T09:02:24Z</time>
      </trkpt>
      <trkpt lat="47.45099" lon="6.72456">
        <ele>450</ele>
        <time>2015-08-02T09:02:26Z</time>
      </trkpt>
      <trkpt lat="47.45108" lon="6.72462">
        <ele>450</ele>
        <time>2015-08-02T09:02:26Z</time>
      </trkpt>
      <trkpt lat="47.45117" lon="6.72467">
        <ele>450</ele>
        <time>2015-08-02T09:02:27Z</time>
      </trkpt>
      <trkpt lat="47.45126" lon="6.72477">
        <ele>450</ele>
        <time>2015-08-02T09:02:28Z</time>
      </trkpt>
      <trkpt lat="47.45135" lon="6.72484">
        <ele>450</ele>
        <time>2015-08-02T09:02:28Z</time>
      </trkpt>
      <trkpt lat="47.45142" lon="6.72492">
        <ele>450</ele>
        <time>2015-08-02T09:02:29Z</time>
      </trkpt>
      <trkpt lat="47.4515" lon="6.72498">
        <ele>449</ele>
        <time>2015-08-02T09:02:30Z</time>
      </trkpt>
      <trkpt lat="47.45158" lon="6.72503">
        <ele>450</ele>
        <time>2015-08-02T09:02:30Z</time>
      </trkpt>
      <trkpt lat="47.45166" lon="6.72509">
        <ele>450</ele>
        <time>2015-08-02T09:02:31Z</time>
      </trkpt>
      <trkpt lat="47.45173" lon="6.72516">
        <ele>450</ele>
        <time>2015-08-02T09:02:32Z</time>
      </trkpt>
      <trkpt lat="47.4518" lon="6.7252">
        <ele>450</ele>
        <time>2015-08-02T09:02:32Z</time>
      </trkpt>
      <trkpt lat="47.45187" lon="6.72525">
        <ele>450</ele>
        <time>2015-08-02T09:02:33Z</time>
      </trkpt>
      <trkpt lat="47.45194" lon="6.72529">
        <ele>451</ele>
        <time>2015-08-02T09:02:33Z</time>
      </trkpt>
      <trkpt lat="47.45201" lon="6.72532">
        <ele>451</ele>
        <time>2015-08-02T09:02:33Z</time>
      </trkpt>
      <trkpt lat="47.45209" lon="6.72537">
        <ele>451</ele>
        <time>2015-08-02T09:02:34Z</time>
      </trkpt>
      <trkpt lat="47.45215" lon="6.72541">
        <ele>451</ele>
        <time>2015-08-02T09:02:35Z</time>
      </trkpt>
      <trkpt lat="47.4522" lon="6.72546">
        <ele>451</ele>
        <time>2015-08-02T09:02:35Z</time>
      </trkpt>
      <trkpt lat="47.45226" lon="6.7255">
        <ele>451</ele>
        <time>2015-08-02T09:02:36Z</time>
      </trkpt>
      <trkpt lat="47.4523" lon="6.72555">
        <ele>451</ele>
        <time>2015-08-02T09:02:37Z</time>
      </trkpt>
      <trkpt lat="47.45234" lon="6.72559">
        <ele>452</ele>
        <time>2015-08-02T09:02:37Z</time>
      </trkpt>
      <trkpt lat="47.45239" lon="6.72563">
        <ele>452</ele>
        <time>2015-08-02T09:02:39Z</time>
      </trkpt>
      <trkpt lat="47.45244" lon="6.72566">
        <ele>452</ele>
        <time>2015-08-02T09:02:40Z</time>
      </trkpt>
      <trkpt lat="47.45249" lon="6.72568">
        <ele>452</ele>
        <time>2015-08-02T09:02:40Z</time>
      </trkpt>
      <trkpt lat="47.45254" lon="6.72571">
        <ele>452</ele>
        <time>2015-08-02T09:02:42Z</time>
      </trkpt>
      <trkpt lat="47.45259" lon="6.72576">
        <ele>452</ele>
        <time>2015-08-02T09:02:43Z</time>
      </trkpt>
      <trkpt lat="47.45265" lon="6.7258">
        <ele>452</ele>
        <time>2015-08-02T09:02:43Z</time>
      </trkpt>
      <trkpt lat="47.45269" lon="6.72584">
        <ele>453</ele>
        <time>2015-08-02T09:02:43Z</time>
      </trkpt>
      <trkpt lat="47.45274" lon="6.72588">
        <ele>453</ele>
        <time>2015-08-02T09:02:44Z</time>
      </trkpt>
      <trkpt lat="47.45278" lon="6.72591">
        <ele>453</ele>
        <time>2015-08-02T09:02:44Z</time>
      </trkpt>
      <trkpt lat="47.45282" lon="6.72595">
        <ele>453</ele>
        <time>2015-08-02T09:02:45Z</time>
      </trkpt>
      <trkpt lat="47.45287" lon="6.72598">
        <ele>453</ele>
        <time>2015-08-02T09:02:46Z</time>
      </trkpt>
      <trkpt lat="47.45292" lon="6.72601">
        <ele>453</ele>
        <time>2015-08-02T09:02:46Z</time>
      </trkpt>
      <trkpt lat="47.45297" lon="6.72604">
        <ele>453</ele>
        <time>2015-08-02T09:02:47Z</time>
      </trkpt>
      <trkpt lat="47.45301" lon="6.72607">
        <ele>453</ele>
        <time>2015-08-02T09:02:48Z</time>
      </trkpt>
      <trkpt lat="47.4531" lon="6.72614">
        <ele>453</ele>
        <time>2015-08-02T09:02:49Z</time>
      </trkpt>
      <trkpt lat="47.45315" lon="6.72618">
        <ele>453</ele>
        <time>2015-08-02T09:02:50Z</time>
      </trkpt>
      <trkpt lat="47.45324" lon="6.72626">
        <ele>454</ele>
        <time>2015-08-02T09:02:51Z</time>
      </trkpt>
      <trkpt lat="47.45332" lon="6.72635">
        <ele>454</ele>
        <time>2015-08-02T09:02:52Z</time>
      </trkpt>
      <trkpt lat="47.45339" lon="6.72645">
        <ele>454</ele>
        <time>2015-08-02T09:02:54Z</time>
      </trkpt>
      <trkpt lat="47.45351" lon="6.72657">
        <ele>454</ele>
        <time>2015-08-02T09:02:57Z</time>
      </trkpt>
      <trkpt lat="47.45354" lon="6.72662">
        <ele>454</ele>
        <time>2015-08-02T09:02:57Z</time>
      </trkpt>
      <trkpt lat="47.45362" lon="6.7267">
        <ele>456</ele>
        <time>2015-08-02T09:02:59Z</time>
      </trkpt>
      <trkpt lat="47.45373" lon="6.72683">
        <ele>456</ele>
        <time>2015-08-02T09:03:01Z</time>
      </trkpt>
      <trkpt lat="47.4538" lon="6.72692">
        <ele>456</ele>
        <time>2015-08-02T09:03:02Z</time>
      </trkpt>
      <trkpt lat="47.45384" lon="6.72696">
        <ele>456</ele>
        <time>2015-08-02T09:03:03Z</time>
      </trkpt>
      <trkpt lat="47.45387" lon="6.727">
        <ele>456</ele>
        <time>2015-08-02T09:03:03Z</time>
      </trkpt>
      <trkpt lat="47.45398" lon="6.72711">
        <ele>457</ele>
        <time>2015-08-02T09:03:04Z</time>
      </trkpt>
      <trkpt lat="47.45402" lon="6.72714">
        <ele>457</ele>
        <time>2015-08-02T09:03:05Z</time>
      </trkpt>
      <trkpt lat="47.45406" lon="6.72718">
        <ele>457</ele>
        <time>2015-08-02T09:03:07Z</time>
      </trkpt>
      <trkpt lat="47.4541" lon="6.72721">
        <ele>457</ele>
        <time>2015-08-02T09:03:07Z</time>
      </trkpt>
      <trkpt lat="47.45415" lon="6.72722">
        <ele>457</ele>
        <time>2015-08-02T09:03:08Z</time>
      </trkpt>
      <trkpt lat="47.4542" lon="6.72723">
        <ele>456</ele>
        <time>2015-08-02T09:03:09Z</time>
      </trkpt>
      <trkpt lat="47.45425" lon="6.72723">
        <ele>456</ele>
        <time>2015-08-02T09:03:09Z</time>
      </trkpt>
      <trkpt lat="47.45435" lon="6.72722">
        <ele>456</ele>
        <time>2015-08-02T09:03:12Z</time>
      </trkpt>
      <trkpt lat="47.45439" lon="6.72726">
        <ele>456</ele>
        <time>2015-08-02T09:03:12Z</time>
      </trkpt>
      <trkpt lat="47.45443" lon="6.72731">
        <ele>456</ele>
        <time>2015-08-02T09:03:13Z</time>
      </trkpt>
      <trkpt lat="47.45444" lon="6.72735">
        <ele>456</ele>
        <time>2015-08-02T09:03:13Z</time>
      </trkpt>
      <trkpt lat="47.45444" lon="6.72741">
        <ele>456</ele>
        <time>2015-08-02T09:03:13Z</time>
      </trkpt>
      <trkpt lat="47.45443" lon="6.72746">
        <ele>456</ele>
        <time>2015-08-02T09:03:14Z</time>
      </trkpt>
      <trkpt lat="47.45442" lon="6.72752">
        <ele>461</ele>
        <time>2015-08-02T09:03:15Z</time>
      </trkpt>
      <trkpt lat="47.4544" lon="6.72755">
        <ele>461</ele>
        <time>2015-08-02T09:03:15Z</time>
      </trkpt>
      <trkpt lat="47.4544" lon="6.72761">
        <ele>461</ele>
        <time>2015-08-02T09:03:17Z</time>
      </trkpt>
      <trkpt lat="47.45442" lon="6.72764">
        <ele>461</ele>
        <time>2015-08-02T09:03:18Z</time>
      </trkpt>
      <trkpt lat="47.45444" lon="6.72767">
        <ele>462</ele>
        <time>2015-08-02T09:03:19Z</time>
      </trkpt>
      <trkpt lat="47.45449" lon="6.72771">
        <ele>462</ele>
        <time>2015-08-02T09:03:21Z</time>
      </trkpt>
      <trkpt lat="47.45452" lon="6.72772">
        <ele>462</ele>
        <time>2015-08-02T09:03:22Z</time>
      </trkpt>
      <trkpt lat="47.45456" lon="6.72772">
        <ele>462</ele>
        <time>2015-08-02T09:03:22Z</time>
      </trkpt>
      <trkpt lat="47.4546" lon="6.72773">
        <ele>462</ele>
        <time>2015-08-02T09:03:23Z</time>
      </trkpt>
      <trkpt lat="47.45464" lon="6.72774">
        <ele>462</ele>
        <time>2015-08-02T09:03:23Z</time>
      </trkpt>
      <trkpt lat="47.45469" lon="6.72775">
        <ele>462</ele>
        <time>2015-08-02T09:03:23Z</time>
      </trkpt>
      <trkpt lat="47.45474" lon="6.72776">
        <ele>462</ele>
        <time>2015-08-02T09:03:24Z</time>
      </trkpt>
      <trkpt lat="47.45478" lon="6.7278">
        <ele>462</ele>
        <time>2015-08-02T09:03:25Z</time>
      </trkpt>
      <trkpt lat="47.45483" lon="6.72785">
        <ele>462</ele>
        <time>2015-08-02T09:03:25Z</time>
      </trkpt>
      <trkpt lat="47.45486" lon="6.7279">
        <ele>463</ele>
        <time>2015-08-02T09:03:26Z</time>
      </trkpt>
      <trkpt lat="47.4549" lon="6.72795">
        <ele>463</ele>
        <time>2015-08-02T09:03:28Z</time>
      </trkpt>
      <trkpt lat="47.45499" lon="6.7281">
        <ele>465</ele>
        <time>2015-08-02T09:03:30Z</time>
      </trkpt>
      <trkpt lat="47.45502" lon="6.72815">
        <ele>463</ele>
        <time>2015-08-02T09:03:30Z</time>
      </trkpt>
      <trkpt lat="47.45505" lon="6.72821">
        <ele>464</ele>
        <time>2015-08-02T09:03:31Z</time>
      </trkpt>
      <trkpt lat="47.45508" lon="6.72827">
        <ele>465</ele>
        <time>2015-08-02T09:03:32Z</time>
      </trkpt>
      <trkpt lat="47.4551" lon="6.72835">
        <ele>468</ele>
        <time>2015-08-02T09:03:32Z</time>
      </trkpt>
      <trkpt lat="47.45512" lon="6.72842">
        <ele>467</ele>
        <time>2015-08-02T09:03:33Z</time>
      </trkpt>
      <trkpt lat="47.45513" lon="6.72849">
        <ele>467</ele>
        <time>2015-08-02T09:03:34Z</time>
      </trkpt>
      <trkpt lat="47.45516" lon="6.72866">
        <ele>466</ele>
        <time>2015-08-02T09:03:36Z</time>
      </trkpt>
      <trkpt lat="47.45517" lon="6.72871">
        <ele>466</ele>
        <time>2015-08-02T09:03:36Z</time>
      </trkpt>
      <trkpt lat="47.45519" lon="6.72876">
        <ele>466</ele>
        <time>2015-08-02T09:03:37Z</time>
      </trkpt>
      <trkpt lat="47.45524" lon="6.72888">
        <ele>467</ele>
        <time>2015-08-02T09:03:39Z</time>
      </trkpt>
      <trkpt lat="47.45526" lon="6.72892">
        <ele>467</ele>
        <time>2015-08-02T09:03:40Z</time>
      </trkpt>
      <trkpt lat="47.45531" lon="6.72902">
        <ele>467</ele>
        <time>2015-08-02T09:03:43Z</time>
      </trkpt>
      <trkpt lat="47.45543" lon="6.72922">
        <ele>468</ele>
        <time>2015-08-02T09:03:46Z</time>
      </trkpt>
      <trkpt lat="47.45555" lon="6.72949">
        <ele>468</ele>
        <time>2015-08-02T09:03:50Z</time>
      </trkpt>
      <trkpt lat="47.45561" lon="6.72965">
        <ele>468</ele>
        <time>2015-08-02T09:03:52Z</time>
      </trkpt>
      <trkpt lat="47.45566" lon="6.72977">
        <ele>468</ele>
        <time>2015-08-02T09:03:53Z</time>
      </trkpt>
      <trkpt lat="47.4557" lon="6.72984">
        <ele>468</ele>
        <time>2015-08-02T09:03:53Z</time>
      </trkpt>
      <trkpt lat="47.45577" lon="6.72996">
        <ele>468</ele>
        <time>2015-08-02T09:03:54Z</time>
      </trkpt>
      <trkpt lat="47.45581" lon="6.73002">
        <ele>468</ele>
        <time>2015-08-02T09:03:55Z</time>
      </trkpt>
      <trkpt lat="47.45584" lon="6.7301">
        <ele>468</ele>
        <time>2015-08-02T09:03:56Z</time>
      </trkpt>
      <trkpt lat="47.45589" lon="6.73024">
        <ele>467</ele>
        <time>2015-08-02T09:03:58Z</time>
      </trkpt>
      <trkpt lat="47.45591" lon="6.73031">
        <ele>467</ele>
        <time>2015-08-02T09:03:59Z</time>
      </trkpt>
      <trkpt lat="47.45593" lon="6.73037">
        <ele>467</ele>
        <time>2015-08-02T09:03:59Z</time>
      </trkpt>
      <trkpt lat="47.45594" lon="6.73045">
        <ele>467</ele>
        <time>2015-08-02T09:04:00Z</time>
      </trkpt>
      <trkpt lat="47.45594" lon="6.73053">
        <ele>468</ele>
        <time>2015-08-02T09:04:01Z</time>
      </trkpt>
      <trkpt lat="47.45595" lon="6.73057">
        <ele>468</ele>
        <time>2015-08-02T09:04:01Z</time>
      </trkpt>
      <trkpt lat="47.45597" lon="6.73059">
        <ele>468</ele>
        <time>2015-08-02T09:04:03Z</time>
      </trkpt>
      <trkpt lat="47.456" lon="6.73061">
        <ele>468</ele>
        <time>2015-08-02T09:04:03Z</time>
      </trkpt>
      <trkpt lat="47.45601" lon="6.73065">
        <ele>468</ele>
        <time>2015-08-02T09:04:03Z</time>
      </trkpt>
      <trkpt lat="47.45602" lon="6.73072">
        <ele>468</ele>
        <time>2015-08-02T09:04:04Z</time>
      </trkpt>
      <trkpt lat="47.45601" lon="6.73106">
        <ele>469</ele>
        <time>2015-08-02T09:04:05Z</time>
      </trkpt>
      <trkpt lat="47.456" lon="6.73117">
        <ele>469</ele>
        <time>2015-08-02T09:04:05Z</time>
      </trkpt>
      <trkpt lat="47.45599" lon="6.73125">
        <ele>469</ele>
        <time>2015-08-02T09:04:06Z</time>
      </trkpt>
      <trkpt lat="47.45598" lon="6.73132">
        <ele>469</ele>
        <time>2015-08-02T09:04:07Z</time>
      </trkpt>
      <trkpt lat="47.45597" lon="6.73138">
        <ele>469</ele>
        <time>2015-08-02T09:04:07Z</time>
      </trkpt>
      <trkpt lat="47.45597" lon="6.73144">
        <ele>470</ele>
        <time>2015-08-02T09:04:08Z</time>
      </trkpt>
      <trkpt lat="47.45596" lon="6.7315">
        <ele>470</ele>
        <time>2015-08-02T09:04:09Z</time>
      </trkpt>
      <trkpt lat="47.45597" lon="6.73158">
        <ele>470</ele>
        <time>2015-08-02T09:04:09Z</time>
      </trkpt>
      <trkpt lat="47.45598" lon="6.73166">
        <ele>470</ele>
        <time>2015-08-02T09:04:10Z</time>
      </trkpt>
      <trkpt lat="47.45604" lon="6.73189">
        <ele>469</ele>
        <time>2015-08-02T09:04:11Z</time>
      </trkpt>
      <trkpt lat="47.45605" lon="6.73197">
        <ele>469</ele>
        <time>2015-08-02T09:04:11Z</time>
      </trkpt>
      <trkpt lat="47.45608" lon="6.73213">
        <ele>468</ele>
        <time>2015-08-02T09:04:13Z</time>
      </trkpt>
      <trkpt lat="47.45607" lon="6.73227">
        <ele>468</ele>
        <time>2015-08-02T09:04:13Z</time>
      </trkpt>
      <trkpt lat="47.45604" lon="6.73236">
        <ele>468</ele>
        <time>2015-08-02T09:04:14Z</time>
      </trkpt>
      <trkpt lat="47.45601" lon="6.73245">
        <ele>468</ele>
        <time>2015-08-02T09:04:16Z</time>
      </trkpt>
      <trkpt lat="47.45598" lon="6.73253">
        <ele>465</ele>
        <time>2015-08-02T09:04:16Z</time>
      </trkpt>
      <trkpt lat="47.45596" lon="6.73261">
        <ele>465</ele>
        <time>2015-08-02T09:04:17Z</time>
      </trkpt>
      <trkpt lat="47.45593" lon="6.73268">
        <ele>465</ele>
        <time>2015-08-02T09:04:18Z</time>
      </trkpt>
      <trkpt lat="47.45589" lon="6.73275">
        <ele>464</ele>
        <time>2015-08-02T09:04:18Z</time>
      </trkpt>
      <trkpt lat="47.45585" lon="6.73284">
        <ele>464</ele>
        <time>2015-08-02T09:04:19Z</time>
      </trkpt>
      <trkpt lat="47.45575" lon="6.7329">
        <ele>463</ele>
        <time>2015-08-02T09:04:20Z</time>
      </trkpt>
      <trkpt lat="47.45568" lon="6.73296">
        <ele>463</ele>
        <time>2015-08-02T09:04:20Z</time>
      </trkpt>
      <trkpt lat="47.45562" lon="6.73299">
        <ele>463</ele>
        <time>2015-08-02T09:04:21Z</time>
      </trkpt>
      <trkpt lat="47.45556" lon="6.73303">
        <ele>463</ele>
        <time>2015-08-02T09:04:22Z</time>
      </trkpt>
      <trkpt lat="47.45549" lon="6.73307">
        <ele>463</ele>
        <time>2015-08-02T09:04:22Z</time>
      </trkpt>
      <trkpt lat="47.45544" lon="6.73312">
        <ele>463</ele>
        <time>2015-08-02T09:04:23Z</time>
      </trkpt>
      <trkpt lat="47.45539" lon="6.73318">
        <ele>463</ele>
        <time>2015-08-02T09:04:23Z</time>
      </trkpt>
      <trkpt lat="47.45536" lon="6.73326">
        <ele>463</ele>
        <time>2015-08-02T09:04:23Z</time>
      </trkpt>
      <trkpt lat="47.45531" lon="6.7333">
        <ele>463</ele>
        <time>2015-08-02T09:04:24Z</time>
      </trkpt>
      <trkpt lat="47.45529" lon="6.73334">
        <ele>462</ele>
        <time>2015-08-02T09:04:25Z</time>
      </trkpt>
      <trkpt lat="47.45516" lon="6.73343">
        <ele>463</ele>
        <time>2015-08-02T09:04:25Z</time>
      </trkpt>
      <trkpt lat="47.45509" lon="6.73345">
        <ele>463</ele>
        <time>2015-08-02T09:04:26Z</time>
      </trkpt>
      <trkpt lat="47.45496" lon="6.73353">
        <ele>464</ele>
        <time>2015-08-02T09:04:28Z</time>
      </trkpt>
      <trkpt lat="47.45492" lon="6.73356">
        <ele>464</ele>
        <time>2015-08-02T09:04:29Z</time>
      </trkpt>
      <trkpt lat="47.45487" lon="6.73358">
        <ele>464</ele>
        <time>2015-08-02T09:04:31Z</time>
      </trkpt>
      <trkpt lat="47.4548" lon="6.7336">
        <ele>464</ele>
        <time>2015-08-02T09:04:31Z</time>
      </trkpt>
      <trkpt lat="47.45477" lon="6.73365">
        <ele>464</ele>
        <time>2015-08-02T09:04:32Z</time>
      </trkpt>
      <trkpt lat="47.45476" lon="6.73372">
        <ele>464</ele>
        <time>2015-08-02T09:04:33Z</time>
      </trkpt>
      <trkpt lat="47.45474" lon="6.73378">
        <ele>464</ele>
        <time>2015-08-02T09:04:33Z</time>
      </trkpt>
      <trkpt lat="47.45472" lon="6.73384">
        <ele>464</ele>
        <time>2015-08-02T09:04:33Z</time>
      </trkpt>
      <trkpt lat="47.45471" lon="6.73393">
        <ele>464</ele>
        <time>2015-08-02T09:04:34Z</time>
      </trkpt>
      <trkpt lat="47.45468" lon="6.73399">
        <ele>464</ele>
        <time>2015-08-02T09:04:34Z</time>
      </trkpt>
      <trkpt lat="47.45467" lon="6.73405">
        <ele>464</ele>
        <time>2015-08-02T09:04:35Z</time>
      </trkpt>
      <trkpt lat="47.45462" lon="6.7342">
        <ele>465</ele>
        <time>2015-08-02T09:04:36Z</time>
      </trkpt>
      <trkpt lat="47.4546" lon="6.73429">
        <ele>465</ele>
        <time>2015-08-02T09:04:36Z</time>
      </trkpt>
      <trkpt lat="47.45458" lon="6.73439">
        <ele>465</ele>
        <time>2015-08-02T09:04:37Z</time>
      </trkpt>
      <trkpt lat="47.4546" lon="6.73446">
        <ele>465</ele>
        <time>2015-08-02T09:04:38Z</time>
      </trkpt>
      <trkpt lat="47.4546" lon="6.73453">
        <ele>465</ele>
        <time>2015-08-02T09:04:38Z</time>
      </trkpt>
      <trkpt lat="47.45462" lon="6.73463">
        <ele>465</ele>
        <time>2015-08-02T09:04:39Z</time>
      </trkpt>
      <trkpt lat="47.45462" lon="6.73477">
        <ele>465</ele>
        <time>2015-08-02T09:04:40Z</time>
      </trkpt>
      <trkpt lat="47.45463" lon="6.73489">
        <ele>465</ele>
        <time>2015-08-02T09:04:40Z</time>
      </trkpt>
      <trkpt lat="47.45465" lon="6.73505">
        <ele>464</ele>
        <time>2015-08-02T09:04:41Z</time>
      </trkpt>
      <trkpt lat="47.45466" lon="6.73521">
        <ele>464</ele>
        <time>2015-08-02T09:04:42Z</time>
      </trkpt>
      <trkpt lat="47.45467" lon="6.73529">
        <ele>464</ele>
        <time>2015-08-02T09:04:42Z</time>
      </trkpt>
      <trkpt lat="47.45465" lon="6.73535">
        <ele>464</ele>
        <time>2015-08-02T09:04:45Z</time>
      </trkpt>
      <trkpt lat="47.45465" lon="6.7354">
        <ele>464</ele>
        <time>2015-08-02T09:04:45Z</time>
      </trkpt>
      <trkpt lat="47.45463" lon="6.73553">
        <ele>464</ele>
        <time>2015-08-02T09:04:46Z</time>
      </trkpt>
      <trkpt lat="47.45464" lon="6.7356">
        <ele>464</ele>
        <time>2015-08-02T09:04:47Z</time>
      </trkpt>
      <trkpt lat="47.45465" lon="6.73564">
        <ele>464</ele>
        <time>2015-08-02T09:04:48Z</time>
      </trkpt>
      <trkpt lat="47.45469" lon="6.73569">
        <ele>464</ele>
        <time>2015-08-02T09:04:49Z</time>
      </trkpt>
      <trkpt lat="47.45473" lon="6.73569">
        <ele>464</ele>
        <time>2015-08-02T09:04:50Z</time>
      </trkpt>
      <trkpt lat="47.45476" lon="6.73572">
        <ele>465</ele>
        <time>2015-08-02T09:04:51Z</time>
      </trkpt>
      <trkpt lat="47.45479" lon="6.73573">
        <ele>465</ele>
        <time>2015-08-02T09:04:51Z</time>
      </trkpt>
      <trkpt lat="47.45482" lon="6.73573">
        <ele>465</ele>
        <time>2015-08-02T09:04:52Z</time>
      </trkpt>
      <trkpt lat="47.45485" lon="6.73575">
        <ele>465</ele>
        <time>2015-08-02T09:04:53Z</time>
      </trkpt>
      <trkpt lat="47.45492" lon="6.73586">
        <ele>465</ele>
        <time>2015-08-02T09:04:54Z</time>
      </trkpt>
      <trkpt lat="47.45497" lon="6.73597">
        <ele>464</ele>
        <time>2015-08-02T09:04:55Z</time>
      </trkpt>
      <trkpt lat="47.455" lon="6.73602">
        <ele>464</ele>
        <time>2015-08-02T09:04:57Z</time>
      </trkpt>
      <trkpt lat="47.45504" lon="6.73607">
        <ele>463</ele>
        <time>2015-08-02T09:04:57Z</time>
      </trkpt>
      <trkpt lat="47.45508" lon="6.73611">
        <ele>463</ele>
        <time>2015-08-02T09:04:58Z</time>
      </trkpt>
      <trkpt lat="47.45513" lon="6.73615">
        <ele>462</ele>
        <time>2015-08-02T09:04:59Z</time>
      </trkpt>
      <trkpt lat="47.45518" lon="6.73618">
        <ele>462</ele>
        <time>2015-08-02T09:04:59Z</time>
      </trkpt>
      <trkpt lat="47.45524" lon="6.7362">
        <ele>462</ele>
        <time>2015-08-02T09:05:01Z</time>
      </trkpt>
      <trkpt lat="47.45533" lon="6.73623">
        <ele>462</ele>
        <time>2015-08-02T09:05:02Z</time>
      </trkpt>
      <trkpt lat="47.45542" lon="6.73627">
        <ele>461</ele>
        <time>2015-08-02T09:05:03Z</time>
      </trkpt>
      <trkpt lat="47.4555" lon="6.73631">
        <ele>461</ele>
        <time>2015-08-02T09:05:04Z</time>
      </trkpt>
      <trkpt lat="47.45554" lon="6.73633">
        <ele>461</ele>
        <time>2015-08-02T09:05:05Z</time>
      </trkpt>
      <trkpt lat="47.45558" lon="6.73634">
        <ele>461</ele>
        <time>2015-08-02T09:05:05Z</time>
      </trkpt>
      <trkpt lat="47.45562" lon="6.73635">
        <ele>461</ele>
        <time>2015-08-02T09:05:06Z</time>
      </trkpt>
      <trkpt lat="47.45566" lon="6.73636">
        <ele>461</ele>
        <time>2015-08-02T09:05:07Z</time>
      </trkpt>
      <trkpt lat="47.45576" lon="6.73635">
        <ele>460</ele>
        <time>2015-08-02T09:05:09Z</time>
      </trkpt>
      <trkpt lat="47.45579" lon="6.73636">
        <ele>460</ele>
        <time>2015-08-02T09:05:09Z</time>
      </trkpt>
      <trkpt lat="47.45582" lon="6.73637">
        <ele>460</ele>
        <time>2015-08-02T09:05:11Z</time>
      </trkpt>
      <trkpt lat="47.45585" lon="6.73638">
        <ele>457</ele>
        <time>2015-08-02T09:05:12Z</time>
      </trkpt>
      <trkpt lat="47.45588" lon="6.73641">
        <ele>457</ele>
        <time>2015-08-02T09:05:12Z</time>
      </trkpt>
      <trkpt lat="47.45592" lon="6.73643">
        <ele>457</ele>
        <time>2015-08-02T09:05:13Z</time>
      </trkpt>
      <trkpt lat="47.45596" lon="6.73645">
        <ele>457</ele>
        <time>2015-08-02T09:05:14Z</time>
      </trkpt>
      <trkpt lat="47.45603" lon="6.73648">
        <ele>457</ele>
        <time>2015-08-02T09:05:15Z</time>
      </trkpt>
      <trkpt lat="47.45607" lon="6.7365">
        <ele>457</ele>
        <time>2015-08-02T09:05:16Z</time>
      </trkpt>
      <trkpt lat="47.45608" lon="6.73651">
        <ele>457</ele>
        <time>2015-08-02T09:05:17Z</time>
      </trkpt>
      <trkpt lat="47.45611" lon="6.73654">
        <ele>457</ele>
        <time>2015-08-02T09:05:18Z</time>
      </trkpt>
      <trkpt lat="47.45614" lon="6.73654">
        <ele>456</ele>
        <time>2015-08-02T09:05:19Z</time>
      </trkpt>
      <trkpt lat="47.45616" lon="6.73655">
        <ele>456</ele>
        <time>2015-08-02T09:05:20Z</time>
      </trkpt>
      <trkpt lat="47.45621" lon="6.73656">
        <ele>456</ele>
        <time>2015-08-02T09:05:21Z</time>
      </trkpt>
      <trkpt lat="47.45629" lon="6.73659">
        <ele>456</ele>
        <time>2015-08-02T09:05:23Z</time>
      </trkpt>
      <trkpt lat="47.45633" lon="6.73662">
        <ele>455</ele>
        <time>2015-08-02T09:05:25Z</time>
      </trkpt>
      <trkpt lat="47.45633" lon="6.73663">
        <ele>455</ele>
        <time>2015-08-02T09:05:26Z</time>
      </trkpt>
      <trkpt lat="47.45637" lon="6.73664">
        <ele>455</ele>
        <time>2015-08-02T09:05:43Z</time>
      </trkpt>
      <trkpt lat="47.45638" lon="6.73666">
        <ele>455</ele>
        <time>2015-08-02T09:05:43Z</time>
      </trkpt>
      <trkpt lat="47.4564" lon="6.7367">
        <ele>456</ele>
        <time>2015-08-02T09:05:44Z</time>
      </trkpt>
      <trkpt lat="47.4564" lon="6.73672">
        <ele>456</ele>
        <time>2015-08-02T09:05:45Z</time>
      </trkpt>
      <trkpt lat="47.45641" lon="6.7368">
        <ele>456</ele>
        <time>2015-08-02T09:05:48Z</time>
      </trkpt>
      <trkpt lat="47.45641" lon="6.73689">
        <ele>456</ele>
        <time>2015-08-02T09:05:50Z</time>
      </trkpt>
      <trkpt lat="47.45639" lon="6.73699">
        <ele>456</ele>
        <time>2015-08-02T09:05:53Z</time>
      </trkpt>
      <trkpt lat="47.45637" lon="6.73707">
        <ele>456</ele>
        <time>2015-08-02T09:05:53Z</time>
      </trkpt>
      <trkpt lat="47.45636" lon="6.73711">
        <ele>457</ele>
        <time>2015-08-02T09:05:54Z</time>
      </trkpt>
      <trkpt lat="47.45634" lon="6.73716">
        <ele>457</ele>
        <time>2015-08-02T09:05:55Z</time>
      </trkpt>
      <trkpt lat="47.45626" lon="6.73731">
        <ele>457</ele>
        <time>2015-08-02T09:05:57Z</time>
      </trkpt>
      <trkpt lat="47.45624" lon="6.73737">
        <ele>457</ele>
        <time>2015-08-02T09:05:57Z</time>
      </trkpt>
      <trkpt lat="47.45623" lon="6.73743">
        <ele>457</ele>
        <time>2015-08-02T09:05:59Z</time>
      </trkpt>
      <trkpt lat="47.45622" lon="6.73749">
        <ele>457</ele>
        <time>2015-08-02T09:06:00Z</time>
      </trkpt>
      <trkpt lat="47.45624" lon="6.73761">
        <ele>457</ele>
        <time>2015-08-02T09:06:00Z</time>
      </trkpt>
      <trkpt lat="47.45623" lon="6.73767">
        <ele>457</ele>
        <time>2015-08-02T09:06:01Z</time>
      </trkpt>
      <trkpt lat="47.45623" lon="6.73774">
        <ele>457</ele>
        <time>2015-08-02T09:06:02Z</time>
      </trkpt>
      <trkpt lat="47.45622" lon="6.73782">
        <ele>457</ele>
        <time>2015-08-02T09:06:02Z</time>
      </trkpt>
      <trkpt lat="47.45619" lon="6.73792">
        <ele>457</ele>
        <time>2015-08-02T09:06:03Z</time>
      </trkpt>
      <trkpt lat="47.45618" lon="6.73801">
        <ele>456</ele>
        <time>2015-08-02T09:06:03Z</time>
      </trkpt>
      <trkpt lat="47.45619" lon="6.73808">
        <ele>456</ele>
        <time>2015-08-02T09:06:03Z</time>
      </trkpt>
      <trkpt lat="47.45617" lon="6.73817">
        <ele>456</ele>
        <time>2015-08-02T09:06:04Z</time>
      </trkpt>
      <trkpt lat="47.45617" lon="6.73826">
        <ele>456</ele>
        <time>2015-08-02T09:06:05Z</time>
      </trkpt>
      <trkpt lat="47.45617" lon="6.73835">
        <ele>456</ele>
        <time>2015-08-02T09:06:05Z</time>
      </trkpt>
      <trkpt lat="47.45614" lon="6.73844">
        <ele>456</ele>
        <time>2015-08-02T09:06:07Z</time>
      </trkpt>
      <trkpt lat="47.45611" lon="6.73854">
        <ele>456</ele>
        <time>2015-08-02T09:06:08Z</time>
      </trkpt>
      <trkpt lat="47.45613" lon="6.73866">
        <ele>456</ele>
        <time>2015-08-02T09:06:08Z</time>
      </trkpt>
      <trkpt lat="47.45613" lon="6.73877">
        <ele>456</ele>
        <time>2015-08-02T09:06:09Z</time>
      </trkpt>
      <trkpt lat="47.45616" lon="6.73887">
        <ele>456</ele>
        <time>2015-08-02T09:06:10Z</time>
      </trkpt>
      <trkpt lat="47.45618" lon="6.73896">
        <ele>456</ele>
        <time>2015-08-02T09:06:10Z</time>
      </trkpt>
      <trkpt lat="47.45624" lon="6.73904">
        <ele>456</ele>
        <time>2015-08-02T09:06:11Z</time>
      </trkpt>
      <trkpt lat="47.45633" lon="6.73911">
        <ele>455</ele>
        <time>2015-08-02T09:06:12Z</time>
      </trkpt>
      <trkpt lat="47.4564" lon="6.73918">
        <ele>455</ele>
        <time>2015-08-02T09:06:12Z</time>
      </trkpt>
      <trkpt lat="47.45646" lon="6.73929">
        <ele>454</ele>
        <time>2015-08-02T09:06:13Z</time>
      </trkpt>
      <trkpt lat="47.4566" lon="6.73947">
        <ele>454</ele>
        <time>2015-08-02T09:06:13Z</time>
      </trkpt>
      <trkpt lat="47.45666" lon="6.73951">
        <ele>454</ele>
        <time>2015-08-02T09:06:14Z</time>
      </trkpt>
      <trkpt lat="47.45673" lon="6.73957">
        <ele>449</ele>
        <time>2015-08-02T09:06:15Z</time>
      </trkpt>
      <trkpt lat="47.45681" lon="6.73965">
        <ele>449</ele>
        <time>2015-08-02T09:06:15Z</time>
      </trkpt>
      <trkpt lat="47.45687" lon="6.73975">
        <ele>449</ele>
        <time>2015-08-02T09:06:16Z</time>
      </trkpt>
      <trkpt lat="47.45691" lon="6.73988">
        <ele>449</ele>
        <time>2015-08-02T09:06:17Z</time>
      </trkpt>
      <trkpt lat="47.45692" lon="6.73996">
        <ele>449</ele>
        <time>2015-08-02T09:06:17Z</time>
      </trkpt>
      <trkpt lat="47.45694" lon="6.73998">
        <ele>449</ele>
        <time>2015-08-02T09:06:18Z</time>
      </trkpt>
      <trkpt lat="47.457" lon="6.73999">
        <ele>449</ele>
        <time>2015-08-02T09:06:21Z</time>
      </trkpt>
      <trkpt lat="47.45713" lon="6.74002">
        <ele>446</ele>
        <time>2015-08-02T09:06:22Z</time>
      </trkpt>
      <trkpt lat="47.4572" lon="6.74008">
        <ele>445</ele>
        <time>2015-08-02T09:06:23Z</time>
      </trkpt>
      <trkpt lat="47.45727" lon="6.74015">
        <ele>445</ele>
        <time>2015-08-02T09:06:23Z</time>
      </trkpt>
      <trkpt lat="47.45733" lon="6.74022">
        <ele>444</ele>
        <time>2015-08-02T09:06:23Z</time>
      </trkpt>
      <trkpt lat="47.4574" lon="6.74025">
        <ele>444</ele>
        <time>2015-08-02T09:06:24Z</time>
      </trkpt>
      <trkpt lat="47.45743" lon="6.7403">
        <ele>444</ele>
        <time>2015-08-02T09:06:24Z</time>
      </trkpt>
      <trkpt lat="47.45747" lon="6.7404">
        <ele>443</ele>
        <time>2015-08-02T09:06:25Z</time>
      </trkpt>
      <trkpt lat="47.45755" lon="6.7406">
        <ele>437</ele>
        <time>2015-08-02T09:06:26Z</time>
      </trkpt>
      <trkpt lat="47.45759" lon="6.74069">
        <ele>437</ele>
        <time>2015-08-02T09:06:27Z</time>
      </trkpt>
      <trkpt lat="47.45764" lon="6.74077">
        <ele>437</ele>
        <time>2015-08-02T09:06:28Z</time>
      </trkpt>
      <trkpt lat="47.45767" lon="6.74084">
        <ele>435</ele>
        <time>2015-08-02T09:06:28Z</time>
      </trkpt>
      <trkpt lat="47.4577" lon="6.74097">
        <ele>434</ele>
        <time>2015-08-02T09:06:29Z</time>
      </trkpt>
      <trkpt lat="47.45774" lon="6.74106">
        <ele>433</ele>
        <time>2015-08-02T09:06:30Z</time>
      </trkpt>
      <trkpt lat="47.4578" lon="6.74114">
        <ele>433</ele>
        <time>2015-08-02T09:06:30Z</time>
      </trkpt>
      <trkpt lat="47.45784" lon="6.74118">
        <ele>433</ele>
        <time>2015-08-02T09:06:31Z</time>
      </trkpt>
      <trkpt lat="47.45791" lon="6.74126">
        <ele>432</ele>
        <time>2015-08-02T09:06:32Z</time>
      </trkpt>
      <trkpt lat="47.45796" lon="6.74135">
        <ele>432</ele>
        <time>2015-08-02T09:06:32Z</time>
      </trkpt>
      <trkpt lat="47.458" lon="6.74137">
        <ele>432</ele>
        <time>2015-08-02T09:06:34Z</time>
      </trkpt>
      <trkpt lat="47.45805" lon="6.74145">
        <ele>431</ele>
        <time>2015-08-02T09:06:35Z</time>
      </trkpt>
      <trkpt lat="47.45818" lon="6.74157">
        <ele>430</ele>
        <time>2015-08-02T09:06:37Z</time>
      </trkpt>
      <trkpt lat="47.4582" lon="6.74161">
        <ele>430</ele>
        <time>2015-08-02T09:06:38Z</time>
      </trkpt>
      <trkpt lat="47.45824" lon="6.74163">
        <ele>429</ele>
        <time>2015-08-02T09:06:39Z</time>
      </trkpt>
      <trkpt lat="47.45827" lon="6.74165">
        <ele>429</ele>
        <time>2015-08-02T09:06:39Z</time>
      </trkpt>
      <trkpt lat="47.4583" lon="6.74166">
        <ele>429</ele>
        <time>2015-08-02T09:06:40Z</time>
      </trkpt>
      <trkpt lat="47.45833" lon="6.74165">
        <ele>428</ele>
        <time>2015-08-02T09:06:41Z</time>
      </trkpt>
      <trkpt lat="47.45841" lon="6.74165">
        <ele>428</ele>
        <time>2015-08-02T09:06:43Z</time>
      </trkpt>
      <trkpt lat="47.45848" lon="6.74164">
        <ele>428</ele>
        <time>2015-08-02T09:06:44Z</time>
      </trkpt>
      <trkpt lat="47.45851" lon="6.74164">
        <ele>428</ele>
        <time>2015-08-02T09:06:45Z</time>
      </trkpt>
      <trkpt lat="47.45855" lon="6.74165">
        <ele>428</ele>
        <time>2015-08-02T09:06:45Z</time>
      </trkpt>
      <trkpt lat="47.45864" lon="6.74167">
        <ele>421</ele>
        <time>2015-08-02T09:06:48Z</time>
      </trkpt>
      <trkpt lat="47.45891" lon="6.74175">
        <ele>420</ele>
        <time>2015-08-02T09:06:50Z</time>
      </trkpt>
      <trkpt lat="47.45897" lon="6.74177">
        <ele>420</ele>
        <time>2015-08-02T09:06:51Z</time>
      </trkpt>
      <trkpt lat="47.45902" lon="6.74178">
        <ele>420</ele>
        <time>2015-08-02T09:06:52Z</time>
      </trkpt>
      <trkpt lat="47.45907" lon="6.74179">
        <ele>420</ele>
        <time>2015-08-02T09:06:52Z</time>
      </trkpt>
      <trkpt lat="47.45911" lon="6.74179">
        <ele>420</ele>
        <time>2015-08-02T09:06:53Z</time>
      </trkpt>
      <trkpt lat="47.45915" lon="6.7418">
        <ele>420</ele>
        <time>2015-08-02T09:06:53Z</time>
      </trkpt>
      <trkpt lat="47.45918" lon="6.74181">
        <ele>419</ele>
        <time>2015-08-02T09:06:53Z</time>
      </trkpt>
      <trkpt lat="47.45921" lon="6.7418">
        <ele>419</ele>
        <time>2015-08-02T09:06:54Z</time>
      </trkpt>
      <trkpt lat="47.45925" lon="6.74179">
        <ele>419</ele>
        <time>2015-08-02T09:06:55Z</time>
      </trkpt>
      <trkpt lat="47.45929" lon="6.74178">
        <ele>419</ele>
        <time>2015-08-02T09:06:55Z</time>
      </trkpt>
      <trkpt lat="47.4594" lon="6.74176">
        <ele>418</ele>
        <time>2015-08-02T09:06:57Z</time>
      </trkpt>
      <trkpt lat="47.45946" lon="6.74176">
        <ele>418</ele>
        <time>2015-08-02T09:06:57Z</time>
      </trkpt>
      <trkpt lat="47.45951" lon="6.74178">
        <ele>418</ele>
        <time>2015-08-02T09:06:58Z</time>
      </trkpt>
      <trkpt lat="47.45956" lon="6.7418">
        <ele>418</ele>
        <time>2015-08-02T09:06:59Z</time>
      </trkpt>
      <trkpt lat="47.4596" lon="6.74184">
        <ele>417</ele>
        <time>2015-08-02T09:06:59Z</time>
      </trkpt>
      <trkpt lat="47.45964" lon="6.74189">
        <ele>417</ele>
        <time>2015-08-02T09:07:00Z</time>
      </trkpt>
      <trkpt lat="47.45968" lon="6.74194">
        <ele>417</ele>
        <time>2015-08-02T09:07:02Z</time>
      </trkpt>
      <trkpt lat="47.45972" lon="6.74198">
        <ele>417</ele>
        <time>2015-08-02T09:07:02Z</time>
      </trkpt>
      <trkpt lat="47.45976" lon="6.74201">
        <ele>417</ele>
        <time>2015-08-02T09:07:03Z</time>
      </trkpt>
      <trkpt lat="47.4598" lon="6.74203">
        <ele>416</ele>
        <time>2015-08-02T09:07:03Z</time>
      </trkpt>
      <trkpt lat="47.45985" lon="6.74204">
        <ele>416</ele>
        <time>2015-08-02T09:07:04Z</time>
      </trkpt>
      <trkpt lat="47.45987" lon="6.74205">
        <ele>416</ele>
        <time>2015-08-02T09:07:05Z</time>
      </trkpt>
      <trkpt lat="47.45989" lon="6.74205">
        <ele>416</ele>
        <time>2015-08-02T09:07:05Z</time>
      </trkpt>
      <trkpt lat="47.45991" lon="6.74205">
        <ele>416</ele>
        <time>2015-08-02T09:07:07Z</time>
      </trkpt>
      <trkpt lat="47.45994" lon="6.74205">
        <ele>416</ele>
        <time>2015-08-02T09:07:08Z</time>
      </trkpt>
      <trkpt lat="47.45997" lon="6.74205">
        <ele>416</ele>
        <time>2015-08-02T09:07:08Z</time>
      </trkpt>
      <trkpt lat="47.46" lon="6.74205">
        <ele>417</ele>
        <time>2015-08-02T09:07:09Z</time>
      </trkpt>
      <trkpt lat="47.46004" lon="6.74205">
        <ele>417</ele>
        <time>2015-08-02T09:07:10Z</time>
      </trkpt>
      <trkpt lat="47.46007" lon="6.74205">
        <ele>417</ele>
        <time>2015-08-02T09:07:10Z</time>
      </trkpt>
      <trkpt lat="47.46011" lon="6.74204">
        <ele>418</ele>
        <time>2015-08-02T09:07:11Z</time>
      </trkpt>
      <trkpt lat="47.46014" lon="6.74204">
        <ele>418</ele>
        <time>2015-08-02T09:07:12Z</time>
      </trkpt>
      <trkpt lat="47.46017" lon="6.74204">
        <ele>418</ele>
        <time>2015-08-02T09:07:12Z</time>
      </trkpt>
      <trkpt lat="47.46022" lon="6.74205">
        <ele>418</ele>
        <time>2015-08-02T09:07:13Z</time>
      </trkpt>
      <trkpt lat="47.4603" lon="6.74206">
        <ele>418</ele>
        <time>2015-08-02T09:07:16Z</time>
      </trkpt>
      <trkpt lat="47.46038" lon="6.74208">
        <ele>417</ele>
        <time>2015-08-02T09:07:18Z</time>
      </trkpt>
      <trkpt lat="47.4604" lon="6.74208">
        <ele>417</ele>
        <time>2015-08-02T09:07:18Z</time>
      </trkpt>
      <trkpt lat="47.46043" lon="6.74208">
        <ele>418</ele>
        <time>2015-08-02T09:07:20Z</time>
      </trkpt>
      <trkpt lat="47.46049" lon="6.74207">
        <ele>418</ele>
        <time>2015-08-02T09:07:21Z</time>
      </trkpt>
      <trkpt lat="47.46052" lon="6.74207">
        <ele>418</ele>
        <time>2015-08-02T09:07:22Z</time>
      </trkpt>
      <trkpt lat="47.46059" lon="6.74207">
        <ele>418</ele>
        <time>2015-08-02T09:07:23Z</time>
      </trkpt>
      <trkpt lat="47.46064" lon="6.74206">
        <ele>418</ele>
        <time>2015-08-02T09:07:23Z</time>
      </trkpt>
      <trkpt lat="47.46069" lon="6.74205">
        <ele>418</ele>
        <time>2015-08-02T09:07:24Z</time>
      </trkpt>
      <trkpt lat="47.46074" lon="6.74205">
        <ele>418</ele>
        <time>2015-08-02T09:07:24Z</time>
      </trkpt>
      <trkpt lat="47.46077" lon="6.74205">
        <ele>418</ele>
        <time>2015-08-02T09:07:25Z</time>
      </trkpt>
      <trkpt lat="47.46081" lon="6.74206">
        <ele>418</ele>
        <time>2015-08-02T09:07:26Z</time>
      </trkpt>
      <trkpt lat="47.46091" lon="6.74212">
        <ele>418</ele>
        <time>2015-08-02T09:07:30Z</time>
      </trkpt>
      <trkpt lat="47.461" lon="6.74216">
        <ele>418</ele>
        <time>2015-08-02T09:07:31Z</time>
      </trkpt>
      <trkpt lat="47.46107" lon="6.74218">
        <ele>418</ele>
        <time>2015-08-02T09:07:32Z</time>
      </trkpt>
      <trkpt lat="47.46112" lon="6.74219">
        <ele>418</ele>
        <time>2015-08-02T09:07:33Z</time>
      </trkpt>
      <trkpt lat="47.46121" lon="6.74219">
        <ele>418</ele>
        <time>2015-08-02T09:07:33Z</time>
      </trkpt>
      <trkpt lat="47.46131" lon="6.74218">
        <ele>418</ele>
        <time>2015-08-02T09:07:35Z</time>
      </trkpt>
      <trkpt lat="47.46136" lon="6.74219">
        <ele>418</ele>
        <time>2015-08-02T09:07:35Z</time>
      </trkpt>
      <trkpt lat="47.4614" lon="6.7422">
        <ele>418</ele>
        <time>2015-08-02T09:07:36Z</time>
      </trkpt>
      <trkpt lat="47.46149" lon="6.74222">
        <ele>418</ele>
        <time>2015-08-02T09:07:37Z</time>
      </trkpt>
      <trkpt lat="47.46154" lon="6.74222">
        <ele>418</ele>
        <time>2015-08-02T09:07:38Z</time>
      </trkpt>
      <trkpt lat="47.46164" lon="6.74221">
        <ele>418</ele>
        <time>2015-08-02T09:07:40Z</time>
      </trkpt>
      <trkpt lat="47.4617" lon="6.74222">
        <ele>417</ele>
        <time>2015-08-02T09:07:41Z</time>
      </trkpt>
      <trkpt lat="47.46174" lon="6.74223">
        <ele>416</ele>
        <time>2015-08-02T09:07:41Z</time>
      </trkpt>
      <trkpt lat="47.46186" lon="6.74227">
        <ele>416</ele>
        <time>2015-08-02T09:07:43Z</time>
      </trkpt>
      <trkpt lat="47.46189" lon="6.74228">
        <ele>416</ele>
        <time>2015-08-02T09:07:44Z</time>
      </trkpt>
      <trkpt lat="47.46193" lon="6.74229">
        <ele>416</ele>
        <time>2015-08-02T09:07:45Z</time>
      </trkpt>
      <trkpt lat="47.46197" lon="6.74229">
        <ele>416</ele>
        <time>2015-08-02T09:07:45Z</time>
      </trkpt>
      <trkpt lat="47.46202" lon="6.7423">
        <ele>416</ele>
        <time>2015-08-02T09:07:46Z</time>
      </trkpt>
      <trkpt lat="47.46206" lon="6.74231">
        <ele>416</ele>
        <time>2015-08-02T09:07:47Z</time>
      </trkpt>
      <trkpt lat="47.4621" lon="6.74232">
        <ele>416</ele>
        <time>2015-08-02T09:07:47Z</time>
      </trkpt>
      <trkpt lat="47.46214" lon="6.74234">
        <ele>416</ele>
        <time>2015-08-02T09:07:48Z</time>
      </trkpt>
      <trkpt lat="47.46221" lon="6.7424">
        <ele>415</ele>
        <time>2015-08-02T09:07:49Z</time>
      </trkpt>
      <trkpt lat="47.46225" lon="6.74243">
        <ele>415</ele>
        <time>2015-08-02T09:07:50Z</time>
      </trkpt>
      <trkpt lat="47.46228" lon="6.74245">
        <ele>415</ele>
        <time>2015-08-02T09:07:51Z</time>
      </trkpt>
      <trkpt lat="47.46231" lon="6.74247">
        <ele>415</ele>
        <time>2015-08-02T09:07:51Z</time>
      </trkpt>
      <trkpt lat="47.46237" lon="6.74251">
        <ele>410</ele>
        <time>2015-08-02T09:07:53Z</time>
      </trkpt>
      <trkpt lat="47.46255" lon="6.74257">
        <ele>411</ele>
        <time>2015-08-02T09:07:57Z</time>
      </trkpt>
      <trkpt lat="47.46258" lon="6.74257">
        <ele>411</ele>
        <time>2015-08-02T09:07:58Z</time>
      </trkpt>
      <trkpt lat="47.46262" lon="6.74256">
        <ele>411</ele>
        <time>2015-08-02T09:07:59Z</time>
      </trkpt>
      <trkpt lat="47.46264" lon="6.74255">
        <ele>411</ele>
        <time>2015-08-02T09:08:00Z</time>
      </trkpt>
      <trkpt lat="47.46266" lon="6.74256">
        <ele>410</ele>
        <time>2015-08-02T09:08:00Z</time>
      </trkpt>
      <trkpt lat="47.46268" lon="6.74258">
        <ele>410</ele>
        <time>2015-08-02T09:08:01Z</time>
      </trkpt>
      <trkpt lat="47.46271" lon="6.74261">
        <ele>410</ele>
        <time>2015-08-02T09:08:02Z</time>
      </trkpt>
      <trkpt lat="47.46273" lon="6.74265">
        <ele>409</ele>
        <time>2015-08-02T09:08:02Z</time>
      </trkpt>
      <trkpt lat="47.46276" lon="6.74268">
        <ele>409</ele>
        <time>2015-08-02T09:08:03Z</time>
      </trkpt>
      <trkpt lat="47.46283" lon="6.74274">
        <ele>408</ele>
        <time>2015-08-02T09:08:03Z</time>
      </trkpt>
      <trkpt lat="47.46286" lon="6.74276">
        <ele>408</ele>
        <time>2015-08-02T09:08:04Z</time>
      </trkpt>
      <trkpt lat="47.4629" lon="6.74277">
        <ele>408</ele>
        <time>2015-08-02T09:08:06Z</time>
      </trkpt>
      <trkpt lat="47.46293" lon="6.74278">
        <ele>408</ele>
        <time>2015-08-02T09:08:06Z</time>
      </trkpt>
      <trkpt lat="47.463" lon="6.74279">
        <ele>408</ele>
        <time>2015-08-02T09:08:08Z</time>
      </trkpt>
      <trkpt lat="47.46304" lon="6.7428">
        <ele>408</ele>
        <time>2015-08-02T09:08:08Z</time>
      </trkpt>
      <trkpt lat="47.46307" lon="6.74281">
        <ele>408</ele>
        <time>2015-08-02T09:08:09Z</time>
      </trkpt>
      <trkpt lat="47.4631" lon="6.74282">
        <ele>408</ele>
        <time>2015-08-02T09:08:11Z</time>
      </trkpt>
      <trkpt lat="47.46314" lon="6.74282">
        <ele>408</ele>
        <time>2015-08-02T09:08:11Z</time>
      </trkpt>
      <trkpt lat="47.46317" lon="6.74282">
        <ele>409</ele>
        <time>2015-08-02T09:08:12Z</time>
      </trkpt>
      <trkpt lat="47.46321" lon="6.74282">
        <ele>409</ele>
        <time>2015-08-02T09:08:13Z</time>
      </trkpt>
      <trkpt lat="47.46324" lon="6.74282">
        <ele>409</ele>
        <time>2015-08-02T09:08:13Z</time>
      </trkpt>
      <trkpt lat="47.46328" lon="6.74284">
        <ele>409</ele>
        <time>2015-08-02T09:08:13Z</time>
      </trkpt>
      <trkpt lat="47.46331" lon="6.74286">
        <ele>408</ele>
        <time>2015-08-02T09:08:15Z</time>
      </trkpt>
      <trkpt lat="47.46334" lon="6.74288">
        <ele>409</ele>
        <time>2015-08-02T09:08:15Z</time>
      </trkpt>
      <trkpt lat="47.46337" lon="6.74289">
        <ele>409</ele>
        <time>2015-08-02T09:08:16Z</time>
      </trkpt>
      <trkpt lat="47.46345" lon="6.7429">
        <ele>408</ele>
        <time>2015-08-02T09:08:17Z</time>
      </trkpt>
      <trkpt lat="47.46349" lon="6.74291">
        <ele>408</ele>
        <time>2015-08-02T09:08:18Z</time>
      </trkpt>
      <trkpt lat="47.46353" lon="6.74292">
        <ele>408</ele>
        <time>2015-08-02T09:08:19Z</time>
      </trkpt>
      <trkpt lat="47.46357" lon="6.74295">
        <ele>408</ele>
        <time>2015-08-02T09:08:19Z</time>
      </trkpt>
      <trkpt lat="47.46361" lon="6.74298">
        <ele>408</ele>
        <time>2015-08-02T09:08:20Z</time>
      </trkpt>
      <trkpt lat="47.46369" lon="6.74304">
        <ele>408</ele>
        <time>2015-08-02T09:08:21Z</time>
      </trkpt>
      <trkpt lat="47.46374" lon="6.74306">
        <ele>407</ele>
        <time>2015-08-02T09:08:22Z</time>
      </trkpt>
      <trkpt lat="47.46379" lon="6.74308">
        <ele>407</ele>
        <time>2015-08-02T09:08:23Z</time>
      </trkpt>
      <trkpt lat="47.46384" lon="6.7431">
        <ele>407</ele>
        <time>2015-08-02T09:08:23Z</time>
      </trkpt>
      <trkpt lat="47.46401" lon="6.74316">
        <ele>407</ele>
        <time>2015-08-02T09:08:25Z</time>
      </trkpt>
      <trkpt lat="47.46406" lon="6.74318">
        <ele>406</ele>
        <time>2015-08-02T09:08:26Z</time>
      </trkpt>
      <trkpt lat="47.46414" lon="6.74322">
        <ele>406</ele>
        <time>2015-08-02T09:08:27Z</time>
      </trkpt>
      <trkpt lat="47.46417" lon="6.74323">
        <ele>406</ele>
        <time>2015-08-02T09:08:28Z</time>
      </trkpt>
      <trkpt lat="47.46421" lon="6.74324">
        <ele>406</ele>
        <time>2015-08-02T09:08:29Z</time>
      </trkpt>
      <trkpt lat="47.46428" lon="6.74326">
        <ele>406</ele>
        <time>2015-08-02T09:08:30Z</time>
      </trkpt>
      <trkpt lat="47.46432" lon="6.74327">
        <ele>406</ele>
        <time>2015-08-02T09:08:31Z</time>
      </trkpt>
      <trkpt lat="47.46436" lon="6.74329">
        <ele>406</ele>
        <time>2015-08-02T09:08:31Z</time>
      </trkpt>
      <trkpt lat="47.46439" lon="6.74331">
        <ele>407</ele>
        <time>2015-08-02T09:08:32Z</time>
      </trkpt>
      <trkpt lat="47.46442" lon="6.74335">
        <ele>403</ele>
        <time>2015-08-02T09:08:33Z</time>
      </trkpt>
      <trkpt lat="47.4645" lon="6.74345">
        <ele>402</ele>
        <time>2015-08-02T09:08:33Z</time>
      </trkpt>
      <trkpt lat="47.46459" lon="6.74357">
        <ele>402</ele>
        <time>2015-08-02T09:08:34Z</time>
      </trkpt>
      <trkpt lat="47.46477" lon="6.74383">
        <ele>401</ele>
        <time>2015-08-02T09:08:36Z</time>
      </trkpt>
      <trkpt lat="47.46481" lon="6.74389">
        <ele>401</ele>
        <time>2015-08-02T09:08:36Z</time>
      </trkpt>
      <trkpt lat="47.46491" lon="6.74404">
        <ele>400</ele>
        <time>2015-08-02T09:08:39Z</time>
      </trkpt>
      <trkpt lat="47.46497" lon="6.74411">
        <ele>400</ele>
        <time>2015-08-02T09:08:39Z</time>
      </trkpt>
      <trkpt lat="47.46505" lon="6.7442">
        <ele>399</ele>
        <time>2015-08-02T09:08:40Z</time>
      </trkpt>
      <trkpt lat="47.46511" lon="6.74427">
        <ele>398</ele>
        <time>2015-08-02T09:08:42Z</time>
      </trkpt>
      <trkpt lat="47.46515" lon="6.74434">
        <ele>398</ele>
        <time>2015-08-02T09:08:42Z</time>
      </trkpt>
      <trkpt lat="47.4652" lon="6.74439">
        <ele>397</ele>
        <time>2015-08-02T09:08:43Z</time>
      </trkpt>
      <trkpt lat="47.46526" lon="6.74448">
        <ele>396</ele>
        <time>2015-08-02T09:08:43Z</time>
      </trkpt>
      <trkpt lat="47.46528" lon="6.74453">
        <ele>396</ele>
        <time>2015-08-02T09:08:43Z</time>
      </trkpt>
      <trkpt lat="47.46532" lon="6.74459">
        <ele>396</ele>
        <time>2015-08-02T09:08:44Z</time>
      </trkpt>
      <trkpt lat="47.46536" lon="6.74467">
        <ele>395</ele>
        <time>2015-08-02T09:08:45Z</time>
      </trkpt>
      <trkpt lat="47.4654" lon="6.74474">
        <ele>395</ele>
        <time>2015-08-02T09:08:45Z</time>
      </trkpt>
      <trkpt lat="47.46545" lon="6.74479">
        <ele>395</ele>
        <time>2015-08-02T09:08:46Z</time>
      </trkpt>
      <trkpt lat="47.46551" lon="6.74487">
        <ele>395</ele>
        <time>2015-08-02T09:08:47Z</time>
      </trkpt>
      <trkpt lat="47.46557" lon="6.74494">
        <ele>395</ele>
        <time>2015-08-02T09:08:47Z</time>
      </trkpt>
      <trkpt lat="47.46563" lon="6.74502">
        <ele>388</ele>
        <time>2015-08-02T09:08:48Z</time>
      </trkpt>
      <trkpt lat="47.46571" lon="6.74511">
        <ele>389</ele>
        <time>2015-08-02T09:08:49Z</time>
      </trkpt>
      <trkpt lat="47.46577" lon="6.74521">
        <ele>387</ele>
        <time>2015-08-02T09:08:49Z</time>
      </trkpt>
      <trkpt lat="47.46583" lon="6.7453">
        <ele>386</ele>
        <time>2015-08-02T09:08:50Z</time>
      </trkpt>
      <trkpt lat="47.46591" lon="6.7454">
        <ele>391</ele>
        <time>2015-08-02T09:08:53Z</time>
      </trkpt>
      <trkpt lat="47.46604" lon="6.74567">
        <ele>388</ele>
        <time>2015-08-02T09:08:53Z</time>
      </trkpt>
      <trkpt lat="47.46609" lon="6.74573">
        <ele>387</ele>
        <time>2015-08-02T09:08:54Z</time>
      </trkpt>
      <trkpt lat="47.46612" lon="6.74576">
        <ele>388</ele>
        <time>2015-08-02T09:08:54Z</time>
      </trkpt>
      <trkpt lat="47.46616" lon="6.74584">
        <ele>376</ele>
        <time>2015-08-02T09:08:55Z</time>
      </trkpt>
      <trkpt lat="47.46623" lon="6.74596">
        <ele>376</ele>
        <time>2015-08-02T09:08:56Z</time>
      </trkpt>
      <trkpt lat="47.46627" lon="6.74605">
        <ele>375</ele>
        <time>2015-08-02T09:08:56Z</time>
      </trkpt>
      <trkpt lat="47.4663" lon="6.74612">
        <ele>375</ele>
        <time>2015-08-02T09:08:57Z</time>
      </trkpt>
      <trkpt lat="47.46639" lon="6.74621">
        <ele>374</ele>
        <time>2015-08-02T09:08:58Z</time>
      </trkpt>
      <trkpt lat="47.46644" lon="6.74628">
        <ele>373</ele>
        <time>2015-08-02T09:08:58Z</time>
      </trkpt>
      <trkpt lat="47.46655" lon="6.74648">
        <ele>370</ele>
        <time>2015-08-02T09:09:01Z</time>
      </trkpt>
      <trkpt lat="47.46667" lon="6.74664">
        <ele>365</ele>
        <time>2015-08-02T09:09:01Z</time>
      </trkpt>
      <trkpt lat="47.46678" lon="6.74679">
        <ele>360</ele>
        <time>2015-08-02T09:09:02Z</time>
      </trkpt>
      <trkpt lat="47.46689" lon="6.74697">
        <ele>358</ele>
        <time>2015-08-02T09:09:03Z</time>
      </trkpt>
      <trkpt lat="47.46697" lon="6.74708">
        <ele>357</ele>
        <time>2015-08-02T09:09:03Z</time>
      </trkpt>
      <trkpt lat="47.46708" lon="6.74711">
        <ele>356</ele>
        <time>2015-08-02T09:09:03Z</time>
      </trkpt>
      <trkpt lat="47.46717" lon="6.7471">
        <ele>356</ele>
        <time>2015-08-02T09:09:04Z</time>
      </trkpt>
      <trkpt lat="47.46724" lon="6.74711">
        <ele>356</ele>
        <time>2015-08-02T09:09:04Z</time>
      </trkpt>
      <trkpt lat="47.4673" lon="6.74709">
        <ele>356</ele>
        <time>2015-08-02T09:09:06Z</time>
      </trkpt>
      <trkpt lat="47.46735" lon="6.7471">
        <ele>355</ele>
        <time>2015-08-02T09:09:07Z</time>
      </trkpt>
      <trkpt lat="47.46739" lon="6.7471">
        <ele>355</ele>
        <time>2015-08-02T09:09:07Z</time>
      </trkpt>
      <trkpt lat="47.46743" lon="6.74711">
        <ele>355</ele>
        <time>2015-08-02T09:09:08Z</time>
      </trkpt>
      <trkpt lat="47.46745" lon="6.74706">
        <ele>356</ele>
        <time>2015-08-02T09:09:13Z</time>
      </trkpt>
      <trkpt lat="47.46745" lon="6.74705">
        <ele>356</ele>
        <time>2015-08-02T09:09:13Z</time>
      </trkpt>
      <trkpt lat="47.46748" lon="6.74695">
        <ele>357</ele>
        <time>2015-08-02T09:11:20Z</time>
      </trkpt>
      <trkpt lat="47.46749" lon="6.74693">
        <ele>357</ele>
        <time>2015-08-02T09:11:21Z</time>
      </trkpt>
      <trkpt lat="47.46756" lon="6.74685">
        <ele>354</ele>
        <time>2015-08-02T09:11:23Z</time>
      </trkpt>
      <trkpt lat="47.46759" lon="6.74682">
        <ele>354</ele>
        <time>2015-08-02T09:11:24Z</time>
      </trkpt>
      <trkpt lat="47.46765" lon="6.74677">
        <ele>354</ele>
        <time>2015-08-02T09:11:25Z</time>
      </trkpt>
      <trkpt lat="47.46771" lon="6.74669">
        <ele>354</ele>
        <time>2015-08-02T09:11:26Z</time>
      </trkpt>
      <trkpt lat="47.46774" lon="6.74665">
        <ele>361</ele>
        <time>2015-08-02T09:11:26Z</time>
      </trkpt>
      <trkpt lat="47.46778" lon="6.74661">
        <ele>361</ele>
        <time>2015-08-02T09:11:27Z</time>
      </trkpt>
      <trkpt lat="47.46781" lon="6.74661">
        <ele>360</ele>
        <time>2015-08-02T09:11:28Z</time>
      </trkpt>
      <trkpt lat="47.46788" lon="6.74657">
        <ele>360</ele>
        <time>2015-08-02T09:11:29Z</time>
      </trkpt>
      <trkpt lat="47.46792" lon="6.74656">
        <ele>359</ele>
        <time>2015-08-02T09:11:30Z</time>
      </trkpt>
      <trkpt lat="47.46794" lon="6.74654">
        <ele>359</ele>
        <time>2015-08-02T09:11:30Z</time>
      </trkpt>
      <trkpt lat="47.46798" lon="6.74655">
        <ele>359</ele>
        <time>2015-08-02T09:11:31Z</time>
      </trkpt>
      <trkpt lat="47.46801" lon="6.74656">
        <ele>358</ele>
        <time>2015-08-02T09:11:32Z</time>
      </trkpt>
      <trkpt lat="47.46804" lon="6.74655">
        <ele>358</ele>
        <time>2015-08-02T09:11:32Z</time>
      </trkpt>
      <trkpt lat="47.46807" lon="6.74653">
        <ele>357</ele>
        <time>2015-08-02T09:11:33Z</time>
      </trkpt>
      <trkpt lat="47.46811" lon="6.7465">
        <ele>357</ele>
        <time>2015-08-02T09:11:33Z</time>
      </trkpt>
      <trkpt lat="47.46815" lon="6.74648">
        <ele>356</ele>
        <time>2015-08-02T09:11:33Z</time>
      </trkpt>
      <trkpt lat="47.4682" lon="6.74644">
        <ele>356</ele>
        <time>2015-08-02T09:11:34Z</time>
      </trkpt>
      <trkpt lat="47.46824" lon="6.7464">
        <ele>357</ele>
        <time>2015-08-02T09:11:35Z</time>
      </trkpt>
      <trkpt lat="47.46841" lon="6.74622">
        <ele>350</ele>
        <time>2015-08-02T09:11:38Z</time>
      </trkpt>
      <trkpt lat="47.46849" lon="6.74614">
        <ele>350</ele>
        <time>2015-08-02T09:11:39Z</time>
      </trkpt>
      <trkpt lat="47.46853" lon="6.74611">
        <ele>351</ele>
        <time>2015-08-02T09:11:40Z</time>
      </trkpt>
      <trkpt lat="47.46857" lon="6.74605">
        <ele>351</ele>
        <time>2015-08-02T09:11:40Z</time>
      </trkpt>
      <trkpt lat="47.4686" lon="6.74601">
        <ele>351</ele>
        <time>2015-08-02T09:11:41Z</time>
      </trkpt>
      <trkpt lat="47.46866" lon="6.74598">
        <ele>350</ele>
        <time>2015-08-02T09:11:42Z</time>
      </trkpt>
      <trkpt lat="47.46874" lon="6.74592">
        <ele>350</ele>
        <time>2015-08-02T09:11:43Z</time>
      </trkpt>
      <trkpt lat="47.46878" lon="6.74591">
        <ele>349</ele>
        <time>2015-08-02T09:11:43Z</time>
      </trkpt>
      <trkpt lat="47.46882" lon="6.74588">
        <ele>349</ele>
        <time>2015-08-02T09:11:43Z</time>
      </trkpt>
      <trkpt lat="47.46891" lon="6.74586">
        <ele>348</ele>
        <time>2015-08-02T09:11:45Z</time>
      </trkpt>
      <trkpt lat="47.46895" lon="6.74584">
        <ele>348</ele>
        <time>2015-08-02T09:11:45Z</time>
      </trkpt>
      <trkpt lat="47.46899" lon="6.74584">
        <ele>348</ele>
        <time>2015-08-02T09:11:46Z</time>
      </trkpt>
      <trkpt lat="47.46908" lon="6.7458">
        <ele>350</ele>
        <time>2015-08-02T09:11:47Z</time>
      </trkpt>
      <trkpt lat="47.46912" lon="6.74579">
        <ele>350</ele>
        <time>2015-08-02T09:11:48Z</time>
      </trkpt>
      <trkpt lat="47.46919" lon="6.74575">
        <ele>347</ele>
        <time>2015-08-02T09:11:49Z</time>
      </trkpt>
      <trkpt lat="47.46933" lon="6.74567">
        <ele>347</ele>
        <time>2015-08-02T09:11:53Z</time>
      </trkpt>
      <trkpt lat="47.46939" lon="6.74564">
        <ele>347</ele>
        <time>2015-08-02T09:11:54Z</time>
      </trkpt>
      <trkpt lat="47.46943" lon="6.74563">
        <ele>347</ele>
        <time>2015-08-02T09:11:54Z</time>
      </trkpt>
      <trkpt lat="47.46947" lon="6.74563">
        <ele>347</ele>
        <time>2015-08-02T09:11:55Z</time>
      </trkpt>
      <trkpt lat="47.46951" lon="6.74563">
        <ele>347</ele>
        <time>2015-08-02T09:11:56Z</time>
      </trkpt>
      <trkpt lat="47.46956" lon="6.74563">
        <ele>347</ele>
        <time>2015-08-02T09:11:56Z</time>
      </trkpt>
      <trkpt lat="47.4696" lon="6.74562">
        <ele>347</ele>
        <time>2015-08-02T09:11:58Z</time>
      </trkpt>
      <trkpt lat="47.46966" lon="6.74563">
        <ele>347</ele>
        <time>2015-08-02T09:11:59Z</time>
      </trkpt>
      <trkpt lat="47.46971" lon="6.74564">
        <ele>347</ele>
        <time>2015-08-02T09:11:59Z</time>
      </trkpt>
      <trkpt lat="47.46976" lon="6.74564">
        <ele>346</ele>
        <time>2015-08-02T09:12:00Z</time>
      </trkpt>
      <trkpt lat="47.46987" lon="6.74565">
        <ele>346</ele>
        <time>2015-08-02T09:12:01Z</time>
      </trkpt>
      <trkpt lat="47.46992" lon="6.74566">
        <ele>346</ele>
        <time>2015-08-02T09:12:03Z</time>
      </trkpt>
      <trkpt lat="47.46997" lon="6.74565">
        <ele>346</ele>
        <time>2015-08-02T09:12:03Z</time>
      </trkpt>
      <trkpt lat="47.47003" lon="6.74566">
        <ele>344</ele>
        <time>2015-08-02T09:12:03Z</time>
      </trkpt>
      <trkpt lat="47.47008" lon="6.74566">
        <ele>344</ele>
        <time>2015-08-02T09:12:04Z</time>
      </trkpt>
      <trkpt lat="47.47013" lon="6.74566">
        <ele>343</ele>
        <time>2015-08-02T09:12:06Z</time>
      </trkpt>
      <trkpt lat="47.47025" lon="6.74564">
        <ele>343</ele>
        <time>2015-08-02T09:12:07Z</time>
      </trkpt>
      <trkpt lat="47.47031" lon="6.74563">
        <ele>343</ele>
        <time>2015-08-02T09:12:08Z</time>
      </trkpt>
      <trkpt lat="47.47037" lon="6.74566">
        <ele>343</ele>
        <time>2015-08-02T09:12:08Z</time>
      </trkpt>
      <trkpt lat="47.47042" lon="6.74569">
        <ele>343</ele>
        <time>2015-08-02T09:12:09Z</time>
      </trkpt>
      <trkpt lat="47.4704" lon="6.7458">
        <ele>343</ele>
        <time>2015-08-02T09:12:10Z</time>
      </trkpt>
      <trkpt lat="47.47033" lon="6.74598">
        <ele>341</ele>
        <time>2015-08-02T09:12:12Z</time>
      </trkpt>
      <trkpt lat="47.4703" lon="6.74604">
        <ele>341</ele>
        <time>2015-08-02T09:12:12Z</time>
      </trkpt>
      <trkpt lat="47.47027" lon="6.7461">
        <ele>341</ele>
        <time>2015-08-02T09:12:13Z</time>
      </trkpt>
      <trkpt lat="47.47024" lon="6.74616">
        <ele>341</ele>
        <time>2015-08-02T09:12:13Z</time>
      </trkpt>
      <trkpt lat="47.47018" lon="6.74631">
        <ele>341</ele>
        <time>2015-08-02T09:12:14Z</time>
      </trkpt>
      <trkpt lat="47.47013" lon="6.74648">
        <ele>340</ele>
        <time>2015-08-02T09:12:15Z</time>
      </trkpt>
      <trkpt lat="47.47011" lon="6.74657">
        <ele>339</ele>
        <time>2015-08-02T09:12:16Z</time>
      </trkpt>
      <trkpt lat="47.47008" lon="6.74666">
        <ele>339</ele>
        <time>2015-08-02T09:12:17Z</time>
      </trkpt>
      <trkpt lat="47.47006" lon="6.74676">
        <ele>338</ele>
        <time>2015-08-02T09:12:17Z</time>
      </trkpt>
      <trkpt lat="47.47005" lon="6.74687">
        <ele>338</ele>
        <time>2015-08-02T09:12:19Z</time>
      </trkpt>
      <trkpt lat="47.47001" lon="6.7471">
        <ele>337</ele>
        <time>2015-08-02T09:12:20Z</time>
      </trkpt>
      <trkpt lat="47.46999" lon="6.74723">
        <ele>336</ele>
        <time>2015-08-02T09:12:21Z</time>
      </trkpt>
      <trkpt lat="47.46999" lon="6.74734">
        <ele>336</ele>
        <time>2015-08-02T09:12:22Z</time>
      </trkpt>
      <trkpt lat="47.46998" lon="6.74769">
        <ele>335</ele>
        <time>2015-08-02T09:12:23Z</time>
      </trkpt>
      <trkpt lat="47.46998" lon="6.74781">
        <ele>335</ele>
        <time>2015-08-02T09:12:23Z</time>
      </trkpt>
      <trkpt lat="47.46998" lon="6.74791">
        <ele>335</ele>
        <time>2015-08-02T09:12:24Z</time>
      </trkpt>
      <trkpt lat="47.46998" lon="6.74802">
        <ele>335</ele>
        <time>2015-08-02T09:12:25Z</time>
      </trkpt>
      <trkpt lat="47.46998" lon="6.74823">
        <ele>334</ele>
        <time>2015-08-02T09:12:26Z</time>
      </trkpt>
      <trkpt lat="47.46998" lon="6.74845">
        <ele>333</ele>
        <time>2015-08-02T09:12:27Z</time>
      </trkpt>
      <trkpt lat="47.46998" lon="6.74856">
        <ele>333</ele>
        <time>2015-08-02T09:12:28Z</time>
      </trkpt>
      <trkpt lat="47.46998" lon="6.74876">
        <ele>333</ele>
        <time>2015-08-02T09:12:29Z</time>
      </trkpt>
      <trkpt lat="47.46998" lon="6.74886">
        <ele>333</ele>
        <time>2015-08-02T09:12:30Z</time>
      </trkpt>
      <trkpt lat="47.46998" lon="6.74897">
        <ele>332</ele>
        <time>2015-08-02T09:12:31Z</time>
      </trkpt>
      <trkpt lat="47.46999" lon="6.74907">
        <ele>332</ele>
        <time>2015-08-02T09:12:31Z</time>
      </trkpt>
      <trkpt lat="47.46998" lon="6.74916">
        <ele>331</ele>
        <time>2015-08-02T09:12:33Z</time>
      </trkpt>
      <trkpt lat="47.46998" lon="6.74926">
        <ele>332</ele>
        <time>2015-08-02T09:12:33Z</time>
      </trkpt>
      <trkpt lat="47.46998" lon="6.74935">
        <ele>332</ele>
        <time>2015-08-02T09:12:33Z</time>
      </trkpt>
      <trkpt lat="47.46997" lon="6.74954">
        <ele>332</ele>
        <time>2015-08-02T09:12:35Z</time>
      </trkpt>
      <trkpt lat="47.46997" lon="6.74963">
        <ele>332</ele>
        <time>2015-08-02T09:12:35Z</time>
      </trkpt>
      <trkpt lat="47.46997" lon="6.74998">
        <ele>331</ele>
        <time>2015-08-02T09:12:39Z</time>
      </trkpt>
      <trkpt lat="47.46999" lon="6.75015">
        <ele>332</ele>
        <time>2015-08-02T09:12:40Z</time>
      </trkpt>
      <trkpt lat="47.46999" lon="6.75023">
        <ele>332</ele>
        <time>2015-08-02T09:12:41Z</time>
      </trkpt>
      <trkpt lat="47.46999" lon="6.75032">
        <ele>333</ele>
        <time>2015-08-02T09:12:42Z</time>
      </trkpt>
      <trkpt lat="47.47" lon="6.75041">
        <ele>333</ele>
        <time>2015-08-02T09:12:42Z</time>
      </trkpt>
      <trkpt lat="47.47001" lon="6.75049">
        <ele>332</ele>
        <time>2015-08-02T09:12:43Z</time>
      </trkpt>
      <trkpt lat="47.47002" lon="6.75057">
        <ele>332</ele>
        <time>2015-08-02T09:12:44Z</time>
      </trkpt>
      <trkpt lat="47.47005" lon="6.75064">
        <ele>332</ele>
        <time>2015-08-02T09:12:44Z</time>
      </trkpt>
      <trkpt lat="47.47006" lon="6.75071">
        <ele>332</ele>
        <time>2015-08-02T09:12:45Z</time>
      </trkpt>
      <trkpt lat="47.47008" lon="6.75078">
        <ele>333</ele>
        <time>2015-08-02T09:12:48Z</time>
      </trkpt>
      <trkpt lat="47.47009" lon="6.75085">
        <ele>333</ele>
        <time>2015-08-02T09:12:48Z</time>
      </trkpt>
      <trkpt lat="47.47011" lon="6.75093">
        <ele>333</ele>
        <time>2015-08-02T09:12:49Z</time>
      </trkpt>
      <trkpt lat="47.47012" lon="6.751">
        <ele>333</ele>
        <time>2015-08-02T09:12:50Z</time>
      </trkpt>
      <trkpt lat="47.47015" lon="6.75107">
        <ele>333</ele>
        <time>2015-08-02T09:12:50Z</time>
      </trkpt>
      <trkpt lat="47.47018" lon="6.75123">
        <ele>333</ele>
        <time>2015-08-02T09:12:52Z</time>
      </trkpt>
      <trkpt lat="47.4702" lon="6.7513">
        <ele>333</ele>
        <time>2015-08-02T09:12:52Z</time>
      </trkpt>
      <trkpt lat="47.47021" lon="6.75137">
        <ele>333</ele>
        <time>2015-08-02T09:12:53Z</time>
      </trkpt>
      <trkpt lat="47.47024" lon="6.7515">
        <ele>333</ele>
        <time>2015-08-02T09:12:53Z</time>
      </trkpt>
      <trkpt lat="47.47027" lon="6.75157">
        <ele>333</ele>
        <time>2015-08-02T09:12:54Z</time>
      </trkpt>
      <trkpt lat="47.47029" lon="6.75163">
        <ele>333</ele>
        <time>2015-08-02T09:12:55Z</time>
      </trkpt>
      <trkpt lat="47.47031" lon="6.7517">
        <ele>333</ele>
        <time>2015-08-02T09:12:55Z</time>
      </trkpt>
      <trkpt lat="47.47033" lon="6.75184">
        <ele>332</ele>
        <time>2015-08-02T09:12:57Z</time>
      </trkpt>
      <trkpt lat="47.47034" lon="6.75191">
        <ele>332</ele>
        <time>2015-08-02T09:12:57Z</time>
      </trkpt>
      <trkpt lat="47.47037" lon="6.75198">
        <ele>332</ele>
        <time>2015-08-02T09:12:58Z</time>
      </trkpt>
      <trkpt lat="47.47038" lon="6.75205">
        <ele>332</ele>
        <time>2015-08-02T09:12:59Z</time>
      </trkpt>
      <trkpt lat="47.4704" lon="6.75212">
        <ele>332</ele>
        <time>2015-08-02T09:12:59Z</time>
      </trkpt>
      <trkpt lat="47.47044" lon="6.75233">
        <ele>332</ele>
        <time>2015-08-02T09:13:02Z</time>
      </trkpt>
      <trkpt lat="47.47048" lon="6.7525">
        <ele>332</ele>
        <time>2015-08-02T09:13:03Z</time>
      </trkpt>
      <trkpt lat="47.47052" lon="6.75267">
        <ele>331</ele>
        <time>2015-08-02T09:13:04Z</time>
      </trkpt>
      <trkpt lat="47.47053" lon="6.75288">
        <ele>331</ele>
        <time>2015-08-02T09:13:05Z</time>
      </trkpt>
      <trkpt lat="47.47053" lon="6.75297">
        <ele>331</ele>
        <time>2015-08-02T09:13:06Z</time>
      </trkpt>
      <trkpt lat="47.47053" lon="6.75307">
        <ele>331</ele>
        <time>2015-08-02T09:13:07Z</time>
      </trkpt>
      <trkpt lat="47.47054" lon="6.75316">
        <ele>331</ele>
        <time>2015-08-02T09:13:07Z</time>
      </trkpt>
      <trkpt lat="47.47055" lon="6.75324">
        <ele>330</ele>
        <time>2015-08-02T09:13:08Z</time>
      </trkpt>
      <trkpt lat="47.47056" lon="6.75333">
        <ele>330</ele>
        <time>2015-08-02T09:13:09Z</time>
      </trkpt>
      <trkpt lat="47.47057" lon="6.75342">
        <ele>330</ele>
        <time>2015-08-02T09:13:09Z</time>
      </trkpt>
      <trkpt lat="47.47056" lon="6.75351">
        <ele>330</ele>
        <time>2015-08-02T09:13:10Z</time>
      </trkpt>
      <trkpt lat="47.47057" lon="6.7536">
        <ele>330</ele>
        <time>2015-08-02T09:13:11Z</time>
      </trkpt>
      <trkpt lat="47.47058" lon="6.75368">
        <ele>330</ele>
        <time>2015-08-02T09:13:11Z</time>
      </trkpt>
      <trkpt lat="47.47058" lon="6.75386">
        <ele>331</ele>
        <time>2015-08-02T09:13:13Z</time>
      </trkpt>
      <trkpt lat="47.47059" lon="6.75394">
        <ele>331</ele>
        <time>2015-08-02T09:13:13Z</time>
      </trkpt>
      <trkpt lat="47.4706" lon="6.754">
        <ele>331</ele>
        <time>2015-08-02T09:13:14Z</time>
      </trkpt>
      <trkpt lat="47.47061" lon="6.75405">
        <ele>331</ele>
        <time>2015-08-02T09:13:15Z</time>
      </trkpt>
      <trkpt lat="47.47061" lon="6.75412">
        <ele>331</ele>
        <time>2015-08-02T09:13:15Z</time>
      </trkpt>
      <trkpt lat="47.47061" lon="6.7542">
        <ele>331</ele>
        <time>2015-08-02T09:13:16Z</time>
      </trkpt>
      <trkpt lat="47.47062" lon="6.75426">
        <ele>331</ele>
        <time>2015-08-02T09:13:17Z</time>
      </trkpt>
      <trkpt lat="47.47062" lon="6.75432">
        <ele>331</ele>
        <time>2015-08-02T09:13:17Z</time>
      </trkpt>
      <trkpt lat="47.47065" lon="6.7544">
        <ele>331</ele>
        <time>2015-08-02T09:13:18Z</time>
      </trkpt>
      <trkpt lat="47.47065" lon="6.75447">
        <ele>331</ele>
        <time>2015-08-02T09:13:19Z</time>
      </trkpt>
      <trkpt lat="47.47065" lon="6.75456">
        <ele>331</ele>
        <time>2015-08-02T09:13:19Z</time>
      </trkpt>
      <trkpt lat="47.47066" lon="6.75465">
        <ele>332</ele>
        <time>2015-08-02T09:13:20Z</time>
      </trkpt>
      <trkpt lat="47.47066" lon="6.75474">
        <ele>332</ele>
        <time>2015-08-02T09:13:21Z</time>
      </trkpt>
      <trkpt lat="47.47065" lon="6.75484">
        <ele>332</ele>
        <time>2015-08-02T09:13:21Z</time>
      </trkpt>
      <trkpt lat="47.47066" lon="6.75493">
        <ele>332</ele>
        <time>2015-08-02T09:13:22Z</time>
      </trkpt>
      <trkpt lat="47.47067" lon="6.75501">
        <ele>333</ele>
        <time>2015-08-02T09:13:23Z</time>
      </trkpt>
      <trkpt lat="47.47068" lon="6.7551">
        <ele>333</ele>
        <time>2015-08-02T09:13:23Z</time>
      </trkpt>
      <trkpt lat="47.47067" lon="6.75518">
        <ele>333</ele>
        <time>2015-08-02T09:13:23Z</time>
      </trkpt>
      <trkpt lat="47.47068" lon="6.75526">
        <ele>333</ele>
        <time>2015-08-02T09:13:25Z</time>
      </trkpt>
      <trkpt lat="47.47068" lon="6.75534">
        <ele>334</ele>
        <time>2015-08-02T09:13:25Z</time>
      </trkpt>
      <trkpt lat="47.47069" lon="6.75542">
        <ele>334</ele>
        <time>2015-08-02T09:13:26Z</time>
      </trkpt>
      <trkpt lat="47.47069" lon="6.75549">
        <ele>334</ele>
        <time>2015-08-02T09:13:28Z</time>
      </trkpt>
      <trkpt lat="47.47069" lon="6.75556">
        <ele>334</ele>
        <time>2015-08-02T09:13:28Z</time>
      </trkpt>
      <trkpt lat="47.47071" lon="6.75564">
        <ele>334</ele>
        <time>2015-08-02T09:13:29Z</time>
      </trkpt>
      <trkpt lat="47.47072" lon="6.7557">
        <ele>335</ele>
        <time>2015-08-02T09:13:31Z</time>
      </trkpt>
      <trkpt lat="47.47072" lon="6.75578">
        <ele>335</ele>
        <time>2015-08-02T09:13:31Z</time>
      </trkpt>
      <trkpt lat="47.47072" lon="6.75584">
        <ele>336</ele>
        <time>2015-08-02T09:13:32Z</time>
      </trkpt>
      <trkpt lat="47.47072" lon="6.7559">
        <ele>336</ele>
        <time>2015-08-02T09:13:33Z</time>
      </trkpt>
      <trkpt lat="47.47073" lon="6.75596">
        <ele>336</ele>
        <time>2015-08-02T09:13:33Z</time>
      </trkpt>
      <trkpt lat="47.47074" lon="6.75602">
        <ele>336</ele>
        <time>2015-08-02T09:13:34Z</time>
      </trkpt>
      <trkpt lat="47.47075" lon="6.75608">
        <ele>336</ele>
        <time>2015-08-02T09:13:35Z</time>
      </trkpt>
      <trkpt lat="47.47075" lon="6.75615">
        <ele>336</ele>
        <time>2015-08-02T09:13:35Z</time>
      </trkpt>
      <trkpt lat="47.47074" lon="6.75621">
        <ele>337</ele>
        <time>2015-08-02T09:13:36Z</time>
      </trkpt>
      <trkpt lat="47.47076" lon="6.75652">
        <ele>337</ele>
        <time>2015-08-02T09:13:39Z</time>
      </trkpt>
      <trkpt lat="47.47076" lon="6.75678">
        <ele>338</ele>
        <time>2015-08-02T09:13:43Z</time>
      </trkpt>
      <trkpt lat="47.47076" lon="6.75691">
        <ele>338</ele>
        <time>2015-08-02T09:13:43Z</time>
      </trkpt>
      <trkpt lat="47.47078" lon="6.75708">
        <ele>339</ele>
        <time>2015-08-02T09:13:45Z</time>
      </trkpt>
      <trkpt lat="47.4708" lon="6.7572">
        <ele>339</ele>
        <time>2015-08-02T09:13:47Z</time>
      </trkpt>
      <trkpt lat="47.47083" lon="6.75737">
        <ele>339</ele>
        <time>2015-08-02T09:13:49Z</time>
      </trkpt>
      <trkpt lat="47.4709" lon="6.75789">
        <ele>339</ele>
        <time>2015-08-02T09:13:55Z</time>
      </trkpt>
      <trkpt lat="47.47091" lon="6.75794">
        <ele>339</ele>
        <time>2015-08-02T09:13:55Z</time>
      </trkpt>
      <trkpt lat="47.47092" lon="6.75803">
        <ele>339</ele>
        <time>2015-08-02T09:13:57Z</time>
      </trkpt>
      <trkpt lat="47.47094" lon="6.75813">
        <ele>340</ele>
        <time>2015-08-02T09:13:58Z</time>
      </trkpt>
      <trkpt lat="47.47095" lon="6.75828">
        <ele>340</ele>
        <time>2015-08-02T09:14:00Z</time>
      </trkpt>
      <trkpt lat="47.47096" lon="6.75859">
        <ele>340</ele>
        <time>2015-08-02T09:14:03Z</time>
      </trkpt>
      <trkpt lat="47.47096" lon="6.75864">
        <ele>340</ele>
        <time>2015-08-02T09:14:04Z</time>
      </trkpt>
      <trkpt lat="47.47095" lon="6.75883">
        <ele>340</ele>
        <time>2015-08-02T09:14:06Z</time>
      </trkpt>
      <trkpt lat="47.47095" lon="6.75902">
        <ele>340</ele>
        <time>2015-08-02T09:14:09Z</time>
      </trkpt>
      <trkpt lat="47.47095" lon="6.75918">
        <ele>339</ele>
        <time>2015-08-02T09:14:10Z</time>
      </trkpt>
      <trkpt lat="47.47095" lon="6.75931">
        <ele>339</ele>
        <time>2015-08-02T09:14:11Z</time>
      </trkpt>
      <trkpt lat="47.47094" lon="6.75946">
        <ele>338</ele>
        <time>2015-08-02T09:14:13Z</time>
      </trkpt>
      <trkpt lat="47.47094" lon="6.75954">
        <ele>338</ele>
        <time>2015-08-02T09:14:13Z</time>
      </trkpt>
      <trkpt lat="47.47093" lon="6.75969">
        <ele>338</ele>
        <time>2015-08-02T09:14:15Z</time>
      </trkpt>
      <trkpt lat="47.47092" lon="6.75977">
        <ele>338</ele>
        <time>2015-08-02T09:14:15Z</time>
      </trkpt>
      <trkpt lat="47.47092" lon="6.75984">
        <ele>338</ele>
        <time>2015-08-02T09:14:17Z</time>
      </trkpt>
      <trkpt lat="47.47095" lon="6.75989">
        <ele>338</ele>
        <time>2015-08-02T09:14:19Z</time>
      </trkpt>
      <trkpt lat="47.47098" lon="6.75991">
        <ele>338</ele>
        <time>2015-08-02T09:14:19Z</time>
      </trkpt>
      <trkpt lat="47.47108" lon="6.75992">
        <ele>338</ele>
        <time>2015-08-02T09:14:21Z</time>
      </trkpt>
      <trkpt lat="47.47113" lon="6.75996">
        <ele>338</ele>
        <time>2015-08-02T09:14:21Z</time>
      </trkpt>
      <trkpt lat="47.47122" lon="6.76">
        <ele>336</ele>
        <time>2015-08-02T09:14:23Z</time>
      </trkpt>
      <trkpt lat="47.47127" lon="6.76004">
        <ele>336</ele>
        <time>2015-08-02T09:14:23Z</time>
      </trkpt>
      <trkpt lat="47.47132" lon="6.76006">
        <ele>336</ele>
        <time>2015-08-02T09:14:24Z</time>
      </trkpt>
      <trkpt lat="47.47137" lon="6.76007">
        <ele>336</ele>
        <time>2015-08-02T09:14:25Z</time>
      </trkpt>
      <trkpt lat="47.47142" lon="6.76008">
        <ele>336</ele>
        <time>2015-08-02T09:14:25Z</time>
      </trkpt>
      <trkpt lat="47.47147" lon="6.7601">
        <ele>336</ele>
        <time>2015-08-02T09:14:26Z</time>
      </trkpt>
      <trkpt lat="47.47151" lon="6.76012">
        <ele>337</ele>
        <time>2015-08-02T09:14:27Z</time>
      </trkpt>
      <trkpt lat="47.47156" lon="6.76016">
        <ele>337</ele>
        <time>2015-08-02T09:14:27Z</time>
      </trkpt>
      <trkpt lat="47.4716" lon="6.76017">
        <ele>337</ele>
        <time>2015-08-02T09:14:28Z</time>
      </trkpt>
      <trkpt lat="47.47164" lon="6.76018">
        <ele>337</ele>
        <time>2015-08-02T09:14:29Z</time>
      </trkpt>
      <trkpt lat="47.47168" lon="6.76021">
        <ele>337</ele>
        <time>2015-08-02T09:14:29Z</time>
      </trkpt>
      <trkpt lat="47.47173" lon="6.7602">
        <ele>337</ele>
        <time>2015-08-02T09:14:30Z</time>
      </trkpt>
      <trkpt lat="47.47177" lon="6.76021">
        <ele>337</ele>
        <time>2015-08-02T09:14:31Z</time>
      </trkpt>
      <trkpt lat="47.47186" lon="6.76024">
        <ele>336</ele>
        <time>2015-08-02T09:14:32Z</time>
      </trkpt>
      <trkpt lat="47.47192" lon="6.76026">
        <ele>336</ele>
        <time>2015-08-02T09:14:33Z</time>
      </trkpt>
      <trkpt lat="47.47197" lon="6.76028">
        <ele>336</ele>
        <time>2015-08-02T09:14:33Z</time>
      </trkpt>
      <trkpt lat="47.47201" lon="6.76029">
        <ele>336</ele>
        <time>2015-08-02T09:14:33Z</time>
      </trkpt>
      <trkpt lat="47.47219" lon="6.76039">
        <ele>336</ele>
        <time>2015-08-02T09:14:37Z</time>
      </trkpt>
      <trkpt lat="47.47223" lon="6.7604">
        <ele>336</ele>
        <time>2015-08-02T09:14:37Z</time>
      </trkpt>
      <trkpt lat="47.47233" lon="6.76042">
        <ele>336</ele>
        <time>2015-08-02T09:14:39Z</time>
      </trkpt>
      <trkpt lat="47.47237" lon="6.76043">
        <ele>336</ele>
        <time>2015-08-02T09:14:39Z</time>
      </trkpt>
      <trkpt lat="47.47242" lon="6.76043">
        <ele>336</ele>
        <time>2015-08-02T09:14:40Z</time>
      </trkpt>
      <trkpt lat="47.47246" lon="6.76045">
        <ele>336</ele>
        <time>2015-08-02T09:14:41Z</time>
      </trkpt>
      <trkpt lat="47.4725" lon="6.76048">
        <ele>336</ele>
        <time>2015-08-02T09:14:41Z</time>
      </trkpt>
      <trkpt lat="47.47254" lon="6.76053">
        <ele>336</ele>
        <time>2015-08-02T09:14:42Z</time>
      </trkpt>
      <trkpt lat="47.47258" lon="6.76061">
        <ele>336</ele>
        <time>2015-08-02T09:14:43Z</time>
      </trkpt>
      <trkpt lat="47.47263" lon="6.76068">
        <ele>336</ele>
        <time>2015-08-02T09:14:43Z</time>
      </trkpt>
      <trkpt lat="47.47267" lon="6.76072">
        <ele>336</ele>
        <time>2015-08-02T09:14:43Z</time>
      </trkpt>
      <trkpt lat="47.47272" lon="6.76075">
        <ele>336</ele>
        <time>2015-08-02T09:14:44Z</time>
      </trkpt>
      <trkpt lat="47.47277" lon="6.76077">
        <ele>336</ele>
        <time>2015-08-02T09:14:44Z</time>
      </trkpt>
      <trkpt lat="47.47281" lon="6.76081">
        <ele>336</ele>
        <time>2015-08-02T09:14:45Z</time>
      </trkpt>
      <trkpt lat="47.47287" lon="6.7608">
        <ele>336</ele>
        <time>2015-08-02T09:14:46Z</time>
      </trkpt>
      <trkpt lat="47.47292" lon="6.76079">
        <ele>337</ele>
        <time>2015-08-02T09:14:46Z</time>
      </trkpt>
      <trkpt lat="47.47297" lon="6.76079">
        <ele>337</ele>
        <time>2015-08-02T09:14:47Z</time>
      </trkpt>
      <trkpt lat="47.47306" lon="6.7609">
        <ele>336</ele>
        <time>2015-08-02T09:14:48Z</time>
      </trkpt>
      <trkpt lat="47.47313" lon="6.76099">
        <ele>336</ele>
        <time>2015-08-02T09:14:51Z</time>
      </trkpt>
      <trkpt lat="47.47317" lon="6.76103">
        <ele>336</ele>
        <time>2015-08-02T09:14:51Z</time>
      </trkpt>
      <trkpt lat="47.47324" lon="6.76116">
        <ele>336</ele>
        <time>2015-08-02T09:14:53Z</time>
      </trkpt>
      <trkpt lat="47.47329" lon="6.76121">
        <ele>336</ele>
        <time>2015-08-02T09:14:53Z</time>
      </trkpt>
      <trkpt lat="47.47332" lon="6.76126">
        <ele>335</ele>
        <time>2015-08-02T09:14:53Z</time>
      </trkpt>
      <trkpt lat="47.47336" lon="6.76131">
        <ele>332</ele>
        <time>2015-08-02T09:14:54Z</time>
      </trkpt>
      <trkpt lat="47.4734" lon="6.76136">
        <ele>332</ele>
        <time>2015-08-02T09:14:54Z</time>
      </trkpt>
      <trkpt lat="47.47345" lon="6.76142">
        <ele>332</ele>
        <time>2015-08-02T09:14:55Z</time>
      </trkpt>
      <trkpt lat="47.47349" lon="6.76148">
        <ele>332</ele>
        <time>2015-08-02T09:14:56Z</time>
      </trkpt>
      <trkpt lat="47.47353" lon="6.76154">
        <ele>332</ele>
        <time>2015-08-02T09:14:56Z</time>
      </trkpt>
      <trkpt lat="47.47357" lon="6.76159">
        <ele>332</ele>
        <time>2015-08-02T09:14:57Z</time>
      </trkpt>
      <trkpt lat="47.47366" lon="6.7617">
        <ele>331</ele>
        <time>2015-08-02T09:14:58Z</time>
      </trkpt>
      <trkpt lat="47.4737" lon="6.76175">
        <ele>330</ele>
        <time>2015-08-02T09:15:00Z</time>
      </trkpt>
      <trkpt lat="47.47373" lon="6.76179">
        <ele>330</ele>
        <time>2015-08-02T09:15:01Z</time>
      </trkpt>
      <trkpt lat="47.47377" lon="6.76187">
        <ele>330</ele>
        <time>2015-08-02T09:15:01Z</time>
      </trkpt>
      <trkpt lat="47.47381" lon="6.76193">
        <ele>330</ele>
        <time>2015-08-02T09:15:02Z</time>
      </trkpt>
      <trkpt lat="47.47385" lon="6.76199">
        <ele>329</ele>
        <time>2015-08-02T09:15:04Z</time>
      </trkpt>
      <trkpt lat="47.47387" lon="6.76204">
        <ele>329</ele>
        <time>2015-08-02T09:15:04Z</time>
      </trkpt>
      <trkpt lat="47.47396" lon="6.76209">
        <ele>329</ele>
        <time>2015-08-02T09:15:07Z</time>
      </trkpt>
      <trkpt lat="47.47399" lon="6.76211">
        <ele>329</ele>
        <time>2015-08-02T09:15:07Z</time>
      </trkpt>
      <trkpt lat="47.47403" lon="6.76214">
        <ele>329</ele>
        <time>2015-08-02T09:15:08Z</time>
      </trkpt>
      <trkpt lat="47.47408" lon="6.76221">
        <ele>329</ele>
        <time>2015-08-02T09:15:09Z</time>
      </trkpt>
      <trkpt lat="47.47412" lon="6.76227">
        <ele>328</ele>
        <time>2015-08-02T09:15:09Z</time>
      </trkpt>
      <trkpt lat="47.47414" lon="6.76235">
        <ele>328</ele>
        <time>2015-08-02T09:15:10Z</time>
      </trkpt>
      <trkpt lat="47.47415" lon="6.76246">
        <ele>327</ele>
        <time>2015-08-02T09:15:11Z</time>
      </trkpt>
      <trkpt lat="47.47417" lon="6.76254">
        <ele>325</ele>
        <time>2015-08-02T09:15:11Z</time>
      </trkpt>
      <trkpt lat="47.47418" lon="6.76264">
        <ele>323</ele>
        <time>2015-08-02T09:15:12Z</time>
      </trkpt>
      <trkpt lat="47.47418" lon="6.76272">
        <ele>322</ele>
        <time>2015-08-02T09:15:13Z</time>
      </trkpt>
      <trkpt lat="47.47421" lon="6.76281">
        <ele>321</ele>
        <time>2015-08-02T09:15:13Z</time>
      </trkpt>
      <trkpt lat="47.47424" lon="6.7629">
        <ele>320</ele>
        <time>2015-08-02T09:15:13Z</time>
      </trkpt>
      <trkpt lat="47.47424" lon="6.76301">
        <ele>320</ele>
        <time>2015-08-02T09:15:14Z</time>
      </trkpt>
      <trkpt lat="47.47423" lon="6.76312">
        <ele>320</ele>
        <time>2015-08-02T09:15:14Z</time>
      </trkpt>
      <trkpt lat="47.47417" lon="6.7633">
        <ele>321</ele>
        <time>2015-08-02T09:15:16Z</time>
      </trkpt>
      <trkpt lat="47.47414" lon="6.76338">
        <ele>320</ele>
        <time>2015-08-02T09:15:16Z</time>
      </trkpt>
      <trkpt lat="47.4741" lon="6.76346">
        <ele>320</ele>
        <time>2015-08-02T09:15:17Z</time>
      </trkpt>
      <trkpt lat="47.47403" lon="6.76354">
        <ele>319</ele>
        <time>2015-08-02T09:15:19Z</time>
      </trkpt>
      <trkpt lat="47.474" lon="6.76362">
        <ele>318</ele>
        <time>2015-08-02T09:15:19Z</time>
      </trkpt>
      <trkpt lat="47.47393" lon="6.76377">
        <ele>318</ele>
        <time>2015-08-02T09:15:21Z</time>
      </trkpt>
      <trkpt lat="47.47389" lon="6.76382">
        <ele>318</ele>
        <time>2015-08-02T09:15:21Z</time>
      </trkpt>
      <trkpt lat="47.47387" lon="6.76388">
        <ele>317</ele>
        <time>2015-08-02T09:15:22Z</time>
      </trkpt>
      <trkpt lat="47.47386" lon="6.76393">
        <ele>317</ele>
        <time>2015-08-02T09:15:23Z</time>
      </trkpt>
      <trkpt lat="47.47388" lon="6.76398">
        <ele>317</ele>
        <time>2015-08-02T09:15:23Z</time>
      </trkpt>
      <trkpt lat="47.47389" lon="6.76402">
        <ele>317</ele>
        <time>2015-08-02T09:15:23Z</time>
      </trkpt>
      <trkpt lat="47.47392" lon="6.76405">
        <ele>316</ele>
        <time>2015-08-02T09:15:24Z</time>
      </trkpt>
      <trkpt lat="47.47396" lon="6.76408">
        <ele>316</ele>
        <time>2015-08-02T09:15:24Z</time>
      </trkpt>
      <trkpt lat="47.47402" lon="6.76413">
        <ele>315</ele>
        <time>2015-08-02T09:15:26Z</time>
      </trkpt>
      <trkpt lat="47.47408" lon="6.76418">
        <ele>313</ele>
        <time>2015-08-02T09:15:26Z</time>
      </trkpt>
      <trkpt lat="47.47412" lon="6.76422">
        <ele>313</ele>
        <time>2015-08-02T09:15:27Z</time>
      </trkpt>
      <trkpt lat="47.47422" lon="6.7643">
        <ele>312</ele>
        <time>2015-08-02T09:15:28Z</time>
      </trkpt>
      <trkpt lat="47.47425" lon="6.76432">
        <ele>312</ele>
        <time>2015-08-02T09:15:29Z</time>
      </trkpt>
      <trkpt lat="47.47429" lon="6.76433">
        <ele>312</ele>
        <time>2015-08-02T09:15:30Z</time>
      </trkpt>
      <trkpt lat="47.47432" lon="6.76435">
        <ele>311</ele>
        <time>2015-08-02T09:15:32Z</time>
      </trkpt>
      <trkpt lat="47.47434" lon="6.76436">
        <ele>311</ele>
        <time>2015-08-02T09:15:33Z</time>
      </trkpt>
      <trkpt lat="47.47437" lon="6.76435">
        <ele>311</ele>
        <time>2015-08-02T09:15:33Z</time>
      </trkpt>
      <trkpt lat="47.47441" lon="6.76435">
        <ele>311</ele>
        <time>2015-08-02T09:15:34Z</time>
      </trkpt>
      <trkpt lat="47.47443" lon="6.76434">
        <ele>311</ele>
        <time>2015-08-02T09:15:35Z</time>
      </trkpt>
      <trkpt lat="47.47445" lon="6.76431">
        <ele>311</ele>
        <time>2015-08-02T09:15:36Z</time>
      </trkpt>
      <trkpt lat="47.47448" lon="6.76429">
        <ele>311</ele>
        <time>2015-08-02T09:15:36Z</time>
      </trkpt>
      <trkpt lat="47.47451" lon="6.76428">
        <ele>311</ele>
        <time>2015-08-02T09:15:37Z</time>
      </trkpt>
      <trkpt lat="47.47453" lon="6.76427">
        <ele>311</ele>
        <time>2015-08-02T09:15:38Z</time>
      </trkpt>
      <trkpt lat="47.47457" lon="6.76425">
        <ele>311</ele>
        <time>2015-08-02T09:15:39Z</time>
      </trkpt>
      <trkpt lat="47.47458" lon="6.76422">
        <ele>311</ele>
        <time>2015-08-02T09:15:40Z</time>
      </trkpt>
      <trkpt lat="47.47465" lon="6.7641">
        <ele>312</ele>
        <time>2015-08-02T09:15:42Z</time>
      </trkpt>
      <trkpt lat="47.47468" lon="6.76406">
        <ele>312</ele>
        <time>2015-08-02T09:15:42Z</time>
      </trkpt>
      <trkpt lat="47.47472" lon="6.76403">
        <ele>312</ele>
        <time>2015-08-02T09:15:43Z</time>
      </trkpt>
      <trkpt lat="47.47482" lon="6.76404">
        <ele>312</ele>
        <time>2015-08-02T09:15:43Z</time>
      </trkpt>
      <trkpt lat="47.47486" lon="6.76404">
        <ele>311</ele>
        <time>2015-08-02T09:15:43Z</time>
      </trkpt>
      <trkpt lat="47.47496" lon="6.764">
        <ele>311</ele>
        <time>2015-08-02T09:15:47Z</time>
      </trkpt>
      <trkpt lat="47.47503" lon="6.76396">
        <ele>310</ele>
        <time>2015-08-02T09:15:47Z</time>
      </trkpt>
      <trkpt lat="47.4751" lon="6.76396">
        <ele>310</ele>
        <time>2015-08-02T09:15:48Z</time>
      </trkpt>
      <trkpt lat="47.47518" lon="6.76396">
        <ele>310</ele>
        <time>2015-08-02T09:15:51Z</time>
      </trkpt>
      <trkpt lat="47.47525" lon="6.76395">
        <ele>310</ele>
        <time>2015-08-02T09:15:51Z</time>
      </trkpt>
      <trkpt lat="47.4753" lon="6.76395">
        <ele>310</ele>
        <time>2015-08-02T09:15:52Z</time>
      </trkpt>
      <trkpt lat="47.47534" lon="6.76396">
        <ele>310</ele>
        <time>2015-08-02T09:15:53Z</time>
      </trkpt>
      <trkpt lat="47.4754" lon="6.76392">
        <ele>310</ele>
        <time>2015-08-02T09:15:54Z</time>
      </trkpt>
      <trkpt lat="47.47541" lon="6.76388">
        <ele>310</ele>
        <time>2015-08-02T09:15:54Z</time>
      </trkpt>
      <trkpt lat="47.4754" lon="6.76384">
        <ele>310</ele>
        <time>2015-08-02T09:15:55Z</time>
      </trkpt>
      <trkpt lat="47.47538" lon="6.7638">
        <ele>310</ele>
        <time>2015-08-02T09:15:56Z</time>
      </trkpt>
      <trkpt lat="47.4754" lon="6.76374">
        <ele>310</ele>
        <time>2015-08-02T09:15:57Z</time>
      </trkpt>
      <trkpt lat="47.47539" lon="6.76371">
        <ele>310</ele>
        <time>2015-08-02T09:15:58Z</time>
      </trkpt>
      <trkpt lat="47.4754" lon="6.76364">
        <ele>310</ele>
        <time>2015-08-02T09:15:59Z</time>
      </trkpt>
      <trkpt lat="47.47539" lon="6.76362">
        <ele>310</ele>
        <time>2015-08-02T09:16:01Z</time>
      </trkpt>
      <trkpt lat="47.4754" lon="6.76356">
        <ele>310</ele>
        <time>2015-08-02T09:16:02Z</time>
      </trkpt>
      <trkpt lat="47.4754" lon="6.76353">
        <ele>310</ele>
        <time>2015-08-02T09:16:03Z</time>
      </trkpt>
      <trkpt lat="47.47543" lon="6.76347">
        <ele>310</ele>
        <time>2015-08-02T09:16:03Z</time>
      </trkpt>
      <trkpt lat="47.47544" lon="6.7634">
        <ele>311</ele>
        <time>2015-08-02T09:16:05Z</time>
      </trkpt>
      <trkpt lat="47.47546" lon="6.76337">
        <ele>311</ele>
        <time>2015-08-02T09:16:06Z</time>
      </trkpt>
      <trkpt lat="47.47549" lon="6.7633">
        <ele>312</ele>
        <time>2015-08-02T09:16:07Z</time>
      </trkpt>
      <trkpt lat="47.47553" lon="6.76322">
        <ele>312</ele>
        <time>2015-08-02T09:16:08Z</time>
      </trkpt>
      <trkpt lat="47.47558" lon="6.76312">
        <ele>312</ele>
        <time>2015-08-02T09:16:10Z</time>
      </trkpt>
      <trkpt lat="47.4757" lon="6.76294">
        <ele>312</ele>
        <time>2015-08-02T09:16:12Z</time>
      </trkpt>
      <trkpt lat="47.47577" lon="6.76282">
        <ele>311</ele>
        <time>2015-08-02T09:16:13Z</time>
      </trkpt>
      <trkpt lat="47.4758" lon="6.76276">
        <ele>311</ele>
        <time>2015-08-02T09:16:14Z</time>
      </trkpt>
      <trkpt lat="47.47586" lon="6.76261">
        <ele>311</ele>
        <time>2015-08-02T09:16:14Z</time>
      </trkpt>
      <trkpt lat="47.47591" lon="6.76253">
        <ele>311</ele>
        <time>2015-08-02T09:16:15Z</time>
      </trkpt>
      <trkpt lat="47.47597" lon="6.7624">
        <ele>311</ele>
        <time>2015-08-02T09:16:16Z</time>
      </trkpt>
      <trkpt lat="47.476" lon="6.76235">
        <ele>311</ele>
        <time>2015-08-02T09:16:17Z</time>
      </trkpt>
      <trkpt lat="47.47602" lon="6.76229">
        <ele>311</ele>
        <time>2015-08-02T09:16:18Z</time>
      </trkpt>
      <trkpt lat="47.47603" lon="6.76223">
        <ele>311</ele>
        <time>2015-08-02T09:16:18Z</time>
      </trkpt>
      <trkpt lat="47.47606" lon="6.76205">
        <ele>310</ele>
        <time>2015-08-02T09:16:20Z</time>
      </trkpt>
      <trkpt lat="47.47608" lon="6.76198">
        <ele>310</ele>
        <time>2015-08-02T09:16:21Z</time>
      </trkpt>
      <trkpt lat="47.47613" lon="6.76189">
        <ele>310</ele>
        <time>2015-08-02T09:16:22Z</time>
      </trkpt>
      <trkpt lat="47.47615" lon="6.76182">
        <ele>310</ele>
        <time>2015-08-02T09:16:22Z</time>
      </trkpt>
      <trkpt lat="47.47618" lon="6.76175">
        <ele>310</ele>
        <time>2015-08-02T09:16:23Z</time>
      </trkpt>
      <trkpt lat="47.47621" lon="6.76171">
        <ele>310</ele>
        <time>2015-08-02T09:16:23Z</time>
      </trkpt>
      <trkpt lat="47.47623" lon="6.76165">
        <ele>310</ele>
        <time>2015-08-02T09:16:23Z</time>
      </trkpt>
      <trkpt lat="47.47625" lon="6.76158">
        <ele>310</ele>
        <time>2015-08-02T09:16:24Z</time>
      </trkpt>
      <trkpt lat="47.47631" lon="6.76144">
        <ele>310</ele>
        <time>2015-08-02T09:16:26Z</time>
      </trkpt>
      <trkpt lat="47.4764" lon="6.7612">
        <ele>310</ele>
        <time>2015-08-02T09:16:28Z</time>
      </trkpt>
      <trkpt lat="47.47645" lon="6.76112">
        <ele>310</ele>
        <time>2015-08-02T09:16:29Z</time>
      </trkpt>
      <trkpt lat="47.47651" lon="6.76105">
        <ele>311</ele>
        <time>2015-08-02T09:16:30Z</time>
      </trkpt>
      <trkpt lat="47.47656" lon="6.76097">
        <ele>311</ele>
        <time>2015-08-02T09:16:30Z</time>
      </trkpt>
      <trkpt lat="47.47657" lon="6.76089">
        <ele>311</ele>
        <time>2015-08-02T09:16:31Z</time>
      </trkpt>
      <trkpt lat="47.47661" lon="6.76083">
        <ele>311</ele>
        <time>2015-08-02T09:16:32Z</time>
      </trkpt>
      <trkpt lat="47.47666" lon="6.76079">
        <ele>311</ele>
        <time>2015-08-02T09:16:32Z</time>
      </trkpt>
      <trkpt lat="47.47671" lon="6.76077">
        <ele>311</ele>
        <time>2015-08-02T09:16:33Z</time>
      </trkpt>
      <trkpt lat="47.47675" lon="6.76086">
        <ele>311</ele>
        <time>2015-08-02T09:16:35Z</time>
      </trkpt>
      <trkpt lat="47.47682" lon="6.76096">
        <ele>310</ele>
        <time>2015-08-02T09:16:37Z</time>
      </trkpt>
      <trkpt lat="47.47685" lon="6.76098">
        <ele>310</ele>
        <time>2015-08-02T09:16:38Z</time>
      </trkpt>
      <trkpt lat="47.47691" lon="6.76106">
        <ele>310</ele>
        <time>2015-08-02T09:16:39Z</time>
      </trkpt>
      <trkpt lat="47.47695" lon="6.7611">
        <ele>310</ele>
        <time>2015-08-02T09:16:40Z</time>
      </trkpt>
      <trkpt lat="47.47698" lon="6.76116">
        <ele>310</ele>
        <time>2015-08-02T09:16:40Z</time>
      </trkpt>
      <trkpt lat="47.47707" lon="6.7613">
        <ele>309</ele>
        <time>2015-08-02T09:16:43Z</time>
      </trkpt>
      <trkpt lat="47.47716" lon="6.76144">
        <ele>309</ele>
        <time>2015-08-02T09:16:44Z</time>
      </trkpt>
      <trkpt lat="47.47721" lon="6.76155">
        <ele>309</ele>
        <time>2015-08-02T09:16:46Z</time>
      </trkpt>
      <trkpt lat="47.47724" lon="6.7616">
        <ele>309</ele>
        <time>2015-08-02T09:16:46Z</time>
      </trkpt>
      <trkpt lat="47.47727" lon="6.76165">
        <ele>309</ele>
        <time>2015-08-02T09:16:47Z</time>
      </trkpt>
      <trkpt lat="47.47733" lon="6.76174">
        <ele>308</ele>
        <time>2015-08-02T09:16:48Z</time>
      </trkpt>
      <trkpt lat="47.47736" lon="6.76182">
        <ele>308</ele>
        <time>2015-08-02T09:16:49Z</time>
      </trkpt>
      <trkpt lat="47.4774" lon="6.76187">
        <ele>308</ele>
        <time>2015-08-02T09:16:50Z</time>
      </trkpt>
      <trkpt lat="47.47747" lon="6.76197">
        <ele>309</ele>
        <time>2015-08-02T09:16:51Z</time>
      </trkpt>
      <trkpt lat="47.47754" lon="6.76207">
        <ele>309</ele>
        <time>2015-08-02T09:16:52Z</time>
      </trkpt>
      <trkpt lat="47.47761" lon="6.76218">
        <ele>309</ele>
        <time>2015-08-02T09:16:53Z</time>
      </trkpt>
      <trkpt lat="47.47764" lon="6.76224">
        <ele>309</ele>
        <time>2015-08-02T09:16:53Z</time>
      </trkpt>
      <trkpt lat="47.47768" lon="6.76229">
        <ele>309</ele>
        <time>2015-08-02T09:16:55Z</time>
      </trkpt>
      <trkpt lat="47.47772" lon="6.76233">
        <ele>309</ele>
        <time>2015-08-02T09:16:56Z</time>
      </trkpt>
      <trkpt lat="47.47776" lon="6.76239">
        <ele>309</ele>
        <time>2015-08-02T09:16:56Z</time>
      </trkpt>
      <trkpt lat="47.4778" lon="6.76244">
        <ele>309</ele>
        <time>2015-08-02T09:16:57Z</time>
      </trkpt>
      <trkpt lat="47.4779" lon="6.76253">
        <ele>310</ele>
        <time>2015-08-02T09:16:58Z</time>
      </trkpt>
      <trkpt lat="47.47795" lon="6.76257">
        <ele>310</ele>
        <time>2015-08-02T09:16:59Z</time>
      </trkpt>
      <trkpt lat="47.478" lon="6.76259">
        <ele>310</ele>
        <time>2015-08-02T09:17:00Z</time>
      </trkpt>
      <trkpt lat="47.47805" lon="6.76261">
        <ele>310</ele>
        <time>2015-08-02T09:17:00Z</time>
      </trkpt>
      <trkpt lat="47.47809" lon="6.76263">
        <ele>310</ele>
        <time>2015-08-02T09:17:01Z</time>
      </trkpt>
      <trkpt lat="47.47815" lon="6.76264">
        <ele>310</ele>
        <time>2015-08-02T09:17:02Z</time>
      </trkpt>
      <trkpt lat="47.4782" lon="6.76266">
        <ele>310</ele>
        <time>2015-08-02T09:17:02Z</time>
      </trkpt>
      <trkpt lat="47.47824" lon="6.76269">
        <ele>310</ele>
        <time>2015-08-02T09:17:03Z</time>
      </trkpt>
      <trkpt lat="47.47829" lon="6.76272">
        <ele>310</ele>
        <time>2015-08-02T09:17:03Z</time>
      </trkpt>
      <trkpt lat="47.47837" lon="6.7628">
        <ele>311</ele>
        <time>2015-08-02T09:17:04Z</time>
      </trkpt>
      <trkpt lat="47.47845" lon="6.7629">
        <ele>310</ele>
        <time>2015-08-02T09:17:05Z</time>
      </trkpt>
      <trkpt lat="47.47849" lon="6.76296">
        <ele>310</ele>
        <time>2015-08-02T09:17:06Z</time>
      </trkpt>
      <trkpt lat="47.47852" lon="6.76302">
        <ele>310</ele>
        <time>2015-08-02T09:17:08Z</time>
      </trkpt>
      <trkpt lat="47.47856" lon="6.76307">
        <ele>310</ele>
        <time>2015-08-02T09:17:08Z</time>
      </trkpt>
      <trkpt lat="47.4786" lon="6.76313">
        <ele>310</ele>
        <time>2015-08-02T09:17:09Z</time>
      </trkpt>
      <trkpt lat="47.47867" lon="6.76326">
        <ele>310</ele>
        <time>2015-08-02T09:17:10Z</time>
      </trkpt>
      <trkpt lat="47.4787" lon="6.76332">
        <ele>310</ele>
        <time>2015-08-02T09:17:11Z</time>
      </trkpt>
      <trkpt lat="47.47874" lon="6.76338">
        <ele>311</ele>
        <time>2015-08-02T09:17:12Z</time>
      </trkpt>
      <trkpt lat="47.47877" lon="6.76344">
        <ele>311</ele>
        <time>2015-08-02T09:17:12Z</time>
      </trkpt>
      <trkpt lat="47.4788" lon="6.76351">
        <ele>311</ele>
        <time>2015-08-02T09:17:13Z</time>
      </trkpt>
      <trkpt lat="47.47884" lon="6.76358">
        <ele>311</ele>
        <time>2015-08-02T09:17:13Z</time>
      </trkpt>
      <trkpt lat="47.47896" lon="6.76384">
        <ele>311</ele>
        <time>2015-08-02T09:17:15Z</time>
      </trkpt>
      <trkpt lat="47.47901" lon="6.76397">
        <ele>311</ele>
        <time>2015-08-02T09:17:17Z</time>
      </trkpt>
      <trkpt lat="47.47903" lon="6.76403">
        <ele>311</ele>
        <time>2015-08-02T09:17:17Z</time>
      </trkpt>
      <trkpt lat="47.47906" lon="6.7641">
        <ele>311</ele>
        <time>2015-08-02T09:17:18Z</time>
      </trkpt>
      <trkpt lat="47.47908" lon="6.76417">
        <ele>311</ele>
        <time>2015-08-02T09:17:19Z</time>
      </trkpt>
      <trkpt lat="47.47913" lon="6.76432">
        <ele>311</ele>
        <time>2015-08-02T09:17:21Z</time>
      </trkpt>
      <trkpt lat="47.47915" lon="6.76438">
        <ele>311</ele>
        <time>2015-08-02T09:17:24Z</time>
      </trkpt>
      <trkpt lat="47.47917" lon="6.76445">
        <ele>311</ele>
        <time>2015-08-02T09:17:24Z</time>
      </trkpt>
      <trkpt lat="47.47925" lon="6.76474">
        <ele>311</ele>
        <time>2015-08-02T09:17:27Z</time>
      </trkpt>
      <trkpt lat="47.47926" lon="6.7648">
        <ele>311</ele>
        <time>2015-08-02T09:17:28Z</time>
      </trkpt>
      <trkpt lat="47.47927" lon="6.76488">
        <ele>311</ele>
        <time>2015-08-02T09:17:28Z</time>
      </trkpt>
      <trkpt lat="47.47932" lon="6.76509">
        <ele>311</ele>
        <time>2015-08-02T09:17:30Z</time>
      </trkpt>
      <trkpt lat="47.47935" lon="6.76516">
        <ele>311</ele>
        <time>2015-08-02T09:17:31Z</time>
      </trkpt>
      <trkpt lat="47.47938" lon="6.7653">
        <ele>311</ele>
        <time>2015-08-02T09:17:32Z</time>
      </trkpt>
      <trkpt lat="47.4794" lon="6.76538">
        <ele>311</ele>
        <time>2015-08-02T09:17:33Z</time>
      </trkpt>
      <trkpt lat="47.47941" lon="6.76546">
        <ele>311</ele>
        <time>2015-08-02T09:17:33Z</time>
      </trkpt>
      <trkpt lat="47.47943" lon="6.76553">
        <ele>311</ele>
        <time>2015-08-02T09:17:33Z</time>
      </trkpt>
      <trkpt lat="47.47943" lon="6.76561">
        <ele>311</ele>
        <time>2015-08-02T09:17:34Z</time>
      </trkpt>
      <trkpt lat="47.47945" lon="6.76569">
        <ele>311</ele>
        <time>2015-08-02T09:17:35Z</time>
      </trkpt>
      <trkpt lat="47.47946" lon="6.76576">
        <ele>311</ele>
        <time>2015-08-02T09:17:35Z</time>
      </trkpt>
      <trkpt lat="47.47946" lon="6.76584">
        <ele>311</ele>
        <time>2015-08-02T09:17:37Z</time>
      </trkpt>
      <trkpt lat="47.4795" lon="6.76598">
        <ele>311</ele>
        <time>2015-08-02T09:17:38Z</time>
      </trkpt>
      <trkpt lat="47.47951" lon="6.76603">
        <ele>311</ele>
        <time>2015-08-02T09:17:39Z</time>
      </trkpt>
      <trkpt lat="47.47952" lon="6.76607">
        <ele>311</ele>
        <time>2015-08-02T09:17:40Z</time>
      </trkpt>
      <trkpt lat="47.47954" lon="6.76612">
        <ele>311</ele>
        <time>2015-08-02T09:17:42Z</time>
      </trkpt>
      <trkpt lat="47.47959" lon="6.76613">
        <ele>311</ele>
        <time>2015-08-02T09:17:43Z</time>
      </trkpt>
      <trkpt lat="47.47961" lon="6.76614">
        <ele>311</ele>
        <time>2015-08-02T09:17:43Z</time>
      </trkpt>
      <trkpt lat="47.47964" lon="6.76615">
        <ele>311</ele>
        <time>2015-08-02T09:17:44Z</time>
      </trkpt>
      <trkpt lat="47.47968" lon="6.76616">
        <ele>311</ele>
        <time>2015-08-02T09:17:45Z</time>
      </trkpt>
      <trkpt lat="47.47971" lon="6.76615">
        <ele>311</ele>
        <time>2015-08-02T09:17:45Z</time>
      </trkpt>
      <trkpt lat="47.47975" lon="6.76613">
        <ele>311</ele>
        <time>2015-08-02T09:17:46Z</time>
      </trkpt>
      <trkpt lat="47.47984" lon="6.76604">
        <ele>312</ele>
        <time>2015-08-02T09:17:48Z</time>
      </trkpt>
      <trkpt lat="47.47988" lon="6.76602">
        <ele>312</ele>
        <time>2015-08-02T09:17:50Z</time>
      </trkpt>
      <trkpt lat="47.48009" lon="6.76587">
        <ele>312</ele>
        <time>2015-08-02T09:17:53Z</time>
      </trkpt>
      <trkpt lat="47.48018" lon="6.76581">
        <ele>312</ele>
        <time>2015-08-02T09:17:53Z</time>
      </trkpt>
      <trkpt lat="47.48022" lon="6.76577">
        <ele>312</ele>
        <time>2015-08-02T09:17:54Z</time>
      </trkpt>
      <trkpt lat="47.48027" lon="6.76573">
        <ele>312</ele>
        <time>2015-08-02T09:17:55Z</time>
      </trkpt>
      <trkpt lat="47.48036" lon="6.76566">
        <ele>312</ele>
        <time>2015-08-02T09:17:56Z</time>
      </trkpt>
      <trkpt lat="47.4804" lon="6.76563">
        <ele>312</ele>
        <time>2015-08-02T09:17:57Z</time>
      </trkpt>
      <trkpt lat="47.48045" lon="6.76559">
        <ele>312</ele>
        <time>2015-08-02T09:17:57Z</time>
      </trkpt>
      <trkpt lat="47.48049" lon="6.76555">
        <ele>312</ele>
        <time>2015-08-02T09:17:58Z</time>
      </trkpt>
      <trkpt lat="47.48054" lon="6.76548">
        <ele>312</ele>
        <time>2015-08-02T09:17:59Z</time>
      </trkpt>
      <trkpt lat="47.48059" lon="6.76543">
        <ele>312</ele>
        <time>2015-08-02T09:18:00Z</time>
      </trkpt>
      <trkpt lat="47.48067" lon="6.76534">
        <ele>312</ele>
        <time>2015-08-02T09:18:01Z</time>
      </trkpt>
      <trkpt lat="47.48072" lon="6.76532">
        <ele>312</ele>
        <time>2015-08-02T09:18:03Z</time>
      </trkpt>
      <trkpt lat="47.48077" lon="6.76529">
        <ele>312</ele>
        <time>2015-08-02T09:18:03Z</time>
      </trkpt>
      <trkpt lat="47.48081" lon="6.76524">
        <ele>313</ele>
        <time>2015-08-02T09:18:03Z</time>
      </trkpt>
      <trkpt lat="47.48085" lon="6.76521">
        <ele>317</ele>
        <time>2015-08-02T09:18:04Z</time>
      </trkpt>
      <trkpt lat="47.48089" lon="6.76517">
        <ele>317</ele>
        <time>2015-08-02T09:18:06Z</time>
      </trkpt>
      <trkpt lat="47.48093" lon="6.76512">
        <ele>316</ele>
        <time>2015-08-02T09:18:06Z</time>
      </trkpt>
      <trkpt lat="47.48096" lon="6.76508">
        <ele>317</ele>
        <time>2015-08-02T09:18:07Z</time>
      </trkpt>
      <trkpt lat="47.48099" lon="6.76505">
        <ele>317</ele>
        <time>2015-08-02T09:18:08Z</time>
      </trkpt>
      <trkpt lat="47.48103" lon="6.76512">
        <ele>318</ele>
        <time>2015-08-02T09:18:08Z</time>
      </trkpt>
      <trkpt lat="47.48105" lon="6.76514">
        <ele>318</ele>
        <time>2015-08-02T09:18:11Z</time>
      </trkpt>
      <trkpt lat="47.48107" lon="6.76516">
        <ele>319</ele>
        <time>2015-08-02T09:18:12Z</time>
      </trkpt>
      <trkpt lat="47.4811" lon="6.76519">
        <ele>319</ele>
        <time>2015-08-02T09:18:12Z</time>
      </trkpt>
      <trkpt lat="47.48113" lon="6.76524">
        <ele>319</ele>
        <time>2015-08-02T09:18:13Z</time>
      </trkpt>
      <trkpt lat="47.48115" lon="6.76529">
        <ele>320</ele>
        <time>2015-08-02T09:18:13Z</time>
      </trkpt>
      <trkpt lat="47.48117" lon="6.76535">
        <ele>320</ele>
        <time>2015-08-02T09:18:13Z</time>
      </trkpt>
      <trkpt lat="47.48114" lon="6.76548">
        <ele>319</ele>
        <time>2015-08-02T09:18:14Z</time>
      </trkpt>
      <trkpt lat="47.48111" lon="6.76554">
        <ele>318</ele>
        <time>2015-08-02T09:18:15Z</time>
      </trkpt>
      <trkpt lat="47.48108" lon="6.76561">
        <ele>318</ele>
        <time>2015-08-02T09:18:15Z</time>
      </trkpt>
      <trkpt lat="47.481" lon="6.76575">
        <ele>316</ele>
        <time>2015-08-02T09:18:17Z</time>
      </trkpt>
      <trkpt lat="47.48098" lon="6.76582">
        <ele>315</ele>
        <time>2015-08-02T09:18:17Z</time>
      </trkpt>
      <trkpt lat="47.48096" lon="6.7659">
        <ele>313</ele>
        <time>2015-08-02T09:18:19Z</time>
      </trkpt>
      <trkpt lat="47.48094" lon="6.76595">
        <ele>313</ele>
        <time>2015-08-02T09:18:20Z</time>
      </trkpt>
      <trkpt lat="47.48095" lon="6.76605">
        <ele>313</ele>
        <time>2015-08-02T09:18:20Z</time>
      </trkpt>
      <trkpt lat="47.48095" lon="6.76612">
        <ele>313</ele>
        <time>2015-08-02T09:18:21Z</time>
      </trkpt>
      <trkpt lat="47.48095" lon="6.7662">
        <ele>313</ele>
        <time>2015-08-02T09:18:22Z</time>
      </trkpt>
      <trkpt lat="47.48096" lon="6.76622">
        <ele>313</ele>
        <time>2015-08-02T09:18:22Z</time>
      </trkpt>
      <trkpt lat="47.48097" lon="6.76627">
        <ele>313</ele>
        <time>2015-08-02T09:18:23Z</time>
      </trkpt>
      <trkpt lat="47.48102" lon="6.76635">
        <ele>313</ele>
        <time>2015-08-02T09:18:23Z</time>
      </trkpt>
      <trkpt lat="47.48106" lon="6.76638">
        <ele>313</ele>
        <time>2015-08-02T09:18:24Z</time>
      </trkpt>
      <trkpt lat="47.4811" lon="6.76644">
        <ele>313</ele>
        <time>2015-08-02T09:18:25Z</time>
      </trkpt>
      <trkpt lat="47.48113" lon="6.76649">
        <ele>313</ele>
        <time>2015-08-02T09:18:25Z</time>
      </trkpt>
      <trkpt lat="47.48117" lon="6.76653">
        <ele>313</ele>
        <time>2015-08-02T09:18:26Z</time>
      </trkpt>
      <trkpt lat="47.48122" lon="6.76657">
        <ele>313</ele>
        <time>2015-08-02T09:18:27Z</time>
      </trkpt>
      <trkpt lat="47.48126" lon="6.76662">
        <ele>313</ele>
        <time>2015-08-02T09:18:27Z</time>
      </trkpt>
      <trkpt lat="47.4813" lon="6.76668">
        <ele>312</ele>
        <time>2015-08-02T09:18:28Z</time>
      </trkpt>
      <trkpt lat="47.48134" lon="6.76673">
        <ele>312</ele>
        <time>2015-08-02T09:18:29Z</time>
      </trkpt>
      <trkpt lat="47.48138" lon="6.76678">
        <ele>312</ele>
        <time>2015-08-02T09:18:29Z</time>
      </trkpt>
      <trkpt lat="47.48142" lon="6.76683">
        <ele>312</ele>
        <time>2015-08-02T09:18:30Z</time>
      </trkpt>
      <trkpt lat="47.48147" lon="6.76689">
        <ele>312</ele>
        <time>2015-08-02T09:18:32Z</time>
      </trkpt>
      <trkpt lat="47.4815" lon="6.76696">
        <ele>312</ele>
        <time>2015-08-02T09:18:32Z</time>
      </trkpt>
      <trkpt lat="47.48155" lon="6.76702">
        <ele>312</ele>
        <time>2015-08-02T09:18:33Z</time>
      </trkpt>
      <trkpt lat="47.4816" lon="6.76707">
        <ele>312</ele>
        <time>2015-08-02T09:18:33Z</time>
      </trkpt>
      <trkpt lat="47.48164" lon="6.76713">
        <ele>312</ele>
        <time>2015-08-02T09:18:33Z</time>
      </trkpt>
      <trkpt lat="47.48167" lon="6.76724">
        <ele>314</ele>
        <time>2015-08-02T09:18:34Z</time>
      </trkpt>
      <trkpt lat="47.4817" lon="6.76731">
        <ele>314</ele>
        <time>2015-08-02T09:18:35Z</time>
      </trkpt>
      <trkpt lat="47.48174" lon="6.76734">
        <ele>314</ele>
        <time>2015-08-02T09:18:35Z</time>
      </trkpt>
      <trkpt lat="47.48177" lon="6.76739">
        <ele>314</ele>
        <time>2015-08-02T09:18:36Z</time>
      </trkpt>
      <trkpt lat="47.48182" lon="6.76744">
        <ele>314</ele>
        <time>2015-08-02T09:18:37Z</time>
      </trkpt>
      <trkpt lat="47.48185" lon="6.76746">
        <ele>314</ele>
        <time>2015-08-02T09:18:37Z</time>
      </trkpt>
      <trkpt lat="47.48188" lon="6.7675">
        <ele>313</ele>
        <time>2015-08-02T09:18:38Z</time>
      </trkpt>
      <trkpt lat="47.48193" lon="6.76754">
        <ele>312</ele>
        <time>2015-08-02T09:18:39Z</time>
      </trkpt>
      <trkpt lat="47.48203" lon="6.76758">
        <ele>312</ele>
        <time>2015-08-02T09:18:40Z</time>
      </trkpt>
      <trkpt lat="47.48209" lon="6.76762">
        <ele>312</ele>
        <time>2015-08-02T09:18:41Z</time>
      </trkpt>
      <trkpt lat="47.48214" lon="6.76765">
        <ele>312</ele>
        <time>2015-08-02T09:18:41Z</time>
      </trkpt>
      <trkpt lat="47.48232" lon="6.76772">
        <ele>312</ele>
        <time>2015-08-02T09:18:43Z</time>
      </trkpt>
      <trkpt lat="47.48237" lon="6.76775">
        <ele>312</ele>
        <time>2015-08-02T09:18:44Z</time>
      </trkpt>
      <trkpt lat="47.48248" lon="6.76784">
        <ele>312</ele>
        <time>2015-08-02T09:18:45Z</time>
      </trkpt>
      <trkpt lat="47.48252" lon="6.76788">
        <ele>313</ele>
        <time>2015-08-02T09:18:46Z</time>
      </trkpt>
      <trkpt lat="47.48255" lon="6.76797">
        <ele>313</ele>
        <time>2015-08-02T09:18:47Z</time>
      </trkpt>
      <trkpt lat="47.4826" lon="6.76805">
        <ele>313</ele>
        <time>2015-08-02T09:18:47Z</time>
      </trkpt>
      <trkpt lat="47.48264" lon="6.76812">
        <ele>313</ele>
        <time>2015-08-02T09:18:48Z</time>
      </trkpt>
      <trkpt lat="47.48268" lon="6.7682">
        <ele>312</ele>
        <time>2015-08-02T09:18:49Z</time>
      </trkpt>
      <trkpt lat="47.48272" lon="6.76826">
        <ele>312</ele>
        <time>2015-08-02T09:18:49Z</time>
      </trkpt>
      <trkpt lat="47.48277" lon="6.76834">
        <ele>311</ele>
        <time>2015-08-02T09:18:50Z</time>
      </trkpt>
      <trkpt lat="47.48282" lon="6.76838">
        <ele>311</ele>
        <time>2015-08-02T09:18:52Z</time>
      </trkpt>
      <trkpt lat="47.48286" lon="6.76844">
        <ele>311</ele>
        <time>2015-08-02T09:18:52Z</time>
      </trkpt>
      <trkpt lat="47.48289" lon="6.76849">
        <ele>310</ele>
        <time>2015-08-02T09:18:53Z</time>
      </trkpt>
      <trkpt lat="47.48295" lon="6.76853">
        <ele>310</ele>
        <time>2015-08-02T09:18:53Z</time>
      </trkpt>
      <trkpt lat="47.483" lon="6.76858">
        <ele>310</ele>
        <time>2015-08-02T09:18:53Z</time>
      </trkpt>
      <trkpt lat="47.48304" lon="6.76863">
        <ele>310</ele>
        <time>2015-08-02T09:18:54Z</time>
      </trkpt>
      <trkpt lat="47.4831" lon="6.76866">
        <ele>310</ele>
        <time>2015-08-02T09:18:56Z</time>
      </trkpt>
      <trkpt lat="47.48315" lon="6.76868">
        <ele>310</ele>
        <time>2015-08-02T09:18:56Z</time>
      </trkpt>
      <trkpt lat="47.48321" lon="6.76872">
        <ele>310</ele>
        <time>2015-08-02T09:18:58Z</time>
      </trkpt>
      <trkpt lat="47.48324" lon="6.76877">
        <ele>310</ele>
        <time>2015-08-02T09:18:59Z</time>
      </trkpt>
      <trkpt lat="47.48329" lon="6.76884">
        <ele>310</ele>
        <time>2015-08-02T09:18:59Z</time>
      </trkpt>
      <trkpt lat="47.48334" lon="6.76888">
        <ele>311</ele>
        <time>2015-08-02T09:19:01Z</time>
      </trkpt>
      <trkpt lat="47.4834" lon="6.76892">
        <ele>311</ele>
        <time>2015-08-02T09:19:02Z</time>
      </trkpt>
      <trkpt lat="47.48345" lon="6.76896">
        <ele>311</ele>
        <time>2015-08-02T09:19:02Z</time>
      </trkpt>
      <trkpt lat="47.4835" lon="6.769">
        <ele>311</ele>
        <time>2015-08-02T09:19:03Z</time>
      </trkpt>
      <trkpt lat="47.48356" lon="6.76904">
        <ele>311</ele>
        <time>2015-08-02T09:19:03Z</time>
      </trkpt>
      <trkpt lat="47.48361" lon="6.76907">
        <ele>311</ele>
        <time>2015-08-02T09:19:03Z</time>
      </trkpt>
      <trkpt lat="47.48366" lon="6.76911">
        <ele>311</ele>
        <time>2015-08-02T09:19:04Z</time>
      </trkpt>
      <trkpt lat="47.4837" lon="6.76915">
        <ele>311</ele>
        <time>2015-08-02T09:19:05Z</time>
      </trkpt>
      <trkpt lat="47.48376" lon="6.7692">
        <ele>312</ele>
        <time>2015-08-02T09:19:05Z</time>
      </trkpt>
      <trkpt lat="47.48381" lon="6.76924">
        <ele>312</ele>
        <time>2015-08-02T09:19:06Z</time>
      </trkpt>
      <trkpt lat="47.48386" lon="6.76927">
        <ele>312</ele>
        <time>2015-08-02T09:19:07Z</time>
      </trkpt>
      <trkpt lat="47.4839" lon="6.76931">
        <ele>312</ele>
        <time>2015-08-02T09:19:07Z</time>
      </trkpt>
      <trkpt lat="47.48395" lon="6.76935">
        <ele>312</ele>
        <time>2015-08-02T09:19:08Z</time>
      </trkpt>
      <trkpt lat="47.484" lon="6.76938">
        <ele>312</ele>
        <time>2015-08-02T09:19:09Z</time>
      </trkpt>
      <trkpt lat="47.48406" lon="6.76941">
        <ele>312</ele>
        <time>2015-08-02T09:19:09Z</time>
      </trkpt>
      <trkpt lat="47.48416" lon="6.7695">
        <ele>312</ele>
        <time>2015-08-02T09:19:11Z</time>
      </trkpt>
      <trkpt lat="47.48421" lon="6.76953">
        <ele>314</ele>
        <time>2015-08-02T09:19:11Z</time>
      </trkpt>
      <trkpt lat="47.48427" lon="6.76956">
        <ele>314</ele>
        <time>2015-08-02T09:19:12Z</time>
      </trkpt>
      <trkpt lat="47.48441" lon="6.76965">
        <ele>315</ele>
        <time>2015-08-02T09:19:14Z</time>
      </trkpt>
      <trkpt lat="47.48446" lon="6.76968">
        <ele>315</ele>
        <time>2015-08-02T09:19:15Z</time>
      </trkpt>
      <trkpt lat="47.48449" lon="6.76969">
        <ele>315</ele>
        <time>2015-08-02T09:19:15Z</time>
      </trkpt>
      <trkpt lat="47.48453" lon="6.7697">
        <ele>315</ele>
        <time>2015-08-02T09:19:16Z</time>
      </trkpt>
      <trkpt lat="47.48456" lon="6.76971">
        <ele>315</ele>
        <time>2015-08-02T09:19:17Z</time>
      </trkpt>
      <trkpt lat="47.48462" lon="6.76973">
        <ele>315</ele>
        <time>2015-08-02T09:19:17Z</time>
      </trkpt>
      <trkpt lat="47.48472" lon="6.76979">
        <ele>315</ele>
        <time>2015-08-02T09:19:19Z</time>
      </trkpt>
      <trkpt lat="47.48478" lon="6.7698">
        <ele>315</ele>
        <time>2015-08-02T09:19:19Z</time>
      </trkpt>
      <trkpt lat="47.48484" lon="6.76983">
        <ele>315</ele>
        <time>2015-08-02T09:19:20Z</time>
      </trkpt>
      <trkpt lat="47.48489" lon="6.76987">
        <ele>316</ele>
        <time>2015-08-02T09:19:21Z</time>
      </trkpt>
      <trkpt lat="47.485" lon="6.76992">
        <ele>316</ele>
        <time>2015-08-02T09:19:22Z</time>
      </trkpt>
      <trkpt lat="47.48506" lon="6.76995">
        <ele>316</ele>
        <time>2015-08-02T09:19:23Z</time>
      </trkpt>
      <trkpt lat="47.4852" lon="6.77006">
        <ele>315</ele>
        <time>2015-08-02T09:19:24Z</time>
      </trkpt>
      <trkpt lat="47.48525" lon="6.7701">
        <ele>315</ele>
        <time>2015-08-02T09:19:24Z</time>
      </trkpt>
      <trkpt lat="47.4853" lon="6.77016">
        <ele>315</ele>
        <time>2015-08-02T09:19:26Z</time>
      </trkpt>
      <trkpt lat="47.48535" lon="6.77019">
        <ele>315</ele>
        <time>2015-08-02T09:19:27Z</time>
      </trkpt>
      <trkpt lat="47.48541" lon="6.77021">
        <ele>314</ele>
        <time>2015-08-02T09:19:27Z</time>
      </trkpt>
      <trkpt lat="47.48551" lon="6.77024">
        <ele>314</ele>
        <time>2015-08-02T09:19:29Z</time>
      </trkpt>
      <trkpt lat="47.48556" lon="6.77027">
        <ele>314</ele>
        <time>2015-08-02T09:19:29Z</time>
      </trkpt>
      <trkpt lat="47.4856" lon="6.77029">
        <ele>314</ele>
        <time>2015-08-02T09:19:30Z</time>
      </trkpt>
      <trkpt lat="47.48564" lon="6.77031">
        <ele>314</ele>
        <time>2015-08-02T09:19:31Z</time>
      </trkpt>
      <trkpt lat="47.48569" lon="6.77033">
        <ele>314</ele>
        <time>2015-08-02T09:19:31Z</time>
      </trkpt>
      <trkpt lat="47.48573" lon="6.77034">
        <ele>314</ele>
        <time>2015-08-02T09:19:32Z</time>
      </trkpt>
      <trkpt lat="47.48577" lon="6.77038">
        <ele>314</ele>
        <time>2015-08-02T09:19:33Z</time>
      </trkpt>
      <trkpt lat="47.48586" lon="6.77047">
        <ele>314</ele>
        <time>2015-08-02T09:19:34Z</time>
      </trkpt>
      <trkpt lat="47.4859" lon="6.7705">
        <ele>314</ele>
        <time>2015-08-02T09:19:34Z</time>
      </trkpt>
      <trkpt lat="47.48595" lon="6.77048">
        <ele>314</ele>
        <time>2015-08-02T09:19:35Z</time>
      </trkpt>
      <trkpt lat="47.486" lon="6.77051">
        <ele>313</ele>
        <time>2015-08-02T09:19:37Z</time>
      </trkpt>
      <trkpt lat="47.48603" lon="6.77054">
        <ele>313</ele>
        <time>2015-08-02T09:19:37Z</time>
      </trkpt>
      <trkpt lat="47.48606" lon="6.77054">
        <ele>313</ele>
        <time>2015-08-02T09:19:38Z</time>
      </trkpt>
      <trkpt lat="47.48609" lon="6.77053">
        <ele>313</ele>
        <time>2015-08-02T09:19:40Z</time>
      </trkpt>
      <trkpt lat="47.48617" lon="6.77054">
        <ele>313</ele>
        <time>2015-08-02T09:19:41Z</time>
      </trkpt>
      <trkpt lat="47.48624" lon="6.77058">
        <ele>313</ele>
        <time>2015-08-02T09:19:43Z</time>
      </trkpt>
      <trkpt lat="47.4863" lon="6.77063">
        <ele>313</ele>
        <time>2015-08-02T09:19:43Z</time>
      </trkpt>
      <trkpt lat="47.48637" lon="6.77072">
        <ele>313</ele>
        <time>2015-08-02T09:19:43Z</time>
      </trkpt>
      <trkpt lat="47.48642" lon="6.77077">
        <ele>313</ele>
        <time>2015-08-02T09:19:45Z</time>
      </trkpt>
      <trkpt lat="47.48653" lon="6.77091">
        <ele>313</ele>
        <time>2015-08-02T09:19:46Z</time>
      </trkpt>
      <trkpt lat="47.48658" lon="6.77097">
        <ele>313</ele>
        <time>2015-08-02T09:19:47Z</time>
      </trkpt>
      <trkpt lat="47.48662" lon="6.77103">
        <ele>312</ele>
        <time>2015-08-02T09:19:47Z</time>
      </trkpt>
      <trkpt lat="47.48671" lon="6.77119">
        <ele>312</ele>
        <time>2015-08-02T09:19:49Z</time>
      </trkpt>
      <trkpt lat="47.48676" lon="6.77124">
        <ele>312</ele>
        <time>2015-08-02T09:19:49Z</time>
      </trkpt>
      <trkpt lat="47.48685" lon="6.77134">
        <ele>312</ele>
        <time>2015-08-02T09:19:51Z</time>
      </trkpt>
      <trkpt lat="47.48688" lon="6.77138">
        <ele>311</ele>
        <time>2015-08-02T09:19:51Z</time>
      </trkpt>
      <trkpt lat="47.48693" lon="6.77142">
        <ele>311</ele>
        <time>2015-08-02T09:19:52Z</time>
      </trkpt>
      <trkpt lat="47.48702" lon="6.77151">
        <ele>311</ele>
        <time>2015-08-02T09:19:53Z</time>
      </trkpt>
      <trkpt lat="47.48707" lon="6.77154">
        <ele>311</ele>
        <time>2015-08-02T09:19:53Z</time>
      </trkpt>
      <trkpt lat="47.48712" lon="6.77158">
        <ele>311</ele>
        <time>2015-08-02T09:19:55Z</time>
      </trkpt>
      <trkpt lat="47.48717" lon="6.77164">
        <ele>311</ele>
        <time>2015-08-02T09:19:55Z</time>
      </trkpt>
      <trkpt lat="47.4872" lon="6.77166">
        <ele>311</ele>
        <time>2015-08-02T09:19:56Z</time>
      </trkpt>
      <trkpt lat="47.48725" lon="6.77168">
        <ele>311</ele>
        <time>2015-08-02T09:19:57Z</time>
      </trkpt>
      <trkpt lat="47.48728" lon="6.77174">
        <ele>311</ele>
        <time>2015-08-02T09:19:57Z</time>
      </trkpt>
      <trkpt lat="47.48732" lon="6.77178">
        <ele>311</ele>
        <time>2015-08-02T09:19:58Z</time>
      </trkpt>
      <trkpt lat="47.48737" lon="6.77181">
        <ele>311</ele>
        <time>2015-08-02T09:19:59Z</time>
      </trkpt>
      <trkpt lat="47.48742" lon="6.77184">
        <ele>311</ele>
        <time>2015-08-02T09:19:59Z</time>
      </trkpt>
      <trkpt lat="47.48748" lon="6.7719">
        <ele>310</ele>
        <time>2015-08-02T09:20:00Z</time>
      </trkpt>
      <trkpt lat="47.48753" lon="6.77196">
        <ele>310</ele>
        <time>2015-08-02T09:20:01Z</time>
      </trkpt>
      <trkpt lat="47.48757" lon="6.772">
        <ele>310</ele>
        <time>2015-08-02T09:20:01Z</time>
      </trkpt>
      <trkpt lat="47.48767" lon="6.77206">
        <ele>310</ele>
        <time>2015-08-02T09:20:03Z</time>
      </trkpt>
      <trkpt lat="47.48778" lon="6.77213">
        <ele>310</ele>
        <time>2015-08-02T09:20:03Z</time>
      </trkpt>
      <trkpt lat="47.48783" lon="6.77216">
        <ele>310</ele>
        <time>2015-08-02T09:20:04Z</time>
      </trkpt>
      <trkpt lat="47.48788" lon="6.7722">
        <ele>310</ele>
        <time>2015-08-02T09:20:04Z</time>
      </trkpt>
      <trkpt lat="47.48792" lon="6.77225">
        <ele>310</ele>
        <time>2015-08-02T09:20:05Z</time>
      </trkpt>
      <trkpt lat="47.48797" lon="6.77229">
        <ele>310</ele>
        <time>2015-08-02T09:20:06Z</time>
      </trkpt>
      <trkpt lat="47.48802" lon="6.77232">
        <ele>310</ele>
        <time>2015-08-02T09:20:06Z</time>
      </trkpt>
      <trkpt lat="47.48807" lon="6.77234">
        <ele>311</ele>
        <time>2015-08-02T09:20:08Z</time>
      </trkpt>
      <trkpt lat="47.48812" lon="6.77235">
        <ele>311</ele>
        <time>2015-08-02T09:20:09Z</time>
      </trkpt>
      <trkpt lat="47.48816" lon="6.77238">
        <ele>311</ele>
        <time>2015-08-02T09:20:09Z</time>
      </trkpt>
      <trkpt lat="47.48826" lon="6.77244">
        <ele>311</ele>
        <time>2015-08-02T09:20:11Z</time>
      </trkpt>
      <trkpt lat="47.48831" lon="6.77248">
        <ele>311</ele>
        <time>2015-08-02T09:20:11Z</time>
      </trkpt>
      <trkpt lat="47.48836" lon="6.77252">
        <ele>311</ele>
        <time>2015-08-02T09:20:12Z</time>
      </trkpt>
      <trkpt lat="47.48841" lon="6.77255">
        <ele>311</ele>
        <time>2015-08-02T09:20:13Z</time>
      </trkpt>
      <trkpt lat="47.48845" lon="6.77259">
        <ele>311</ele>
        <time>2015-08-02T09:20:13Z</time>
      </trkpt>
      <trkpt lat="47.48852" lon="6.77262">
        <ele>310</ele>
        <time>2015-08-02T09:20:13Z</time>
      </trkpt>
      <trkpt lat="47.48856" lon="6.77267">
        <ele>310</ele>
        <time>2015-08-02T09:20:14Z</time>
      </trkpt>
      <trkpt lat="47.48861" lon="6.77271">
        <ele>310</ele>
        <time>2015-08-02T09:20:14Z</time>
      </trkpt>
      <trkpt lat="47.48869" lon="6.77275">
        <ele>310</ele>
        <time>2015-08-02T09:20:16Z</time>
      </trkpt>
      <trkpt lat="47.48875" lon="6.77277">
        <ele>310</ele>
        <time>2015-08-02T09:20:16Z</time>
      </trkpt>
      <trkpt lat="47.4888" lon="6.77278">
        <ele>310</ele>
        <time>2015-08-02T09:20:17Z</time>
      </trkpt>
      <trkpt lat="47.48886" lon="6.77278">
        <ele>310</ele>
        <time>2015-08-02T09:20:18Z</time>
      </trkpt>
      <trkpt lat="47.48892" lon="6.77282">
        <ele>310</ele>
        <time>2015-08-02T09:20:18Z</time>
      </trkpt>
      <trkpt lat="47.48897" lon="6.77283">
        <ele>310</ele>
        <time>2015-08-02T09:20:19Z</time>
      </trkpt>
      <trkpt lat="47.48902" lon="6.77287">
        <ele>310</ele>
        <time>2015-08-02T09:20:21Z</time>
      </trkpt>
      <trkpt lat="47.48908" lon="6.7729">
        <ele>310</ele>
        <time>2015-08-02T09:20:21Z</time>
      </trkpt>
      <trkpt lat="47.48913" lon="6.77293">
        <ele>310</ele>
        <time>2015-08-02T09:20:23Z</time>
      </trkpt>
      <trkpt lat="47.48919" lon="6.77296">
        <ele>311</ele>
        <time>2015-08-02T09:20:23Z</time>
      </trkpt>
      <trkpt lat="47.48929" lon="6.77299">
        <ele>311</ele>
        <time>2015-08-02T09:20:24Z</time>
      </trkpt>
      <trkpt lat="47.48935" lon="6.77303">
        <ele>311</ele>
        <time>2015-08-02T09:20:25Z</time>
      </trkpt>
      <trkpt lat="47.48941" lon="6.77306">
        <ele>311</ele>
        <time>2015-08-02T09:20:25Z</time>
      </trkpt>
      <trkpt lat="47.48946" lon="6.7731">
        <ele>311</ele>
        <time>2015-08-02T09:20:26Z</time>
      </trkpt>
      <trkpt lat="47.48952" lon="6.77313">
        <ele>311</ele>
        <time>2015-08-02T09:20:27Z</time>
      </trkpt>
      <trkpt lat="47.48957" lon="6.77312">
        <ele>311</ele>
        <time>2015-08-02T09:20:27Z</time>
      </trkpt>
      <trkpt lat="47.48968" lon="6.77312">
        <ele>311</ele>
        <time>2015-08-02T09:20:30Z</time>
      </trkpt>
      <trkpt lat="47.48975" lon="6.77312">
        <ele>311</ele>
        <time>2015-08-02T09:20:30Z</time>
      </trkpt>
      <trkpt lat="47.4898" lon="6.77314">
        <ele>311</ele>
        <time>2015-08-02T09:20:31Z</time>
      </trkpt>
      <trkpt lat="47.48986" lon="6.77315">
        <ele>311</ele>
        <time>2015-08-02T09:20:33Z</time>
      </trkpt>
      <trkpt lat="47.48991" lon="6.77313">
        <ele>311</ele>
        <time>2015-08-02T09:20:33Z</time>
      </trkpt>
      <trkpt lat="47.48997" lon="6.77314">
        <ele>311</ele>
        <time>2015-08-02T09:20:33Z</time>
      </trkpt>
      <trkpt lat="47.49008" lon="6.77316">
        <ele>311</ele>
        <time>2015-08-02T09:20:34Z</time>
      </trkpt>
      <trkpt lat="47.49012" lon="6.77315">
        <ele>311</ele>
        <time>2015-08-02T09:20:35Z</time>
      </trkpt>
      <trkpt lat="47.49017" lon="6.77314">
        <ele>311</ele>
        <time>2015-08-02T09:20:37Z</time>
      </trkpt>
      <trkpt lat="47.49022" lon="6.77314">
        <ele>311</ele>
        <time>2015-08-02T09:20:37Z</time>
      </trkpt>
      <trkpt lat="47.49027" lon="6.77312">
        <ele>311</ele>
        <time>2015-08-02T09:20:38Z</time>
      </trkpt>
      <trkpt lat="47.49038" lon="6.77314">
        <ele>311</ele>
        <time>2015-08-02T09:20:39Z</time>
      </trkpt>
      <trkpt lat="47.49043" lon="6.77311">
        <ele>311</ele>
        <time>2015-08-02T09:20:40Z</time>
      </trkpt>
      <trkpt lat="47.49049" lon="6.77308">
        <ele>311</ele>
        <time>2015-08-02T09:20:41Z</time>
      </trkpt>
      <trkpt lat="47.49055" lon="6.77309">
        <ele>311</ele>
        <time>2015-08-02T09:20:41Z</time>
      </trkpt>
      <trkpt lat="47.4906" lon="6.77309">
        <ele>311</ele>
        <time>2015-08-02T09:20:42Z</time>
      </trkpt>
      <trkpt lat="47.49066" lon="6.77311">
        <ele>311</ele>
        <time>2015-08-02T09:20:43Z</time>
      </trkpt>
      <trkpt lat="47.49071" lon="6.77311">
        <ele>311</ele>
        <time>2015-08-02T09:20:43Z</time>
      </trkpt>
      <trkpt lat="47.49078" lon="6.77312">
        <ele>311</ele>
        <time>2015-08-02T09:20:43Z</time>
      </trkpt>
      <trkpt lat="47.49091" lon="6.77313">
        <ele>311</ele>
        <time>2015-08-02T09:20:44Z</time>
      </trkpt>
      <trkpt lat="47.49097" lon="6.77318">
        <ele>311</ele>
        <time>2015-08-02T09:20:45Z</time>
      </trkpt>
      <trkpt lat="47.49102" lon="6.77317">
        <ele>311</ele>
        <time>2015-08-02T09:20:46Z</time>
      </trkpt>
      <trkpt lat="47.49108" lon="6.77318">
        <ele>311</ele>
        <time>2015-08-02T09:20:46Z</time>
      </trkpt>
      <trkpt lat="47.49114" lon="6.77321">
        <ele>311</ele>
        <time>2015-08-02T09:20:47Z</time>
      </trkpt>
      <trkpt lat="47.49119" lon="6.77323">
        <ele>311</ele>
        <time>2015-08-02T09:20:48Z</time>
      </trkpt>
      <trkpt lat="47.49125" lon="6.77325">
        <ele>311</ele>
        <time>2015-08-02T09:20:48Z</time>
      </trkpt>
      <trkpt lat="47.4913" lon="6.77327">
        <ele>311</ele>
        <time>2015-08-02T09:20:50Z</time>
      </trkpt>
      <trkpt lat="47.49135" lon="6.77326">
        <ele>311</ele>
        <time>2015-08-02T09:20:51Z</time>
      </trkpt>
      <trkpt lat="47.4914" lon="6.77327">
        <ele>311</ele>
        <time>2015-08-02T09:20:51Z</time>
      </trkpt>
      <trkpt lat="47.49146" lon="6.77329">
        <ele>311</ele>
        <time>2015-08-02T09:20:52Z</time>
      </trkpt>
      <trkpt lat="47.49149" lon="6.77327">
        <ele>311</ele>
        <time>2015-08-02T09:20:53Z</time>
      </trkpt>
      <trkpt lat="47.49152" lon="6.77325">
        <ele>311</ele>
        <time>2015-08-02T09:20:53Z</time>
      </trkpt>
      <trkpt lat="47.49154" lon="6.77318">
        <ele>311</ele>
        <time>2015-08-02T09:20:53Z</time>
      </trkpt>
      <trkpt lat="47.49158" lon="6.77314">
        <ele>311</ele>
        <time>2015-08-02T09:20:54Z</time>
      </trkpt>
      <trkpt lat="47.49162" lon="6.77313">
        <ele>311</ele>
        <time>2015-08-02T09:20:54Z</time>
      </trkpt>
      <trkpt lat="47.49167" lon="6.77312">
        <ele>311</ele>
        <time>2015-08-02T09:20:55Z</time>
      </trkpt>
      <trkpt lat="47.49172" lon="6.77313">
        <ele>310</ele>
        <time>2015-08-02T09:20:56Z</time>
      </trkpt>
      <trkpt lat="47.49176" lon="6.77313">
        <ele>310</ele>
        <time>2015-08-02T09:20:56Z</time>
      </trkpt>
      <trkpt lat="47.49179" lon="6.77311">
        <ele>311</ele>
        <time>2015-08-02T09:20:57Z</time>
      </trkpt>
      <trkpt lat="47.49183" lon="6.77312">
        <ele>311</ele>
        <time>2015-08-02T09:20:58Z</time>
      </trkpt>
      <trkpt lat="47.49187" lon="6.77312">
        <ele>311</ele>
        <time>2015-08-02T09:20:59Z</time>
      </trkpt>
      <trkpt lat="47.49188" lon="6.77314">
        <ele>311</ele>
        <time>2015-08-02T09:21:00Z</time>
      </trkpt>
      <trkpt lat="47.49185" lon="6.77319">
        <ele>310</ele>
        <time>2015-08-02T09:21:03Z</time>
      </trkpt>
      <trkpt lat="47.49185" lon="6.77319">
        <ele>310</ele>
        <time>2015-08-02T09:21:03Z</time>
      </trkpt>
      <trkpt lat="47.49186" lon="6.77326">
        <ele>310</ele>
        <time>2015-08-02T09:21:23Z</time>
      </trkpt>
      <trkpt lat="47.49188" lon="6.77322">
        <ele>310</ele>
        <time>2015-08-02T09:25:00Z</time>
      </trkpt>
      <trkpt lat="47.4919" lon="6.77322">
        <ele>310</ele>
        <time>2015-08-02T09:25:00Z</time>
      </trkpt>
      <trkpt lat="47.49194" lon="6.77324">
        <ele>310</ele>
        <time>2015-08-02T09:25:02Z</time>
      </trkpt>
      <trkpt lat="47.49197" lon="6.77325">
        <ele>310</ele>
        <time>2015-08-02T09:25:02Z</time>
      </trkpt>
      <trkpt lat="47.49201" lon="6.77328">
        <ele>310</ele>
        <time>2015-08-02T09:25:03Z</time>
      </trkpt>
      <trkpt lat="47.49203" lon="6.77329">
        <ele>310</ele>
        <time>2015-08-02T09:25:03Z</time>
      </trkpt>
      <trkpt lat="47.49205" lon="6.77329">
        <ele>310</ele>
        <time>2015-08-02T09:25:04Z</time>
      </trkpt>
      <trkpt lat="47.4921" lon="6.77328">
        <ele>310</ele>
        <time>2015-08-02T09:25:05Z</time>
      </trkpt>
      <trkpt lat="47.49215" lon="6.77327">
        <ele>310</ele>
        <time>2015-08-02T09:25:08Z</time>
      </trkpt>
      <trkpt lat="47.49218" lon="6.77326">
        <ele>310</ele>
        <time>2015-08-02T09:25:14Z</time>
      </trkpt>
      <trkpt lat="47.4922" lon="6.77326">
        <ele>310</ele>
        <time>2015-08-02T09:25:14Z</time>
      </trkpt>
      <trkpt lat="47.49223" lon="6.77327">
        <ele>310</ele>
        <time>2015-08-02T09:25:17Z</time>
      </trkpt>
      <trkpt lat="47.4923" lon="6.77329">
        <ele>310</ele>
        <time>2015-08-02T09:25:18Z</time>
      </trkpt>
      <trkpt lat="47.49235" lon="6.77329">
        <ele>310</ele>
        <time>2015-08-02T09:25:19Z</time>
      </trkpt>
      <trkpt lat="47.49243" lon="6.77328">
        <ele>310</ele>
        <time>2015-08-02T09:25:19Z</time>
      </trkpt>
      <trkpt lat="47.49248" lon="6.77327">
        <ele>310</ele>
        <time>2015-08-02T09:25:20Z</time>
      </trkpt>
      <trkpt lat="47.49253" lon="6.77324">
        <ele>310</ele>
        <time>2015-08-02T09:25:21Z</time>
      </trkpt>
      <trkpt lat="47.4926" lon="6.7732">
        <ele>310</ele>
        <time>2015-08-02T09:25:21Z</time>
      </trkpt>
      <trkpt lat="47.49274" lon="6.7732">
        <ele>310</ele>
        <time>2015-08-02T09:25:23Z</time>
      </trkpt>
      <trkpt lat="47.49282" lon="6.77321">
        <ele>310</ele>
        <time>2015-08-02T09:25:23Z</time>
      </trkpt>
      <trkpt lat="47.49289" lon="6.77322">
        <ele>311</ele>
        <time>2015-08-02T09:25:23Z</time>
      </trkpt>
      <trkpt lat="47.49303" lon="6.77324">
        <ele>310</ele>
        <time>2015-08-02T09:25:24Z</time>
      </trkpt>
      <trkpt lat="47.49317" lon="6.77328">
        <ele>310</ele>
        <time>2015-08-02T09:25:27Z</time>
      </trkpt>
      <trkpt lat="47.49323" lon="6.77329">
        <ele>310</ele>
        <time>2015-08-02T09:25:27Z</time>
      </trkpt>
      <trkpt lat="47.49327" lon="6.77326">
        <ele>310</ele>
        <time>2015-08-02T09:25:28Z</time>
      </trkpt>
      <trkpt lat="47.49331" lon="6.77326">
        <ele>310</ele>
        <time>2015-08-02T09:25:29Z</time>
      </trkpt>
      <trkpt lat="47.49336" lon="6.77331">
        <ele>310</ele>
        <time>2015-08-02T09:25:29Z</time>
      </trkpt>
      <trkpt lat="47.49341" lon="6.77334">
        <ele>310</ele>
        <time>2015-08-02T09:25:30Z</time>
      </trkpt>
      <trkpt lat="47.49345" lon="6.77334">
        <ele>310</ele>
        <time>2015-08-02T09:25:31Z</time>
      </trkpt>
      <trkpt lat="47.49352" lon="6.77334">
        <ele>310</ele>
        <time>2015-08-02T09:25:32Z</time>
      </trkpt>
      <trkpt lat="47.49355" lon="6.77333">
        <ele>311</ele>
        <time>2015-08-02T09:25:33Z</time>
      </trkpt>
      <trkpt lat="47.49364" lon="6.77332">
        <ele>311</ele>
        <time>2015-08-02T09:25:33Z</time>
      </trkpt>
      <trkpt lat="47.4937" lon="6.77335">
        <ele>310</ele>
        <time>2015-08-02T09:25:34Z</time>
      </trkpt>
      <trkpt lat="47.49375" lon="6.77336">
        <ele>310</ele>
        <time>2015-08-02T09:25:34Z</time>
      </trkpt>
      <trkpt lat="47.4938" lon="6.77336">
        <ele>310</ele>
        <time>2015-08-02T09:25:35Z</time>
      </trkpt>
      <trkpt lat="47.49384" lon="6.77334">
        <ele>310</ele>
        <time>2015-08-02T09:25:36Z</time>
      </trkpt>
      <trkpt lat="47.49389" lon="6.77335">
        <ele>310</ele>
        <time>2015-08-02T09:25:36Z</time>
      </trkpt>
      <trkpt lat="47.49399" lon="6.77337">
        <ele>311</ele>
        <time>2015-08-02T09:25:39Z</time>
      </trkpt>
      <trkpt lat="47.49409" lon="6.7734">
        <ele>311</ele>
        <time>2015-08-02T09:25:41Z</time>
      </trkpt>
      <trkpt lat="47.49414" lon="6.77341">
        <ele>311</ele>
        <time>2015-08-02T09:25:42Z</time>
      </trkpt>
      <trkpt lat="47.49419" lon="6.77342">
        <ele>311</ele>
        <time>2015-08-02T09:25:42Z</time>
      </trkpt>
      <trkpt lat="47.49424" lon="6.77344">
        <ele>311</ele>
        <time>2015-08-02T09:25:43Z</time>
      </trkpt>
      <trkpt lat="47.49429" lon="6.77344">
        <ele>311</ele>
        <time>2015-08-02T09:25:43Z</time>
      </trkpt>
      <trkpt lat="47.4944" lon="6.77347">
        <ele>311</ele>
        <time>2015-08-02T09:25:44Z</time>
      </trkpt>
      <trkpt lat="47.49445" lon="6.77347">
        <ele>311</ele>
        <time>2015-08-02T09:25:45Z</time>
      </trkpt>
      <trkpt lat="47.49455" lon="6.77347">
        <ele>311</ele>
        <time>2015-08-02T09:25:46Z</time>
      </trkpt>
      <trkpt lat="47.49461" lon="6.7735">
        <ele>311</ele>
        <time>2015-08-02T09:25:47Z</time>
      </trkpt>
      <trkpt lat="47.49466" lon="6.77349">
        <ele>311</ele>
        <time>2015-08-02T09:25:47Z</time>
      </trkpt>
      <trkpt lat="47.49471" lon="6.77351">
        <ele>311</ele>
        <time>2015-08-02T09:25:48Z</time>
      </trkpt>
      <trkpt lat="47.49477" lon="6.77352">
        <ele>311</ele>
        <time>2015-08-02T09:25:49Z</time>
      </trkpt>
      <trkpt lat="47.49481" lon="6.77351">
        <ele>311</ele>
        <time>2015-08-02T09:25:49Z</time>
      </trkpt>
      <trkpt lat="47.49502" lon="6.77353">
        <ele>312</ele>
        <time>2015-08-02T09:25:53Z</time>
      </trkpt>
      <trkpt lat="47.49507" lon="6.77354">
        <ele>312</ele>
        <time>2015-08-02T09:25:54Z</time>
      </trkpt>
      <trkpt lat="47.49512" lon="6.77355">
        <ele>312</ele>
        <time>2015-08-02T09:25:54Z</time>
      </trkpt>
      <trkpt lat="47.49517" lon="6.77355">
        <ele>312</ele>
        <time>2015-08-02T09:25:55Z</time>
      </trkpt>
      <trkpt lat="47.49522" lon="6.77355">
        <ele>312</ele>
        <time>2015-08-02T09:25:56Z</time>
      </trkpt>
      <trkpt lat="47.49527" lon="6.77355">
        <ele>312</ele>
        <time>2015-08-02T09:25:56Z</time>
      </trkpt>
      <trkpt lat="47.49531" lon="6.77356">
        <ele>312</ele>
        <time>2015-08-02T09:25:57Z</time>
      </trkpt>
      <trkpt lat="47.49547" lon="6.77356">
        <ele>312</ele>
        <time>2015-08-02T09:25:59Z</time>
      </trkpt>
      <trkpt lat="47.49551" lon="6.77357">
        <ele>312</ele>
        <time>2015-08-02T09:26:00Z</time>
      </trkpt>
      <trkpt lat="47.49556" lon="6.77358">
        <ele>312</ele>
        <time>2015-08-02T09:26:00Z</time>
      </trkpt>
      <trkpt lat="47.49561" lon="6.77358">
        <ele>312</ele>
        <time>2015-08-02T09:26:01Z</time>
      </trkpt>
      <trkpt lat="47.49567" lon="6.7736">
        <ele>313</ele>
        <time>2015-08-02T09:26:02Z</time>
      </trkpt>
      <trkpt lat="47.49571" lon="6.77359">
        <ele>313</ele>
        <time>2015-08-02T09:26:02Z</time>
      </trkpt>
      <trkpt lat="47.49576" lon="6.77359">
        <ele>313</ele>
        <time>2015-08-02T09:26:03Z</time>
      </trkpt>
      <trkpt lat="47.4958" lon="6.7736">
        <ele>313</ele>
        <time>2015-08-02T09:26:04Z</time>
      </trkpt>
      <trkpt lat="47.49585" lon="6.77358">
        <ele>313</ele>
        <time>2015-08-02T09:26:04Z</time>
      </trkpt>
      <trkpt lat="47.49589" lon="6.77357">
        <ele>313</ele>
        <time>2015-08-02T09:26:05Z</time>
      </trkpt>
      <trkpt lat="47.49595" lon="6.77357">
        <ele>313</ele>
        <time>2015-08-02T09:26:07Z</time>
      </trkpt>
      <trkpt lat="47.49599" lon="6.77356">
        <ele>313</ele>
        <time>2015-08-02T09:26:07Z</time>
      </trkpt>
      <trkpt lat="47.49605" lon="6.77357">
        <ele>313</ele>
        <time>2015-08-02T09:26:08Z</time>
      </trkpt>
      <trkpt lat="47.4961" lon="6.77358">
        <ele>313</ele>
        <time>2015-08-02T09:26:09Z</time>
      </trkpt>
      <trkpt lat="47.49615" lon="6.77356">
        <ele>313</ele>
        <time>2015-08-02T09:26:09Z</time>
      </trkpt>
      <trkpt lat="47.49619" lon="6.77355">
        <ele>313</ele>
        <time>2015-08-02T09:26:10Z</time>
      </trkpt>
      <trkpt lat="47.49624" lon="6.77353">
        <ele>313</ele>
        <time>2015-08-02T09:26:11Z</time>
      </trkpt>
      <trkpt lat="47.49628" lon="6.77353">
        <ele>313</ele>
        <time>2015-08-02T09:26:11Z</time>
      </trkpt>
      <trkpt lat="47.49633" lon="6.77351">
        <ele>313</ele>
        <time>2015-08-02T09:26:12Z</time>
      </trkpt>
      <trkpt lat="47.49638" lon="6.77352">
        <ele>313</ele>
        <time>2015-08-02T09:26:13Z</time>
      </trkpt>
      <trkpt lat="47.49642" lon="6.7735">
        <ele>313</ele>
        <time>2015-08-02T09:26:13Z</time>
      </trkpt>
      <trkpt lat="47.49647" lon="6.7735">
        <ele>313</ele>
        <time>2015-08-02T09:26:13Z</time>
      </trkpt>
      <trkpt lat="47.49657" lon="6.77347">
        <ele>313</ele>
        <time>2015-08-02T09:26:14Z</time>
      </trkpt>
      <trkpt lat="47.49661" lon="6.77345">
        <ele>313</ele>
        <time>2015-08-02T09:26:15Z</time>
      </trkpt>
      <trkpt lat="47.49666" lon="6.77344">
        <ele>314</ele>
        <time>2015-08-02T09:26:16Z</time>
      </trkpt>
      <trkpt lat="47.4967" lon="6.77343">
        <ele>313</ele>
        <time>2015-08-02T09:26:16Z</time>
      </trkpt>
      <trkpt lat="47.49676" lon="6.77341">
        <ele>313</ele>
        <time>2015-08-02T09:26:17Z</time>
      </trkpt>
      <trkpt lat="47.49681" lon="6.77339">
        <ele>313</ele>
        <time>2015-08-02T09:26:18Z</time>
      </trkpt>
      <trkpt lat="47.49685" lon="6.77336">
        <ele>313</ele>
        <time>2015-08-02T09:26:18Z</time>
      </trkpt>
      <trkpt lat="47.4969" lon="6.77335">
        <ele>313</ele>
        <time>2015-08-02T09:26:19Z</time>
      </trkpt>
      <trkpt lat="47.49695" lon="6.77335">
        <ele>313</ele>
        <time>2015-08-02T09:26:21Z</time>
      </trkpt>
      <trkpt lat="47.497" lon="6.77334">
        <ele>313</ele>
        <time>2015-08-02T09:26:21Z</time>
      </trkpt>
      <trkpt lat="47.49705" lon="6.77333">
        <ele>315</ele>
        <time>2015-08-02T09:26:22Z</time>
      </trkpt>
      <trkpt lat="47.4971" lon="6.77333">
        <ele>315</ele>
        <time>2015-08-02T09:26:23Z</time>
      </trkpt>
      <trkpt lat="47.49714" lon="6.77333">
        <ele>315</ele>
        <time>2015-08-02T09:26:23Z</time>
      </trkpt>
      <trkpt lat="47.49717" lon="6.77331">
        <ele>315</ele>
        <time>2015-08-02T09:26:23Z</time>
      </trkpt>
      <trkpt lat="47.49722" lon="6.77328">
        <ele>314</ele>
        <time>2015-08-02T09:26:24Z</time>
      </trkpt>
      <trkpt lat="47.49728" lon="6.77328">
        <ele>314</ele>
        <time>2015-08-02T09:26:24Z</time>
      </trkpt>
      <trkpt lat="47.49731" lon="6.77324">
        <ele>314</ele>
        <time>2015-08-02T09:26:26Z</time>
      </trkpt>
      <trkpt lat="47.49735" lon="6.77323">
        <ele>314</ele>
        <time>2015-08-02T09:26:27Z</time>
      </trkpt>
      <trkpt lat="47.49738" lon="6.7732">
        <ele>314</ele>
        <time>2015-08-02T09:26:27Z</time>
      </trkpt>
      <trkpt lat="47.49741" lon="6.77319">
        <ele>314</ele>
        <time>2015-08-02T09:26:28Z</time>
      </trkpt>
      <trkpt lat="47.49742" lon="6.77316">
        <ele>314</ele>
        <time>2015-08-02T09:26:29Z</time>
      </trkpt>
      <trkpt lat="47.49745" lon="6.77315">
        <ele>314</ele>
        <time>2015-08-02T09:26:29Z</time>
      </trkpt>
      <trkpt lat="47.49749" lon="6.77314">
        <ele>314</ele>
        <time>2015-08-02T09:26:31Z</time>
      </trkpt>
      <trkpt lat="47.4975" lon="6.77314">
        <ele>315</ele>
        <time>2015-08-02T09:26:31Z</time>
      </trkpt>
      <trkpt lat="47.49753" lon="6.7731">
        <ele>316</ele>
        <time>2015-08-02T09:28:03Z</time>
      </trkpt>
      <trkpt lat="47.49754" lon="6.77309">
        <ele>316</ele>
        <time>2015-08-02T09:28:04Z</time>
      </trkpt>
      <trkpt lat="47.49759" lon="6.77306">
        <ele>316</ele>
        <time>2015-08-02T09:28:06Z</time>
      </trkpt>
      <trkpt lat="47.49762" lon="6.77306">
        <ele>316</ele>
        <time>2015-08-02T09:28:35Z</time>
      </trkpt>
      <trkpt lat="47.49765" lon="6.77306">
        <ele>316</ele>
        <time>2015-08-02T09:28:36Z</time>
      </trkpt>
      <trkpt lat="47.49775" lon="6.77305">
        <ele>317</ele>
        <time>2015-08-02T09:28:39Z</time>
      </trkpt>
      <trkpt lat="47.49779" lon="6.77304">
        <ele>317</ele>
        <time>2015-08-02T09:28:40Z</time>
      </trkpt>
      <trkpt lat="47.49793" lon="6.77301">
        <ele>317</ele>
        <time>2015-08-02T09:28:43Z</time>
      </trkpt>
      <trkpt lat="47.498" lon="6.77299">
        <ele>318</ele>
        <time>2015-08-02T09:28:43Z</time>
      </trkpt>
      <trkpt lat="47.49804" lon="6.77298">
        <ele>318</ele>
        <time>2015-08-02T09:28:44Z</time>
      </trkpt>
      <trkpt lat="47.49807" lon="6.77297">
        <ele>318</ele>
        <time>2015-08-02T09:28:44Z</time>
      </trkpt>
      <trkpt lat="47.49814" lon="6.77295">
        <ele>318</ele>
        <time>2015-08-02T09:28:46Z</time>
      </trkpt>
      <trkpt lat="47.49818" lon="6.77286">
        <ele>319</ele>
        <time>2015-08-02T09:28:46Z</time>
      </trkpt>
      <trkpt lat="47.49823" lon="6.77282">
        <ele>320</ele>
        <time>2015-08-02T09:28:47Z</time>
      </trkpt>
      <trkpt lat="47.49829" lon="6.77286">
        <ele>319</ele>
        <time>2015-08-02T09:28:48Z</time>
      </trkpt>
      <trkpt lat="47.49837" lon="6.77281">
        <ele>321</ele>
        <time>2015-08-02T09:28:48Z</time>
      </trkpt>
      <trkpt lat="47.49844" lon="6.77278">
        <ele>321</ele>
        <time>2015-08-02T09:28:49Z</time>
      </trkpt>
      <trkpt lat="47.49848" lon="6.77278">
        <ele>321</ele>
        <time>2015-08-02T09:28:50Z</time>
      </trkpt>
      <trkpt lat="47.49852" lon="6.77276">
        <ele>321</ele>
        <time>2015-08-02T09:28:50Z</time>
      </trkpt>
      <trkpt lat="47.49856" lon="6.77274">
        <ele>321</ele>
        <time>2015-08-02T09:28:51Z</time>
      </trkpt>
      <trkpt lat="47.4986" lon="6.77273">
        <ele>321</ele>
        <time>2015-08-02T09:28:53Z</time>
      </trkpt>
      <trkpt lat="47.49865" lon="6.77269">
        <ele>321</ele>
        <time>2015-08-02T09:28:53Z</time>
      </trkpt>
      <trkpt lat="47.49869" lon="6.77273">
        <ele>321</ele>
        <time>2015-08-02T09:28:53Z</time>
      </trkpt>
      <trkpt lat="47.49874" lon="6.77273">
        <ele>320</ele>
        <time>2015-08-02T09:28:54Z</time>
      </trkpt>
      <trkpt lat="47.49878" lon="6.77272">
        <ele>321</ele>
        <time>2015-08-02T09:28:54Z</time>
      </trkpt>
      <trkpt lat="47.49881" lon="6.77269">
        <ele>321</ele>
        <time>2015-08-02T09:28:55Z</time>
      </trkpt>
      <trkpt lat="47.49885" lon="6.77267">
        <ele>321</ele>
        <time>2015-08-02T09:28:56Z</time>
      </trkpt>
      <trkpt lat="47.49888" lon="6.77264">
        <ele>321</ele>
        <time>2015-08-02T09:28:56Z</time>
      </trkpt>
      <trkpt lat="47.49891" lon="6.7726">
        <ele>321</ele>
        <time>2015-08-02T09:28:57Z</time>
      </trkpt>
      <trkpt lat="47.49894" lon="6.77255">
        <ele>322</ele>
        <time>2015-08-02T09:28:59Z</time>
      </trkpt>
      <trkpt lat="47.49903" lon="6.7724">
        <ele>329</ele>
        <time>2015-08-02T09:29:01Z</time>
      </trkpt>
      <trkpt lat="47.49909" lon="6.77232">
        <ele>330</ele>
        <time>2015-08-02T09:29:02Z</time>
      </trkpt>
      <trkpt lat="47.49912" lon="6.77229">
        <ele>331</ele>
        <time>2015-08-02T09:29:03Z</time>
      </trkpt>
      <trkpt lat="47.49919" lon="6.77224">
        <ele>332</ele>
        <time>2015-08-02T09:29:03Z</time>
      </trkpt>
      <trkpt lat="47.49922" lon="6.77221">
        <ele>332</ele>
        <time>2015-08-02T09:29:04Z</time>
      </trkpt>
      <trkpt lat="47.49928" lon="6.77215">
        <ele>333</ele>
        <time>2015-08-02T09:29:06Z</time>
      </trkpt>
      <trkpt lat="47.49932" lon="6.77212">
        <ele>334</ele>
        <time>2015-08-02T09:29:07Z</time>
      </trkpt>
      <trkpt lat="47.49935" lon="6.7721">
        <ele>334</ele>
        <time>2015-08-02T09:29:07Z</time>
      </trkpt>
      <trkpt lat="47.4994" lon="6.77207">
        <ele>335</ele>
        <time>2015-08-02T09:29:08Z</time>
      </trkpt>
      <trkpt lat="47.49949" lon="6.77202">
        <ele>335</ele>
        <time>2015-08-02T09:29:09Z</time>
      </trkpt>
      <trkpt lat="47.4996" lon="6.77198">
        <ele>336</ele>
        <time>2015-08-02T09:29:11Z</time>
      </trkpt>
      <trkpt lat="47.49965" lon="6.77197">
        <ele>336</ele>
        <time>2015-08-02T09:29:11Z</time>
      </trkpt>
      <trkpt lat="47.4997" lon="6.77195">
        <ele>337</ele>
        <time>2015-08-02T09:29:13Z</time>
      </trkpt>
      <trkpt lat="47.49974" lon="6.77193">
        <ele>337</ele>
        <time>2015-08-02T09:29:13Z</time>
      </trkpt>
      <trkpt lat="47.49979" lon="6.7719">
        <ele>338</ele>
        <time>2015-08-02T09:29:13Z</time>
      </trkpt>
      <trkpt lat="47.49983" lon="6.77187">
        <ele>339</ele>
        <time>2015-08-02T09:29:14Z</time>
      </trkpt>
      <trkpt lat="47.4999" lon="6.77181">
        <ele>342</ele>
        <time>2015-08-02T09:29:15Z</time>
      </trkpt>
      <trkpt lat="47.50005" lon="6.77167">
        <ele>352</ele>
        <time>2015-08-02T09:29:18Z</time>
      </trkpt>
      <trkpt lat="47.50009" lon="6.77163">
        <ele>354</ele>
        <time>2015-08-02T09:29:20Z</time>
      </trkpt>
      <trkpt lat="47.50014" lon="6.77161">
        <ele>355</ele>
        <time>2015-08-02T09:29:20Z</time>
      </trkpt>
      <trkpt lat="47.50018" lon="6.77159">
        <ele>356</ele>
        <time>2015-08-02T09:29:21Z</time>
      </trkpt>
      <trkpt lat="47.50023" lon="6.77159">
        <ele>356</ele>
        <time>2015-08-02T09:29:22Z</time>
      </trkpt>
      <trkpt lat="47.50033" lon="6.77159">
        <ele>357</ele>
        <time>2015-08-02T09:29:23Z</time>
      </trkpt>
      <trkpt lat="47.50038" lon="6.7716">
        <ele>357</ele>
        <time>2015-08-02T09:29:23Z</time>
      </trkpt>
      <trkpt lat="47.50042" lon="6.7716">
        <ele>356</ele>
        <time>2015-08-02T09:29:23Z</time>
      </trkpt>
      <trkpt lat="47.50051" lon="6.77158">
        <ele>355</ele>
        <time>2015-08-02T09:29:25Z</time>
      </trkpt>
      <trkpt lat="47.50065" lon="6.77153">
        <ele>353</ele>
        <time>2015-08-02T09:29:28Z</time>
      </trkpt>
      <trkpt lat="47.5007" lon="6.77151">
        <ele>353</ele>
        <time>2015-08-02T09:29:28Z</time>
      </trkpt>
      <trkpt lat="47.50074" lon="6.77149">
        <ele>353</ele>
        <time>2015-08-02T09:29:29Z</time>
      </trkpt>
      <trkpt lat="47.50079" lon="6.77147">
        <ele>353</ele>
        <time>2015-08-02T09:29:30Z</time>
      </trkpt>
      <trkpt lat="47.50083" lon="6.77145">
        <ele>353</ele>
        <time>2015-08-02T09:29:30Z</time>
      </trkpt>
      <trkpt lat="47.50088" lon="6.77144">
        <ele>348</ele>
        <time>2015-08-02T09:29:31Z</time>
      </trkpt>
      <trkpt lat="47.50093" lon="6.77143">
        <ele>348</ele>
        <time>2015-08-02T09:29:32Z</time>
      </trkpt>
      <trkpt lat="47.50098" lon="6.77143">
        <ele>348</ele>
        <time>2015-08-02T09:29:32Z</time>
      </trkpt>
      <trkpt lat="47.50103" lon="6.77143">
        <ele>348</ele>
        <time>2015-08-02T09:29:33Z</time>
      </trkpt>
      <trkpt lat="47.50108" lon="6.77144">
        <ele>348</ele>
        <time>2015-08-02T09:29:34Z</time>
      </trkpt>
      <trkpt lat="47.50114" lon="6.77147">
        <ele>347</ele>
        <time>2015-08-02T09:29:34Z</time>
      </trkpt>
      <trkpt lat="47.50119" lon="6.77151">
        <ele>346</ele>
        <time>2015-08-02T09:29:35Z</time>
      </trkpt>
      <trkpt lat="47.50131" lon="6.77161">
        <ele>343</ele>
        <time>2015-08-02T09:29:36Z</time>
      </trkpt>
      <trkpt lat="47.50136" lon="6.77165">
        <ele>341</ele>
        <time>2015-08-02T09:29:37Z</time>
      </trkpt>
      <trkpt lat="47.50148" lon="6.77173">
        <ele>324</ele>
        <time>2015-08-02T09:29:38Z</time>
      </trkpt>
      <trkpt lat="47.50165" lon="6.77183">
        <ele>323</ele>
        <time>2015-08-02T09:29:40Z</time>
      </trkpt>
      <trkpt lat="47.5017" lon="6.77186">
        <ele>320</ele>
        <time>2015-08-02T09:29:41Z</time>
      </trkpt>
      <trkpt lat="47.50181" lon="6.77192">
        <ele>319</ele>
        <time>2015-08-02T09:29:42Z</time>
      </trkpt>
      <trkpt lat="47.50186" lon="6.77194">
        <ele>318</ele>
        <time>2015-08-02T09:29:43Z</time>
      </trkpt>
      <trkpt lat="47.50195" lon="6.77199">
        <ele>318</ele>
        <time>2015-08-02T09:29:43Z</time>
      </trkpt>
      <trkpt lat="47.50199" lon="6.77201">
        <ele>318</ele>
        <time>2015-08-02T09:29:45Z</time>
      </trkpt>
      <trkpt lat="47.50204" lon="6.77204">
        <ele>317</ele>
        <time>2015-08-02T09:29:46Z</time>
      </trkpt>
      <trkpt lat="47.50212" lon="6.77211">
        <ele>317</ele>
        <time>2015-08-02T09:29:48Z</time>
      </trkpt>
      <trkpt lat="47.50217" lon="6.77215">
        <ele>317</ele>
        <time>2015-08-02T09:29:49Z</time>
      </trkpt>
      <trkpt lat="47.50227" lon="6.77222">
        <ele>316</ele>
        <time>2015-08-02T09:29:50Z</time>
      </trkpt>
      <trkpt lat="47.50232" lon="6.77226">
        <ele>316</ele>
        <time>2015-08-02T09:29:51Z</time>
      </trkpt>
      <trkpt lat="47.50244" lon="6.77238">
        <ele>316</ele>
        <time>2015-08-02T09:29:52Z</time>
      </trkpt>
      <trkpt lat="47.50255" lon="6.77249">
        <ele>315</ele>
        <time>2015-08-02T09:29:53Z</time>
      </trkpt>
      <trkpt lat="47.50261" lon="6.77255">
        <ele>314</ele>
        <time>2015-08-02T09:29:53Z</time>
      </trkpt>
      <trkpt lat="47.50267" lon="6.7726">
        <ele>314</ele>
        <time>2015-08-02T09:29:54Z</time>
      </trkpt>
      <trkpt lat="47.50272" lon="6.77265">
        <ele>313</ele>
        <time>2015-08-02T09:29:54Z</time>
      </trkpt>
      <trkpt lat="47.50292" lon="6.77295">
        <ele>313</ele>
        <time>2015-08-02T09:29:56Z</time>
      </trkpt>
      <trkpt lat="47.50297" lon="6.77302">
        <ele>313</ele>
        <time>2015-08-02T09:29:56Z</time>
      </trkpt>
      <trkpt lat="47.50302" lon="6.77306">
        <ele>313</ele>
        <time>2015-08-02T09:29:57Z</time>
      </trkpt>
      <trkpt lat="47.50307" lon="6.7731">
        <ele>313</ele>
        <time>2015-08-02T09:29:58Z</time>
      </trkpt>
      <trkpt lat="47.50312" lon="6.77313">
        <ele>312</ele>
        <time>2015-08-02T09:29:58Z</time>
      </trkpt>
      <trkpt lat="47.50316" lon="6.77316">
        <ele>312</ele>
        <time>2015-08-02T09:30:00Z</time>
      </trkpt>
      <trkpt lat="47.50322" lon="6.77323">
        <ele>312</ele>
        <time>2015-08-02T09:30:02Z</time>
      </trkpt>
      <trkpt lat="47.50331" lon="6.77337">
        <ele>312</ele>
        <time>2015-08-02T09:30:03Z</time>
      </trkpt>
      <trkpt lat="47.50337" lon="6.77339">
        <ele>312</ele>
        <time>2015-08-02T09:30:03Z</time>
      </trkpt>
      <trkpt lat="47.50343" lon="6.77342">
        <ele>312</ele>
        <time>2015-08-02T09:30:03Z</time>
      </trkpt>
      <trkpt lat="47.50348" lon="6.77346">
        <ele>312</ele>
        <time>2015-08-02T09:30:04Z</time>
      </trkpt>
      <trkpt lat="47.50352" lon="6.77351">
        <ele>312</ele>
        <time>2015-08-02T09:30:05Z</time>
      </trkpt>
      <trkpt lat="47.50357" lon="6.77355">
        <ele>312</ele>
        <time>2015-08-02T09:30:05Z</time>
      </trkpt>
      <trkpt lat="47.50366" lon="6.77361">
        <ele>312</ele>
        <time>2015-08-02T09:30:07Z</time>
      </trkpt>
      <trkpt lat="47.50377" lon="6.77373">
        <ele>312</ele>
        <time>2015-08-02T09:30:08Z</time>
      </trkpt>
      <trkpt lat="47.50381" lon="6.77377">
        <ele>312</ele>
        <time>2015-08-02T09:30:09Z</time>
      </trkpt>
      <trkpt lat="47.50386" lon="6.7738">
        <ele>312</ele>
        <time>2015-08-02T09:30:09Z</time>
      </trkpt>
      <trkpt lat="47.50391" lon="6.77383">
        <ele>312</ele>
        <time>2015-08-02T09:30:10Z</time>
      </trkpt>
      <trkpt lat="47.50395" lon="6.77389">
        <ele>312</ele>
        <time>2015-08-02T09:30:11Z</time>
      </trkpt>
      <trkpt lat="47.504" lon="6.77394">
        <ele>312</ele>
        <time>2015-08-02T09:30:11Z</time>
      </trkpt>
      <trkpt lat="47.50404" lon="6.77399">
        <ele>312</ele>
        <time>2015-08-02T09:30:12Z</time>
      </trkpt>
      <trkpt lat="47.50409" lon="6.77404">
        <ele>311</ele>
        <time>2015-08-02T09:30:13Z</time>
      </trkpt>
      <trkpt lat="47.50414" lon="6.77406">
        <ele>311</ele>
        <time>2015-08-02T09:30:13Z</time>
      </trkpt>
      <trkpt lat="47.50427" lon="6.77419">
        <ele>312</ele>
        <time>2015-08-02T09:30:16Z</time>
      </trkpt>
      <trkpt lat="47.50432" lon="6.77423">
        <ele>312</ele>
        <time>2015-08-02T09:30:17Z</time>
      </trkpt>
      <trkpt lat="47.50436" lon="6.77425">
        <ele>312</ele>
        <time>2015-08-02T09:30:18Z</time>
      </trkpt>
      <trkpt lat="47.50441" lon="6.77426">
        <ele>312</ele>
        <time>2015-08-02T09:30:18Z</time>
      </trkpt>
      <trkpt lat="47.50445" lon="6.77428">
        <ele>312</ele>
        <time>2015-08-02T09:30:19Z</time>
      </trkpt>
      <trkpt lat="47.5045" lon="6.7743">
        <ele>312</ele>
        <time>2015-08-02T09:30:20Z</time>
      </trkpt>
      <trkpt lat="47.50454" lon="6.77434">
        <ele>312</ele>
        <time>2015-08-02T09:30:20Z</time>
      </trkpt>
      <trkpt lat="47.50458" lon="6.77439">
        <ele>313</ele>
        <time>2015-08-02T09:30:21Z</time>
      </trkpt>
      <trkpt lat="47.50461" lon="6.77441">
        <ele>313</ele>
        <time>2015-08-02T09:30:22Z</time>
      </trkpt>
      <trkpt lat="47.50464" lon="6.7744">
        <ele>313</ele>
        <time>2015-08-02T09:30:22Z</time>
      </trkpt>
      <trkpt lat="47.50467" lon="6.7744">
        <ele>313</ele>
        <time>2015-08-02T09:30:23Z</time>
      </trkpt>
      <trkpt lat="47.50471" lon="6.77443">
        <ele>313</ele>
        <time>2015-08-02T09:30:23Z</time>
      </trkpt>
      <trkpt lat="47.50476" lon="6.77448">
        <ele>313</ele>
        <time>2015-08-02T09:30:23Z</time>
      </trkpt>
      <trkpt lat="47.50481" lon="6.77452">
        <ele>313</ele>
        <time>2015-08-02T09:30:24Z</time>
      </trkpt>
      <trkpt lat="47.50486" lon="6.77454">
        <ele>313</ele>
        <time>2015-08-02T09:30:25Z</time>
      </trkpt>
      <trkpt lat="47.50491" lon="6.77462">
        <ele>313</ele>
        <time>2015-08-02T09:30:25Z</time>
      </trkpt>
      <trkpt lat="47.50496" lon="6.77464">
        <ele>313</ele>
        <time>2015-08-02T09:30:26Z</time>
      </trkpt>
      <trkpt lat="47.505" lon="6.77467">
        <ele>314</ele>
        <time>2015-08-02T09:30:27Z</time>
      </trkpt>
      <trkpt lat="47.50507" lon="6.77473">
        <ele>314</ele>
        <time>2015-08-02T09:30:27Z</time>
      </trkpt>
      <trkpt lat="47.5052" lon="6.77477">
        <ele>314</ele>
        <time>2015-08-02T09:30:30Z</time>
      </trkpt>
      <trkpt lat="47.50525" lon="6.77484">
        <ele>314</ele>
        <time>2015-08-02T09:30:30Z</time>
      </trkpt>
      <trkpt lat="47.5053" lon="6.77488">
        <ele>314</ele>
        <time>2015-08-02T09:30:32Z</time>
      </trkpt>
      <trkpt lat="47.50534" lon="6.77488">
        <ele>314</ele>
        <time>2015-08-02T09:30:33Z</time>
      </trkpt>
      <trkpt lat="47.50539" lon="6.77489">
        <ele>314</ele>
        <time>2015-08-02T09:30:33Z</time>
      </trkpt>
      <trkpt lat="47.50543" lon="6.77499">
        <ele>314</ele>
        <time>2015-08-02T09:30:33Z</time>
      </trkpt>
      <trkpt lat="47.50544" lon="6.77506">
        <ele>314</ele>
        <time>2015-08-02T09:30:34Z</time>
      </trkpt>
      <trkpt lat="47.50547" lon="6.7751">
        <ele>314</ele>
        <time>2015-08-02T09:30:34Z</time>
      </trkpt>
      <trkpt lat="47.5055" lon="6.77518">
        <ele>313</ele>
        <time>2015-08-02T09:30:35Z</time>
      </trkpt>
      <trkpt lat="47.50555" lon="6.77528">
        <ele>313</ele>
        <time>2015-08-02T09:30:36Z</time>
      </trkpt>
      <trkpt lat="47.50559" lon="6.77535">
        <ele>313</ele>
        <time>2015-08-02T09:30:37Z</time>
      </trkpt>
      <trkpt lat="47.50568" lon="6.77533">
        <ele>313</ele>
        <time>2015-08-02T09:30:38Z</time>
      </trkpt>
      <trkpt lat="47.50576" lon="6.77531">
        <ele>313</ele>
        <time>2015-08-02T09:30:39Z</time>
      </trkpt>
      <trkpt lat="47.5058" lon="6.7753">
        <ele>313</ele>
        <time>2015-08-02T09:30:40Z</time>
      </trkpt>
      <trkpt lat="47.5058" lon="6.77524">
        <ele>314</ele>
        <time>2015-08-02T09:30:40Z</time>
      </trkpt>
      <trkpt lat="47.50582" lon="6.7752">
        <ele>314</ele>
        <time>2015-08-02T09:30:41Z</time>
      </trkpt>
      <trkpt lat="47.50595" lon="6.77504">
        <ele>314</ele>
        <time>2015-08-02T09:30:43Z</time>
      </trkpt>
      <trkpt lat="47.50604" lon="6.77495">
        <ele>314</ele>
        <time>2015-08-02T09:30:44Z</time>
      </trkpt>
      <trkpt lat="47.50609" lon="6.77501">
        <ele>313</ele>
        <time>2015-08-02T09:30:45Z</time>
      </trkpt>
      <trkpt lat="47.50619" lon="6.775">
        <ele>313</ele>
        <time>2015-08-02T09:30:47Z</time>
      </trkpt>
      <trkpt lat="47.50624" lon="6.775">
        <ele>314</ele>
        <time>2015-08-02T09:30:48Z</time>
      </trkpt>
      <trkpt lat="47.50629" lon="6.77506">
        <ele>313</ele>
        <time>2015-08-02T09:30:49Z</time>
      </trkpt>
      <trkpt lat="47.50634" lon="6.77513">
        <ele>313</ele>
        <time>2015-08-02T09:30:49Z</time>
      </trkpt>
      <trkpt lat="47.50639" lon="6.77514">
        <ele>313</ele>
        <time>2015-08-02T09:30:50Z</time>
      </trkpt>
      <trkpt lat="47.50644" lon="6.77516">
        <ele>313</ele>
        <time>2015-08-02T09:30:51Z</time>
      </trkpt>
      <trkpt lat="47.50649" lon="6.77521">
        <ele>313</ele>
        <time>2015-08-02T09:30:51Z</time>
      </trkpt>
      <trkpt lat="47.50654" lon="6.77522">
        <ele>313</ele>
        <time>2015-08-02T09:30:52Z</time>
      </trkpt>
      <trkpt lat="47.50659" lon="6.77521">
        <ele>313</ele>
        <time>2015-08-02T09:30:53Z</time>
      </trkpt>
      <trkpt lat="47.50662" lon="6.77523">
        <ele>313</ele>
        <time>2015-08-02T09:30:53Z</time>
      </trkpt>
      <trkpt lat="47.50666" lon="6.77523">
        <ele>313</ele>
        <time>2015-08-02T09:30:53Z</time>
      </trkpt>
      <trkpt lat="47.5067" lon="6.77521">
        <ele>313</ele>
        <time>2015-08-02T09:30:54Z</time>
      </trkpt>
      <trkpt lat="47.50674" lon="6.77516">
        <ele>313</ele>
        <time>2015-08-02T09:30:54Z</time>
      </trkpt>
      <trkpt lat="47.50679" lon="6.77515">
        <ele>313</ele>
        <time>2015-08-02T09:30:56Z</time>
      </trkpt>
      <trkpt lat="47.50683" lon="6.77516">
        <ele>313</ele>
        <time>2015-08-02T09:30:57Z</time>
      </trkpt>
      <trkpt lat="47.50687" lon="6.77517">
        <ele>313</ele>
        <time>2015-08-02T09:30:57Z</time>
      </trkpt>
      <trkpt lat="47.50691" lon="6.77518">
        <ele>313</ele>
        <time>2015-08-02T09:30:59Z</time>
      </trkpt>
      <trkpt lat="47.50695" lon="6.77518">
        <ele>313</ele>
        <time>2015-08-02T09:31:00Z</time>
      </trkpt>
      <trkpt lat="47.50704" lon="6.77515">
        <ele>313</ele>
        <time>2015-08-02T09:31:01Z</time>
      </trkpt>
      <trkpt lat="47.50708" lon="6.77514">
        <ele>313</ele>
        <time>2015-08-02T09:31:02Z</time>
      </trkpt>
      <trkpt lat="47.50713" lon="6.77514">
        <ele>313</ele>
        <time>2015-08-02T09:31:02Z</time>
      </trkpt>
      <trkpt lat="47.50721" lon="6.77513">
        <ele>313</ele>
        <time>2015-08-02T09:31:03Z</time>
      </trkpt>
      <trkpt lat="47.50732" lon="6.77514">
        <ele>313</ele>
        <time>2015-08-02T09:31:04Z</time>
      </trkpt>
      <trkpt lat="47.50738" lon="6.77517">
        <ele>313</ele>
        <time>2015-08-02T09:31:05Z</time>
      </trkpt>
      <trkpt lat="47.50743" lon="6.77521">
        <ele>313</ele>
        <time>2015-08-02T09:31:05Z</time>
      </trkpt>
      <trkpt lat="47.50747" lon="6.77525">
        <ele>313</ele>
        <time>2015-08-02T09:31:06Z</time>
      </trkpt>
      <trkpt lat="47.50752" lon="6.7753">
        <ele>314</ele>
        <time>2015-08-02T09:31:07Z</time>
      </trkpt>
      <trkpt lat="47.5076" lon="6.77534">
        <ele>314</ele>
        <time>2015-08-02T09:31:08Z</time>
      </trkpt>
      <trkpt lat="47.50764" lon="6.77536">
        <ele>314</ele>
        <time>2015-08-02T09:31:09Z</time>
      </trkpt>
      <trkpt lat="47.50767" lon="6.77542">
        <ele>314</ele>
        <time>2015-08-02T09:31:09Z</time>
      </trkpt>
      <trkpt lat="47.50771" lon="6.77544">
        <ele>314</ele>
        <time>2015-08-02T09:31:11Z</time>
      </trkpt>
      <trkpt lat="47.50775" lon="6.7755">
        <ele>314</ele>
        <time>2015-08-02T09:31:12Z</time>
      </trkpt>
      <trkpt lat="47.50778" lon="6.77552">
        <ele>315</ele>
        <time>2015-08-02T09:31:12Z</time>
      </trkpt>
      <trkpt lat="47.50781" lon="6.77556">
        <ele>315</ele>
        <time>2015-08-02T09:31:13Z</time>
      </trkpt>
      <trkpt lat="47.50784" lon="6.77559">
        <ele>315</ele>
        <time>2015-08-02T09:31:13Z</time>
      </trkpt>
      <trkpt lat="47.50786" lon="6.7756">
        <ele>315</ele>
        <time>2015-08-02T09:31:13Z</time>
      </trkpt>
      <trkpt lat="47.50789" lon="6.77561">
        <ele>315</ele>
        <time>2015-08-02T09:31:14Z</time>
      </trkpt>
      <trkpt lat="47.50797" lon="6.77565">
        <ele>315</ele>
        <time>2015-08-02T09:31:15Z</time>
      </trkpt>
      <trkpt lat="47.50802" lon="6.77566">
        <ele>315</ele>
        <time>2015-08-02T09:31:15Z</time>
      </trkpt>
      <trkpt lat="47.50809" lon="6.77569">
        <ele>315</ele>
        <time>2015-08-02T09:31:18Z</time>
      </trkpt>
      <trkpt lat="47.50812" lon="6.77572">
        <ele>316</ele>
        <time>2015-08-02T09:31:18Z</time>
      </trkpt>
      <trkpt lat="47.50814" lon="6.77576">
        <ele>316</ele>
        <time>2015-08-02T09:31:19Z</time>
      </trkpt>
      <trkpt lat="47.50819" lon="6.77585">
        <ele>316</ele>
        <time>2015-08-02T09:31:20Z</time>
      </trkpt>
      <trkpt lat="47.50824" lon="6.77592">
        <ele>316</ele>
        <time>2015-08-02T09:31:21Z</time>
      </trkpt>
      <trkpt lat="47.50829" lon="6.77593">
        <ele>316</ele>
        <time>2015-08-02T09:31:22Z</time>
      </trkpt>
      <trkpt lat="47.50833" lon="6.77593">
        <ele>316</ele>
        <time>2015-08-02T09:31:22Z</time>
      </trkpt>
      <trkpt lat="47.50841" lon="6.77594">
        <ele>317</ele>
        <time>2015-08-02T09:31:24Z</time>
      </trkpt>
      <trkpt lat="47.50846" lon="6.77596">
        <ele>317</ele>
        <time>2015-08-02T09:31:24Z</time>
      </trkpt>
      <trkpt lat="47.50854" lon="6.77608">
        <ele>316</ele>
        <time>2015-08-02T09:31:25Z</time>
      </trkpt>
      <trkpt lat="47.5086" lon="6.77615">
        <ele>316</ele>
        <time>2015-08-02T09:31:26Z</time>
      </trkpt>
      <trkpt lat="47.50863" lon="6.77628">
        <ele>316</ele>
        <time>2015-08-02T09:31:26Z</time>
      </trkpt>
      <trkpt lat="47.50866" lon="6.77641">
        <ele>316</ele>
        <time>2015-08-02T09:31:27Z</time>
      </trkpt>
      <trkpt lat="47.5087" lon="6.77648">
        <ele>316</ele>
        <time>2015-08-02T09:31:28Z</time>
      </trkpt>
      <trkpt lat="47.50873" lon="6.77654">
        <ele>316</ele>
        <time>2015-08-02T09:31:28Z</time>
      </trkpt>
      <trkpt lat="47.50875" lon="6.77661">
        <ele>316</ele>
        <time>2015-08-02T09:31:29Z</time>
      </trkpt>
      <trkpt lat="47.50877" lon="6.77672">
        <ele>316</ele>
        <time>2015-08-02T09:31:30Z</time>
      </trkpt>
      <trkpt lat="47.5088" lon="6.7768">
        <ele>316</ele>
        <time>2015-08-02T09:31:30Z</time>
      </trkpt>
      <trkpt lat="47.50884" lon="6.77688">
        <ele>316</ele>
        <time>2015-08-02T09:31:32Z</time>
      </trkpt>
      <trkpt lat="47.50886" lon="6.7769">
        <ele>316</ele>
        <time>2015-08-02T09:31:32Z</time>
      </trkpt>
      <trkpt lat="47.50889" lon="6.77691">
        <ele>316</ele>
        <time>2015-08-02T09:31:33Z</time>
      </trkpt>
      <trkpt lat="47.50891" lon="6.7769">
        <ele>316</ele>
        <time>2015-08-02T09:31:34Z</time>
      </trkpt>
      <trkpt lat="47.50894" lon="6.77688">
        <ele>316</ele>
        <time>2015-08-02T09:31:34Z</time>
      </trkpt>
      <trkpt lat="47.50897" lon="6.77687">
        <ele>316</ele>
        <time>2015-08-02T09:31:35Z</time>
      </trkpt>
      <trkpt lat="47.50899" lon="6.77688">
        <ele>316</ele>
        <time>2015-08-02T09:31:36Z</time>
      </trkpt>
      <trkpt lat="47.50902" lon="6.77688">
        <ele>316</ele>
        <time>2015-08-02T09:31:36Z</time>
      </trkpt>
      <trkpt lat="47.50906" lon="6.77689">
        <ele>316</ele>
        <time>2015-08-02T09:31:38Z</time>
      </trkpt>
      <trkpt lat="47.50929" lon="6.7769">
        <ele>315</ele>
        <time>2015-08-02T09:31:42Z</time>
      </trkpt>
      <trkpt lat="47.50938" lon="6.77691">
        <ele>315</ele>
        <time>2015-08-02T09:31:43Z</time>
      </trkpt>
      <trkpt lat="47.50941" lon="6.7769">
        <ele>315</ele>
        <time>2015-08-02T09:31:44Z</time>
      </trkpt>
      <trkpt lat="47.50948" lon="6.77688">
        <ele>315</ele>
        <time>2015-08-02T09:31:45Z</time>
      </trkpt>
      <trkpt lat="47.50952" lon="6.77688">
        <ele>315</ele>
        <time>2015-08-02T09:31:45Z</time>
      </trkpt>
      <trkpt lat="47.50956" lon="6.77688">
        <ele>315</ele>
        <time>2015-08-02T09:31:46Z</time>
      </trkpt>
      <trkpt lat="47.50961" lon="6.77687">
        <ele>315</ele>
        <time>2015-08-02T09:31:47Z</time>
      </trkpt>
      <trkpt lat="47.50969" lon="6.77689">
        <ele>315</ele>
        <time>2015-08-02T09:31:48Z</time>
      </trkpt>
      <trkpt lat="47.50973" lon="6.7769">
        <ele>315</ele>
        <time>2015-08-02T09:31:49Z</time>
      </trkpt>
      <trkpt lat="47.50979" lon="6.77694">
        <ele>315</ele>
        <time>2015-08-02T09:31:50Z</time>
      </trkpt>
      <trkpt lat="47.50982" lon="6.77696">
        <ele>315</ele>
        <time>2015-08-02T09:31:51Z</time>
      </trkpt>
      <trkpt lat="47.50985" lon="6.77697">
        <ele>315</ele>
        <time>2015-08-02T09:31:51Z</time>
      </trkpt>
      <trkpt lat="47.50989" lon="6.777">
        <ele>315</ele>
        <time>2015-08-02T09:31:53Z</time>
      </trkpt>
      <trkpt lat="47.50999" lon="6.77709">
        <ele>315</ele>
        <time>2015-08-02T09:31:54Z</time>
      </trkpt>
      <trkpt lat="47.51003" lon="6.77712">
        <ele>316</ele>
        <time>2015-08-02T09:31:55Z</time>
      </trkpt>
      <trkpt lat="47.51008" lon="6.77724">
        <ele>316</ele>
        <time>2015-08-02T09:31:55Z</time>
      </trkpt>
      <trkpt lat="47.51011" lon="6.77728">
        <ele>317</ele>
        <time>2015-08-02T09:31:56Z</time>
      </trkpt>
      <trkpt lat="47.51015" lon="6.77729">
        <ele>317</ele>
        <time>2015-08-02T09:31:57Z</time>
      </trkpt>
      <trkpt lat="47.51021" lon="6.77735">
        <ele>317</ele>
        <time>2015-08-02T09:31:58Z</time>
      </trkpt>
      <trkpt lat="47.51024" lon="6.77736">
        <ele>317</ele>
        <time>2015-08-02T09:31:59Z</time>
      </trkpt>
      <trkpt lat="47.51027" lon="6.77736">
        <ele>317</ele>
        <time>2015-08-02T09:32:00Z</time>
      </trkpt>
      <trkpt lat="47.51022" lon="6.77742">
        <ele>317</ele>
        <time>2015-08-02T09:32:01Z</time>
      </trkpt>
      <trkpt lat="47.51025" lon="6.77743">
        <ele>317</ele>
        <time>2015-08-02T09:32:02Z</time>
      </trkpt>
      <trkpt lat="47.51026" lon="6.77743">
        <ele>317</ele>
        <time>2015-08-02T09:32:03Z</time>
      </trkpt>
      <trkpt lat="47.51035" lon="6.7774">
        <ele>317</ele>
        <time>2015-08-02T09:32:07Z</time>
      </trkpt>
      <trkpt lat="47.51041" lon="6.77739">
        <ele>317</ele>
        <time>2015-08-02T09:32:10Z</time>
      </trkpt>
      <trkpt lat="47.51043" lon="6.77738">
        <ele>317</ele>
        <time>2015-08-02T09:32:10Z</time>
      </trkpt>
      <trkpt lat="47.51047" lon="6.77739">
        <ele>317</ele>
        <time>2015-08-02T09:32:11Z</time>
      </trkpt>
      <trkpt lat="47.5105" lon="6.77739">
        <ele>318</ele>
        <time>2015-08-02T09:32:12Z</time>
      </trkpt>
      <trkpt lat="47.51057" lon="6.77742">
        <ele>318</ele>
        <time>2015-08-02T09:32:13Z</time>
      </trkpt>
      <trkpt lat="47.51065" lon="6.77747">
        <ele>318</ele>
        <time>2015-08-02T09:32:13Z</time>
      </trkpt>
      <trkpt lat="47.51069" lon="6.77749">
        <ele>319</ele>
        <time>2015-08-02T09:32:14Z</time>
      </trkpt>
      <trkpt lat="47.51074" lon="6.77751">
        <ele>319</ele>
        <time>2015-08-02T09:32:15Z</time>
      </trkpt>
      <trkpt lat="47.51081" lon="6.77753">
        <ele>320</ele>
        <time>2015-08-02T09:32:16Z</time>
      </trkpt>
      <trkpt lat="47.51085" lon="6.77755">
        <ele>320</ele>
        <time>2015-08-02T09:32:17Z</time>
      </trkpt>
      <trkpt lat="47.51093" lon="6.77758">
        <ele>321</ele>
        <time>2015-08-02T09:32:19Z</time>
      </trkpt>
      <trkpt lat="47.51096" lon="6.77759">
        <ele>321</ele>
        <time>2015-08-02T09:32:20Z</time>
      </trkpt>
      <trkpt lat="47.51103" lon="6.77762">
        <ele>321</ele>
        <time>2015-08-02T09:32:22Z</time>
      </trkpt>
      <trkpt lat="47.5111" lon="6.77763">
        <ele>322</ele>
        <time>2015-08-02T09:32:23Z</time>
      </trkpt>
      <trkpt lat="47.51121" lon="6.77764">
        <ele>322</ele>
        <time>2015-08-02T09:32:24Z</time>
      </trkpt>
      <trkpt lat="47.51129" lon="6.77764">
        <ele>322</ele>
        <time>2015-08-02T09:32:26Z</time>
      </trkpt>
      <trkpt lat="47.51132" lon="6.77764">
        <ele>322</ele>
        <time>2015-08-02T09:32:26Z</time>
      </trkpt>
      <trkpt lat="47.51142" lon="6.77765">
        <ele>323</ele>
        <time>2015-08-02T09:32:28Z</time>
      </trkpt>
      <trkpt lat="47.51148" lon="6.77764">
        <ele>323</ele>
        <time>2015-08-02T09:32:31Z</time>
      </trkpt>
      <trkpt lat="47.51152" lon="6.77764">
        <ele>323</ele>
        <time>2015-08-02T09:32:31Z</time>
      </trkpt>
      <trkpt lat="47.51155" lon="6.77765">
        <ele>323</ele>
        <time>2015-08-02T09:32:32Z</time>
      </trkpt>
      <trkpt lat="47.51158" lon="6.77764">
        <ele>323</ele>
        <time>2015-08-02T09:32:33Z</time>
      </trkpt>
      <trkpt lat="47.51162" lon="6.77763">
        <ele>323</ele>
        <time>2015-08-02T09:32:33Z</time>
      </trkpt>
      <trkpt lat="47.51166" lon="6.77762">
        <ele>323</ele>
        <time>2015-08-02T09:32:34Z</time>
      </trkpt>
      <trkpt lat="47.5117" lon="6.77761">
        <ele>325</ele>
        <time>2015-08-02T09:32:35Z</time>
      </trkpt>
      <trkpt lat="47.51173" lon="6.77761">
        <ele>325</ele>
        <time>2015-08-02T09:32:35Z</time>
      </trkpt>
      <trkpt lat="47.51176" lon="6.77762">
        <ele>325</ele>
        <time>2015-08-02T09:32:36Z</time>
      </trkpt>
      <trkpt lat="47.5118" lon="6.77764">
        <ele>326</ele>
        <time>2015-08-02T09:32:37Z</time>
      </trkpt>
      <trkpt lat="47.51187" lon="6.77768">
        <ele>326</ele>
        <time>2015-08-02T09:32:39Z</time>
      </trkpt>
      <trkpt lat="47.5119" lon="6.77769">
        <ele>326</ele>
        <time>2015-08-02T09:32:40Z</time>
      </trkpt>
      <trkpt lat="47.51197" lon="6.77772">
        <ele>326</ele>
        <time>2015-08-02T09:32:42Z</time>
      </trkpt>
      <trkpt lat="47.51202" lon="6.77774">
        <ele>327</ele>
        <time>2015-08-02T09:32:43Z</time>
      </trkpt>
      <trkpt lat="47.51204" lon="6.77775">
        <ele>327</ele>
        <time>2015-08-02T09:32:43Z</time>
      </trkpt>
      <trkpt lat="47.51208" lon="6.77775">
        <ele>327</ele>
        <time>2015-08-02T09:32:44Z</time>
      </trkpt>
      <trkpt lat="47.51215" lon="6.77774">
        <ele>327</ele>
        <time>2015-08-02T09:32:48Z</time>
      </trkpt>
      <trkpt lat="47.51219" lon="6.77773">
        <ele>327</ele>
        <time>2015-08-02T09:32:49Z</time>
      </trkpt>
      <trkpt lat="47.51221" lon="6.77771">
        <ele>327</ele>
        <time>2015-08-02T09:32:51Z</time>
      </trkpt>
      <trkpt lat="47.51225" lon="6.77768">
        <ele>327</ele>
        <time>2015-08-02T09:32:52Z</time>
      </trkpt>
      <trkpt lat="47.51226" lon="6.77767">
        <ele>328</ele>
        <time>2015-08-02T09:32:53Z</time>
      </trkpt>
      <trkpt lat="47.5123" lon="6.77765">
        <ele>328</ele>
        <time>2015-08-02T09:32:53Z</time>
      </trkpt>
      <trkpt lat="47.51232" lon="6.77766">
        <ele>328</ele>
        <time>2015-08-02T09:32:54Z</time>
      </trkpt>
      <trkpt lat="47.51234" lon="6.77766">
        <ele>328</ele>
        <time>2015-08-02T09:32:55Z</time>
      </trkpt>
      <trkpt lat="47.51238" lon="6.77768">
        <ele>328</ele>
        <time>2015-08-02T09:32:56Z</time>
      </trkpt>
      <trkpt lat="47.5124" lon="6.77769">
        <ele>328</ele>
        <time>2015-08-02T09:32:57Z</time>
      </trkpt>
      <trkpt lat="47.51244" lon="6.7777">
        <ele>328</ele>
        <time>2015-08-02T09:32:58Z</time>
      </trkpt>
      <trkpt lat="47.51246" lon="6.77769">
        <ele>328</ele>
        <time>2015-08-02T09:32:59Z</time>
      </trkpt>
      <trkpt lat="47.51251" lon="6.77767">
        <ele>332</ele>
        <time>2015-08-02T09:33:01Z</time>
      </trkpt>
      <trkpt lat="47.51255" lon="6.77766">
        <ele>332</ele>
        <time>2015-08-02T09:33:02Z</time>
      </trkpt>
      <trkpt lat="47.51257" lon="6.77766">
        <ele>332</ele>
        <time>2015-08-02T09:33:03Z</time>
      </trkpt>
      <trkpt lat="47.51261" lon="6.77768">
        <ele>333</ele>
        <time>2015-08-02T09:33:03Z</time>
      </trkpt>
      <trkpt lat="47.51263" lon="6.77768">
        <ele>333</ele>
        <time>2015-08-02T09:33:04Z</time>
      </trkpt>
      <trkpt lat="47.51265" lon="6.77768">
        <ele>333</ele>
        <time>2015-08-02T09:33:05Z</time>
      </trkpt>
      <trkpt lat="47.5127" lon="6.77768">
        <ele>334</ele>
        <time>2015-08-02T09:33:06Z</time>
      </trkpt>
      <trkpt lat="47.51272" lon="6.77768">
        <ele>334</ele>
        <time>2015-08-02T09:33:07Z</time>
      </trkpt>
      <trkpt lat="47.51277" lon="6.77769">
        <ele>335</ele>
        <time>2015-08-02T09:33:09Z</time>
      </trkpt>
      <trkpt lat="47.5128" lon="6.77769">
        <ele>335</ele>
        <time>2015-08-02T09:33:10Z</time>
      </trkpt>
      <trkpt lat="47.51285" lon="6.77768">
        <ele>335</ele>
        <time>2015-08-02T09:33:13Z</time>
      </trkpt>
      <trkpt lat="47.51286" lon="6.77766">
        <ele>336</ele>
        <time>2015-08-02T09:33:15Z</time>
      </trkpt>
      <trkpt lat="47.5129" lon="6.77764">
        <ele>336</ele>
        <time>2015-08-02T09:33:16Z</time>
      </trkpt>
      <trkpt lat="47.51292" lon="6.77763">
        <ele>336</ele>
        <time>2015-08-02T09:33:17Z</time>
      </trkpt>
      <trkpt lat="47.51296" lon="6.77764">
        <ele>337</ele>
        <time>2015-08-02T09:33:18Z</time>
      </trkpt>
      <trkpt lat="47.51305" lon="6.77763">
        <ele>338</ele>
        <time>2015-08-02T09:33:21Z</time>
      </trkpt>
      <trkpt lat="47.51307" lon="6.77764">
        <ele>338</ele>
        <time>2015-08-02T09:33:21Z</time>
      </trkpt>
      <trkpt lat="47.51309" lon="6.77765">
        <ele>338</ele>
        <time>2015-08-02T09:33:22Z</time>
      </trkpt>
      <trkpt lat="47.51313" lon="6.77766">
        <ele>339</ele>
        <time>2015-08-02T09:33:23Z</time>
      </trkpt>
      <trkpt lat="47.51315" lon="6.77766">
        <ele>339</ele>
        <time>2015-08-02T09:33:23Z</time>
      </trkpt>
      <trkpt lat="47.51319" lon="6.77765">
        <ele>339</ele>
        <time>2015-08-02T09:33:24Z</time>
      </trkpt>
      <trkpt lat="47.5132" lon="6.77764">
        <ele>339</ele>
        <time>2015-08-02T09:33:25Z</time>
      </trkpt>
      <trkpt lat="47.51323" lon="6.77769">
        <ele>339</ele>
        <time>2015-08-02T09:33:31Z</time>
      </trkpt>
      <trkpt lat="47.51328" lon="6.77768">
        <ele>340</ele>
        <time>2015-08-02T09:33:33Z</time>
      </trkpt>
      <trkpt lat="47.51333" lon="6.77765">
        <ele>340</ele>
        <time>2015-08-02T09:33:34Z</time>
      </trkpt>
      <trkpt lat="47.51335" lon="6.77764">
        <ele>346</ele>
        <time>2015-08-02T09:33:34Z</time>
      </trkpt>
      <trkpt lat="47.51339" lon="6.77762">
        <ele>346</ele>
        <time>2015-08-02T09:33:37Z</time>
      </trkpt>
      <trkpt lat="47.51341" lon="6.77762">
        <ele>346</ele>
        <time>2015-08-02T09:33:38Z</time>
      </trkpt>
      <trkpt lat="47.51353" lon="6.77759">
        <ele>348</ele>
        <time>2015-08-02T09:33:43Z</time>
      </trkpt>
      <trkpt lat="47.51358" lon="6.77757">
        <ele>349</ele>
        <time>2015-08-02T09:33:43Z</time>
      </trkpt>
      <trkpt lat="47.51368" lon="6.77751">
        <ele>350</ele>
        <time>2015-08-02T09:33:47Z</time>
      </trkpt>
      <trkpt lat="47.51371" lon="6.77748">
        <ele>353</ele>
        <time>2015-08-02T09:33:49Z</time>
      </trkpt>
      <trkpt lat="47.51376" lon="6.77744">
        <ele>354</ele>
        <time>2015-08-02T09:33:51Z</time>
      </trkpt>
      <trkpt lat="47.51378" lon="6.77744">
        <ele>354</ele>
        <time>2015-08-02T09:33:51Z</time>
      </trkpt>
      <trkpt lat="47.51381" lon="6.77742">
        <ele>354</ele>
        <time>2015-08-02T09:33:53Z</time>
      </trkpt>
      <trkpt lat="47.51383" lon="6.77741">
        <ele>355</ele>
        <time>2015-08-02T09:33:53Z</time>
      </trkpt>
      <trkpt lat="47.51392" lon="6.77735">
        <ele>355</ele>
        <time>2015-08-02T09:33:57Z</time>
      </trkpt>
      <trkpt lat="47.51395" lon="6.77734">
        <ele>356</ele>
        <time>2015-08-02T09:33:58Z</time>
      </trkpt>
      <trkpt lat="47.51396" lon="6.77734">
        <ele>356</ele>
        <time>2015-08-02T09:33:59Z</time>
      </trkpt>
      <trkpt lat="47.514" lon="6.77733">
        <ele>356</ele>
        <time>2015-08-02T09:34:02Z</time>
      </trkpt>
      <trkpt lat="47.51401" lon="6.77732">
        <ele>356</ele>
        <time>2015-08-02T09:34:03Z</time>
      </trkpt>
      <trkpt lat="47.51404" lon="6.77729">
        <ele>356</ele>
        <time>2015-08-02T09:34:03Z</time>
      </trkpt>
      <trkpt lat="47.51405" lon="6.77729">
        <ele>356</ele>
        <time>2015-08-02T09:34:04Z</time>
      </trkpt>
      <trkpt lat="47.51409" lon="6.77729">
        <ele>357</ele>
        <time>2015-08-02T09:34:06Z</time>
      </trkpt>
      <trkpt lat="47.5141" lon="6.77729">
        <ele>357</ele>
        <time>2015-08-02T09:34:06Z</time>
      </trkpt>
      <trkpt lat="47.51417" lon="6.77725">
        <ele>363</ele>
        <time>2015-08-02T09:34:11Z</time>
      </trkpt>
      <trkpt lat="47.5142" lon="6.77724">
        <ele>363</ele>
        <time>2015-08-02T09:34:12Z</time>
      </trkpt>
      <trkpt lat="47.51424" lon="6.77725">
        <ele>363</ele>
        <time>2015-08-02T09:34:13Z</time>
      </trkpt>
      <trkpt lat="47.51426" lon="6.77725">
        <ele>363</ele>
        <time>2015-08-02T09:34:14Z</time>
      </trkpt>
      <trkpt lat="47.5143" lon="6.77723">
        <ele>364</ele>
        <time>2015-08-02T09:34:16Z</time>
      </trkpt>
      <trkpt lat="47.51434" lon="6.77725">
        <ele>364</ele>
        <time>2015-08-02T09:34:19Z</time>
      </trkpt>
      <trkpt lat="47.51435" lon="6.77725">
        <ele>364</ele>
        <time>2015-08-02T09:34:20Z</time>
      </trkpt>
      <trkpt lat="47.51439" lon="6.77724">
        <ele>364</ele>
        <time>2015-08-02T09:34:22Z</time>
      </trkpt>
      <trkpt lat="47.51446" lon="6.77723">
        <ele>365</ele>
        <time>2015-08-02T09:34:26Z</time>
      </trkpt>
      <trkpt lat="47.5145" lon="6.77723">
        <ele>365</ele>
        <time>2015-08-02T09:34:27Z</time>
      </trkpt>
      <trkpt lat="47.51452" lon="6.77724">
        <ele>365</ele>
        <time>2015-08-02T09:34:28Z</time>
      </trkpt>
      <trkpt lat="47.51457" lon="6.77724">
        <ele>365</ele>
        <time>2015-08-02T09:34:31Z</time>
      </trkpt>
      <trkpt lat="47.51461" lon="6.77722">
        <ele>366</ele>
        <time>2015-08-02T09:34:33Z</time>
      </trkpt>
      <trkpt lat="47.51462" lon="6.77722">
        <ele>366</ele>
        <time>2015-08-02T09:34:34Z</time>
      </trkpt>
      <trkpt lat="47.51465" lon="6.77721">
        <ele>366</ele>
        <time>2015-08-02T09:34:35Z</time>
      </trkpt>
      <trkpt lat="47.51471" lon="6.7772">
        <ele>366</ele>
        <time>2015-08-02T09:34:39Z</time>
      </trkpt>
      <trkpt lat="47.51473" lon="6.77719">
        <ele>366</ele>
        <time>2015-08-02T09:34:39Z</time>
      </trkpt>
      <trkpt lat="47.51482" lon="6.77714">
        <ele>367</ele>
        <time>2015-08-02T09:34:43Z</time>
      </trkpt>
      <trkpt lat="47.51486" lon="6.77713">
        <ele>367</ele>
        <time>2015-08-02T09:34:46Z</time>
      </trkpt>
      <trkpt lat="47.51487" lon="6.77714">
        <ele>367</ele>
        <time>2015-08-02T09:34:47Z</time>
      </trkpt>
      <trkpt lat="47.51491" lon="6.77716">
        <ele>367</ele>
        <time>2015-08-02T09:34:50Z</time>
      </trkpt>
      <trkpt lat="47.51491" lon="6.77717">
        <ele>367</ele>
        <time>2015-08-02T09:34:50Z</time>
      </trkpt>
      <trkpt lat="47.51495" lon="6.77718">
        <ele>367</ele>
        <time>2015-08-02T09:34:53Z</time>
      </trkpt>
      <trkpt lat="47.51496" lon="6.77718">
        <ele>367</ele>
        <time>2015-08-02T09:34:53Z</time>
      </trkpt>
      <trkpt lat="47.51499" lon="6.77714">
        <ele>367</ele>
        <time>2015-08-02T09:34:56Z</time>
      </trkpt>
      <trkpt lat="47.51503" lon="6.7771">
        <ele>372</ele>
        <time>2015-08-02T09:34:58Z</time>
      </trkpt>
      <trkpt lat="47.51505" lon="6.77708">
        <ele>372</ele>
        <time>2015-08-02T09:34:58Z</time>
      </trkpt>
      <trkpt lat="47.51508" lon="6.77707">
        <ele>372</ele>
        <time>2015-08-02T09:35:00Z</time>
      </trkpt>
      <trkpt lat="47.5151" lon="6.77707">
        <ele>372</ele>
        <time>2015-08-02T09:35:00Z</time>
      </trkpt>
      <trkpt lat="47.51514" lon="6.77707">
        <ele>372</ele>
        <time>2015-08-02T09:35:02Z</time>
      </trkpt>
      <trkpt lat="47.51519" lon="6.7771">
        <ele>372</ele>
        <time>2015-08-02T09:35:03Z</time>
      </trkpt>
      <trkpt lat="47.51527" lon="6.77713">
        <ele>373</ele>
        <time>2015-08-02T09:35:06Z</time>
      </trkpt>
      <trkpt lat="47.51531" lon="6.77715">
        <ele>373</ele>
        <time>2015-08-02T09:35:08Z</time>
      </trkpt>
      <trkpt lat="47.51537" lon="6.77716">
        <ele>373</ele>
        <time>2015-08-02T09:35:11Z</time>
      </trkpt>
      <trkpt lat="47.51538" lon="6.77717">
        <ele>373</ele>
        <time>2015-08-02T09:35:11Z</time>
      </trkpt>
      <trkpt lat="47.51542" lon="6.77717">
        <ele>373</ele>
        <time>2015-08-02T09:35:13Z</time>
      </trkpt>
      <trkpt lat="47.51544" lon="6.77716">
        <ele>374</ele>
        <time>2015-08-02T09:35:13Z</time>
      </trkpt>
      <trkpt lat="47.51547" lon="6.77715">
        <ele>374</ele>
        <time>2015-08-02T09:35:14Z</time>
      </trkpt>
      <trkpt lat="47.51549" lon="6.77715">
        <ele>374</ele>
        <time>2015-08-02T09:35:14Z</time>
      </trkpt>
      <trkpt lat="47.51554" lon="6.77715">
        <ele>374</ele>
        <time>2015-08-02T09:35:16Z</time>
      </trkpt>
      <trkpt lat="47.5156" lon="6.77714">
        <ele>375</ele>
        <time>2015-08-02T09:35:19Z</time>
      </trkpt>
      <trkpt lat="47.51566" lon="6.77716">
        <ele>375</ele>
        <time>2015-08-02T09:35:21Z</time>
      </trkpt>
      <trkpt lat="47.51569" lon="6.77716">
        <ele>375</ele>
        <time>2015-08-02T09:35:23Z</time>
      </trkpt>
      <trkpt lat="47.51571" lon="6.77717">
        <ele>375</ele>
        <time>2015-08-02T09:35:23Z</time>
      </trkpt>
      <trkpt lat="47.51574" lon="6.7772">
        <ele>375</ele>
        <time>2015-08-02T09:35:24Z</time>
      </trkpt>
      <trkpt lat="47.5158" lon="6.77724">
        <ele>375</ele>
        <time>2015-08-02T09:35:26Z</time>
      </trkpt>
      <trkpt lat="47.51582" lon="6.77725">
        <ele>375</ele>
        <time>2015-08-02T09:35:27Z</time>
      </trkpt>
      <trkpt lat="47.51584" lon="6.77726">
        <ele>379</ele>
        <time>2015-08-02T09:35:28Z</time>
      </trkpt>
      <trkpt lat="47.51589" lon="6.77725">
        <ele>380</ele>
        <time>2015-08-02T09:35:32Z</time>
      </trkpt>
      <trkpt lat="47.51593" lon="6.77727">
        <ele>380</ele>
        <time>2015-08-02T09:35:35Z</time>
      </trkpt>
      <trkpt lat="47.51594" lon="6.77727">
        <ele>380</ele>
        <time>2015-08-02T09:35:36Z</time>
      </trkpt>
      <trkpt lat="47.51598" lon="6.77727">
        <ele>380</ele>
        <time>2015-08-02T09:35:37Z</time>
      </trkpt>
      <trkpt lat="47.516" lon="6.77726">
        <ele>380</ele>
        <time>2015-08-02T09:35:38Z</time>
      </trkpt>
      <trkpt lat="47.51603" lon="6.77723">
        <ele>380</ele>
        <time>2015-08-02T09:35:39Z</time>
      </trkpt>
      <trkpt lat="47.51604" lon="6.77722">
        <ele>380</ele>
        <time>2015-08-02T09:35:40Z</time>
      </trkpt>
      <trkpt lat="47.51608" lon="6.77719">
        <ele>381</ele>
        <time>2015-08-02T09:35:42Z</time>
      </trkpt>
      <trkpt lat="47.51609" lon="6.77719">
        <ele>381</ele>
        <time>2015-08-02T09:35:42Z</time>
      </trkpt>
      <trkpt lat="47.51614" lon="6.7772">
        <ele>381</ele>
        <time>2015-08-02T09:35:43Z</time>
      </trkpt>
      <trkpt lat="47.51618" lon="6.7772">
        <ele>381</ele>
        <time>2015-08-02T09:35:46Z</time>
      </trkpt>
      <trkpt lat="47.5162" lon="6.7772">
        <ele>381</ele>
        <time>2015-08-02T09:35:46Z</time>
      </trkpt>
      <trkpt lat="47.51624" lon="6.77721">
        <ele>381</ele>
        <time>2015-08-02T09:35:48Z</time>
      </trkpt>
      <trkpt lat="47.51625" lon="6.77722">
        <ele>381</ele>
        <time>2015-08-02T09:35:48Z</time>
      </trkpt>
      <trkpt lat="47.51629" lon="6.77724">
        <ele>381</ele>
        <time>2015-08-02T09:35:50Z</time>
      </trkpt>
      <trkpt lat="47.51633" lon="6.77726">
        <ele>382</ele>
        <time>2015-08-02T09:35:51Z</time>
      </trkpt>
      <trkpt lat="47.51636" lon="6.77727">
        <ele>382</ele>
        <time>2015-08-02T09:35:52Z</time>
      </trkpt>
      <trkpt lat="47.51641" lon="6.77728">
        <ele>382</ele>
        <time>2015-08-02T09:35:53Z</time>
      </trkpt>
      <trkpt lat="47.51644" lon="6.7773">
        <ele>382</ele>
        <time>2015-08-02T09:35:53Z</time>
      </trkpt>
      <trkpt lat="47.51645" lon="6.77733">
        <ele>382</ele>
        <time>2015-08-02T09:35:54Z</time>
      </trkpt>
      <trkpt lat="47.51648" lon="6.77737">
        <ele>382</ele>
        <time>2015-08-02T09:35:58Z</time>
      </trkpt>
      <trkpt lat="47.51649" lon="6.77738">
        <ele>382</ele>
        <time>2015-08-02T09:35:58Z</time>
      </trkpt>
      <trkpt lat="47.51655" lon="6.77736">
        <ele>382</ele>
        <time>2015-08-02T09:36:02Z</time>
      </trkpt>
      <trkpt lat="47.51657" lon="6.77735">
        <ele>382</ele>
        <time>2015-08-02T09:36:03Z</time>
      </trkpt>
      <trkpt lat="47.51663" lon="6.77733">
        <ele>383</ele>
        <time>2015-08-02T09:36:03Z</time>
      </trkpt>
      <trkpt lat="47.51666" lon="6.77733">
        <ele>383</ele>
        <time>2015-08-02T09:36:04Z</time>
      </trkpt>
      <trkpt lat="47.51673" lon="6.77734">
        <ele>385</ele>
        <time>2015-08-02T09:36:06Z</time>
      </trkpt>
      <trkpt lat="47.51678" lon="6.77733">
        <ele>386</ele>
        <time>2015-08-02T09:36:07Z</time>
      </trkpt>
      <trkpt lat="47.5168" lon="6.77733">
        <ele>386</ele>
        <time>2015-08-02T09:36:08Z</time>
      </trkpt>
      <trkpt lat="47.51683" lon="6.7773">
        <ele>386</ele>
        <time>2015-08-02T09:36:09Z</time>
      </trkpt>
      <trkpt lat="47.51689" lon="6.77722">
        <ele>387</ele>
        <time>2015-08-02T09:36:12Z</time>
      </trkpt>
      <trkpt lat="47.51691" lon="6.77718">
        <ele>387</ele>
        <time>2015-08-02T09:36:15Z</time>
      </trkpt>
      <trkpt lat="47.51693" lon="6.77713">
        <ele>387</ele>
        <time>2015-08-02T09:36:19Z</time>
      </trkpt>
      <trkpt lat="47.51695" lon="6.77706">
        <ele>387</ele>
        <time>2015-08-02T09:36:21Z</time>
      </trkpt>
      <trkpt lat="47.51696" lon="6.77704">
        <ele>387</ele>
        <time>2015-08-02T09:36:22Z</time>
      </trkpt>
      <trkpt lat="47.51696" lon="6.77699">
        <ele>387</ele>
        <time>2015-08-02T09:36:23Z</time>
      </trkpt>
      <trkpt lat="47.51696" lon="6.77692">
        <ele>387</ele>
        <time>2015-08-02T09:36:24Z</time>
      </trkpt>
      <trkpt lat="47.51694" lon="6.77684">
        <ele>387</ele>
        <time>2015-08-02T09:36:26Z</time>
      </trkpt>
      <trkpt lat="47.51694" lon="6.77681">
        <ele>388</ele>
        <time>2015-08-02T09:36:28Z</time>
      </trkpt>
      <trkpt lat="47.51695" lon="6.77677">
        <ele>388</ele>
        <time>2015-08-02T09:36:29Z</time>
      </trkpt>
      <trkpt lat="47.51695" lon="6.77674">
        <ele>388</ele>
        <time>2015-08-02T09:36:30Z</time>
      </trkpt>
      <trkpt lat="47.51696" lon="6.77669">
        <ele>388</ele>
        <time>2015-08-02T09:36:31Z</time>
      </trkpt>
      <trkpt lat="47.51697" lon="6.77667">
        <ele>388</ele>
        <time>2015-08-02T09:36:32Z</time>
      </trkpt>
      <trkpt lat="47.51699" lon="6.7766">
        <ele>389</ele>
        <time>2015-08-02T09:36:33Z</time>
      </trkpt>
      <trkpt lat="47.51701" lon="6.77655">
        <ele>389</ele>
        <time>2015-08-02T09:36:37Z</time>
      </trkpt>
      <trkpt lat="47.51701" lon="6.77648">
        <ele>389</ele>
        <time>2015-08-02T09:36:38Z</time>
      </trkpt>
      <trkpt lat="47.51702" lon="6.77626">
        <ele>390</ele>
        <time>2015-08-02T09:36:43Z</time>
      </trkpt>
      <trkpt lat="47.51704" lon="6.77613">
        <ele>390</ele>
        <time>2015-08-02T09:36:44Z</time>
      </trkpt>
      <trkpt lat="47.51706" lon="6.77605">
        <ele>390</ele>
        <time>2015-08-02T09:36:46Z</time>
      </trkpt>
      <trkpt lat="47.51707" lon="6.77602">
        <ele>390</ele>
        <time>2015-08-02T09:36:46Z</time>
      </trkpt>
      <trkpt lat="47.51708" lon="6.77598">
        <ele>390</ele>
        <time>2015-08-02T09:36:47Z</time>
      </trkpt>
      <trkpt lat="47.51709" lon="6.77595">
        <ele>390</ele>
        <time>2015-08-02T09:36:48Z</time>
      </trkpt>
      <trkpt lat="47.51711" lon="6.77593">
        <ele>390</ele>
        <time>2015-08-02T09:36:48Z</time>
      </trkpt>
      <trkpt lat="47.51715" lon="6.77589">
        <ele>390</ele>
        <time>2015-08-02T09:36:50Z</time>
      </trkpt>
      <trkpt lat="47.51717" lon="6.77587">
        <ele>390</ele>
        <time>2015-08-02T09:36:50Z</time>
      </trkpt>
      <trkpt lat="47.51718" lon="6.77583">
        <ele>390</ele>
        <time>2015-08-02T09:36:51Z</time>
      </trkpt>
      <trkpt lat="47.51717" lon="6.7758">
        <ele>390</ele>
        <time>2015-08-02T09:36:52Z</time>
      </trkpt>
      <trkpt lat="47.51716" lon="6.77575">
        <ele>390</ele>
        <time>2015-08-02T09:36:52Z</time>
      </trkpt>
      <trkpt lat="47.51714" lon="6.7757">
        <ele>390</ele>
        <time>2015-08-02T09:36:53Z</time>
      </trkpt>
      <trkpt lat="47.51714" lon="6.77565">
        <ele>390</ele>
        <time>2015-08-02T09:36:53Z</time>
      </trkpt>
      <trkpt lat="47.51714" lon="6.77558">
        <ele>390</ele>
        <time>2015-08-02T09:36:53Z</time>
      </trkpt>
      <trkpt lat="47.51716" lon="6.77535">
        <ele>390</ele>
        <time>2015-08-02T09:36:57Z</time>
      </trkpt>
      <trkpt lat="47.51717" lon="6.77524">
        <ele>390</ele>
        <time>2015-08-02T09:36:58Z</time>
      </trkpt>
      <trkpt lat="47.51719" lon="6.77512">
        <ele>390</ele>
        <time>2015-08-02T09:36:59Z</time>
      </trkpt>
      <trkpt lat="47.51721" lon="6.77498">
        <ele>389</ele>
        <time>2015-08-02T09:37:00Z</time>
      </trkpt>
      <trkpt lat="47.51725" lon="6.77488">
        <ele>389</ele>
        <time>2015-08-02T09:37:01Z</time>
      </trkpt>
      <trkpt lat="47.51729" lon="6.77483">
        <ele>389</ele>
        <time>2015-08-02T09:37:03Z</time>
      </trkpt>
      <trkpt lat="47.51735" lon="6.77486">
        <ele>389</ele>
        <time>2015-08-02T09:37:03Z</time>
      </trkpt>
      <trkpt lat="47.51747" lon="6.77487">
        <ele>389</ele>
        <time>2015-08-02T09:37:04Z</time>
      </trkpt>
      <trkpt lat="47.51752" lon="6.77487">
        <ele>389</ele>
        <time>2015-08-02T09:37:07Z</time>
      </trkpt>
      <trkpt lat="47.51754" lon="6.77487">
        <ele>389</ele>
        <time>2015-08-02T09:37:07Z</time>
      </trkpt>
      <trkpt lat="47.51757" lon="6.77487">
        <ele>389</ele>
        <time>2015-08-02T09:37:08Z</time>
      </trkpt>
      <trkpt lat="47.51762" lon="6.77487">
        <ele>389</ele>
        <time>2015-08-02T09:37:10Z</time>
      </trkpt>
      <trkpt lat="47.51765" lon="6.77486">
        <ele>389</ele>
        <time>2015-08-02T09:37:11Z</time>
      </trkpt>
      <trkpt lat="47.5177" lon="6.77486">
        <ele>389</ele>
        <time>2015-08-02T09:37:12Z</time>
      </trkpt>
      <trkpt lat="47.51773" lon="6.77485">
        <ele>388</ele>
        <time>2015-08-02T09:37:13Z</time>
      </trkpt>
      <trkpt lat="47.51783" lon="6.77486">
        <ele>388</ele>
        <time>2015-08-02T09:37:14Z</time>
      </trkpt>
      <trkpt lat="47.51787" lon="6.77486">
        <ele>388</ele>
        <time>2015-08-02T09:37:15Z</time>
      </trkpt>
      <trkpt lat="47.51791" lon="6.77486">
        <ele>388</ele>
        <time>2015-08-02T09:37:15Z</time>
      </trkpt>
      <trkpt lat="47.51795" lon="6.77487">
        <ele>388</ele>
        <time>2015-08-02T09:37:16Z</time>
      </trkpt>
      <trkpt lat="47.51799" lon="6.77487">
        <ele>388</ele>
        <time>2015-08-02T09:37:17Z</time>
      </trkpt>
      <trkpt lat="47.51803" lon="6.77487">
        <ele>388</ele>
        <time>2015-08-02T09:37:17Z</time>
      </trkpt>
      <trkpt lat="47.51806" lon="6.77485">
        <ele>388</ele>
        <time>2015-08-02T09:37:18Z</time>
      </trkpt>
      <trkpt lat="47.51808" lon="6.77483">
        <ele>388</ele>
        <time>2015-08-02T09:37:19Z</time>
      </trkpt>
      <trkpt lat="47.51805" lon="6.77482">
        <ele>388</ele>
        <time>2015-08-02T09:37:21Z</time>
      </trkpt>
      <trkpt lat="47.51803" lon="6.77482">
        <ele>388</ele>
        <time>2015-08-02T09:37:23Z</time>
      </trkpt>
      <trkpt lat="47.51799" lon="6.77484">
        <ele>388</ele>
        <time>2015-08-02T09:37:25Z</time>
      </trkpt>
      <trkpt lat="47.51797" lon="6.77481">
        <ele>388</ele>
        <time>2015-08-02T09:39:29Z</time>
      </trkpt>
    </trkseg>
  </trk>
</gpx>